<?xml version='1.0' encoding='UTF-8'?><gpx version="1.1" creator="JPX - https://github.com/jenetics/jpx" xmlns="http://www.topografix.com/GPX/1/1"><trk><trkseg><trkpt lat="44.6250958" lon="10.2717722"><ele>242.0</ele><time>2026-03-22T08:46:19.269Z</time></trkpt><trkpt lat="44.6251559" lon="10.2716759"><ele>242.0</ele><time>2026-03-22T08:46:21.259Z</time></trkpt><trkpt lat="44.6252143" lon="10.2715965"><ele>242.0</ele><time>2026-03-22T08:46:23.254Z</time></trkpt><trkpt lat="44.6252237" lon="10.2714923"><ele>242.0</ele><time>2026-03-22T08:46:31.245Z</time></trkpt><trkpt lat="44.6251026" lon="10.2713418"><ele>242.0</ele><time>2026-03-22T08:46:33.25Z</time></trkpt><trkpt lat="44.6250044" lon="10.2712925"><ele>242.0</ele><time>2026-03-22T08:46:34.314Z</time></trkpt><trkpt lat="44.6249093" lon="10.2712447"><ele>242.0</ele><time>2026-03-22T08:46:35.314Z</time></trkpt><trkpt lat="44.6248175" lon="10.2711957"><ele>242.0</ele><time>2026-03-22T08:46:36.254Z</time></trkpt><trkpt lat="44.624717" lon="10.2711375"><ele>242.0</ele><time>2026-03-22T08:46:37.258Z</time></trkpt><trkpt lat="44.6246133" lon="10.2710782"><ele>242.0</ele><time>2026-03-22T08:46:38.256Z</time></trkpt><trkpt lat="44.624503" lon="10.2710212"><ele>242.0</ele><time>2026-03-22T08:46:39.252Z</time></trkpt><trkpt lat="44.6243863" lon="10.2709642"><ele>242.0</ele><time>2026-03-22T08:46:40.252Z</time></trkpt><trkpt lat="44.6242725" lon="10.2709111"><ele>242.0</ele><time>2026-03-22T08:46:41.258Z</time></trkpt><trkpt lat="44.6241647" lon="10.2708614"><ele>242.0</ele><time>2026-03-22T08:46:42.254Z</time></trkpt><trkpt lat="44.6240628" lon="10.270818"><ele>242.0</ele><time>2026-03-22T08:46:43.251Z</time></trkpt><trkpt lat="44.6239667" lon="10.2707814"><ele>242.0</ele><time>2026-03-22T08:46:44.264Z</time></trkpt><trkpt lat="44.6238738" lon="10.2707452"><ele>242.0</ele><time>2026-03-22T08:46:45.25Z</time></trkpt><trkpt lat="44.6237839" lon="10.2707113"><ele>242.0</ele><time>2026-03-22T08:46:46.252Z</time></trkpt><trkpt lat="44.6236905" lon="10.2706802"><ele>242.0</ele><time>2026-03-22T08:46:47.255Z</time></trkpt><trkpt lat="44.6235969" lon="10.2706521"><ele>242.16666666666669</ele><time>2026-03-22T08:46:48.253Z</time></trkpt><trkpt lat="44.6235069" lon="10.2706276"><ele>242.33333333333334</ele><time>2026-03-22T08:46:49.247Z</time></trkpt><trkpt lat="44.6234308" lon="10.2706041"><ele>242.5</ele><time>2026-03-22T08:46:50.257Z</time></trkpt><trkpt lat="44.6233571" lon="10.2705592"><ele>242.66666666666669</ele><time>2026-03-22T08:46:52.249Z</time></trkpt><trkpt lat="44.6232883" lon="10.2705117"><ele>242.83333333333334</ele><time>2026-03-22T08:46:55.243Z</time></trkpt><trkpt lat="44.6231977" lon="10.2704276"><ele>243.0</ele><time>2026-03-22T08:46:57.249Z</time></trkpt><trkpt lat="44.6231473" lon="10.2703701"><ele>244.0</ele><time>2026-03-22T08:46:58.243Z</time></trkpt><trkpt lat="44.6230711" lon="10.2703146"><ele>245.0</ele><time>2026-03-22T08:46:59.246Z</time></trkpt><trkpt lat="44.622962" lon="10.2702729"><ele>246.0</ele><time>2026-03-22T08:47:00.244Z</time></trkpt><trkpt lat="44.6228317" lon="10.2702322"><ele>247.0</ele><time>2026-03-22T08:47:01.239Z</time></trkpt><trkpt lat="44.6226731" lon="10.2701982"><ele>247.33333333333331</ele><time>2026-03-22T08:47:02.246Z</time></trkpt><trkpt lat="44.6224799" lon="10.2701361"><ele>247.66666666666669</ele><time>2026-03-22T08:47:03.24Z</time></trkpt><trkpt lat="44.6222996" lon="10.2700549"><ele>248.0</ele><time>2026-03-22T08:47:04.25Z</time></trkpt><trkpt lat="44.6221218" lon="10.269992"><ele>248.0</ele><time>2026-03-22T08:47:05.25Z</time></trkpt><trkpt lat="44.6219583" lon="10.2699317"><ele>248.0</ele><time>2026-03-22T08:47:06.242Z</time></trkpt><trkpt lat="44.6217924" lon="10.269854"><ele>248.0</ele><time>2026-03-22T08:47:07.251Z</time></trkpt><trkpt lat="44.6216171" lon="10.2697782"><ele>250.33333333333334</ele><time>2026-03-22T08:47:08.249Z</time></trkpt><trkpt lat="44.6214268" lon="10.2697099"><ele>252.66666666666669</ele><time>2026-03-22T08:47:09.246Z</time></trkpt><trkpt lat="44.6212231" lon="10.2696291"><ele>255.0</ele><time>2026-03-22T08:47:10.248Z</time></trkpt><trkpt lat="44.6210249" lon="10.2695312"><ele>256.0</ele><time>2026-03-22T08:47:11.25Z</time></trkpt><trkpt lat="44.620828" lon="10.2694352"><ele>257.0</ele><time>2026-03-22T08:47:12.245Z</time></trkpt><trkpt lat="44.6206327" lon="10.2693484"><ele>258.0</ele><time>2026-03-22T08:47:13.253Z</time></trkpt><trkpt lat="44.6204288" lon="10.2692602"><ele>258.6666666666667</ele><time>2026-03-22T08:47:14.259Z</time></trkpt><trkpt lat="44.6202305" lon="10.2691599"><ele>259.33333333333337</ele><time>2026-03-22T08:47:15.252Z</time></trkpt><trkpt lat="44.6200378" lon="10.2690614"><ele>260.0</ele><time>2026-03-22T08:47:16.247Z</time></trkpt><trkpt lat="44.619854" lon="10.2689447"><ele>261.33333333333337</ele><time>2026-03-22T08:47:17.25Z</time></trkpt><trkpt lat="44.6196793" lon="10.268815"><ele>262.6666666666667</ele><time>2026-03-22T08:47:18.251Z</time></trkpt><trkpt lat="44.6195018" lon="10.2686714"><ele>264.0</ele><time>2026-03-22T08:47:19.248Z</time></trkpt><trkpt lat="44.6193515" lon="10.2685238"><ele>265.3333333333333</ele><time>2026-03-22T08:47:20.248Z</time></trkpt><trkpt lat="44.6192103" lon="10.2683731"><ele>266.66666666666663</ele><time>2026-03-22T08:47:21.261Z</time></trkpt><trkpt lat="44.6190877" lon="10.26822"><ele>268.0</ele><time>2026-03-22T08:47:22.25Z</time></trkpt><trkpt lat="44.618964" lon="10.2680511"><ele>268.5</ele><time>2026-03-22T08:47:23.242Z</time></trkpt><trkpt lat="44.6188479" lon="10.2678961"><ele>269.0</ele><time>2026-03-22T08:47:24.25Z</time></trkpt><trkpt lat="44.618759" lon="10.2677498"><ele>269.5</ele><time>2026-03-22T08:47:25.251Z</time></trkpt><trkpt lat="44.618667" lon="10.2676066"><ele>270.0</ele><time>2026-03-22T08:47:26.244Z</time></trkpt><trkpt lat="44.6185825" lon="10.2674601"><ele>270.5</ele><time>2026-03-22T08:47:27.248Z</time></trkpt><trkpt lat="44.6185022" lon="10.2673211"><ele>271.0</ele><time>2026-03-22T08:47:28.253Z</time></trkpt><trkpt lat="44.6184096" lon="10.2671813"><ele>271.5</ele><time>2026-03-22T08:47:29.251Z</time></trkpt><trkpt lat="44.618311" lon="10.2670181"><ele>272.0</ele><time>2026-03-22T08:47:30.255Z</time></trkpt><trkpt lat="44.6182063" lon="10.2668414"><ele>273.0</ele><time>2026-03-22T08:47:31.257Z</time></trkpt><trkpt lat="44.6180948" lon="10.2666667"><ele>274.0</ele><time>2026-03-22T08:47:32.247Z</time></trkpt><trkpt lat="44.6179805" lon="10.266503"><ele>275.0</ele><time>2026-03-22T08:47:33.248Z</time></trkpt><trkpt lat="44.6178778" lon="10.266334"><ele>276.33333333333337</ele><time>2026-03-22T08:47:34.251Z</time></trkpt><trkpt lat="44.6177902" lon="10.2661619"><ele>277.6666666666667</ele><time>2026-03-22T08:47:35.246Z</time></trkpt><trkpt lat="44.6176859" lon="10.2660063"><ele>279.0</ele><time>2026-03-22T08:47:36.254Z</time></trkpt><trkpt lat="44.6175803" lon="10.2658609"><ele>279.0</ele><time>2026-03-22T08:47:37.254Z</time></trkpt><trkpt lat="44.6174814" lon="10.265702"><ele>279.0</ele><time>2026-03-22T08:47:38.253Z</time></trkpt><trkpt lat="44.6173872" lon="10.2655429"><ele>279.0</ele><time>2026-03-22T08:47:39.249Z</time></trkpt><trkpt lat="44.6172812" lon="10.2653892"><ele>278.6666666666667</ele><time>2026-03-22T08:47:40.256Z</time></trkpt><trkpt lat="44.6171851" lon="10.2652349"><ele>278.33333333333337</ele><time>2026-03-22T08:47:41.253Z</time></trkpt><trkpt lat="44.6170839" lon="10.2650627"><ele>278.0</ele><time>2026-03-22T08:47:42.251Z</time></trkpt><trkpt lat="44.6169577" lon="10.2648838"><ele>283.33333333333337</ele><time>2026-03-22T08:47:43.247Z</time></trkpt><trkpt lat="44.6168194" lon="10.2647106"><ele>288.6666666666667</ele><time>2026-03-22T08:47:44.262Z</time></trkpt><trkpt lat="44.6166743" lon="10.2645499"><ele>294.0</ele><time>2026-03-22T08:47:45.242Z</time></trkpt><trkpt lat="44.6165295" lon="10.2644056"><ele>294.0</ele><time>2026-03-22T08:47:46.301Z</time></trkpt><trkpt lat="44.6163887" lon="10.2642791"><ele>294.0</ele><time>2026-03-22T08:47:47.245Z</time></trkpt><trkpt lat="44.6162262" lon="10.2641573"><ele>294.0</ele><time>2026-03-22T08:47:48.244Z</time></trkpt><trkpt lat="44.6160531" lon="10.2640448"><ele>292.3333333333333</ele><time>2026-03-22T08:47:49.243Z</time></trkpt><trkpt lat="44.6158692" lon="10.2639379"><ele>290.66666666666663</ele><time>2026-03-22T08:47:50.248Z</time></trkpt><trkpt lat="44.6156784" lon="10.2638473"><ele>289.0</ele><time>2026-03-22T08:47:51.244Z</time></trkpt><trkpt lat="44.6154766" lon="10.2637517"><ele>285.0</ele><time>2026-03-22T08:47:52.266Z</time></trkpt><trkpt lat="44.6152971" lon="10.2636603"><ele>281.0</ele><time>2026-03-22T08:47:53.251Z</time></trkpt><trkpt lat="44.6151191" lon="10.2635651"><ele>277.0</ele><time>2026-03-22T08:47:54.25Z</time></trkpt><trkpt lat="44.6149417" lon="10.2634755"><ele>277.0</ele><time>2026-03-22T08:47:55.256Z</time></trkpt><trkpt lat="44.6147659" lon="10.2633937"><ele>277.0</ele><time>2026-03-22T08:47:56.252Z</time></trkpt><trkpt lat="44.6145841" lon="10.2633056"><ele>277.0</ele><time>2026-03-22T08:47:57.245Z</time></trkpt><trkpt lat="44.614403" lon="10.2632128"><ele>276.3333333333333</ele><time>2026-03-22T08:47:58.254Z</time></trkpt><trkpt lat="44.6142191" lon="10.2631216"><ele>275.6666666666667</ele><time>2026-03-22T08:47:59.251Z</time></trkpt><trkpt lat="44.6140218" lon="10.2630378"><ele>275.0</ele><time>2026-03-22T08:48:00.247Z</time></trkpt><trkpt lat="44.6138197" lon="10.2629492"><ele>278.0</ele><time>2026-03-22T08:48:01.249Z</time></trkpt><trkpt lat="44.6136291" lon="10.2628479"><ele>281.0</ele><time>2026-03-22T08:48:02.249Z</time></trkpt><trkpt lat="44.6134371" lon="10.2627675"><ele>284.0</ele><time>2026-03-22T08:48:03.245Z</time></trkpt><trkpt lat="44.6132437" lon="10.2626695"><ele>284.0</ele><time>2026-03-22T08:48:04.248Z</time></trkpt><trkpt lat="44.6130585" lon="10.2625713"><ele>284.0</ele><time>2026-03-22T08:48:05.249Z</time></trkpt><trkpt lat="44.6128741" lon="10.2624911"><ele>284.0</ele><time>2026-03-22T08:48:06.246Z</time></trkpt><trkpt lat="44.6127042" lon="10.2624102"><ele>284.0</ele><time>2026-03-22T08:48:07.244Z</time></trkpt><trkpt lat="44.6125343" lon="10.2623283"><ele>284.0</ele><time>2026-03-22T08:48:08.234Z</time></trkpt><trkpt lat="44.6123759" lon="10.2622531"><ele>284.0</ele><time>2026-03-22T08:48:09.248Z</time></trkpt><trkpt lat="44.6122165" lon="10.2621632"><ele>284.0</ele><time>2026-03-22T08:48:10.25Z</time></trkpt><trkpt lat="44.6120496" lon="10.2620621"><ele>284.0</ele><time>2026-03-22T08:48:11.247Z</time></trkpt><trkpt lat="44.6118778" lon="10.2619683"><ele>284.0</ele><time>2026-03-22T08:48:12.254Z</time></trkpt><trkpt lat="44.6117207" lon="10.2618829"><ele>282.33333333333337</ele><time>2026-03-22T08:48:13.25Z</time></trkpt><trkpt lat="44.6115657" lon="10.2618009"><ele>280.6666666666667</ele><time>2026-03-22T08:48:14.261Z</time></trkpt><trkpt lat="44.6114169" lon="10.2617264"><ele>279.0</ele><time>2026-03-22T08:48:15.247Z</time></trkpt><trkpt lat="44.6112737" lon="10.2616509"><ele>279.0</ele><time>2026-03-22T08:48:16.251Z</time></trkpt><trkpt lat="44.6111345" lon="10.2615837"><ele>279.0</ele><time>2026-03-22T08:48:17.248Z</time></trkpt><trkpt lat="44.6109913" lon="10.2615075"><ele>279.0</ele><time>2026-03-22T08:48:18.251Z</time></trkpt><trkpt lat="44.6108448" lon="10.2614226"><ele>282.3333333333333</ele><time>2026-03-22T08:48:19.251Z</time></trkpt><trkpt lat="44.6107086" lon="10.2613369"><ele>285.66666666666663</ele><time>2026-03-22T08:48:20.245Z</time></trkpt><trkpt lat="44.6105667" lon="10.2612539"><ele>289.0</ele><time>2026-03-22T08:48:21.252Z</time></trkpt><trkpt lat="44.6104204" lon="10.2611796"><ele>289.5</ele><time>2026-03-22T08:48:22.247Z</time></trkpt><trkpt lat="44.6102793" lon="10.2611066"><ele>290.0</ele><time>2026-03-22T08:48:23.259Z</time></trkpt><trkpt lat="44.6101467" lon="10.2610366"><ele>290.5</ele><time>2026-03-22T08:48:24.247Z</time></trkpt><trkpt lat="44.6100151" lon="10.2609636"><ele>291.0</ele><time>2026-03-22T08:48:25.251Z</time></trkpt><trkpt lat="44.6098742" lon="10.2608868"><ele>291.0</ele><time>2026-03-22T08:48:26.25Z</time></trkpt><trkpt lat="44.6097393" lon="10.260811"><ele>291.0</ele><time>2026-03-22T08:48:27.243Z</time></trkpt><trkpt lat="44.609606" lon="10.2607231"><ele>291.0</ele><time>2026-03-22T08:48:28.248Z</time></trkpt><trkpt lat="44.6094516" lon="10.2606235"><ele>293.6666666666667</ele><time>2026-03-22T08:48:29.248Z</time></trkpt><trkpt lat="44.6092705" lon="10.260514"><ele>296.33333333333337</ele><time>2026-03-22T08:48:30.239Z</time></trkpt><trkpt lat="44.6090673" lon="10.2603737"><ele>299.0</ele><time>2026-03-22T08:48:31.243Z</time></trkpt><trkpt lat="44.6088417" lon="10.2601957"><ele>293.5</ele><time>2026-03-22T08:48:32.24Z</time></trkpt><trkpt lat="44.6086247" lon="10.2600075"><ele>288.0</ele><time>2026-03-22T08:48:33.24Z</time></trkpt><trkpt lat="44.6084131" lon="10.2598166"><ele>294.5</ele><time>2026-03-22T08:48:34.236Z</time></trkpt><trkpt lat="44.6081813" lon="10.2596469"><ele>301.0</ele><time>2026-03-22T08:48:35.24Z</time></trkpt><trkpt lat="44.6079588" lon="10.259473"><ele>293.5</ele><time>2026-03-22T08:48:36.243Z</time></trkpt><trkpt lat="44.6077536" lon="10.2593053"><ele>286.0</ele><time>2026-03-22T08:48:37.241Z</time></trkpt><trkpt lat="44.6075521" lon="10.2591644"><ele>286.0</ele><time>2026-03-22T08:48:38.247Z</time></trkpt><trkpt lat="44.6073674" lon="10.2590077"><ele>286.0</ele><time>2026-03-22T08:48:39.247Z</time></trkpt><trkpt lat="44.6072083" lon="10.2588435"><ele>286.0</ele><time>2026-03-22T08:48:40.242Z</time></trkpt><trkpt lat="44.6070522" lon="10.2586866"><ele>286.3333333333333</ele><time>2026-03-22T08:48:41.243Z</time></trkpt><trkpt lat="44.6069161" lon="10.2585035"><ele>286.6666666666667</ele><time>2026-03-22T08:48:42.246Z</time></trkpt><trkpt lat="44.6068171" lon="10.2583244"><ele>287.0</ele><time>2026-03-22T08:48:43.244Z</time></trkpt><trkpt lat="44.6067276" lon="10.258144"><ele>289.0</ele><time>2026-03-22T08:48:44.258Z</time></trkpt><trkpt lat="44.6066559" lon="10.2579724"><ele>291.0</ele><time>2026-03-22T08:48:45.245Z</time></trkpt><trkpt lat="44.6065893" lon="10.2577938"><ele>293.0</ele><time>2026-03-22T08:48:46.254Z</time></trkpt><trkpt lat="44.6065098" lon="10.2576208"><ele>295.0</ele><time>2026-03-22T08:48:47.25Z</time></trkpt><trkpt lat="44.6064392" lon="10.2574555"><ele>295.0</ele><time>2026-03-22T08:48:48.25Z</time></trkpt><trkpt lat="44.606358" lon="10.2572997"><ele>295.0</ele><time>2026-03-22T08:48:49.249Z</time></trkpt><trkpt lat="44.6062815" lon="10.257153"><ele>295.0</ele><time>2026-03-22T08:48:50.245Z</time></trkpt><trkpt lat="44.6062192" lon="10.2570019"><ele>295.0</ele><time>2026-03-22T08:48:51.239Z</time></trkpt><trkpt lat="44.6061463" lon="10.2568437"><ele>294.75</ele><time>2026-03-22T08:48:52.238Z</time></trkpt><trkpt lat="44.6060755" lon="10.2566986"><ele>294.5</ele><time>2026-03-22T08:48:53.245Z</time></trkpt><trkpt lat="44.6060046" lon="10.256556"><ele>294.25</ele><time>2026-03-22T08:48:54.253Z</time></trkpt><trkpt lat="44.6059431" lon="10.2564078"><ele>294.0</ele><time>2026-03-22T08:48:55.246Z</time></trkpt><trkpt lat="44.6058785" lon="10.2562697"><ele>294.0</ele><time>2026-03-22T08:48:56.248Z</time></trkpt><trkpt lat="44.6058125" lon="10.2561372"><ele>294.0</ele><time>2026-03-22T08:48:57.25Z</time></trkpt><trkpt lat="44.605742" lon="10.256017"><ele>294.0</ele><time>2026-03-22T08:48:58.246Z</time></trkpt><trkpt lat="44.6056616" lon="10.255908"><ele>294.0</ele><time>2026-03-22T08:48:59.251Z</time></trkpt><trkpt lat="44.6055754" lon="10.255811"><ele>294.0</ele><time>2026-03-22T08:49:00.253Z</time></trkpt><trkpt lat="44.6054881" lon="10.2557278"><ele>294.0</ele><time>2026-03-22T08:49:01.248Z</time></trkpt><trkpt lat="44.6054056" lon="10.2556485"><ele>294.0</ele><time>2026-03-22T08:49:02.248Z</time></trkpt><trkpt lat="44.6053312" lon="10.2555603"><ele>294.0</ele><time>2026-03-22T08:49:03.25Z</time></trkpt><trkpt lat="44.6052525" lon="10.2554704"><ele>294.0</ele><time>2026-03-22T08:49:04.243Z</time></trkpt><trkpt lat="44.6051647" lon="10.2554086"><ele>294.0</ele><time>2026-03-22T08:49:05.241Z</time></trkpt><trkpt lat="44.6050623" lon="10.2554013"><ele>294.25</ele><time>2026-03-22T08:49:06.315Z</time></trkpt><trkpt lat="44.6049472" lon="10.2554134"><ele>294.5</ele><time>2026-03-22T08:49:07.248Z</time></trkpt><trkpt lat="44.6048212" lon="10.2554128"><ele>294.75</ele><time>2026-03-22T08:49:08.254Z</time></trkpt><trkpt lat="44.6046965" lon="10.2553935"><ele>295.0</ele><time>2026-03-22T08:49:09.249Z</time></trkpt><trkpt lat="44.6045762" lon="10.2553659"><ele>294.0</ele><time>2026-03-22T08:49:10.252Z</time></trkpt><trkpt lat="44.6044549" lon="10.2553471"><ele>293.0</ele><time>2026-03-22T08:49:11.246Z</time></trkpt><trkpt lat="44.604333" lon="10.2553345"><ele>292.0</ele><time>2026-03-22T08:49:12.247Z</time></trkpt><trkpt lat="44.6042138" lon="10.2553235"><ele>291.0</ele><time>2026-03-22T08:49:13.251Z</time></trkpt><trkpt lat="44.6040968" lon="10.2553165"><ele>291.0</ele><time>2026-03-22T08:49:14.255Z</time></trkpt><trkpt lat="44.6039835" lon="10.2553068"><ele>291.0</ele><time>2026-03-22T08:49:15.249Z</time></trkpt><trkpt lat="44.6038712" lon="10.2552949"><ele>291.0</ele><time>2026-03-22T08:49:16.253Z</time></trkpt><trkpt lat="44.6037576" lon="10.2552828"><ele>291.0</ele><time>2026-03-22T08:49:17.249Z</time></trkpt><trkpt lat="44.6036446" lon="10.2552727"><ele>291.0</ele><time>2026-03-22T08:49:18.255Z</time></trkpt><trkpt lat="44.6035423" lon="10.2552554"><ele>291.0</ele><time>2026-03-22T08:49:19.252Z</time></trkpt><trkpt lat="44.6034452" lon="10.25524"><ele>291.0</ele><time>2026-03-22T08:49:20.24Z</time></trkpt><trkpt lat="44.6033598" lon="10.2552056"><ele>291.0</ele><time>2026-03-22T08:49:21.249Z</time></trkpt><trkpt lat="44.6032868" lon="10.2551514"><ele>291.0</ele><time>2026-03-22T08:49:22.238Z</time></trkpt><trkpt lat="44.6032341" lon="10.2550719"><ele>291.0</ele><time>2026-03-22T08:49:23.245Z</time></trkpt><trkpt lat="44.6032144" lon="10.2549638"><ele>291.0</ele><time>2026-03-22T08:49:24.253Z</time></trkpt><trkpt lat="44.603208" lon="10.2548351"><ele>291.0</ele><time>2026-03-22T08:49:25.264Z</time></trkpt><trkpt lat="44.6032111" lon="10.2546704"><ele>291.0</ele><time>2026-03-22T08:49:26.247Z</time></trkpt><trkpt lat="44.6032153" lon="10.2544731"><ele>291.0</ele><time>2026-03-22T08:49:27.25Z</time></trkpt><trkpt lat="44.6032313" lon="10.254266"><ele>292.0</ele><time>2026-03-22T08:49:28.251Z</time></trkpt><trkpt lat="44.6032915" lon="10.2540636"><ele>293.0</ele><time>2026-03-22T08:49:29.24Z</time></trkpt><trkpt lat="44.6033371" lon="10.2539118"><ele>294.0</ele><time>2026-03-22T08:49:30.247Z</time></trkpt><trkpt lat="44.6033784" lon="10.2538123"><ele>295.0</ele><time>2026-03-22T08:49:31.245Z</time></trkpt><trkpt lat="44.6034018" lon="10.2537022"><ele>296.0</ele><time>2026-03-22T08:49:32.238Z</time></trkpt><trkpt lat="44.60341" lon="10.2535445"><ele>297.2</ele><time>2026-03-22T08:49:34.245Z</time></trkpt><trkpt lat="44.6034043" lon="10.2534139"><ele>298.40000000000003</ele><time>2026-03-22T08:49:36.247Z</time></trkpt><trkpt lat="44.6033854" lon="10.2532618"><ele>299.6</ele><time>2026-03-22T08:49:38.252Z</time></trkpt><trkpt lat="44.6033442" lon="10.2531326"><ele>300.8</ele><time>2026-03-22T08:49:39.248Z</time></trkpt><trkpt lat="44.6032782" lon="10.2529654"><ele>302.0</ele><time>2026-03-22T08:49:40.248Z</time></trkpt><trkpt lat="44.6031999" lon="10.2528059"><ele>302.33333333333337</ele><time>2026-03-22T08:49:41.24Z</time></trkpt><trkpt lat="44.6031036" lon="10.2526192"><ele>302.6666666666667</ele><time>2026-03-22T08:49:42.244Z</time></trkpt><trkpt lat="44.6029511" lon="10.2524415"><ele>303.0</ele><time>2026-03-22T08:49:43.24Z</time></trkpt><trkpt lat="44.6027938" lon="10.252285"><ele>307.6666666666667</ele><time>2026-03-22T08:49:44.253Z</time></trkpt><trkpt lat="44.6026392" lon="10.2521278"><ele>312.33333333333337</ele><time>2026-03-22T08:49:45.242Z</time></trkpt><trkpt lat="44.6024994" lon="10.2519667"><ele>317.0</ele><time>2026-03-22T08:49:46.257Z</time></trkpt><trkpt lat="44.6023626" lon="10.2517953"><ele>317.0</ele><time>2026-03-22T08:49:47.243Z</time></trkpt><trkpt lat="44.6022125" lon="10.2516043"><ele>317.0</ele><time>2026-03-22T08:49:48.244Z</time></trkpt><trkpt lat="44.6020554" lon="10.2514248"><ele>317.0</ele><time>2026-03-22T08:49:49.248Z</time></trkpt><trkpt lat="44.6019175" lon="10.2512727"><ele>320.25</ele><time>2026-03-22T08:49:50.251Z</time></trkpt><trkpt lat="44.6018098" lon="10.2511153"><ele>323.5</ele><time>2026-03-22T08:49:51.249Z</time></trkpt><trkpt lat="44.6017324" lon="10.2509586"><ele>326.75</ele><time>2026-03-22T08:49:52.251Z</time></trkpt><trkpt lat="44.6016981" lon="10.2507992"><ele>330.0</ele><time>2026-03-22T08:49:53.251Z</time></trkpt><trkpt lat="44.6016786" lon="10.2506309"><ele>331.25</ele><time>2026-03-22T08:49:54.249Z</time></trkpt><trkpt lat="44.6016471" lon="10.250469"><ele>332.5</ele><time>2026-03-22T08:49:55.243Z</time></trkpt><trkpt lat="44.6015908" lon="10.2503143"><ele>333.75</ele><time>2026-03-22T08:49:56.254Z</time></trkpt><trkpt lat="44.6015011" lon="10.2501781"><ele>335.0</ele><time>2026-03-22T08:49:57.252Z</time></trkpt><trkpt lat="44.601388" lon="10.2500493"><ele>335.0</ele><time>2026-03-22T08:49:58.244Z</time></trkpt><trkpt lat="44.601244" lon="10.2499105"><ele>335.0</ele><time>2026-03-22T08:49:59.244Z</time></trkpt><trkpt lat="44.6011126" lon="10.2497726"><ele>335.0</ele><time>2026-03-22T08:50:00.247Z</time></trkpt><trkpt lat="44.6010003" lon="10.2496629"><ele>337.8</ele><time>2026-03-22T08:50:01.243Z</time></trkpt><trkpt lat="44.6009241" lon="10.2495718"><ele>340.6</ele><time>2026-03-22T08:50:02.243Z</time></trkpt><trkpt lat="44.600873" lon="10.2494841"><ele>343.4</ele><time>2026-03-22T08:50:03.248Z</time></trkpt><trkpt lat="44.600861" lon="10.2493739"><ele>346.2</ele><time>2026-03-22T08:50:04.243Z</time></trkpt><trkpt lat="44.6008525" lon="10.2492341"><ele>349.0</ele><time>2026-03-22T08:50:05.246Z</time></trkpt><trkpt lat="44.6008715" lon="10.2490663"><ele>350.4</ele><time>2026-03-22T08:50:06.245Z</time></trkpt><trkpt lat="44.6009062" lon="10.2489149"><ele>351.79999999999995</ele><time>2026-03-22T08:50:07.243Z</time></trkpt><trkpt lat="44.6009319" lon="10.2487895"><ele>353.20000000000005</ele><time>2026-03-22T08:50:08.24Z</time></trkpt><trkpt lat="44.6009212" lon="10.2486674"><ele>354.6</ele><time>2026-03-22T08:50:09.252Z</time></trkpt><trkpt lat="44.6008621" lon="10.2485327"><ele>356.0</ele><time>2026-03-22T08:50:10.253Z</time></trkpt><trkpt lat="44.6007583" lon="10.2483964"><ele>356.0</ele><time>2026-03-22T08:50:11.253Z</time></trkpt><trkpt lat="44.6006309" lon="10.2482542"><ele>356.0</ele><time>2026-03-22T08:50:12.248Z</time></trkpt><trkpt lat="44.600486" lon="10.2481256"><ele>356.0</ele><time>2026-03-22T08:50:13.25Z</time></trkpt><trkpt lat="44.6003551" lon="10.2480193"><ele>363.33333333333337</ele><time>2026-03-22T08:50:14.256Z</time></trkpt><trkpt lat="44.6002148" lon="10.2479431"><ele>370.6666666666667</ele><time>2026-03-22T08:50:15.242Z</time></trkpt><trkpt lat="44.6000718" lon="10.2478942"><ele>378.0</ele><time>2026-03-22T08:50:16.24Z</time></trkpt><trkpt lat="44.5999132" lon="10.2478768"><ele>378.0</ele><time>2026-03-22T08:50:17.24Z</time></trkpt><trkpt lat="44.5997637" lon="10.2478902"><ele>378.0</ele><time>2026-03-22T08:50:18.237Z</time></trkpt><trkpt lat="44.5996437" lon="10.2479199"><ele>378.0</ele><time>2026-03-22T08:50:19.237Z</time></trkpt><trkpt lat="44.5995313" lon="10.2479359"><ele>378.0</ele><time>2026-03-22T08:50:20.245Z</time></trkpt><trkpt lat="44.5994192" lon="10.2479357"><ele>379.0</ele><time>2026-03-22T08:50:21.24Z</time></trkpt><trkpt lat="44.5992934" lon="10.2479057"><ele>380.0</ele><time>2026-03-22T08:50:22.249Z</time></trkpt><trkpt lat="44.5991604" lon="10.2478216"><ele>381.0</ele><time>2026-03-22T08:50:23.242Z</time></trkpt><trkpt lat="44.5990153" lon="10.247714"><ele>382.0</ele><time>2026-03-22T08:50:24.239Z</time></trkpt><trkpt lat="44.5988591" lon="10.2475881"><ele>382.0</ele><time>2026-03-22T08:50:25.243Z</time></trkpt><trkpt lat="44.5986944" lon="10.2474978"><ele>382.0</ele><time>2026-03-22T08:50:26.245Z</time></trkpt><trkpt lat="44.5985433" lon="10.2474466"><ele>382.0</ele><time>2026-03-22T08:50:27.251Z</time></trkpt><trkpt lat="44.5983755" lon="10.2474371"><ele>383.25</ele><time>2026-03-22T08:50:28.241Z</time></trkpt><trkpt lat="44.5982167" lon="10.247455"><ele>384.5</ele><time>2026-03-22T08:50:29.248Z</time></trkpt><trkpt lat="44.5980693" lon="10.2474636"><ele>385.75</ele><time>2026-03-22T08:50:30.241Z</time></trkpt><trkpt lat="44.5979434" lon="10.2474579"><ele>387.0</ele><time>2026-03-22T08:50:31.242Z</time></trkpt><trkpt lat="44.5978379" lon="10.2474163"><ele>387.8333333333333</ele><time>2026-03-22T08:50:32.254Z</time></trkpt><trkpt lat="44.5977559" lon="10.2473336"><ele>388.66666666666663</ele><time>2026-03-22T08:50:33.239Z</time></trkpt><trkpt lat="44.5977121" lon="10.247222"><ele>389.5</ele><time>2026-03-22T08:50:34.243Z</time></trkpt><trkpt lat="44.5976799" lon="10.2471387"><ele>390.3333333333333</ele><time>2026-03-22T08:50:35.244Z</time></trkpt><trkpt lat="44.5976337" lon="10.2470562"><ele>391.16666666666663</ele><time>2026-03-22T08:50:36.245Z</time></trkpt><trkpt lat="44.5975914" lon="10.2469871"><ele>392.0</ele><time>2026-03-22T08:50:37.249Z</time></trkpt><trkpt lat="44.5975393" lon="10.2469098"><ele>393.6</ele><time>2026-03-22T08:50:38.244Z</time></trkpt><trkpt lat="44.5974837" lon="10.2468259"><ele>395.20000000000005</ele><time>2026-03-22T08:50:39.246Z</time></trkpt><trkpt lat="44.5974244" lon="10.2467405"><ele>396.8</ele><time>2026-03-22T08:50:40.243Z</time></trkpt><trkpt lat="44.5973624" lon="10.2466373"><ele>398.4</ele><time>2026-03-22T08:50:41.247Z</time></trkpt><trkpt lat="44.5972922" lon="10.2465214"><ele>400.0</ele><time>2026-03-22T08:50:42.302Z</time></trkpt><trkpt lat="44.5972088" lon="10.2464076"><ele>403.5</ele><time>2026-03-22T08:50:43.25Z</time></trkpt><trkpt lat="44.5971106" lon="10.2463076"><ele>407.0</ele><time>2026-03-22T08:50:44.26Z</time></trkpt><trkpt lat="44.5970045" lon="10.2462144"><ele>410.5</ele><time>2026-03-22T08:50:45.238Z</time></trkpt><trkpt lat="44.5968965" lon="10.2461359"><ele>414.0</ele><time>2026-03-22T08:50:46.241Z</time></trkpt><trkpt lat="44.596798" lon="10.2460793"><ele>414.0</ele><time>2026-03-22T08:50:47.24Z</time></trkpt><trkpt lat="44.5967088" lon="10.2460314"><ele>414.0</ele><time>2026-03-22T08:50:48.241Z</time></trkpt><trkpt lat="44.5966256" lon="10.2459921"><ele>414.0</ele><time>2026-03-22T08:50:49.241Z</time></trkpt><trkpt lat="44.5965437" lon="10.2459581"><ele>414.0</ele><time>2026-03-22T08:50:50.24Z</time></trkpt><trkpt lat="44.596461" lon="10.2459177"><ele>414.0</ele><time>2026-03-22T08:50:51.239Z</time></trkpt><trkpt lat="44.5963787" lon="10.2458751"><ele>414.0</ele><time>2026-03-22T08:50:52.233Z</time></trkpt><trkpt lat="44.5963145" lon="10.2458028"><ele>414.0</ele><time>2026-03-22T08:50:53.234Z</time></trkpt><trkpt lat="44.5962713" lon="10.2456998"><ele>414.0</ele><time>2026-03-22T08:50:54.234Z</time></trkpt><trkpt lat="44.5962448" lon="10.2455787"><ele>414.0</ele><time>2026-03-22T08:50:55.243Z</time></trkpt><trkpt lat="44.5962198" lon="10.2454559"><ele>414.0</ele><time>2026-03-22T08:50:56.233Z</time></trkpt><trkpt lat="44.5962046" lon="10.245325"><ele>414.0</ele><time>2026-03-22T08:50:57.223Z</time></trkpt><trkpt lat="44.5961945" lon="10.2451881"><ele>414.0</ele><time>2026-03-22T08:50:58.252Z</time></trkpt><trkpt lat="44.5961776" lon="10.2450469"><ele>414.0</ele><time>2026-03-22T08:50:59.236Z</time></trkpt><trkpt lat="44.5961677" lon="10.244902"><ele>414.0</ele><time>2026-03-22T08:51:00.232Z</time></trkpt><trkpt lat="44.5961559" lon="10.2447676"><ele>414.0</ele><time>2026-03-22T08:51:01.231Z</time></trkpt><trkpt lat="44.5961276" lon="10.244641"><ele>414.0</ele><time>2026-03-22T08:51:02.238Z</time></trkpt><trkpt lat="44.596082" lon="10.2445287"><ele>417.1666666666667</ele><time>2026-03-22T08:51:03.23Z</time></trkpt><trkpt lat="44.5960191" lon="10.2444404"><ele>420.33333333333337</ele><time>2026-03-22T08:51:04.235Z</time></trkpt><trkpt lat="44.5959449" lon="10.2443648"><ele>423.5</ele><time>2026-03-22T08:51:05.231Z</time></trkpt><trkpt lat="44.5958765" lon="10.2442898"><ele>426.6666666666667</ele><time>2026-03-22T08:51:06.233Z</time></trkpt><trkpt lat="44.5958076" lon="10.2442263"><ele>429.83333333333337</ele><time>2026-03-22T08:51:07.236Z</time></trkpt><trkpt lat="44.5957382" lon="10.244159"><ele>433.0</ele><time>2026-03-22T08:51:08.231Z</time></trkpt><trkpt lat="44.5956687" lon="10.2440788"><ele>433.0</ele><time>2026-03-22T08:51:09.234Z</time></trkpt><trkpt lat="44.5955896" lon="10.2439904"><ele>432.99999999999994</ele><time>2026-03-22T08:51:10.239Z</time></trkpt><trkpt lat="44.5955059" lon="10.2438933"><ele>432.99999999999994</ele><time>2026-03-22T08:51:11.239Z</time></trkpt><trkpt lat="44.5954242" lon="10.2437848"><ele>433.0</ele><time>2026-03-22T08:51:12.237Z</time></trkpt><trkpt lat="44.5953439" lon="10.2436632"><ele>433.0</ele><time>2026-03-22T08:51:13.242Z</time></trkpt><trkpt lat="44.5952781" lon="10.2435247"><ele>432.5</ele><time>2026-03-22T08:51:14.265Z</time></trkpt><trkpt lat="44.5952233" lon="10.2433828"><ele>432.0</ele><time>2026-03-22T08:51:15.251Z</time></trkpt><trkpt lat="44.5951708" lon="10.2432321"><ele>431.5</ele><time>2026-03-22T08:51:16.243Z</time></trkpt><trkpt lat="44.5951166" lon="10.2430812"><ele>431.0</ele><time>2026-03-22T08:51:17.234Z</time></trkpt><trkpt lat="44.5950641" lon="10.242928"><ele>435.0</ele><time>2026-03-22T08:51:18.245Z</time></trkpt><trkpt lat="44.5950082" lon="10.2427723"><ele>439.0</ele><time>2026-03-22T08:51:19.239Z</time></trkpt><trkpt lat="44.5949533" lon="10.2426224"><ele>443.0</ele><time>2026-03-22T08:51:20.239Z</time></trkpt><trkpt lat="44.5948986" lon="10.2424812"><ele>447.0</ele><time>2026-03-22T08:51:21.238Z</time></trkpt><trkpt lat="44.5948496" lon="10.2423439"><ele>449.40000000000003</ele><time>2026-03-22T08:51:22.237Z</time></trkpt><trkpt lat="44.5948039" lon="10.2422131"><ele>451.80000000000007</ele><time>2026-03-22T08:51:23.248Z</time></trkpt><trkpt lat="44.5947556" lon="10.2420876"><ele>454.2</ele><time>2026-03-22T08:51:24.235Z</time></trkpt><trkpt lat="44.5947081" lon="10.2419748"><ele>456.6</ele><time>2026-03-22T08:51:25.231Z</time></trkpt><trkpt lat="44.5946707" lon="10.2418577"><ele>459.0</ele><time>2026-03-22T08:51:26.233Z</time></trkpt><trkpt lat="44.5946492" lon="10.2417284"><ele>459.0</ele><time>2026-03-22T08:51:27.229Z</time></trkpt><trkpt lat="44.5946438" lon="10.2416079"><ele>459.0</ele><time>2026-03-22T08:51:28.235Z</time></trkpt><trkpt lat="44.594632" lon="10.241493"><ele>459.0</ele><time>2026-03-22T08:51:29.247Z</time></trkpt><trkpt lat="44.5946039" lon="10.2413845"><ele>459.0</ele><time>2026-03-22T08:51:30.231Z</time></trkpt><trkpt lat="44.5945105" lon="10.2412117"><ele>459.0</ele><time>2026-03-22T08:51:32.234Z</time></trkpt><trkpt lat="44.594456" lon="10.2411247"><ele>458.0</ele><time>2026-03-22T08:51:33.229Z</time></trkpt><trkpt lat="44.5944025" lon="10.2410392"><ele>457.0</ele><time>2026-03-22T08:51:34.239Z</time></trkpt><trkpt lat="44.5943543" lon="10.240949"><ele>456.0</ele><time>2026-03-22T08:51:35.233Z</time></trkpt><trkpt lat="44.5943117" lon="10.2408573"><ele>455.0</ele><time>2026-03-22T08:51:36.234Z</time></trkpt><trkpt lat="44.5942785" lon="10.2407597"><ele>454.0</ele><time>2026-03-22T08:51:37.237Z</time></trkpt><trkpt lat="44.5942623" lon="10.240655"><ele>453.0</ele><time>2026-03-22T08:51:38.231Z</time></trkpt><trkpt lat="44.5942464" lon="10.2405495"><ele>455.3333333333333</ele><time>2026-03-22T08:51:39.23Z</time></trkpt><trkpt lat="44.5942284" lon="10.2404499"><ele>457.66666666666663</ele><time>2026-03-22T08:51:40.241Z</time></trkpt><trkpt lat="44.5942093" lon="10.2403469"><ele>460.0</ele><time>2026-03-22T08:51:41.235Z</time></trkpt><trkpt lat="44.594189" lon="10.2402411"><ele>462.3333333333333</ele><time>2026-03-22T08:51:42.237Z</time></trkpt><trkpt lat="44.5941667" lon="10.2401332"><ele>464.66666666666663</ele><time>2026-03-22T08:51:43.235Z</time></trkpt><trkpt lat="44.5941395" lon="10.2400399"><ele>467.0</ele><time>2026-03-22T08:51:44.243Z</time></trkpt><trkpt lat="44.5940831" lon="10.2399123"><ele>466.99999999999994</ele><time>2026-03-22T08:51:46.235Z</time></trkpt><trkpt lat="44.5940421" lon="10.2398372"><ele>467.0</ele><time>2026-03-22T08:52:40.257Z</time></trkpt><trkpt lat="44.5940721" lon="10.2399518"><ele>467.0</ele><time>2026-03-22T08:52:46.243Z</time></trkpt><trkpt lat="44.5941179" lon="10.2401213"><ele>467.0</ele><time>2026-03-22T08:52:48.237Z</time></trkpt><trkpt lat="44.5941493" lon="10.2402243"><ele>466.99999999999994</ele><time>2026-03-22T08:52:49.241Z</time></trkpt><trkpt lat="44.5941811" lon="10.2403282"><ele>467.0</ele><time>2026-03-22T08:52:50.241Z</time></trkpt><trkpt lat="44.5942045" lon="10.2404223"><ele>467.0</ele><time>2026-03-22T08:52:51.241Z</time></trkpt><trkpt lat="44.5942218" lon="10.2405129"><ele>467.00000000000006</ele><time>2026-03-22T08:52:52.232Z</time></trkpt><trkpt lat="44.5942395" lon="10.240679"><ele>467.00000000000006</ele><time>2026-03-22T08:52:54.251Z</time></trkpt><trkpt lat="44.594267" lon="10.2408244"><ele>467.0</ele><time>2026-03-22T08:52:56.249Z</time></trkpt><trkpt lat="44.5943142" lon="10.240978"><ele>467.0</ele><time>2026-03-22T08:52:58.253Z</time></trkpt><trkpt lat="44.5943768" lon="10.2411145"><ele>467.8</ele><time>2026-03-22T08:53:00.255Z</time></trkpt><trkpt lat="44.59445" lon="10.2412446"><ele>468.6</ele><time>2026-03-22T08:53:02.266Z</time></trkpt><trkpt lat="44.5945239" lon="10.241363"><ele>469.40000000000003</ele><time>2026-03-22T08:53:04.251Z</time></trkpt><trkpt lat="44.5945879" lon="10.2414936"><ele>470.20000000000005</ele><time>2026-03-22T08:53:06.237Z</time></trkpt><trkpt lat="44.5946278" lon="10.2416152"><ele>471.0</ele><time>2026-03-22T08:53:08.241Z</time></trkpt><trkpt lat="44.5946312" lon="10.2417407"><ele>469.0</ele><time>2026-03-22T08:53:10.243Z</time></trkpt><trkpt lat="44.5946357" lon="10.2418516"><ele>467.0</ele><time>2026-03-22T08:53:12.237Z</time></trkpt><trkpt lat="44.5946579" lon="10.2419618"><ele>465.0</ele><time>2026-03-22T08:53:14.25Z</time></trkpt><trkpt lat="44.5946845" lon="10.2420863"><ele>463.0</ele><time>2026-03-22T08:53:16.234Z</time></trkpt><trkpt lat="44.5947263" lon="10.2422037"><ele>461.0</ele><time>2026-03-22T08:53:18.241Z</time></trkpt><trkpt lat="44.5947694" lon="10.2423165"><ele>459.0</ele><time>2026-03-22T08:53:20.243Z</time></trkpt><trkpt lat="44.594819" lon="10.2424126"><ele>457.0</ele><time>2026-03-22T08:53:22.243Z</time></trkpt><trkpt lat="44.5948652" lon="10.2425051"><ele>455.0</ele><time>2026-03-22T08:53:24.244Z</time></trkpt><trkpt lat="44.5949053" lon="10.2426129"><ele>453.0</ele><time>2026-03-22T08:53:26.243Z</time></trkpt><trkpt lat="44.594942" lon="10.2427176"><ele>451.0</ele><time>2026-03-22T08:53:28.243Z</time></trkpt><trkpt lat="44.5949794" lon="10.2428276"><ele>449.0</ele><time>2026-03-22T08:53:30.243Z</time></trkpt><trkpt lat="44.5950151" lon="10.2429452"><ele>447.0</ele><time>2026-03-22T08:53:32.242Z</time></trkpt><trkpt lat="44.5950542" lon="10.2430599"><ele>443.8</ele><time>2026-03-22T08:53:34.241Z</time></trkpt><trkpt lat="44.5950872" lon="10.243176"><ele>440.6</ele><time>2026-03-22T08:53:36.243Z</time></trkpt><trkpt lat="44.59513" lon="10.2432827"><ele>437.40000000000003</ele><time>2026-03-22T08:53:38.244Z</time></trkpt><trkpt lat="44.5951651" lon="10.2433902"><ele>434.20000000000005</ele><time>2026-03-22T08:53:40.243Z</time></trkpt><trkpt lat="44.5952143" lon="10.2435195"><ele>431.0</ele><time>2026-03-22T08:53:42.247Z</time></trkpt><trkpt lat="44.595278" lon="10.2436621"><ele>431.0</ele><time>2026-03-22T08:53:44.252Z</time></trkpt><trkpt lat="44.5953187" lon="10.2437363"><ele>431.0</ele><time>2026-03-22T08:53:45.243Z</time></trkpt><trkpt lat="44.5953667" lon="10.2438095"><ele>431.0</ele><time>2026-03-22T08:53:46.247Z</time></trkpt><trkpt lat="44.5954178" lon="10.2438848"><ele>431.0</ele><time>2026-03-22T08:53:47.242Z</time></trkpt><trkpt lat="44.5954737" lon="10.2439567"><ele>431.0</ele><time>2026-03-22T08:53:48.244Z</time></trkpt><trkpt lat="44.5955319" lon="10.2440275"><ele>431.0</ele><time>2026-03-22T08:53:49.242Z</time></trkpt><trkpt lat="44.59559" lon="10.244089"><ele>431.0</ele><time>2026-03-22T08:53:50.241Z</time></trkpt><trkpt lat="44.5956526" lon="10.2441511"><ele>431.4</ele><time>2026-03-22T08:53:51.238Z</time></trkpt><trkpt lat="44.5957113" lon="10.2442163"><ele>431.8</ele><time>2026-03-22T08:53:52.243Z</time></trkpt><trkpt lat="44.5957715" lon="10.2442906"><ele>432.19999999999993</ele><time>2026-03-22T08:53:53.24Z</time></trkpt><trkpt lat="44.5958338" lon="10.2443606"><ele>432.59999999999997</ele><time>2026-03-22T08:53:54.243Z</time></trkpt><trkpt lat="44.5959013" lon="10.2444281"><ele>433.0</ele><time>2026-03-22T08:53:55.238Z</time></trkpt><trkpt lat="44.5960247" lon="10.2445801"><ele>433.00000000000006</ele><time>2026-03-22T08:53:57.235Z</time></trkpt><trkpt lat="44.5960786" lon="10.2446717"><ele>433.0</ele><time>2026-03-22T08:53:58.235Z</time></trkpt><trkpt lat="44.5961415" lon="10.2448746"><ele>433.0</ele><time>2026-03-22T08:54:00.23Z</time></trkpt><trkpt lat="44.5961533" lon="10.2449627"><ele>433.0</ele><time>2026-03-22T08:54:01.231Z</time></trkpt><trkpt lat="44.5961531" lon="10.2450521"><ele>433.00000000000006</ele><time>2026-03-22T08:54:02.238Z</time></trkpt><trkpt lat="44.5961602" lon="10.2451452"><ele>433.0</ele><time>2026-03-22T08:54:03.236Z</time></trkpt><trkpt lat="44.5961693" lon="10.2452446"><ele>433.57142857142856</ele><time>2026-03-22T08:54:04.244Z</time></trkpt><trkpt lat="44.5961812" lon="10.2453463"><ele>434.1428571428571</ele><time>2026-03-22T08:54:05.238Z</time></trkpt><trkpt lat="44.5961973" lon="10.2454458"><ele>434.71428571428567</ele><time>2026-03-22T08:54:06.238Z</time></trkpt><trkpt lat="44.5962161" lon="10.2455436"><ele>435.2857142857143</ele><time>2026-03-22T08:54:07.241Z</time></trkpt><trkpt lat="44.5962398" lon="10.2456404"><ele>435.8571428571429</ele><time>2026-03-22T08:54:08.238Z</time></trkpt><trkpt lat="44.5962712" lon="10.2457299"><ele>436.4285714285714</ele><time>2026-03-22T08:54:09.242Z</time></trkpt><trkpt lat="44.5963184" lon="10.2458173"><ele>437.0</ele><time>2026-03-22T08:54:10.24Z</time></trkpt><trkpt lat="44.5963716" lon="10.2458896"><ele>433.16666666666663</ele><time>2026-03-22T08:54:11.243Z</time></trkpt><trkpt lat="44.5964328" lon="10.2459449"><ele>429.3333333333333</ele><time>2026-03-22T08:54:12.235Z</time></trkpt><trkpt lat="44.5965009" lon="10.2459854"><ele>425.5</ele><time>2026-03-22T08:54:13.24Z</time></trkpt><trkpt lat="44.5965718" lon="10.2460163"><ele>421.66666666666663</ele><time>2026-03-22T08:54:14.25Z</time></trkpt><trkpt lat="44.5966448" lon="10.2460524"><ele>417.8333333333333</ele><time>2026-03-22T08:54:15.243Z</time></trkpt><trkpt lat="44.5967157" lon="10.2461036"><ele>414.0</ele><time>2026-03-22T08:54:16.244Z</time></trkpt><trkpt lat="44.5967844" lon="10.2461577"><ele>414.00000000000006</ele><time>2026-03-22T08:54:17.238Z</time></trkpt><trkpt lat="44.5968506" lon="10.246203"><ele>414.0</ele><time>2026-03-22T08:54:18.241Z</time></trkpt><trkpt lat="44.5969197" lon="10.2462547"><ele>414.0</ele><time>2026-03-22T08:54:19.245Z</time></trkpt><trkpt lat="44.5969854" lon="10.246312"><ele>414.0</ele><time>2026-03-22T08:54:20.238Z</time></trkpt><trkpt lat="44.5970511" lon="10.2463603"><ele>414.0</ele><time>2026-03-22T08:54:21.246Z</time></trkpt><trkpt lat="44.5971112" lon="10.2464107"><ele>414.00000000000006</ele><time>2026-03-22T08:54:22.238Z</time></trkpt><trkpt lat="44.5971636" lon="10.2464652"><ele>414.0</ele><time>2026-03-22T08:54:23.242Z</time></trkpt><trkpt lat="44.5972116" lon="10.2465225"><ele>411.2</ele><time>2026-03-22T08:54:24.242Z</time></trkpt><trkpt lat="44.5972557" lon="10.2465867"><ele>408.4</ele><time>2026-03-22T08:54:25.244Z</time></trkpt><trkpt lat="44.5973321" lon="10.2467048"><ele>405.6</ele><time>2026-03-22T08:54:27.247Z</time></trkpt><trkpt lat="44.5973979" lon="10.2468202"><ele>402.8</ele><time>2026-03-22T08:54:29.247Z</time></trkpt><trkpt lat="44.5974578" lon="10.2469331"><ele>400.0</ele><time>2026-03-22T08:54:31.254Z</time></trkpt><trkpt lat="44.5975292" lon="10.2470499"><ele>400.00000000000006</ele><time>2026-03-22T08:54:33.251Z</time></trkpt><trkpt lat="44.5975998" lon="10.2471728"><ele>400.0</ele><time>2026-03-22T08:54:35.259Z</time></trkpt><trkpt lat="44.5976404" lon="10.247249"><ele>400.0</ele><time>2026-03-22T08:54:36.252Z</time></trkpt><trkpt lat="44.5976917" lon="10.2473368"><ele>400.0</ele><time>2026-03-22T08:54:37.245Z</time></trkpt><trkpt lat="44.5977506" lon="10.2474274"><ele>400.00000000000006</ele><time>2026-03-22T08:54:38.251Z</time></trkpt><trkpt lat="44.5978258" lon="10.2475015"><ele>400.0</ele><time>2026-03-22T08:54:39.254Z</time></trkpt><trkpt lat="44.5979462" lon="10.247538"><ele>396.75</ele><time>2026-03-22T08:54:40.323Z</time></trkpt><trkpt lat="44.5980834" lon="10.2475332"><ele>393.5</ele><time>2026-03-22T08:54:41.314Z</time></trkpt><trkpt lat="44.5982287" lon="10.2475115"><ele>390.25</ele><time>2026-03-22T08:54:42.248Z</time></trkpt><trkpt lat="44.5983806" lon="10.2474974"><ele>387.0</ele><time>2026-03-22T08:54:43.254Z</time></trkpt><trkpt lat="44.5985411" lon="10.2474882"><ele>385.75</ele><time>2026-03-22T08:54:44.266Z</time></trkpt><trkpt lat="44.598675" lon="10.2475232"><ele>384.5</ele><time>2026-03-22T08:54:45.259Z</time></trkpt><trkpt lat="44.5987996" lon="10.2475891"><ele>383.25</ele><time>2026-03-22T08:54:46.255Z</time></trkpt><trkpt lat="44.5989178" lon="10.2476838"><ele>382.0</ele><time>2026-03-22T08:54:47.266Z</time></trkpt><trkpt lat="44.5990403" lon="10.2477949"><ele>382.0</ele><time>2026-03-22T08:54:48.263Z</time></trkpt><trkpt lat="44.599156" lon="10.2478875"><ele>382.0</ele><time>2026-03-22T08:54:49.257Z</time></trkpt><trkpt lat="44.5992853" lon="10.2479554"><ele>382.0</ele><time>2026-03-22T08:54:50.251Z</time></trkpt><trkpt lat="44.5994144" lon="10.2479916"><ele>382.0</ele><time>2026-03-22T08:54:51.259Z</time></trkpt><trkpt lat="44.5995508" lon="10.2479765"><ele>381.0</ele><time>2026-03-22T08:54:52.25Z</time></trkpt><trkpt lat="44.5996893" lon="10.2479393"><ele>380.0</ele><time>2026-03-22T08:54:53.256Z</time></trkpt><trkpt lat="44.5998345" lon="10.2479113"><ele>379.0</ele><time>2026-03-22T08:54:54.258Z</time></trkpt><trkpt lat="44.5999663" lon="10.2479127"><ele>378.0</ele><time>2026-03-22T08:54:55.255Z</time></trkpt><trkpt lat="44.6000822" lon="10.2479371"><ele>378.0</ele><time>2026-03-22T08:54:56.254Z</time></trkpt><trkpt lat="44.6002047" lon="10.2479822"><ele>378.0</ele><time>2026-03-22T08:54:57.256Z</time></trkpt><trkpt lat="44.6003313" lon="10.2480502"><ele>378.0</ele><time>2026-03-22T08:54:58.251Z</time></trkpt><trkpt lat="44.6004481" lon="10.2481367"><ele>378.0</ele><time>2026-03-22T08:54:59.253Z</time></trkpt><trkpt lat="44.6005533" lon="10.2482588"><ele>372.5</ele><time>2026-03-22T08:55:00.265Z</time></trkpt><trkpt lat="44.6006656" lon="10.2483954"><ele>367.0</ele><time>2026-03-22T08:55:01.262Z</time></trkpt><trkpt lat="44.6007663" lon="10.2485364"><ele>361.5</ele><time>2026-03-22T08:55:02.261Z</time></trkpt><trkpt lat="44.6008421" lon="10.2486465"><ele>356.0</ele><time>2026-03-22T08:55:03.263Z</time></trkpt><trkpt lat="44.600884" lon="10.2487657"><ele>356.0</ele><time>2026-03-22T08:55:04.265Z</time></trkpt><trkpt lat="44.6008884" lon="10.2488908"><ele>356.0</ele><time>2026-03-22T08:55:05.266Z</time></trkpt><trkpt lat="44.600857" lon="10.2490013"><ele>356.0</ele><time>2026-03-22T08:55:06.271Z</time></trkpt><trkpt lat="44.6007996" lon="10.2491096"><ele>356.0</ele><time>2026-03-22T08:55:07.26Z</time></trkpt><trkpt lat="44.6007686" lon="10.249259"><ele>356.0</ele><time>2026-03-22T08:55:08.259Z</time></trkpt><trkpt lat="44.6007599" lon="10.2493905"><ele>354.6</ele><time>2026-03-22T08:55:09.262Z</time></trkpt><trkpt lat="44.6007799" lon="10.2495148"><ele>353.20000000000005</ele><time>2026-03-22T08:55:10.257Z</time></trkpt><trkpt lat="44.6008341" lon="10.2496221"><ele>351.79999999999995</ele><time>2026-03-22T08:55:11.264Z</time></trkpt><trkpt lat="44.6009293" lon="10.2497199"><ele>350.4</ele><time>2026-03-22T08:55:12.255Z</time></trkpt><trkpt lat="44.6010436" lon="10.2498348"><ele>349.0</ele><time>2026-03-22T08:55:13.265Z</time></trkpt><trkpt lat="44.6011637" lon="10.2499553"><ele>345.5</ele><time>2026-03-22T08:55:14.272Z</time></trkpt><trkpt lat="44.6012909" lon="10.2500846"><ele>342.0</ele><time>2026-03-22T08:55:15.266Z</time></trkpt><trkpt lat="44.6013963" lon="10.2501747"><ele>338.5</ele><time>2026-03-22T08:55:16.262Z</time></trkpt><trkpt lat="44.6014893" lon="10.250269"><ele>335.0</ele><time>2026-03-22T08:55:17.264Z</time></trkpt><trkpt lat="44.6015524" lon="10.2503847"><ele>335.0</ele><time>2026-03-22T08:55:18.26Z</time></trkpt><trkpt lat="44.6015839" lon="10.2505126"><ele>335.0</ele><time>2026-03-22T08:55:19.261Z</time></trkpt><trkpt lat="44.6016045" lon="10.2506506"><ele>335.0</ele><time>2026-03-22T08:55:20.254Z</time></trkpt><trkpt lat="44.6016264" lon="10.2508139"><ele>335.0</ele><time>2026-03-22T08:55:21.259Z</time></trkpt><trkpt lat="44.6016592" lon="10.250984"><ele>335.0</ele><time>2026-03-22T08:55:22.248Z</time></trkpt><trkpt lat="44.6017232" lon="10.2511463"><ele>333.33333333333337</ele><time>2026-03-22T08:55:23.255Z</time></trkpt><trkpt lat="44.601815" lon="10.2512867"><ele>331.6666666666667</ele><time>2026-03-22T08:55:24.254Z</time></trkpt><trkpt lat="44.6019247" lon="10.2514273"><ele>330.0</ele><time>2026-03-22T08:55:25.256Z</time></trkpt><trkpt lat="44.6020596" lon="10.2515645"><ele>326.75</ele><time>2026-03-22T08:55:26.259Z</time></trkpt><trkpt lat="44.6021768" lon="10.2516833"><ele>323.5</ele><time>2026-03-22T08:55:27.257Z</time></trkpt><trkpt lat="44.60227" lon="10.2518025"><ele>320.25</ele><time>2026-03-22T08:55:28.261Z</time></trkpt><trkpt lat="44.602361" lon="10.2519339"><ele>317.0</ele><time>2026-03-22T08:55:29.265Z</time></trkpt><trkpt lat="44.6024475" lon="10.2520503"><ele>317.0</ele><time>2026-03-22T08:55:30.265Z</time></trkpt><trkpt lat="44.6025485" lon="10.2521548"><ele>317.0</ele><time>2026-03-22T08:55:31.259Z</time></trkpt><trkpt lat="44.6026457" lon="10.2522605"><ele>317.0</ele><time>2026-03-22T08:55:32.263Z</time></trkpt><trkpt lat="44.6027414" lon="10.2523552"><ele>317.0</ele><time>2026-03-22T08:55:33.257Z</time></trkpt><trkpt lat="44.6028446" lon="10.2524579"><ele>313.5</ele><time>2026-03-22T08:55:34.252Z</time></trkpt><trkpt lat="44.6029486" lon="10.2525793"><ele>310.0</ele><time>2026-03-22T08:55:35.253Z</time></trkpt><trkpt lat="44.6030517" lon="10.252724"><ele>306.5</ele><time>2026-03-22T08:55:36.252Z</time></trkpt><trkpt lat="44.6031327" lon="10.2529164"><ele>303.0</ele><time>2026-03-22T08:55:37.278Z</time></trkpt><trkpt lat="44.6032024" lon="10.2530666"><ele>302.75</ele><time>2026-03-22T08:55:38.25Z</time></trkpt><trkpt lat="44.6032653" lon="10.2532243"><ele>302.5</ele><time>2026-03-22T08:55:39.254Z</time></trkpt><trkpt lat="44.6033035" lon="10.2533857"><ele>302.25</ele><time>2026-03-22T08:55:40.261Z</time></trkpt><trkpt lat="44.6033408" lon="10.2535497"><ele>302.0</ele><time>2026-03-22T08:55:41.259Z</time></trkpt><trkpt lat="44.6033061" lon="10.2537125"><ele>302.0</ele><time>2026-03-22T08:55:42.262Z</time></trkpt><trkpt lat="44.6032744" lon="10.253903"><ele>302.0</ele><time>2026-03-22T08:55:43.262Z</time></trkpt><trkpt lat="44.6032411" lon="10.2541106"><ele>302.0</ele><time>2026-03-22T08:55:44.266Z</time></trkpt><trkpt lat="44.6032119" lon="10.25432"><ele>302.0</ele><time>2026-03-22T08:55:45.248Z</time></trkpt><trkpt lat="44.6031981" lon="10.2545224"><ele>300.8</ele><time>2026-03-22T08:55:46.251Z</time></trkpt><trkpt lat="44.6031897" lon="10.254685"><ele>299.6</ele><time>2026-03-22T08:55:47.249Z</time></trkpt><trkpt lat="44.6031897" lon="10.254825"><ele>298.40000000000003</ele><time>2026-03-22T08:55:48.259Z</time></trkpt><trkpt lat="44.6031989" lon="10.2549407"><ele>297.2</ele><time>2026-03-22T08:55:49.252Z</time></trkpt><trkpt lat="44.6031933" lon="10.2550339"><ele>296.0</ele><time>2026-03-22T08:55:50.256Z</time></trkpt><trkpt lat="44.6031344" lon="10.255143"><ele>295.2</ele><time>2026-03-22T08:55:52.251Z</time></trkpt><trkpt lat="44.6030691" lon="10.2552186"><ele>294.40000000000003</ele><time>2026-03-22T08:55:55.263Z</time></trkpt><trkpt lat="44.6030086" lon="10.2552977"><ele>293.6</ele><time>2026-03-22T08:55:57.259Z</time></trkpt><trkpt lat="44.6029234" lon="10.2552929"><ele>292.8</ele><time>2026-03-22T08:55:58.255Z</time></trkpt><trkpt lat="44.6028082" lon="10.2552517"><ele>292.0</ele><time>2026-03-22T08:55:59.254Z</time></trkpt><trkpt lat="44.6026722" lon="10.2551997"><ele>292.0</ele><time>2026-03-22T08:56:00.259Z</time></trkpt><trkpt lat="44.6025304" lon="10.2551328"><ele>292.0</ele><time>2026-03-22T08:56:01.25Z</time></trkpt><trkpt lat="44.6023557" lon="10.2549783"><ele>292.0</ele><time>2026-03-22T08:56:02.254Z</time></trkpt><trkpt lat="44.6021976" lon="10.2548639"><ele>294.3333333333333</ele><time>2026-03-22T08:56:03.251Z</time></trkpt><trkpt lat="44.6020525" lon="10.2547436"><ele>296.6666666666667</ele><time>2026-03-22T08:56:04.248Z</time></trkpt><trkpt lat="44.6019015" lon="10.2546291"><ele>299.0</ele><time>2026-03-22T08:56:05.253Z</time></trkpt><trkpt lat="44.6017537" lon="10.2545191"><ele>299.0</ele><time>2026-03-22T08:56:06.254Z</time></trkpt><trkpt lat="44.6016193" lon="10.2544137"><ele>299.0</ele><time>2026-03-22T08:56:07.259Z</time></trkpt><trkpt lat="44.6014766" lon="10.2543126"><ele>299.0</ele><time>2026-03-22T08:56:08.256Z</time></trkpt><trkpt lat="44.601345" lon="10.2542129"><ele>299.0</ele><time>2026-03-22T08:56:09.248Z</time></trkpt><trkpt lat="44.6012031" lon="10.2541024"><ele>299.0</ele><time>2026-03-22T08:56:10.251Z</time></trkpt><trkpt lat="44.601062" lon="10.253985"><ele>299.0</ele><time>2026-03-22T08:56:11.26Z</time></trkpt><trkpt lat="44.6009175" lon="10.2538673"><ele>299.6666666666667</ele><time>2026-03-22T08:56:12.254Z</time></trkpt><trkpt lat="44.6007737" lon="10.253772"><ele>300.3333333333333</ele><time>2026-03-22T08:56:13.255Z</time></trkpt><trkpt lat="44.6006334" lon="10.2536464"><ele>301.0</ele><time>2026-03-22T08:56:14.266Z</time></trkpt><trkpt lat="44.6004975" lon="10.2535496"><ele>301.0</ele><time>2026-03-22T08:56:15.258Z</time></trkpt><trkpt lat="44.6003581" lon="10.2534504"><ele>301.0</ele><time>2026-03-22T08:56:16.258Z</time></trkpt><trkpt lat="44.6002409" lon="10.2533554"><ele>301.0</ele><time>2026-03-22T08:56:17.256Z</time></trkpt><trkpt lat="44.6001273" lon="10.2532624"><ele>301.0</ele><time>2026-03-22T08:56:18.257Z</time></trkpt><trkpt lat="44.6000007" lon="10.25318"><ele>301.75</ele><time>2026-03-22T08:56:19.257Z</time></trkpt><trkpt lat="44.5998695" lon="10.2530983"><ele>302.5</ele><time>2026-03-22T08:56:20.253Z</time></trkpt><trkpt lat="44.5997309" lon="10.253024"><ele>303.25</ele><time>2026-03-22T08:56:21.243Z</time></trkpt><trkpt lat="44.5995893" lon="10.2529723"><ele>304.0</ele><time>2026-03-22T08:56:22.259Z</time></trkpt><trkpt lat="44.5994446" lon="10.2529192"><ele>304.0</ele><time>2026-03-22T08:56:23.259Z</time></trkpt><trkpt lat="44.5993002" lon="10.2528731"><ele>304.0</ele><time>2026-03-22T08:56:24.261Z</time></trkpt><trkpt lat="44.5991558" lon="10.252835"><ele>304.0</ele><time>2026-03-22T08:56:25.258Z</time></trkpt><trkpt lat="44.599016" lon="10.2528105"><ele>304.0</ele><time>2026-03-22T08:56:26.256Z</time></trkpt><trkpt lat="44.5988628" lon="10.2527824"><ele>304.0</ele><time>2026-03-22T08:56:27.251Z</time></trkpt><trkpt lat="44.59871" lon="10.252753"><ele>304.0</ele><time>2026-03-22T08:56:28.296Z</time></trkpt><trkpt lat="44.59855" lon="10.2527129"><ele>304.0</ele><time>2026-03-22T08:56:29.251Z</time></trkpt><trkpt lat="44.5983894" lon="10.2526828"><ele>303.75</ele><time>2026-03-22T08:56:30.253Z</time></trkpt><trkpt lat="44.5982367" lon="10.2526495"><ele>303.5</ele><time>2026-03-22T08:56:31.248Z</time></trkpt><trkpt lat="44.5980848" lon="10.2526198"><ele>303.25</ele><time>2026-03-22T08:56:32.254Z</time></trkpt><trkpt lat="44.5979485" lon="10.2525777"><ele>303.0</ele><time>2026-03-22T08:56:33.244Z</time></trkpt><trkpt lat="44.5978143" lon="10.2525266"><ele>303.0</ele><time>2026-03-22T08:56:34.243Z</time></trkpt><trkpt lat="44.5976754" lon="10.2524494"><ele>303.0</ele><time>2026-03-22T08:56:35.239Z</time></trkpt><trkpt lat="44.597554" lon="10.2523394"><ele>303.0</ele><time>2026-03-22T08:56:36.249Z</time></trkpt><trkpt lat="44.5974549" lon="10.2521991"><ele>303.0</ele><time>2026-03-22T08:56:37.244Z</time></trkpt><trkpt lat="44.5973743" lon="10.2520467"><ele>308.6666666666667</ele><time>2026-03-22T08:56:38.249Z</time></trkpt><trkpt lat="44.597298" lon="10.2518994"><ele>314.33333333333337</ele><time>2026-03-22T08:56:39.267Z</time></trkpt><trkpt lat="44.5972049" lon="10.2517036"><ele>320.0</ele><time>2026-03-22T08:56:40.252Z</time></trkpt><trkpt lat="44.5971148" lon="10.2514674"><ele>317.6666666666667</ele><time>2026-03-22T08:56:41.244Z</time></trkpt><trkpt lat="44.5970002" lon="10.2512374"><ele>315.3333333333333</ele><time>2026-03-22T08:56:42.237Z</time></trkpt><trkpt lat="44.5968726" lon="10.2510394"><ele>313.0</ele><time>2026-03-22T08:56:43.235Z</time></trkpt><trkpt lat="44.5967121" lon="10.2508918"><ele>313.0</ele><time>2026-03-22T08:56:44.245Z</time></trkpt><trkpt lat="44.5965273" lon="10.2507453"><ele>313.0</ele><time>2026-03-22T08:56:45.242Z</time></trkpt><trkpt lat="44.5963129" lon="10.2505991"><ele>315.0</ele><time>2026-03-22T08:56:46.232Z</time></trkpt><trkpt lat="44.5960941" lon="10.2504604"><ele>317.0</ele><time>2026-03-22T08:56:47.244Z</time></trkpt><trkpt lat="44.5958908" lon="10.250336"><ele>317.0</ele><time>2026-03-22T08:56:48.236Z</time></trkpt><trkpt lat="44.5956927" lon="10.2501973"><ele>317.0</ele><time>2026-03-22T08:56:49.244Z</time></trkpt><trkpt lat="44.5955305" lon="10.250003"><ele>317.0</ele><time>2026-03-22T08:56:50.248Z</time></trkpt><trkpt lat="44.5953527" lon="10.2497662"><ele>315.5</ele><time>2026-03-22T08:56:51.243Z</time></trkpt><trkpt lat="44.5951852" lon="10.2495083"><ele>314.0</ele><time>2026-03-22T08:56:52.238Z</time></trkpt><trkpt lat="44.5950241" lon="10.2492985"><ele>314.0</ele><time>2026-03-22T08:56:53.234Z</time></trkpt><trkpt lat="44.5948654" lon="10.249105"><ele>314.0</ele><time>2026-03-22T08:56:54.238Z</time></trkpt><trkpt lat="44.594733" lon="10.2489241"><ele>314.0</ele><time>2026-03-22T08:56:55.236Z</time></trkpt><trkpt lat="44.5946046" lon="10.2487499"><ele>314.6666666666667</ele><time>2026-03-22T08:56:56.243Z</time></trkpt><trkpt lat="44.5944668" lon="10.2486035"><ele>315.3333333333333</ele><time>2026-03-22T08:56:57.238Z</time></trkpt><trkpt lat="44.5943264" lon="10.2484811"><ele>316.0</ele><time>2026-03-22T08:56:58.24Z</time></trkpt><trkpt lat="44.5941642" lon="10.2483905"><ele>316.0</ele><time>2026-03-22T08:56:59.242Z</time></trkpt><trkpt lat="44.5939782" lon="10.2483383"><ele>316.0</ele><time>2026-03-22T08:57:00.235Z</time></trkpt><trkpt lat="44.5937514" lon="10.2482897"><ele>316.0</ele><time>2026-03-22T08:57:01.245Z</time></trkpt><trkpt lat="44.5934917" lon="10.2482271"><ele>316.5</ele><time>2026-03-22T08:57:02.238Z</time></trkpt><trkpt lat="44.5932178" lon="10.2481324"><ele>317.0</ele><time>2026-03-22T08:57:03.235Z</time></trkpt><trkpt lat="44.5929427" lon="10.2480661"><ele>315.0</ele><time>2026-03-22T08:57:04.24Z</time></trkpt><trkpt lat="44.5926689" lon="10.2480135"><ele>313.0</ele><time>2026-03-22T08:57:05.25Z</time></trkpt><trkpt lat="44.5923827" lon="10.2479337"><ele>313.0</ele><time>2026-03-22T08:57:06.249Z</time></trkpt><trkpt lat="44.5920921" lon="10.247841"><ele>313.0</ele><time>2026-03-22T08:57:07.248Z</time></trkpt><trkpt lat="44.5918261" lon="10.2477604"><ele>310.5</ele><time>2026-03-22T08:57:08.24Z</time></trkpt><trkpt lat="44.5915659" lon="10.2476933"><ele>308.0</ele><time>2026-03-22T08:57:09.265Z</time></trkpt><trkpt lat="44.591322" lon="10.2476431"><ele>308.0</ele><time>2026-03-22T08:57:10.26Z</time></trkpt><trkpt lat="44.591082" lon="10.247586"><ele>308.0</ele><time>2026-03-22T08:57:11.255Z</time></trkpt><trkpt lat="44.5908446" lon="10.2475426"><ele>308.0</ele><time>2026-03-22T08:57:12.26Z</time></trkpt><trkpt lat="44.5906081" lon="10.2474874"><ele>308.0</ele><time>2026-03-22T08:57:13.251Z</time></trkpt><trkpt lat="44.5904122" lon="10.2474043"><ele>308.0</ele><time>2026-03-22T08:57:14.271Z</time></trkpt><trkpt lat="44.5902215" lon="10.2472921"><ele>310.33333333333337</ele><time>2026-03-22T08:57:15.256Z</time></trkpt><trkpt lat="44.5900522" lon="10.247167"><ele>312.6666666666667</ele><time>2026-03-22T08:57:16.251Z</time></trkpt><trkpt lat="44.5898936" lon="10.2470438"><ele>315.0</ele><time>2026-03-22T08:57:17.257Z</time></trkpt><trkpt lat="44.5897218" lon="10.2469379"><ele>315.0</ele><time>2026-03-22T08:57:18.262Z</time></trkpt><trkpt lat="44.5895558" lon="10.2468773"><ele>315.0</ele><time>2026-03-22T08:57:19.257Z</time></trkpt><trkpt lat="44.589392" lon="10.2468623"><ele>315.0</ele><time>2026-03-22T08:57:20.259Z</time></trkpt><trkpt lat="44.5892268" lon="10.246911"><ele>314.0</ele><time>2026-03-22T08:57:21.255Z</time></trkpt><trkpt lat="44.5890549" lon="10.2469809"><ele>313.0</ele><time>2026-03-22T08:57:22.249Z</time></trkpt><trkpt lat="44.5888947" lon="10.2470632"><ele>312.0</ele><time>2026-03-22T08:57:23.25Z</time></trkpt><trkpt lat="44.5887401" lon="10.2471418"><ele>311.0</ele><time>2026-03-22T08:57:24.257Z</time></trkpt><trkpt lat="44.588597" lon="10.2472224"><ele>310.0</ele><time>2026-03-22T08:57:25.253Z</time></trkpt><trkpt lat="44.5884517" lon="10.2472765"><ele>309.0</ele><time>2026-03-22T08:57:26.252Z</time></trkpt><trkpt lat="44.5882994" lon="10.2473034"><ele>312.0</ele><time>2026-03-22T08:57:27.255Z</time></trkpt><trkpt lat="44.5881491" lon="10.2472778"><ele>315.0</ele><time>2026-03-22T08:57:28.243Z</time></trkpt><trkpt lat="44.5880182" lon="10.2472008"><ele>318.0</ele><time>2026-03-22T08:57:29.239Z</time></trkpt><trkpt lat="44.5878982" lon="10.2470901"><ele>321.0</ele><time>2026-03-22T08:57:30.252Z</time></trkpt><trkpt lat="44.587757" lon="10.2469395"><ele>321.0</ele><time>2026-03-22T08:57:31.241Z</time></trkpt><trkpt lat="44.5875952" lon="10.2467645"><ele>321.0</ele><time>2026-03-22T08:57:32.255Z</time></trkpt><trkpt lat="44.5874074" lon="10.246579"><ele>321.0</ele><time>2026-03-22T08:57:33.254Z</time></trkpt><trkpt lat="44.5872032" lon="10.2463894"><ele>323.6666666666667</ele><time>2026-03-22T08:57:34.25Z</time></trkpt><trkpt lat="44.5870047" lon="10.2462258"><ele>326.33333333333337</ele><time>2026-03-22T08:57:35.253Z</time></trkpt><trkpt lat="44.5868085" lon="10.2461018"><ele>329.0</ele><time>2026-03-22T08:57:36.237Z</time></trkpt><trkpt lat="44.5866114" lon="10.2459866"><ele>329.0</ele><time>2026-03-22T08:57:37.239Z</time></trkpt><trkpt lat="44.5864115" lon="10.2458687"><ele>329.0</ele><time>2026-03-22T08:57:38.247Z</time></trkpt><trkpt lat="44.5862156" lon="10.2457551"><ele>329.0</ele><time>2026-03-22T08:57:39.243Z</time></trkpt><trkpt lat="44.5860305" lon="10.2456603"><ele>335.6666666666667</ele><time>2026-03-22T08:57:40.258Z</time></trkpt><trkpt lat="44.5858399" lon="10.2455631"><ele>342.3333333333333</ele><time>2026-03-22T08:57:41.245Z</time></trkpt><trkpt lat="44.5856502" lon="10.2454546"><ele>349.0</ele><time>2026-03-22T08:57:42.244Z</time></trkpt><trkpt lat="44.5854431" lon="10.2453616"><ele>344.66666666666663</ele><time>2026-03-22T08:57:43.246Z</time></trkpt><trkpt lat="44.5852434" lon="10.2452534"><ele>340.3333333333333</ele><time>2026-03-22T08:57:44.269Z</time></trkpt><trkpt lat="44.5850484" lon="10.2451455"><ele>336.0</ele><time>2026-03-22T08:57:45.253Z</time></trkpt><trkpt lat="44.5848517" lon="10.2450354"><ele>336.0</ele><time>2026-03-22T08:57:46.245Z</time></trkpt><trkpt lat="44.5846529" lon="10.2449306"><ele>336.0</ele><time>2026-03-22T08:57:47.248Z</time></trkpt><trkpt lat="44.5844429" lon="10.2448215"><ele>336.0</ele><time>2026-03-22T08:57:48.244Z</time></trkpt><trkpt lat="44.5841976" lon="10.2446923"><ele>335.5</ele><time>2026-03-22T08:57:49.245Z</time></trkpt><trkpt lat="44.5839168" lon="10.2445431"><ele>335.0</ele><time>2026-03-22T08:57:50.253Z</time></trkpt><trkpt lat="44.583636" lon="10.2443797"><ele>335.0</ele><time>2026-03-22T08:57:51.252Z</time></trkpt><trkpt lat="44.5833641" lon="10.2442488"><ele>335.0</ele><time>2026-03-22T08:57:52.242Z</time></trkpt><trkpt lat="44.5831122" lon="10.2441052"><ele>340.0</ele><time>2026-03-22T08:57:53.245Z</time></trkpt><trkpt lat="44.5828829" lon="10.2439632"><ele>345.0</ele><time>2026-03-22T08:57:54.235Z</time></trkpt><trkpt lat="44.5826372" lon="10.2438255"><ele>345.0</ele><time>2026-03-22T08:57:55.236Z</time></trkpt><trkpt lat="44.5823929" lon="10.2436535"><ele>345.0</ele><time>2026-03-22T08:57:56.246Z</time></trkpt><trkpt lat="44.5821528" lon="10.2434879"><ele>346.5</ele><time>2026-03-22T08:57:57.239Z</time></trkpt><trkpt lat="44.5819245" lon="10.243297"><ele>348.0</ele><time>2026-03-22T08:57:58.239Z</time></trkpt><trkpt lat="44.5816672" lon="10.2430858"><ele>348.0</ele><time>2026-03-22T08:57:59.244Z</time></trkpt><trkpt lat="44.5814277" lon="10.2428898"><ele>348.0</ele><time>2026-03-22T08:58:00.241Z</time></trkpt><trkpt lat="44.5811788" lon="10.2427033"><ele>340.5</ele><time>2026-03-22T08:58:01.236Z</time></trkpt><trkpt lat="44.5809205" lon="10.242541"><ele>333.0</ele><time>2026-03-22T08:58:02.238Z</time></trkpt><trkpt lat="44.5806538" lon="10.2423975"><ele>338.5</ele><time>2026-03-22T08:58:03.234Z</time></trkpt><trkpt lat="44.5804073" lon="10.2422322"><ele>344.0</ele><time>2026-03-22T08:58:04.249Z</time></trkpt><trkpt lat="44.5801681" lon="10.242022"><ele>344.0</ele><time>2026-03-22T08:58:05.237Z</time></trkpt><trkpt lat="44.5799206" lon="10.241811"><ele>344.0</ele><time>2026-03-22T08:58:06.242Z</time></trkpt><trkpt lat="44.5796606" lon="10.2416075"><ele>345.5</ele><time>2026-03-22T08:58:07.235Z</time></trkpt><trkpt lat="44.5794134" lon="10.2414163"><ele>347.0</ele><time>2026-03-22T08:58:08.249Z</time></trkpt><trkpt lat="44.5791788" lon="10.2412415"><ele>347.0</ele><time>2026-03-22T08:58:09.242Z</time></trkpt><trkpt lat="44.5789389" lon="10.2410938"><ele>347.0</ele><time>2026-03-22T08:58:10.239Z</time></trkpt><trkpt lat="44.578696" lon="10.2409757"><ele>340.0</ele><time>2026-03-22T08:58:11.259Z</time></trkpt><trkpt lat="44.5784533" lon="10.2408461"><ele>333.0</ele><time>2026-03-22T08:58:12.24Z</time></trkpt><trkpt lat="44.5782123" lon="10.2407271"><ele>338.0</ele><time>2026-03-22T08:58:13.243Z</time></trkpt><trkpt lat="44.5779794" lon="10.2406062"><ele>343.0</ele><time>2026-03-22T08:58:14.259Z</time></trkpt><trkpt lat="44.5777802" lon="10.2404561"><ele>343.0</ele><time>2026-03-22T08:58:15.239Z</time></trkpt><trkpt lat="44.5775986" lon="10.2403162"><ele>343.0</ele><time>2026-03-22T08:58:16.241Z</time></trkpt><trkpt lat="44.5774119" lon="10.240207"><ele>343.0</ele><time>2026-03-22T08:58:17.243Z</time></trkpt><trkpt lat="44.5772347" lon="10.2401138"><ele>343.0</ele><time>2026-03-22T08:58:18.242Z</time></trkpt><trkpt lat="44.5770761" lon="10.2400133"><ele>343.0</ele><time>2026-03-22T08:58:19.247Z</time></trkpt><trkpt lat="44.5769255" lon="10.2399299"><ele>343.0</ele><time>2026-03-22T08:58:20.252Z</time></trkpt><trkpt lat="44.5767796" lon="10.2398568"><ele>346.0</ele><time>2026-03-22T08:58:21.251Z</time></trkpt><trkpt lat="44.5766443" lon="10.2397933"><ele>349.0</ele><time>2026-03-22T08:58:22.254Z</time></trkpt><trkpt lat="44.5764984" lon="10.2397277"><ele>352.0</ele><time>2026-03-22T08:58:23.27Z</time></trkpt><trkpt lat="44.5763421" lon="10.2396641"><ele>350.3333333333333</ele><time>2026-03-22T08:58:24.256Z</time></trkpt><trkpt lat="44.5761486" lon="10.2395788"><ele>348.6666666666667</ele><time>2026-03-22T08:58:25.246Z</time></trkpt><trkpt lat="44.5759294" lon="10.2394904"><ele>347.0</ele><time>2026-03-22T08:58:26.251Z</time></trkpt><trkpt lat="44.5756889" lon="10.2393604"><ele>347.0</ele><time>2026-03-22T08:58:27.249Z</time></trkpt><trkpt lat="44.575466" lon="10.2392427"><ele>347.0</ele><time>2026-03-22T08:58:28.26Z</time></trkpt><trkpt lat="44.5752591" lon="10.2391386"><ele>344.33333333333337</ele><time>2026-03-22T08:58:29.253Z</time></trkpt><trkpt lat="44.5750477" lon="10.2390437"><ele>341.6666666666667</ele><time>2026-03-22T08:58:30.25Z</time></trkpt><trkpt lat="44.5748461" lon="10.2389552"><ele>339.0</ele><time>2026-03-22T08:58:31.251Z</time></trkpt><trkpt lat="44.5746575" lon="10.2388557"><ele>340.0</ele><time>2026-03-22T08:58:32.249Z</time></trkpt><trkpt lat="44.5744931" lon="10.2387171"><ele>341.0</ele><time>2026-03-22T08:58:33.255Z</time></trkpt><trkpt lat="44.5743681" lon="10.2385694"><ele>342.0</ele><time>2026-03-22T08:58:34.245Z</time></trkpt><trkpt lat="44.5742765" lon="10.2383974"><ele>342.0</ele><time>2026-03-22T08:58:35.243Z</time></trkpt><trkpt lat="44.5741941" lon="10.2381703"><ele>342.0</ele><time>2026-03-22T08:58:36.244Z</time></trkpt><trkpt lat="44.57411" lon="10.2379339"><ele>342.0</ele><time>2026-03-22T08:58:37.248Z</time></trkpt><trkpt lat="44.5740103" lon="10.2377208"><ele>341.6666666666667</ele><time>2026-03-22T08:58:38.242Z</time></trkpt><trkpt lat="44.5738979" lon="10.2375361"><ele>341.33333333333337</ele><time>2026-03-22T08:58:39.247Z</time></trkpt><trkpt lat="44.5737525" lon="10.2374016"><ele>341.0</ele><time>2026-03-22T08:58:40.24Z</time></trkpt><trkpt lat="44.5735861" lon="10.2373222"><ele>344.33333333333337</ele><time>2026-03-22T08:58:41.242Z</time></trkpt><trkpt lat="44.5734098" lon="10.237244"><ele>347.6666666666667</ele><time>2026-03-22T08:58:42.256Z</time></trkpt><trkpt lat="44.5732133" lon="10.237149"><ele>351.0</ele><time>2026-03-22T08:58:43.246Z</time></trkpt><trkpt lat="44.5730199" lon="10.2370661"><ele>349.3333333333333</ele><time>2026-03-22T08:58:44.255Z</time></trkpt><trkpt lat="44.5728439" lon="10.2369572"><ele>347.66666666666663</ele><time>2026-03-22T08:58:45.248Z</time></trkpt><trkpt lat="44.5726827" lon="10.2368577"><ele>346.0</ele><time>2026-03-22T08:58:46.249Z</time></trkpt><trkpt lat="44.5725443" lon="10.2367203"><ele>346.0</ele><time>2026-03-22T08:58:47.251Z</time></trkpt><trkpt lat="44.5724122" lon="10.2365814"><ele>346.0</ele><time>2026-03-22T08:58:48.262Z</time></trkpt><trkpt lat="44.5722801" lon="10.2364126"><ele>346.0</ele><time>2026-03-22T08:58:49.247Z</time></trkpt><trkpt lat="44.5721375" lon="10.2362352"><ele>343.66666666666663</ele><time>2026-03-22T08:58:50.255Z</time></trkpt><trkpt lat="44.572004" lon="10.2360443"><ele>341.3333333333333</ele><time>2026-03-22T08:58:51.249Z</time></trkpt><trkpt lat="44.5718776" lon="10.2358401"><ele>339.0</ele><time>2026-03-22T08:58:52.255Z</time></trkpt><trkpt lat="44.5717379" lon="10.2356596"><ele>342.0</ele><time>2026-03-22T08:58:53.246Z</time></trkpt><trkpt lat="44.5715918" lon="10.2355292"><ele>345.0</ele><time>2026-03-22T08:58:54.251Z</time></trkpt><trkpt lat="44.5714079" lon="10.2354205"><ele>348.0</ele><time>2026-03-22T08:58:55.248Z</time></trkpt><trkpt lat="44.5712091" lon="10.2353304"><ele>346.3333333333333</ele><time>2026-03-22T08:58:56.245Z</time></trkpt><trkpt lat="44.5710089" lon="10.2352442"><ele>344.66666666666663</ele><time>2026-03-22T08:58:57.25Z</time></trkpt><trkpt lat="44.5708148" lon="10.2351555"><ele>343.0</ele><time>2026-03-22T08:58:58.251Z</time></trkpt><trkpt lat="44.5706299" lon="10.2350623"><ele>343.0</ele><time>2026-03-22T08:58:59.249Z</time></trkpt><trkpt lat="44.5704545" lon="10.234992"><ele>343.0</ele><time>2026-03-22T08:59:00.244Z</time></trkpt><trkpt lat="44.5702855" lon="10.2349244"><ele>343.0</ele><time>2026-03-22T08:59:01.249Z</time></trkpt><trkpt lat="44.5701326" lon="10.2348276"><ele>344.3333333333333</ele><time>2026-03-22T08:59:02.238Z</time></trkpt><trkpt lat="44.5700128" lon="10.2347238"><ele>345.6666666666667</ele><time>2026-03-22T08:59:03.236Z</time></trkpt><trkpt lat="44.5699008" lon="10.2345445"><ele>347.0</ele><time>2026-03-22T08:59:04.397Z</time></trkpt><trkpt lat="44.5696905" lon="10.2341041"><ele>348.6666666666667</ele><time>2026-03-22T08:59:06.25Z</time></trkpt><trkpt lat="44.5696057" lon="10.2338633"><ele>350.3333333333333</ele><time>2026-03-22T08:59:07.239Z</time></trkpt><trkpt lat="44.5695399" lon="10.2336456"><ele>352.0</ele><time>2026-03-22T08:59:08.243Z</time></trkpt><trkpt lat="44.5694885" lon="10.2334363"><ele>349.0</ele><time>2026-03-22T08:59:09.249Z</time></trkpt><trkpt lat="44.5694393" lon="10.2332389"><ele>346.0</ele><time>2026-03-22T08:59:10.248Z</time></trkpt><trkpt lat="44.5693745" lon="10.2330724"><ele>343.0</ele><time>2026-03-22T08:59:11.254Z</time></trkpt><trkpt lat="44.5692966" lon="10.2329143"><ele>340.0</ele><time>2026-03-22T08:59:12.256Z</time></trkpt><trkpt lat="44.5692174" lon="10.23275"><ele>340.0</ele><time>2026-03-22T08:59:13.264Z</time></trkpt><trkpt lat="44.5691286" lon="10.2325972"><ele>340.0</ele><time>2026-03-22T08:59:14.259Z</time></trkpt><trkpt lat="44.5690453" lon="10.2324692"><ele>340.0</ele><time>2026-03-22T08:59:15.244Z</time></trkpt><trkpt lat="44.5689445" lon="10.2323567"><ele>340.0</ele><time>2026-03-22T08:59:16.253Z</time></trkpt><trkpt lat="44.5688474" lon="10.2322505"><ele>339.0</ele><time>2026-03-22T08:59:17.251Z</time></trkpt><trkpt lat="44.5687558" lon="10.2321309"><ele>338.0</ele><time>2026-03-22T08:59:18.249Z</time></trkpt><trkpt lat="44.5686777" lon="10.2320048"><ele>337.0</ele><time>2026-03-22T08:59:19.251Z</time></trkpt><trkpt lat="44.5686081" lon="10.2318552"><ele>336.0</ele><time>2026-03-22T08:59:20.247Z</time></trkpt><trkpt lat="44.5685376" lon="10.2317059"><ele>336.0</ele><time>2026-03-22T08:59:21.247Z</time></trkpt><trkpt lat="44.5684703" lon="10.2315697"><ele>336.0</ele><time>2026-03-22T08:59:22.25Z</time></trkpt><trkpt lat="44.5684108" lon="10.231432"><ele>336.0</ele><time>2026-03-22T08:59:23.243Z</time></trkpt><trkpt lat="44.568347" lon="10.2312996"><ele>336.0</ele><time>2026-03-22T08:59:24.254Z</time></trkpt><trkpt lat="44.5682861" lon="10.2311648"><ele>337.4</ele><time>2026-03-22T08:59:25.247Z</time></trkpt><trkpt lat="44.5682268" lon="10.2310295"><ele>338.8</ele><time>2026-03-22T08:59:26.245Z</time></trkpt><trkpt lat="44.5681683" lon="10.2308895"><ele>340.2</ele><time>2026-03-22T08:59:27.251Z</time></trkpt><trkpt lat="44.5681018" lon="10.2307658"><ele>341.59999999999997</ele><time>2026-03-22T08:59:28.243Z</time></trkpt><trkpt lat="44.5680296" lon="10.2306493"><ele>343.0</ele><time>2026-03-22T08:59:29.242Z</time></trkpt><trkpt lat="44.5679465" lon="10.2305488"><ele>345.0</ele><time>2026-03-22T08:59:30.249Z</time></trkpt><trkpt lat="44.5678483" lon="10.2304681"><ele>347.0</ele><time>2026-03-22T08:59:31.242Z</time></trkpt><trkpt lat="44.5677398" lon="10.2304003"><ele>349.0</ele><time>2026-03-22T08:59:32.243Z</time></trkpt><trkpt lat="44.5676248" lon="10.2303483"><ele>351.0</ele><time>2026-03-22T08:59:33.24Z</time></trkpt><trkpt lat="44.5675041" lon="10.2303079"><ele>351.0</ele><time>2026-03-22T08:59:34.241Z</time></trkpt><trkpt lat="44.5673832" lon="10.2302768"><ele>351.0</ele><time>2026-03-22T08:59:35.239Z</time></trkpt><trkpt lat="44.5672704" lon="10.2302389"><ele>351.0</ele><time>2026-03-22T08:59:36.241Z</time></trkpt><trkpt lat="44.5671583" lon="10.2301912"><ele>351.0</ele><time>2026-03-22T08:59:37.237Z</time></trkpt><trkpt lat="44.5670555" lon="10.2301274"><ele>350.20000000000005</ele><time>2026-03-22T08:59:38.239Z</time></trkpt><trkpt lat="44.5669723" lon="10.2300236"><ele>349.40000000000003</ele><time>2026-03-22T08:59:39.244Z</time></trkpt><trkpt lat="44.5669043" lon="10.2299002"><ele>348.6</ele><time>2026-03-22T08:59:40.251Z</time></trkpt><trkpt lat="44.5668553" lon="10.2297777"><ele>347.8</ele><time>2026-03-22T08:59:41.249Z</time></trkpt><trkpt lat="44.5668228" lon="10.2296648"><ele>347.0</ele><time>2026-03-22T08:59:42.243Z</time></trkpt><trkpt lat="44.5667997" lon="10.2295604"><ele>347.0</ele><time>2026-03-22T08:59:43.244Z</time></trkpt><trkpt lat="44.5667843" lon="10.22946"><ele>347.0</ele><time>2026-03-22T08:59:44.266Z</time></trkpt><trkpt lat="44.5667973" lon="10.2293696"><ele>347.0</ele><time>2026-03-22T08:59:45.245Z</time></trkpt><trkpt lat="44.5668396" lon="10.2292149"><ele>347.0</ele><time>2026-03-22T08:59:47.247Z</time></trkpt><trkpt lat="44.5667997" lon="10.2290609"><ele>347.0</ele><time>2026-03-22T08:59:49.249Z</time></trkpt><trkpt lat="44.5667064" lon="10.2289619"><ele>349.5</ele><time>2026-03-22T08:59:51.241Z</time></trkpt><trkpt lat="44.566592" lon="10.2288592"><ele>352.0</ele><time>2026-03-22T08:59:53.237Z</time></trkpt><trkpt lat="44.5665181" lon="10.2287466"><ele>354.5</ele><time>2026-03-22T08:59:54.249Z</time></trkpt><trkpt lat="44.5664416" lon="10.2286161"><ele>357.0</ele><time>2026-03-22T08:59:55.246Z</time></trkpt><trkpt lat="44.5663759" lon="10.2284758"><ele>357.0</ele><time>2026-03-22T08:59:56.236Z</time></trkpt><trkpt lat="44.5663239" lon="10.2283122"><ele>357.0</ele><time>2026-03-22T08:59:57.245Z</time></trkpt><trkpt lat="44.5663073" lon="10.2281129"><ele>357.0</ele><time>2026-03-22T08:59:58.243Z</time></trkpt><trkpt lat="44.5663119" lon="10.2279133"><ele>357.0</ele><time>2026-03-22T08:59:59.239Z</time></trkpt><trkpt lat="44.5663192" lon="10.227712"><ele>359.0</ele><time>2026-03-22T09:00:00.228Z</time></trkpt><trkpt lat="44.5663366" lon="10.2275057"><ele>361.0</ele><time>2026-03-22T09:00:01.232Z</time></trkpt><trkpt lat="44.5663197" lon="10.227323"><ele>363.0</ele><time>2026-03-22T09:00:02.229Z</time></trkpt><trkpt lat="44.566299" lon="10.2271532"><ele>365.0</ele><time>2026-03-22T09:00:03.23Z</time></trkpt><trkpt lat="44.5662286" lon="10.2269828"><ele>366.6666666666667</ele><time>2026-03-22T09:00:04.228Z</time></trkpt><trkpt lat="44.5661224" lon="10.226828"><ele>368.3333333333333</ele><time>2026-03-22T09:00:05.228Z</time></trkpt><trkpt lat="44.5659819" lon="10.2266615"><ele>370.0</ele><time>2026-03-22T09:00:06.232Z</time></trkpt><trkpt lat="44.5658454" lon="10.226477"><ele>370.0</ele><time>2026-03-22T09:00:07.232Z</time></trkpt><trkpt lat="44.5657321" lon="10.2263004"><ele>370.0</ele><time>2026-03-22T09:00:08.229Z</time></trkpt><trkpt lat="44.5656098" lon="10.2261096"><ele>370.0</ele><time>2026-03-22T09:00:09.237Z</time></trkpt><trkpt lat="44.5654615" lon="10.2259409"><ele>370.0</ele><time>2026-03-22T09:00:10.237Z</time></trkpt><trkpt lat="44.5653424" lon="10.2257716"><ele>370.0</ele><time>2026-03-22T09:00:11.226Z</time></trkpt><trkpt lat="44.5652236" lon="10.22562"><ele>370.0</ele><time>2026-03-22T09:00:12.238Z</time></trkpt><trkpt lat="44.5651236" lon="10.2254718"><ele>370.0</ele><time>2026-03-22T09:00:13.236Z</time></trkpt><trkpt lat="44.5650506" lon="10.2253277"><ele>370.0</ele><time>2026-03-22T09:00:14.237Z</time></trkpt><trkpt lat="44.5650202" lon="10.2251582"><ele>370.0</ele><time>2026-03-22T09:00:15.247Z</time></trkpt><trkpt lat="44.565028" lon="10.2249653"><ele>370.0</ele><time>2026-03-22T09:00:16.397Z</time></trkpt><trkpt lat="44.5650908" lon="10.224487"><ele>372.0</ele><time>2026-03-22T09:00:18.245Z</time></trkpt><trkpt lat="44.5651434" lon="10.2242433"><ele>374.0</ele><time>2026-03-22T09:00:19.235Z</time></trkpt><trkpt lat="44.5651779" lon="10.2240123"><ele>376.0</ele><time>2026-03-22T09:00:20.239Z</time></trkpt><trkpt lat="44.5651715" lon="10.2237597"><ele>377.66666666666663</ele><time>2026-03-22T09:00:21.242Z</time></trkpt><trkpt lat="44.5651285" lon="10.2234789"><ele>379.3333333333333</ele><time>2026-03-22T09:00:22.239Z</time></trkpt><trkpt lat="44.5650694" lon="10.2232058"><ele>381.0</ele><time>2026-03-22T09:00:23.245Z</time></trkpt><trkpt lat="44.5650129" lon="10.2229495"><ele>384.33333333333337</ele><time>2026-03-22T09:00:24.243Z</time></trkpt><trkpt lat="44.5649439" lon="10.2227259"><ele>387.6666666666667</ele><time>2026-03-22T09:00:25.235Z</time></trkpt><trkpt lat="44.5648542" lon="10.222545"><ele>391.0</ele><time>2026-03-22T09:00:26.242Z</time></trkpt><trkpt lat="44.5647284" lon="10.2223974"><ele>388.6666666666667</ele><time>2026-03-22T09:00:27.226Z</time></trkpt><trkpt lat="44.5645891" lon="10.2222758"><ele>386.33333333333337</ele><time>2026-03-22T09:00:28.236Z</time></trkpt><trkpt lat="44.5644652" lon="10.2221554"><ele>384.0</ele><time>2026-03-22T09:00:29.238Z</time></trkpt><trkpt lat="44.5643412" lon="10.2220007"><ele>384.0</ele><time>2026-03-22T09:00:30.24Z</time></trkpt><trkpt lat="44.5642465" lon="10.2217938"><ele>384.0</ele><time>2026-03-22T09:00:31.241Z</time></trkpt><trkpt lat="44.5641661" lon="10.2215344"><ele>384.0</ele><time>2026-03-22T09:00:32.243Z</time></trkpt><trkpt lat="44.5640861" lon="10.2212382"><ele>388.0</ele><time>2026-03-22T09:00:33.244Z</time></trkpt><trkpt lat="44.5639874" lon="10.220964"><ele>392.0</ele><time>2026-03-22T09:00:34.244Z</time></trkpt><trkpt lat="44.5639053" lon="10.2207029"><ele>396.0</ele><time>2026-03-22T09:00:35.241Z</time></trkpt><trkpt lat="44.5638077" lon="10.2204589"><ele>399.33333333333337</ele><time>2026-03-22T09:00:36.235Z</time></trkpt><trkpt lat="44.5637363" lon="10.2202199"><ele>402.6666666666667</ele><time>2026-03-22T09:00:37.237Z</time></trkpt><trkpt lat="44.5637065" lon="10.2199952"><ele>406.0</ele><time>2026-03-22T09:00:38.251Z</time></trkpt><trkpt lat="44.5637188" lon="10.2197465"><ele>406.33333333333337</ele><time>2026-03-22T09:00:39.244Z</time></trkpt><trkpt lat="44.56376" lon="10.2194568"><ele>406.66666666666663</ele><time>2026-03-22T09:00:40.246Z</time></trkpt><trkpt lat="44.5638061" lon="10.2191923"><ele>407.0</ele><time>2026-03-22T09:00:41.244Z</time></trkpt><trkpt lat="44.5638334" lon="10.2189247"><ele>408.5</ele><time>2026-03-22T09:00:42.246Z</time></trkpt><trkpt lat="44.5638307" lon="10.218617"><ele>410.0</ele><time>2026-03-22T09:00:43.242Z</time></trkpt><trkpt lat="44.5637667" lon="10.2182756"><ele>413.0</ele><time>2026-03-22T09:00:44.246Z</time></trkpt><trkpt lat="44.563703" lon="10.2179385"><ele>416.0</ele><time>2026-03-22T09:00:45.242Z</time></trkpt><trkpt lat="44.5636536" lon="10.2176107"><ele>403.5</ele><time>2026-03-22T09:00:46.243Z</time></trkpt><trkpt lat="44.5635864" lon="10.217292"><ele>391.0</ele><time>2026-03-22T09:00:47.241Z</time></trkpt><trkpt lat="44.5635299" lon="10.216975"><ele>391.0</ele><time>2026-03-22T09:00:48.243Z</time></trkpt><trkpt lat="44.5634483" lon="10.2166499"><ele>391.0</ele><time>2026-03-22T09:00:49.236Z</time></trkpt><trkpt lat="44.5633368" lon="10.2163483"><ele>392.5</ele><time>2026-03-22T09:00:50.238Z</time></trkpt><trkpt lat="44.5632168" lon="10.2160707"><ele>394.0</ele><time>2026-03-22T09:00:51.255Z</time></trkpt><trkpt lat="44.5630882" lon="10.2158175"><ele>395.6666666666667</ele><time>2026-03-22T09:00:52.243Z</time></trkpt><trkpt lat="44.5629699" lon="10.2155958"><ele>397.33333333333337</ele><time>2026-03-22T09:00:53.239Z</time></trkpt><trkpt lat="44.5628979" lon="10.215396"><ele>399.0</ele><time>2026-03-22T09:00:54.239Z</time></trkpt><trkpt lat="44.5628727" lon="10.2152085"><ele>400.0</ele><time>2026-03-22T09:00:55.239Z</time></trkpt><trkpt lat="44.5628289" lon="10.2150077"><ele>401.0</ele><time>2026-03-22T09:00:56.246Z</time></trkpt><trkpt lat="44.5628321" lon="10.2147839"><ele>402.0</ele><time>2026-03-22T09:00:57.246Z</time></trkpt><trkpt lat="44.5628656" lon="10.214524"><ele>402.0</ele><time>2026-03-22T09:00:58.246Z</time></trkpt><trkpt lat="44.5628839" lon="10.2142566"><ele>402.0</ele><time>2026-03-22T09:00:59.251Z</time></trkpt><trkpt lat="44.5629254" lon="10.2139731"><ele>402.0</ele><time>2026-03-22T09:01:00.243Z</time></trkpt><trkpt lat="44.5629438" lon="10.2137039"><ele>400.33333333333337</ele><time>2026-03-22T09:01:01.235Z</time></trkpt><trkpt lat="44.5629074" lon="10.2134472"><ele>398.6666666666667</ele><time>2026-03-22T09:01:02.238Z</time></trkpt><trkpt lat="44.5628841" lon="10.2132176"><ele>397.0</ele><time>2026-03-22T09:01:03.245Z</time></trkpt><trkpt lat="44.5628176" lon="10.212993"><ele>396.0</ele><time>2026-03-22T09:01:04.238Z</time></trkpt><trkpt lat="44.562752" lon="10.2127838"><ele>395.0</ele><time>2026-03-22T09:01:05.24Z</time></trkpt><trkpt lat="44.5626851" lon="10.2126212"><ele>394.0</ele><time>2026-03-22T09:01:06.236Z</time></trkpt><trkpt lat="44.5625957" lon="10.2124686"><ele>393.0</ele><time>2026-03-22T09:01:07.245Z</time></trkpt><trkpt lat="44.5625252" lon="10.212328"><ele>397.0</ele><time>2026-03-22T09:01:08.247Z</time></trkpt><trkpt lat="44.562426" lon="10.212205"><ele>401.0</ele><time>2026-03-22T09:01:09.241Z</time></trkpt><trkpt lat="44.5623241" lon="10.2120906"><ele>405.0</ele><time>2026-03-22T09:01:10.232Z</time></trkpt><trkpt lat="44.5622183" lon="10.2119672"><ele>409.0</ele><time>2026-03-22T09:01:11.24Z</time></trkpt><trkpt lat="44.5621179" lon="10.211829"><ele>405.0</ele><time>2026-03-22T09:01:12.247Z</time></trkpt><trkpt lat="44.5620271" lon="10.2116962"><ele>401.0</ele><time>2026-03-22T09:01:13.243Z</time></trkpt><trkpt lat="44.5619541" lon="10.2115561"><ele>397.0</ele><time>2026-03-22T09:01:14.244Z</time></trkpt><trkpt lat="44.5618871" lon="10.2113904"><ele>393.0</ele><time>2026-03-22T09:01:15.248Z</time></trkpt><trkpt lat="44.5618406" lon="10.2111935"><ele>393.0</ele><time>2026-03-22T09:01:16.242Z</time></trkpt><trkpt lat="44.5618439" lon="10.2109605"><ele>393.0</ele><time>2026-03-22T09:01:17.253Z</time></trkpt><trkpt lat="44.5618458" lon="10.2107334"><ele>393.0</ele><time>2026-03-22T09:01:18.246Z</time></trkpt><trkpt lat="44.5618263" lon="10.2105255"><ele>395.5</ele><time>2026-03-22T09:01:19.245Z</time></trkpt><trkpt lat="44.5617885" lon="10.2103328"><ele>398.0</ele><time>2026-03-22T09:01:20.251Z</time></trkpt><trkpt lat="44.5617296" lon="10.2101365"><ele>400.5</ele><time>2026-03-22T09:01:21.247Z</time></trkpt><trkpt lat="44.5616613" lon="10.2099411"><ele>403.0</ele><time>2026-03-22T09:01:22.248Z</time></trkpt><trkpt lat="44.5615805" lon="10.2097286"><ele>408.5</ele><time>2026-03-22T09:01:23.246Z</time></trkpt><trkpt lat="44.5614577" lon="10.2094753"><ele>414.0</ele><time>2026-03-22T09:01:24.246Z</time></trkpt><trkpt lat="44.5613215" lon="10.2092106"><ele>408.0</ele><time>2026-03-22T09:01:25.247Z</time></trkpt><trkpt lat="44.5611869" lon="10.208947"><ele>402.0</ele><time>2026-03-22T09:01:26.246Z</time></trkpt><trkpt lat="44.5610383" lon="10.2086494"><ele>402.0</ele><time>2026-03-22T09:01:27.246Z</time></trkpt><trkpt lat="44.5608833" lon="10.208367"><ele>402.0</ele><time>2026-03-22T09:01:28.248Z</time></trkpt><trkpt lat="44.5607305" lon="10.2081092"><ele>408.5</ele><time>2026-03-22T09:01:29.25Z</time></trkpt><trkpt lat="44.5605846" lon="10.2078509"><ele>415.0</ele><time>2026-03-22T09:01:30.246Z</time></trkpt><trkpt lat="44.560433" lon="10.2076195"><ele>414.0</ele><time>2026-03-22T09:01:31.24Z</time></trkpt><trkpt lat="44.5603086" lon="10.2073792"><ele>413.0</ele><time>2026-03-22T09:01:32.247Z</time></trkpt><trkpt lat="44.5601918" lon="10.2071347"><ele>412.0</ele><time>2026-03-22T09:01:33.236Z</time></trkpt><trkpt lat="44.5601074" lon="10.2068862"><ele>412.0</ele><time>2026-03-22T09:01:34.253Z</time></trkpt><trkpt lat="44.5600433" lon="10.2066076"><ele>412.0</ele><time>2026-03-22T09:01:35.253Z</time></trkpt><trkpt lat="44.5599989" lon="10.2063004"><ele>412.0</ele><time>2026-03-22T09:01:36.245Z</time></trkpt><trkpt lat="44.5599553" lon="10.2059576"><ele>416.5</ele><time>2026-03-22T09:01:37.253Z</time></trkpt><trkpt lat="44.5599112" lon="10.2055913"><ele>421.0</ele><time>2026-03-22T09:01:38.247Z</time></trkpt><trkpt lat="44.5598488" lon="10.2052424"><ele>421.0</ele><time>2026-03-22T09:01:39.249Z</time></trkpt><trkpt lat="44.5597878" lon="10.2049196"><ele>421.0</ele><time>2026-03-22T09:01:40.247Z</time></trkpt><trkpt lat="44.5597317" lon="10.2046012"><ele>422.33333333333337</ele><time>2026-03-22T09:01:41.25Z</time></trkpt><trkpt lat="44.5596888" lon="10.2043047"><ele>423.66666666666663</ele><time>2026-03-22T09:01:42.251Z</time></trkpt><trkpt lat="44.5596484" lon="10.2040112"><ele>425.0</ele><time>2026-03-22T09:01:43.251Z</time></trkpt><trkpt lat="44.5596164" lon="10.2036974"><ele>429.5</ele><time>2026-03-22T09:01:44.26Z</time></trkpt><trkpt lat="44.5595895" lon="10.2033795"><ele>434.0</ele><time>2026-03-22T09:01:45.243Z</time></trkpt><trkpt lat="44.5595912" lon="10.2030461"><ele>435.5</ele><time>2026-03-22T09:01:46.255Z</time></trkpt><trkpt lat="44.5596363" lon="10.2027313"><ele>437.0</ele><time>2026-03-22T09:01:47.243Z</time></trkpt><trkpt lat="44.5596902" lon="10.2024234"><ele>437.66666666666663</ele><time>2026-03-22T09:01:48.253Z</time></trkpt><trkpt lat="44.5597484" lon="10.2021258"><ele>438.33333333333337</ele><time>2026-03-22T09:01:49.236Z</time></trkpt><trkpt lat="44.5597724" lon="10.2018427"><ele>439.0</ele><time>2026-03-22T09:01:50.241Z</time></trkpt><trkpt lat="44.5597848" lon="10.2015864"><ele>440.0</ele><time>2026-03-22T09:01:51.245Z</time></trkpt><trkpt lat="44.5597641" lon="10.2013442"><ele>441.0</ele><time>2026-03-22T09:01:52.249Z</time></trkpt><trkpt lat="44.5596972" lon="10.2011103"><ele>442.0</ele><time>2026-03-22T09:01:53.24Z</time></trkpt><trkpt lat="44.5596196" lon="10.2008756"><ele>436.6666666666667</ele><time>2026-03-22T09:01:54.248Z</time></trkpt><trkpt lat="44.5595087" lon="10.2006706"><ele>431.33333333333337</ele><time>2026-03-22T09:01:55.25Z</time></trkpt><trkpt lat="44.5593699" lon="10.2004743"><ele>426.0</ele><time>2026-03-22T09:01:56.248Z</time></trkpt><trkpt lat="44.5592159" lon="10.2002716"><ele>426.0</ele><time>2026-03-22T09:01:57.247Z</time></trkpt><trkpt lat="44.5591013" lon="10.2000503"><ele>426.0</ele><time>2026-03-22T09:01:58.251Z</time></trkpt><trkpt lat="44.5590254" lon="10.1998331"><ele>426.0</ele><time>2026-03-22T09:01:59.243Z</time></trkpt><trkpt lat="44.5589558" lon="10.1995963"><ele>428.0</ele><time>2026-03-22T09:02:00.253Z</time></trkpt><trkpt lat="44.5589245" lon="10.1993423"><ele>430.0</ele><time>2026-03-22T09:02:01.255Z</time></trkpt><trkpt lat="44.5589131" lon="10.1991091"><ele>432.0</ele><time>2026-03-22T09:02:02.239Z</time></trkpt><trkpt lat="44.5588428" lon="10.1988857"><ele>434.33333333333337</ele><time>2026-03-22T09:02:03.266Z</time></trkpt><trkpt lat="44.5587278" lon="10.1986542"><ele>436.6666666666667</ele><time>2026-03-22T09:02:04.244Z</time></trkpt><trkpt lat="44.5585889" lon="10.1984337"><ele>439.0</ele><time>2026-03-22T09:02:05.249Z</time></trkpt><trkpt lat="44.5584643" lon="10.1982188"><ele>435.6666666666667</ele><time>2026-03-22T09:02:06.247Z</time></trkpt><trkpt lat="44.5583538" lon="10.1980044"><ele>432.33333333333337</ele><time>2026-03-22T09:02:07.245Z</time></trkpt><trkpt lat="44.5582581" lon="10.1977932"><ele>429.0</ele><time>2026-03-22T09:02:08.248Z</time></trkpt><trkpt lat="44.558185" lon="10.1976162"><ele>429.0</ele><time>2026-03-22T09:02:09.242Z</time></trkpt><trkpt lat="44.5581281" lon="10.1974194"><ele>429.0</ele><time>2026-03-22T09:02:10.241Z</time></trkpt><trkpt lat="44.5581101" lon="10.1972236"><ele>429.0</ele><time>2026-03-22T09:02:11.239Z</time></trkpt><trkpt lat="44.5581291" lon="10.1970486"><ele>429.0</ele><time>2026-03-22T09:02:12.239Z</time></trkpt><trkpt lat="44.5581741" lon="10.1968609"><ele>430.0</ele><time>2026-03-22T09:02:13.247Z</time></trkpt><trkpt lat="44.5582582" lon="10.1966815"><ele>431.0</ele><time>2026-03-22T09:02:14.237Z</time></trkpt><trkpt lat="44.5583749" lon="10.1965248"><ele>432.0</ele><time>2026-03-22T09:02:15.248Z</time></trkpt><trkpt lat="44.5585201" lon="10.1963691"><ele>428.66666666666663</ele><time>2026-03-22T09:02:16.245Z</time></trkpt><trkpt lat="44.5586456" lon="10.1961786"><ele>425.3333333333333</ele><time>2026-03-22T09:02:17.242Z</time></trkpt><trkpt lat="44.5587791" lon="10.1960006"><ele>422.0</ele><time>2026-03-22T09:02:18.248Z</time></trkpt><trkpt lat="44.5588692" lon="10.1958071"><ele>427.3333333333333</ele><time>2026-03-22T09:02:19.251Z</time></trkpt><trkpt lat="44.5589493" lon="10.195584"><ele>432.66666666666663</ele><time>2026-03-22T09:02:20.242Z</time></trkpt><trkpt lat="44.5589854" lon="10.1953396"><ele>438.0</ele><time>2026-03-22T09:02:21.237Z</time></trkpt><trkpt lat="44.5589653" lon="10.1950795"><ele>435.66666666666663</ele><time>2026-03-22T09:02:22.234Z</time></trkpt><trkpt lat="44.5589338" lon="10.1948089"><ele>433.3333333333333</ele><time>2026-03-22T09:02:23.228Z</time></trkpt><trkpt lat="44.5588947" lon="10.1945574"><ele>431.0</ele><time>2026-03-22T09:02:24.227Z</time></trkpt><trkpt lat="44.5588575" lon="10.194342"><ele>431.0</ele><time>2026-03-22T09:02:25.233Z</time></trkpt><trkpt lat="44.5587883" lon="10.1941467"><ele>431.0</ele><time>2026-03-22T09:02:26.235Z</time></trkpt><trkpt lat="44.5587032" lon="10.1939927"><ele>431.0</ele><time>2026-03-22T09:02:27.239Z</time></trkpt><trkpt lat="44.5585821" lon="10.1938779"><ele>431.0</ele><time>2026-03-22T09:02:28.246Z</time></trkpt><trkpt lat="44.5584239" lon="10.193766"><ele>434.66666666666663</ele><time>2026-03-22T09:02:29.235Z</time></trkpt><trkpt lat="44.5582586" lon="10.1936815"><ele>438.33333333333337</ele><time>2026-03-22T09:02:30.227Z</time></trkpt><trkpt lat="44.5580719" lon="10.1936284"><ele>442.0</ele><time>2026-03-22T09:02:31.235Z</time></trkpt><trkpt lat="44.5579121" lon="10.1936462"><ele>437.5</ele><time>2026-03-22T09:02:32.23Z</time></trkpt><trkpt lat="44.5577621" lon="10.1936421"><ele>433.0</ele><time>2026-03-22T09:02:33.242Z</time></trkpt><trkpt lat="44.557636" lon="10.1936072"><ele>428.5</ele><time>2026-03-22T09:02:34.231Z</time></trkpt><trkpt lat="44.557516" lon="10.1935197"><ele>424.0</ele><time>2026-03-22T09:02:35.236Z</time></trkpt><trkpt lat="44.5574284" lon="10.1933838"><ele>424.0</ele><time>2026-03-22T09:02:36.247Z</time></trkpt><trkpt lat="44.557364" lon="10.1931951"><ele>424.0</ele><time>2026-03-22T09:02:37.227Z</time></trkpt><trkpt lat="44.5573162" lon="10.1929515"><ele>424.0</ele><time>2026-03-22T09:02:38.226Z</time></trkpt><trkpt lat="44.557285" lon="10.1926935"><ele>428.6666666666667</ele><time>2026-03-22T09:02:39.239Z</time></trkpt><trkpt lat="44.5572656" lon="10.1924252"><ele>433.33333333333337</ele><time>2026-03-22T09:02:40.235Z</time></trkpt><trkpt lat="44.5572049" lon="10.1921712"><ele>438.0</ele><time>2026-03-22T09:02:41.234Z</time></trkpt><trkpt lat="44.5571077" lon="10.1918925"><ele>432.5</ele><time>2026-03-22T09:02:42.233Z</time></trkpt><trkpt lat="44.5569719" lon="10.1916031"><ele>427.0</ele><time>2026-03-22T09:02:43.242Z</time></trkpt><trkpt lat="44.5568094" lon="10.1912991"><ele>427.0</ele><time>2026-03-22T09:02:44.239Z</time></trkpt><trkpt lat="44.556647" lon="10.1909799"><ele>427.0</ele><time>2026-03-22T09:02:45.237Z</time></trkpt><trkpt lat="44.5564704" lon="10.1906935"><ele>422.5</ele><time>2026-03-22T09:02:46.235Z</time></trkpt><trkpt lat="44.5563299" lon="10.1904263"><ele>418.0</ele><time>2026-03-22T09:02:47.233Z</time></trkpt><trkpt lat="44.5562021" lon="10.1901811"><ele>418.0</ele><time>2026-03-22T09:02:48.22Z</time></trkpt><trkpt lat="44.5560869" lon="10.1899486"><ele>418.0</ele><time>2026-03-22T09:02:49.23Z</time></trkpt><trkpt lat="44.5559554" lon="10.1897323"><ele>418.0</ele><time>2026-03-22T09:02:50.244Z</time></trkpt><trkpt lat="44.5558038" lon="10.1895365"><ele>422.6666666666667</ele><time>2026-03-22T09:02:51.236Z</time></trkpt><trkpt lat="44.5556432" lon="10.1893539"><ele>427.33333333333337</ele><time>2026-03-22T09:02:52.24Z</time></trkpt><trkpt lat="44.5554957" lon="10.1891414"><ele>432.0</ele><time>2026-03-22T09:02:53.243Z</time></trkpt><trkpt lat="44.5553739" lon="10.1888717"><ele>427.5</ele><time>2026-03-22T09:02:54.243Z</time></trkpt><trkpt lat="44.55525" lon="10.1885805"><ele>423.0</ele><time>2026-03-22T09:02:55.242Z</time></trkpt><trkpt lat="44.5551299" lon="10.1882973"><ele>430.0</ele><time>2026-03-22T09:02:56.242Z</time></trkpt><trkpt lat="44.555016" lon="10.1879984"><ele>437.0</ele><time>2026-03-22T09:02:57.237Z</time></trkpt><trkpt lat="44.5549126" lon="10.1876968"><ele>437.0</ele><time>2026-03-22T09:02:58.234Z</time></trkpt><trkpt lat="44.5548341" lon="10.1873934"><ele>437.0</ele><time>2026-03-22T09:02:59.234Z</time></trkpt><trkpt lat="44.5547304" lon="10.1871225"><ele>437.0</ele><time>2026-03-22T09:03:00.245Z</time></trkpt><trkpt lat="44.5546404" lon="10.186842"><ele>442.5</ele><time>2026-03-22T09:03:01.238Z</time></trkpt><trkpt lat="44.5545845" lon="10.1865329"><ele>448.0</ele><time>2026-03-22T09:03:02.231Z</time></trkpt><trkpt lat="44.5545451" lon="10.1862231"><ele>441.6666666666667</ele><time>2026-03-22T09:03:03.24Z</time></trkpt><trkpt lat="44.5545244" lon="10.1859212"><ele>435.33333333333337</ele><time>2026-03-22T09:03:04.233Z</time></trkpt><trkpt lat="44.554505" lon="10.1856764"><ele>429.0</ele><time>2026-03-22T09:03:05.246Z</time></trkpt><trkpt lat="44.5544486" lon="10.1854595"><ele>429.0</ele><time>2026-03-22T09:03:06.245Z</time></trkpt><trkpt lat="44.5544076" lon="10.18527"><ele>429.0</ele><time>2026-03-22T09:03:07.244Z</time></trkpt><trkpt lat="44.5543532" lon="10.1850945"><ele>429.0</ele><time>2026-03-22T09:03:08.243Z</time></trkpt><trkpt lat="44.5543032" lon="10.1849634"><ele>429.0</ele><time>2026-03-22T09:03:09.248Z</time></trkpt><trkpt lat="44.55422" lon="10.1848642"><ele>429.0</ele><time>2026-03-22T09:03:10.259Z</time></trkpt><trkpt lat="44.5541286" lon="10.1848045"><ele>429.0</ele><time>2026-03-22T09:03:11.257Z</time></trkpt><trkpt lat="44.5539945" lon="10.184808"><ele>429.0</ele><time>2026-03-22T09:03:12.264Z</time></trkpt><trkpt lat="44.5538226" lon="10.1848577"><ele>429.0</ele><time>2026-03-22T09:03:13.252Z</time></trkpt><trkpt lat="44.5536245" lon="10.1849061"><ele>428.33333333333337</ele><time>2026-03-22T09:03:14.263Z</time></trkpt><trkpt lat="44.5534103" lon="10.1849721"><ele>427.6666666666667</ele><time>2026-03-22T09:03:15.256Z</time></trkpt><trkpt lat="44.5531933" lon="10.1850299"><ele>427.0</ele><time>2026-03-22T09:03:16.252Z</time></trkpt><trkpt lat="44.5529668" lon="10.1850814"><ele>427.6666666666667</ele><time>2026-03-22T09:03:17.252Z</time></trkpt><trkpt lat="44.552778" lon="10.1851401"><ele>428.33333333333337</ele><time>2026-03-22T09:03:18.258Z</time></trkpt><trkpt lat="44.5526006" lon="10.1851843"><ele>429.0</ele><time>2026-03-22T09:03:19.26Z</time></trkpt><trkpt lat="44.5524262" lon="10.1852338"><ele>429.0</ele><time>2026-03-22T09:03:20.257Z</time></trkpt><trkpt lat="44.5522659" lon="10.1852757"><ele>429.0</ele><time>2026-03-22T09:03:21.262Z</time></trkpt><trkpt lat="44.5521056" lon="10.1852799"><ele>429.0</ele><time>2026-03-22T09:03:22.263Z</time></trkpt><trkpt lat="44.5519409" lon="10.1852229"><ele>428.0</ele><time>2026-03-22T09:03:23.269Z</time></trkpt><trkpt lat="44.5517603" lon="10.1851251"><ele>427.0</ele><time>2026-03-22T09:03:24.266Z</time></trkpt><trkpt lat="44.5516113" lon="10.1849745"><ele>426.0</ele><time>2026-03-22T09:03:25.263Z</time></trkpt><trkpt lat="44.5514931" lon="10.1847996"><ele>428.33333333333337</ele><time>2026-03-22T09:03:26.262Z</time></trkpt><trkpt lat="44.5514027" lon="10.1845992"><ele>430.6666666666667</ele><time>2026-03-22T09:03:27.257Z</time></trkpt><trkpt lat="44.5513342" lon="10.1843887"><ele>433.0</ele><time>2026-03-22T09:03:28.26Z</time></trkpt><trkpt lat="44.5513023" lon="10.1841683"><ele>435.33333333333337</ele><time>2026-03-22T09:03:29.251Z</time></trkpt><trkpt lat="44.551298" lon="10.1839404"><ele>437.66666666666663</ele><time>2026-03-22T09:03:30.255Z</time></trkpt><trkpt lat="44.5512926" lon="10.1837136"><ele>440.0</ele><time>2026-03-22T09:03:31.257Z</time></trkpt><trkpt lat="44.5512976" lon="10.1834843"><ele>440.0</ele><time>2026-03-22T09:03:32.257Z</time></trkpt><trkpt lat="44.5512822" lon="10.1832753"><ele>440.0</ele><time>2026-03-22T09:03:33.263Z</time></trkpt><trkpt lat="44.5512687" lon="10.1830448"><ele>440.0</ele><time>2026-03-22T09:03:34.257Z</time></trkpt><trkpt lat="44.5512114" lon="10.182806"><ele>441.3333333333333</ele><time>2026-03-22T09:03:35.266Z</time></trkpt><trkpt lat="44.5511089" lon="10.1825872"><ele>442.66666666666663</ele><time>2026-03-22T09:03:36.26Z</time></trkpt><trkpt lat="44.5509706" lon="10.1824013"><ele>444.0</ele><time>2026-03-22T09:03:37.27Z</time></trkpt><trkpt lat="44.5507966" lon="10.1822473"><ele>444.0</ele><time>2026-03-22T09:03:38.268Z</time></trkpt><trkpt lat="44.5505953" lon="10.1821384"><ele>444.0</ele><time>2026-03-22T09:03:39.268Z</time></trkpt><trkpt lat="44.5503875" lon="10.1820511"><ele>444.0</ele><time>2026-03-22T09:03:40.263Z</time></trkpt><trkpt lat="44.5501835" lon="10.1819433"><ele>442.0</ele><time>2026-03-22T09:03:41.259Z</time></trkpt><trkpt lat="44.5499637" lon="10.1818316"><ele>440.0</ele><time>2026-03-22T09:03:42.259Z</time></trkpt><trkpt lat="44.5497369" lon="10.1817272"><ele>441.0</ele><time>2026-03-22T09:03:43.258Z</time></trkpt><trkpt lat="44.5495262" lon="10.1816211"><ele>442.0</ele><time>2026-03-22T09:03:44.263Z</time></trkpt><trkpt lat="44.5493304" lon="10.181524"><ele>443.0</ele><time>2026-03-22T09:03:45.256Z</time></trkpt><trkpt lat="44.5491312" lon="10.1814226"><ele>443.0</ele><time>2026-03-22T09:03:46.259Z</time></trkpt><trkpt lat="44.5489374" lon="10.1813069"><ele>443.0</ele><time>2026-03-22T09:03:47.261Z</time></trkpt><trkpt lat="44.5487489" lon="10.1811441"><ele>443.0</ele><time>2026-03-22T09:03:48.258Z</time></trkpt><trkpt lat="44.548547" lon="10.1809395"><ele>442.5</ele><time>2026-03-22T09:03:49.256Z</time></trkpt><trkpt lat="44.548329" lon="10.1807399"><ele>442.0</ele><time>2026-03-22T09:03:50.258Z</time></trkpt><trkpt lat="44.548108" lon="10.1805415"><ele>444.33333333333337</ele><time>2026-03-22T09:03:51.274Z</time></trkpt><trkpt lat="44.5479191" lon="10.1803775"><ele>446.66666666666663</ele><time>2026-03-22T09:03:52.273Z</time></trkpt><trkpt lat="44.5477442" lon="10.1802197"><ele>449.0</ele><time>2026-03-22T09:03:53.267Z</time></trkpt><trkpt lat="44.5475819" lon="10.1800468"><ele>449.0</ele><time>2026-03-22T09:03:54.267Z</time></trkpt><trkpt lat="44.5474561" lon="10.1798639"><ele>449.0</ele><time>2026-03-22T09:03:55.264Z</time></trkpt><trkpt lat="44.5473379" lon="10.1796632"><ele>449.0</ele><time>2026-03-22T09:03:56.261Z</time></trkpt><trkpt lat="44.5472336" lon="10.1794569"><ele>448.0</ele><time>2026-03-22T09:03:57.262Z</time></trkpt><trkpt lat="44.5471293" lon="10.1792122"><ele>447.0</ele><time>2026-03-22T09:03:58.257Z</time></trkpt><trkpt lat="44.5470646" lon="10.1789493"><ele>446.0</ele><time>2026-03-22T09:03:59.261Z</time></trkpt><trkpt lat="44.54703" lon="10.1786706"><ele>446.0</ele><time>2026-03-22T09:04:00.267Z</time></trkpt><trkpt lat="44.5470082" lon="10.1783873"><ele>446.0</ele><time>2026-03-22T09:04:01.264Z</time></trkpt><trkpt lat="44.5469987" lon="10.1781036"><ele>446.0</ele><time>2026-03-22T09:04:02.258Z</time></trkpt><trkpt lat="44.5470145" lon="10.1778228"><ele>447.3333333333333</ele><time>2026-03-22T09:04:03.256Z</time></trkpt><trkpt lat="44.5470756" lon="10.1775618"><ele>448.66666666666663</ele><time>2026-03-22T09:04:04.262Z</time></trkpt><trkpt lat="44.5471548" lon="10.1772825"><ele>450.0</ele><time>2026-03-22T09:04:05.26Z</time></trkpt><trkpt lat="44.54724" lon="10.1769674"><ele>450.0</ele><time>2026-03-22T09:04:06.258Z</time></trkpt><trkpt lat="44.547347" lon="10.1766481"><ele>450.0</ele><time>2026-03-22T09:04:07.258Z</time></trkpt><trkpt lat="44.5474116" lon="10.1763162"><ele>450.0</ele><time>2026-03-22T09:04:08.253Z</time></trkpt><trkpt lat="44.5474487" lon="10.1759697"><ele>450.0</ele><time>2026-03-22T09:04:09.255Z</time></trkpt><trkpt lat="44.5474659" lon="10.1756041"><ele>450.0</ele><time>2026-03-22T09:04:10.258Z</time></trkpt><trkpt lat="44.5474834" lon="10.1752703"><ele>450.0</ele><time>2026-03-22T09:04:11.256Z</time></trkpt><trkpt lat="44.5474889" lon="10.1749619"><ele>450.0</ele><time>2026-03-22T09:04:12.264Z</time></trkpt><trkpt lat="44.5474814" lon="10.174672"><ele>450.0</ele><time>2026-03-22T09:04:13.259Z</time></trkpt><trkpt lat="44.5474821" lon="10.1744182"><ele>450.0</ele><time>2026-03-22T09:04:14.265Z</time></trkpt><trkpt lat="44.5474266" lon="10.1741863"><ele>451.66666666666663</ele><time>2026-03-22T09:04:15.27Z</time></trkpt><trkpt lat="44.5473409" lon="10.1739858"><ele>453.3333333333333</ele><time>2026-03-22T09:04:16.266Z</time></trkpt><trkpt lat="44.5472192" lon="10.1738034"><ele>455.0</ele><time>2026-03-22T09:04:17.259Z</time></trkpt><trkpt lat="44.5470789" lon="10.1736187"><ele>452.66666666666663</ele><time>2026-03-22T09:04:18.268Z</time></trkpt><trkpt lat="44.5469221" lon="10.1734131"><ele>450.33333333333337</ele><time>2026-03-22T09:04:19.265Z</time></trkpt><trkpt lat="44.546788" lon="10.1731597"><ele>448.0</ele><time>2026-03-22T09:04:20.257Z</time></trkpt><trkpt lat="44.546678" lon="10.172869"><ele>448.0</ele><time>2026-03-22T09:04:21.26Z</time></trkpt><trkpt lat="44.5465694" lon="10.1725599"><ele>448.0</ele><time>2026-03-22T09:04:22.263Z</time></trkpt><trkpt lat="44.546464" lon="10.1722749"><ele>447.33333333333337</ele><time>2026-03-22T09:04:23.26Z</time></trkpt><trkpt lat="44.5463775" lon="10.1720169"><ele>446.66666666666663</ele><time>2026-03-22T09:04:24.268Z</time></trkpt><trkpt lat="44.5462823" lon="10.1717662"><ele>446.0</ele><time>2026-03-22T09:04:25.263Z</time></trkpt><trkpt lat="44.5461886" lon="10.1715469"><ele>448.3333333333333</ele><time>2026-03-22T09:04:26.263Z</time></trkpt><trkpt lat="44.5460676" lon="10.1713662"><ele>450.66666666666663</ele><time>2026-03-22T09:04:27.274Z</time></trkpt><trkpt lat="44.5459294" lon="10.1712358"><ele>453.0</ele><time>2026-03-22T09:04:28.263Z</time></trkpt><trkpt lat="44.5457865" lon="10.1711588"><ele>453.0</ele><time>2026-03-22T09:04:29.271Z</time></trkpt><trkpt lat="44.5456296" lon="10.1711339"><ele>453.0</ele><time>2026-03-22T09:04:30.272Z</time></trkpt><trkpt lat="44.5454682" lon="10.1711085"><ele>453.0</ele><time>2026-03-22T09:04:31.263Z</time></trkpt><trkpt lat="44.5453151" lon="10.1710884"><ele>453.75</ele><time>2026-03-22T09:04:32.266Z</time></trkpt><trkpt lat="44.5451584" lon="10.1710667"><ele>454.5</ele><time>2026-03-22T09:04:33.264Z</time></trkpt><trkpt lat="44.54502" lon="10.1710151"><ele>455.25</ele><time>2026-03-22T09:04:34.258Z</time></trkpt><trkpt lat="44.5448872" lon="10.1709304"><ele>456.0</ele><time>2026-03-22T09:04:35.266Z</time></trkpt><trkpt lat="44.5447624" lon="10.1708181"><ele>457.0</ele><time>2026-03-22T09:04:36.258Z</time></trkpt><trkpt lat="44.5446364" lon="10.1706651"><ele>458.0</ele><time>2026-03-22T09:04:37.255Z</time></trkpt><trkpt lat="44.5445146" lon="10.1705728"><ele>459.0</ele><time>2026-03-22T09:04:38.258Z</time></trkpt><trkpt lat="44.5443827" lon="10.1704584"><ele>459.0</ele><time>2026-03-22T09:04:39.265Z</time></trkpt><trkpt lat="44.5442624" lon="10.1703505"><ele>459.0</ele><time>2026-03-22T09:04:40.262Z</time></trkpt><trkpt lat="44.5441586" lon="10.1702486"><ele>459.0</ele><time>2026-03-22T09:04:41.262Z</time></trkpt><trkpt lat="44.5440466" lon="10.1701433"><ele>459.0</ele><time>2026-03-22T09:04:42.251Z</time></trkpt><trkpt lat="44.543931" lon="10.1700794"><ele>459.0</ele><time>2026-03-22T09:04:43.25Z</time></trkpt><trkpt lat="44.5438027" lon="10.1700471"><ele>459.0</ele><time>2026-03-22T09:04:44.254Z</time></trkpt><trkpt lat="44.543657" lon="10.1700489"><ele>459.0</ele><time>2026-03-22T09:04:45.251Z</time></trkpt><trkpt lat="44.5435057" lon="10.1700622"><ele>459.0</ele><time>2026-03-22T09:04:46.256Z</time></trkpt><trkpt lat="44.5433784" lon="10.1700381"><ele>459.0</ele><time>2026-03-22T09:04:47.255Z</time></trkpt><trkpt lat="44.5432563" lon="10.1700044"><ele>459.0</ele><time>2026-03-22T09:04:48.259Z</time></trkpt><trkpt lat="44.5431389" lon="10.1699776"><ele>459.0</ele><time>2026-03-22T09:04:49.256Z</time></trkpt><trkpt lat="44.5430155" lon="10.1699521"><ele>459.0</ele><time>2026-03-22T09:04:50.259Z</time></trkpt><trkpt lat="44.5428956" lon="10.1699193"><ele>458.75</ele><time>2026-03-22T09:04:51.265Z</time></trkpt><trkpt lat="44.5427721" lon="10.1699038"><ele>458.5</ele><time>2026-03-22T09:04:52.263Z</time></trkpt><trkpt lat="44.5426487" lon="10.1698767"><ele>458.25</ele><time>2026-03-22T09:04:53.263Z</time></trkpt><trkpt lat="44.5425207" lon="10.1698435"><ele>458.0</ele><time>2026-03-22T09:04:54.264Z</time></trkpt><trkpt lat="44.5423938" lon="10.1698187"><ele>459.8333333333333</ele><time>2026-03-22T09:04:55.261Z</time></trkpt><trkpt lat="44.5422761" lon="10.1697979"><ele>461.66666666666663</ele><time>2026-03-22T09:04:56.264Z</time></trkpt><trkpt lat="44.5421795" lon="10.1697829"><ele>463.5</ele><time>2026-03-22T09:04:57.258Z</time></trkpt><trkpt lat="44.5421166" lon="10.1697786"><ele>465.33333333333337</ele><time>2026-03-22T09:04:58.253Z</time></trkpt><trkpt lat="44.5420524" lon="10.169779"><ele>467.1666666666667</ele><time>2026-03-22T09:05:00.245Z</time></trkpt><trkpt lat="44.5419873" lon="10.1697758"><ele>469.0</ele><time>2026-03-22T09:05:03.255Z</time></trkpt><trkpt lat="44.5419155" lon="10.1697874"><ele>469.0</ele><time>2026-03-22T09:05:05.258Z</time></trkpt><trkpt lat="44.5417921" lon="10.1697947"><ele>469.0</ele><time>2026-03-22T09:05:07.259Z</time></trkpt><trkpt lat="44.5416662" lon="10.1697983"><ele>469.0</ele><time>2026-03-22T09:05:09.254Z</time></trkpt><trkpt lat="44.5415961" lon="10.1698045"><ele>469.0</ele><time>2026-03-22T09:05:10.261Z</time></trkpt><trkpt lat="44.5415291" lon="10.1698082"><ele>469.0</ele><time>2026-03-22T09:05:11.249Z</time></trkpt><trkpt lat="44.5414573" lon="10.1698141"><ele>469.00000000000006</ele><time>2026-03-22T09:05:12.254Z</time></trkpt><trkpt lat="44.5413898" lon="10.169826"><ele>469.0</ele><time>2026-03-22T09:05:13.244Z</time></trkpt><trkpt lat="44.5413249" lon="10.1698241"><ele>469.0</ele><time>2026-03-22T09:05:14.252Z</time></trkpt><trkpt lat="44.5412579" lon="10.1698128"><ele>469.0</ele><time>2026-03-22T09:05:15.243Z</time></trkpt><trkpt lat="44.5411982" lon="10.1697702"><ele>469.00000000000006</ele><time>2026-03-22T09:05:16.243Z</time></trkpt><trkpt lat="44.5411545" lon="10.1697016"><ele>469.0</ele><time>2026-03-22T09:05:17.242Z</time></trkpt><trkpt lat="44.541099" lon="10.1695409"><ele>468.6666666666667</ele><time>2026-03-22T09:05:19.24Z</time></trkpt><trkpt lat="44.541086" lon="10.1694431"><ele>468.33333333333337</ele><time>2026-03-22T09:05:20.24Z</time></trkpt><trkpt lat="44.5410825" lon="10.1693442"><ele>468.0</ele><time>2026-03-22T09:05:21.25Z</time></trkpt><trkpt lat="44.5410767" lon="10.1692304"><ele>467.66666666666663</ele><time>2026-03-22T09:05:22.246Z</time></trkpt><trkpt lat="44.5410644" lon="10.1691064"><ele>467.3333333333333</ele><time>2026-03-22T09:05:23.247Z</time></trkpt><trkpt lat="44.5410571" lon="10.1689678"><ele>467.0</ele><time>2026-03-22T09:05:24.249Z</time></trkpt><trkpt lat="44.541048" lon="10.1688059"><ele>467.0</ele><time>2026-03-22T09:05:25.251Z</time></trkpt><trkpt lat="44.5410302" lon="10.1686334"><ele>467.0</ele><time>2026-03-22T09:05:26.247Z</time></trkpt><trkpt lat="44.5410113" lon="10.1684464"><ele>467.0</ele><time>2026-03-22T09:05:27.244Z</time></trkpt><trkpt lat="44.5409907" lon="10.1682565"><ele>467.0</ele><time>2026-03-22T09:05:28.249Z</time></trkpt><trkpt lat="44.5409669" lon="10.168057"><ele>466.5</ele><time>2026-03-22T09:05:29.246Z</time></trkpt><trkpt lat="44.5409412" lon="10.1678324"><ele>466.0</ele><time>2026-03-22T09:05:30.247Z</time></trkpt><trkpt lat="44.5409235" lon="10.1676328"><ele>465.5</ele><time>2026-03-22T09:05:31.245Z</time></trkpt><trkpt lat="44.5409037" lon="10.1674508"><ele>465.0</ele><time>2026-03-22T09:05:32.243Z</time></trkpt><trkpt lat="44.5408865" lon="10.1672814"><ele>465.0</ele><time>2026-03-22T09:05:33.255Z</time></trkpt><trkpt lat="44.5408683" lon="10.1671321"><ele>465.0</ele><time>2026-03-22T09:05:34.247Z</time></trkpt><trkpt lat="44.5408464" lon="10.1669817"><ele>465.0</ele><time>2026-03-22T09:05:35.251Z</time></trkpt><trkpt lat="44.5408223" lon="10.1668203"><ele>465.0</ele><time>2026-03-22T09:05:36.243Z</time></trkpt><trkpt lat="44.5408025" lon="10.1666685"><ele>465.0</ele><time>2026-03-22T09:05:37.251Z</time></trkpt><trkpt lat="44.5407846" lon="10.1665264"><ele>465.2</ele><time>2026-03-22T09:05:38.251Z</time></trkpt><trkpt lat="44.5407672" lon="10.1663916"><ele>465.4</ele><time>2026-03-22T09:05:39.261Z</time></trkpt><trkpt lat="44.540748" lon="10.1662535"><ele>465.6</ele><time>2026-03-22T09:05:40.245Z</time></trkpt><trkpt lat="44.5407284" lon="10.1660918"><ele>465.8</ele><time>2026-03-22T09:05:41.241Z</time></trkpt><trkpt lat="44.5407075" lon="10.1659291"><ele>466.0</ele><time>2026-03-22T09:05:42.248Z</time></trkpt><trkpt lat="44.5406855" lon="10.1657623"><ele>466.25</ele><time>2026-03-22T09:05:43.243Z</time></trkpt><trkpt lat="44.5406672" lon="10.1655992"><ele>466.5</ele><time>2026-03-22T09:05:44.243Z</time></trkpt><trkpt lat="44.5406527" lon="10.1654347"><ele>466.75</ele><time>2026-03-22T09:05:45.235Z</time></trkpt><trkpt lat="44.5406335" lon="10.165261"><ele>467.0</ele><time>2026-03-22T09:05:46.232Z</time></trkpt><trkpt lat="44.5406167" lon="10.1650844"><ele>467.0</ele><time>2026-03-22T09:05:47.246Z</time></trkpt><trkpt lat="44.5406068" lon="10.1649255"><ele>467.0</ele><time>2026-03-22T09:05:48.244Z</time></trkpt><trkpt lat="44.5405892" lon="10.1647822"><ele>467.0</ele><time>2026-03-22T09:05:49.243Z</time></trkpt><trkpt lat="44.5405639" lon="10.1646145"><ele>467.0</ele><time>2026-03-22T09:05:50.243Z</time></trkpt><trkpt lat="44.540508" lon="10.1643877"><ele>467.3333333333333</ele><time>2026-03-22T09:05:51.245Z</time></trkpt><trkpt lat="44.5403799" lon="10.1641512"><ele>467.66666666666663</ele><time>2026-03-22T09:05:52.236Z</time></trkpt><trkpt lat="44.5402454" lon="10.1639334"><ele>468.0</ele><time>2026-03-22T09:05:53.24Z</time></trkpt><trkpt lat="44.540072" lon="10.1637453"><ele>468.0</ele><time>2026-03-22T09:05:54.241Z</time></trkpt><trkpt lat="44.5398748" lon="10.1635321"><ele>468.0</ele><time>2026-03-22T09:05:55.242Z</time></trkpt><trkpt lat="44.5396796" lon="10.1633227"><ele>467.5</ele><time>2026-03-22T09:05:56.246Z</time></trkpt><trkpt lat="44.5395081" lon="10.1631281"><ele>467.0</ele><time>2026-03-22T09:05:57.246Z</time></trkpt><trkpt lat="44.5393289" lon="10.1629068"><ele>467.0</ele><time>2026-03-22T09:05:58.237Z</time></trkpt><trkpt lat="44.5391647" lon="10.1626725"><ele>467.0</ele><time>2026-03-22T09:05:59.246Z</time></trkpt><trkpt lat="44.5390035" lon="10.1624292"><ele>466.0</ele><time>2026-03-22T09:06:00.245Z</time></trkpt><trkpt lat="44.5388271" lon="10.1622081"><ele>465.0</ele><time>2026-03-22T09:06:01.244Z</time></trkpt><trkpt lat="44.538665" lon="10.1620001"><ele>465.0</ele><time>2026-03-22T09:06:02.241Z</time></trkpt><trkpt lat="44.5384922" lon="10.1618042"><ele>465.0</ele><time>2026-03-22T09:06:03.242Z</time></trkpt><trkpt lat="44.5383093" lon="10.161588"><ele>470.5</ele><time>2026-03-22T09:06:04.245Z</time></trkpt><trkpt lat="44.5381159" lon="10.1613334"><ele>476.0</ele><time>2026-03-22T09:06:05.24Z</time></trkpt><trkpt lat="44.5379276" lon="10.1610632"><ele>470.5</ele><time>2026-03-22T09:06:06.243Z</time></trkpt><trkpt lat="44.5377376" lon="10.1608169"><ele>465.0</ele><time>2026-03-22T09:06:07.251Z</time></trkpt><trkpt lat="44.5375652" lon="10.160581"><ele>465.0</ele><time>2026-03-22T09:06:08.248Z</time></trkpt><trkpt lat="44.5374003" lon="10.1603475"><ele>465.0</ele><time>2026-03-22T09:06:09.252Z</time></trkpt><trkpt lat="44.5372416" lon="10.1601073"><ele>465.0</ele><time>2026-03-22T09:06:10.248Z</time></trkpt><trkpt lat="44.5370802" lon="10.1598716"><ele>465.0</ele><time>2026-03-22T09:06:11.247Z</time></trkpt><trkpt lat="44.5369238" lon="10.1596489"><ele>465.66666666666663</ele><time>2026-03-22T09:06:12.249Z</time></trkpt><trkpt lat="44.536767" lon="10.1594545"><ele>466.3333333333333</ele><time>2026-03-22T09:06:13.246Z</time></trkpt><trkpt lat="44.5366161" lon="10.1592591"><ele>467.0</ele><time>2026-03-22T09:06:14.253Z</time></trkpt><trkpt lat="44.5364721" lon="10.1590911"><ele>463.25</ele><time>2026-03-22T09:06:15.245Z</time></trkpt><trkpt lat="44.5363369" lon="10.1589199"><ele>459.5</ele><time>2026-03-22T09:06:16.241Z</time></trkpt><trkpt lat="44.5362545" lon="10.1587881"><ele>455.75</ele><time>2026-03-22T09:06:17.239Z</time></trkpt><trkpt lat="44.5361929" lon="10.158634"><ele>452.0</ele><time>2026-03-22T09:06:18.242Z</time></trkpt><trkpt lat="44.5361532" lon="10.1584676"><ele>452.0</ele><time>2026-03-22T09:06:19.232Z</time></trkpt><trkpt lat="44.5361187" lon="10.1583004"><ele>452.0</ele><time>2026-03-22T09:06:20.238Z</time></trkpt><trkpt lat="44.5360928" lon="10.1581264"><ele>452.0</ele><time>2026-03-22T09:06:21.241Z</time></trkpt><trkpt lat="44.5360634" lon="10.1579427"><ele>452.0</ele><time>2026-03-22T09:06:22.236Z</time></trkpt><trkpt lat="44.5360628" lon="10.1577683"><ele>454.0</ele><time>2026-03-22T09:06:23.245Z</time></trkpt><trkpt lat="44.5360521" lon="10.1575856"><ele>456.0</ele><time>2026-03-22T09:06:24.227Z</time></trkpt><trkpt lat="44.5360162" lon="10.1573808"><ele>458.0</ele><time>2026-03-22T09:06:25.242Z</time></trkpt><trkpt lat="44.5359468" lon="10.1571677"><ele>460.0</ele><time>2026-03-22T09:06:26.245Z</time></trkpt><trkpt lat="44.5358804" lon="10.1569747"><ele>461.33333333333337</ele><time>2026-03-22T09:06:27.246Z</time></trkpt><trkpt lat="44.5358186" lon="10.1567738"><ele>462.66666666666663</ele><time>2026-03-22T09:06:28.24Z</time></trkpt><trkpt lat="44.5358099" lon="10.1565704"><ele>464.0</ele><time>2026-03-22T09:06:29.244Z</time></trkpt><trkpt lat="44.5358185" lon="10.1563613"><ele>464.0</ele><time>2026-03-22T09:06:30.247Z</time></trkpt><trkpt lat="44.53583" lon="10.1561591"><ele>464.0</ele><time>2026-03-22T09:06:31.237Z</time></trkpt><trkpt lat="44.535862" lon="10.1559974"><ele>464.0</ele><time>2026-03-22T09:06:32.241Z</time></trkpt><trkpt lat="44.5359055" lon="10.1558472"><ele>464.0</ele><time>2026-03-22T09:06:33.242Z</time></trkpt><trkpt lat="44.5359407" lon="10.1557093"><ele>464.2</ele><time>2026-03-22T09:06:34.237Z</time></trkpt><trkpt lat="44.5359622" lon="10.1555701"><ele>464.4</ele><time>2026-03-22T09:06:35.243Z</time></trkpt><trkpt lat="44.5359702" lon="10.155427"><ele>464.6</ele><time>2026-03-22T09:06:36.238Z</time></trkpt><trkpt lat="44.5359744" lon="10.15528"><ele>464.8</ele><time>2026-03-22T09:06:37.243Z</time></trkpt><trkpt lat="44.5359567" lon="10.1551076"><ele>465.0</ele><time>2026-03-22T09:06:38.236Z</time></trkpt><trkpt lat="44.5359179" lon="10.1549241"><ele>465.33333333333337</ele><time>2026-03-22T09:06:39.232Z</time></trkpt><trkpt lat="44.5358563" lon="10.1547567"><ele>465.6666666666667</ele><time>2026-03-22T09:06:40.238Z</time></trkpt><trkpt lat="44.5357536" lon="10.1545961"><ele>466.0</ele><time>2026-03-22T09:06:41.234Z</time></trkpt><trkpt lat="44.5356122" lon="10.1544177"><ele>466.0</ele><time>2026-03-22T09:06:42.242Z</time></trkpt><trkpt lat="44.5355198" lon="10.1542434"><ele>466.0</ele><time>2026-03-22T09:06:43.238Z</time></trkpt><trkpt lat="44.5354431" lon="10.1540779"><ele>466.0</ele><time>2026-03-22T09:06:44.245Z</time></trkpt><trkpt lat="44.5353686" lon="10.1539395"><ele>466.0</ele><time>2026-03-22T09:06:45.244Z</time></trkpt><trkpt lat="44.5352987" lon="10.1538113"><ele>468.0</ele><time>2026-03-22T09:06:46.248Z</time></trkpt><trkpt lat="44.5351997" lon="10.1536943"><ele>470.0</ele><time>2026-03-22T09:06:47.253Z</time></trkpt><trkpt lat="44.5350882" lon="10.1535798"><ele>472.0</ele><time>2026-03-22T09:06:48.255Z</time></trkpt><trkpt lat="44.5349766" lon="10.1534728"><ele>474.0</ele><time>2026-03-22T09:06:49.257Z</time></trkpt><trkpt lat="44.5348465" lon="10.1533682"><ele>474.0</ele><time>2026-03-22T09:06:50.246Z</time></trkpt><trkpt lat="44.5347225" lon="10.1532536"><ele>474.0</ele><time>2026-03-22T09:06:51.254Z</time></trkpt><trkpt lat="44.534604" lon="10.1531117"><ele>474.0</ele><time>2026-03-22T09:06:52.237Z</time></trkpt><trkpt lat="44.5345038" lon="10.152934"><ele>472.33333333333337</ele><time>2026-03-22T09:06:53.237Z</time></trkpt><trkpt lat="44.5344307" lon="10.1527364"><ele>470.6666666666667</ele><time>2026-03-22T09:06:54.244Z</time></trkpt><trkpt lat="44.5343791" lon="10.1525267"><ele>469.0</ele><time>2026-03-22T09:06:55.24Z</time></trkpt><trkpt lat="44.5343162" lon="10.1523266"><ele>473.25</ele><time>2026-03-22T09:06:56.249Z</time></trkpt><trkpt lat="44.5342394" lon="10.1521488"><ele>477.5</ele><time>2026-03-22T09:06:57.244Z</time></trkpt><trkpt lat="44.5341578" lon="10.1519769"><ele>481.75</ele><time>2026-03-22T09:06:58.251Z</time></trkpt><trkpt lat="44.5340721" lon="10.1518156"><ele>486.0</ele><time>2026-03-22T09:06:59.244Z</time></trkpt><trkpt lat="44.53399" lon="10.1516533"><ele>483.25</ele><time>2026-03-22T09:07:00.241Z</time></trkpt><trkpt lat="44.5339089" lon="10.1514918"><ele>480.5</ele><time>2026-03-22T09:07:01.243Z</time></trkpt><trkpt lat="44.5338244" lon="10.1513319"><ele>477.75</ele><time>2026-03-22T09:07:02.242Z</time></trkpt><trkpt lat="44.5337109" lon="10.1511892"><ele>475.0</ele><time>2026-03-22T09:07:03.238Z</time></trkpt><trkpt lat="44.5335964" lon="10.1510499"><ele>475.0</ele><time>2026-03-22T09:07:04.243Z</time></trkpt><trkpt lat="44.5335009" lon="10.1508921"><ele>475.0</ele><time>2026-03-22T09:07:05.248Z</time></trkpt><trkpt lat="44.5334275" lon="10.1507021"><ele>475.0</ele><time>2026-03-22T09:07:06.241Z</time></trkpt><trkpt lat="44.5333525" lon="10.1505054"><ele>478.33333333333337</ele><time>2026-03-22T09:07:07.242Z</time></trkpt><trkpt lat="44.5332735" lon="10.1502816"><ele>481.66666666666663</ele><time>2026-03-22T09:07:08.242Z</time></trkpt><trkpt lat="44.533208" lon="10.1500639"><ele>485.0</ele><time>2026-03-22T09:07:09.249Z</time></trkpt><trkpt lat="44.5331311" lon="10.1498556"><ele>487.66666666666663</ele><time>2026-03-22T09:07:10.243Z</time></trkpt><trkpt lat="44.5330486" lon="10.1496518"><ele>490.33333333333337</ele><time>2026-03-22T09:07:11.244Z</time></trkpt><trkpt lat="44.5329807" lon="10.1494517"><ele>493.0</ele><time>2026-03-22T09:07:12.241Z</time></trkpt><trkpt lat="44.5329288" lon="10.1492635"><ele>488.5</ele><time>2026-03-22T09:07:13.247Z</time></trkpt><trkpt lat="44.5328633" lon="10.1490664"><ele>484.0</ele><time>2026-03-22T09:07:14.25Z</time></trkpt><trkpt lat="44.532808" lon="10.1488672"><ele>479.5</ele><time>2026-03-22T09:07:15.246Z</time></trkpt><trkpt lat="44.5327501" lon="10.1486949"><ele>475.0</ele><time>2026-03-22T09:07:16.248Z</time></trkpt><trkpt lat="44.53268" lon="10.1485415"><ele>475.0</ele><time>2026-03-22T09:07:17.246Z</time></trkpt><trkpt lat="44.5325997" lon="10.1483999"><ele>475.0</ele><time>2026-03-22T09:07:18.245Z</time></trkpt><trkpt lat="44.5324952" lon="10.1483061"><ele>475.0</ele><time>2026-03-22T09:07:19.242Z</time></trkpt><trkpt lat="44.5323643" lon="10.1482202"><ele>475.0</ele><time>2026-03-22T09:07:20.242Z</time></trkpt><trkpt lat="44.5322286" lon="10.1481405"><ele>477.0</ele><time>2026-03-22T09:07:21.252Z</time></trkpt><trkpt lat="44.5320992" lon="10.1480665"><ele>479.0</ele><time>2026-03-22T09:07:22.249Z</time></trkpt><trkpt lat="44.5319851" lon="10.1479824"><ele>481.0</ele><time>2026-03-22T09:07:23.239Z</time></trkpt><trkpt lat="44.5318871" lon="10.1478648"><ele>483.0</ele><time>2026-03-22T09:07:24.248Z</time></trkpt><trkpt lat="44.5317995" lon="10.1477184"><ele>483.0</ele><time>2026-03-22T09:07:25.246Z</time></trkpt><trkpt lat="44.5317326" lon="10.1475507"><ele>483.0</ele><time>2026-03-22T09:07:26.251Z</time></trkpt><trkpt lat="44.5316737" lon="10.1473855"><ele>483.0</ele><time>2026-03-22T09:07:27.249Z</time></trkpt><trkpt lat="44.5316027" lon="10.1472209"><ele>483.0</ele><time>2026-03-22T09:07:28.252Z</time></trkpt><trkpt lat="44.5314902" lon="10.147075"><ele>484.25</ele><time>2026-03-22T09:07:29.253Z</time></trkpt><trkpt lat="44.5313758" lon="10.1469719"><ele>485.5</ele><time>2026-03-22T09:07:30.25Z</time></trkpt><trkpt lat="44.5312593" lon="10.146877"><ele>486.75</ele><time>2026-03-22T09:07:31.249Z</time></trkpt><trkpt lat="44.5311365" lon="10.1467997"><ele>488.0</ele><time>2026-03-22T09:07:32.248Z</time></trkpt><trkpt lat="44.5310166" lon="10.1467233"><ele>488.25</ele><time>2026-03-22T09:07:33.25Z</time></trkpt><trkpt lat="44.5308954" lon="10.14665"><ele>488.5</ele><time>2026-03-22T09:07:34.248Z</time></trkpt><trkpt lat="44.530783" lon="10.146583"><ele>488.75</ele><time>2026-03-22T09:07:35.25Z</time></trkpt><trkpt lat="44.530665" lon="10.1465141"><ele>489.0</ele><time>2026-03-22T09:07:36.253Z</time></trkpt><trkpt lat="44.5305514" lon="10.1464388"><ele>489.66666666666663</ele><time>2026-03-22T09:07:37.259Z</time></trkpt><trkpt lat="44.530437" lon="10.1463492"><ele>490.3333333333333</ele><time>2026-03-22T09:07:38.26Z</time></trkpt><trkpt lat="44.5303137" lon="10.1462197"><ele>491.0</ele><time>2026-03-22T09:07:39.254Z</time></trkpt><trkpt lat="44.5301613" lon="10.1460188"><ele>491.0</ele><time>2026-03-22T09:07:40.256Z</time></trkpt><trkpt lat="44.5300026" lon="10.145787"><ele>491.0</ele><time>2026-03-22T09:07:41.259Z</time></trkpt><trkpt lat="44.5298493" lon="10.1455205"><ele>491.66666666666663</ele><time>2026-03-22T09:07:42.257Z</time></trkpt><trkpt lat="44.5297031" lon="10.1452613"><ele>492.33333333333337</ele><time>2026-03-22T09:07:43.253Z</time></trkpt><trkpt lat="44.5295506" lon="10.1450518"><ele>493.0</ele><time>2026-03-22T09:07:44.257Z</time></trkpt><trkpt lat="44.5294142" lon="10.1448399"><ele>494.0</ele><time>2026-03-22T09:07:45.255Z</time></trkpt><trkpt lat="44.5292922" lon="10.1446426"><ele>495.0</ele><time>2026-03-22T09:07:46.256Z</time></trkpt><trkpt lat="44.5291864" lon="10.1444087"><ele>496.0</ele><time>2026-03-22T09:07:47.249Z</time></trkpt><trkpt lat="44.5291082" lon="10.1441678"><ele>496.0</ele><time>2026-03-22T09:07:48.252Z</time></trkpt><trkpt lat="44.5290347" lon="10.1439007"><ele>496.0</ele><time>2026-03-22T09:07:49.257Z</time></trkpt><trkpt lat="44.5289648" lon="10.1436507"><ele>496.0</ele><time>2026-03-22T09:07:50.254Z</time></trkpt><trkpt lat="44.5289101" lon="10.1434213"><ele>495.25</ele><time>2026-03-22T09:07:51.257Z</time></trkpt><trkpt lat="44.528883" lon="10.1432103"><ele>494.5</ele><time>2026-03-22T09:07:52.253Z</time></trkpt><trkpt lat="44.5288721" lon="10.1430121"><ele>493.75</ele><time>2026-03-22T09:07:53.253Z</time></trkpt><trkpt lat="44.5289122" lon="10.1428358"><ele>493.0</ele><time>2026-03-22T09:07:54.259Z</time></trkpt><trkpt lat="44.5289832" lon="10.1426535"><ele>493.0</ele><time>2026-03-22T09:07:55.252Z</time></trkpt><trkpt lat="44.5290971" lon="10.1425026"><ele>493.0</ele><time>2026-03-22T09:07:56.256Z</time></trkpt><trkpt lat="44.5292281" lon="10.1423813"><ele>493.0</ele><time>2026-03-22T09:07:57.251Z</time></trkpt><trkpt lat="44.529366" lon="10.1423048"><ele>491.25</ele><time>2026-03-22T09:07:58.252Z</time></trkpt><trkpt lat="44.529495" lon="10.1422128"><ele>489.5</ele><time>2026-03-22T09:07:59.247Z</time></trkpt><trkpt lat="44.5296212" lon="10.1420979"><ele>487.75</ele><time>2026-03-22T09:08:00.263Z</time></trkpt><trkpt lat="44.5297174" lon="10.1419358"><ele>486.0</ele><time>2026-03-22T09:08:01.25Z</time></trkpt><trkpt lat="44.5297572" lon="10.1417681"><ele>490.5</ele><time>2026-03-22T09:08:02.251Z</time></trkpt><trkpt lat="44.5297712" lon="10.1415912"><ele>495.0</ele><time>2026-03-22T09:08:03.249Z</time></trkpt><trkpt lat="44.5297388" lon="10.1414182"><ele>499.5</ele><time>2026-03-22T09:08:04.244Z</time></trkpt><trkpt lat="44.5296776" lon="10.1412318"><ele>504.0</ele><time>2026-03-22T09:08:05.247Z</time></trkpt><trkpt lat="44.5295873" lon="10.1410809"><ele>504.0</ele><time>2026-03-22T09:08:06.24Z</time></trkpt><trkpt lat="44.5294737" lon="10.1409073"><ele>504.0</ele><time>2026-03-22T09:08:07.245Z</time></trkpt><trkpt lat="44.5293185" lon="10.1407235"><ele>504.0</ele><time>2026-03-22T09:08:08.255Z</time></trkpt><trkpt lat="44.5291793" lon="10.1405269"><ele>504.0</ele><time>2026-03-22T09:08:09.254Z</time></trkpt><trkpt lat="44.52903" lon="10.140336"><ele>504.0</ele><time>2026-03-22T09:08:10.245Z</time></trkpt><trkpt lat="44.5288678" lon="10.1401608"><ele>504.0</ele><time>2026-03-22T09:08:11.246Z</time></trkpt><trkpt lat="44.5287045" lon="10.1400087"><ele>505.33333333333337</ele><time>2026-03-22T09:08:12.246Z</time></trkpt><trkpt lat="44.5285153" lon="10.1398895"><ele>506.6666666666667</ele><time>2026-03-22T09:08:13.239Z</time></trkpt><trkpt lat="44.5283328" lon="10.1397849"><ele>508.0</ele><time>2026-03-22T09:08:14.243Z</time></trkpt><trkpt lat="44.52817" lon="10.1396784"><ele>508.0</ele><time>2026-03-22T09:08:15.242Z</time></trkpt><trkpt lat="44.5280369" lon="10.1395286"><ele>508.0</ele><time>2026-03-22T09:08:16.239Z</time></trkpt><trkpt lat="44.5279111" lon="10.1393463"><ele>508.0</ele><time>2026-03-22T09:08:17.246Z</time></trkpt><trkpt lat="44.5277722" lon="10.1391227"><ele>504.33333333333337</ele><time>2026-03-22T09:08:18.241Z</time></trkpt><trkpt lat="44.5276171" lon="10.1388962"><ele>500.66666666666663</ele><time>2026-03-22T09:08:19.242Z</time></trkpt><trkpt lat="44.5274798" lon="10.1386915"><ele>497.0</ele><time>2026-03-22T09:08:20.249Z</time></trkpt><trkpt lat="44.5273359" lon="10.1385155"><ele>497.0</ele><time>2026-03-22T09:08:21.245Z</time></trkpt><trkpt lat="44.5271853" lon="10.1383787"><ele>497.0</ele><time>2026-03-22T09:08:22.251Z</time></trkpt><trkpt lat="44.5270233" lon="10.1383107"><ele>497.0</ele><time>2026-03-22T09:08:23.249Z</time></trkpt><trkpt lat="44.5268614" lon="10.1382793"><ele>494.75</ele><time>2026-03-22T09:08:24.258Z</time></trkpt><trkpt lat="44.5267208" lon="10.1382301"><ele>492.5</ele><time>2026-03-22T09:08:25.253Z</time></trkpt><trkpt lat="44.5266016" lon="10.1381295"><ele>490.25</ele><time>2026-03-22T09:08:26.256Z</time></trkpt><trkpt lat="44.5264828" lon="10.1379921"><ele>488.0</ele><time>2026-03-22T09:08:27.246Z</time></trkpt><trkpt lat="44.5263799" lon="10.1378126"><ele>488.66666666666663</ele><time>2026-03-22T09:08:28.245Z</time></trkpt><trkpt lat="44.5262717" lon="10.1376374"><ele>489.33333333333337</ele><time>2026-03-22T09:08:29.236Z</time></trkpt><trkpt lat="44.5261517" lon="10.1374902"><ele>490.0</ele><time>2026-03-22T09:08:30.243Z</time></trkpt><trkpt lat="44.5259885" lon="10.1374129"><ele>490.0</ele><time>2026-03-22T09:08:31.244Z</time></trkpt><trkpt lat="44.5258085" lon="10.137385"><ele>490.0</ele><time>2026-03-22T09:08:32.233Z</time></trkpt><trkpt lat="44.5256274" lon="10.1373897"><ele>490.0</ele><time>2026-03-22T09:08:33.235Z</time></trkpt><trkpt lat="44.525459" lon="10.1373884"><ele>485.6666666666667</ele><time>2026-03-22T09:08:34.232Z</time></trkpt><trkpt lat="44.5252979" lon="10.1373956"><ele>481.33333333333337</ele><time>2026-03-22T09:08:35.233Z</time></trkpt><trkpt lat="44.525146" lon="10.1373332"><ele>477.0</ele><time>2026-03-22T09:08:36.238Z</time></trkpt><trkpt lat="44.5249967" lon="10.1372057"><ele>489.33333333333337</ele><time>2026-03-22T09:08:37.238Z</time></trkpt><trkpt lat="44.5248668" lon="10.1370819"><ele>501.6666666666667</ele><time>2026-03-22T09:08:38.234Z</time></trkpt><trkpt lat="44.5247261" lon="10.136953"><ele>514.0</ele><time>2026-03-22T09:08:39.235Z</time></trkpt><trkpt lat="44.5246095" lon="10.1368119"><ele>514.3333333333334</ele><time>2026-03-22T09:08:40.23Z</time></trkpt><trkpt lat="44.5245048" lon="10.1366125"><ele>514.6666666666666</ele><time>2026-03-22T09:08:41.231Z</time></trkpt><trkpt lat="44.5244164" lon="10.1364315"><ele>515.0</ele><time>2026-03-22T09:08:42.236Z</time></trkpt><trkpt lat="44.5243102" lon="10.1362424"><ele>515.0</ele><time>2026-03-22T09:08:43.234Z</time></trkpt><trkpt lat="44.5241881" lon="10.1360679"><ele>515.0</ele><time>2026-03-22T09:08:44.242Z</time></trkpt><trkpt lat="44.5240365" lon="10.1359721"><ele>515.0</ele><time>2026-03-22T09:08:45.243Z</time></trkpt><trkpt lat="44.523873" lon="10.135934"><ele>505.0</ele><time>2026-03-22T09:08:46.24Z</time></trkpt><trkpt lat="44.5237203" lon="10.1358873"><ele>495.0</ele><time>2026-03-22T09:08:47.241Z</time></trkpt><trkpt lat="44.5235719" lon="10.1358338"><ele>485.0</ele><time>2026-03-22T09:08:48.235Z</time></trkpt><trkpt lat="44.5234222" lon="10.1357425"><ele>494.3333333333333</ele><time>2026-03-22T09:08:49.235Z</time></trkpt><trkpt lat="44.5233041" lon="10.1355704"><ele>503.66666666666663</ele><time>2026-03-22T09:08:50.241Z</time></trkpt><trkpt lat="44.5231726" lon="10.1354363"><ele>513.0</ele><time>2026-03-22T09:08:51.243Z</time></trkpt><trkpt lat="44.5230422" lon="10.1352858"><ele>513.0</ele><time>2026-03-22T09:08:52.228Z</time></trkpt><trkpt lat="44.5229321" lon="10.1351067"><ele>513.0</ele><time>2026-03-22T09:08:53.236Z</time></trkpt><trkpt lat="44.5228531" lon="10.1349061"><ele>513.0</ele><time>2026-03-22T09:08:54.239Z</time></trkpt><trkpt lat="44.5227775" lon="10.1346927"><ele>504.33333333333337</ele><time>2026-03-22T09:08:55.235Z</time></trkpt><trkpt lat="44.5227153" lon="10.1344851"><ele>495.6666666666667</ele><time>2026-03-22T09:08:56.241Z</time></trkpt><trkpt lat="44.5226284" lon="10.1343228"><ele>487.0</ele><time>2026-03-22T09:08:57.242Z</time></trkpt><trkpt lat="44.5225032" lon="10.1341821"><ele>487.0</ele><time>2026-03-22T09:08:58.256Z</time></trkpt><trkpt lat="44.5223574" lon="10.1340622"><ele>487.0</ele><time>2026-03-22T09:08:59.253Z</time></trkpt><trkpt lat="44.5222141" lon="10.1339299"><ele>487.0</ele><time>2026-03-22T09:09:00.252Z</time></trkpt><trkpt lat="44.5220912" lon="10.1338026"><ele>489.6666666666667</ele><time>2026-03-22T09:09:01.252Z</time></trkpt><trkpt lat="44.5219605" lon="10.1336782"><ele>492.33333333333337</ele><time>2026-03-22T09:09:02.253Z</time></trkpt><trkpt lat="44.5218184" lon="10.1335467"><ele>495.0</ele><time>2026-03-22T09:09:03.245Z</time></trkpt><trkpt lat="44.5216747" lon="10.1334129"><ele>495.0</ele><time>2026-03-22T09:09:04.249Z</time></trkpt><trkpt lat="44.521558" lon="10.1332829"><ele>495.0</ele><time>2026-03-22T09:09:05.243Z</time></trkpt><trkpt lat="44.5214614" lon="10.1331185"><ele>495.0</ele><time>2026-03-22T09:09:06.243Z</time></trkpt><trkpt lat="44.5213758" lon="10.1329251"><ele>495.0</ele><time>2026-03-22T09:09:07.244Z</time></trkpt><trkpt lat="44.5213301" lon="10.1327037"><ele>495.0</ele><time>2026-03-22T09:09:08.242Z</time></trkpt><trkpt lat="44.5213269" lon="10.1324633"><ele>495.0</ele><time>2026-03-22T09:09:09.238Z</time></trkpt><trkpt lat="44.5213249" lon="10.1322571"><ele>495.0</ele><time>2026-03-22T09:09:10.243Z</time></trkpt><trkpt lat="44.5212909" lon="10.1320646"><ele>495.0</ele><time>2026-03-22T09:09:11.241Z</time></trkpt><trkpt lat="44.5212148" lon="10.1318627"><ele>495.0</ele><time>2026-03-22T09:09:12.251Z</time></trkpt><trkpt lat="44.5210959" lon="10.1316869"><ele>495.66666666666663</ele><time>2026-03-22T09:09:13.243Z</time></trkpt><trkpt lat="44.5209631" lon="10.1315397"><ele>496.3333333333333</ele><time>2026-03-22T09:09:14.247Z</time></trkpt><trkpt lat="44.5208239" lon="10.1313839"><ele>497.0</ele><time>2026-03-22T09:09:15.254Z</time></trkpt><trkpt lat="44.5206805" lon="10.1312737"><ele>497.0</ele><time>2026-03-22T09:09:16.246Z</time></trkpt><trkpt lat="44.5205311" lon="10.1311969"><ele>497.0</ele><time>2026-03-22T09:09:17.241Z</time></trkpt><trkpt lat="44.5203561" lon="10.1311495"><ele>497.0</ele><time>2026-03-22T09:09:18.243Z</time></trkpt><trkpt lat="44.5201663" lon="10.1311464"><ele>498.0</ele><time>2026-03-22T09:09:19.248Z</time></trkpt><trkpt lat="44.5199898" lon="10.1311647"><ele>499.0</ele><time>2026-03-22T09:09:20.237Z</time></trkpt><trkpt lat="44.5198145" lon="10.1312007"><ele>500.0</ele><time>2026-03-22T09:09:21.237Z</time></trkpt><trkpt lat="44.5196434" lon="10.1311985"><ele>497.66666666666663</ele><time>2026-03-22T09:09:22.23Z</time></trkpt><trkpt lat="44.5194877" lon="10.1311621"><ele>495.33333333333337</ele><time>2026-03-22T09:09:23.233Z</time></trkpt><trkpt lat="44.5193163" lon="10.1310825"><ele>493.0</ele><time>2026-03-22T09:09:24.234Z</time></trkpt><trkpt lat="44.5191785" lon="10.1309817"><ele>493.0</ele><time>2026-03-22T09:09:25.236Z</time></trkpt><trkpt lat="44.5190073" lon="10.1309091"><ele>493.0</ele><time>2026-03-22T09:09:26.234Z</time></trkpt><trkpt lat="44.5188533" lon="10.1308181"><ele>493.0</ele><time>2026-03-22T09:09:27.235Z</time></trkpt><trkpt lat="44.5187192" lon="10.1307011"><ele>491.75</ele><time>2026-03-22T09:09:28.242Z</time></trkpt><trkpt lat="44.5186227" lon="10.130566"><ele>490.5</ele><time>2026-03-22T09:09:29.231Z</time></trkpt><trkpt lat="44.51856" lon="10.1303962"><ele>489.25</ele><time>2026-03-22T09:09:30.237Z</time></trkpt><trkpt lat="44.51853" lon="10.1301964"><ele>488.0</ele><time>2026-03-22T09:09:31.241Z</time></trkpt><trkpt lat="44.5185242" lon="10.129993"><ele>488.3333333333333</ele><time>2026-03-22T09:09:32.232Z</time></trkpt><trkpt lat="44.518561" lon="10.1297554"><ele>488.66666666666663</ele><time>2026-03-22T09:09:33.24Z</time></trkpt><trkpt lat="44.5185818" lon="10.1294859"><ele>489.0</ele><time>2026-03-22T09:09:34.321Z</time></trkpt><trkpt lat="44.5185707" lon="10.1292213"><ele>489.0</ele><time>2026-03-22T09:09:35.232Z</time></trkpt><trkpt lat="44.5185441" lon="10.1289654"><ele>489.0</ele><time>2026-03-22T09:09:36.235Z</time></trkpt><trkpt lat="44.5185182" lon="10.1287244"><ele>489.0</ele><time>2026-03-22T09:09:37.234Z</time></trkpt><trkpt lat="44.5184799" lon="10.1284991"><ele>489.0</ele><time>2026-03-22T09:09:38.23Z</time></trkpt><trkpt lat="44.518465" lon="10.1282896"><ele>489.0</ele><time>2026-03-22T09:09:39.23Z</time></trkpt><trkpt lat="44.5184406" lon="10.1280969"><ele>489.0</ele><time>2026-03-22T09:09:40.227Z</time></trkpt><trkpt lat="44.5184407" lon="10.1279097"><ele>489.0</ele><time>2026-03-22T09:09:41.231Z</time></trkpt><trkpt lat="44.5184759" lon="10.1277192"><ele>488.5</ele><time>2026-03-22T09:09:42.226Z</time></trkpt><trkpt lat="44.5185207" lon="10.1275177"><ele>488.0</ele><time>2026-03-22T09:09:43.229Z</time></trkpt><trkpt lat="44.5185283" lon="10.1273167"><ele>487.5</ele><time>2026-03-22T09:09:44.226Z</time></trkpt><trkpt lat="44.5185305" lon="10.1271424"><ele>487.0</ele><time>2026-03-22T09:09:45.23Z</time></trkpt><trkpt lat="44.5184938" lon="10.1269812"><ele>487.0</ele><time>2026-03-22T09:09:46.236Z</time></trkpt><trkpt lat="44.5184342" lon="10.1268488"><ele>487.00000000000006</ele><time>2026-03-22T09:09:47.229Z</time></trkpt><trkpt lat="44.5183536" lon="10.1267472"><ele>487.00000000000006</ele><time>2026-03-22T09:09:48.23Z</time></trkpt><trkpt lat="44.5182577" lon="10.1266753"><ele>487.0</ele><time>2026-03-22T09:09:49.233Z</time></trkpt><trkpt lat="44.5181639" lon="10.1266244"><ele>487.0</ele><time>2026-03-22T09:09:50.232Z</time></trkpt><trkpt lat="44.5180679" lon="10.1265642"><ele>487.25</ele><time>2026-03-22T09:09:51.239Z</time></trkpt><trkpt lat="44.5179742" lon="10.1265002"><ele>487.5</ele><time>2026-03-22T09:09:52.245Z</time></trkpt><trkpt lat="44.5178775" lon="10.1264351"><ele>487.75</ele><time>2026-03-22T09:09:53.239Z</time></trkpt><trkpt lat="44.5177726" lon="10.1263662"><ele>488.0</ele><time>2026-03-22T09:09:54.242Z</time></trkpt><trkpt lat="44.5176552" lon="10.1262908"><ele>488.75</ele><time>2026-03-22T09:09:55.243Z</time></trkpt><trkpt lat="44.517526" lon="10.1262182"><ele>489.5</ele><time>2026-03-22T09:09:56.248Z</time></trkpt><trkpt lat="44.517405" lon="10.1261848"><ele>490.25</ele><time>2026-03-22T09:09:57.243Z</time></trkpt><trkpt lat="44.5172922" lon="10.1261974"><ele>491.0</ele><time>2026-03-22T09:09:58.243Z</time></trkpt><trkpt lat="44.5172038" lon="10.1262667"><ele>491.0</ele><time>2026-03-22T09:09:59.246Z</time></trkpt><trkpt lat="44.5171112" lon="10.126358"><ele>491.0</ele><time>2026-03-22T09:10:00.239Z</time></trkpt><trkpt lat="44.5170502" lon="10.1264751"><ele>491.0</ele><time>2026-03-22T09:10:01.243Z</time></trkpt><trkpt lat="44.5170027" lon="10.1265854"><ele>491.0</ele><time>2026-03-22T09:10:02.244Z</time></trkpt><trkpt lat="44.5169201" lon="10.1266722"><ele>491.0</ele><time>2026-03-22T09:10:03.239Z</time></trkpt><trkpt lat="44.5168513" lon="10.1267715"><ele>491.8</ele><time>2026-03-22T09:10:04.25Z</time></trkpt><trkpt lat="44.5167782" lon="10.1268318"><ele>492.6</ele><time>2026-03-22T09:10:05.235Z</time></trkpt><trkpt lat="44.5166915" lon="10.1268536"><ele>493.4</ele><time>2026-03-22T09:10:06.242Z</time></trkpt><trkpt lat="44.5165912" lon="10.12684"><ele>494.2</ele><time>2026-03-22T09:10:07.234Z</time></trkpt><trkpt lat="44.5164863" lon="10.1267966"><ele>495.0</ele><time>2026-03-22T09:10:08.239Z</time></trkpt><trkpt lat="44.5163826" lon="10.1267218"><ele>495.0</ele><time>2026-03-22T09:10:09.238Z</time></trkpt><trkpt lat="44.5162453" lon="10.1266232"><ele>495.0</ele><time>2026-03-22T09:10:10.229Z</time></trkpt><trkpt lat="44.5160598" lon="10.1264895"><ele>495.0</ele><time>2026-03-22T09:10:11.233Z</time></trkpt><trkpt lat="44.5158386" lon="10.1263884"><ele>498.0</ele><time>2026-03-22T09:10:12.239Z</time></trkpt><trkpt lat="44.5156043" lon="10.1262767"><ele>501.0</ele><time>2026-03-22T09:10:13.228Z</time></trkpt><trkpt lat="44.5153864" lon="10.1261421"><ele>501.0</ele><time>2026-03-22T09:10:14.236Z</time></trkpt><trkpt lat="44.5152083" lon="10.1259429"><ele>501.0</ele><time>2026-03-22T09:10:15.229Z</time></trkpt><trkpt lat="44.515022" lon="10.1257972"><ele>501.0</ele><time>2026-03-22T09:10:16.233Z</time></trkpt><trkpt lat="44.5148065" lon="10.1257273"><ele>507.0</ele><time>2026-03-22T09:10:17.237Z</time></trkpt><trkpt lat="44.5145825" lon="10.1256268"><ele>513.0</ele><time>2026-03-22T09:10:18.237Z</time></trkpt><trkpt lat="44.5143529" lon="10.1255375"><ele>513.0</ele><time>2026-03-22T09:10:19.234Z</time></trkpt><trkpt lat="44.5141628" lon="10.1254188"><ele>513.0</ele><time>2026-03-22T09:10:20.237Z</time></trkpt><trkpt lat="44.5139917" lon="10.1253139"><ele>513.0</ele><time>2026-03-22T09:10:21.245Z</time></trkpt><trkpt lat="44.5138281" lon="10.1252408"><ele>510.0</ele><time>2026-03-22T09:10:22.241Z</time></trkpt><trkpt lat="44.5136622" lon="10.1251562"><ele>507.0</ele><time>2026-03-22T09:10:23.242Z</time></trkpt><trkpt lat="44.5134997" lon="10.1250492"><ele>504.0</ele><time>2026-03-22T09:10:24.24Z</time></trkpt><trkpt lat="44.5133325" lon="10.1249601"><ele>508.33333333333337</ele><time>2026-03-22T09:10:25.238Z</time></trkpt><trkpt lat="44.5131583" lon="10.124873"><ele>512.6666666666667</ele><time>2026-03-22T09:10:26.25Z</time></trkpt><trkpt lat="44.5129957" lon="10.1247619"><ele>517.0</ele><time>2026-03-22T09:10:27.238Z</time></trkpt><trkpt lat="44.5128256" lon="10.1247068"><ele>517.0</ele><time>2026-03-22T09:10:28.24Z</time></trkpt><trkpt lat="44.5126268" lon="10.1246723"><ele>517.0</ele><time>2026-03-22T09:10:29.239Z</time></trkpt><trkpt lat="44.5124252" lon="10.1246693"><ele>517.0</ele><time>2026-03-22T09:10:30.244Z</time></trkpt><trkpt lat="44.5122447" lon="10.1246979"><ele>518.3333333333334</ele><time>2026-03-22T09:10:31.236Z</time></trkpt><trkpt lat="44.5120717" lon="10.1246966"><ele>519.6666666666666</ele><time>2026-03-22T09:10:32.242Z</time></trkpt><trkpt lat="44.5119301" lon="10.1246358"><ele>521.0</ele><time>2026-03-22T09:10:33.239Z</time></trkpt><trkpt lat="44.5117974" lon="10.1245261"><ele>521.0</ele><time>2026-03-22T09:10:34.245Z</time></trkpt><trkpt lat="44.5116797" lon="10.1243467"><ele>521.0</ele><time>2026-03-22T09:10:35.236Z</time></trkpt><trkpt lat="44.5115349" lon="10.1242114"><ele>521.0</ele><time>2026-03-22T09:10:36.235Z</time></trkpt><trkpt lat="44.5113787" lon="10.1241063"><ele>520.0</ele><time>2026-03-22T09:10:37.237Z</time></trkpt><trkpt lat="44.5112226" lon="10.1240641"><ele>519.0</ele><time>2026-03-22T09:10:38.235Z</time></trkpt><trkpt lat="44.5110635" lon="10.1240693"><ele>518.0</ele><time>2026-03-22T09:10:39.231Z</time></trkpt><trkpt lat="44.5108962" lon="10.1241042"><ele>518.0</ele><time>2026-03-22T09:10:40.235Z</time></trkpt><trkpt lat="44.5107148" lon="10.1241608"><ele>518.0</ele><time>2026-03-22T09:10:41.239Z</time></trkpt><trkpt lat="44.5105425" lon="10.1242218"><ele>518.0</ele><time>2026-03-22T09:10:42.232Z</time></trkpt><trkpt lat="44.5103927" lon="10.1242745"><ele>520.6666666666666</ele><time>2026-03-22T09:10:43.236Z</time></trkpt><trkpt lat="44.5102648" lon="10.1243009"><ele>523.3333333333334</ele><time>2026-03-22T09:10:44.231Z</time></trkpt><trkpt lat="44.5101177" lon="10.1242777"><ele>526.0</ele><time>2026-03-22T09:10:45.234Z</time></trkpt><trkpt lat="44.5099461" lon="10.1241838"><ele>526.0</ele><time>2026-03-22T09:10:46.238Z</time></trkpt><trkpt lat="44.5097639" lon="10.1240846"><ele>526.0</ele><time>2026-03-22T09:10:47.229Z</time></trkpt><trkpt lat="44.5095464" lon="10.1240209"><ele>526.0</ele><time>2026-03-22T09:10:48.243Z</time></trkpt><trkpt lat="44.5093158" lon="10.1239532"><ele>529.6666666666667</ele><time>2026-03-22T09:10:49.237Z</time></trkpt><trkpt lat="44.5090921" lon="10.1239035"><ele>533.3333333333334</ele><time>2026-03-22T09:10:50.239Z</time></trkpt><trkpt lat="44.5088786" lon="10.1238505"><ele>537.0</ele><time>2026-03-22T09:10:51.24Z</time></trkpt><trkpt lat="44.5086726" lon="10.1237798"><ele>537.3333333333334</ele><time>2026-03-22T09:10:52.241Z</time></trkpt><trkpt lat="44.5084675" lon="10.1237137"><ele>537.6666666666667</ele><time>2026-03-22T09:10:53.24Z</time></trkpt><trkpt lat="44.5082829" lon="10.1236381"><ele>538.0</ele><time>2026-03-22T09:10:54.242Z</time></trkpt><trkpt lat="44.5081129" lon="10.1235652"><ele>538.0</ele><time>2026-03-22T09:10:55.238Z</time></trkpt><trkpt lat="44.5079752" lon="10.1234555"><ele>538.0</ele><time>2026-03-22T09:10:56.236Z</time></trkpt><trkpt lat="44.50786" lon="10.1233151"><ele>538.0</ele><time>2026-03-22T09:10:57.224Z</time></trkpt><trkpt lat="44.507755" lon="10.1231441"><ele>540.6666666666667</ele><time>2026-03-22T09:10:58.233Z</time></trkpt><trkpt lat="44.5076604" lon="10.122936"><ele>543.3333333333334</ele><time>2026-03-22T09:10:59.235Z</time></trkpt><trkpt lat="44.507568" lon="10.1227601"><ele>546.0</ele><time>2026-03-22T09:11:00.235Z</time></trkpt><trkpt lat="44.5074841" lon="10.1226217"><ele>546.0</ele><time>2026-03-22T09:11:01.239Z</time></trkpt><trkpt lat="44.5073785" lon="10.1225472"><ele>546.0</ele><time>2026-03-22T09:11:02.238Z</time></trkpt><trkpt lat="44.5072695" lon="10.1225347"><ele>546.0</ele><time>2026-03-22T09:11:03.24Z</time></trkpt><trkpt lat="44.5071631" lon="10.1225289"><ele>546.0</ele><time>2026-03-22T09:11:04.236Z</time></trkpt><trkpt lat="44.5070633" lon="10.1225067"><ele>546.0</ele><time>2026-03-22T09:11:05.242Z</time></trkpt><trkpt lat="44.5069517" lon="10.122506"><ele>545.0</ele><time>2026-03-22T09:11:06.232Z</time></trkpt><trkpt lat="44.506846" lon="10.122498"><ele>544.0</ele><time>2026-03-22T09:11:07.237Z</time></trkpt><trkpt lat="44.5067324" lon="10.1224893"><ele>543.0</ele><time>2026-03-22T09:11:08.237Z</time></trkpt><trkpt lat="44.5066172" lon="10.1224576"><ele>542.0</ele><time>2026-03-22T09:11:09.239Z</time></trkpt><trkpt lat="44.5065005" lon="10.1223832"><ele>542.3333333333333</ele><time>2026-03-22T09:11:10.245Z</time></trkpt><trkpt lat="44.5063903" lon="10.1222508"><ele>542.6666666666666</ele><time>2026-03-22T09:11:11.245Z</time></trkpt><trkpt lat="44.5062733" lon="10.1220053"><ele>543.0</ele><time>2026-03-22T09:11:12.239Z</time></trkpt><trkpt lat="44.5061472" lon="10.1217648"><ele>547.0</ele><time>2026-03-22T09:11:13.246Z</time></trkpt><trkpt lat="44.5060053" lon="10.1215192"><ele>551.0</ele><time>2026-03-22T09:11:14.24Z</time></trkpt><trkpt lat="44.5058663" lon="10.121294"><ele>555.0</ele><time>2026-03-22T09:11:15.238Z</time></trkpt><trkpt lat="44.5057548" lon="10.1211028"><ele>555.0</ele><time>2026-03-22T09:11:16.242Z</time></trkpt><trkpt lat="44.5056464" lon="10.1209012"><ele>555.0</ele><time>2026-03-22T09:11:17.238Z</time></trkpt><trkpt lat="44.5055816" lon="10.1206588"><ele>555.0</ele><time>2026-03-22T09:11:18.24Z</time></trkpt><trkpt lat="44.5055374" lon="10.120382"><ele>556.0</ele><time>2026-03-22T09:11:19.242Z</time></trkpt><trkpt lat="44.5054908" lon="10.1200729"><ele>557.0</ele><time>2026-03-22T09:11:20.238Z</time></trkpt><trkpt lat="44.5054223" lon="10.1197921"><ele>558.0</ele><time>2026-03-22T09:11:21.245Z</time></trkpt><trkpt lat="44.5053548" lon="10.1194816"><ele>558.0</ele><time>2026-03-22T09:11:22.245Z</time></trkpt><trkpt lat="44.5053036" lon="10.1191747"><ele>558.0</ele><time>2026-03-22T09:11:23.241Z</time></trkpt><trkpt lat="44.5052766" lon="10.1188807"><ele>558.0</ele><time>2026-03-22T09:11:24.238Z</time></trkpt><trkpt lat="44.5052303" lon="10.1186328"><ele>560.6666666666666</ele><time>2026-03-22T09:11:25.239Z</time></trkpt><trkpt lat="44.5051679" lon="10.1183978"><ele>563.3333333333333</ele><time>2026-03-22T09:11:26.238Z</time></trkpt><trkpt lat="44.5051148" lon="10.1181825"><ele>566.0</ele><time>2026-03-22T09:11:27.243Z</time></trkpt><trkpt lat="44.5050482" lon="10.1180435"><ele>568.25</ele><time>2026-03-22T09:11:28.241Z</time></trkpt><trkpt lat="44.5049704" lon="10.1179114"><ele>570.5</ele><time>2026-03-22T09:11:29.238Z</time></trkpt><trkpt lat="44.5048696" lon="10.1178025"><ele>572.75</ele><time>2026-03-22T09:11:30.238Z</time></trkpt><trkpt lat="44.5047541" lon="10.1177257"><ele>575.0</ele><time>2026-03-22T09:11:31.231Z</time></trkpt><trkpt lat="44.5046146" lon="10.1176991"><ele>574.5</ele><time>2026-03-22T09:11:32.236Z</time></trkpt><trkpt lat="44.5044867" lon="10.1177119"><ele>574.0</ele><time>2026-03-22T09:11:33.24Z</time></trkpt><trkpt lat="44.5043675" lon="10.1177059"><ele>573.5</ele><time>2026-03-22T09:11:34.237Z</time></trkpt><trkpt lat="44.5042474" lon="10.1176963"><ele>573.0</ele><time>2026-03-22T09:11:35.241Z</time></trkpt><trkpt lat="44.5041309" lon="10.1176644"><ele>573.0</ele><time>2026-03-22T09:11:36.245Z</time></trkpt><trkpt lat="44.504017" lon="10.1176054"><ele>573.0</ele><time>2026-03-22T09:11:37.234Z</time></trkpt><trkpt lat="44.5039139" lon="10.1175154"><ele>573.0</ele><time>2026-03-22T09:11:38.242Z</time></trkpt><trkpt lat="44.5038194" lon="10.1173867"><ele>573.0</ele><time>2026-03-22T09:11:39.23Z</time></trkpt><trkpt lat="44.5037267" lon="10.1172421"><ele>573.3333333333334</ele><time>2026-03-22T09:11:40.241Z</time></trkpt><trkpt lat="44.5036406" lon="10.1170855"><ele>573.6666666666667</ele><time>2026-03-22T09:11:41.238Z</time></trkpt><trkpt lat="44.5035895" lon="10.1168772"><ele>574.0</ele><time>2026-03-22T09:11:42.242Z</time></trkpt><trkpt lat="44.5035253" lon="10.1166609"><ele>576.3333333333334</ele><time>2026-03-22T09:11:43.231Z</time></trkpt><trkpt lat="44.5034349" lon="10.1164357"><ele>578.6666666666666</ele><time>2026-03-22T09:11:44.232Z</time></trkpt><trkpt lat="44.5033162" lon="10.1162101"><ele>581.0</ele><time>2026-03-22T09:11:45.253Z</time></trkpt><trkpt lat="44.5031719" lon="10.116003"><ele>581.0</ele><time>2026-03-22T09:11:46.236Z</time></trkpt><trkpt lat="44.5029934" lon="10.1158181"><ele>581.0</ele><time>2026-03-22T09:11:47.23Z</time></trkpt><trkpt lat="44.5028238" lon="10.1156453"><ele>581.0</ele><time>2026-03-22T09:11:48.234Z</time></trkpt><trkpt lat="44.5026563" lon="10.1155234"><ele>582.0</ele><time>2026-03-22T09:11:49.236Z</time></trkpt><trkpt lat="44.5024799" lon="10.1154478"><ele>583.0</ele><time>2026-03-22T09:11:50.237Z</time></trkpt><trkpt lat="44.5023158" lon="10.1153532"><ele>584.0</ele><time>2026-03-22T09:11:51.23Z</time></trkpt><trkpt lat="44.502171" lon="10.1152249"><ele>587.3333333333333</ele><time>2026-03-22T09:11:52.24Z</time></trkpt><trkpt lat="44.5020205" lon="10.1150493"><ele>590.6666666666666</ele><time>2026-03-22T09:11:53.228Z</time></trkpt><trkpt lat="44.5018423" lon="10.1148871"><ele>594.0</ele><time>2026-03-22T09:11:54.237Z</time></trkpt><trkpt lat="44.501656" lon="10.1147291"><ele>594.0</ele><time>2026-03-22T09:11:55.232Z</time></trkpt><trkpt lat="44.5014699" lon="10.1145839"><ele>594.0</ele><time>2026-03-22T09:11:56.236Z</time></trkpt><trkpt lat="44.5012946" lon="10.1144761"><ele>594.0</ele><time>2026-03-22T09:11:57.242Z</time></trkpt><trkpt lat="44.5011291" lon="10.1143779"><ele>589.3333333333334</ele><time>2026-03-22T09:11:58.232Z</time></trkpt><trkpt lat="44.5009671" lon="10.1143025"><ele>584.6666666666667</ele><time>2026-03-22T09:11:59.236Z</time></trkpt><trkpt lat="44.500815" lon="10.1142235"><ele>580.0</ele><time>2026-03-22T09:12:00.247Z</time></trkpt><trkpt lat="44.5006682" lon="10.1141872"><ele>580.0</ele><time>2026-03-22T09:12:01.246Z</time></trkpt><trkpt lat="44.5005389" lon="10.1141897"><ele>580.0</ele><time>2026-03-22T09:12:02.245Z</time></trkpt><trkpt lat="44.5004137" lon="10.1142719"><ele>580.0</ele><time>2026-03-22T09:12:03.252Z</time></trkpt><trkpt lat="44.500305" lon="10.1143842"><ele>580.0</ele><time>2026-03-22T09:12:04.243Z</time></trkpt><trkpt lat="44.5002253" lon="10.1145438"><ele>580.25</ele><time>2026-03-22T09:12:05.241Z</time></trkpt><trkpt lat="44.500164" lon="10.1147157"><ele>580.5</ele><time>2026-03-22T09:12:06.238Z</time></trkpt><trkpt lat="44.5000866" lon="10.1148321"><ele>580.75</ele><time>2026-03-22T09:12:07.248Z</time></trkpt><trkpt lat="44.5000009" lon="10.1149101"><ele>581.0</ele><time>2026-03-22T09:12:08.238Z</time></trkpt><trkpt lat="44.4999035" lon="10.1149723"><ele>581.0</ele><time>2026-03-22T09:12:09.242Z</time></trkpt><trkpt lat="44.4997953" lon="10.114987"><ele>581.0</ele><time>2026-03-22T09:12:10.246Z</time></trkpt><trkpt lat="44.4997042" lon="10.1149416"><ele>581.0</ele><time>2026-03-22T09:12:11.248Z</time></trkpt><trkpt lat="44.4996315" lon="10.1148519"><ele>581.0</ele><time>2026-03-22T09:12:12.249Z</time></trkpt><trkpt lat="44.4995639" lon="10.114706"><ele>581.0</ele><time>2026-03-22T09:12:13.246Z</time></trkpt><trkpt lat="44.4994924" lon="10.114516"><ele>577.0</ele><time>2026-03-22T09:12:14.244Z</time></trkpt><trkpt lat="44.4994342" lon="10.1142364"><ele>573.0</ele><time>2026-03-22T09:12:15.243Z</time></trkpt><trkpt lat="44.499396" lon="10.1139966"><ele>569.0</ele><time>2026-03-22T09:12:16.247Z</time></trkpt><trkpt lat="44.4993656" lon="10.1137588"><ele>569.0</ele><time>2026-03-22T09:12:17.246Z</time></trkpt><trkpt lat="44.4993296" lon="10.1135458"><ele>569.0</ele><time>2026-03-22T09:12:18.251Z</time></trkpt><trkpt lat="44.4992491" lon="10.11337"><ele>569.0</ele><time>2026-03-22T09:12:19.244Z</time></trkpt><trkpt lat="44.4991205" lon="10.1132142"><ele>571.3333333333333</ele><time>2026-03-22T09:12:20.252Z</time></trkpt><trkpt lat="44.4989342" lon="10.1130804"><ele>573.6666666666666</ele><time>2026-03-22T09:12:21.24Z</time></trkpt><trkpt lat="44.4987824" lon="10.1129639"><ele>576.0</ele><time>2026-03-22T09:12:22.25Z</time></trkpt><trkpt lat="44.4986359" lon="10.1128576"><ele>576.0</ele><time>2026-03-22T09:12:23.246Z</time></trkpt><trkpt lat="44.4984843" lon="10.1127903"><ele>576.0</ele><time>2026-03-22T09:12:24.25Z</time></trkpt><trkpt lat="44.4983253" lon="10.1127639"><ele>576.0</ele><time>2026-03-22T09:12:25.256Z</time></trkpt><trkpt lat="44.4981705" lon="10.112737"><ele>576.0</ele><time>2026-03-22T09:12:26.243Z</time></trkpt><trkpt lat="44.4980223" lon="10.1126987"><ele>576.0</ele><time>2026-03-22T09:12:27.245Z</time></trkpt><trkpt lat="44.4978643" lon="10.1126155"><ele>576.0</ele><time>2026-03-22T09:12:28.245Z</time></trkpt><trkpt lat="44.4977229" lon="10.1125084"><ele>577.3333333333334</ele><time>2026-03-22T09:12:29.246Z</time></trkpt><trkpt lat="44.4975525" lon="10.112388"><ele>578.6666666666667</ele><time>2026-03-22T09:12:30.244Z</time></trkpt><trkpt lat="44.4974018" lon="10.1122698"><ele>580.0</ele><time>2026-03-22T09:12:31.249Z</time></trkpt><trkpt lat="44.4972766" lon="10.1121279"><ele>580.0</ele><time>2026-03-22T09:12:32.246Z</time></trkpt><trkpt lat="44.4971847" lon="10.1119814"><ele>580.0</ele><time>2026-03-22T09:12:33.251Z</time></trkpt><trkpt lat="44.4970903" lon="10.1118179"><ele>580.0</ele><time>2026-03-22T09:12:34.254Z</time></trkpt><trkpt lat="44.4970397" lon="10.1116168"><ele>580.0</ele><time>2026-03-22T09:12:35.251Z</time></trkpt><trkpt lat="44.496995" lon="10.1114197"><ele>575.6666666666667</ele><time>2026-03-22T09:12:36.251Z</time></trkpt><trkpt lat="44.4969916" lon="10.1112299"><ele>571.3333333333334</ele><time>2026-03-22T09:12:37.261Z</time></trkpt><trkpt lat="44.4970133" lon="10.1110067"><ele>567.0</ele><time>2026-03-22T09:12:38.258Z</time></trkpt><trkpt lat="44.4970821" lon="10.1107734"><ele>573.3333333333334</ele><time>2026-03-22T09:12:39.248Z</time></trkpt><trkpt lat="44.4971306" lon="10.1105264"><ele>579.6666666666667</ele><time>2026-03-22T09:12:40.241Z</time></trkpt><trkpt lat="44.497147" lon="10.1102922"><ele>586.0</ele><time>2026-03-22T09:12:41.25Z</time></trkpt><trkpt lat="44.4971588" lon="10.1100649"><ele>588.3333333333334</ele><time>2026-03-22T09:12:42.252Z</time></trkpt><trkpt lat="44.4971045" lon="10.1098064"><ele>590.6666666666666</ele><time>2026-03-22T09:12:43.245Z</time></trkpt><trkpt lat="44.4970161" lon="10.10956"><ele>593.0</ele><time>2026-03-22T09:12:44.252Z</time></trkpt><trkpt lat="44.4969243" lon="10.1093441"><ele>592.6666666666666</ele><time>2026-03-22T09:12:45.244Z</time></trkpt><trkpt lat="44.4968258" lon="10.1091401"><ele>592.3333333333334</ele><time>2026-03-22T09:12:46.244Z</time></trkpt><trkpt lat="44.4967338" lon="10.1089584"><ele>592.0</ele><time>2026-03-22T09:12:47.242Z</time></trkpt><trkpt lat="44.4966124" lon="10.1088195"><ele>592.0</ele><time>2026-03-22T09:12:48.252Z</time></trkpt><trkpt lat="44.4964571" lon="10.1087182"><ele>592.0</ele><time>2026-03-22T09:12:49.247Z</time></trkpt><trkpt lat="44.4962597" lon="10.1086429"><ele>592.0</ele><time>2026-03-22T09:12:50.243Z</time></trkpt><trkpt lat="44.4960635" lon="10.1085829"><ele>588.3333333333334</ele><time>2026-03-22T09:12:51.254Z</time></trkpt><trkpt lat="44.4958711" lon="10.1085031"><ele>584.6666666666666</ele><time>2026-03-22T09:12:52.253Z</time></trkpt><trkpt lat="44.4957079" lon="10.1084022"><ele>581.0</ele><time>2026-03-22T09:12:53.241Z</time></trkpt><trkpt lat="44.4955598" lon="10.108287"><ele>581.3333333333333</ele><time>2026-03-22T09:12:54.254Z</time></trkpt><trkpt lat="44.4954393" lon="10.1081518"><ele>581.6666666666666</ele><time>2026-03-22T09:12:55.253Z</time></trkpt><trkpt lat="44.4953431" lon="10.1079734"><ele>582.0</ele><time>2026-03-22T09:12:56.252Z</time></trkpt><trkpt lat="44.4952893" lon="10.1077705"><ele>582.0</ele><time>2026-03-22T09:12:57.25Z</time></trkpt><trkpt lat="44.4952076" lon="10.1075796"><ele>582.0</ele><time>2026-03-22T09:12:58.251Z</time></trkpt><trkpt lat="44.4950922" lon="10.1074323"><ele>582.0</ele><time>2026-03-22T09:12:59.25Z</time></trkpt><trkpt lat="44.4949444" lon="10.107335"><ele>583.6666666666666</ele><time>2026-03-22T09:13:00.251Z</time></trkpt><trkpt lat="44.4947686" lon="10.1072942"><ele>585.3333333333333</ele><time>2026-03-22T09:13:01.248Z</time></trkpt><trkpt lat="44.4945995" lon="10.1072788"><ele>587.0</ele><time>2026-03-22T09:13:02.25Z</time></trkpt><trkpt lat="44.4944422" lon="10.107232"><ele>587.0</ele><time>2026-03-22T09:13:03.246Z</time></trkpt><trkpt lat="44.4942977" lon="10.1071296"><ele>587.0</ele><time>2026-03-22T09:13:04.255Z</time></trkpt><trkpt lat="44.4941655" lon="10.1069673"><ele>587.0</ele><time>2026-03-22T09:13:05.249Z</time></trkpt><trkpt lat="44.4940547" lon="10.1067532"><ele>589.0</ele><time>2026-03-22T09:13:06.25Z</time></trkpt><trkpt lat="44.4939339" lon="10.1065113"><ele>591.0</ele><time>2026-03-22T09:13:07.248Z</time></trkpt><trkpt lat="44.4938122" lon="10.1062773"><ele>593.0</ele><time>2026-03-22T09:13:08.247Z</time></trkpt><trkpt lat="44.4937087" lon="10.1060304"><ele>588.6666666666666</ele><time>2026-03-22T09:13:09.254Z</time></trkpt><trkpt lat="44.4935908" lon="10.105764"><ele>584.3333333333334</ele><time>2026-03-22T09:13:10.242Z</time></trkpt><trkpt lat="44.4934933" lon="10.1055133"><ele>580.0</ele><time>2026-03-22T09:13:11.248Z</time></trkpt><trkpt lat="44.4934112" lon="10.1052772"><ele>580.0</ele><time>2026-03-22T09:13:12.248Z</time></trkpt><trkpt lat="44.4933254" lon="10.105075"><ele>580.0</ele><time>2026-03-22T09:13:13.249Z</time></trkpt><trkpt lat="44.4932173" lon="10.1049345"><ele>580.0</ele><time>2026-03-22T09:13:14.251Z</time></trkpt><trkpt lat="44.4930965" lon="10.1048355"><ele>581.75</ele><time>2026-03-22T09:13:15.244Z</time></trkpt><trkpt lat="44.4929599" lon="10.1047798"><ele>583.5</ele><time>2026-03-22T09:13:16.252Z</time></trkpt><trkpt lat="44.49281" lon="10.1047718"><ele>585.25</ele><time>2026-03-22T09:13:17.247Z</time></trkpt><trkpt lat="44.4926623" lon="10.1047833"><ele>587.0</ele><time>2026-03-22T09:13:18.248Z</time></trkpt><trkpt lat="44.4925129" lon="10.1047947"><ele>587.0</ele><time>2026-03-22T09:13:19.25Z</time></trkpt><trkpt lat="44.4923763" lon="10.1048016"><ele>587.0</ele><time>2026-03-22T09:13:20.251Z</time></trkpt><trkpt lat="44.4922876" lon="10.1048109"><ele>587.0</ele><time>2026-03-22T09:13:21.251Z</time></trkpt><trkpt lat="44.4921885" lon="10.1047861"><ele>587.0</ele><time>2026-03-22T09:13:22.246Z</time></trkpt><trkpt lat="44.492091" lon="10.1047521"><ele>587.0</ele><time>2026-03-22T09:13:23.255Z</time></trkpt><trkpt lat="44.4920008" lon="10.1046917"><ele>583.75</ele><time>2026-03-22T09:13:24.254Z</time></trkpt><trkpt lat="44.4919057" lon="10.104616"><ele>580.5</ele><time>2026-03-22T09:13:25.249Z</time></trkpt><trkpt lat="44.4918178" lon="10.1045059"><ele>577.25</ele><time>2026-03-22T09:13:26.249Z</time></trkpt><trkpt lat="44.4917223" lon="10.1043808"><ele>574.0</ele><time>2026-03-22T09:13:27.256Z</time></trkpt><trkpt lat="44.4916238" lon="10.1042471"><ele>574.0</ele><time>2026-03-22T09:13:28.258Z</time></trkpt><trkpt lat="44.4915305" lon="10.1041062"><ele>574.0</ele><time>2026-03-22T09:13:29.258Z</time></trkpt><trkpt lat="44.4914371" lon="10.1039656"><ele>574.0</ele><time>2026-03-22T09:13:30.253Z</time></trkpt><trkpt lat="44.4913471" lon="10.1038475"><ele>574.0</ele><time>2026-03-22T09:13:31.263Z</time></trkpt><trkpt lat="44.4912727" lon="10.1037362"><ele>572.3333333333334</ele><time>2026-03-22T09:13:32.256Z</time></trkpt><trkpt lat="44.4912277" lon="10.1036628"><ele>570.6666666666667</ele><time>2026-03-22T09:13:33.246Z</time></trkpt><trkpt lat="44.4911649" lon="10.1035295"><ele>569.0</ele><time>2026-03-22T09:13:35.254Z</time></trkpt><trkpt lat="44.4911318" lon="10.1034313"><ele>567.3333333333334</ele><time>2026-03-22T09:13:37.254Z</time></trkpt><trkpt lat="44.4910993" lon="10.1033555"><ele>565.6666666666666</ele><time>2026-03-22T09:13:47.263Z</time></trkpt><trkpt lat="44.491105" lon="10.1032494"><ele>564.0</ele><time>2026-03-22T09:13:49.264Z</time></trkpt><trkpt lat="44.4911327" lon="10.1031568"><ele>564.0</ele><time>2026-03-22T09:13:50.254Z</time></trkpt><trkpt lat="44.4911717" lon="10.1030534"><ele>564.0</ele><time>2026-03-22T09:13:51.257Z</time></trkpt><trkpt lat="44.4912115" lon="10.1029006"><ele>564.0</ele><time>2026-03-22T09:13:52.25Z</time></trkpt><trkpt lat="44.4912227" lon="10.1027362"><ele>564.0</ele><time>2026-03-22T09:13:53.249Z</time></trkpt><trkpt lat="44.4912253" lon="10.1025496"><ele>565.0</ele><time>2026-03-22T09:13:54.282Z</time></trkpt><trkpt lat="44.4912383" lon="10.1023379"><ele>566.0</ele><time>2026-03-22T09:13:55.251Z</time></trkpt><trkpt lat="44.4912983" lon="10.1021307"><ele>567.0</ele><time>2026-03-22T09:13:56.259Z</time></trkpt><trkpt lat="44.4913692" lon="10.1019575"><ele>571.0</ele><time>2026-03-22T09:13:57.281Z</time></trkpt><trkpt lat="44.491428" lon="10.1017591"><ele>575.0</ele><time>2026-03-22T09:13:58.255Z</time></trkpt><trkpt lat="44.4914835" lon="10.1015223"><ele>579.0</ele><time>2026-03-22T09:13:59.254Z</time></trkpt><trkpt lat="44.4915477" lon="10.1013091"><ele>579.0</ele><time>2026-03-22T09:14:00.257Z</time></trkpt><trkpt lat="44.4916323" lon="10.1011202"><ele>579.0</ele><time>2026-03-22T09:14:01.257Z</time></trkpt><trkpt lat="44.4916904" lon="10.1009338"><ele>579.0</ele><time>2026-03-22T09:14:02.257Z</time></trkpt><trkpt lat="44.4917289" lon="10.100753"><ele>579.0</ele><time>2026-03-22T09:14:03.26Z</time></trkpt><trkpt lat="44.4917413" lon="10.1005623"><ele>580.2</ele><time>2026-03-22T09:14:04.251Z</time></trkpt><trkpt lat="44.4917551" lon="10.1004021"><ele>581.4</ele><time>2026-03-22T09:14:05.248Z</time></trkpt><trkpt lat="44.4917382" lon="10.1002402"><ele>582.6</ele><time>2026-03-22T09:14:06.245Z</time></trkpt><trkpt lat="44.4916939" lon="10.1001179"><ele>583.8</ele><time>2026-03-22T09:14:07.252Z</time></trkpt><trkpt lat="44.4916252" lon="10.1000229"><ele>585.0</ele><time>2026-03-22T09:14:08.254Z</time></trkpt><trkpt lat="44.4915304" lon="10.0999642"><ele>585.0</ele><time>2026-03-22T09:14:09.251Z</time></trkpt><trkpt lat="44.4914161" lon="10.0999461"><ele>585.0</ele><time>2026-03-22T09:14:10.237Z</time></trkpt><trkpt lat="44.491289" lon="10.0999606"><ele>585.0</ele><time>2026-03-22T09:14:11.258Z</time></trkpt><trkpt lat="44.4911538" lon="10.1000417"><ele>585.0</ele><time>2026-03-22T09:14:12.243Z</time></trkpt><trkpt lat="44.4910139" lon="10.1001655"><ele>587.0</ele><time>2026-03-22T09:14:13.241Z</time></trkpt><trkpt lat="44.4908552" lon="10.1002464"><ele>589.0</ele><time>2026-03-22T09:14:14.242Z</time></trkpt><trkpt lat="44.4907072" lon="10.1003079"><ele>591.0</ele><time>2026-03-22T09:14:15.244Z</time></trkpt><trkpt lat="44.4905664" lon="10.1003469"><ele>591.0</ele><time>2026-03-22T09:14:16.241Z</time></trkpt><trkpt lat="44.4904545" lon="10.1003711"><ele>591.0</ele><time>2026-03-22T09:14:17.241Z</time></trkpt><trkpt lat="44.4903568" lon="10.100346"><ele>591.0</ele><time>2026-03-22T09:14:18.246Z</time></trkpt><trkpt lat="44.4902678" lon="10.1002584"><ele>591.0</ele><time>2026-03-22T09:14:19.255Z</time></trkpt><trkpt lat="44.4902105" lon="10.1001498"><ele>591.0</ele><time>2026-03-22T09:14:20.25Z</time></trkpt><trkpt lat="44.4901674" lon="10.1000355"><ele>592.25</ele><time>2026-03-22T09:14:21.249Z</time></trkpt><trkpt lat="44.4901373" lon="10.0998528"><ele>593.5</ele><time>2026-03-22T09:14:22.25Z</time></trkpt><trkpt lat="44.490103" lon="10.0996358"><ele>594.75</ele><time>2026-03-22T09:14:23.26Z</time></trkpt><trkpt lat="44.4900521" lon="10.0994513"><ele>596.0</ele><time>2026-03-22T09:14:24.253Z</time></trkpt><trkpt lat="44.4899629" lon="10.0992783"><ele>596.0</ele><time>2026-03-22T09:14:25.249Z</time></trkpt><trkpt lat="44.4898696" lon="10.0991219"><ele>596.0</ele><time>2026-03-22T09:14:26.25Z</time></trkpt><trkpt lat="44.4897719" lon="10.0989921"><ele>596.0</ele><time>2026-03-22T09:14:27.251Z</time></trkpt><trkpt lat="44.4896705" lon="10.0988694"><ele>596.0</ele><time>2026-03-22T09:14:28.253Z</time></trkpt><trkpt lat="44.4895864" lon="10.0987653"><ele>591.25</ele><time>2026-03-22T09:14:29.255Z</time></trkpt><trkpt lat="44.4895066" lon="10.0986176"><ele>586.5</ele><time>2026-03-22T09:14:30.251Z</time></trkpt><trkpt lat="44.4894952" lon="10.0984511"><ele>581.75</ele><time>2026-03-22T09:14:31.252Z</time></trkpt><trkpt lat="44.4894993" lon="10.0982578"><ele>577.0</ele><time>2026-03-22T09:14:32.244Z</time></trkpt><trkpt lat="44.4895079" lon="10.0980087"><ele>577.0</ele><time>2026-03-22T09:14:33.254Z</time></trkpt><trkpt lat="44.4895286" lon="10.0977912"><ele>577.0</ele><time>2026-03-22T09:14:34.242Z</time></trkpt><trkpt lat="44.4895815" lon="10.097617"><ele>577.0</ele><time>2026-03-22T09:14:35.246Z</time></trkpt><trkpt lat="44.4896557" lon="10.0974416"><ele>577.0</ele><time>2026-03-22T09:14:36.249Z</time></trkpt><trkpt lat="44.4897556" lon="10.0972282"><ele>588.3333333333334</ele><time>2026-03-22T09:14:37.24Z</time></trkpt><trkpt lat="44.4898522" lon="10.0970271"><ele>599.6666666666666</ele><time>2026-03-22T09:14:38.243Z</time></trkpt><trkpt lat="44.4899168" lon="10.096829"><ele>611.0</ele><time>2026-03-22T09:14:39.235Z</time></trkpt><trkpt lat="44.4899615" lon="10.0966666"><ele>614.0</ele><time>2026-03-22T09:14:40.24Z</time></trkpt><trkpt lat="44.4899764" lon="10.0965301"><ele>617.0</ele><time>2026-03-22T09:14:41.24Z</time></trkpt><trkpt lat="44.4899461" lon="10.0963856"><ele>620.0</ele><time>2026-03-22T09:14:42.238Z</time></trkpt><trkpt lat="44.4898857" lon="10.0962374"><ele>623.0</ele><time>2026-03-22T09:14:43.231Z</time></trkpt><trkpt lat="44.4898045" lon="10.096083"><ele>623.0</ele><time>2026-03-22T09:14:44.23Z</time></trkpt><trkpt lat="44.489697" lon="10.0958903"><ele>623.0</ele><time>2026-03-22T09:14:45.232Z</time></trkpt><trkpt lat="44.4895542" lon="10.095732"><ele>623.0</ele><time>2026-03-22T09:14:46.24Z</time></trkpt><trkpt lat="44.4894046" lon="10.0956331"><ele>619.25</ele><time>2026-03-22T09:14:47.242Z</time></trkpt><trkpt lat="44.489272" lon="10.0955458"><ele>615.5</ele><time>2026-03-22T09:14:48.246Z</time></trkpt><trkpt lat="44.4891644" lon="10.0954426"><ele>611.75</ele><time>2026-03-22T09:14:49.244Z</time></trkpt><trkpt lat="44.4890633" lon="10.0952839"><ele>608.0</ele><time>2026-03-22T09:14:50.246Z</time></trkpt><trkpt lat="44.4889803" lon="10.095063"><ele>607.0</ele><time>2026-03-22T09:14:51.249Z</time></trkpt><trkpt lat="44.4888938" lon="10.0948718"><ele>606.0</ele><time>2026-03-22T09:14:52.252Z</time></trkpt><trkpt lat="44.4888199" lon="10.0946728"><ele>605.0</ele><time>2026-03-22T09:14:53.251Z</time></trkpt><trkpt lat="44.4887904" lon="10.0944538"><ele>605.0</ele><time>2026-03-22T09:14:54.251Z</time></trkpt><trkpt lat="44.488777" lon="10.0942199"><ele>605.0</ele><time>2026-03-22T09:14:55.25Z</time></trkpt><trkpt lat="44.4887501" lon="10.0940244"><ele>605.0</ele><time>2026-03-22T09:14:56.254Z</time></trkpt><trkpt lat="44.4886803" lon="10.0938303"><ele>602.0</ele><time>2026-03-22T09:14:57.255Z</time></trkpt><trkpt lat="44.4886039" lon="10.0936729"><ele>599.0</ele><time>2026-03-22T09:14:58.251Z</time></trkpt><trkpt lat="44.4885002" lon="10.0935534"><ele>596.0</ele><time>2026-03-22T09:14:59.248Z</time></trkpt><trkpt lat="44.4883743" lon="10.0934851"><ele>593.0</ele><time>2026-03-22T09:15:00.24Z</time></trkpt><trkpt lat="44.4882356" lon="10.0934767"><ele>593.0</ele><time>2026-03-22T09:15:01.236Z</time></trkpt><trkpt lat="44.4880761" lon="10.0934922"><ele>593.0</ele><time>2026-03-22T09:15:02.235Z</time></trkpt><trkpt lat="44.4878884" lon="10.0934829"><ele>593.0</ele><time>2026-03-22T09:15:03.241Z</time></trkpt><trkpt lat="44.4877263" lon="10.0933988"><ele>593.6666666666666</ele><time>2026-03-22T09:15:04.233Z</time></trkpt><trkpt lat="44.4875722" lon="10.093321"><ele>594.3333333333334</ele><time>2026-03-22T09:15:05.239Z</time></trkpt><trkpt lat="44.4874265" lon="10.0932484"><ele>595.0</ele><time>2026-03-22T09:15:06.241Z</time></trkpt><trkpt lat="44.4873106" lon="10.0931504"><ele>595.0</ele><time>2026-03-22T09:15:07.237Z</time></trkpt><trkpt lat="44.4872154" lon="10.0930426"><ele>595.0</ele><time>2026-03-22T09:15:08.235Z</time></trkpt><trkpt lat="44.487149" lon="10.0929095"><ele>595.0</ele><time>2026-03-22T09:15:09.247Z</time></trkpt><trkpt lat="44.4871264" lon="10.0927182"><ele>595.0</ele><time>2026-03-22T09:15:10.238Z</time></trkpt><trkpt lat="44.4871369" lon="10.0924944"><ele>598.0</ele><time>2026-03-22T09:15:11.252Z</time></trkpt><trkpt lat="44.4871316" lon="10.0922126"><ele>601.0</ele><time>2026-03-22T09:15:12.251Z</time></trkpt><trkpt lat="44.4871201" lon="10.0919434"><ele>604.0</ele><time>2026-03-22T09:15:13.257Z</time></trkpt><trkpt lat="44.4870697" lon="10.0916802"><ele>601.0</ele><time>2026-03-22T09:15:14.252Z</time></trkpt><trkpt lat="44.4869863" lon="10.0914321"><ele>598.0</ele><time>2026-03-22T09:15:15.26Z</time></trkpt><trkpt lat="44.4868996" lon="10.0912016"><ele>595.0</ele><time>2026-03-22T09:15:16.245Z</time></trkpt><trkpt lat="44.4868142" lon="10.0909925"><ele>595.0</ele><time>2026-03-22T09:15:17.25Z</time></trkpt><trkpt lat="44.4867825" lon="10.0907718"><ele>595.0</ele><time>2026-03-22T09:15:18.247Z</time></trkpt><trkpt lat="44.486769" lon="10.0905514"><ele>595.0</ele><time>2026-03-22T09:15:19.246Z</time></trkpt><trkpt lat="44.4867662" lon="10.0903528"><ele>596.25</ele><time>2026-03-22T09:15:20.249Z</time></trkpt><trkpt lat="44.4867876" lon="10.0902023"><ele>597.5</ele><time>2026-03-22T09:15:21.242Z</time></trkpt><trkpt lat="44.4868667" lon="10.0900705"><ele>598.75</ele><time>2026-03-22T09:15:22.239Z</time></trkpt><trkpt lat="44.4869171" lon="10.089897"><ele>600.0</ele><time>2026-03-22T09:15:23.241Z</time></trkpt><trkpt lat="44.4869474" lon="10.0897196"><ele>602.25</ele><time>2026-03-22T09:15:24.251Z</time></trkpt><trkpt lat="44.4869288" lon="10.0895378"><ele>604.5</ele><time>2026-03-22T09:15:25.249Z</time></trkpt><trkpt lat="44.4868829" lon="10.089351"><ele>606.75</ele><time>2026-03-22T09:15:26.25Z</time></trkpt><trkpt lat="44.4868037" lon="10.0891887"><ele>609.0</ele><time>2026-03-22T09:15:27.25Z</time></trkpt><trkpt lat="44.4866963" lon="10.0890605"><ele>613.6666666666666</ele><time>2026-03-22T09:15:28.26Z</time></trkpt><trkpt lat="44.4865615" lon="10.0889716"><ele>618.3333333333333</ele><time>2026-03-22T09:15:29.257Z</time></trkpt><trkpt lat="44.4863891" lon="10.0889343"><ele>623.0</ele><time>2026-03-22T09:15:30.246Z</time></trkpt><trkpt lat="44.4862498" lon="10.0888977"><ele>623.0</ele><time>2026-03-22T09:15:31.258Z</time></trkpt><trkpt lat="44.4861146" lon="10.0888115"><ele>623.0</ele><time>2026-03-22T09:15:32.266Z</time></trkpt><trkpt lat="44.4860145" lon="10.0886876"><ele>623.0</ele><time>2026-03-22T09:15:33.254Z</time></trkpt><trkpt lat="44.4859247" lon="10.0884961"><ele>623.0</ele><time>2026-03-22T09:15:34.26Z</time></trkpt><trkpt lat="44.4858485" lon="10.0882627"><ele>628.0</ele><time>2026-03-22T09:15:35.25Z</time></trkpt><trkpt lat="44.4857957" lon="10.0880284"><ele>633.0</ele><time>2026-03-22T09:15:36.25Z</time></trkpt><trkpt lat="44.4857102" lon="10.0878599"><ele>638.0</ele><time>2026-03-22T09:15:37.257Z</time></trkpt><trkpt lat="44.4856069" lon="10.0877269"><ele>638.0</ele><time>2026-03-22T09:15:38.253Z</time></trkpt><trkpt lat="44.4854995" lon="10.0876157"><ele>638.0</ele><time>2026-03-22T09:15:39.253Z</time></trkpt><trkpt lat="44.485409" lon="10.0874837"><ele>638.0</ele><time>2026-03-22T09:15:40.251Z</time></trkpt><trkpt lat="44.485345" lon="10.0873396"><ele>638.0</ele><time>2026-03-22T09:15:41.259Z</time></trkpt><trkpt lat="44.4853204" lon="10.087155"><ele>631.3333333333333</ele><time>2026-03-22T09:15:42.255Z</time></trkpt><trkpt lat="44.4853379" lon="10.0869444"><ele>624.6666666666666</ele><time>2026-03-22T09:15:43.248Z</time></trkpt><trkpt lat="44.4853564" lon="10.0867033"><ele>618.0</ele><time>2026-03-22T09:15:44.268Z</time></trkpt><trkpt lat="44.4853662" lon="10.0864542"><ele>618.0</ele><time>2026-03-22T09:15:45.243Z</time></trkpt><trkpt lat="44.4853956" lon="10.0862549"><ele>618.0</ele><time>2026-03-22T09:15:46.252Z</time></trkpt><trkpt lat="44.48544" lon="10.0860756"><ele>618.0</ele><time>2026-03-22T09:15:47.251Z</time></trkpt><trkpt lat="44.4855249" lon="10.0859233"><ele>618.0</ele><time>2026-03-22T09:15:48.246Z</time></trkpt><trkpt lat="44.4856405" lon="10.0857821"><ele>623.0</ele><time>2026-03-22T09:15:49.244Z</time></trkpt><trkpt lat="44.4858057" lon="10.0856829"><ele>628.0</ele><time>2026-03-22T09:15:50.232Z</time></trkpt><trkpt lat="44.4859861" lon="10.0855866"><ele>633.0</ele><time>2026-03-22T09:15:51.237Z</time></trkpt><trkpt lat="44.4861567" lon="10.0854817"><ele>637.3333333333334</ele><time>2026-03-22T09:15:52.229Z</time></trkpt><trkpt lat="44.4863249" lon="10.0853557"><ele>641.6666666666667</ele><time>2026-03-22T09:15:53.229Z</time></trkpt><trkpt lat="44.4864987" lon="10.085205"><ele>646.0</ele><time>2026-03-22T09:15:54.231Z</time></trkpt><trkpt lat="44.4866628" lon="10.0850367"><ele>643.0</ele><time>2026-03-22T09:15:55.228Z</time></trkpt><trkpt lat="44.4868209" lon="10.0848806"><ele>640.0</ele><time>2026-03-22T09:15:56.234Z</time></trkpt><trkpt lat="44.4869413" lon="10.0847128"><ele>637.0</ele><time>2026-03-22T09:15:57.242Z</time></trkpt><trkpt lat="44.4870846" lon="10.0845199"><ele>639.0</ele><time>2026-03-22T09:15:58.236Z</time></trkpt><trkpt lat="44.4872069" lon="10.0843112"><ele>641.0</ele><time>2026-03-22T09:15:59.234Z</time></trkpt><trkpt lat="44.4872939" lon="10.0840679"><ele>643.0</ele><time>2026-03-22T09:16:00.239Z</time></trkpt><trkpt lat="44.4873681" lon="10.0838241"><ele>643.0</ele><time>2026-03-22T09:16:01.235Z</time></trkpt><trkpt lat="44.4874046" lon="10.0835827"><ele>643.0</ele><time>2026-03-22T09:16:02.234Z</time></trkpt><trkpt lat="44.4874532" lon="10.083346"><ele>643.0</ele><time>2026-03-22T09:16:03.231Z</time></trkpt><trkpt lat="44.4874703" lon="10.0830774"><ele>639.3333333333334</ele><time>2026-03-22T09:16:04.231Z</time></trkpt><trkpt lat="44.48747" lon="10.0828168"><ele>635.6666666666666</ele><time>2026-03-22T09:16:05.233Z</time></trkpt><trkpt lat="44.4874614" lon="10.0825502"><ele>632.0</ele><time>2026-03-22T09:16:06.229Z</time></trkpt><trkpt lat="44.4874223" lon="10.0822685"><ele>632.0</ele><time>2026-03-22T09:16:07.234Z</time></trkpt><trkpt lat="44.4873542" lon="10.0819766"><ele>632.0</ele><time>2026-03-22T09:16:08.237Z</time></trkpt><trkpt lat="44.4872812" lon="10.0817158"><ele>632.0</ele><time>2026-03-22T09:16:09.242Z</time></trkpt><trkpt lat="44.4871943" lon="10.0814368"><ele>635.6666666666666</ele><time>2026-03-22T09:16:10.235Z</time></trkpt><trkpt lat="44.4871232" lon="10.0811715"><ele>639.3333333333334</ele><time>2026-03-22T09:16:11.248Z</time></trkpt><trkpt lat="44.4870462" lon="10.0808908"><ele>643.0</ele><time>2026-03-22T09:16:12.245Z</time></trkpt><trkpt lat="44.4869557" lon="10.0805974"><ele>644.0</ele><time>2026-03-22T09:16:13.251Z</time></trkpt><trkpt lat="44.4868622" lon="10.0802883"><ele>645.0</ele><time>2026-03-22T09:16:14.244Z</time></trkpt><trkpt lat="44.4867656" lon="10.080026"><ele>645.6666666666666</ele><time>2026-03-22T09:16:15.256Z</time></trkpt><trkpt lat="44.4867014" lon="10.079789"><ele>646.3333333333333</ele><time>2026-03-22T09:16:16.25Z</time></trkpt><trkpt lat="44.4866573" lon="10.0795585"><ele>647.0</ele><time>2026-03-22T09:16:17.249Z</time></trkpt><trkpt lat="44.4866347" lon="10.0793326"><ele>647.0</ele><time>2026-03-22T09:16:18.246Z</time></trkpt><trkpt lat="44.4866439" lon="10.0791337"><ele>647.0</ele><time>2026-03-22T09:16:19.24Z</time></trkpt><trkpt lat="44.4867107" lon="10.078942"><ele>647.0</ele><time>2026-03-22T09:16:20.246Z</time></trkpt><trkpt lat="44.4867993" lon="10.0787322"><ele>648.25</ele><time>2026-03-22T09:16:21.233Z</time></trkpt><trkpt lat="44.4868872" lon="10.0785685"><ele>649.5</ele><time>2026-03-22T09:16:22.24Z</time></trkpt><trkpt lat="44.4869582" lon="10.0784176"><ele>650.75</ele><time>2026-03-22T09:16:23.226Z</time></trkpt><trkpt lat="44.4870377" lon="10.0782558"><ele>652.0</ele><time>2026-03-22T09:16:24.226Z</time></trkpt><trkpt lat="44.4871493" lon="10.0780953"><ele>654.0</ele><time>2026-03-22T09:16:25.214Z</time></trkpt><trkpt lat="44.4869212" lon="10.0778894"><ele>656.0</ele><time>2026-03-22T09:16:26.223Z</time></trkpt><trkpt lat="44.4867984" lon="10.0775984"><ele>656.0</ele><time>2026-03-22T09:16:27.227Z</time></trkpt><trkpt lat="44.4867427" lon="10.077439"><ele>656.0</ele><time>2026-03-22T09:16:28.23Z</time></trkpt><trkpt lat="44.4866826" lon="10.0772719"><ele>656.0</ele><time>2026-03-22T09:16:29.235Z</time></trkpt><trkpt lat="44.4865836" lon="10.0771007"><ele>656.0</ele><time>2026-03-22T09:16:30.243Z</time></trkpt><trkpt lat="44.486471" lon="10.0769568"><ele>655.75</ele><time>2026-03-22T09:16:31.238Z</time></trkpt><trkpt lat="44.4864002" lon="10.0767914"><ele>655.5</ele><time>2026-03-22T09:16:32.242Z</time></trkpt><trkpt lat="44.4863153" lon="10.0766339"><ele>655.25</ele><time>2026-03-22T09:16:33.24Z</time></trkpt><trkpt lat="44.4862969" lon="10.0764767"><ele>655.0</ele><time>2026-03-22T09:16:34.25Z</time></trkpt><trkpt lat="44.4862963" lon="10.0763338"><ele>650.25</ele><time>2026-03-22T09:16:35.241Z</time></trkpt><trkpt lat="44.4863187" lon="10.0761971"><ele>645.5</ele><time>2026-03-22T09:16:36.233Z</time></trkpt><trkpt lat="44.4863987" lon="10.0760833"><ele>640.75</ele><time>2026-03-22T09:16:37.237Z</time></trkpt><trkpt lat="44.4864782" lon="10.0759785"><ele>636.0</ele><time>2026-03-22T09:16:38.236Z</time></trkpt><trkpt lat="44.4865845" lon="10.0758669"><ele>635.0</ele><time>2026-03-22T09:16:39.23Z</time></trkpt><trkpt lat="44.4867115" lon="10.0757412"><ele>634.0</ele><time>2026-03-22T09:16:40.235Z</time></trkpt><trkpt lat="44.4868006" lon="10.0756028"><ele>633.0</ele><time>2026-03-22T09:16:41.233Z</time></trkpt><trkpt lat="44.4868616" lon="10.0754331"><ele>632.0</ele><time>2026-03-22T09:16:42.227Z</time></trkpt><trkpt lat="44.4868856" lon="10.0752557"><ele>632.0</ele><time>2026-03-22T09:16:43.235Z</time></trkpt><trkpt lat="44.4868887" lon="10.0750849"><ele>632.0</ele><time>2026-03-22T09:16:44.235Z</time></trkpt><trkpt lat="44.4868697" lon="10.0749263"><ele>632.0</ele><time>2026-03-22T09:16:45.237Z</time></trkpt><trkpt lat="44.4868117" lon="10.0747718"><ele>632.0</ele><time>2026-03-22T09:16:46.243Z</time></trkpt><trkpt lat="44.4867159" lon="10.0746447"><ele>630.6666666666666</ele><time>2026-03-22T09:16:47.235Z</time></trkpt><trkpt lat="44.4865866" lon="10.0745612"><ele>629.3333333333334</ele><time>2026-03-22T09:16:48.227Z</time></trkpt><trkpt lat="44.4864312" lon="10.0745003"><ele>628.0</ele><time>2026-03-22T09:16:49.233Z</time></trkpt><trkpt lat="44.4862027" lon="10.0744285"><ele>628.0</ele><time>2026-03-22T09:16:50.23Z</time></trkpt><trkpt lat="44.4860352" lon="10.0743179"><ele>628.0</ele><time>2026-03-22T09:16:51.224Z</time></trkpt><trkpt lat="44.4859029" lon="10.0741902"><ele>628.0</ele><time>2026-03-22T09:16:52.24Z</time></trkpt><trkpt lat="44.4857666" lon="10.0740647"><ele>626.75</ele><time>2026-03-22T09:16:53.23Z</time></trkpt><trkpt lat="44.4856323" lon="10.0739885"><ele>625.5</ele><time>2026-03-22T09:16:54.246Z</time></trkpt><trkpt lat="44.4854882" lon="10.0739348"><ele>624.25</ele><time>2026-03-22T09:16:55.237Z</time></trkpt><trkpt lat="44.485353" lon="10.0739091"><ele>623.0</ele><time>2026-03-22T09:16:56.244Z</time></trkpt><trkpt lat="44.4852104" lon="10.0738846"><ele>623.0</ele><time>2026-03-22T09:16:57.239Z</time></trkpt><trkpt lat="44.4850686" lon="10.0738249"><ele>623.0</ele><time>2026-03-22T09:16:58.239Z</time></trkpt><trkpt lat="44.4849322" lon="10.0736992"><ele>623.0</ele><time>2026-03-22T09:16:59.243Z</time></trkpt><trkpt lat="44.4847857" lon="10.0735278"><ele>623.0</ele><time>2026-03-22T09:17:00.238Z</time></trkpt><trkpt lat="44.4846366" lon="10.0733851"><ele>623.0</ele><time>2026-03-22T09:17:01.236Z</time></trkpt><trkpt lat="44.4845021" lon="10.0732909"><ele>623.0</ele><time>2026-03-22T09:17:02.245Z</time></trkpt><trkpt lat="44.4843787" lon="10.0732159"><ele>619.5</ele><time>2026-03-22T09:17:03.245Z</time></trkpt><trkpt lat="44.4842768" lon="10.0731319"><ele>616.0</ele><time>2026-03-22T09:17:04.248Z</time></trkpt><trkpt lat="44.4841988" lon="10.0730028"><ele>612.5</ele><time>2026-03-22T09:17:05.248Z</time></trkpt><trkpt lat="44.4841346" lon="10.0728316"><ele>609.0</ele><time>2026-03-22T09:17:06.24Z</time></trkpt><trkpt lat="44.4841214" lon="10.072631"><ele>609.75</ele><time>2026-03-22T09:17:07.241Z</time></trkpt><trkpt lat="44.4841241" lon="10.0724248"><ele>610.5</ele><time>2026-03-22T09:17:08.247Z</time></trkpt><trkpt lat="44.4840892" lon="10.0722254"><ele>611.25</ele><time>2026-03-22T09:17:09.243Z</time></trkpt><trkpt lat="44.4840287" lon="10.0720485"><ele>612.0</ele><time>2026-03-22T09:17:10.24Z</time></trkpt><trkpt lat="44.4839427" lon="10.0718695"><ele>612.0</ele><time>2026-03-22T09:17:11.247Z</time></trkpt><trkpt lat="44.4838184" lon="10.0717032"><ele>612.0</ele><time>2026-03-22T09:17:12.246Z</time></trkpt><trkpt lat="44.4836791" lon="10.0715627"><ele>612.0</ele><time>2026-03-22T09:17:13.248Z</time></trkpt><trkpt lat="44.4835326" lon="10.0714469"><ele>608.3333333333334</ele><time>2026-03-22T09:17:14.245Z</time></trkpt><trkpt lat="44.4833921" lon="10.0713277"><ele>604.6666666666667</ele><time>2026-03-22T09:17:15.25Z</time></trkpt><trkpt lat="44.4832511" lon="10.0712338"><ele>601.0</ele><time>2026-03-22T09:17:16.25Z</time></trkpt><trkpt lat="44.4830994" lon="10.0711782"><ele>601.0</ele><time>2026-03-22T09:17:17.253Z</time></trkpt><trkpt lat="44.4829432" lon="10.0711426"><ele>601.0</ele><time>2026-03-22T09:17:18.249Z</time></trkpt><trkpt lat="44.4828104" lon="10.0710834"><ele>601.0</ele><time>2026-03-22T09:17:19.247Z</time></trkpt><trkpt lat="44.4826788" lon="10.0709925"><ele>601.0</ele><time>2026-03-22T09:17:20.244Z</time></trkpt><trkpt lat="44.4825434" lon="10.0708422"><ele>600.75</ele><time>2026-03-22T09:17:21.255Z</time></trkpt><trkpt lat="44.4824338" lon="10.0706794"><ele>600.5</ele><time>2026-03-22T09:17:22.239Z</time></trkpt><trkpt lat="44.482352" lon="10.0705271"><ele>600.25</ele><time>2026-03-22T09:17:23.246Z</time></trkpt><trkpt lat="44.4822824" lon="10.0703431"><ele>600.0</ele><time>2026-03-22T09:17:24.247Z</time></trkpt><trkpt lat="44.4822242" lon="10.0700986"><ele>603.0</ele><time>2026-03-22T09:17:25.23Z</time></trkpt><trkpt lat="44.4821777" lon="10.0698345"><ele>606.0</ele><time>2026-03-22T09:17:26.244Z</time></trkpt><trkpt lat="44.4821237" lon="10.0695781"><ele>609.0</ele><time>2026-03-22T09:17:27.247Z</time></trkpt><trkpt lat="44.4820639" lon="10.0693379"><ele>611.0</ele><time>2026-03-22T09:17:28.245Z</time></trkpt><trkpt lat="44.482031" lon="10.0691558"><ele>613.0</ele><time>2026-03-22T09:17:29.246Z</time></trkpt><trkpt lat="44.4820201" lon="10.0689802"><ele>615.0</ele><time>2026-03-22T09:17:30.248Z</time></trkpt><trkpt lat="44.4820555" lon="10.0688392"><ele>617.0</ele><time>2026-03-22T09:17:31.243Z</time></trkpt><trkpt lat="44.4821199" lon="10.0686688"><ele>617.0</ele><time>2026-03-22T09:17:32.236Z</time></trkpt><trkpt lat="44.482121" lon="10.0684547"><ele>617.0</ele><time>2026-03-22T09:17:33.238Z</time></trkpt><trkpt lat="44.4821111" lon="10.0682797"><ele>617.0</ele><time>2026-03-22T09:17:34.23Z</time></trkpt><trkpt lat="44.4820823" lon="10.068102"><ele>617.0</ele><time>2026-03-22T09:17:35.244Z</time></trkpt><trkpt lat="44.4820265" lon="10.067937"><ele>615.75</ele><time>2026-03-22T09:17:36.233Z</time></trkpt><trkpt lat="44.4819617" lon="10.0677535"><ele>614.5</ele><time>2026-03-22T09:17:37.232Z</time></trkpt><trkpt lat="44.481863" lon="10.0675709"><ele>613.25</ele><time>2026-03-22T09:17:38.238Z</time></trkpt><trkpt lat="44.4817814" lon="10.0674421"><ele>612.0</ele><time>2026-03-22T09:17:39.24Z</time></trkpt><trkpt lat="44.4816867" lon="10.0673438"><ele>612.0</ele><time>2026-03-22T09:17:40.237Z</time></trkpt><trkpt lat="44.481591" lon="10.0672821"><ele>612.0</ele><time>2026-03-22T09:17:41.247Z</time></trkpt><trkpt lat="44.4814732" lon="10.067246"><ele>612.0</ele><time>2026-03-22T09:17:42.249Z</time></trkpt><trkpt lat="44.4813243" lon="10.0672523"><ele>612.0</ele><time>2026-03-22T09:17:43.251Z</time></trkpt><trkpt lat="44.4811898" lon="10.0672517"><ele>610.0</ele><time>2026-03-22T09:17:44.248Z</time></trkpt><trkpt lat="44.4810717" lon="10.0672134"><ele>608.0</ele><time>2026-03-22T09:17:45.245Z</time></trkpt><trkpt lat="44.4809591" lon="10.0671365"><ele>606.0</ele><time>2026-03-22T09:17:46.246Z</time></trkpt><trkpt lat="44.4808522" lon="10.067037"><ele>604.0</ele><time>2026-03-22T09:17:47.243Z</time></trkpt><trkpt lat="44.480756" lon="10.0669321"><ele>604.0</ele><time>2026-03-22T09:17:48.256Z</time></trkpt><trkpt lat="44.4806765" lon="10.0668192"><ele>604.0</ele><time>2026-03-22T09:17:49.247Z</time></trkpt><trkpt lat="44.4806024" lon="10.0666868"><ele>604.0</ele><time>2026-03-22T09:17:50.244Z</time></trkpt><trkpt lat="44.4805459" lon="10.0665482"><ele>604.0</ele><time>2026-03-22T09:17:51.243Z</time></trkpt><trkpt lat="44.4805168" lon="10.0664007"><ele>604.25</ele><time>2026-03-22T09:17:52.243Z</time></trkpt><trkpt lat="44.4805111" lon="10.0662479"><ele>604.5</ele><time>2026-03-22T09:17:53.245Z</time></trkpt><trkpt lat="44.4805301" lon="10.0660724"><ele>604.75</ele><time>2026-03-22T09:17:54.248Z</time></trkpt><trkpt lat="44.4805745" lon="10.0658387"><ele>605.0</ele><time>2026-03-22T09:17:55.25Z</time></trkpt><trkpt lat="44.4806183" lon="10.0655189"><ele>605.0</ele><time>2026-03-22T09:17:56.241Z</time></trkpt><trkpt lat="44.4806271" lon="10.0652048"><ele>605.0</ele><time>2026-03-22T09:17:57.248Z</time></trkpt><trkpt lat="44.4806287" lon="10.0648969"><ele>605.0</ele><time>2026-03-22T09:17:58.24Z</time></trkpt><trkpt lat="44.4806344" lon="10.0646274"><ele>604.6666666666666</ele><time>2026-03-22T09:17:59.242Z</time></trkpt><trkpt lat="44.4806296" lon="10.0643675"><ele>604.3333333333334</ele><time>2026-03-22T09:18:00.25Z</time></trkpt><trkpt lat="44.4806192" lon="10.0641165"><ele>604.0</ele><time>2026-03-22T09:18:01.248Z</time></trkpt><trkpt lat="44.4806125" lon="10.0638709"><ele>606.6666666666667</ele><time>2026-03-22T09:18:02.24Z</time></trkpt><trkpt lat="44.4805942" lon="10.0636239"><ele>609.3333333333334</ele><time>2026-03-22T09:18:03.243Z</time></trkpt><trkpt lat="44.4805964" lon="10.0633951"><ele>612.0</ele><time>2026-03-22T09:18:04.248Z</time></trkpt><trkpt lat="44.480588" lon="10.0632005"><ele>613.3333333333334</ele><time>2026-03-22T09:18:05.242Z</time></trkpt><trkpt lat="44.48056" lon="10.0629933"><ele>614.6666666666667</ele><time>2026-03-22T09:18:06.239Z</time></trkpt><trkpt lat="44.4805346" lon="10.0627821"><ele>616.0</ele><time>2026-03-22T09:18:07.247Z</time></trkpt><trkpt lat="44.480488" lon="10.0625803"><ele>609.6666666666667</ele><time>2026-03-22T09:18:08.241Z</time></trkpt><trkpt lat="44.4804306" lon="10.0623815"><ele>603.3333333333334</ele><time>2026-03-22T09:18:09.246Z</time></trkpt><trkpt lat="44.4803638" lon="10.0621738"><ele>597.0</ele><time>2026-03-22T09:18:10.249Z</time></trkpt><trkpt lat="44.4803027" lon="10.0619642"><ele>597.0</ele><time>2026-03-22T09:18:11.25Z</time></trkpt><trkpt lat="44.4802534" lon="10.0617453"><ele>597.0</ele><time>2026-03-22T09:18:12.237Z</time></trkpt><trkpt lat="44.4802133" lon="10.0615139"><ele>597.0</ele><time>2026-03-22T09:18:13.239Z</time></trkpt><trkpt lat="44.4802122" lon="10.0612454"><ele>597.6666666666666</ele><time>2026-03-22T09:18:14.244Z</time></trkpt><trkpt lat="44.4802169" lon="10.060948"><ele>598.3333333333333</ele><time>2026-03-22T09:18:15.24Z</time></trkpt><trkpt lat="44.4802036" lon="10.060651"><ele>599.0</ele><time>2026-03-22T09:18:16.237Z</time></trkpt><trkpt lat="44.4801755" lon="10.0603267"><ele>600.0</ele><time>2026-03-22T09:18:17.24Z</time></trkpt><trkpt lat="44.4801529" lon="10.0599857"><ele>601.0</ele><time>2026-03-22T09:18:18.246Z</time></trkpt><trkpt lat="44.480126" lon="10.0596449"><ele>602.5</ele><time>2026-03-22T09:18:19.254Z</time></trkpt><trkpt lat="44.4801108" lon="10.0593153"><ele>604.0</ele><time>2026-03-22T09:18:20.243Z</time></trkpt><trkpt lat="44.4801076" lon="10.0589595"><ele>604.0</ele><time>2026-03-22T09:18:21.242Z</time></trkpt><trkpt lat="44.4801132" lon="10.0586071"><ele>604.0</ele><time>2026-03-22T09:18:22.245Z</time></trkpt><trkpt lat="44.4801037" lon="10.0582676"><ele>604.3333333333334</ele><time>2026-03-22T09:18:23.233Z</time></trkpt><trkpt lat="44.480079" lon="10.0579454"><ele>604.6666666666666</ele><time>2026-03-22T09:18:24.244Z</time></trkpt><trkpt lat="44.4800709" lon="10.0576465"><ele>605.0</ele><time>2026-03-22T09:18:25.235Z</time></trkpt><trkpt lat="44.4800777" lon="10.0573571"><ele>606.6666666666666</ele><time>2026-03-22T09:18:26.245Z</time></trkpt><trkpt lat="44.4800531" lon="10.0570774"><ele>608.3333333333334</ele><time>2026-03-22T09:18:27.235Z</time></trkpt><trkpt lat="44.4800149" lon="10.0568101"><ele>610.0</ele><time>2026-03-22T09:18:28.248Z</time></trkpt><trkpt lat="44.4799846" lon="10.0565276"><ele>613.5</ele><time>2026-03-22T09:18:29.237Z</time></trkpt><trkpt lat="44.4799374" lon="10.056212"><ele>617.0</ele><time>2026-03-22T09:18:30.242Z</time></trkpt><trkpt lat="44.4798816" lon="10.055899"><ele>617.3333333333333</ele><time>2026-03-22T09:18:31.247Z</time></trkpt><trkpt lat="44.4798364" lon="10.0555987"><ele>617.6666666666666</ele><time>2026-03-22T09:18:32.239Z</time></trkpt><trkpt lat="44.4797615" lon="10.0553268"><ele>618.0</ele><time>2026-03-22T09:18:33.241Z</time></trkpt><trkpt lat="44.479707" lon="10.0550896"><ele>619.0</ele><time>2026-03-22T09:18:34.246Z</time></trkpt><trkpt lat="44.479632" lon="10.0548513"><ele>620.0</ele><time>2026-03-22T09:18:35.246Z</time></trkpt><trkpt lat="44.4795591" lon="10.0546119"><ele>621.0</ele><time>2026-03-22T09:18:36.243Z</time></trkpt><trkpt lat="44.4794681" lon="10.0543769"><ele>618.6666666666666</ele><time>2026-03-22T09:18:37.238Z</time></trkpt><trkpt lat="44.4794079" lon="10.0541385"><ele>616.3333333333333</ele><time>2026-03-22T09:18:38.244Z</time></trkpt><trkpt lat="44.479338" lon="10.0538628"><ele>614.0</ele><time>2026-03-22T09:18:39.239Z</time></trkpt><trkpt lat="44.4792782" lon="10.0535947"><ele>614.0</ele><time>2026-03-22T09:18:40.237Z</time></trkpt><trkpt lat="44.4791829" lon="10.0533472"><ele>614.0</ele><time>2026-03-22T09:18:41.239Z</time></trkpt><trkpt lat="44.4790686" lon="10.0531261"><ele>614.0</ele><time>2026-03-22T09:18:42.235Z</time></trkpt><trkpt lat="44.4789556" lon="10.0529234"><ele>612.6666666666666</ele><time>2026-03-22T09:18:43.241Z</time></trkpt><trkpt lat="44.4788344" lon="10.0527708"><ele>611.3333333333334</ele><time>2026-03-22T09:18:44.233Z</time></trkpt><trkpt lat="44.4787234" lon="10.0526159"><ele>610.0</ele><time>2026-03-22T09:18:45.232Z</time></trkpt><trkpt lat="44.4786057" lon="10.0524756"><ele>622.0</ele><time>2026-03-22T09:18:46.233Z</time></trkpt><trkpt lat="44.4784561" lon="10.0523484"><ele>634.0</ele><time>2026-03-22T09:18:47.235Z</time></trkpt><trkpt lat="44.4782873" lon="10.0522467"><ele>646.0</ele><time>2026-03-22T09:18:48.237Z</time></trkpt><trkpt lat="44.4781307" lon="10.0521519"><ele>646.0</ele><time>2026-03-22T09:18:49.234Z</time></trkpt><trkpt lat="44.4779607" lon="10.0520786"><ele>646.0</ele><time>2026-03-22T09:18:50.245Z</time></trkpt><trkpt lat="44.4777852" lon="10.0520015"><ele>646.0</ele><time>2026-03-22T09:18:51.235Z</time></trkpt><trkpt lat="44.4776247" lon="10.0519146"><ele>639.0</ele><time>2026-03-22T09:18:52.24Z</time></trkpt><trkpt lat="44.47749" lon="10.0518201"><ele>632.0</ele><time>2026-03-22T09:18:53.239Z</time></trkpt><trkpt lat="44.4773525" lon="10.0517296"><ele>625.0</ele><time>2026-03-22T09:18:54.244Z</time></trkpt><trkpt lat="44.4772088" lon="10.0516614"><ele>625.0</ele><time>2026-03-22T09:18:55.238Z</time></trkpt><trkpt lat="44.4770817" lon="10.051631"><ele>625.0</ele><time>2026-03-22T09:18:56.236Z</time></trkpt><trkpt lat="44.4769534" lon="10.0516457"><ele>625.0</ele><time>2026-03-22T09:18:57.239Z</time></trkpt><trkpt lat="44.4768333" lon="10.0516909"><ele>625.0</ele><time>2026-03-22T09:18:58.236Z</time></trkpt><trkpt lat="44.4767112" lon="10.0517561"><ele>625.0</ele><time>2026-03-22T09:18:59.237Z</time></trkpt><trkpt lat="44.4765992" lon="10.0517857"><ele>625.0</ele><time>2026-03-22T09:19:00.237Z</time></trkpt><trkpt lat="44.4765001" lon="10.0517754"><ele>625.0</ele><time>2026-03-22T09:19:01.229Z</time></trkpt><trkpt lat="44.476388" lon="10.0517328"><ele>625.0</ele><time>2026-03-22T09:19:02.244Z</time></trkpt><trkpt lat="44.4762926" lon="10.0516594"><ele>625.0</ele><time>2026-03-22T09:19:03.241Z</time></trkpt><trkpt lat="44.4761866" lon="10.0515572"><ele>627.6666666666667</ele><time>2026-03-22T09:19:04.242Z</time></trkpt><trkpt lat="44.4760649" lon="10.0514274"><ele>630.3333333333334</ele><time>2026-03-22T09:19:05.242Z</time></trkpt><trkpt lat="44.4759086" lon="10.0512479"><ele>633.0</ele><time>2026-03-22T09:19:06.239Z</time></trkpt><trkpt lat="44.4757734" lon="10.0511154"><ele>633.0</ele><time>2026-03-22T09:19:07.24Z</time></trkpt><trkpt lat="44.4756296" lon="10.051014"><ele>633.0</ele><time>2026-03-22T09:19:08.236Z</time></trkpt><trkpt lat="44.4755175" lon="10.0509039"><ele>633.0</ele><time>2026-03-22T09:19:09.239Z</time></trkpt><trkpt lat="44.475441" lon="10.0507812"><ele>633.0</ele><time>2026-03-22T09:19:10.245Z</time></trkpt><trkpt lat="44.4753801" lon="10.0506318"><ele>632.6666666666666</ele><time>2026-03-22T09:19:11.245Z</time></trkpt><trkpt lat="44.4752834" lon="10.0504403"><ele>632.3333333333333</ele><time>2026-03-22T09:19:12.249Z</time></trkpt><trkpt lat="44.4751886" lon="10.0501999"><ele>632.0</ele><time>2026-03-22T09:19:13.243Z</time></trkpt><trkpt lat="44.4751158" lon="10.0499437"><ele>632.0</ele><time>2026-03-22T09:19:14.246Z</time></trkpt><trkpt lat="44.4750415" lon="10.0496868"><ele>632.0</ele><time>2026-03-22T09:19:15.245Z</time></trkpt><trkpt lat="44.4749601" lon="10.0494335"><ele>632.0</ele><time>2026-03-22T09:19:16.239Z</time></trkpt><trkpt lat="44.4748859" lon="10.0491778"><ele>638.6666666666666</ele><time>2026-03-22T09:19:17.239Z</time></trkpt><trkpt lat="44.4748371" lon="10.0489181"><ele>645.3333333333334</ele><time>2026-03-22T09:19:18.24Z</time></trkpt><trkpt lat="44.4747624" lon="10.0486739"><ele>652.0</ele><time>2026-03-22T09:19:19.233Z</time></trkpt><trkpt lat="44.4746682" lon="10.0484562"><ele>648.6666666666667</ele><time>2026-03-22T09:19:20.234Z</time></trkpt><trkpt lat="44.4745404" lon="10.0482747"><ele>645.3333333333334</ele><time>2026-03-22T09:19:21.247Z</time></trkpt><trkpt lat="44.4744164" lon="10.0481241"><ele>642.0</ele><time>2026-03-22T09:19:22.238Z</time></trkpt><trkpt lat="44.4742821" lon="10.0479862"><ele>642.0</ele><time>2026-03-22T09:19:23.246Z</time></trkpt><trkpt lat="44.4741702" lon="10.0478447"><ele>642.0</ele><time>2026-03-22T09:19:24.232Z</time></trkpt><trkpt lat="44.4740745" lon="10.0477176"><ele>642.0</ele><time>2026-03-22T09:19:25.236Z</time></trkpt><trkpt lat="44.4740108" lon="10.0475919"><ele>642.0</ele><time>2026-03-22T09:19:26.237Z</time></trkpt><trkpt lat="44.4738817" lon="10.047502"><ele>640.75</ele><time>2026-03-22T09:19:27.23Z</time></trkpt><trkpt lat="44.4737623" lon="10.0474079"><ele>639.5</ele><time>2026-03-22T09:19:28.239Z</time></trkpt><trkpt lat="44.4736566" lon="10.0473084"><ele>638.25</ele><time>2026-03-22T09:19:29.237Z</time></trkpt><trkpt lat="44.4735431" lon="10.0472196"><ele>637.0</ele><time>2026-03-22T09:19:30.243Z</time></trkpt><trkpt lat="44.4734063" lon="10.0471444"><ele>637.0</ele><time>2026-03-22T09:19:31.239Z</time></trkpt><trkpt lat="44.4732796" lon="10.0470668"><ele>637.0</ele><time>2026-03-22T09:19:32.235Z</time></trkpt><trkpt lat="44.4731419" lon="10.0470208"><ele>637.0</ele><time>2026-03-22T09:19:33.241Z</time></trkpt><trkpt lat="44.4729772" lon="10.0470136"><ele>637.0</ele><time>2026-03-22T09:19:34.236Z</time></trkpt><trkpt lat="44.472831" lon="10.0470363"><ele>640.6666666666667</ele><time>2026-03-22T09:19:35.234Z</time></trkpt><trkpt lat="44.4726643" lon="10.0470876"><ele>644.3333333333334</ele><time>2026-03-22T09:19:36.239Z</time></trkpt><trkpt lat="44.4725223" lon="10.0471679"><ele>648.0</ele><time>2026-03-22T09:19:37.232Z</time></trkpt><trkpt lat="44.4723826" lon="10.047241"><ele>648.0</ele><time>2026-03-22T09:19:38.232Z</time></trkpt><trkpt lat="44.472249" lon="10.0472905"><ele>648.0</ele><time>2026-03-22T09:19:39.234Z</time></trkpt><trkpt lat="44.4721034" lon="10.0473122"><ele>648.0</ele><time>2026-03-22T09:19:40.233Z</time></trkpt><trkpt lat="44.4719216" lon="10.0473058"><ele>653.3333333333334</ele><time>2026-03-22T09:19:41.222Z</time></trkpt><trkpt lat="44.4717538" lon="10.0472403"><ele>658.6666666666667</ele><time>2026-03-22T09:19:42.23Z</time></trkpt><trkpt lat="44.4715929" lon="10.0471341"><ele>664.0</ele><time>2026-03-22T09:19:43.226Z</time></trkpt><trkpt lat="44.4714288" lon="10.0470541"><ele>662.0</ele><time>2026-03-22T09:19:44.226Z</time></trkpt><trkpt lat="44.4712158" lon="10.0469623"><ele>660.0</ele><time>2026-03-22T09:19:45.227Z</time></trkpt><trkpt lat="44.4710085" lon="10.0468512"><ele>658.0</ele><time>2026-03-22T09:19:46.235Z</time></trkpt><trkpt lat="44.4707902" lon="10.046761"><ele>658.0</ele><time>2026-03-22T09:19:47.235Z</time></trkpt><trkpt lat="44.4705752" lon="10.0466674"><ele>658.0</ele><time>2026-03-22T09:19:48.243Z</time></trkpt><trkpt lat="44.4703682" lon="10.0465689"><ele>658.0</ele><time>2026-03-22T09:19:49.228Z</time></trkpt><trkpt lat="44.4701733" lon="10.0464914"><ele>661.6666666666667</ele><time>2026-03-22T09:19:50.221Z</time></trkpt><trkpt lat="44.4700016" lon="10.0464033"><ele>665.3333333333334</ele><time>2026-03-22T09:19:51.23Z</time></trkpt><trkpt lat="44.4698474" lon="10.0463319"><ele>669.0</ele><time>2026-03-22T09:19:52.229Z</time></trkpt><trkpt lat="44.4696925" lon="10.0462499"><ele>664.3333333333334</ele><time>2026-03-22T09:19:53.228Z</time></trkpt><trkpt lat="44.4695379" lon="10.0461882"><ele>659.6666666666667</ele><time>2026-03-22T09:19:54.232Z</time></trkpt><trkpt lat="44.4693973" lon="10.046102"><ele>655.0</ele><time>2026-03-22T09:19:55.235Z</time></trkpt><trkpt lat="44.4692562" lon="10.0460141"><ele>655.0</ele><time>2026-03-22T09:19:56.234Z</time></trkpt><trkpt lat="44.4691097" lon="10.0459213"><ele>655.0</ele><time>2026-03-22T09:19:57.232Z</time></trkpt><trkpt lat="44.4689528" lon="10.0458464"><ele>655.0</ele><time>2026-03-22T09:19:58.239Z</time></trkpt><trkpt lat="44.4687852" lon="10.0457745"><ele>659.6666666666667</ele><time>2026-03-22T09:19:59.235Z</time></trkpt><trkpt lat="44.4686363" lon="10.0456995"><ele>664.3333333333334</ele><time>2026-03-22T09:20:00.243Z</time></trkpt><trkpt lat="44.46849" lon="10.0456297"><ele>669.0</ele><time>2026-03-22T09:20:01.238Z</time></trkpt><trkpt lat="44.4683474" lon="10.045554"><ele>669.0</ele><time>2026-03-22T09:20:02.233Z</time></trkpt><trkpt lat="44.4681995" lon="10.0454919"><ele>669.0</ele><time>2026-03-22T09:20:03.234Z</time></trkpt><trkpt lat="44.4680412" lon="10.045446"><ele>669.0</ele><time>2026-03-22T09:20:04.23Z</time></trkpt><trkpt lat="44.4678814" lon="10.0453997"><ele>662.6666666666666</ele><time>2026-03-22T09:20:05.23Z</time></trkpt><trkpt lat="44.4677364" lon="10.0454029"><ele>656.3333333333333</ele><time>2026-03-22T09:20:06.231Z</time></trkpt><trkpt lat="44.4675767" lon="10.04539"><ele>650.0</ele><time>2026-03-22T09:20:07.228Z</time></trkpt><trkpt lat="44.4674281" lon="10.0453771"><ele>650.0</ele><time>2026-03-22T09:20:08.23Z</time></trkpt><trkpt lat="44.4672769" lon="10.0453912"><ele>650.0</ele><time>2026-03-22T09:20:09.223Z</time></trkpt><trkpt lat="44.4671375" lon="10.0454421"><ele>650.0</ele><time>2026-03-22T09:20:10.224Z</time></trkpt><trkpt lat="44.4669968" lon="10.0455187"><ele>650.0</ele><time>2026-03-22T09:20:11.23Z</time></trkpt><trkpt lat="44.4668519" lon="10.0456306"><ele>650.3333333333333</ele><time>2026-03-22T09:20:12.23Z</time></trkpt><trkpt lat="44.4667249" lon="10.0457857"><ele>650.6666666666666</ele><time>2026-03-22T09:20:13.225Z</time></trkpt><trkpt lat="44.4666121" lon="10.0459708"><ele>651.0</ele><time>2026-03-22T09:20:14.223Z</time></trkpt><trkpt lat="44.4665085" lon="10.0461499"><ele>651.75</ele><time>2026-03-22T09:20:15.221Z</time></trkpt><trkpt lat="44.4664034" lon="10.0462843"><ele>652.5</ele><time>2026-03-22T09:20:16.222Z</time></trkpt><trkpt lat="44.4662798" lon="10.0463584"><ele>653.25</ele><time>2026-03-22T09:20:17.21Z</time></trkpt><trkpt lat="44.4662026" lon="10.0464533"><ele>654.0</ele><time>2026-03-22T09:20:18.21Z</time></trkpt><trkpt lat="44.4660918" lon="10.0465397"><ele>654.0</ele><time>2026-03-22T09:20:19.198Z</time></trkpt><trkpt lat="44.4660855" lon="10.0466355"><ele>654.0</ele><time>2026-03-22T09:20:20.205Z</time></trkpt><trkpt lat="44.4660223" lon="10.0466939"><ele>654.0</ele><time>2026-03-22T09:20:21.2Z</time></trkpt><trkpt lat="44.4658512" lon="10.046709"><ele>654.0</ele><time>2026-03-22T09:20:22.196Z</time></trkpt><trkpt lat="44.4655858" lon="10.0465785"><ele>655.0</ele><time>2026-03-22T09:20:23.22Z</time></trkpt><trkpt lat="44.4653915" lon="10.0464207"><ele>656.0</ele><time>2026-03-22T09:20:24.221Z</time></trkpt><trkpt lat="44.4652684" lon="10.0463919"><ele>657.0</ele><time>2026-03-22T09:20:25.221Z</time></trkpt><trkpt lat="44.4651517" lon="10.0463334"><ele>657.0</ele><time>2026-03-22T09:20:26.216Z</time></trkpt><trkpt lat="44.4650556" lon="10.0462735"><ele>657.0</ele><time>2026-03-22T09:20:27.227Z</time></trkpt><trkpt lat="44.4649667" lon="10.0461988"><ele>657.0</ele><time>2026-03-22T09:20:28.225Z</time></trkpt><trkpt lat="44.4648922" lon="10.0461169"><ele>657.0</ele><time>2026-03-22T09:20:29.233Z</time></trkpt><trkpt lat="44.4648296" lon="10.0460249"><ele>657.0</ele><time>2026-03-22T09:20:30.234Z</time></trkpt><trkpt lat="44.4647731" lon="10.0459343"><ele>657.0</ele><time>2026-03-22T09:20:31.233Z</time></trkpt><trkpt lat="44.4647072" lon="10.0458351"><ele>657.0</ele><time>2026-03-22T09:20:32.239Z</time></trkpt><trkpt lat="44.4646365" lon="10.0457302"><ele>657.0</ele><time>2026-03-22T09:20:33.23Z</time></trkpt><trkpt lat="44.464559" lon="10.0456283"><ele>657.0</ele><time>2026-03-22T09:20:34.23Z</time></trkpt><trkpt lat="44.4644778" lon="10.0455109"><ele>657.0</ele><time>2026-03-22T09:20:35.231Z</time></trkpt><trkpt lat="44.4643966" lon="10.0453942"><ele>656.75</ele><time>2026-03-22T09:20:36.234Z</time></trkpt><trkpt lat="44.4643143" lon="10.0452781"><ele>656.5</ele><time>2026-03-22T09:20:37.231Z</time></trkpt><trkpt lat="44.4642277" lon="10.0451572"><ele>656.25</ele><time>2026-03-22T09:20:38.232Z</time></trkpt><trkpt lat="44.4641426" lon="10.0450441"><ele>656.0</ele><time>2026-03-22T09:20:39.23Z</time></trkpt><trkpt lat="44.4640598" lon="10.0449278"><ele>658.5</ele><time>2026-03-22T09:20:40.232Z</time></trkpt><trkpt lat="44.4639769" lon="10.0448048"><ele>661.0</ele><time>2026-03-22T09:20:41.232Z</time></trkpt><trkpt lat="44.4638814" lon="10.0446968"><ele>663.5</ele><time>2026-03-22T09:20:42.234Z</time></trkpt><trkpt lat="44.4637786" lon="10.0446116"><ele>666.0</ele><time>2026-03-22T09:20:43.24Z</time></trkpt><trkpt lat="44.4636707" lon="10.0445341"><ele>669.5</ele><time>2026-03-22T09:20:44.238Z</time></trkpt><trkpt lat="44.4635619" lon="10.0444688"><ele>673.0</ele><time>2026-03-22T09:20:45.233Z</time></trkpt><trkpt lat="44.4634508" lon="10.0444265"><ele>676.5</ele><time>2026-03-22T09:20:46.231Z</time></trkpt><trkpt lat="44.4633381" lon="10.0444049"><ele>680.0</ele><time>2026-03-22T09:20:47.228Z</time></trkpt><trkpt lat="44.4632202" lon="10.0443991"><ele>680.0</ele><time>2026-03-22T09:20:48.228Z</time></trkpt><trkpt lat="44.463081" lon="10.0444112"><ele>680.0</ele><time>2026-03-22T09:20:49.231Z</time></trkpt><trkpt lat="44.4629181" lon="10.0444274"><ele>680.0</ele><time>2026-03-22T09:20:50.228Z</time></trkpt><trkpt lat="44.4627541" lon="10.0444319"><ele>681.3333333333333</ele><time>2026-03-22T09:20:51.222Z</time></trkpt><trkpt lat="44.462574" lon="10.0444379"><ele>682.6666666666666</ele><time>2026-03-22T09:20:52.218Z</time></trkpt><trkpt lat="44.4623645" lon="10.044462"><ele>684.0</ele><time>2026-03-22T09:20:53.225Z</time></trkpt><trkpt lat="44.4621593" lon="10.0444734"><ele>686.6666666666666</ele><time>2026-03-22T09:20:54.227Z</time></trkpt><trkpt lat="44.4619626" lon="10.0444934"><ele>689.3333333333333</ele><time>2026-03-22T09:20:55.225Z</time></trkpt><trkpt lat="44.4617531" lon="10.0444858"><ele>692.0</ele><time>2026-03-22T09:20:56.222Z</time></trkpt><trkpt lat="44.4615424" lon="10.0444831"><ele>692.0</ele><time>2026-03-22T09:20:57.223Z</time></trkpt><trkpt lat="44.4613362" lon="10.044482"><ele>692.0</ele><time>2026-03-22T09:20:58.224Z</time></trkpt><trkpt lat="44.4611338" lon="10.0444779"><ele>692.0</ele><time>2026-03-22T09:20:59.222Z</time></trkpt><trkpt lat="44.4609468" lon="10.0444926"><ele>692.3333333333333</ele><time>2026-03-22T09:21:00.224Z</time></trkpt><trkpt lat="44.4607597" lon="10.044488"><ele>692.6666666666666</ele><time>2026-03-22T09:21:01.223Z</time></trkpt><trkpt lat="44.4605984" lon="10.044484"><ele>693.0</ele><time>2026-03-22T09:21:02.227Z</time></trkpt><trkpt lat="44.4604321" lon="10.0444749"><ele>692.3333333333334</ele><time>2026-03-22T09:21:03.227Z</time></trkpt><trkpt lat="44.4602577" lon="10.0444608"><ele>691.6666666666667</ele><time>2026-03-22T09:21:04.219Z</time></trkpt><trkpt lat="44.4600778" lon="10.0444094"><ele>691.0</ele><time>2026-03-22T09:21:05.226Z</time></trkpt><trkpt lat="44.4598916" lon="10.0443494"><ele>691.0</ele><time>2026-03-22T09:21:06.228Z</time></trkpt><trkpt lat="44.4597371" lon="10.0442554"><ele>691.0</ele><time>2026-03-22T09:21:07.229Z</time></trkpt><trkpt lat="44.4595996" lon="10.0441157"><ele>691.0</ele><time>2026-03-22T09:21:08.22Z</time></trkpt><trkpt lat="44.4594815" lon="10.0439397"><ele>691.3333333333334</ele><time>2026-03-22T09:21:09.225Z</time></trkpt><trkpt lat="44.4593682" lon="10.0437318"><ele>691.6666666666666</ele><time>2026-03-22T09:21:10.219Z</time></trkpt><trkpt lat="44.4592679" lon="10.0434735"><ele>692.0</ele><time>2026-03-22T09:21:11.222Z</time></trkpt><trkpt lat="44.4591749" lon="10.043208"><ele>696.0</ele><time>2026-03-22T09:21:12.228Z</time></trkpt><trkpt lat="44.4590707" lon="10.0429683"><ele>700.0</ele><time>2026-03-22T09:21:13.223Z</time></trkpt><trkpt lat="44.4589501" lon="10.0427233"><ele>704.0</ele><time>2026-03-22T09:21:14.221Z</time></trkpt><trkpt lat="44.4588358" lon="10.0425111"><ele>703.0</ele><time>2026-03-22T09:21:15.231Z</time></trkpt><trkpt lat="44.4587148" lon="10.0423223"><ele>702.0</ele><time>2026-03-22T09:21:16.222Z</time></trkpt><trkpt lat="44.4585822" lon="10.0421636"><ele>701.0</ele><time>2026-03-22T09:21:17.224Z</time></trkpt><trkpt lat="44.4584271" lon="10.0420426"><ele>701.0</ele><time>2026-03-22T09:21:18.221Z</time></trkpt><trkpt lat="44.4582617" lon="10.0419179"><ele>701.0</ele><time>2026-03-22T09:21:19.219Z</time></trkpt><trkpt lat="44.4580863" lon="10.041802"><ele>701.0</ele><time>2026-03-22T09:21:20.224Z</time></trkpt><trkpt lat="44.4579153" lon="10.0416852"><ele>700.3333333333333</ele><time>2026-03-22T09:21:21.229Z</time></trkpt><trkpt lat="44.4577505" lon="10.0415852"><ele>699.6666666666666</ele><time>2026-03-22T09:21:22.231Z</time></trkpt><trkpt lat="44.457609" lon="10.0414804"><ele>699.0</ele><time>2026-03-22T09:21:23.229Z</time></trkpt><trkpt lat="44.4574746" lon="10.0413564"><ele>699.0</ele><time>2026-03-22T09:21:24.232Z</time></trkpt><trkpt lat="44.4573175" lon="10.0412558"><ele>699.0</ele><time>2026-03-22T09:21:25.233Z</time></trkpt><trkpt lat="44.4571699" lon="10.0411566"><ele>699.0</ele><time>2026-03-22T09:21:26.233Z</time></trkpt><trkpt lat="44.4570151" lon="10.0410656"><ele>697.6666666666666</ele><time>2026-03-22T09:21:27.24Z</time></trkpt><trkpt lat="44.4568635" lon="10.0409781"><ele>696.3333333333333</ele><time>2026-03-22T09:21:28.234Z</time></trkpt><trkpt lat="44.4567123" lon="10.0408721"><ele>695.0</ele><time>2026-03-22T09:21:29.224Z</time></trkpt><trkpt lat="44.4565717" lon="10.0407962"><ele>698.3333333333333</ele><time>2026-03-22T09:21:30.228Z</time></trkpt><trkpt lat="44.4564369" lon="10.0407256"><ele>701.6666666666666</ele><time>2026-03-22T09:21:31.224Z</time></trkpt><trkpt lat="44.4562793" lon="10.0407023"><ele>705.0</ele><time>2026-03-22T09:21:32.218Z</time></trkpt><trkpt lat="44.4560944" lon="10.0406994"><ele>712.3333333333334</ele><time>2026-03-22T09:21:33.231Z</time></trkpt><trkpt lat="44.455927" lon="10.0406716"><ele>719.6666666666667</ele><time>2026-03-22T09:21:34.225Z</time></trkpt><trkpt lat="44.455755" lon="10.0406614"><ele>727.0</ele><time>2026-03-22T09:21:35.22Z</time></trkpt><trkpt lat="44.4555756" lon="10.0406763"><ele>722.3333333333334</ele><time>2026-03-22T09:21:36.219Z</time></trkpt><trkpt lat="44.4553953" lon="10.0406946"><ele>717.6666666666666</ele><time>2026-03-22T09:21:37.226Z</time></trkpt><trkpt lat="44.4552273" lon="10.0407095"><ele>713.0</ele><time>2026-03-22T09:21:38.227Z</time></trkpt><trkpt lat="44.4550509" lon="10.0407054"><ele>713.0</ele><time>2026-03-22T09:21:39.222Z</time></trkpt><trkpt lat="44.4549015" lon="10.0406931"><ele>713.0</ele><time>2026-03-22T09:21:40.226Z</time></trkpt><trkpt lat="44.4547639" lon="10.0406898"><ele>713.0</ele><time>2026-03-22T09:21:41.23Z</time></trkpt><trkpt lat="44.4546328" lon="10.0406774"><ele>713.0</ele><time>2026-03-22T09:21:42.228Z</time></trkpt><trkpt lat="44.4544911" lon="10.0406928"><ele>711.3333333333333</ele><time>2026-03-22T09:21:43.227Z</time></trkpt><trkpt lat="44.4543435" lon="10.0407618"><ele>709.6666666666666</ele><time>2026-03-22T09:21:44.226Z</time></trkpt><trkpt lat="44.4541945" lon="10.0408799"><ele>708.0</ele><time>2026-03-22T09:21:45.225Z</time></trkpt><trkpt lat="44.4540556" lon="10.0410097"><ele>708.0</ele><time>2026-03-22T09:21:46.23Z</time></trkpt><trkpt lat="44.453922" lon="10.0411402"><ele>708.0</ele><time>2026-03-22T09:21:47.227Z</time></trkpt><trkpt lat="44.4537755" lon="10.0412776"><ele>708.0</ele><time>2026-03-22T09:21:48.227Z</time></trkpt><trkpt lat="44.4536277" lon="10.0414239"><ele>709.0</ele><time>2026-03-22T09:21:49.22Z</time></trkpt><trkpt lat="44.45348" lon="10.0415513"><ele>710.0</ele><time>2026-03-22T09:21:50.218Z</time></trkpt><trkpt lat="44.4533327" lon="10.0416589"><ele>711.0</ele><time>2026-03-22T09:21:51.225Z</time></trkpt><trkpt lat="44.4531625" lon="10.041755"><ele>714.0</ele><time>2026-03-22T09:21:52.226Z</time></trkpt><trkpt lat="44.4529978" lon="10.0418418"><ele>717.0</ele><time>2026-03-22T09:21:53.231Z</time></trkpt><trkpt lat="44.4528143" lon="10.0419155"><ele>720.0</ele><time>2026-03-22T09:21:54.229Z</time></trkpt><trkpt lat="44.4526075" lon="10.0419415"><ele>720.0</ele><time>2026-03-22T09:21:55.221Z</time></trkpt><trkpt lat="44.4523997" lon="10.0419599"><ele>720.0</ele><time>2026-03-22T09:21:56.224Z</time></trkpt><trkpt lat="44.4521874" lon="10.0419743"><ele>720.0</ele><time>2026-03-22T09:21:57.217Z</time></trkpt><trkpt lat="44.4519668" lon="10.0419591"><ele>719.6666666666666</ele><time>2026-03-22T09:21:58.223Z</time></trkpt><trkpt lat="44.4517697" lon="10.0419663"><ele>719.3333333333333</ele><time>2026-03-22T09:21:59.224Z</time></trkpt><trkpt lat="44.4515615" lon="10.0420001"><ele>719.0</ele><time>2026-03-22T09:22:00.226Z</time></trkpt><trkpt lat="44.4513675" lon="10.0420739"><ele>720.3333333333333</ele><time>2026-03-22T09:22:01.222Z</time></trkpt><trkpt lat="44.4511642" lon="10.0421556"><ele>721.6666666666666</ele><time>2026-03-22T09:22:02.224Z</time></trkpt><trkpt lat="44.4509615" lon="10.0422429"><ele>723.0</ele><time>2026-03-22T09:22:03.221Z</time></trkpt><trkpt lat="44.4507506" lon="10.0423181"><ele>723.0</ele><time>2026-03-22T09:22:04.216Z</time></trkpt><trkpt lat="44.4505588" lon="10.0423803"><ele>723.0</ele><time>2026-03-22T09:22:05.221Z</time></trkpt><trkpt lat="44.4503594" lon="10.0424353"><ele>723.0</ele><time>2026-03-22T09:22:06.22Z</time></trkpt><trkpt lat="44.4501586" lon="10.0424636"><ele>731.6666666666666</ele><time>2026-03-22T09:22:07.22Z</time></trkpt><trkpt lat="44.4499355" lon="10.0424941"><ele>740.3333333333333</ele><time>2026-03-22T09:22:08.22Z</time></trkpt><trkpt lat="44.4497292" lon="10.0425106"><ele>749.0</ele><time>2026-03-22T09:22:09.214Z</time></trkpt><trkpt lat="44.4495162" lon="10.0424826"><ele>744.6666666666666</ele><time>2026-03-22T09:22:10.218Z</time></trkpt><trkpt lat="44.4493102" lon="10.0424096"><ele>740.3333333333334</ele><time>2026-03-22T09:22:11.216Z</time></trkpt><trkpt lat="44.4490985" lon="10.0423583"><ele>736.0</ele><time>2026-03-22T09:22:12.221Z</time></trkpt><trkpt lat="44.4488972" lon="10.0422911"><ele>743.0</ele><time>2026-03-22T09:22:13.227Z</time></trkpt><trkpt lat="44.4486792" lon="10.042183"><ele>750.0</ele><time>2026-03-22T09:22:14.222Z</time></trkpt><trkpt lat="44.4484631" lon="10.0420986"><ele>750.0</ele><time>2026-03-22T09:22:15.225Z</time></trkpt><trkpt lat="44.4482686" lon="10.0420248"><ele>750.0</ele><time>2026-03-22T09:22:16.233Z</time></trkpt><trkpt lat="44.4480732" lon="10.0419476"><ele>750.0</ele><time>2026-03-22T09:22:17.225Z</time></trkpt><trkpt lat="44.4478864" lon="10.041889"><ele>751.3333333333334</ele><time>2026-03-22T09:22:18.223Z</time></trkpt><trkpt lat="44.4477083" lon="10.0418685"><ele>752.6666666666667</ele><time>2026-03-22T09:22:19.226Z</time></trkpt><trkpt lat="44.4475432" lon="10.0418913"><ele>754.0</ele><time>2026-03-22T09:22:20.224Z</time></trkpt><trkpt lat="44.4473762" lon="10.0419561"><ele>754.0</ele><time>2026-03-22T09:22:21.228Z</time></trkpt><trkpt lat="44.4472153" lon="10.0420638"><ele>754.0</ele><time>2026-03-22T09:22:22.227Z</time></trkpt><trkpt lat="44.4470555" lon="10.042198"><ele>754.0</ele><time>2026-03-22T09:22:23.226Z</time></trkpt><trkpt lat="44.4469076" lon="10.042358"><ele>757.3333333333334</ele><time>2026-03-22T09:22:24.228Z</time></trkpt><trkpt lat="44.4467714" lon="10.0425684"><ele>760.6666666666666</ele><time>2026-03-22T09:22:25.227Z</time></trkpt><trkpt lat="44.4466106" lon="10.0427596"><ele>764.0</ele><time>2026-03-22T09:22:26.228Z</time></trkpt><trkpt lat="44.4464566" lon="10.0429457"><ele>764.0</ele><time>2026-03-22T09:22:27.237Z</time></trkpt><trkpt lat="44.4462982" lon="10.0431065"><ele>764.0</ele><time>2026-03-22T09:22:28.232Z</time></trkpt><trkpt lat="44.4461572" lon="10.0432482"><ele>764.0</ele><time>2026-03-22T09:22:29.229Z</time></trkpt><trkpt lat="44.4459681" lon="10.0433356"><ele>766.0</ele><time>2026-03-22T09:22:30.235Z</time></trkpt><trkpt lat="44.445776" lon="10.0433995"><ele>768.0</ele><time>2026-03-22T09:22:31.234Z</time></trkpt><trkpt lat="44.4455836" lon="10.0435171"><ele>770.0</ele><time>2026-03-22T09:22:32.238Z</time></trkpt><trkpt lat="44.4453769" lon="10.0436108"><ele>770.0</ele><time>2026-03-22T09:22:33.233Z</time></trkpt><trkpt lat="44.4451668" lon="10.0437057"><ele>770.0</ele><time>2026-03-22T09:22:34.233Z</time></trkpt><trkpt lat="44.4449729" lon="10.0438179"><ele>770.0</ele><time>2026-03-22T09:22:35.232Z</time></trkpt><trkpt lat="44.444783" lon="10.0439156"><ele>768.0</ele><time>2026-03-22T09:22:36.229Z</time></trkpt><trkpt lat="44.4446038" lon="10.0440055"><ele>766.0</ele><time>2026-03-22T09:22:37.227Z</time></trkpt><trkpt lat="44.4444065" lon="10.0440545"><ele>764.0</ele><time>2026-03-22T09:22:38.227Z</time></trkpt><trkpt lat="44.4442095" lon="10.0440732"><ele>764.0</ele><time>2026-03-22T09:22:39.225Z</time></trkpt><trkpt lat="44.4440106" lon="10.0440481"><ele>764.0</ele><time>2026-03-22T09:22:40.222Z</time></trkpt><trkpt lat="44.4438128" lon="10.0440039"><ele>764.0</ele><time>2026-03-22T09:22:41.219Z</time></trkpt><trkpt lat="44.4436337" lon="10.0439349"><ele>766.6666666666666</ele><time>2026-03-22T09:22:42.215Z</time></trkpt><trkpt lat="44.4434456" lon="10.0438685"><ele>769.3333333333333</ele><time>2026-03-22T09:22:43.224Z</time></trkpt><trkpt lat="44.4432973" lon="10.0437604"><ele>772.0</ele><time>2026-03-22T09:22:44.238Z</time></trkpt><trkpt lat="44.4431474" lon="10.0436414"><ele>772.0</ele><time>2026-03-22T09:22:45.236Z</time></trkpt><trkpt lat="44.4430076" lon="10.043557"><ele>772.0</ele><time>2026-03-22T09:22:46.239Z</time></trkpt><trkpt lat="44.4428661" lon="10.0434945"><ele>772.0</ele><time>2026-03-22T09:22:47.235Z</time></trkpt><trkpt lat="44.4426996" lon="10.043461"><ele>777.6666666666666</ele><time>2026-03-22T09:22:48.236Z</time></trkpt><trkpt lat="44.4425262" lon="10.0434636"><ele>783.3333333333333</ele><time>2026-03-22T09:22:49.232Z</time></trkpt><trkpt lat="44.4423487" lon="10.0434908"><ele>789.0</ele><time>2026-03-22T09:22:50.236Z</time></trkpt><trkpt lat="44.4421749" lon="10.0435478"><ele>790.6666666666667</ele><time>2026-03-22T09:22:51.234Z</time></trkpt><trkpt lat="44.4419949" lon="10.0435971"><ele>792.3333333333334</ele><time>2026-03-22T09:22:52.235Z</time></trkpt><trkpt lat="44.4418123" lon="10.0436324"><ele>794.0</ele><time>2026-03-22T09:22:53.229Z</time></trkpt><trkpt lat="44.4416587" lon="10.0436704"><ele>794.0</ele><time>2026-03-22T09:22:54.231Z</time></trkpt><trkpt lat="44.4415134" lon="10.0436854"><ele>794.0</ele><time>2026-03-22T09:22:55.229Z</time></trkpt><trkpt lat="44.4413806" lon="10.0436573"><ele>794.0</ele><time>2026-03-22T09:22:56.227Z</time></trkpt><trkpt lat="44.4412703" lon="10.0436238"><ele>794.0</ele><time>2026-03-22T09:22:57.231Z</time></trkpt><trkpt lat="44.4411712" lon="10.0435699"><ele>795.75</ele><time>2026-03-22T09:22:58.231Z</time></trkpt><trkpt lat="44.4410823" lon="10.043521"><ele>797.5</ele><time>2026-03-22T09:22:59.229Z</time></trkpt><trkpt lat="44.4409607" lon="10.0434569"><ele>799.25</ele><time>2026-03-22T09:23:00.231Z</time></trkpt><trkpt lat="44.4408397" lon="10.0434009"><ele>801.0</ele><time>2026-03-22T09:23:01.229Z</time></trkpt><trkpt lat="44.4407097" lon="10.0433596"><ele>801.0</ele><time>2026-03-22T09:23:02.223Z</time></trkpt><trkpt lat="44.4405941" lon="10.0432987"><ele>801.0</ele><time>2026-03-22T09:23:03.226Z</time></trkpt><trkpt lat="44.4404949" lon="10.0432024"><ele>801.0</ele><time>2026-03-22T09:23:04.226Z</time></trkpt><trkpt lat="44.4404021" lon="10.0430477"><ele>801.0</ele><time>2026-03-22T09:23:05.231Z</time></trkpt><trkpt lat="44.4403022" lon="10.0428778"><ele>800.0</ele><time>2026-03-22T09:23:06.226Z</time></trkpt><trkpt lat="44.440213" lon="10.0427019"><ele>799.0</ele><time>2026-03-22T09:23:07.228Z</time></trkpt><trkpt lat="44.4401278" lon="10.0425565"><ele>798.0</ele><time>2026-03-22T09:23:08.227Z</time></trkpt><trkpt lat="44.4400148" lon="10.0424391"><ele>797.0</ele><time>2026-03-22T09:23:09.229Z</time></trkpt><trkpt lat="44.4398901" lon="10.0423439"><ele>797.2</ele><time>2026-03-22T09:23:10.237Z</time></trkpt><trkpt lat="44.4397722" lon="10.0422663"><ele>797.4000000000001</ele><time>2026-03-22T09:23:11.235Z</time></trkpt><trkpt lat="44.4396836" lon="10.0422055"><ele>797.5999999999999</ele><time>2026-03-22T09:23:12.228Z</time></trkpt><trkpt lat="44.4396272" lon="10.0421457"><ele>797.8</ele><time>2026-03-22T09:23:13.233Z</time></trkpt><trkpt lat="44.4396219" lon="10.0419908"><ele>798.0</ele><time>2026-03-22T09:23:15.23Z</time></trkpt><trkpt lat="44.4396645" lon="10.0418937"><ele>797.1666666666666</ele><time>2026-03-22T09:23:17.229Z</time></trkpt><trkpt lat="44.439711" lon="10.0417997"><ele>796.3333333333333</ele><time>2026-03-22T09:23:19.228Z</time></trkpt><trkpt lat="44.4397796" lon="10.0416829"><ele>795.5</ele><time>2026-03-22T09:23:21.236Z</time></trkpt><trkpt lat="44.439824" lon="10.0416029"><ele>794.6666666666666</ele><time>2026-03-22T09:23:22.235Z</time></trkpt><trkpt lat="44.4398786" lon="10.041535"><ele>793.8333333333333</ele><time>2026-03-22T09:23:23.232Z</time></trkpt><trkpt lat="44.4399424" lon="10.0414614"><ele>793.0</ele><time>2026-03-22T09:23:24.23Z</time></trkpt><trkpt lat="44.4400074" lon="10.0413937"><ele>793.0</ele><time>2026-03-22T09:23:25.232Z</time></trkpt><trkpt lat="44.4400775" lon="10.0413201"><ele>793.0</ele><time>2026-03-22T09:23:26.237Z</time></trkpt><trkpt lat="44.4401545" lon="10.0412338"><ele>793.0</ele><time>2026-03-22T09:23:27.219Z</time></trkpt><trkpt lat="44.4402446" lon="10.0411483"><ele>793.0</ele><time>2026-03-22T09:23:28.213Z</time></trkpt><trkpt lat="44.4403396" lon="10.0410717"><ele>793.0</ele><time>2026-03-22T09:23:29.235Z</time></trkpt><trkpt lat="44.4404418" lon="10.0410048"><ele>796.0</ele><time>2026-03-22T09:23:30.225Z</time></trkpt><trkpt lat="44.4405497" lon="10.0409669"><ele>799.0</ele><time>2026-03-22T09:23:31.222Z</time></trkpt><trkpt lat="44.4406602" lon="10.04095"><ele>802.0</ele><time>2026-03-22T09:23:32.227Z</time></trkpt><trkpt lat="44.4407753" lon="10.0409393"><ele>805.0</ele><time>2026-03-22T09:23:33.227Z</time></trkpt><trkpt lat="44.4408875" lon="10.0409579"><ele>805.0</ele><time>2026-03-22T09:23:34.219Z</time></trkpt><trkpt lat="44.4409981" lon="10.0409929"><ele>805.0</ele><time>2026-03-22T09:23:35.227Z</time></trkpt><trkpt lat="44.4410925" lon="10.0410236"><ele>805.0</ele><time>2026-03-22T09:23:36.222Z</time></trkpt><trkpt lat="44.4411877" lon="10.041038"><ele>805.0</ele><time>2026-03-22T09:23:37.222Z</time></trkpt><trkpt lat="44.4412767" lon="10.0410249"><ele>805.0</ele><time>2026-03-22T09:23:38.224Z</time></trkpt><trkpt lat="44.4413745" lon="10.0410024"><ele>805.25</ele><time>2026-03-22T09:23:39.229Z</time></trkpt><trkpt lat="44.4414902" lon="10.0409554"><ele>805.5</ele><time>2026-03-22T09:23:40.221Z</time></trkpt><trkpt lat="44.441613" lon="10.0409052"><ele>805.75</ele><time>2026-03-22T09:23:41.221Z</time></trkpt><trkpt lat="44.4417357" lon="10.040865"><ele>806.0</ele><time>2026-03-22T09:23:42.219Z</time></trkpt><trkpt lat="44.4418425" lon="10.0408466"><ele>806.0</ele><time>2026-03-22T09:23:43.227Z</time></trkpt><trkpt lat="44.4419453" lon="10.0408425"><ele>806.0</ele><time>2026-03-22T09:23:44.226Z</time></trkpt><trkpt lat="44.442054" lon="10.0408359"><ele>806.0</ele><time>2026-03-22T09:23:45.224Z</time></trkpt><trkpt lat="44.4421611" lon="10.0408296"><ele>806.0</ele><time>2026-03-22T09:23:46.221Z</time></trkpt><trkpt lat="44.4422729" lon="10.0408075"><ele>806.0</ele><time>2026-03-22T09:23:47.223Z</time></trkpt><trkpt lat="44.4423722" lon="10.0407813"><ele>811.4</ele><time>2026-03-22T09:23:48.222Z</time></trkpt><trkpt lat="44.4424716" lon="10.0407635"><ele>816.8</ele><time>2026-03-22T09:23:49.227Z</time></trkpt><trkpt lat="44.4425754" lon="10.0407342"><ele>822.1999999999999</ele><time>2026-03-22T09:23:50.222Z</time></trkpt><trkpt lat="44.4426806" lon="10.0407022"><ele>827.5999999999999</ele><time>2026-03-22T09:23:51.228Z</time></trkpt><trkpt lat="44.4427825" lon="10.0406623"><ele>833.0</ele><time>2026-03-22T09:23:52.22Z</time></trkpt><trkpt lat="44.4428876" lon="10.0406059"><ele>830.25</ele><time>2026-03-22T09:23:53.222Z</time></trkpt><trkpt lat="44.4429893" lon="10.0405436"><ele>827.5</ele><time>2026-03-22T09:23:54.231Z</time></trkpt><trkpt lat="44.4430916" lon="10.0404824"><ele>824.75</ele><time>2026-03-22T09:23:55.229Z</time></trkpt><trkpt lat="44.443202" lon="10.0404202"><ele>822.0</ele><time>2026-03-22T09:23:56.224Z</time></trkpt><trkpt lat="44.4433165" lon="10.04036"><ele>822.0</ele><time>2026-03-22T09:23:57.228Z</time></trkpt><trkpt lat="44.4434403" lon="10.0403007"><ele>822.0</ele><time>2026-03-22T09:23:58.23Z</time></trkpt><trkpt lat="44.4435678" lon="10.040248"><ele>822.0</ele><time>2026-03-22T09:23:59.234Z</time></trkpt><trkpt lat="44.4436947" lon="10.0401953"><ele>822.0</ele><time>2026-03-22T09:24:00.226Z</time></trkpt><trkpt lat="44.4438135" lon="10.0401308"><ele>821.0</ele><time>2026-03-22T09:24:01.232Z</time></trkpt><trkpt lat="44.443933" lon="10.0400786"><ele>820.0</ele><time>2026-03-22T09:24:02.23Z</time></trkpt><trkpt lat="44.4440558" lon="10.0400677"><ele>819.0</ele><time>2026-03-22T09:24:03.231Z</time></trkpt><trkpt lat="44.4441804" lon="10.0401107"><ele>818.0</ele><time>2026-03-22T09:24:04.232Z</time></trkpt><trkpt lat="44.4443011" lon="10.0401751"><ele>818.0</ele><time>2026-03-22T09:24:05.23Z</time></trkpt><trkpt lat="44.4444047" lon="10.0402378"><ele>818.0</ele><time>2026-03-22T09:24:06.231Z</time></trkpt><trkpt lat="44.4444934" lon="10.0402835"><ele>818.0</ele><time>2026-03-22T09:24:07.235Z</time></trkpt><trkpt lat="44.4445824" lon="10.0402921"><ele>818.0</ele><time>2026-03-22T09:24:08.229Z</time></trkpt><trkpt lat="44.4446612" lon="10.0402558"><ele>818.0</ele><time>2026-03-22T09:24:09.229Z</time></trkpt><trkpt lat="44.4447278" lon="10.0401894"><ele>818.6666666666667</ele><time>2026-03-22T09:24:10.223Z</time></trkpt><trkpt lat="44.4447697" lon="10.0400951"><ele>819.3333333333334</ele><time>2026-03-22T09:24:11.231Z</time></trkpt><trkpt lat="44.4447915" lon="10.039986"><ele>820.0</ele><time>2026-03-22T09:24:12.233Z</time></trkpt><trkpt lat="44.4447815" lon="10.0398675"><ele>820.6666666666667</ele><time>2026-03-22T09:24:13.231Z</time></trkpt><trkpt lat="44.4447429" lon="10.0397559"><ele>821.3333333333334</ele><time>2026-03-22T09:24:14.238Z</time></trkpt><trkpt lat="44.4446753" lon="10.039682"><ele>822.0</ele><time>2026-03-22T09:24:15.222Z</time></trkpt><trkpt lat="44.4445968" lon="10.0396424"><ele>824.8</ele><time>2026-03-22T09:24:16.238Z</time></trkpt><trkpt lat="44.4444987" lon="10.0396421"><ele>827.6</ele><time>2026-03-22T09:24:17.231Z</time></trkpt><trkpt lat="44.4443893" lon="10.0396538"><ele>830.4</ele><time>2026-03-22T09:24:18.241Z</time></trkpt><trkpt lat="44.4442749" lon="10.0396689"><ele>833.1999999999999</ele><time>2026-03-22T09:24:19.236Z</time></trkpt><trkpt lat="44.4441514" lon="10.0396811"><ele>836.0</ele><time>2026-03-22T09:24:20.235Z</time></trkpt><trkpt lat="44.4440144" lon="10.0396826"><ele>836.0</ele><time>2026-03-22T09:24:21.23Z</time></trkpt><trkpt lat="44.4438734" lon="10.0396951"><ele>836.0</ele><time>2026-03-22T09:24:22.232Z</time></trkpt><trkpt lat="44.44373" lon="10.0397046"><ele>836.0</ele><time>2026-03-22T09:24:23.233Z</time></trkpt><trkpt lat="44.4435804" lon="10.0397106"><ele>836.0</ele><time>2026-03-22T09:24:24.244Z</time></trkpt><trkpt lat="44.4433821" lon="10.0397103"><ele>836.0</ele><time>2026-03-22T09:24:25.232Z</time></trkpt><trkpt lat="44.4431988" lon="10.0397174"><ele>836.0</ele><time>2026-03-22T09:24:26.237Z</time></trkpt><trkpt lat="44.4430346" lon="10.03974"><ele>836.0</ele><time>2026-03-22T09:24:27.233Z</time></trkpt><trkpt lat="44.4428769" lon="10.0397541"><ele>837.6666666666667</ele><time>2026-03-22T09:24:28.235Z</time></trkpt><trkpt lat="44.4427215" lon="10.0397574"><ele>839.3333333333333</ele><time>2026-03-22T09:24:29.238Z</time></trkpt><trkpt lat="44.4425508" lon="10.0397638"><ele>841.0</ele><time>2026-03-22T09:24:30.246Z</time></trkpt><trkpt lat="44.4423861" lon="10.0397795"><ele>841.0</ele><time>2026-03-22T09:24:31.238Z</time></trkpt><trkpt lat="44.4422091" lon="10.0397756"><ele>841.0</ele><time>2026-03-22T09:24:32.233Z</time></trkpt><trkpt lat="44.4420325" lon="10.0397919"><ele>841.0</ele><time>2026-03-22T09:24:33.234Z</time></trkpt><trkpt lat="44.4418659" lon="10.0398141"><ele>843.6666666666666</ele><time>2026-03-22T09:24:34.232Z</time></trkpt><trkpt lat="44.4417077" lon="10.039828"><ele>846.3333333333333</ele><time>2026-03-22T09:24:35.236Z</time></trkpt><trkpt lat="44.4415592" lon="10.0398425"><ele>849.0</ele><time>2026-03-22T09:24:36.232Z</time></trkpt><trkpt lat="44.4414077" lon="10.0398305"><ele>850.25</ele><time>2026-03-22T09:24:37.231Z</time></trkpt><trkpt lat="44.4412596" lon="10.0397983"><ele>851.5</ele><time>2026-03-22T09:24:38.239Z</time></trkpt><trkpt lat="44.4411239" lon="10.0397639"><ele>852.75</ele><time>2026-03-22T09:24:39.231Z</time></trkpt><trkpt lat="44.4409738" lon="10.0396967"><ele>854.0</ele><time>2026-03-22T09:24:40.235Z</time></trkpt><trkpt lat="44.4408407" lon="10.0396006"><ele>854.0</ele><time>2026-03-22T09:24:41.235Z</time></trkpt><trkpt lat="44.4407212" lon="10.0394214"><ele>854.0</ele><time>2026-03-22T09:24:42.232Z</time></trkpt><trkpt lat="44.4406209" lon="10.0392219"><ele>854.0</ele><time>2026-03-22T09:24:43.24Z</time></trkpt><trkpt lat="44.4405198" lon="10.0389897"><ele>854.6666666666667</ele><time>2026-03-22T09:24:44.243Z</time></trkpt><trkpt lat="44.4404163" lon="10.0387266"><ele>855.3333333333333</ele><time>2026-03-22T09:24:45.241Z</time></trkpt><trkpt lat="44.4403252" lon="10.0384855"><ele>856.0</ele><time>2026-03-22T09:24:46.244Z</time></trkpt><trkpt lat="44.4402354" lon="10.0382431"><ele>859.6666666666666</ele><time>2026-03-22T09:24:47.24Z</time></trkpt><trkpt lat="44.440136" lon="10.0380123"><ele>863.3333333333333</ele><time>2026-03-22T09:24:48.238Z</time></trkpt><trkpt lat="44.4400239" lon="10.037765"><ele>867.0</ele><time>2026-03-22T09:24:49.238Z</time></trkpt><trkpt lat="44.4399195" lon="10.0375083"><ele>868.0</ele><time>2026-03-22T09:24:50.234Z</time></trkpt><trkpt lat="44.4397974" lon="10.0372556"><ele>869.0</ele><time>2026-03-22T09:24:51.239Z</time></trkpt><trkpt lat="44.4396624" lon="10.0370318"><ele>870.0</ele><time>2026-03-22T09:24:52.237Z</time></trkpt><trkpt lat="44.439518" lon="10.0368118"><ele>875.0</ele><time>2026-03-22T09:24:53.234Z</time></trkpt><trkpt lat="44.4393642" lon="10.0366162"><ele>880.0</ele><time>2026-03-22T09:24:54.238Z</time></trkpt><trkpt lat="44.4391934" lon="10.036436"><ele>885.0</ele><time>2026-03-22T09:24:55.238Z</time></trkpt><trkpt lat="44.439032" lon="10.0362657"><ele>885.0</ele><time>2026-03-22T09:24:56.232Z</time></trkpt><trkpt lat="44.4388817" lon="10.0360736"><ele>885.0</ele><time>2026-03-22T09:24:57.242Z</time></trkpt><trkpt lat="44.4387174" lon="10.0358789"><ele>885.0</ele><time>2026-03-22T09:24:58.239Z</time></trkpt><trkpt lat="44.4385563" lon="10.0356965"><ele>888.3333333333333</ele><time>2026-03-22T09:24:59.233Z</time></trkpt><trkpt lat="44.4384109" lon="10.0355239"><ele>891.6666666666666</ele><time>2026-03-22T09:25:00.237Z</time></trkpt><trkpt lat="44.4382774" lon="10.0353904"><ele>895.0</ele><time>2026-03-22T09:25:01.237Z</time></trkpt><trkpt lat="44.4381706" lon="10.0352359"><ele>895.0</ele><time>2026-03-22T09:25:02.227Z</time></trkpt><trkpt lat="44.4380718" lon="10.0350976"><ele>895.0</ele><time>2026-03-22T09:25:03.228Z</time></trkpt><trkpt lat="44.4379997" lon="10.0349385"><ele>895.0</ele><time>2026-03-22T09:25:04.231Z</time></trkpt><trkpt lat="44.4379793" lon="10.0347675"><ele>895.0</ele><time>2026-03-22T09:25:05.218Z</time></trkpt><trkpt lat="44.437987" lon="10.0345884"><ele>896.5</ele><time>2026-03-22T09:25:06.225Z</time></trkpt><trkpt lat="44.4380156" lon="10.0344294"><ele>898.0</ele><time>2026-03-22T09:25:07.232Z</time></trkpt><trkpt lat="44.43807" lon="10.0342884"><ele>899.5</ele><time>2026-03-22T09:25:08.22Z</time></trkpt><trkpt lat="44.438162" lon="10.0341694"><ele>901.0</ele><time>2026-03-22T09:25:09.225Z</time></trkpt><trkpt lat="44.4382711" lon="10.0340864"><ele>904.75</ele><time>2026-03-22T09:25:10.226Z</time></trkpt><trkpt lat="44.4383902" lon="10.0340416"><ele>908.5</ele><time>2026-03-22T09:25:11.228Z</time></trkpt><trkpt lat="44.4385243" lon="10.0340493"><ele>912.25</ele><time>2026-03-22T09:25:12.219Z</time></trkpt><trkpt lat="44.4386713" lon="10.0340748"><ele>916.0</ele><time>2026-03-22T09:25:13.229Z</time></trkpt><trkpt lat="44.4388197" lon="10.0341301"><ele>916.0</ele><time>2026-03-22T09:25:14.232Z</time></trkpt><trkpt lat="44.4389678" lon="10.0341428"><ele>916.0</ele><time>2026-03-22T09:25:15.235Z</time></trkpt><trkpt lat="44.4391077" lon="10.0341514"><ele>916.0</ele><time>2026-03-22T09:25:16.233Z</time></trkpt><trkpt lat="44.4392185" lon="10.0341264"><ele>916.0</ele><time>2026-03-22T09:25:17.236Z</time></trkpt><trkpt lat="44.4393126" lon="10.0340623"><ele>916.0</ele><time>2026-03-22T09:25:18.235Z</time></trkpt><trkpt lat="44.4393701" lon="10.0339526"><ele>915.9999999999999</ele><time>2026-03-22T09:25:19.24Z</time></trkpt><trkpt lat="44.4394192" lon="10.0338315"><ele>915.9999999999999</ele><time>2026-03-22T09:25:20.234Z</time></trkpt><trkpt lat="44.4394483" lon="10.0337044"><ele>916.0</ele><time>2026-03-22T09:25:21.24Z</time></trkpt><trkpt lat="44.4394416" lon="10.0335614"><ele>916.0</ele><time>2026-03-22T09:25:22.239Z</time></trkpt><trkpt lat="44.4393969" lon="10.0334308"><ele>916.0</ele><time>2026-03-22T09:25:23.241Z</time></trkpt><trkpt lat="44.4393157" lon="10.033327"><ele>916.0</ele><time>2026-03-22T09:25:24.246Z</time></trkpt><trkpt lat="44.4392078" lon="10.0332569"><ele>916.0</ele><time>2026-03-22T09:25:25.236Z</time></trkpt><trkpt lat="44.4390834" lon="10.0331988"><ele>916.0</ele><time>2026-03-22T09:25:26.283Z</time></trkpt><trkpt lat="44.4389515" lon="10.0331388"><ele>917.75</ele><time>2026-03-22T09:25:27.231Z</time></trkpt><trkpt lat="44.4388164" lon="10.0330683"><ele>919.5</ele><time>2026-03-22T09:25:28.233Z</time></trkpt><trkpt lat="44.4386734" lon="10.0329625"><ele>921.25</ele><time>2026-03-22T09:25:29.237Z</time></trkpt><trkpt lat="44.4385832" lon="10.0328655"><ele>923.0</ele><time>2026-03-22T09:25:30.234Z</time></trkpt><trkpt lat="44.4385159" lon="10.0327956"><ele>923.7142857142857</ele><time>2026-03-22T09:25:31.231Z</time></trkpt><trkpt lat="44.4384673" lon="10.0327292"><ele>924.4285714285716</ele><time>2026-03-22T09:25:32.236Z</time></trkpt><trkpt lat="44.4384054" lon="10.032682"><ele>925.1428571428572</ele><time>2026-03-22T09:25:33.227Z</time></trkpt><trkpt lat="44.4383339" lon="10.0326865"><ele>925.8571428571429</ele><time>2026-03-22T09:25:34.226Z</time></trkpt><trkpt lat="44.438257" lon="10.032676"><ele>926.5714285714287</ele><time>2026-03-22T09:25:36.232Z</time></trkpt><trkpt lat="44.43818" lon="10.032655"><ele>927.2857142857144</ele><time>2026-03-22T09:25:45.238Z</time></trkpt><trkpt lat="44.4382443" lon="10.0326789"><ele>928.0000000000001</ele><time>2026-03-22T09:25:51.238Z</time></trkpt><trkpt lat="44.4383576" lon="10.0327625"><ele>928.0</ele><time>2026-03-22T09:25:52.288Z</time></trkpt><trkpt lat="44.438472" lon="10.0328734"><ele>928.0</ele><time>2026-03-22T09:25:53.236Z</time></trkpt><trkpt lat="44.4385977" lon="10.032989"><ele>928.0</ele><time>2026-03-22T09:25:54.238Z</time></trkpt><trkpt lat="44.4387229" lon="10.0330854"><ele>928.0</ele><time>2026-03-22T09:25:55.232Z</time></trkpt><trkpt lat="44.4388521" lon="10.0331636"><ele>927.0</ele><time>2026-03-22T09:25:56.232Z</time></trkpt><trkpt lat="44.4389785" lon="10.0332281"><ele>926.0</ele><time>2026-03-22T09:25:57.233Z</time></trkpt><trkpt lat="44.4390934" lon="10.033276"><ele>925.0</ele><time>2026-03-22T09:25:58.233Z</time></trkpt><trkpt lat="44.4391865" lon="10.0333224"><ele>924.0</ele><time>2026-03-22T09:25:59.238Z</time></trkpt><trkpt lat="44.4392577" lon="10.0333825"><ele>923.0</ele><time>2026-03-22T09:26:00.235Z</time></trkpt><trkpt lat="44.4393095" lon="10.0334399"><ele>921.5999999999999</ele><time>2026-03-22T09:26:01.241Z</time></trkpt><trkpt lat="44.4394063" lon="10.0335312"><ele>920.1999999999999</ele><time>2026-03-22T09:26:03.243Z</time></trkpt><trkpt lat="44.4394969" lon="10.0335293"><ele>918.8</ele><time>2026-03-22T09:26:05.299Z</time></trkpt><trkpt lat="44.4395599" lon="10.0334842"><ele>917.4</ele><time>2026-03-22T09:26:08.235Z</time></trkpt><trkpt lat="44.4396269" lon="10.0334521"><ele>916.0</ele><time>2026-03-22T09:26:13.235Z</time></trkpt><trkpt lat="44.4397458" lon="10.0334202"><ele>915.0</ele><time>2026-03-22T09:26:15.236Z</time></trkpt><trkpt lat="44.4398727" lon="10.0334218"><ele>914.0</ele><time>2026-03-22T09:26:16.24Z</time></trkpt><trkpt lat="44.439988" lon="10.0334164"><ele>913.0</ele><time>2026-03-22T09:26:17.228Z</time></trkpt><trkpt lat="44.4401118" lon="10.033423"><ele>912.0</ele><time>2026-03-22T09:26:18.23Z</time></trkpt><trkpt lat="44.4402331" lon="10.0334243"><ele>912.0</ele><time>2026-03-22T09:26:19.237Z</time></trkpt><trkpt lat="44.4403553" lon="10.0333978"><ele>912.0</ele><time>2026-03-22T09:26:20.234Z</time></trkpt><trkpt lat="44.4404733" lon="10.0333431"><ele>912.0</ele><time>2026-03-22T09:26:21.237Z</time></trkpt><trkpt lat="44.4405968" lon="10.0332737"><ele>912.0</ele><time>2026-03-22T09:26:22.238Z</time></trkpt><trkpt lat="44.4407333" lon="10.0332025"><ele>910.5</ele><time>2026-03-22T09:26:23.246Z</time></trkpt><trkpt lat="44.4408965" lon="10.0331416"><ele>909.0</ele><time>2026-03-22T09:26:24.242Z</time></trkpt><trkpt lat="44.4410266" lon="10.0330759"><ele>907.5</ele><time>2026-03-22T09:26:25.237Z</time></trkpt><trkpt lat="44.4411611" lon="10.0330275"><ele>906.0</ele><time>2026-03-22T09:26:26.238Z</time></trkpt><trkpt lat="44.4412677" lon="10.0329829"><ele>904.5999999999999</ele><time>2026-03-22T09:26:27.243Z</time></trkpt><trkpt lat="44.4413702" lon="10.0329468"><ele>903.1999999999999</ele><time>2026-03-22T09:26:28.242Z</time></trkpt><trkpt lat="44.4414605" lon="10.0329122"><ele>901.8000000000001</ele><time>2026-03-22T09:26:29.241Z</time></trkpt><trkpt lat="44.4415597" lon="10.0329006"><ele>900.4000000000001</ele><time>2026-03-22T09:26:30.239Z</time></trkpt><trkpt lat="44.441657" lon="10.0329188"><ele>899.0</ele><time>2026-03-22T09:26:31.243Z</time></trkpt><trkpt lat="44.4417595" lon="10.0329531"><ele>899.0000000000001</ele><time>2026-03-22T09:26:32.24Z</time></trkpt><trkpt lat="44.4418648" lon="10.0329938"><ele>899.0</ele><time>2026-03-22T09:26:33.238Z</time></trkpt><trkpt lat="44.4419622" lon="10.033033"><ele>899.0</ele><time>2026-03-22T09:26:34.239Z</time></trkpt><trkpt lat="44.4420392" lon="10.0330578"><ele>899.0</ele><time>2026-03-22T09:26:35.242Z</time></trkpt><trkpt lat="44.4421234" lon="10.0330503"><ele>899.0000000000001</ele><time>2026-03-22T09:26:37.239Z</time></trkpt><trkpt lat="44.442129" lon="10.032958"><ele>899.0</ele><time>2026-03-22T09:26:39.243Z</time></trkpt><trkpt lat="44.4420743" lon="10.0328988"><ele>899.0</ele><time>2026-03-22T09:26:41.238Z</time></trkpt><trkpt lat="44.4419935" lon="10.0328603"><ele>899.0</ele><time>2026-03-22T09:26:42.244Z</time></trkpt><trkpt lat="44.4418777" lon="10.0327806"><ele>899.0</ele><time>2026-03-22T09:26:43.236Z</time></trkpt><trkpt lat="44.4417668" lon="10.0326797"><ele>899.0</ele><time>2026-03-22T09:26:44.244Z</time></trkpt><trkpt lat="44.4416416" lon="10.0325579"><ele>899.3333333333334</ele><time>2026-03-22T09:26:45.234Z</time></trkpt><trkpt lat="44.4415121" lon="10.0324333"><ele>899.6666666666667</ele><time>2026-03-22T09:26:46.239Z</time></trkpt><trkpt lat="44.4413527" lon="10.0322808"><ele>900.0</ele><time>2026-03-22T09:26:47.244Z</time></trkpt><trkpt lat="44.4412043" lon="10.0321433"><ele>900.0</ele><time>2026-03-22T09:26:48.237Z</time></trkpt><trkpt lat="44.4410729" lon="10.0319954"><ele>900.0</ele><time>2026-03-22T09:26:49.24Z</time></trkpt><trkpt lat="44.4409574" lon="10.0318603"><ele>900.0</ele><time>2026-03-22T09:26:50.235Z</time></trkpt><trkpt lat="44.440851" lon="10.031755"><ele>900.0</ele><time>2026-03-22T09:26:51.24Z</time></trkpt><trkpt lat="44.4407491" lon="10.0316515"><ele>899.2</ele><time>2026-03-22T09:26:52.241Z</time></trkpt><trkpt lat="44.4406627" lon="10.0315567"><ele>898.4</ele><time>2026-03-22T09:26:53.235Z</time></trkpt><trkpt lat="44.4405759" lon="10.0314979"><ele>897.5999999999999</ele><time>2026-03-22T09:26:54.238Z</time></trkpt><trkpt lat="44.4404678" lon="10.0314523"><ele>896.8</ele><time>2026-03-22T09:26:55.24Z</time></trkpt><trkpt lat="44.4403458" lon="10.0314079"><ele>896.0</ele><time>2026-03-22T09:26:56.235Z</time></trkpt><trkpt lat="44.4402327" lon="10.0313584"><ele>896.0</ele><time>2026-03-22T09:26:57.227Z</time></trkpt><trkpt lat="44.4401237" lon="10.0312774"><ele>896.0</ele><time>2026-03-22T09:26:58.227Z</time></trkpt><trkpt lat="44.4400182" lon="10.0311852"><ele>896.0</ele><time>2026-03-22T09:26:59.225Z</time></trkpt><trkpt lat="44.4399004" lon="10.0311058"><ele>896.0</ele><time>2026-03-22T09:27:00.222Z</time></trkpt><trkpt lat="44.4397639" lon="10.0310497"><ele>896.0</ele><time>2026-03-22T09:27:01.228Z</time></trkpt><trkpt lat="44.4396194" lon="10.0309901"><ele>896.0</ele><time>2026-03-22T09:27:02.218Z</time></trkpt><trkpt lat="44.4394924" lon="10.0309126"><ele>896.0</ele><time>2026-03-22T09:27:03.227Z</time></trkpt><trkpt lat="44.4393864" lon="10.0308127"><ele>896.0</ele><time>2026-03-22T09:27:04.223Z</time></trkpt><trkpt lat="44.4392875" lon="10.0307067"><ele>896.0</ele><time>2026-03-22T09:27:05.224Z</time></trkpt><trkpt lat="44.4392192" lon="10.0305551"><ele>895.9999999999999</ele><time>2026-03-22T09:27:06.231Z</time></trkpt><trkpt lat="44.4391776" lon="10.030426"><ele>895.9999999999999</ele><time>2026-03-22T09:27:07.216Z</time></trkpt><trkpt lat="44.4391636" lon="10.0303052"><ele>896.0</ele><time>2026-03-22T09:27:08.214Z</time></trkpt><trkpt lat="44.4391447" lon="10.0301835"><ele>896.0</ele><time>2026-03-22T09:27:09.217Z</time></trkpt><trkpt lat="44.439155" lon="10.0300753"><ele>896.0</ele><time>2026-03-22T09:27:10.232Z</time></trkpt><trkpt lat="44.4392032" lon="10.0299973"><ele>895.9999999999999</ele><time>2026-03-22T09:27:11.231Z</time></trkpt><trkpt lat="44.4392805" lon="10.0299237"><ele>895.9999999999999</ele><time>2026-03-22T09:27:12.233Z</time></trkpt><trkpt lat="44.4393674" lon="10.0298522"><ele>896.0</ele><time>2026-03-22T09:27:13.239Z</time></trkpt><trkpt lat="44.4394572" lon="10.0297979"><ele>896.0</ele><time>2026-03-22T09:27:14.241Z</time></trkpt><trkpt lat="44.4395508" lon="10.0297901"><ele>896.75</ele><time>2026-03-22T09:27:15.232Z</time></trkpt><trkpt lat="44.4396515" lon="10.0298524"><ele>897.5</ele><time>2026-03-22T09:27:16.24Z</time></trkpt><trkpt lat="44.4397477" lon="10.0299631"><ele>898.25</ele><time>2026-03-22T09:27:17.237Z</time></trkpt><trkpt lat="44.4398608" lon="10.0300855"><ele>899.0</ele><time>2026-03-22T09:27:18.24Z</time></trkpt><trkpt lat="44.4399726" lon="10.0301898"><ele>899.0</ele><time>2026-03-22T09:27:19.246Z</time></trkpt><trkpt lat="44.4400763" lon="10.0302581"><ele>899.0000000000001</ele><time>2026-03-22T09:27:20.24Z</time></trkpt><trkpt lat="44.4401883" lon="10.0302988"><ele>899.0000000000001</ele><time>2026-03-22T09:27:21.24Z</time></trkpt><trkpt lat="44.4402949" lon="10.0303141"><ele>899.0</ele><time>2026-03-22T09:27:22.237Z</time></trkpt><trkpt lat="44.4403816" lon="10.0303039"><ele>899.0</ele><time>2026-03-22T09:27:23.245Z</time></trkpt><trkpt lat="44.4404459" lon="10.0302539"><ele>899.0</ele><time>2026-03-22T09:27:24.245Z</time></trkpt><trkpt lat="44.4404844" lon="10.030177"><ele>899.0000000000001</ele><time>2026-03-22T09:27:25.235Z</time></trkpt><trkpt lat="44.4404934" lon="10.0300843"><ele>899.0000000000001</ele><time>2026-03-22T09:27:26.241Z</time></trkpt><trkpt lat="44.4404822" lon="10.0299657"><ele>899.0</ele><time>2026-03-22T09:27:27.244Z</time></trkpt><trkpt lat="44.4404495" lon="10.0298138"><ele>899.0</ele><time>2026-03-22T09:27:28.24Z</time></trkpt><trkpt lat="44.4404118" lon="10.0296421"><ele>900.5</ele><time>2026-03-22T09:27:29.235Z</time></trkpt><trkpt lat="44.4403912" lon="10.0294618"><ele>902.0</ele><time>2026-03-22T09:27:30.243Z</time></trkpt><trkpt lat="44.4403818" lon="10.0292835"><ele>903.5</ele><time>2026-03-22T09:27:31.237Z</time></trkpt><trkpt lat="44.4403942" lon="10.0291243"><ele>905.0</ele><time>2026-03-22T09:27:32.236Z</time></trkpt><trkpt lat="44.4404492" lon="10.028981"><ele>905.3333333333334</ele><time>2026-03-22T09:27:33.243Z</time></trkpt><trkpt lat="44.4405347" lon="10.028841"><ele>905.6666666666667</ele><time>2026-03-22T09:27:34.252Z</time></trkpt><trkpt lat="44.4406626" lon="10.028711"><ele>906.0</ele><time>2026-03-22T09:27:35.241Z</time></trkpt><trkpt lat="44.4408605" lon="10.0285829"><ele>906.0</ele><time>2026-03-22T09:27:36.247Z</time></trkpt><trkpt lat="44.4410038" lon="10.0284641"><ele>906.0</ele><time>2026-03-22T09:27:37.244Z</time></trkpt><trkpt lat="44.4411067" lon="10.0283653"><ele>906.0</ele><time>2026-03-22T09:27:38.241Z</time></trkpt><trkpt lat="44.441189" lon="10.0282711"><ele>906.0</ele><time>2026-03-22T09:27:39.242Z</time></trkpt><trkpt lat="44.4412315" lon="10.0281553"><ele>907.1999999999999</ele><time>2026-03-22T09:27:40.247Z</time></trkpt><trkpt lat="44.4412519" lon="10.0280288"><ele>908.3999999999999</ele><time>2026-03-22T09:27:41.24Z</time></trkpt><trkpt lat="44.4412429" lon="10.0279083"><ele>909.6</ele><time>2026-03-22T09:27:42.241Z</time></trkpt><trkpt lat="44.4412229" lon="10.0277887"><ele>910.8</ele><time>2026-03-22T09:27:43.238Z</time></trkpt><trkpt lat="44.4411819" lon="10.0276557"><ele>912.0</ele><time>2026-03-22T09:27:44.241Z</time></trkpt><trkpt lat="44.4411303" lon="10.027492"><ele>910.0</ele><time>2026-03-22T09:27:45.24Z</time></trkpt><trkpt lat="44.4410658" lon="10.0272978"><ele>908.0</ele><time>2026-03-22T09:27:46.242Z</time></trkpt><trkpt lat="44.4409677" lon="10.0270845"><ele>906.0</ele><time>2026-03-22T09:27:47.237Z</time></trkpt><trkpt lat="44.4408936" lon="10.0268854"><ele>906.0</ele><time>2026-03-22T09:27:48.236Z</time></trkpt><trkpt lat="44.440866" lon="10.0266928"><ele>906.0</ele><time>2026-03-22T09:27:49.232Z</time></trkpt><trkpt lat="44.4408541" lon="10.0264968"><ele>906.0</ele><time>2026-03-22T09:27:50.235Z</time></trkpt><trkpt lat="44.4408586" lon="10.0263264"><ele>906.0</ele><time>2026-03-22T09:27:51.23Z</time></trkpt><trkpt lat="44.4409244" lon="10.0261875"><ele>907.0</ele><time>2026-03-22T09:27:52.319Z</time></trkpt><trkpt lat="44.4410031" lon="10.0260774"><ele>908.0</ele><time>2026-03-22T09:27:53.236Z</time></trkpt><trkpt lat="44.4410902" lon="10.0259862"><ele>909.0</ele><time>2026-03-22T09:27:54.24Z</time></trkpt><trkpt lat="44.4412002" lon="10.0259223"><ele>910.0</ele><time>2026-03-22T09:27:55.236Z</time></trkpt><trkpt lat="44.4413136" lon="10.0258696"><ele>907.5</ele><time>2026-03-22T09:27:56.235Z</time></trkpt><trkpt lat="44.4414579" lon="10.0258453"><ele>905.0</ele><time>2026-03-22T09:27:57.242Z</time></trkpt><trkpt lat="44.4415966" lon="10.025842"><ele>902.5</ele><time>2026-03-22T09:27:58.245Z</time></trkpt><trkpt lat="44.4417467" lon="10.0258716"><ele>900.0</ele><time>2026-03-22T09:27:59.236Z</time></trkpt><trkpt lat="44.4418748" lon="10.0259119"><ele>900.0</ele><time>2026-03-22T09:28:00.234Z</time></trkpt><trkpt lat="44.4419871" lon="10.025996"><ele>900.0</ele><time>2026-03-22T09:28:01.241Z</time></trkpt><trkpt lat="44.4420919" lon="10.0260531"><ele>900.0</ele><time>2026-03-22T09:28:02.233Z</time></trkpt><trkpt lat="44.4422153" lon="10.0260674"><ele>900.0</ele><time>2026-03-22T09:28:03.241Z</time></trkpt><trkpt lat="44.4423483" lon="10.0260504"><ele>901.6</ele><time>2026-03-22T09:28:04.241Z</time></trkpt><trkpt lat="44.4424702" lon="10.0260443"><ele>903.2</ele><time>2026-03-22T09:28:05.243Z</time></trkpt><trkpt lat="44.4425795" lon="10.0260491"><ele>904.8</ele><time>2026-03-22T09:28:06.245Z</time></trkpt><trkpt lat="44.4426681" lon="10.0260533"><ele>906.4</ele><time>2026-03-22T09:28:07.245Z</time></trkpt><trkpt lat="44.4427352" lon="10.0260496"><ele>908.0</ele><time>2026-03-22T09:28:08.241Z</time></trkpt><trkpt lat="44.4428334" lon="10.0260158"><ele>908.0</ele><time>2026-03-22T09:28:10.247Z</time></trkpt><trkpt lat="44.4429569" lon="10.0259501"><ele>908.0</ele><time>2026-03-22T09:28:12.242Z</time></trkpt><trkpt lat="44.4430436" lon="10.025908"><ele>908.0</ele><time>2026-03-22T09:28:13.242Z</time></trkpt><trkpt lat="44.4431381" lon="10.0258826"><ele>908.0</ele><time>2026-03-22T09:28:14.249Z</time></trkpt><trkpt lat="44.4432357" lon="10.0259088"><ele>908.0</ele><time>2026-03-22T09:28:15.238Z</time></trkpt><trkpt lat="44.4433246" lon="10.0259582"><ele>909.3333333333334</ele><time>2026-03-22T09:28:16.248Z</time></trkpt><trkpt lat="44.4434051" lon="10.0260133"><ele>910.6666666666667</ele><time>2026-03-22T09:28:17.246Z</time></trkpt><trkpt lat="44.4434726" lon="10.0260351"><ele>912.0</ele><time>2026-03-22T09:28:18.251Z</time></trkpt><trkpt lat="44.4435376" lon="10.0260231"><ele>913.3333333333333</ele><time>2026-03-22T09:28:19.247Z</time></trkpt><trkpt lat="44.4436092" lon="10.0259889"><ele>914.6666666666666</ele><time>2026-03-22T09:28:20.246Z</time></trkpt><trkpt lat="44.4436872" lon="10.025944"><ele>916.0</ele><time>2026-03-22T09:28:21.247Z</time></trkpt><trkpt lat="44.4437757" lon="10.0258866"><ele>917.8</ele><time>2026-03-22T09:28:22.249Z</time></trkpt><trkpt lat="44.4438729" lon="10.0258364"><ele>919.5999999999999</ele><time>2026-03-22T09:28:23.242Z</time></trkpt><trkpt lat="44.4439718" lon="10.0257891"><ele>921.4</ele><time>2026-03-22T09:28:24.247Z</time></trkpt><trkpt lat="44.4440654" lon="10.025735"><ele>923.2</ele><time>2026-03-22T09:28:25.241Z</time></trkpt><trkpt lat="44.4441603" lon="10.0256797"><ele>925.0</ele><time>2026-03-22T09:28:26.241Z</time></trkpt><trkpt lat="44.4442631" lon="10.0256207"><ele>928.25</ele><time>2026-03-22T09:28:27.24Z</time></trkpt><trkpt lat="44.4443799" lon="10.0255546"><ele>931.5</ele><time>2026-03-22T09:28:28.241Z</time></trkpt><trkpt lat="44.4445172" lon="10.0254878"><ele>934.75</ele><time>2026-03-22T09:28:29.237Z</time></trkpt><trkpt lat="44.4446485" lon="10.0254292"><ele>938.0</ele><time>2026-03-22T09:28:30.232Z</time></trkpt><trkpt lat="44.4447587" lon="10.0254015"><ele>938.0000000000001</ele><time>2026-03-22T09:28:31.238Z</time></trkpt><trkpt lat="44.4448621" lon="10.0253767"><ele>938.0</ele><time>2026-03-22T09:28:32.237Z</time></trkpt><trkpt lat="44.4449339" lon="10.0253394"><ele>938.0</ele><time>2026-03-22T09:28:33.243Z</time></trkpt><trkpt lat="44.4449733" lon="10.0252603"><ele>938.0</ele><time>2026-03-22T09:28:34.238Z</time></trkpt><trkpt lat="44.4449898" lon="10.0251486"><ele>938.0000000000001</ele><time>2026-03-22T09:28:35.237Z</time></trkpt><trkpt lat="44.4449907" lon="10.0250304"><ele>938.0</ele><time>2026-03-22T09:28:36.248Z</time></trkpt><trkpt lat="44.444965" lon="10.0249285"><ele>940.5999999999999</ele><time>2026-03-22T09:28:37.24Z</time></trkpt><trkpt lat="44.4448889" lon="10.0248282"><ele>943.1999999999999</ele><time>2026-03-22T09:28:39.246Z</time></trkpt><trkpt lat="44.444786" lon="10.0248075"><ele>945.8</ele><time>2026-03-22T09:28:41.247Z</time></trkpt><trkpt lat="44.4446506" lon="10.0247783"><ele>948.4</ele><time>2026-03-22T09:28:43.239Z</time></trkpt><trkpt lat="44.4445577" lon="10.0247689"><ele>951.0</ele><time>2026-03-22T09:28:44.243Z</time></trkpt><trkpt lat="44.4444431" lon="10.0247527"><ele>951.4</ele><time>2026-03-22T09:28:45.234Z</time></trkpt><trkpt lat="44.4443195" lon="10.0247352"><ele>951.8</ele><time>2026-03-22T09:28:46.25Z</time></trkpt><trkpt lat="44.4441986" lon="10.0247134"><ele>952.1999999999999</ele><time>2026-03-22T09:28:47.248Z</time></trkpt><trkpt lat="44.4440956" lon="10.0246872"><ele>952.5999999999999</ele><time>2026-03-22T09:28:48.245Z</time></trkpt><trkpt lat="44.4440008" lon="10.0246531"><ele>953.0</ele><time>2026-03-22T09:28:49.244Z</time></trkpt><trkpt lat="44.4439159" lon="10.0245972"><ele>953.0</ele><time>2026-03-22T09:28:50.238Z</time></trkpt><trkpt lat="44.4438542" lon="10.024511"><ele>953.0</ele><time>2026-03-22T09:28:51.241Z</time></trkpt><trkpt lat="44.4438295" lon="10.0244051"><ele>953.0</ele><time>2026-03-22T09:28:52.248Z</time></trkpt><trkpt lat="44.4438526" lon="10.0242886"><ele>953.0</ele><time>2026-03-22T09:28:53.235Z</time></trkpt><trkpt lat="44.4439186" lon="10.0241731"><ele>953.0</ele><time>2026-03-22T09:28:54.245Z</time></trkpt><trkpt lat="44.4439993" lon="10.0240606"><ele>954.25</ele><time>2026-03-22T09:28:55.24Z</time></trkpt><trkpt lat="44.44409" lon="10.0239412"><ele>955.5</ele><time>2026-03-22T09:28:56.239Z</time></trkpt><trkpt lat="44.4441701" lon="10.0238328"><ele>956.75</ele><time>2026-03-22T09:28:57.247Z</time></trkpt><trkpt lat="44.444243" lon="10.0237076"><ele>958.0</ele><time>2026-03-22T09:28:58.244Z</time></trkpt><trkpt lat="44.4442842" lon="10.0235613"><ele>958.0</ele><time>2026-03-22T09:28:59.236Z</time></trkpt><trkpt lat="44.4443119" lon="10.0233974"><ele>958.0</ele><time>2026-03-22T09:29:00.236Z</time></trkpt><trkpt lat="44.4443236" lon="10.0232097"><ele>958.0</ele><time>2026-03-22T09:29:01.24Z</time></trkpt><trkpt lat="44.4443174" lon="10.0229918"><ele>958.0</ele><time>2026-03-22T09:29:02.232Z</time></trkpt><trkpt lat="44.4442821" lon="10.0227533"><ele>960.0</ele><time>2026-03-22T09:29:03.237Z</time></trkpt><trkpt lat="44.4441996" lon="10.0225303"><ele>962.0</ele><time>2026-03-22T09:29:04.238Z</time></trkpt><trkpt lat="44.4441548" lon="10.0223516"><ele>964.0</ele><time>2026-03-22T09:29:05.24Z</time></trkpt><trkpt lat="44.4441269" lon="10.0222019"><ele>966.0</ele><time>2026-03-22T09:29:06.243Z</time></trkpt><trkpt lat="44.4440711" lon="10.0220523"><ele>966.75</ele><time>2026-03-22T09:29:07.249Z</time></trkpt><trkpt lat="44.4439957" lon="10.0218862"><ele>967.5</ele><time>2026-03-22T09:29:08.245Z</time></trkpt><trkpt lat="44.4439163" lon="10.0217197"><ele>968.25</ele><time>2026-03-22T09:29:09.259Z</time></trkpt><trkpt lat="44.4438433" lon="10.0215484"><ele>969.0</ele><time>2026-03-22T09:29:10.245Z</time></trkpt><trkpt lat="44.4437593" lon="10.0213743"><ele>971.0</ele><time>2026-03-22T09:29:11.242Z</time></trkpt><trkpt lat="44.4436559" lon="10.0212227"><ele>973.0</ele><time>2026-03-22T09:29:12.244Z</time></trkpt><trkpt lat="44.4435509" lon="10.0211083"><ele>975.0</ele><time>2026-03-22T09:29:13.252Z</time></trkpt><trkpt lat="44.4434795" lon="10.0210204"><ele>977.0</ele><time>2026-03-22T09:29:14.254Z</time></trkpt><trkpt lat="44.4434256" lon="10.0209473"><ele>978.8</ele><time>2026-03-22T09:29:15.245Z</time></trkpt><trkpt lat="44.4434327" lon="10.020814"><ele>980.6</ele><time>2026-03-22T09:29:17.244Z</time></trkpt><trkpt lat="44.4435404" lon="10.0207405"><ele>982.3999999999999</ele><time>2026-03-22T09:29:19.252Z</time></trkpt><trkpt lat="44.4436233" lon="10.0207533"><ele>984.1999999999999</ele><time>2026-03-22T09:29:20.243Z</time></trkpt><trkpt lat="44.4437225" lon="10.0207496"><ele>986.0</ele><time>2026-03-22T09:29:21.239Z</time></trkpt><trkpt lat="44.4437997" lon="10.0207109"><ele>986.4</ele><time>2026-03-22T09:29:22.239Z</time></trkpt><trkpt lat="44.4438624" lon="10.0206457"><ele>986.8</ele><time>2026-03-22T09:29:23.239Z</time></trkpt><trkpt lat="44.4439233" lon="10.0205579"><ele>987.1999999999999</ele><time>2026-03-22T09:29:24.244Z</time></trkpt><trkpt lat="44.4439569" lon="10.0204355"><ele>987.5999999999999</ele><time>2026-03-22T09:29:25.233Z</time></trkpt><trkpt lat="44.4439693" lon="10.0203019"><ele>988.0</ele><time>2026-03-22T09:29:26.248Z</time></trkpt><trkpt lat="44.4439504" lon="10.0201582"><ele>988.0</ele><time>2026-03-22T09:29:27.237Z</time></trkpt><trkpt lat="44.4439101" lon="10.019996"><ele>988.0</ele><time>2026-03-22T09:29:28.242Z</time></trkpt><trkpt lat="44.4438484" lon="10.0198189"><ele>988.0</ele><time>2026-03-22T09:29:29.243Z</time></trkpt><trkpt lat="44.4437817" lon="10.0196454"><ele>988.0</ele><time>2026-03-22T09:29:30.243Z</time></trkpt><trkpt lat="44.4437295" lon="10.019493"><ele>990.25</ele><time>2026-03-22T09:29:31.248Z</time></trkpt><trkpt lat="44.4437018" lon="10.0193465"><ele>992.5</ele><time>2026-03-22T09:29:32.239Z</time></trkpt><trkpt lat="44.4436949" lon="10.0191755"><ele>994.75</ele><time>2026-03-22T09:29:33.249Z</time></trkpt><trkpt lat="44.4437177" lon="10.0189775"><ele>997.0</ele><time>2026-03-22T09:29:34.253Z</time></trkpt><trkpt lat="44.443755" lon="10.0187472"><ele>999.6666666666666</ele><time>2026-03-22T09:29:35.241Z</time></trkpt><trkpt lat="44.4438029" lon="10.0185204"><ele>1002.3333333333333</ele><time>2026-03-22T09:29:36.242Z</time></trkpt><trkpt lat="44.4438817" lon="10.0183121"><ele>1005.0</ele><time>2026-03-22T09:29:37.239Z</time></trkpt><trkpt lat="44.4439695" lon="10.0181184"><ele>1009.3333333333333</ele><time>2026-03-22T09:29:38.244Z</time></trkpt><trkpt lat="44.4440675" lon="10.0179172"><ele>1013.6666666666666</ele><time>2026-03-22T09:29:39.249Z</time></trkpt><trkpt lat="44.4441486" lon="10.0177329"><ele>1018.0</ele><time>2026-03-22T09:29:40.242Z</time></trkpt><trkpt lat="44.4442303" lon="10.0175487"><ele>1017.0</ele><time>2026-03-22T09:29:41.237Z</time></trkpt><trkpt lat="44.4443321" lon="10.0173797"><ele>1016.0</ele><time>2026-03-22T09:29:42.227Z</time></trkpt><trkpt lat="44.4444458" lon="10.0172307"><ele>1015.0</ele><time>2026-03-22T09:29:43.233Z</time></trkpt><trkpt lat="44.4445582" lon="10.0171261"><ele>1014.0</ele><time>2026-03-22T09:29:44.242Z</time></trkpt><trkpt lat="44.4446725" lon="10.0170349"><ele>1014.0</ele><time>2026-03-22T09:29:45.236Z</time></trkpt><trkpt lat="44.4447719" lon="10.0169551"><ele>1014.0000000000001</ele><time>2026-03-22T09:29:46.244Z</time></trkpt><trkpt lat="44.4448514" lon="10.0168679"><ele>1014.0000000000001</ele><time>2026-03-22T09:29:47.241Z</time></trkpt><trkpt lat="44.4449202" lon="10.0167582"><ele>1014.0</ele><time>2026-03-22T09:29:48.237Z</time></trkpt><trkpt lat="44.444961" lon="10.0166454"><ele>1014.0</ele><time>2026-03-22T09:29:49.24Z</time></trkpt><trkpt lat="44.4449903" lon="10.0165451"><ele>1016.1666666666666</ele><time>2026-03-22T09:29:50.241Z</time></trkpt><trkpt lat="44.4449983" lon="10.0164471"><ele>1018.3333333333333</ele><time>2026-03-22T09:29:51.242Z</time></trkpt><trkpt lat="44.4449888" lon="10.0163477"><ele>1020.5</ele><time>2026-03-22T09:29:52.241Z</time></trkpt><trkpt lat="44.444952" lon="10.0162561"><ele>1022.6666666666666</ele><time>2026-03-22T09:29:53.24Z</time></trkpt><trkpt lat="44.4448942" lon="10.0161966"><ele>1024.8333333333333</ele><time>2026-03-22T09:29:54.244Z</time></trkpt><trkpt lat="44.4448164" lon="10.0161713"><ele>1027.0</ele><time>2026-03-22T09:29:55.237Z</time></trkpt><trkpt lat="44.4447297" lon="10.0161698"><ele>1027.0</ele><time>2026-03-22T09:29:56.239Z</time></trkpt><trkpt lat="44.4446371" lon="10.0162311"><ele>1027.0</ele><time>2026-03-22T09:29:57.239Z</time></trkpt><trkpt lat="44.4445482" lon="10.0163413"><ele>1027.0</ele><time>2026-03-22T09:29:58.238Z</time></trkpt><trkpt lat="44.4444467" lon="10.0164711"><ele>1027.0</ele><time>2026-03-22T09:29:59.237Z</time></trkpt><trkpt lat="44.4443621" lon="10.0165831"><ele>1027.6666666666665</ele><time>2026-03-22T09:30:00.239Z</time></trkpt><trkpt lat="44.4442887" lon="10.0166758"><ele>1028.3333333333333</ele><time>2026-03-22T09:30:01.232Z</time></trkpt><trkpt lat="44.4442129" lon="10.0167616"><ele>1029.0</ele><time>2026-03-22T09:30:02.241Z</time></trkpt><trkpt lat="44.4441424" lon="10.0168296"><ele>1029.6666666666667</ele><time>2026-03-22T09:30:03.235Z</time></trkpt><trkpt lat="44.4440658" lon="10.0168833"><ele>1030.3333333333335</ele><time>2026-03-22T09:30:04.244Z</time></trkpt><trkpt lat="44.4439842" lon="10.0168931"><ele>1031.0</ele><time>2026-03-22T09:30:05.237Z</time></trkpt><trkpt lat="44.4439121" lon="10.0168426"><ele>1031.0</ele><time>2026-03-22T09:30:06.243Z</time></trkpt><trkpt lat="44.4438498" lon="10.0167574"><ele>1031.0</ele><time>2026-03-22T09:30:07.239Z</time></trkpt><trkpt lat="44.4438065" lon="10.0166457"><ele>1031.0</ele><time>2026-03-22T09:30:08.247Z</time></trkpt><trkpt lat="44.4437875" lon="10.0165237"><ele>1031.0</ele><time>2026-03-22T09:30:09.241Z</time></trkpt><trkpt lat="44.4437975" lon="10.0163949"><ele>1031.0</ele><time>2026-03-22T09:30:10.242Z</time></trkpt><trkpt lat="44.4438337" lon="10.0162763"><ele>1033.25</ele><time>2026-03-22T09:30:11.246Z</time></trkpt><trkpt lat="44.4438971" lon="10.0161824"><ele>1035.5</ele><time>2026-03-22T09:30:12.242Z</time></trkpt><trkpt lat="44.4439956" lon="10.0161091"><ele>1037.75</ele><time>2026-03-22T09:30:13.248Z</time></trkpt><trkpt lat="44.444107" lon="10.0160322"><ele>1040.0</ele><time>2026-03-22T09:30:14.248Z</time></trkpt><trkpt lat="44.4442256" lon="10.0159443"><ele>1040.0</ele><time>2026-03-22T09:30:15.252Z</time></trkpt><trkpt lat="44.444335" lon="10.015862"><ele>1040.0</ele><time>2026-03-22T09:30:16.252Z</time></trkpt><trkpt lat="44.4444415" lon="10.0157669"><ele>1040.0</ele><time>2026-03-22T09:30:17.248Z</time></trkpt><trkpt lat="44.4445372" lon="10.0156824"><ele>1040.0</ele><time>2026-03-22T09:30:18.252Z</time></trkpt><trkpt lat="44.4446224" lon="10.0156087"><ele>1039.2</ele><time>2026-03-22T09:30:19.247Z</time></trkpt><trkpt lat="44.4446966" lon="10.015512"><ele>1038.4</ele><time>2026-03-22T09:30:20.246Z</time></trkpt><trkpt lat="44.4447529" lon="10.0154"><ele>1037.6</ele><time>2026-03-22T09:30:21.241Z</time></trkpt><trkpt lat="44.4447878" lon="10.0152667"><ele>1036.8</ele><time>2026-03-22T09:30:22.246Z</time></trkpt><trkpt lat="44.4448124" lon="10.0151214"><ele>1036.0</ele><time>2026-03-22T09:30:23.242Z</time></trkpt><trkpt lat="44.4448344" lon="10.0149773"><ele>1038.0</ele><time>2026-03-22T09:30:24.259Z</time></trkpt><trkpt lat="44.4448594" lon="10.0148387"><ele>1040.0</ele><time>2026-03-22T09:30:25.246Z</time></trkpt><trkpt lat="44.4448735" lon="10.0147216"><ele>1042.0</ele><time>2026-03-22T09:30:26.243Z</time></trkpt><trkpt lat="44.4448728" lon="10.0146088"><ele>1044.0</ele><time>2026-03-22T09:30:27.252Z</time></trkpt><trkpt lat="44.4448757" lon="10.0144629"><ele>1046.0</ele><time>2026-03-22T09:30:28.246Z</time></trkpt><trkpt lat="44.4448652" lon="10.0142932"><ele>1047.8</ele><time>2026-03-22T09:30:29.252Z</time></trkpt><trkpt lat="44.4448432" lon="10.0141204"><ele>1049.6</ele><time>2026-03-22T09:30:30.244Z</time></trkpt><trkpt lat="44.4448211" lon="10.0139529"><ele>1051.4</ele><time>2026-03-22T09:30:31.245Z</time></trkpt><trkpt lat="44.4448081" lon="10.0138203"><ele>1053.2</ele><time>2026-03-22T09:30:32.244Z</time></trkpt><trkpt lat="44.4448031" lon="10.0136996"><ele>1055.0</ele><time>2026-03-22T09:30:33.243Z</time></trkpt><trkpt lat="44.4448295" lon="10.0136008"><ele>1055.0</ele><time>2026-03-22T09:30:34.25Z</time></trkpt><trkpt lat="44.4448783" lon="10.0135174"><ele>1055.0</ele><time>2026-03-22T09:30:35.256Z</time></trkpt><trkpt lat="44.4449431" lon="10.01346"><ele>1055.0</ele><time>2026-03-22T09:30:36.248Z</time></trkpt><trkpt lat="44.4450187" lon="10.0134647"><ele>1055.0</ele><time>2026-03-22T09:30:37.25Z</time></trkpt><trkpt lat="44.4450879" lon="10.0134743"><ele>1055.0</ele><time>2026-03-22T09:30:38.249Z</time></trkpt><trkpt lat="44.4451829" lon="10.0134739"><ele>1055.0</ele><time>2026-03-22T09:30:39.248Z</time></trkpt><trkpt lat="44.4452892" lon="10.0134406"><ele>1055.0</ele><time>2026-03-22T09:30:40.251Z</time></trkpt><trkpt lat="44.4454104" lon="10.0133908"><ele>1055.0</ele><time>2026-03-22T09:30:41.251Z</time></trkpt><trkpt lat="44.4455447" lon="10.0133454"><ele>1055.0</ele><time>2026-03-22T09:30:42.261Z</time></trkpt><trkpt lat="44.4456905" lon="10.0133249"><ele>1055.0</ele><time>2026-03-22T09:30:43.245Z</time></trkpt><trkpt lat="44.4458148" lon="10.0133144"><ele>1054.4</ele><time>2026-03-22T09:30:44.254Z</time></trkpt><trkpt lat="44.4459368" lon="10.0133234"><ele>1053.8</ele><time>2026-03-22T09:30:45.239Z</time></trkpt><trkpt lat="44.4460365" lon="10.013332"><ele>1053.2</ele><time>2026-03-22T09:30:46.251Z</time></trkpt><trkpt lat="44.4461338" lon="10.0133578"><ele>1052.6</ele><time>2026-03-22T09:30:47.247Z</time></trkpt><trkpt lat="44.4462183" lon="10.0133924"><ele>1052.0</ele><time>2026-03-22T09:30:48.245Z</time></trkpt><trkpt lat="44.44629" lon="10.013449"><ele>1055.3333333333335</ele><time>2026-03-22T09:30:49.245Z</time></trkpt><trkpt lat="44.4463482" lon="10.0135135"><ele>1058.6666666666667</ele><time>2026-03-22T09:30:50.246Z</time></trkpt><trkpt lat="44.4463826" lon="10.0135918"><ele>1062.0</ele><time>2026-03-22T09:30:51.238Z</time></trkpt><trkpt lat="44.4464075" lon="10.0136892"><ele>1065.3333333333333</ele><time>2026-03-22T09:30:52.261Z</time></trkpt><trkpt lat="44.4464501" lon="10.013795"><ele>1068.6666666666665</ele><time>2026-03-22T09:30:53.245Z</time></trkpt><trkpt lat="44.446527" lon="10.0138855"><ele>1072.0</ele><time>2026-03-22T09:30:54.252Z</time></trkpt><trkpt lat="44.4466093" lon="10.0139627"><ele>1072.0</ele><time>2026-03-22T09:30:55.253Z</time></trkpt><trkpt lat="44.4466993" lon="10.014051"><ele>1072.0</ele><time>2026-03-22T09:30:56.25Z</time></trkpt><trkpt lat="44.4467907" lon="10.0141552"><ele>1072.0</ele><time>2026-03-22T09:30:57.248Z</time></trkpt><trkpt lat="44.446884" lon="10.014277"><ele>1072.0</ele><time>2026-03-22T09:30:58.252Z</time></trkpt><trkpt lat="44.446972" lon="10.0143907"><ele>1069.25</ele><time>2026-03-22T09:30:59.249Z</time></trkpt><trkpt lat="44.4470554" lon="10.0144787"><ele>1066.5</ele><time>2026-03-22T09:31:00.247Z</time></trkpt><trkpt lat="44.4471417" lon="10.0145752"><ele>1063.75</ele><time>2026-03-22T09:31:01.25Z</time></trkpt><trkpt lat="44.4472315" lon="10.0146836"><ele>1061.0</ele><time>2026-03-22T09:31:02.249Z</time></trkpt><trkpt lat="44.4473206" lon="10.0148045"><ele>1063.3999999999999</ele><time>2026-03-22T09:31:03.249Z</time></trkpt><trkpt lat="44.4474021" lon="10.014939"><ele>1065.8</ele><time>2026-03-22T09:31:04.25Z</time></trkpt><trkpt lat="44.4474591" lon="10.0150427"><ele>1068.1999999999998</ele><time>2026-03-22T09:31:05.247Z</time></trkpt><trkpt lat="44.4475047" lon="10.0151273"><ele>1070.6</ele><time>2026-03-22T09:31:06.247Z</time></trkpt><trkpt lat="44.4475392" lon="10.0152048"><ele>1073.0</ele><time>2026-03-22T09:31:07.243Z</time></trkpt><trkpt lat="44.4476469" lon="10.0152596"><ele>1073.0</ele><time>2026-03-22T09:31:09.255Z</time></trkpt><trkpt lat="44.4477196" lon="10.0152064"><ele>1073.0</ele><time>2026-03-22T09:31:10.25Z</time></trkpt><trkpt lat="44.4477756" lon="10.0151088"><ele>1073.0</ele><time>2026-03-22T09:31:11.241Z</time></trkpt><trkpt lat="44.4478009" lon="10.0149813"><ele>1073.0</ele><time>2026-03-22T09:31:12.245Z</time></trkpt><trkpt lat="44.4477934" lon="10.0148339"><ele>1073.0</ele><time>2026-03-22T09:31:13.241Z</time></trkpt><trkpt lat="44.4477527" lon="10.0146736"><ele>1075.5</ele><time>2026-03-22T09:31:14.25Z</time></trkpt><trkpt lat="44.4476943" lon="10.0145111"><ele>1078.0</ele><time>2026-03-22T09:31:15.255Z</time></trkpt><trkpt lat="44.4476111" lon="10.0143408"><ele>1080.5</ele><time>2026-03-22T09:31:16.255Z</time></trkpt><trkpt lat="44.4475442" lon="10.0141697"><ele>1083.0</ele><time>2026-03-22T09:31:17.254Z</time></trkpt><trkpt lat="44.4475112" lon="10.0139867"><ele>1086.0</ele><time>2026-03-22T09:31:18.251Z</time></trkpt><trkpt lat="44.447495" lon="10.0138145"><ele>1089.0</ele><time>2026-03-22T09:31:19.25Z</time></trkpt><trkpt lat="44.4474848" lon="10.0136572"><ele>1092.0</ele><time>2026-03-22T09:31:20.245Z</time></trkpt><trkpt lat="44.4474334" lon="10.0135128"><ele>1095.0</ele><time>2026-03-22T09:31:21.245Z</time></trkpt><trkpt lat="44.4473922" lon="10.0133637"><ele>1096.5</ele><time>2026-03-22T09:31:22.254Z</time></trkpt><trkpt lat="44.4473603" lon="10.0132136"><ele>1098.0</ele><time>2026-03-22T09:31:23.247Z</time></trkpt><trkpt lat="44.4473299" lon="10.0130631"><ele>1099.5</ele><time>2026-03-22T09:31:24.251Z</time></trkpt><trkpt lat="44.447319" lon="10.012913"><ele>1101.0</ele><time>2026-03-22T09:31:25.246Z</time></trkpt><trkpt lat="44.4473243" lon="10.0127404"><ele>1101.0</ele><time>2026-03-22T09:31:26.244Z</time></trkpt><trkpt lat="44.4473477" lon="10.0125567"><ele>1101.0</ele><time>2026-03-22T09:31:27.244Z</time></trkpt><trkpt lat="44.4473882" lon="10.0124262"><ele>1101.0</ele><time>2026-03-22T09:31:28.251Z</time></trkpt><trkpt lat="44.4474258" lon="10.0123134"><ele>1101.0</ele><time>2026-03-22T09:31:29.25Z</time></trkpt><trkpt lat="44.4474541" lon="10.0121885"><ele>1101.0</ele><time>2026-03-22T09:31:30.236Z</time></trkpt><trkpt lat="44.4474766" lon="10.0120274"><ele>1101.25</ele><time>2026-03-22T09:31:31.249Z</time></trkpt><trkpt lat="44.4474906" lon="10.0118363"><ele>1101.5</ele><time>2026-03-22T09:31:32.239Z</time></trkpt><trkpt lat="44.4475081" lon="10.0116339"><ele>1101.75</ele><time>2026-03-22T09:31:33.233Z</time></trkpt><trkpt lat="44.4475038" lon="10.0114338"><ele>1102.0</ele><time>2026-03-22T09:31:34.247Z</time></trkpt><trkpt lat="44.4474933" lon="10.0112411"><ele>1102.4</ele><time>2026-03-22T09:31:35.236Z</time></trkpt><trkpt lat="44.4474873" lon="10.0110757"><ele>1102.8000000000002</ele><time>2026-03-22T09:31:36.245Z</time></trkpt><trkpt lat="44.4474958" lon="10.0109237"><ele>1103.2</ele><time>2026-03-22T09:31:37.243Z</time></trkpt><trkpt lat="44.4474932" lon="10.0107841"><ele>1103.6000000000001</ele><time>2026-03-22T09:31:38.242Z</time></trkpt><trkpt lat="44.4475044" lon="10.0106388"><ele>1104.0</ele><time>2026-03-22T09:31:39.243Z</time></trkpt><trkpt lat="44.447541" lon="10.0104761"><ele>1104.0</ele><time>2026-03-22T09:31:40.245Z</time></trkpt><trkpt lat="44.4475896" lon="10.0103396"><ele>1104.0</ele><time>2026-03-22T09:31:41.24Z</time></trkpt><trkpt lat="44.4476466" lon="10.0102311"><ele>1104.0</ele><time>2026-03-22T09:31:42.252Z</time></trkpt><trkpt lat="44.447709" lon="10.0101196"><ele>1104.0</ele><time>2026-03-22T09:31:43.248Z</time></trkpt><trkpt lat="44.4477703" lon="10.0100165"><ele>1104.0</ele><time>2026-03-22T09:31:44.253Z</time></trkpt><trkpt lat="44.4478317" lon="10.0099035"><ele>1104.8</ele><time>2026-03-22T09:31:45.25Z</time></trkpt><trkpt lat="44.4478885" lon="10.0097905"><ele>1105.6000000000001</ele><time>2026-03-22T09:31:46.247Z</time></trkpt><trkpt lat="44.447948" lon="10.0096672"><ele>1106.4</ele><time>2026-03-22T09:31:47.248Z</time></trkpt><trkpt lat="44.4480125" lon="10.0095426"><ele>1107.2</ele><time>2026-03-22T09:31:48.254Z</time></trkpt><trkpt lat="44.4480839" lon="10.009407"><ele>1108.0</ele><time>2026-03-22T09:31:49.252Z</time></trkpt><trkpt lat="44.4481612" lon="10.0092649"><ele>1111.0</ele><time>2026-03-22T09:31:50.248Z</time></trkpt><trkpt lat="44.4482389" lon="10.0091106"><ele>1114.0</ele><time>2026-03-22T09:31:51.254Z</time></trkpt><trkpt lat="44.4483233" lon="10.0089511"><ele>1117.0</ele><time>2026-03-22T09:31:52.246Z</time></trkpt><trkpt lat="44.4483991" lon="10.0088085"><ele>1120.0</ele><time>2026-03-22T09:31:53.252Z</time></trkpt><trkpt lat="44.4484717" lon="10.008706"><ele>1120.0</ele><time>2026-03-22T09:31:54.244Z</time></trkpt><trkpt lat="44.4485413" lon="10.0086305"><ele>1120.0</ele><time>2026-03-22T09:31:55.236Z</time></trkpt><trkpt lat="44.4486076" lon="10.0086065"><ele>1120.0</ele><time>2026-03-22T09:31:56.242Z</time></trkpt><trkpt lat="44.4486769" lon="10.0086241"><ele>1120.0</ele><time>2026-03-22T09:31:57.241Z</time></trkpt><trkpt lat="44.4487395" lon="10.0086628"><ele>1120.0</ele><time>2026-03-22T09:31:58.232Z</time></trkpt><trkpt lat="44.4487926" lon="10.0087526"><ele>1120.0</ele><time>2026-03-22T09:31:59.24Z</time></trkpt><trkpt lat="44.448826" lon="10.0088396"><ele>1120.0</ele><time>2026-03-22T09:32:00.234Z</time></trkpt><trkpt lat="44.4488443" lon="10.0089434"><ele>1124.8</ele><time>2026-03-22T09:32:01.237Z</time></trkpt><trkpt lat="44.4488592" lon="10.0090732"><ele>1129.6</ele><time>2026-03-22T09:32:02.226Z</time></trkpt><trkpt lat="44.4488722" lon="10.0092239"><ele>1134.4</ele><time>2026-03-22T09:32:03.227Z</time></trkpt><trkpt lat="44.4488921" lon="10.0093441"><ele>1139.2</ele><time>2026-03-22T09:32:04.237Z</time></trkpt><trkpt lat="44.4489266" lon="10.0094532"><ele>1144.0</ele><time>2026-03-22T09:32:05.238Z</time></trkpt><trkpt lat="44.4489831" lon="10.0095539"><ele>1144.0</ele><time>2026-03-22T09:32:06.236Z</time></trkpt><trkpt lat="44.4490581" lon="10.0096461"><ele>1144.0</ele><time>2026-03-22T09:32:07.239Z</time></trkpt><trkpt lat="44.4491477" lon="10.0097189"><ele>1144.0</ele><time>2026-03-22T09:32:08.24Z</time></trkpt><trkpt lat="44.4492432" lon="10.0097699"><ele>1144.0</ele><time>2026-03-22T09:32:09.239Z</time></trkpt><trkpt lat="44.4493453" lon="10.0098205"><ele>1144.0</ele><time>2026-03-22T09:32:10.24Z</time></trkpt><trkpt lat="44.4494541" lon="10.0098806"><ele>1144.0</ele><time>2026-03-22T09:32:11.238Z</time></trkpt><trkpt lat="44.4495689" lon="10.0099358"><ele>1144.0</ele><time>2026-03-22T09:32:12.237Z</time></trkpt><trkpt lat="44.4496885" lon="10.0099863"><ele>1144.0</ele><time>2026-03-22T09:32:13.238Z</time></trkpt><trkpt lat="44.4498064" lon="10.0100499"><ele>1144.0</ele><time>2026-03-22T09:32:14.242Z</time></trkpt><trkpt lat="44.4499259" lon="10.0101065"><ele>1143.25</ele><time>2026-03-22T09:32:15.245Z</time></trkpt><trkpt lat="44.4500496" lon="10.0101685"><ele>1142.5</ele><time>2026-03-22T09:32:16.237Z</time></trkpt><trkpt lat="44.4501583" lon="10.0102396"><ele>1141.75</ele><time>2026-03-22T09:32:17.228Z</time></trkpt><trkpt lat="44.4502382" lon="10.0103446"><ele>1141.0</ele><time>2026-03-22T09:32:18.234Z</time></trkpt><trkpt lat="44.4502914" lon="10.0104713"><ele>1141.0</ele><time>2026-03-22T09:32:19.24Z</time></trkpt><trkpt lat="44.450334" lon="10.0106329"><ele>1141.0</ele><time>2026-03-22T09:32:20.234Z</time></trkpt><trkpt lat="44.450357" lon="10.0108118"><ele>1141.0</ele><time>2026-03-22T09:32:21.243Z</time></trkpt><trkpt lat="44.4503896" lon="10.0109911"><ele>1141.0</ele><time>2026-03-22T09:32:22.239Z</time></trkpt><trkpt lat="44.4504423" lon="10.0111517"><ele>1142.25</ele><time>2026-03-22T09:32:23.241Z</time></trkpt><trkpt lat="44.4505276" lon="10.0112867"><ele>1143.5</ele><time>2026-03-22T09:32:24.239Z</time></trkpt><trkpt lat="44.4506451" lon="10.0113956"><ele>1144.75</ele><time>2026-03-22T09:32:25.237Z</time></trkpt><trkpt lat="44.4507879" lon="10.0114647"><ele>1146.0</ele><time>2026-03-22T09:32:26.241Z</time></trkpt><trkpt lat="44.450905" lon="10.0115287"><ele>1146.0</ele><time>2026-03-22T09:32:27.238Z</time></trkpt><trkpt lat="44.4510025" lon="10.0115929"><ele>1146.0</ele><time>2026-03-22T09:32:28.241Z</time></trkpt><trkpt lat="44.451086" lon="10.0116749"><ele>1146.0</ele><time>2026-03-22T09:32:29.23Z</time></trkpt><trkpt lat="44.4511517" lon="10.0117743"><ele>1146.0</ele><time>2026-03-22T09:32:30.237Z</time></trkpt><trkpt lat="44.4511909" lon="10.011882"><ele>1146.0</ele><time>2026-03-22T09:32:31.238Z</time></trkpt><trkpt lat="44.4512162" lon="10.0120376"><ele>1142.5</ele><time>2026-03-22T09:32:32.233Z</time></trkpt><trkpt lat="44.4512193" lon="10.0122179"><ele>1139.0</ele><time>2026-03-22T09:32:33.224Z</time></trkpt><trkpt lat="44.4512013" lon="10.0124057"><ele>1135.5</ele><time>2026-03-22T09:32:34.233Z</time></trkpt><trkpt lat="44.4511854" lon="10.012608"><ele>1132.0</ele><time>2026-03-22T09:32:35.232Z</time></trkpt><trkpt lat="44.4511807" lon="10.012832"><ele>1131.3333333333333</ele><time>2026-03-22T09:32:36.23Z</time></trkpt><trkpt lat="44.4511756" lon="10.0130559"><ele>1130.6666666666667</ele><time>2026-03-22T09:32:37.228Z</time></trkpt><trkpt lat="44.4511585" lon="10.0132948"><ele>1130.0</ele><time>2026-03-22T09:32:38.237Z</time></trkpt><trkpt lat="44.4511471" lon="10.013511"><ele>1130.0</ele><time>2026-03-22T09:32:39.235Z</time></trkpt><trkpt lat="44.4511308" lon="10.0136889"><ele>1130.0</ele><time>2026-03-22T09:32:40.235Z</time></trkpt><trkpt lat="44.4511408" lon="10.0138463"><ele>1130.0</ele><time>2026-03-22T09:32:41.242Z</time></trkpt><trkpt lat="44.451137" lon="10.0139731"><ele>1130.0</ele><time>2026-03-22T09:32:42.244Z</time></trkpt><trkpt lat="44.4511364" lon="10.0140876"><ele>1130.0</ele><time>2026-03-22T09:32:43.247Z</time></trkpt><trkpt lat="44.4511525" lon="10.0141769"><ele>1130.0</ele><time>2026-03-22T09:32:44.243Z</time></trkpt><trkpt lat="44.4511923" lon="10.0142573"><ele>1130.0</ele><time>2026-03-22T09:32:45.251Z</time></trkpt><trkpt lat="44.4512657" lon="10.0143748"><ele>1130.0</ele><time>2026-03-22T09:32:47.245Z</time></trkpt><trkpt lat="44.4513512" lon="10.0143833"><ele>1130.0</ele><time>2026-03-22T09:32:49.248Z</time></trkpt><trkpt lat="44.451459" lon="10.0143357"><ele>1130.0</ele><time>2026-03-22T09:32:51.251Z</time></trkpt><trkpt lat="44.451528" lon="10.0142136"><ele>1132.8</ele><time>2026-03-22T09:32:53.254Z</time></trkpt><trkpt lat="44.4515512" lon="10.0140739"><ele>1135.6</ele><time>2026-03-22T09:32:55.252Z</time></trkpt><trkpt lat="44.4515482" lon="10.0139303"><ele>1138.4</ele><time>2026-03-22T09:32:57.239Z</time></trkpt><trkpt lat="44.451543" lon="10.013795"><ele>1141.2</ele><time>2026-03-22T09:32:59.242Z</time></trkpt><trkpt lat="44.4515333" lon="10.0136616"><ele>1144.0</ele><time>2026-03-22T09:33:01.241Z</time></trkpt><trkpt lat="44.4515312" lon="10.0135239"><ele>1144.0</ele><time>2026-03-22T09:33:03.244Z</time></trkpt><trkpt lat="44.4515296" lon="10.0133673"><ele>1144.0</ele><time>2026-03-22T09:33:05.24Z</time></trkpt><trkpt lat="44.4515309" lon="10.0132705"><ele>1144.0</ele><time>2026-03-22T09:33:06.244Z</time></trkpt><trkpt lat="44.4515376" lon="10.0131716"><ele>1144.0</ele><time>2026-03-22T09:33:07.236Z</time></trkpt><trkpt lat="44.4515456" lon="10.01307"><ele>1144.0</ele><time>2026-03-22T09:33:08.245Z</time></trkpt><trkpt lat="44.4515554" lon="10.012948"><ele>1144.0</ele><time>2026-03-22T09:33:09.242Z</time></trkpt><trkpt lat="44.451573" lon="10.0128156"><ele>1144.4</ele><time>2026-03-22T09:33:10.243Z</time></trkpt><trkpt lat="44.451594" lon="10.0126754"><ele>1144.8000000000002</ele><time>2026-03-22T09:33:11.239Z</time></trkpt><trkpt lat="44.4516108" lon="10.0125292"><ele>1145.1999999999998</ele><time>2026-03-22T09:33:12.245Z</time></trkpt><trkpt lat="44.4516304" lon="10.0123916"><ele>1145.6</ele><time>2026-03-22T09:33:13.238Z</time></trkpt><trkpt lat="44.4516569" lon="10.0122373"><ele>1146.0</ele><time>2026-03-22T09:33:14.248Z</time></trkpt><trkpt lat="44.451687" lon="10.012072"><ele>1147.3999999999999</ele><time>2026-03-22T09:33:15.226Z</time></trkpt><trkpt lat="44.4517106" lon="10.0119167"><ele>1148.8</ele><time>2026-03-22T09:33:16.338Z</time></trkpt><trkpt lat="44.4517384" lon="10.0117652"><ele>1150.1999999999998</ele><time>2026-03-22T09:33:17.247Z</time></trkpt><trkpt lat="44.4517611" lon="10.0116107"><ele>1151.6</ele><time>2026-03-22T09:33:18.246Z</time></trkpt><trkpt lat="44.451772" lon="10.0114548"><ele>1153.0</ele><time>2026-03-22T09:33:19.246Z</time></trkpt><trkpt lat="44.4517641" lon="10.0112845"><ele>1155.25</ele><time>2026-03-22T09:33:20.241Z</time></trkpt><trkpt lat="44.4517345" lon="10.011106"><ele>1157.5</ele><time>2026-03-22T09:33:21.245Z</time></trkpt><trkpt lat="44.4516926" lon="10.0109254"><ele>1159.75</ele><time>2026-03-22T09:33:22.244Z</time></trkpt><trkpt lat="44.4516436" lon="10.01074"><ele>1162.0</ele><time>2026-03-22T09:33:23.236Z</time></trkpt><trkpt lat="44.4515918" lon="10.0105446"><ele>1165.0</ele><time>2026-03-22T09:33:24.245Z</time></trkpt><trkpt lat="44.4515223" lon="10.0103645"><ele>1168.0</ele><time>2026-03-22T09:33:25.24Z</time></trkpt><trkpt lat="44.4514771" lon="10.0101964"><ele>1171.0</ele><time>2026-03-22T09:33:26.244Z</time></trkpt><trkpt lat="44.451446" lon="10.0100553"><ele>1174.0</ele><time>2026-03-22T09:33:27.241Z</time></trkpt><trkpt lat="44.4514237" lon="10.0099035"><ele>1177.75</ele><time>2026-03-22T09:33:28.234Z</time></trkpt><trkpt lat="44.4514195" lon="10.0097398"><ele>1181.5</ele><time>2026-03-22T09:33:29.232Z</time></trkpt><trkpt lat="44.4514175" lon="10.009563"><ele>1185.25</ele><time>2026-03-22T09:33:30.234Z</time></trkpt><trkpt lat="44.4514205" lon="10.0093664"><ele>1189.0</ele><time>2026-03-22T09:33:31.237Z</time></trkpt><trkpt lat="44.4514195" lon="10.0091508"><ele>1190.6000000000001</ele><time>2026-03-22T09:33:32.233Z</time></trkpt><trkpt lat="44.4514161" lon="10.0089594"><ele>1192.2</ele><time>2026-03-22T09:33:33.23Z</time></trkpt><trkpt lat="44.4514119" lon="10.0088005"><ele>1193.8000000000002</ele><time>2026-03-22T09:33:34.239Z</time></trkpt><trkpt lat="44.4514107" lon="10.0086475"><ele>1195.4</ele><time>2026-03-22T09:33:35.23Z</time></trkpt><trkpt lat="44.4513965" lon="10.0085237"><ele>1197.0</ele><time>2026-03-22T09:33:36.232Z</time></trkpt><trkpt lat="44.451324" lon="10.008401"><ele>1196.0</ele><time>2026-03-22T09:33:37.232Z</time></trkpt><trkpt lat="44.4512346" lon="10.0083234"><ele>1195.0</ele><time>2026-03-22T09:33:38.236Z</time></trkpt><trkpt lat="44.4511434" lon="10.0082494"><ele>1194.0</ele><time>2026-03-22T09:33:39.236Z</time></trkpt><trkpt lat="44.4510498" lon="10.0081895"><ele>1193.0</ele><time>2026-03-22T09:33:40.23Z</time></trkpt><trkpt lat="44.4509741" lon="10.0081236"><ele>1192.0</ele><time>2026-03-22T09:33:41.237Z</time></trkpt><trkpt lat="44.4509095" lon="10.0080393"><ele>1192.0</ele><time>2026-03-22T09:33:42.242Z</time></trkpt><trkpt lat="44.4508703" lon="10.007946"><ele>1192.0</ele><time>2026-03-22T09:33:43.236Z</time></trkpt><trkpt lat="44.4508678" lon="10.0078322"><ele>1192.0</ele><time>2026-03-22T09:33:44.233Z</time></trkpt><trkpt lat="44.4509037" lon="10.0077253"><ele>1192.0</ele><time>2026-03-22T09:33:45.247Z</time></trkpt><trkpt lat="44.4509729" lon="10.0076276"><ele>1192.0</ele><time>2026-03-22T09:33:46.232Z</time></trkpt><trkpt lat="44.4510856" lon="10.0075406"><ele>1192.0</ele><time>2026-03-22T09:33:47.245Z</time></trkpt><trkpt lat="44.4512253" lon="10.0074568"><ele>1192.0</ele><time>2026-03-22T09:33:48.245Z</time></trkpt><trkpt lat="44.4513719" lon="10.0073642"><ele>1192.0</ele><time>2026-03-22T09:33:49.231Z</time></trkpt><trkpt lat="44.4515074" lon="10.0072596"><ele>1196.6666666666665</ele><time>2026-03-22T09:33:50.241Z</time></trkpt><trkpt lat="44.4516449" lon="10.0071528"><ele>1201.3333333333333</ele><time>2026-03-22T09:33:51.241Z</time></trkpt><trkpt lat="44.4517764" lon="10.0070539"><ele>1206.0</ele><time>2026-03-22T09:33:52.248Z</time></trkpt><trkpt lat="44.4519023" lon="10.0069452"><ele>1206.0</ele><time>2026-03-22T09:33:53.239Z</time></trkpt><trkpt lat="44.4520067" lon="10.0068699"><ele>1206.0</ele><time>2026-03-22T09:33:54.251Z</time></trkpt><trkpt lat="44.452105" lon="10.0067852"><ele>1206.0</ele><time>2026-03-22T09:33:55.245Z</time></trkpt><trkpt lat="44.4521794" lon="10.0066995"><ele>1206.0</ele><time>2026-03-22T09:33:56.24Z</time></trkpt><trkpt lat="44.4522204" lon="10.0065907"><ele>1206.0</ele><time>2026-03-22T09:33:57.244Z</time></trkpt><trkpt lat="44.4522254" lon="10.006485"><ele>1208.8</ele><time>2026-03-22T09:33:58.244Z</time></trkpt><trkpt lat="44.4522057" lon="10.0063778"><ele>1211.6</ele><time>2026-03-22T09:33:59.243Z</time></trkpt><trkpt lat="44.452171" lon="10.0062606"><ele>1214.4</ele><time>2026-03-22T09:34:00.238Z</time></trkpt><trkpt lat="44.4521085" lon="10.0061594"><ele>1217.2</ele><time>2026-03-22T09:34:01.245Z</time></trkpt><trkpt lat="44.4520146" lon="10.0060849"><ele>1220.0</ele><time>2026-03-22T09:34:02.243Z</time></trkpt><trkpt lat="44.4518953" lon="10.0060226"><ele>1220.0</ele><time>2026-03-22T09:34:03.236Z</time></trkpt><trkpt lat="44.4517637" lon="10.0059559"><ele>1220.0</ele><time>2026-03-22T09:34:04.241Z</time></trkpt><trkpt lat="44.451653" lon="10.0058938"><ele>1220.0</ele><time>2026-03-22T09:34:05.238Z</time></trkpt><trkpt lat="44.4515581" lon="10.005806"><ele>1220.0</ele><time>2026-03-22T09:34:06.234Z</time></trkpt><trkpt lat="44.4514762" lon="10.0056962"><ele>1220.6666666666667</ele><time>2026-03-22T09:34:07.245Z</time></trkpt><trkpt lat="44.4514116" lon="10.005535"><ele>1221.3333333333333</ele><time>2026-03-22T09:34:08.241Z</time></trkpt><trkpt lat="44.4513471" lon="10.0053524"><ele>1222.0</ele><time>2026-03-22T09:34:09.244Z</time></trkpt><trkpt lat="44.4512861" lon="10.005117"><ele>1227.0</ele><time>2026-03-22T09:34:10.237Z</time></trkpt><trkpt lat="44.4512429" lon="10.0048928"><ele>1232.0</ele><time>2026-03-22T09:34:11.24Z</time></trkpt><trkpt lat="44.4511707" lon="10.0047643"><ele>1237.0</ele><time>2026-03-22T09:34:12.235Z</time></trkpt><trkpt lat="44.4510726" lon="10.0046881"><ele>1242.0</ele><time>2026-03-22T09:34:13.238Z</time></trkpt><trkpt lat="44.4509581" lon="10.0046322"><ele>1242.0</ele><time>2026-03-22T09:34:14.236Z</time></trkpt><trkpt lat="44.4508358" lon="10.0045575"><ele>1242.0</ele><time>2026-03-22T09:34:15.229Z</time></trkpt><trkpt lat="44.4507217" lon="10.0044799"><ele>1242.0</ele><time>2026-03-22T09:34:16.237Z</time></trkpt><trkpt lat="44.4506226" lon="10.0043725"><ele>1242.0</ele><time>2026-03-22T09:34:17.238Z</time></trkpt><trkpt lat="44.4505362" lon="10.0042183"><ele>1243.25</ele><time>2026-03-22T09:34:18.243Z</time></trkpt><trkpt lat="44.4504494" lon="10.0040509"><ele>1244.5</ele><time>2026-03-22T09:34:19.238Z</time></trkpt><trkpt lat="44.4503582" lon="10.0038864"><ele>1245.75</ele><time>2026-03-22T09:34:20.235Z</time></trkpt><trkpt lat="44.4502364" lon="10.0037979"><ele>1247.0</ele><time>2026-03-22T09:34:21.236Z</time></trkpt><trkpt lat="44.450101" lon="10.0037293"><ele>1247.0</ele><time>2026-03-22T09:34:22.234Z</time></trkpt><trkpt lat="44.4499532" lon="10.0036624"><ele>1247.0</ele><time>2026-03-22T09:34:23.24Z</time></trkpt><trkpt lat="44.4498363" lon="10.0036006"><ele>1247.0</ele><time>2026-03-22T09:34:24.236Z</time></trkpt><trkpt lat="44.4497541" lon="10.0035351"><ele>1247.0</ele><time>2026-03-22T09:34:25.23Z</time></trkpt><trkpt lat="44.4496872" lon="10.0034267"><ele>1250.0</ele><time>2026-03-22T09:34:26.236Z</time></trkpt><trkpt lat="44.4496357" lon="10.0032957"><ele>1253.0</ele><time>2026-03-22T09:34:27.24Z</time></trkpt><trkpt lat="44.4496109" lon="10.003145"><ele>1256.0</ele><time>2026-03-22T09:34:28.243Z</time></trkpt><trkpt lat="44.4496014" lon="10.0029812"><ele>1259.0</ele><time>2026-03-22T09:34:29.245Z</time></trkpt><trkpt lat="44.4496098" lon="10.002783"><ele>1255.25</ele><time>2026-03-22T09:34:30.241Z</time></trkpt><trkpt lat="44.4496158" lon="10.0025728"><ele>1251.5</ele><time>2026-03-22T09:34:31.243Z</time></trkpt><trkpt lat="44.4496026" lon="10.0023596"><ele>1247.75</ele><time>2026-03-22T09:34:32.236Z</time></trkpt><trkpt lat="44.4495954" lon="10.0021823"><ele>1244.0</ele><time>2026-03-22T09:34:33.237Z</time></trkpt><trkpt lat="44.4495973" lon="10.0020172"><ele>1249.25</ele><time>2026-03-22T09:34:34.236Z</time></trkpt><trkpt lat="44.4496458" lon="10.0018652"><ele>1254.5</ele><time>2026-03-22T09:34:35.235Z</time></trkpt><trkpt lat="44.4497114" lon="10.0016957"><ele>1259.75</ele><time>2026-03-22T09:34:36.231Z</time></trkpt><trkpt lat="44.4497635" lon="10.0015308"><ele>1265.0</ele><time>2026-03-22T09:34:37.234Z</time></trkpt><trkpt lat="44.4497882" lon="10.0013805"><ele>1264.6666666666667</ele><time>2026-03-22T09:34:38.241Z</time></trkpt><trkpt lat="44.4497834" lon="10.0012662"><ele>1264.3333333333335</ele><time>2026-03-22T09:34:39.239Z</time></trkpt><trkpt lat="44.4497455" lon="10.001171"><ele>1264.0</ele><time>2026-03-22T09:34:40.24Z</time></trkpt><trkpt lat="44.4496862" lon="10.0010995"><ele>1263.6666666666667</ele><time>2026-03-22T09:34:41.235Z</time></trkpt><trkpt lat="44.4496089" lon="10.0010686"><ele>1263.3333333333333</ele><time>2026-03-22T09:34:42.221Z</time></trkpt><trkpt lat="44.4495133" lon="10.0010604"><ele>1263.0</ele><time>2026-03-22T09:34:43.231Z</time></trkpt><trkpt lat="44.449412" lon="10.0010546"><ele>1263.0</ele><time>2026-03-22T09:34:44.23Z</time></trkpt><trkpt lat="44.4493017" lon="10.0010667"><ele>1263.0</ele><time>2026-03-22T09:34:45.234Z</time></trkpt><trkpt lat="44.4491822" lon="10.0010724"><ele>1263.0</ele><time>2026-03-22T09:34:46.236Z</time></trkpt><trkpt lat="44.4490555" lon="10.001082"><ele>1263.0</ele><time>2026-03-22T09:34:47.238Z</time></trkpt><trkpt lat="44.4489271" lon="10.0010889"><ele>1263.0</ele><time>2026-03-22T09:34:48.242Z</time></trkpt><trkpt lat="44.4487992" lon="10.0010949"><ele>1263.0</ele><time>2026-03-22T09:34:49.25Z</time></trkpt><trkpt lat="44.4486625" lon="10.0010979"><ele>1263.0</ele><time>2026-03-22T09:34:50.235Z</time></trkpt><trkpt lat="44.4485269" lon="10.0011161"><ele>1263.0</ele><time>2026-03-22T09:34:51.241Z</time></trkpt><trkpt lat="44.4483968" lon="10.0011618"><ele>1264.4</ele><time>2026-03-22T09:34:52.234Z</time></trkpt><trkpt lat="44.4482845" lon="10.0012142"><ele>1265.8</ele><time>2026-03-22T09:34:53.237Z</time></trkpt><trkpt lat="44.4481866" lon="10.001268"><ele>1267.2</ele><time>2026-03-22T09:34:54.238Z</time></trkpt><trkpt lat="44.448098" lon="10.001313"><ele>1268.6</ele><time>2026-03-22T09:34:55.238Z</time></trkpt><trkpt lat="44.4480114" lon="10.001356"><ele>1270.0</ele><time>2026-03-22T09:34:56.232Z</time></trkpt><trkpt lat="44.4479361" lon="10.0013999"><ele>1271.1666666666665</ele><time>2026-03-22T09:34:57.226Z</time></trkpt><trkpt lat="44.4478784" lon="10.0014372"><ele>1272.3333333333333</ele><time>2026-03-22T09:34:58.232Z</time></trkpt><trkpt lat="44.4477903" lon="10.0014768"><ele>1273.5</ele><time>2026-03-22T09:35:00.229Z</time></trkpt><trkpt lat="44.44772" lon="10.0015253"><ele>1274.6666666666667</ele><time>2026-03-22T09:35:02.232Z</time></trkpt><trkpt lat="44.4476485" lon="10.001574"><ele>1275.8333333333335</ele><time>2026-03-22T09:35:04.234Z</time></trkpt><trkpt lat="44.4475563" lon="10.00163"><ele>1277.0</ele><time>2026-03-22T09:35:06.237Z</time></trkpt><trkpt lat="44.4474943" lon="10.0016684"><ele>1276.2</ele><time>2026-03-22T09:35:07.231Z</time></trkpt><trkpt lat="44.447426" lon="10.0016967"><ele>1275.4</ele><time>2026-03-22T09:35:08.237Z</time></trkpt><trkpt lat="44.4473523" lon="10.0017009"><ele>1274.6</ele><time>2026-03-22T09:35:09.232Z</time></trkpt><trkpt lat="44.4472622" lon="10.0017003"><ele>1273.8</ele><time>2026-03-22T09:35:10.238Z</time></trkpt><trkpt lat="44.4471563" lon="10.001698"><ele>1273.0</ele><time>2026-03-22T09:35:11.236Z</time></trkpt><trkpt lat="44.4470435" lon="10.0016846"><ele>1273.0</ele><time>2026-03-22T09:35:12.226Z</time></trkpt><trkpt lat="44.4469204" lon="10.0016912"><ele>1273.0</ele><time>2026-03-22T09:35:13.234Z</time></trkpt><trkpt lat="44.4467924" lon="10.0017109"><ele>1273.0</ele><time>2026-03-22T09:35:14.233Z</time></trkpt><trkpt lat="44.4466723" lon="10.0017448"><ele>1273.0</ele><time>2026-03-22T09:35:15.234Z</time></trkpt><trkpt lat="44.4465607" lon="10.0017937"><ele>1273.0</ele><time>2026-03-22T09:35:16.237Z</time></trkpt><trkpt lat="44.4464469" lon="10.0018755"><ele>1273.0</ele><time>2026-03-22T09:35:17.238Z</time></trkpt><trkpt lat="44.4463302" lon="10.0019681"><ele>1273.0</ele><time>2026-03-22T09:35:18.236Z</time></trkpt><trkpt lat="44.4462158" lon="10.0020588"><ele>1273.0</ele><time>2026-03-22T09:35:19.239Z</time></trkpt><trkpt lat="44.4460941" lon="10.0021553"><ele>1270.75</ele><time>2026-03-22T09:35:20.252Z</time></trkpt><trkpt lat="44.4459646" lon="10.00226"><ele>1268.5</ele><time>2026-03-22T09:35:21.249Z</time></trkpt><trkpt lat="44.4458493" lon="10.0023533"><ele>1266.25</ele><time>2026-03-22T09:35:22.249Z</time></trkpt><trkpt lat="44.4457367" lon="10.0024488"><ele>1264.0</ele><time>2026-03-22T09:35:23.247Z</time></trkpt><trkpt lat="44.4456148" lon="10.0025129"><ele>1264.0</ele><time>2026-03-22T09:35:24.246Z</time></trkpt><trkpt lat="44.4454874" lon="10.0025553"><ele>1264.0</ele><time>2026-03-22T09:35:25.242Z</time></trkpt><trkpt lat="44.445351" lon="10.0025914"><ele>1264.0</ele><time>2026-03-22T09:35:26.245Z</time></trkpt><trkpt lat="44.4452435" lon="10.0026338"><ele>1264.0</ele><time>2026-03-22T09:35:27.239Z</time></trkpt><trkpt lat="44.4451361" lon="10.0026987"><ele>1268.4</ele><time>2026-03-22T09:35:28.239Z</time></trkpt><trkpt lat="44.4450368" lon="10.0027691"><ele>1272.8000000000002</ele><time>2026-03-22T09:35:29.234Z</time></trkpt><trkpt lat="44.4449544" lon="10.0028684"><ele>1277.1999999999998</ele><time>2026-03-22T09:35:30.228Z</time></trkpt><trkpt lat="44.4448779" lon="10.0029881"><ele>1281.6</ele><time>2026-03-22T09:35:31.235Z</time></trkpt><trkpt lat="44.4448039" lon="10.0031074"><ele>1286.0</ele><time>2026-03-22T09:35:32.232Z</time></trkpt><trkpt lat="44.4447219" lon="10.0032107"><ele>1286.75</ele><time>2026-03-22T09:35:33.236Z</time></trkpt><trkpt lat="44.4446269" lon="10.0033049"><ele>1287.5</ele><time>2026-03-22T09:35:34.239Z</time></trkpt><trkpt lat="44.4445201" lon="10.0033839"><ele>1288.25</ele><time>2026-03-22T09:35:35.233Z</time></trkpt><trkpt lat="44.4444097" lon="10.0034428"><ele>1289.0</ele><time>2026-03-22T09:35:36.238Z</time></trkpt><trkpt lat="44.4442923" lon="10.0034872"><ele>1289.0</ele><time>2026-03-22T09:35:37.243Z</time></trkpt><trkpt lat="44.4441664" lon="10.0035226"><ele>1289.0</ele><time>2026-03-22T09:35:38.234Z</time></trkpt><trkpt lat="44.4440407" lon="10.0035398"><ele>1289.0</ele><time>2026-03-22T09:35:39.239Z</time></trkpt><trkpt lat="44.4439217" lon="10.0035613"><ele>1289.0</ele><time>2026-03-22T09:35:40.246Z</time></trkpt><trkpt lat="44.4438156" lon="10.0035836"><ele>1290.25</ele><time>2026-03-22T09:35:41.242Z</time></trkpt><trkpt lat="44.4436916" lon="10.0035849"><ele>1291.5</ele><time>2026-03-22T09:35:42.248Z</time></trkpt><trkpt lat="44.4435571" lon="10.0035772"><ele>1292.75</ele><time>2026-03-22T09:35:43.249Z</time></trkpt><trkpt lat="44.4434158" lon="10.003566"><ele>1294.0</ele><time>2026-03-22T09:35:44.241Z</time></trkpt><trkpt lat="44.44326" lon="10.0035442"><ele>1294.0</ele><time>2026-03-22T09:35:45.249Z</time></trkpt><trkpt lat="44.4431327" lon="10.0035547"><ele>1294.0</ele><time>2026-03-22T09:35:46.243Z</time></trkpt><trkpt lat="44.4430296" lon="10.0035772"><ele>1294.0</ele><time>2026-03-22T09:35:47.238Z</time></trkpt><trkpt lat="44.4429242" lon="10.0036045"><ele>1294.0</ele><time>2026-03-22T09:35:48.244Z</time></trkpt><trkpt lat="44.4428463" lon="10.0036388"><ele>1294.0</ele><time>2026-03-22T09:35:49.247Z</time></trkpt><trkpt lat="44.4427724" lon="10.0036789"><ele>1294.6</ele><time>2026-03-22T09:35:50.246Z</time></trkpt><trkpt lat="44.4426894" lon="10.0037371"><ele>1295.2</ele><time>2026-03-22T09:35:51.252Z</time></trkpt><trkpt lat="44.4426086" lon="10.0037928"><ele>1295.8</ele><time>2026-03-22T09:35:52.247Z</time></trkpt><trkpt lat="44.442534" lon="10.0038394"><ele>1296.3999999999999</ele><time>2026-03-22T09:35:53.249Z</time></trkpt><trkpt lat="44.4424729" lon="10.0038707"><ele>1297.0</ele><time>2026-03-22T09:35:54.256Z</time></trkpt><trkpt lat="44.4423614" lon="10.0039381"><ele>1297.0</ele><time>2026-03-22T09:35:56.247Z</time></trkpt><trkpt lat="44.4422478" lon="10.0039969"><ele>1297.0</ele><time>2026-03-22T09:35:58.246Z</time></trkpt><trkpt lat="44.4421821" lon="10.004029"><ele>1297.0</ele><time>2026-03-22T09:35:59.244Z</time></trkpt><trkpt lat="44.4421197" lon="10.0040647"><ele>1297.0</ele><time>2026-03-22T09:36:00.249Z</time></trkpt><trkpt lat="44.4420477" lon="10.0041051"><ele>1297.0</ele><time>2026-03-22T09:36:01.244Z</time></trkpt><trkpt lat="44.4419831" lon="10.0041509"><ele>1297.0</ele><time>2026-03-22T09:36:02.246Z</time></trkpt><trkpt lat="44.4419158" lon="10.0041856"><ele>1296.8333333333333</ele><time>2026-03-22T09:36:03.241Z</time></trkpt><trkpt lat="44.4418424" lon="10.004212"><ele>1296.6666666666665</ele><time>2026-03-22T09:36:04.243Z</time></trkpt><trkpt lat="44.4417613" lon="10.0042228"><ele>1296.5</ele><time>2026-03-22T09:36:05.251Z</time></trkpt><trkpt lat="44.4416744" lon="10.0041985"><ele>1296.3333333333333</ele><time>2026-03-22T09:36:06.242Z</time></trkpt><trkpt lat="44.4415907" lon="10.0041585"><ele>1296.1666666666667</ele><time>2026-03-22T09:36:07.245Z</time></trkpt><trkpt lat="44.4415015" lon="10.0040773"><ele>1296.0</ele><time>2026-03-22T09:36:08.25Z</time></trkpt><trkpt lat="44.441411" lon="10.0039506"><ele>1296.0</ele><time>2026-03-22T09:36:09.246Z</time></trkpt><trkpt lat="44.4413224" lon="10.0038268"><ele>1296.0</ele><time>2026-03-22T09:36:10.237Z</time></trkpt><trkpt lat="44.4412288" lon="10.0037087"><ele>1296.0</ele><time>2026-03-22T09:36:11.238Z</time></trkpt><trkpt lat="44.4411383" lon="10.0035881"><ele>1296.0</ele><time>2026-03-22T09:36:12.242Z</time></trkpt><trkpt lat="44.4410529" lon="10.0034704"><ele>1296.4</ele><time>2026-03-22T09:36:13.239Z</time></trkpt><trkpt lat="44.4409653" lon="10.0033782"><ele>1296.8</ele><time>2026-03-22T09:36:14.238Z</time></trkpt><trkpt lat="44.4408791" lon="10.0033188"><ele>1297.2</ele><time>2026-03-22T09:36:15.245Z</time></trkpt><trkpt lat="44.4407853" lon="10.003297"><ele>1297.6000000000001</ele><time>2026-03-22T09:36:16.239Z</time></trkpt><trkpt lat="44.440681" lon="10.0033007"><ele>1298.0</ele><time>2026-03-22T09:36:17.241Z</time></trkpt><trkpt lat="44.440568" lon="10.0033376"><ele>1293.5</ele><time>2026-03-22T09:36:18.243Z</time></trkpt><trkpt lat="44.440448" lon="10.003429"><ele>1289.0</ele><time>2026-03-22T09:36:19.242Z</time></trkpt><trkpt lat="44.440338" lon="10.0035158"><ele>1284.5</ele><time>2026-03-22T09:36:20.237Z</time></trkpt><trkpt lat="44.4402468" lon="10.003579"><ele>1280.0</ele><time>2026-03-22T09:36:21.239Z</time></trkpt><trkpt lat="44.4401539" lon="10.0036215"><ele>1280.0</ele><time>2026-03-22T09:36:22.242Z</time></trkpt><trkpt lat="44.4400615" lon="10.0036072"><ele>1280.0</ele><time>2026-03-22T09:36:23.238Z</time></trkpt><trkpt lat="44.4399643" lon="10.003552"><ele>1280.0</ele><time>2026-03-22T09:36:24.235Z</time></trkpt><trkpt lat="44.4398629" lon="10.0034709"><ele>1280.0</ele><time>2026-03-22T09:36:25.241Z</time></trkpt><trkpt lat="44.4397605" lon="10.0033888"><ele>1280.0</ele><time>2026-03-22T09:36:26.239Z</time></trkpt><trkpt lat="44.4396631" lon="10.0033202"><ele>1277.6</ele><time>2026-03-22T09:36:27.238Z</time></trkpt><trkpt lat="44.4395683" lon="10.003266"><ele>1275.2</ele><time>2026-03-22T09:36:28.24Z</time></trkpt><trkpt lat="44.4394714" lon="10.0032371"><ele>1272.8</ele><time>2026-03-22T09:36:29.233Z</time></trkpt><trkpt lat="44.4393714" lon="10.0032318"><ele>1270.4</ele><time>2026-03-22T09:36:30.235Z</time></trkpt><trkpt lat="44.439278" lon="10.0032575"><ele>1268.0</ele><time>2026-03-22T09:36:31.249Z</time></trkpt><trkpt lat="44.439189" lon="10.0032976"><ele>1268.0</ele><time>2026-03-22T09:36:32.245Z</time></trkpt><trkpt lat="44.4391059" lon="10.0033238"><ele>1268.0</ele><time>2026-03-22T09:36:33.245Z</time></trkpt><trkpt lat="44.4390332" lon="10.0033265"><ele>1268.0</ele><time>2026-03-22T09:36:34.243Z</time></trkpt><trkpt lat="44.4389281" lon="10.0032884"><ele>1268.0</ele><time>2026-03-22T09:36:36.247Z</time></trkpt><trkpt lat="44.4388651" lon="10.0032142"><ele>1268.0</ele><time>2026-03-22T09:36:38.241Z</time></trkpt><trkpt lat="44.4388166" lon="10.0031331"><ele>1268.0</ele><time>2026-03-22T09:36:40.243Z</time></trkpt><trkpt lat="44.4387655" lon="10.003036"><ele>1265.5</ele><time>2026-03-22T09:36:43.244Z</time></trkpt><trkpt lat="44.438703" lon="10.0029541"><ele>1263.0</ele><time>2026-03-22T09:36:45.246Z</time></trkpt><trkpt lat="44.4386522" lon="10.0028749"><ele>1260.5</ele><time>2026-03-22T09:36:54.242Z</time></trkpt><trkpt lat="44.4386099" lon="10.0027802"><ele>1258.0</ele><time>2026-03-22T09:36:58.246Z</time></trkpt><trkpt lat="44.438544" lon="10.0027933"><ele>1255.5</ele><time>2026-03-22T09:37:03.235Z</time></trkpt><trkpt lat="44.4384855" lon="10.0028616"><ele>1253.0</ele><time>2026-03-22T09:50:19.241Z</time></trkpt><trkpt lat="44.4383959" lon="10.0028472"><ele>1253.0</ele><time>2026-03-22T09:50:20.243Z</time></trkpt><trkpt lat="44.4382802" lon="10.0028518"><ele>1253.0</ele><time>2026-03-22T09:50:21.233Z</time></trkpt><trkpt lat="44.4381546" lon="10.0028962"><ele>1253.0</ele><time>2026-03-22T09:50:22.236Z</time></trkpt><trkpt lat="44.4380435" lon="10.0029607"><ele>1253.0</ele><time>2026-03-22T09:50:23.232Z</time></trkpt><trkpt lat="44.4379429" lon="10.0030107"><ele>1250.0</ele><time>2026-03-22T09:50:24.229Z</time></trkpt><trkpt lat="44.437845" lon="10.0030207"><ele>1247.0</ele><time>2026-03-22T09:50:25.235Z</time></trkpt><trkpt lat="44.4377514" lon="10.0030154"><ele>1244.0</ele><time>2026-03-22T09:50:26.236Z</time></trkpt><trkpt lat="44.4376597" lon="10.0029954"><ele>1241.0</ele><time>2026-03-22T09:50:27.22Z</time></trkpt><trkpt lat="44.4375659" lon="10.0029622"><ele>1238.0</ele><time>2026-03-22T09:50:28.228Z</time></trkpt><trkpt lat="44.4374664" lon="10.002938"><ele>1238.0</ele><time>2026-03-22T09:50:29.228Z</time></trkpt><trkpt lat="44.4373673" lon="10.002924"><ele>1238.0</ele><time>2026-03-22T09:50:30.23Z</time></trkpt><trkpt lat="44.4372709" lon="10.0029299"><ele>1238.0</ele><time>2026-03-22T09:50:31.228Z</time></trkpt><trkpt lat="44.4371775" lon="10.0029649"><ele>1238.0</ele><time>2026-03-22T09:50:32.225Z</time></trkpt><trkpt lat="44.4370941" lon="10.003027"><ele>1238.0</ele><time>2026-03-22T09:50:33.23Z</time></trkpt><trkpt lat="44.4370104" lon="10.0031095"><ele>1234.8</ele><time>2026-03-22T09:50:34.231Z</time></trkpt><trkpt lat="44.4369314" lon="10.0031961"><ele>1231.6</ele><time>2026-03-22T09:50:35.23Z</time></trkpt><trkpt lat="44.4368497" lon="10.0032636"><ele>1228.4</ele><time>2026-03-22T09:50:36.226Z</time></trkpt><trkpt lat="44.4367605" lon="10.0032922"><ele>1225.2</ele><time>2026-03-22T09:50:37.229Z</time></trkpt><trkpt lat="44.4366726" lon="10.0032839"><ele>1222.0</ele><time>2026-03-22T09:50:38.229Z</time></trkpt><trkpt lat="44.4365901" lon="10.0032706"><ele>1222.0</ele><time>2026-03-22T09:50:39.228Z</time></trkpt><trkpt lat="44.4364886" lon="10.0032638"><ele>1222.0</ele><time>2026-03-22T09:50:40.23Z</time></trkpt><trkpt lat="44.4363688" lon="10.0032353"><ele>1222.0</ele><time>2026-03-22T09:50:41.232Z</time></trkpt><trkpt lat="44.4362456" lon="10.0032038"><ele>1222.0</ele><time>2026-03-22T09:50:42.229Z</time></trkpt><trkpt lat="44.4361319" lon="10.0031637"><ele>1221.0</ele><time>2026-03-22T09:50:43.229Z</time></trkpt><trkpt lat="44.4360278" lon="10.0031293"><ele>1220.0</ele><time>2026-03-22T09:50:44.228Z</time></trkpt><trkpt lat="44.4359333" lon="10.0031002"><ele>1219.0</ele><time>2026-03-22T09:50:45.226Z</time></trkpt><trkpt lat="44.4358441" lon="10.0030899"><ele>1218.0</ele><time>2026-03-22T09:50:46.229Z</time></trkpt><trkpt lat="44.4357638" lon="10.0030961"><ele>1217.0</ele><time>2026-03-22T09:50:47.223Z</time></trkpt><trkpt lat="44.4356981" lon="10.0031147"><ele>1216.0</ele><time>2026-03-22T09:50:48.238Z</time></trkpt><trkpt lat="44.4356165" lon="10.0030406"><ele>1216.0</ele><time>2026-03-22T09:50:50.226Z</time></trkpt><trkpt lat="44.4356523" lon="10.0028955"><ele>1216.0</ele><time>2026-03-22T09:50:52.235Z</time></trkpt><trkpt lat="44.4357582" lon="10.0028486"><ele>1216.0</ele><time>2026-03-22T09:50:54.237Z</time></trkpt><trkpt lat="44.4358545" lon="10.0028781"><ele>1216.0</ele><time>2026-03-22T09:50:55.232Z</time></trkpt><trkpt lat="44.4359637" lon="10.0029176"><ele>1216.0</ele><time>2026-03-22T09:50:56.231Z</time></trkpt><trkpt lat="44.4360861" lon="10.0029343"><ele>1216.0</ele><time>2026-03-22T09:50:57.231Z</time></trkpt><trkpt lat="44.4362147" lon="10.0029362"><ele>1216.0</ele><time>2026-03-22T09:50:58.246Z</time></trkpt><trkpt lat="44.4363425" lon="10.0029317"><ele>1216.0</ele><time>2026-03-22T09:50:59.24Z</time></trkpt><trkpt lat="44.4364563" lon="10.0029123"><ele>1216.0</ele><time>2026-03-22T09:51:00.241Z</time></trkpt><trkpt lat="44.436569" lon="10.0028629"><ele>1217.5</ele><time>2026-03-22T09:51:01.236Z</time></trkpt><trkpt lat="44.436674" lon="10.0027874"><ele>1219.0</ele><time>2026-03-22T09:51:02.236Z</time></trkpt><trkpt lat="44.4367592" lon="10.0026771"><ele>1220.5</ele><time>2026-03-22T09:51:03.233Z</time></trkpt><trkpt lat="44.436829" lon="10.0025419"><ele>1222.0</ele><time>2026-03-22T09:51:04.239Z</time></trkpt><trkpt lat="44.4368931" lon="10.0023938"><ele>1222.5</ele><time>2026-03-22T09:51:05.237Z</time></trkpt><trkpt lat="44.436959" lon="10.0022373"><ele>1223.0</ele><time>2026-03-22T09:51:06.24Z</time></trkpt><trkpt lat="44.4370328" lon="10.0020753"><ele>1223.5</ele><time>2026-03-22T09:51:07.24Z</time></trkpt><trkpt lat="44.4371003" lon="10.0019122"><ele>1224.0</ele><time>2026-03-22T09:51:08.234Z</time></trkpt><trkpt lat="44.4371702" lon="10.0017605"><ele>1219.6000000000001</ele><time>2026-03-22T09:51:09.235Z</time></trkpt><trkpt lat="44.4372385" lon="10.0016204"><ele>1215.2</ele><time>2026-03-22T09:51:10.237Z</time></trkpt><trkpt lat="44.4373012" lon="10.0014868"><ele>1210.8000000000002</ele><time>2026-03-22T09:51:11.232Z</time></trkpt><trkpt lat="44.4373619" lon="10.0013562"><ele>1206.4</ele><time>2026-03-22T09:51:12.238Z</time></trkpt><trkpt lat="44.437409" lon="10.0012325"><ele>1202.0</ele><time>2026-03-22T09:51:13.234Z</time></trkpt><trkpt lat="44.4374339" lon="10.0011132"><ele>1202.0</ele><time>2026-03-22T09:51:14.237Z</time></trkpt><trkpt lat="44.4374246" lon="10.0010052"><ele>1202.0</ele><time>2026-03-22T09:51:15.239Z</time></trkpt><trkpt lat="44.4373853" lon="10.0009177"><ele>1202.0</ele><time>2026-03-22T09:51:16.244Z</time></trkpt><trkpt lat="44.4373184" lon="10.0008662"><ele>1202.0</ele><time>2026-03-22T09:51:17.245Z</time></trkpt><trkpt lat="44.4372348" lon="10.0008607"><ele>1202.0</ele><time>2026-03-22T09:51:18.244Z</time></trkpt><trkpt lat="44.4371475" lon="10.0008973"><ele>1202.0</ele><time>2026-03-22T09:51:19.239Z</time></trkpt><trkpt lat="44.4370529" lon="10.0009725"><ele>1199.25</ele><time>2026-03-22T09:51:20.233Z</time></trkpt><trkpt lat="44.4369436" lon="10.0010411"><ele>1196.5</ele><time>2026-03-22T09:51:21.238Z</time></trkpt><trkpt lat="44.4368226" lon="10.0010579"><ele>1193.75</ele><time>2026-03-22T09:51:22.234Z</time></trkpt><trkpt lat="44.4367086" lon="10.0010405"><ele>1191.0</ele><time>2026-03-22T09:51:23.236Z</time></trkpt><trkpt lat="44.4366074" lon="10.0010368"><ele>1191.0</ele><time>2026-03-22T09:51:24.234Z</time></trkpt><trkpt lat="44.4365119" lon="10.0010761"><ele>1191.0</ele><time>2026-03-22T09:51:25.241Z</time></trkpt><trkpt lat="44.4364263" lon="10.0011522"><ele>1191.0</ele><time>2026-03-22T09:51:26.238Z</time></trkpt><trkpt lat="44.4363435" lon="10.0012534"><ele>1191.0</ele><time>2026-03-22T09:51:27.242Z</time></trkpt><trkpt lat="44.436258" lon="10.0013635"><ele>1191.0</ele><time>2026-03-22T09:51:28.244Z</time></trkpt><trkpt lat="44.4361628" lon="10.0014623"><ele>1188.3333333333333</ele><time>2026-03-22T09:51:29.24Z</time></trkpt><trkpt lat="44.4360699" lon="10.0015388"><ele>1185.6666666666667</ele><time>2026-03-22T09:51:30.239Z</time></trkpt><trkpt lat="44.4359804" lon="10.001585"><ele>1183.0</ele><time>2026-03-22T09:51:31.238Z</time></trkpt><trkpt lat="44.4358947" lon="10.0015877"><ele>1180.3333333333335</ele><time>2026-03-22T09:51:32.234Z</time></trkpt><trkpt lat="44.4358237" lon="10.0015274"><ele>1177.6666666666667</ele><time>2026-03-22T09:51:33.238Z</time></trkpt><trkpt lat="44.4357756" lon="10.0014469"><ele>1175.0</ele><time>2026-03-22T09:51:34.239Z</time></trkpt><trkpt lat="44.4357038" lon="10.0013738"><ele>1175.0</ele><time>2026-03-22T09:51:35.234Z</time></trkpt><trkpt lat="44.4356173" lon="10.0013331"><ele>1175.0</ele><time>2026-03-22T09:51:36.237Z</time></trkpt><trkpt lat="44.4355237" lon="10.0013346"><ele>1175.0</ele><time>2026-03-22T09:51:37.242Z</time></trkpt><trkpt lat="44.435434" lon="10.0013426"><ele>1175.0</ele><time>2026-03-22T09:51:38.237Z</time></trkpt><trkpt lat="44.4353547" lon="10.001329"><ele>1175.0</ele><time>2026-03-22T09:51:39.233Z</time></trkpt><trkpt lat="44.4352866" lon="10.0012689"><ele>1175.0</ele><time>2026-03-22T09:51:40.238Z</time></trkpt><trkpt lat="44.435244" lon="10.0011656"><ele>1174.2</ele><time>2026-03-22T09:51:41.237Z</time></trkpt><trkpt lat="44.4352283" lon="10.0010516"><ele>1173.4</ele><time>2026-03-22T09:51:42.238Z</time></trkpt><trkpt lat="44.4352183" lon="10.0009115"><ele>1172.6</ele><time>2026-03-22T09:51:43.238Z</time></trkpt><trkpt lat="44.4352037" lon="10.0007393"><ele>1171.8</ele><time>2026-03-22T09:51:44.241Z</time></trkpt><trkpt lat="44.4351826" lon="10.0005583"><ele>1171.0</ele><time>2026-03-22T09:51:45.238Z</time></trkpt><trkpt lat="44.4351511" lon="10.0003794"><ele>1171.0</ele><time>2026-03-22T09:51:46.24Z</time></trkpt><trkpt lat="44.4351068" lon="10.0002133"><ele>1171.0</ele><time>2026-03-22T09:51:47.241Z</time></trkpt><trkpt lat="44.4350488" lon="10.0000558"><ele>1171.0</ele><time>2026-03-22T09:51:48.24Z</time></trkpt><trkpt lat="44.4349799" lon="9.9999157"><ele>1171.0</ele><time>2026-03-22T09:51:49.24Z</time></trkpt><trkpt lat="44.4348928" lon="9.9997992"><ele>1171.0</ele><time>2026-03-22T09:51:50.245Z</time></trkpt><trkpt lat="44.4347972" lon="9.9997029"><ele>1171.0</ele><time>2026-03-22T09:51:51.241Z</time></trkpt><trkpt lat="44.4347" lon="9.9996182"><ele>1171.0</ele><time>2026-03-22T09:51:52.248Z</time></trkpt><trkpt lat="44.4346045" lon="9.999553"><ele>1171.0</ele><time>2026-03-22T09:51:53.247Z</time></trkpt><trkpt lat="44.4345109" lon="9.9995112"><ele>1171.0</ele><time>2026-03-22T09:51:54.235Z</time></trkpt><trkpt lat="44.4344203" lon="9.9995033"><ele>1171.0</ele><time>2026-03-22T09:51:55.24Z</time></trkpt><trkpt lat="44.4343301" lon="9.9995284"><ele>1171.0</ele><time>2026-03-22T09:51:56.233Z</time></trkpt><trkpt lat="44.4342406" lon="9.9995617"><ele>1171.0</ele><time>2026-03-22T09:51:57.236Z</time></trkpt><trkpt lat="44.4341586" lon="9.9996043"><ele>1171.0</ele><time>2026-03-22T09:51:58.237Z</time></trkpt><trkpt lat="44.4340805" lon="9.9996676"><ele>1171.0</ele><time>2026-03-22T09:51:59.233Z</time></trkpt><trkpt lat="44.4340072" lon="9.9997612"><ele>1171.0</ele><time>2026-03-22T09:52:00.241Z</time></trkpt><trkpt lat="44.4339384" lon="9.9998884"><ele>1171.0</ele><time>2026-03-22T09:52:01.236Z</time></trkpt><trkpt lat="44.4338719" lon="10.000042"><ele>1171.0</ele><time>2026-03-22T09:52:02.234Z</time></trkpt><trkpt lat="44.4337987" lon="10.0001947"><ele>1171.0</ele><time>2026-03-22T09:52:03.23Z</time></trkpt><trkpt lat="44.433705" lon="10.0003229"><ele>1164.0</ele><time>2026-03-22T09:52:04.226Z</time></trkpt><trkpt lat="44.4335969" lon="10.0004118"><ele>1157.0</ele><time>2026-03-22T09:52:05.229Z</time></trkpt><trkpt lat="44.4334813" lon="10.0004766"><ele>1150.0</ele><time>2026-03-22T09:52:06.225Z</time></trkpt><trkpt lat="44.433359" lon="10.0005186"><ele>1143.0</ele><time>2026-03-22T09:52:07.225Z</time></trkpt><trkpt lat="44.4332278" lon="10.0005502"><ele>1143.0</ele><time>2026-03-22T09:52:08.223Z</time></trkpt><trkpt lat="44.4330847" lon="10.0005705"><ele>1143.0</ele><time>2026-03-22T09:52:09.228Z</time></trkpt><trkpt lat="44.4329332" lon="10.000585"><ele>1143.0</ele><time>2026-03-22T09:52:10.23Z</time></trkpt><trkpt lat="44.4328273" lon="10.0006447"><ele>1143.0</ele><time>2026-03-22T09:52:11.221Z</time></trkpt><trkpt lat="44.4327225" lon="10.0006623"><ele>1144.2</ele><time>2026-03-22T09:52:12.227Z</time></trkpt><trkpt lat="44.4326439" lon="10.000635"><ele>1145.4</ele><time>2026-03-22T09:52:13.226Z</time></trkpt><trkpt lat="44.4325616" lon="10.0004877"><ele>1146.6000000000001</ele><time>2026-03-22T09:52:15.231Z</time></trkpt><trkpt lat="44.4325302" lon="10.0003885"><ele>1147.8</ele><time>2026-03-22T09:52:16.234Z</time></trkpt><trkpt lat="44.4324869" lon="10.0002449"><ele>1149.0</ele><time>2026-03-22T09:52:18.234Z</time></trkpt><trkpt lat="44.4324517" lon="10.0001309"><ele>1149.0</ele><time>2026-03-22T09:52:19.238Z</time></trkpt><trkpt lat="44.4323994" lon="10.0000108"><ele>1149.0</ele><time>2026-03-22T09:52:20.23Z</time></trkpt><trkpt lat="44.4323223" lon="9.999901"><ele>1149.0</ele><time>2026-03-22T09:52:21.23Z</time></trkpt><trkpt lat="44.4322302" lon="9.9998007"><ele>1149.0</ele><time>2026-03-22T09:52:22.226Z</time></trkpt><trkpt lat="44.432125" lon="9.9997065"><ele>1153.5</ele><time>2026-03-22T09:52:23.23Z</time></trkpt><trkpt lat="44.432015" lon="9.9996055"><ele>1158.0</ele><time>2026-03-22T09:52:24.227Z</time></trkpt><trkpt lat="44.431915" lon="9.9994829"><ele>1162.5</ele><time>2026-03-22T09:52:25.223Z</time></trkpt><trkpt lat="44.4318438" lon="9.9993424"><ele>1167.0</ele><time>2026-03-22T09:52:26.222Z</time></trkpt><trkpt lat="44.4318079" lon="9.9991929"><ele>1163.0</ele><time>2026-03-22T09:52:27.229Z</time></trkpt><trkpt lat="44.4317845" lon="9.9990446"><ele>1159.0</ele><time>2026-03-22T09:52:28.232Z</time></trkpt><trkpt lat="44.431783" lon="9.9988861"><ele>1155.0</ele><time>2026-03-22T09:52:29.228Z</time></trkpt><trkpt lat="44.4318129" lon="9.9987406"><ele>1151.0</ele><time>2026-03-22T09:52:30.227Z</time></trkpt><trkpt lat="44.4318502" lon="9.9986135"><ele>1147.0</ele><time>2026-03-22T09:52:31.237Z</time></trkpt><trkpt lat="44.4318761" lon="9.998501"><ele>1147.0</ele><time>2026-03-22T09:52:32.227Z</time></trkpt><trkpt lat="44.4318628" lon="9.9984029"><ele>1147.0</ele><time>2026-03-22T09:52:33.227Z</time></trkpt><trkpt lat="44.4318337" lon="9.9983231"><ele>1147.0</ele><time>2026-03-22T09:52:34.228Z</time></trkpt><trkpt lat="44.4317652" lon="9.9982933"><ele>1147.0</ele><time>2026-03-22T09:52:35.234Z</time></trkpt><trkpt lat="44.431678" lon="9.9983065"><ele>1147.0</ele><time>2026-03-22T09:52:36.231Z</time></trkpt><trkpt lat="44.4315871" lon="9.9983562"><ele>1147.0</ele><time>2026-03-22T09:52:37.226Z</time></trkpt><trkpt lat="44.4314798" lon="9.9984381"><ele>1147.0</ele><time>2026-03-22T09:52:38.231Z</time></trkpt><trkpt lat="44.431371" lon="9.9985178"><ele>1147.0</ele><time>2026-03-22T09:52:39.229Z</time></trkpt><trkpt lat="44.4312843" lon="9.9985868"><ele>1147.0</ele><time>2026-03-22T09:52:40.224Z</time></trkpt><trkpt lat="44.4312107" lon="9.9986249"><ele>1147.0</ele><time>2026-03-22T09:52:41.23Z</time></trkpt><trkpt lat="44.4311403" lon="9.9986117"><ele>1147.0</ele><time>2026-03-22T09:52:42.225Z</time></trkpt><trkpt lat="44.431092" lon="9.9985542"><ele>1147.0</ele><time>2026-03-22T09:52:43.23Z</time></trkpt><trkpt lat="44.4310654" lon="9.9984513"><ele>1146.2</ele><time>2026-03-22T09:52:44.221Z</time></trkpt><trkpt lat="44.4310504" lon="9.9983404"><ele>1145.4</ele><time>2026-03-22T09:52:45.222Z</time></trkpt><trkpt lat="44.4310565" lon="9.9981846"><ele>1144.6</ele><time>2026-03-22T09:52:46.309Z</time></trkpt><trkpt lat="44.4310548" lon="9.9980289"><ele>1143.8</ele><time>2026-03-22T09:52:47.223Z</time></trkpt><trkpt lat="44.431031" lon="9.9978837"><ele>1143.0</ele><time>2026-03-22T09:52:48.23Z</time></trkpt><trkpt lat="44.4309925" lon="9.9977407"><ele>1143.0</ele><time>2026-03-22T09:52:49.226Z</time></trkpt><trkpt lat="44.4309123" lon="9.9976093"><ele>1143.0</ele><time>2026-03-22T09:52:50.23Z</time></trkpt><trkpt lat="44.4308204" lon="9.9975033"><ele>1143.0</ele><time>2026-03-22T09:52:51.232Z</time></trkpt><trkpt lat="44.4307374" lon="9.9973887"><ele>1143.0</ele><time>2026-03-22T09:52:52.241Z</time></trkpt><trkpt lat="44.4306778" lon="9.9972663"><ele>1139.0</ele><time>2026-03-22T09:52:53.227Z</time></trkpt><trkpt lat="44.43065" lon="9.9971465"><ele>1135.0</ele><time>2026-03-22T09:52:54.227Z</time></trkpt><trkpt lat="44.4306584" lon="9.9970068"><ele>1131.0</ele><time>2026-03-22T09:52:55.223Z</time></trkpt><trkpt lat="44.4306861" lon="9.9968679"><ele>1127.0</ele><time>2026-03-22T09:52:56.227Z</time></trkpt><trkpt lat="44.4307116" lon="9.9967302"><ele>1123.0</ele><time>2026-03-22T09:52:57.225Z</time></trkpt><trkpt lat="44.4307557" lon="9.9965943"><ele>1121.0</ele><time>2026-03-22T09:52:58.229Z</time></trkpt><trkpt lat="44.4308298" lon="9.9964505"><ele>1119.0</ele><time>2026-03-22T09:52:59.233Z</time></trkpt><trkpt lat="44.4309044" lon="9.9963125"><ele>1117.0</ele><time>2026-03-22T09:53:00.222Z</time></trkpt><trkpt lat="44.4309848" lon="9.9961866"><ele>1115.0</ele><time>2026-03-22T09:53:01.234Z</time></trkpt><trkpt lat="44.4310435" lon="9.9960503"><ele>1115.0</ele><time>2026-03-22T09:53:02.229Z</time></trkpt><trkpt lat="44.4310717" lon="9.9959027"><ele>1115.0</ele><time>2026-03-22T09:53:03.234Z</time></trkpt><trkpt lat="44.4310821" lon="9.9957522"><ele>1115.0</ele><time>2026-03-22T09:53:04.231Z</time></trkpt><trkpt lat="44.4310609" lon="9.995616"><ele>1115.0</ele><time>2026-03-22T09:53:05.238Z</time></trkpt><trkpt lat="44.4310208" lon="9.9954874"><ele>1115.0</ele><time>2026-03-22T09:53:06.233Z</time></trkpt><trkpt lat="44.4309677" lon="9.9953553"><ele>1114.2</ele><time>2026-03-22T09:53:07.23Z</time></trkpt><trkpt lat="44.4309223" lon="9.9952339"><ele>1113.4</ele><time>2026-03-22T09:53:08.229Z</time></trkpt><trkpt lat="44.430903" lon="9.9951274"><ele>1112.6</ele><time>2026-03-22T09:53:09.228Z</time></trkpt><trkpt lat="44.4309133" lon="9.9950398"><ele>1111.8</ele><time>2026-03-22T09:53:10.227Z</time></trkpt><trkpt lat="44.430995" lon="9.9949368"><ele>1111.0</ele><time>2026-03-22T09:53:12.229Z</time></trkpt><trkpt lat="44.4311006" lon="9.9950173"><ele>1111.0</ele><time>2026-03-22T09:53:14.232Z</time></trkpt><trkpt lat="44.4311371" lon="9.9951247"><ele>1111.0</ele><time>2026-03-22T09:53:15.228Z</time></trkpt><trkpt lat="44.4311743" lon="9.9952562"><ele>1111.0</ele><time>2026-03-22T09:53:16.224Z</time></trkpt><trkpt lat="44.4312289" lon="9.9954183"><ele>1111.0</ele><time>2026-03-22T09:53:17.219Z</time></trkpt><trkpt lat="44.4312888" lon="9.9955842"><ele>1111.0</ele><time>2026-03-22T09:53:18.226Z</time></trkpt><trkpt lat="44.4313411" lon="9.9957401"><ele>1107.8</ele><time>2026-03-22T09:53:19.226Z</time></trkpt><trkpt lat="44.4313859" lon="9.9958812"><ele>1104.6</ele><time>2026-03-22T09:53:20.223Z</time></trkpt><trkpt lat="44.4314275" lon="9.9960224"><ele>1101.4</ele><time>2026-03-22T09:53:21.229Z</time></trkpt><trkpt lat="44.4314707" lon="9.9961569"><ele>1098.2</ele><time>2026-03-22T09:53:22.229Z</time></trkpt><trkpt lat="44.4315217" lon="9.9962801"><ele>1095.0</ele><time>2026-03-22T09:53:23.229Z</time></trkpt><trkpt lat="44.4315802" lon="9.9963856"><ele>1095.0</ele><time>2026-03-22T09:53:24.229Z</time></trkpt><trkpt lat="44.4316617" lon="9.9964667"><ele>1095.0</ele><time>2026-03-22T09:53:25.229Z</time></trkpt><trkpt lat="44.4317529" lon="9.9965338"><ele>1095.0</ele><time>2026-03-22T09:53:26.23Z</time></trkpt><trkpt lat="44.4318466" lon="9.9965808"><ele>1095.0</ele><time>2026-03-22T09:53:27.224Z</time></trkpt><trkpt lat="44.4319346" lon="9.9966306"><ele>1095.0</ele><time>2026-03-22T09:53:28.224Z</time></trkpt><trkpt lat="44.4320191" lon="9.9966995"><ele>1096.8</ele><time>2026-03-22T09:53:29.233Z</time></trkpt><trkpt lat="44.4320766" lon="9.9967828"><ele>1098.6</ele><time>2026-03-22T09:53:30.234Z</time></trkpt><trkpt lat="44.4321398" lon="9.996851"><ele>1100.4</ele><time>2026-03-22T09:53:31.227Z</time></trkpt><trkpt lat="44.4322257" lon="9.9969009"><ele>1102.2</ele><time>2026-03-22T09:53:32.227Z</time></trkpt><trkpt lat="44.432332" lon="9.9969332"><ele>1104.0</ele><time>2026-03-22T09:53:33.228Z</time></trkpt><trkpt lat="44.4324506" lon="9.9969383"><ele>1104.0</ele><time>2026-03-22T09:53:34.229Z</time></trkpt><trkpt lat="44.4325709" lon="9.9969295"><ele>1104.0</ele><time>2026-03-22T09:53:35.233Z</time></trkpt><trkpt lat="44.4326828" lon="9.9969367"><ele>1104.0</ele><time>2026-03-22T09:53:36.225Z</time></trkpt><trkpt lat="44.4327894" lon="9.9969594"><ele>1104.0</ele><time>2026-03-22T09:53:37.225Z</time></trkpt><trkpt lat="44.432899" lon="9.9970113"><ele>1100.6000000000001</ele><time>2026-03-22T09:53:38.222Z</time></trkpt><trkpt lat="44.4329972" lon="9.9970734"><ele>1097.2</ele><time>2026-03-22T09:53:39.232Z</time></trkpt><trkpt lat="44.4330889" lon="9.9971304"><ele>1093.8000000000002</ele><time>2026-03-22T09:53:40.224Z</time></trkpt><trkpt lat="44.4331697" lon="9.9971777"><ele>1090.4</ele><time>2026-03-22T09:53:41.22Z</time></trkpt><trkpt lat="44.4332408" lon="9.9971846"><ele>1087.0</ele><time>2026-03-22T09:53:42.23Z</time></trkpt><trkpt lat="44.4333488" lon="9.9971178"><ele>1087.0</ele><time>2026-03-22T09:53:44.227Z</time></trkpt><trkpt lat="44.4334035" lon="9.9969568"><ele>1087.0</ele><time>2026-03-22T09:53:46.225Z</time></trkpt><trkpt lat="44.4333963" lon="9.9968592"><ele>1087.0</ele><time>2026-03-22T09:53:47.223Z</time></trkpt><trkpt lat="44.433364" lon="9.9967759"><ele>1087.0</ele><time>2026-03-22T09:53:48.228Z</time></trkpt><trkpt lat="44.4332976" lon="9.9966925"><ele>1087.0</ele><time>2026-03-22T09:53:49.228Z</time></trkpt><trkpt lat="44.4332156" lon="9.9966236"><ele>1086.25</ele><time>2026-03-22T09:53:50.227Z</time></trkpt><trkpt lat="44.4331144" lon="9.9965492"><ele>1085.5</ele><time>2026-03-22T09:53:51.226Z</time></trkpt><trkpt lat="44.4329888" lon="9.9964542"><ele>1084.75</ele><time>2026-03-22T09:53:52.227Z</time></trkpt><trkpt lat="44.4328696" lon="9.9963617"><ele>1084.0</ele><time>2026-03-22T09:53:53.221Z</time></trkpt><trkpt lat="44.4327632" lon="9.9962559"><ele>1084.0</ele><time>2026-03-22T09:53:54.23Z</time></trkpt><trkpt lat="44.4326661" lon="9.9961463"><ele>1084.0</ele><time>2026-03-22T09:53:55.228Z</time></trkpt><trkpt lat="44.4325868" lon="9.9960424"><ele>1084.0</ele><time>2026-03-22T09:53:56.234Z</time></trkpt><trkpt lat="44.4325122" lon="9.9959367"><ele>1084.0</ele><time>2026-03-22T09:53:57.235Z</time></trkpt><trkpt lat="44.4324475" lon="9.9958299"><ele>1084.0</ele><time>2026-03-22T09:53:58.232Z</time></trkpt><trkpt lat="44.432381" lon="9.9957166"><ele>1081.2</ele><time>2026-03-22T09:53:59.233Z</time></trkpt><trkpt lat="44.432316" lon="9.9956053"><ele>1078.4</ele><time>2026-03-22T09:54:00.238Z</time></trkpt><trkpt lat="44.4322496" lon="9.9954911"><ele>1075.6</ele><time>2026-03-22T09:54:01.227Z</time></trkpt><trkpt lat="44.4321946" lon="9.9953796"><ele>1072.8</ele><time>2026-03-22T09:54:02.231Z</time></trkpt><trkpt lat="44.4321637" lon="9.9952676"><ele>1070.0</ele><time>2026-03-22T09:54:03.231Z</time></trkpt><trkpt lat="44.4321616" lon="9.995155"><ele>1070.0</ele><time>2026-03-22T09:54:04.23Z</time></trkpt><trkpt lat="44.4321781" lon="9.9950399"><ele>1070.0</ele><time>2026-03-22T09:54:05.234Z</time></trkpt><trkpt lat="44.4322191" lon="9.9949226"><ele>1070.0</ele><time>2026-03-22T09:54:06.233Z</time></trkpt><trkpt lat="44.4322829" lon="9.9947884"><ele>1070.0</ele><time>2026-03-22T09:54:07.237Z</time></trkpt><trkpt lat="44.4323457" lon="9.9946379"><ele>1070.0</ele><time>2026-03-22T09:54:08.232Z</time></trkpt><trkpt lat="44.4324044" lon="9.9944822"><ele>1068.25</ele><time>2026-03-22T09:54:09.235Z</time></trkpt><trkpt lat="44.4324723" lon="9.9943297"><ele>1066.5</ele><time>2026-03-22T09:54:10.227Z</time></trkpt><trkpt lat="44.4325397" lon="9.9941803"><ele>1064.75</ele><time>2026-03-22T09:54:11.232Z</time></trkpt><trkpt lat="44.4326097" lon="9.9940452"><ele>1063.0</ele><time>2026-03-22T09:54:12.231Z</time></trkpt><trkpt lat="44.4326784" lon="9.9939049"><ele>1063.0</ele><time>2026-03-22T09:54:13.23Z</time></trkpt><trkpt lat="44.4327504" lon="9.9937714"><ele>1063.0</ele><time>2026-03-22T09:54:14.228Z</time></trkpt><trkpt lat="44.4328173" lon="9.9936397"><ele>1063.0</ele><time>2026-03-22T09:54:15.231Z</time></trkpt><trkpt lat="44.4328702" lon="9.9935137"><ele>1063.0</ele><time>2026-03-22T09:54:16.234Z</time></trkpt><trkpt lat="44.4329027" lon="9.9934086"><ele>1063.0</ele><time>2026-03-22T09:54:17.226Z</time></trkpt><trkpt lat="44.4329307" lon="9.9933137"><ele>1063.8333333333333</ele><time>2026-03-22T09:54:18.239Z</time></trkpt><trkpt lat="44.4329365" lon="9.993217"><ele>1064.6666666666665</ele><time>2026-03-22T09:54:19.242Z</time></trkpt><trkpt lat="44.4329326" lon="9.993112"><ele>1065.5</ele><time>2026-03-22T09:54:20.24Z</time></trkpt><trkpt lat="44.4329142" lon="9.99301"><ele>1066.3333333333333</ele><time>2026-03-22T09:54:21.24Z</time></trkpt><trkpt lat="44.4328778" lon="9.9929105"><ele>1067.1666666666667</ele><time>2026-03-22T09:54:22.243Z</time></trkpt><trkpt lat="44.4328344" lon="9.9928132"><ele>1068.0</ele><time>2026-03-22T09:54:23.243Z</time></trkpt><trkpt lat="44.4327937" lon="9.9926905"><ele>1068.0</ele><time>2026-03-22T09:54:24.241Z</time></trkpt><trkpt lat="44.4327594" lon="9.9925466"><ele>1068.0</ele><time>2026-03-22T09:54:25.245Z</time></trkpt><trkpt lat="44.4327438" lon="9.992416"><ele>1068.0</ele><time>2026-03-22T09:54:26.23Z</time></trkpt><trkpt lat="44.4327416" lon="9.9923096"><ele>1068.0</ele><time>2026-03-22T09:54:27.238Z</time></trkpt><trkpt lat="44.4327649" lon="9.9922038"><ele>1068.0</ele><time>2026-03-22T09:54:28.236Z</time></trkpt><trkpt lat="44.432806" lon="9.9920944"><ele>1068.0</ele><time>2026-03-22T09:54:29.228Z</time></trkpt><trkpt lat="44.4328645" lon="9.9919748"><ele>1067.2</ele><time>2026-03-22T09:54:30.234Z</time></trkpt><trkpt lat="44.4329327" lon="9.9918741"><ele>1066.4</ele><time>2026-03-22T09:54:31.232Z</time></trkpt><trkpt lat="44.4329902" lon="9.9917797"><ele>1065.6000000000001</ele><time>2026-03-22T09:54:32.223Z</time></trkpt><trkpt lat="44.4330645" lon="9.9916851"><ele>1064.8</ele><time>2026-03-22T09:54:33.232Z</time></trkpt><trkpt lat="44.4331318" lon="9.9915626"><ele>1064.0</ele><time>2026-03-22T09:54:34.231Z</time></trkpt><trkpt lat="44.4332103" lon="9.9914411"><ele>1058.0</ele><time>2026-03-22T09:54:35.225Z</time></trkpt><trkpt lat="44.4332795" lon="9.991327"><ele>1052.0</ele><time>2026-03-22T09:54:36.233Z</time></trkpt><trkpt lat="44.4333381" lon="9.9912213"><ele>1046.0</ele><time>2026-03-22T09:54:37.232Z</time></trkpt><trkpt lat="44.4333688" lon="9.9911245"><ele>1040.0</ele><time>2026-03-22T09:54:38.231Z</time></trkpt><trkpt lat="44.4333891" lon="9.9910305"><ele>1034.0</ele><time>2026-03-22T09:54:39.243Z</time></trkpt><trkpt lat="44.4334434" lon="9.9908822"><ele>1034.0</ele><time>2026-03-22T09:54:41.236Z</time></trkpt><trkpt lat="44.4335585" lon="9.9908538"><ele>1034.0</ele><time>2026-03-22T09:54:43.238Z</time></trkpt><trkpt lat="44.4336576" lon="9.9909669"><ele>1034.0</ele><time>2026-03-22T09:54:45.233Z</time></trkpt><trkpt lat="44.4336811" lon="9.9910585"><ele>1034.0</ele><time>2026-03-22T09:54:46.238Z</time></trkpt><trkpt lat="44.4336643" lon="9.9911478"><ele>1034.0</ele><time>2026-03-22T09:54:47.227Z</time></trkpt><trkpt lat="44.4336229" lon="9.9912345"><ele>1034.0</ele><time>2026-03-22T09:54:48.227Z</time></trkpt><trkpt lat="44.4335628" lon="9.9913161"><ele>1034.0</ele><time>2026-03-22T09:54:49.226Z</time></trkpt><trkpt lat="44.4334837" lon="9.9914023"><ele>1034.0</ele><time>2026-03-22T09:54:50.232Z</time></trkpt><trkpt lat="44.4333904" lon="9.9915195"><ele>1034.0</ele><time>2026-03-22T09:54:51.229Z</time></trkpt><trkpt lat="44.4333098" lon="9.9916498"><ele>1034.0</ele><time>2026-03-22T09:54:52.234Z</time></trkpt><trkpt lat="44.4332566" lon="9.9917776"><ele>1032.5</ele><time>2026-03-22T09:54:53.228Z</time></trkpt><trkpt lat="44.4332155" lon="9.9918968"><ele>1031.0</ele><time>2026-03-22T09:54:54.225Z</time></trkpt><trkpt lat="44.4331877" lon="9.99201"><ele>1029.5</ele><time>2026-03-22T09:54:55.23Z</time></trkpt><trkpt lat="44.4331707" lon="9.9921141"><ele>1028.0</ele><time>2026-03-22T09:54:56.232Z</time></trkpt><trkpt lat="44.4331681" lon="9.9922263"><ele>1026.5</ele><time>2026-03-22T09:54:57.229Z</time></trkpt><trkpt lat="44.4331654" lon="9.9923375"><ele>1025.0</ele><time>2026-03-22T09:54:58.232Z</time></trkpt><trkpt lat="44.4331644" lon="9.9924583"><ele>1025.8</ele><time>2026-03-22T09:54:59.232Z</time></trkpt><trkpt lat="44.4331667" lon="9.9925863"><ele>1026.6</ele><time>2026-03-22T09:55:00.234Z</time></trkpt><trkpt lat="44.4331802" lon="9.9927134"><ele>1027.4</ele><time>2026-03-22T09:55:01.229Z</time></trkpt><trkpt lat="44.433201" lon="9.992837"><ele>1028.2</ele><time>2026-03-22T09:55:02.228Z</time></trkpt><trkpt lat="44.4332417" lon="9.9929509"><ele>1029.0</ele><time>2026-03-22T09:55:03.237Z</time></trkpt><trkpt lat="44.4332896" lon="9.9930581"><ele>1029.0</ele><time>2026-03-22T09:55:04.234Z</time></trkpt><trkpt lat="44.4333535" lon="9.9931482"><ele>1029.0</ele><time>2026-03-22T09:55:05.24Z</time></trkpt><trkpt lat="44.433431" lon="9.9932374"><ele>1029.0</ele><time>2026-03-22T09:55:06.236Z</time></trkpt><trkpt lat="44.4335392" lon="9.993323"><ele>1029.0</ele><time>2026-03-22T09:55:07.244Z</time></trkpt><trkpt lat="44.4336436" lon="9.993409"><ele>1029.0</ele><time>2026-03-22T09:55:08.242Z</time></trkpt><trkpt lat="44.4337261" lon="9.9935001"><ele>1030.8</ele><time>2026-03-22T09:55:09.245Z</time></trkpt><trkpt lat="44.4337929" lon="9.9936032"><ele>1032.6000000000001</ele><time>2026-03-22T09:55:10.245Z</time></trkpt><trkpt lat="44.4338496" lon="9.9937077"><ele>1034.4</ele><time>2026-03-22T09:55:11.243Z</time></trkpt><trkpt lat="44.4339015" lon="9.9938047"><ele>1036.2</ele><time>2026-03-22T09:55:12.248Z</time></trkpt><trkpt lat="44.4339552" lon="9.9938808"><ele>1038.0</ele><time>2026-03-22T09:55:13.235Z</time></trkpt><trkpt lat="44.4340632" lon="9.9939674"><ele>1033.8333333333333</ele><time>2026-03-22T09:55:15.244Z</time></trkpt><trkpt lat="44.4341288" lon="9.9939783"><ele>1029.6666666666667</ele><time>2026-03-22T09:55:16.237Z</time></trkpt><trkpt lat="44.4342239" lon="9.993874"><ele>1025.5</ele><time>2026-03-22T09:55:18.245Z</time></trkpt><trkpt lat="44.4342522" lon="9.9937827"><ele>1021.3333333333334</ele><time>2026-03-22T09:55:19.242Z</time></trkpt><trkpt lat="44.4342611" lon="9.9936791"><ele>1017.1666666666667</ele><time>2026-03-22T09:55:20.24Z</time></trkpt><trkpt lat="44.4342438" lon="9.9935744"><ele>1013.0</ele><time>2026-03-22T09:55:21.242Z</time></trkpt><trkpt lat="44.4341997" lon="9.9934663"><ele>1013.0</ele><time>2026-03-22T09:55:22.24Z</time></trkpt><trkpt lat="44.4341277" lon="9.9933501"><ele>1013.0</ele><time>2026-03-22T09:55:23.242Z</time></trkpt><trkpt lat="44.4340339" lon="9.9932182"><ele>1013.0</ele><time>2026-03-22T09:55:24.244Z</time></trkpt><trkpt lat="44.4339396" lon="9.9930908"><ele>1013.0</ele><time>2026-03-22T09:55:25.241Z</time></trkpt><trkpt lat="44.4338499" lon="9.9929735"><ele>1015.4</ele><time>2026-03-22T09:55:26.239Z</time></trkpt><trkpt lat="44.433773" lon="9.9928718"><ele>1017.8</ele><time>2026-03-22T09:55:27.241Z</time></trkpt><trkpt lat="44.4337123" lon="9.9927661"><ele>1020.2</ele><time>2026-03-22T09:55:28.243Z</time></trkpt><trkpt lat="44.4336858" lon="9.9926431"><ele>1022.6</ele><time>2026-03-22T09:55:29.232Z</time></trkpt><trkpt lat="44.4336907" lon="9.9925241"><ele>1025.0</ele><time>2026-03-22T09:55:30.228Z</time></trkpt><trkpt lat="44.4337182" lon="9.9924165"><ele>1025.0</ele><time>2026-03-22T09:55:31.235Z</time></trkpt><trkpt lat="44.4337673" lon="9.9923185"><ele>1025.0</ele><time>2026-03-22T09:55:32.229Z</time></trkpt><trkpt lat="44.43383" lon="9.9922049"><ele>1025.0</ele><time>2026-03-22T09:55:33.239Z</time></trkpt><trkpt lat="44.4339043" lon="9.9920884"><ele>1025.0</ele><time>2026-03-22T09:55:34.241Z</time></trkpt><trkpt lat="44.4339812" lon="9.9919664"><ele>1025.0</ele><time>2026-03-22T09:55:35.24Z</time></trkpt><trkpt lat="44.4340536" lon="9.9918427"><ele>1020.6</ele><time>2026-03-22T09:55:36.232Z</time></trkpt><trkpt lat="44.4341273" lon="9.9917246"><ele>1016.2</ele><time>2026-03-22T09:55:37.239Z</time></trkpt><trkpt lat="44.4341989" lon="9.9916192"><ele>1011.8</ele><time>2026-03-22T09:55:38.239Z</time></trkpt><trkpt lat="44.4342628" lon="9.99151"><ele>1007.4</ele><time>2026-03-22T09:55:39.234Z</time></trkpt><trkpt lat="44.434316" lon="9.9914145"><ele>1003.0</ele><time>2026-03-22T09:55:40.24Z</time></trkpt><trkpt lat="44.4343595" lon="9.9913324"><ele>1002.9999999999999</ele><time>2026-03-22T09:55:41.237Z</time></trkpt><trkpt lat="44.4344101" lon="9.9912575"><ele>1003.0</ele><time>2026-03-22T09:55:42.236Z</time></trkpt><trkpt lat="44.4344478" lon="9.9911714"><ele>1003.0</ele><time>2026-03-22T09:55:43.233Z</time></trkpt><trkpt lat="44.4344519" lon="9.9910683"><ele>1003.0</ele><time>2026-03-22T09:55:44.242Z</time></trkpt><trkpt lat="44.4344417" lon="9.9909526"><ele>1002.9999999999999</ele><time>2026-03-22T09:55:45.236Z</time></trkpt><trkpt lat="44.4344031" lon="9.9908254"><ele>1003.0</ele><time>2026-03-22T09:55:46.236Z</time></trkpt><trkpt lat="44.4343615" lon="9.9907096"><ele>1002.4999999999999</ele><time>2026-03-22T09:55:47.237Z</time></trkpt><trkpt lat="44.4343349" lon="9.9905908"><ele>1002.0</ele><time>2026-03-22T09:55:48.24Z</time></trkpt><trkpt lat="44.4343307" lon="9.9904671"><ele>1001.5</ele><time>2026-03-22T09:55:49.241Z</time></trkpt><trkpt lat="44.4343645" lon="9.9903637"><ele>1001.0</ele><time>2026-03-22T09:55:50.238Z</time></trkpt><trkpt lat="44.4344205" lon="9.9902634"><ele>1000.4999999999999</ele><time>2026-03-22T09:55:51.247Z</time></trkpt><trkpt lat="44.4344569" lon="9.9901641"><ele>1000.0</ele><time>2026-03-22T09:55:52.244Z</time></trkpt><trkpt lat="44.4344581" lon="9.9900501"><ele>997.4</ele><time>2026-03-22T09:55:53.243Z</time></trkpt><trkpt lat="44.434422" lon="9.9899421"><ele>994.8</ele><time>2026-03-22T09:55:54.254Z</time></trkpt><trkpt lat="44.4343538" lon="9.9898617"><ele>992.2</ele><time>2026-03-22T09:55:55.249Z</time></trkpt><trkpt lat="44.4342592" lon="9.9898118"><ele>989.6</ele><time>2026-03-22T09:55:56.239Z</time></trkpt><trkpt lat="44.434148" lon="9.9897847"><ele>987.0</ele><time>2026-03-22T09:55:57.244Z</time></trkpt><trkpt lat="44.4340366" lon="9.9897483"><ele>987.0</ele><time>2026-03-22T09:55:58.243Z</time></trkpt><trkpt lat="44.4339395" lon="9.9896646"><ele>987.0</ele><time>2026-03-22T09:55:59.233Z</time></trkpt><trkpt lat="44.4338485" lon="9.9895558"><ele>987.0</ele><time>2026-03-22T09:56:00.244Z</time></trkpt><trkpt lat="44.4337658" lon="9.9894173"><ele>987.0</ele><time>2026-03-22T09:56:01.233Z</time></trkpt><trkpt lat="44.4336906" lon="9.9892919"><ele>986.4000000000001</ele><time>2026-03-22T09:56:02.239Z</time></trkpt><trkpt lat="44.4336115" lon="9.9891913"><ele>985.8000000000001</ele><time>2026-03-22T09:56:03.235Z</time></trkpt><trkpt lat="44.4335257" lon="9.9891047"><ele>985.2</ele><time>2026-03-22T09:56:04.234Z</time></trkpt><trkpt lat="44.4334342" lon="9.9890299"><ele>984.6</ele><time>2026-03-22T09:56:05.236Z</time></trkpt><trkpt lat="44.4333414" lon="9.9889484"><ele>984.0</ele><time>2026-03-22T09:56:06.227Z</time></trkpt><trkpt lat="44.4332433" lon="9.9888467"><ele>984.0</ele><time>2026-03-22T09:56:07.24Z</time></trkpt><trkpt lat="44.4331476" lon="9.9887239"><ele>984.0</ele><time>2026-03-22T09:56:08.242Z</time></trkpt><trkpt lat="44.4330523" lon="9.9886048"><ele>984.0</ele><time>2026-03-22T09:56:09.238Z</time></trkpt><trkpt lat="44.4329562" lon="9.9884795"><ele>984.0</ele><time>2026-03-22T09:56:10.23Z</time></trkpt><trkpt lat="44.432867" lon="9.988367"><ele>983.8000000000001</ele><time>2026-03-22T09:56:11.239Z</time></trkpt><trkpt lat="44.4327895" lon="9.9882662"><ele>983.6000000000001</ele><time>2026-03-22T09:56:12.239Z</time></trkpt><trkpt lat="44.4327091" lon="9.9881798"><ele>983.4</ele><time>2026-03-22T09:56:13.232Z</time></trkpt><trkpt lat="44.4326201" lon="9.9881019"><ele>983.2</ele><time>2026-03-22T09:56:14.237Z</time></trkpt><trkpt lat="44.4325251" lon="9.988039"><ele>983.0</ele><time>2026-03-22T09:56:15.234Z</time></trkpt><trkpt lat="44.4324306" lon="9.9879966"><ele>983.0000000000001</ele><time>2026-03-22T09:56:16.233Z</time></trkpt><trkpt lat="44.4323502" lon="9.9879405"><ele>983.0</ele><time>2026-03-22T09:56:17.229Z</time></trkpt><trkpt lat="44.4322878" lon="9.9878603"><ele>983.0</ele><time>2026-03-22T09:56:18.236Z</time></trkpt><trkpt lat="44.4322486" lon="9.9877637"><ele>983.0</ele><time>2026-03-22T09:56:19.236Z</time></trkpt><trkpt lat="44.4322338" lon="9.9876399"><ele>983.0000000000001</ele><time>2026-03-22T09:56:20.234Z</time></trkpt><trkpt lat="44.4322237" lon="9.9875069"><ele>983.0</ele><time>2026-03-22T09:56:21.239Z</time></trkpt><trkpt lat="44.4322049" lon="9.9873556"><ele>986.75</ele><time>2026-03-22T09:56:22.316Z</time></trkpt><trkpt lat="44.4321614" lon="9.9872275"><ele>990.5</ele><time>2026-03-22T09:56:23.228Z</time></trkpt><trkpt lat="44.432088" lon="9.9870884"><ele>994.25</ele><time>2026-03-22T09:56:24.244Z</time></trkpt><trkpt lat="44.4319981" lon="9.9869497"><ele>998.0</ele><time>2026-03-22T09:56:25.242Z</time></trkpt><trkpt lat="44.4319166" lon="9.9868361"><ele>998.0000000000001</ele><time>2026-03-22T09:56:26.233Z</time></trkpt><trkpt lat="44.4318565" lon="9.9867357"><ele>998.0</ele><time>2026-03-22T09:56:27.234Z</time></trkpt><trkpt lat="44.4318128" lon="9.986633"><ele>998.0</ele><time>2026-03-22T09:56:28.235Z</time></trkpt><trkpt lat="44.4317969" lon="9.9865314"><ele>998.0</ele><time>2026-03-22T09:56:29.236Z</time></trkpt><trkpt lat="44.4318041" lon="9.9864049"><ele>998.0000000000001</ele><time>2026-03-22T09:56:30.229Z</time></trkpt><trkpt lat="44.4318424" lon="9.9862985"><ele>998.0</ele><time>2026-03-22T09:56:31.231Z</time></trkpt><trkpt lat="44.431901" lon="9.9862075"><ele>994.5999999999999</ele><time>2026-03-22T09:56:32.222Z</time></trkpt><trkpt lat="44.4319717" lon="9.9861345"><ele>991.1999999999999</ele><time>2026-03-22T09:56:33.224Z</time></trkpt><trkpt lat="44.4320469" lon="9.9860768"><ele>987.8</ele><time>2026-03-22T09:56:34.229Z</time></trkpt><trkpt lat="44.4321425" lon="9.9860388"><ele>984.4</ele><time>2026-03-22T09:56:35.229Z</time></trkpt><trkpt lat="44.4322358" lon="9.986007"><ele>981.0</ele><time>2026-03-22T09:56:36.223Z</time></trkpt><trkpt lat="44.4323118" lon="9.9859639"><ele>975.0</ele><time>2026-03-22T09:56:37.238Z</time></trkpt><trkpt lat="44.4323819" lon="9.9858985"><ele>968.9999999999999</ele><time>2026-03-22T09:56:38.235Z</time></trkpt><trkpt lat="44.4324244" lon="9.9857802"><ele>962.9999999999999</ele><time>2026-03-22T09:56:39.235Z</time></trkpt><trkpt lat="44.4324369" lon="9.9856479"><ele>957.0</ele><time>2026-03-22T09:56:40.244Z</time></trkpt><trkpt lat="44.4324225" lon="9.9855167"><ele>951.0</ele><time>2026-03-22T09:56:41.24Z</time></trkpt><trkpt lat="44.4323838" lon="9.9853848"><ele>951.0</ele><time>2026-03-22T09:56:42.242Z</time></trkpt><trkpt lat="44.4323262" lon="9.98524"><ele>950.9999999999999</ele><time>2026-03-22T09:56:43.241Z</time></trkpt><trkpt lat="44.432266" lon="9.9850953"><ele>950.9999999999999</ele><time>2026-03-22T09:56:44.24Z</time></trkpt><trkpt lat="44.4322098" lon="9.9849645"><ele>951.0</ele><time>2026-03-22T09:56:45.235Z</time></trkpt><trkpt lat="44.4321716" lon="9.9848476"><ele>951.0</ele><time>2026-03-22T09:56:46.232Z</time></trkpt><trkpt lat="44.4321613" lon="9.9847289"><ele>950.8</ele><time>2026-03-22T09:56:47.239Z</time></trkpt><trkpt lat="44.432186" lon="9.9846061"><ele>950.5999999999999</ele><time>2026-03-22T09:56:48.249Z</time></trkpt><trkpt lat="44.4322301" lon="9.9845033"><ele>950.4</ele><time>2026-03-22T09:56:49.238Z</time></trkpt><trkpt lat="44.4322826" lon="9.9844029"><ele>950.2</ele><time>2026-03-22T09:56:50.225Z</time></trkpt><trkpt lat="44.4323418" lon="9.9842968"><ele>950.0</ele><time>2026-03-22T09:56:51.247Z</time></trkpt><trkpt lat="44.432378" lon="9.9841703"><ele>949.0</ele><time>2026-03-22T09:56:52.233Z</time></trkpt><trkpt lat="44.4323784" lon="9.9840149"><ele>948.0</ele><time>2026-03-22T09:56:53.233Z</time></trkpt><trkpt lat="44.4323574" lon="9.9838646"><ele>947.0</ele><time>2026-03-22T09:56:54.24Z</time></trkpt><trkpt lat="44.4323138" lon="9.9837151"><ele>946.0</ele><time>2026-03-22T09:56:55.243Z</time></trkpt><trkpt lat="44.4322459" lon="9.9835704"><ele>945.9999999999999</ele><time>2026-03-22T09:56:56.238Z</time></trkpt><trkpt lat="44.4321896" lon="9.9834347"><ele>946.0</ele><time>2026-03-22T09:56:57.238Z</time></trkpt><trkpt lat="44.4321609" lon="9.9833127"><ele>946.0</ele><time>2026-03-22T09:56:58.237Z</time></trkpt><trkpt lat="44.4321623" lon="9.9831974"><ele>946.0</ele><time>2026-03-22T09:56:59.237Z</time></trkpt><trkpt lat="44.432188" lon="9.9830974"><ele>945.9999999999999</ele><time>2026-03-22T09:57:00.236Z</time></trkpt><trkpt lat="44.4322436" lon="9.9830194"><ele>946.0</ele><time>2026-03-22T09:57:01.232Z</time></trkpt><trkpt lat="44.4323178" lon="9.9829458"><ele>945.4999999999999</ele><time>2026-03-22T09:57:02.23Z</time></trkpt><trkpt lat="44.4323977" lon="9.9828745"><ele>945.0</ele><time>2026-03-22T09:57:03.232Z</time></trkpt><trkpt lat="44.4324574" lon="9.9827943"><ele>944.5</ele><time>2026-03-22T09:57:04.23Z</time></trkpt><trkpt lat="44.4324886" lon="9.9826919"><ele>944.0</ele><time>2026-03-22T09:57:05.236Z</time></trkpt><trkpt lat="44.4324941" lon="9.9825836"><ele>943.4999999999999</ele><time>2026-03-22T09:57:06.241Z</time></trkpt><trkpt lat="44.4324651" lon="9.9824661"><ele>943.0</ele><time>2026-03-22T09:57:07.238Z</time></trkpt><trkpt lat="44.4324052" lon="9.9823491"><ele>940.5</ele><time>2026-03-22T09:57:08.238Z</time></trkpt><trkpt lat="44.4323356" lon="9.9822171"><ele>938.0</ele><time>2026-03-22T09:57:09.235Z</time></trkpt><trkpt lat="44.4322791" lon="9.9820804"><ele>935.5</ele><time>2026-03-22T09:57:10.233Z</time></trkpt><trkpt lat="44.4322248" lon="9.9819508"><ele>933.0</ele><time>2026-03-22T09:57:11.237Z</time></trkpt><trkpt lat="44.4321427" lon="9.9818322"><ele>939.0</ele><time>2026-03-22T09:57:12.257Z</time></trkpt><trkpt lat="44.4320459" lon="9.9817235"><ele>945.0</ele><time>2026-03-22T09:57:13.227Z</time></trkpt><trkpt lat="44.4319641" lon="9.9816392"><ele>951.0</ele><time>2026-03-22T09:57:14.234Z</time></trkpt><trkpt lat="44.4319017" lon="9.981542"><ele>957.0</ele><time>2026-03-22T09:57:15.226Z</time></trkpt><trkpt lat="44.4318527" lon="9.9814367"><ele>963.0</ele><time>2026-03-22T09:57:16.238Z</time></trkpt><trkpt lat="44.4318383" lon="9.9813234"><ele>963.0</ele><time>2026-03-22T09:57:17.234Z</time></trkpt><trkpt lat="44.4318524" lon="9.9812011"><ele>963.0</ele><time>2026-03-22T09:57:18.242Z</time></trkpt><trkpt lat="44.4318651" lon="9.9810692"><ele>963.0</ele><time>2026-03-22T09:57:19.234Z</time></trkpt><trkpt lat="44.4319063" lon="9.9809388"><ele>963.0</ele><time>2026-03-22T09:57:20.239Z</time></trkpt><trkpt lat="44.4319454" lon="9.9808045"><ele>963.0</ele><time>2026-03-22T09:57:21.237Z</time></trkpt><trkpt lat="44.4319643" lon="9.9806628"><ele>960.0</ele><time>2026-03-22T09:57:22.239Z</time></trkpt><trkpt lat="44.4319646" lon="9.9805077"><ele>957.0</ele><time>2026-03-22T09:57:23.246Z</time></trkpt><trkpt lat="44.4319514" lon="9.9803504"><ele>954.0</ele><time>2026-03-22T09:57:24.248Z</time></trkpt><trkpt lat="44.4319347" lon="9.9802071"><ele>951.0</ele><time>2026-03-22T09:57:25.239Z</time></trkpt><trkpt lat="44.4319232" lon="9.9800806"><ele>948.0</ele><time>2026-03-22T09:57:26.245Z</time></trkpt><trkpt lat="44.4318969" lon="9.9799658"><ele>945.0</ele><time>2026-03-22T09:57:27.253Z</time></trkpt><trkpt lat="44.4318491" lon="9.979866"><ele>942.0</ele><time>2026-03-22T09:57:28.246Z</time></trkpt><trkpt lat="44.4317752" lon="9.9797785"><ele>939.0</ele><time>2026-03-22T09:57:29.245Z</time></trkpt><trkpt lat="44.4316726" lon="9.979709"><ele>936.0</ele><time>2026-03-22T09:57:30.244Z</time></trkpt><trkpt lat="44.4315751" lon="9.979613"><ele>933.0</ele><time>2026-03-22T09:57:31.247Z</time></trkpt><trkpt lat="44.431509" lon="9.9794814"><ele>933.0</ele><time>2026-03-22T09:57:32.243Z</time></trkpt><trkpt lat="44.4314534" lon="9.979347"><ele>933.0</ele><time>2026-03-22T09:57:33.232Z</time></trkpt><trkpt lat="44.431397" lon="9.9792218"><ele>933.0</ele><time>2026-03-22T09:57:34.242Z</time></trkpt><trkpt lat="44.4313279" lon="9.9791232"><ele>933.0</ele><time>2026-03-22T09:57:35.231Z</time></trkpt><trkpt lat="44.4312486" lon="9.9790482"><ele>933.0</ele><time>2026-03-22T09:57:36.237Z</time></trkpt><trkpt lat="44.4311609" lon="9.9789856"><ele>931.8</ele><time>2026-03-22T09:57:37.24Z</time></trkpt><trkpt lat="44.4310729" lon="9.9789363"><ele>930.5999999999999</ele><time>2026-03-22T09:57:38.236Z</time></trkpt><trkpt lat="44.4309865" lon="9.9788862"><ele>929.4000000000001</ele><time>2026-03-22T09:57:39.235Z</time></trkpt><trkpt lat="44.4309021" lon="9.9788365"><ele>928.2</ele><time>2026-03-22T09:57:40.238Z</time></trkpt><trkpt lat="44.430816" lon="9.9787881"><ele>927.0</ele><time>2026-03-22T09:57:41.234Z</time></trkpt><trkpt lat="44.4307332" lon="9.9787344"><ele>927.0</ele><time>2026-03-22T09:57:42.237Z</time></trkpt><trkpt lat="44.4306439" lon="9.9786782"><ele>927.0</ele><time>2026-03-22T09:57:43.232Z</time></trkpt><trkpt lat="44.4305552" lon="9.9786277"><ele>927.0</ele><time>2026-03-22T09:57:44.232Z</time></trkpt><trkpt lat="44.4304692" lon="9.9785666"><ele>927.0</ele><time>2026-03-22T09:57:45.229Z</time></trkpt><trkpt lat="44.4304021" lon="9.9785024"><ele>927.0</ele><time>2026-03-22T09:57:46.221Z</time></trkpt><trkpt lat="44.4303554" lon="9.9784239"><ele>927.0</ele><time>2026-03-22T09:57:47.234Z</time></trkpt><trkpt lat="44.430332" lon="9.9783293"><ele>928.2</ele><time>2026-03-22T09:57:48.237Z</time></trkpt><trkpt lat="44.4303219" lon="9.9782283"><ele>929.4000000000001</ele><time>2026-03-22T09:57:49.229Z</time></trkpt><trkpt lat="44.4303534" lon="9.9780684"><ele>930.5999999999999</ele><time>2026-03-22T09:57:51.231Z</time></trkpt><trkpt lat="44.4304126" lon="9.977919"><ele>931.8</ele><time>2026-03-22T09:57:53.233Z</time></trkpt><trkpt lat="44.4304746" lon="9.9778789"><ele>933.0</ele><time>2026-03-22T09:57:54.235Z</time></trkpt><trkpt lat="44.4305496" lon="9.9778533"><ele>929.0</ele><time>2026-03-22T09:57:55.233Z</time></trkpt><trkpt lat="44.4306266" lon="9.977808"><ele>925.0</ele><time>2026-03-22T09:57:56.231Z</time></trkpt><trkpt lat="44.4306985" lon="9.9777461"><ele>921.0</ele><time>2026-03-22T09:57:57.237Z</time></trkpt><trkpt lat="44.4307563" lon="9.9776588"><ele>917.0</ele><time>2026-03-22T09:57:58.228Z</time></trkpt><trkpt lat="44.4307947" lon="9.9775559"><ele>913.0</ele><time>2026-03-22T09:57:59.238Z</time></trkpt><trkpt lat="44.430809" lon="9.9774321"><ele>909.0</ele><time>2026-03-22T09:58:00.241Z</time></trkpt><trkpt lat="44.4308193" lon="9.9772881"><ele>909.0</ele><time>2026-03-22T09:58:01.235Z</time></trkpt><trkpt lat="44.4308393" lon="9.97714"><ele>909.0000000000001</ele><time>2026-03-22T09:58:02.239Z</time></trkpt><trkpt lat="44.4308713" lon="9.976998"><ele>909.0000000000001</ele><time>2026-03-22T09:58:03.235Z</time></trkpt><trkpt lat="44.4309031" lon="9.9768609"><ele>909.0</ele><time>2026-03-22T09:58:04.235Z</time></trkpt><trkpt lat="44.4309374" lon="9.9767277"><ele>909.0</ele><time>2026-03-22T09:58:05.241Z</time></trkpt><trkpt lat="44.4309682" lon="9.9765995"><ele>910.8000000000001</ele><time>2026-03-22T09:58:06.24Z</time></trkpt><trkpt lat="44.4310035" lon="9.9764739"><ele>912.6000000000001</ele><time>2026-03-22T09:58:07.242Z</time></trkpt><trkpt lat="44.4310418" lon="9.9763472"><ele>914.4</ele><time>2026-03-22T09:58:08.242Z</time></trkpt><trkpt lat="44.4310798" lon="9.9762163"><ele>916.2</ele><time>2026-03-22T09:58:09.242Z</time></trkpt><trkpt lat="44.4311353" lon="9.9760737"><ele>918.0</ele><time>2026-03-22T09:58:10.242Z</time></trkpt><trkpt lat="44.4311993" lon="9.9759237"><ele>921.25</ele><time>2026-03-22T09:58:11.242Z</time></trkpt><trkpt lat="44.4312768" lon="9.9757827"><ele>924.5</ele><time>2026-03-22T09:58:12.239Z</time></trkpt><trkpt lat="44.4313688" lon="9.9756501"><ele>927.75</ele><time>2026-03-22T09:58:13.238Z</time></trkpt><trkpt lat="44.4314519" lon="9.9755313"><ele>931.0</ele><time>2026-03-22T09:58:14.242Z</time></trkpt><trkpt lat="44.4315211" lon="9.9754164"><ele>923.4</ele><time>2026-03-22T09:58:15.243Z</time></trkpt><trkpt lat="44.4315707" lon="9.9753041"><ele>915.8</ele><time>2026-03-22T09:58:16.247Z</time></trkpt><trkpt lat="44.4316033" lon="9.9751859"><ele>908.1999999999999</ele><time>2026-03-22T09:58:17.251Z</time></trkpt><trkpt lat="44.4316145" lon="9.9750544"><ele>900.5999999999999</ele><time>2026-03-22T09:58:18.242Z</time></trkpt><trkpt lat="44.4316026" lon="9.9749092"><ele>893.0</ele><time>2026-03-22T09:58:19.242Z</time></trkpt><trkpt lat="44.4315697" lon="9.9747486"><ele>893.0</ele><time>2026-03-22T09:58:20.242Z</time></trkpt><trkpt lat="44.4315277" lon="9.9745901"><ele>893.0</ele><time>2026-03-22T09:58:21.243Z</time></trkpt><trkpt lat="44.4314668" lon="9.9744449"><ele>893.0</ele><time>2026-03-22T09:58:22.243Z</time></trkpt><trkpt lat="44.4313915" lon="9.9743084"><ele>893.0</ele><time>2026-03-22T09:58:23.242Z</time></trkpt><trkpt lat="44.4313197" lon="9.97417"><ele>897.0</ele><time>2026-03-22T09:58:24.239Z</time></trkpt><trkpt lat="44.4312728" lon="9.9740225"><ele>901.0</ele><time>2026-03-22T09:58:25.243Z</time></trkpt><trkpt lat="44.4312358" lon="9.9738724"><ele>905.0</ele><time>2026-03-22T09:58:26.233Z</time></trkpt><trkpt lat="44.431206" lon="9.9737183"><ele>909.0</ele><time>2026-03-22T09:58:27.246Z</time></trkpt><trkpt lat="44.431186" lon="9.9735601"><ele>909.0</ele><time>2026-03-22T09:58:28.247Z</time></trkpt><trkpt lat="44.4311741" lon="9.9734016"><ele>909.0000000000001</ele><time>2026-03-22T09:58:29.248Z</time></trkpt><trkpt lat="44.4311563" lon="9.9732518"><ele>909.0000000000001</ele><time>2026-03-22T09:58:30.241Z</time></trkpt><trkpt lat="44.431135" lon="9.9730993"><ele>909.0</ele><time>2026-03-22T09:58:31.237Z</time></trkpt><trkpt lat="44.4311144" lon="9.9729481"><ele>909.0</ele><time>2026-03-22T09:58:32.24Z</time></trkpt><trkpt lat="44.4310949" lon="9.9727973"><ele>905.2</ele><time>2026-03-22T09:58:33.243Z</time></trkpt><trkpt lat="44.4310713" lon="9.9726499"><ele>901.4000000000001</ele><time>2026-03-22T09:58:34.241Z</time></trkpt><trkpt lat="44.4310514" lon="9.9725037"><ele>897.6</ele><time>2026-03-22T09:58:35.238Z</time></trkpt><trkpt lat="44.4310439" lon="9.9723556"><ele>893.8</ele><time>2026-03-22T09:58:36.239Z</time></trkpt><trkpt lat="44.4310538" lon="9.9722085"><ele>890.0</ele><time>2026-03-22T09:58:37.244Z</time></trkpt><trkpt lat="44.431084" lon="9.9720653"><ele>889.8</ele><time>2026-03-22T09:58:38.236Z</time></trkpt><trkpt lat="44.4311416" lon="9.9719323"><ele>889.6</ele><time>2026-03-22T09:58:39.236Z</time></trkpt><trkpt lat="44.4312213" lon="9.9718206"><ele>889.4000000000001</ele><time>2026-03-22T09:58:40.243Z</time></trkpt><trkpt lat="44.4313041" lon="9.9717477"><ele>889.2</ele><time>2026-03-22T09:58:41.241Z</time></trkpt><trkpt lat="44.431397" lon="9.9717148"><ele>889.0</ele><time>2026-03-22T09:58:42.24Z</time></trkpt><trkpt lat="44.4314906" lon="9.9717244"><ele>888.9999999999999</ele><time>2026-03-22T09:58:43.231Z</time></trkpt><trkpt lat="44.4315922" lon="9.971751"><ele>889.0</ele><time>2026-03-22T09:58:44.234Z</time></trkpt><trkpt lat="44.4316758" lon="9.9717552"><ele>889.0</ele><time>2026-03-22T09:58:45.234Z</time></trkpt><trkpt lat="44.4317403" lon="9.9717201"><ele>889.0</ele><time>2026-03-22T09:58:46.242Z</time></trkpt><trkpt lat="44.4317864" lon="9.9716512"><ele>888.9999999999999</ele><time>2026-03-22T09:58:47.235Z</time></trkpt><trkpt lat="44.4318072" lon="9.9715577"><ele>889.0</ele><time>2026-03-22T09:58:48.236Z</time></trkpt><trkpt lat="44.431802" lon="9.971446"><ele>886.8333333333333</ele><time>2026-03-22T09:58:49.236Z</time></trkpt><trkpt lat="44.4317564" lon="9.9713452"><ele>884.6666666666666</ele><time>2026-03-22T09:58:50.238Z</time></trkpt><trkpt lat="44.4316803" lon="9.9712843"><ele>882.5</ele><time>2026-03-22T09:58:51.241Z</time></trkpt><trkpt lat="44.4315944" lon="9.9712635"><ele>880.3333333333333</ele><time>2026-03-22T09:58:52.242Z</time></trkpt><trkpt lat="44.4315049" lon="9.9712937"><ele>878.1666666666666</ele><time>2026-03-22T09:58:53.245Z</time></trkpt><trkpt lat="44.4314132" lon="9.9713349"><ele>876.0</ele><time>2026-03-22T09:58:54.246Z</time></trkpt><trkpt lat="44.4313202" lon="9.9713887"><ele>876.25</ele><time>2026-03-22T09:58:55.249Z</time></trkpt><trkpt lat="44.4312092" lon="9.9714543"><ele>876.5</ele><time>2026-03-22T09:58:56.241Z</time></trkpt><trkpt lat="44.4311101" lon="9.9715361"><ele>876.75</ele><time>2026-03-22T09:58:57.239Z</time></trkpt><trkpt lat="44.4310197" lon="9.9716546"><ele>877.0</ele><time>2026-03-22T09:58:58.233Z</time></trkpt><trkpt lat="44.4309352" lon="9.9717992"><ele>877.0</ele><time>2026-03-22T09:58:59.241Z</time></trkpt><trkpt lat="44.4308644" lon="9.9719422"><ele>877.0</ele><time>2026-03-22T09:59:00.237Z</time></trkpt><trkpt lat="44.4308038" lon="9.972062"><ele>877.0</ele><time>2026-03-22T09:59:01.241Z</time></trkpt><trkpt lat="44.4307397" lon="9.9721366"><ele>877.0</ele><time>2026-03-22T09:59:02.239Z</time></trkpt><trkpt lat="44.4306713" lon="9.9721871"><ele>877.0</ele><time>2026-03-22T09:59:03.236Z</time></trkpt><trkpt lat="44.4306069" lon="9.9722083"><ele>876.9999999999999</ele><time>2026-03-22T09:59:04.242Z</time></trkpt><trkpt lat="44.4305363" lon="9.9721892"><ele>877.0</ele><time>2026-03-22T09:59:05.23Z</time></trkpt><trkpt lat="44.4304601" lon="9.9721375"><ele>877.0</ele><time>2026-03-22T09:59:06.236Z</time></trkpt><trkpt lat="44.4303954" lon="9.9720549"><ele>877.0</ele><time>2026-03-22T09:59:07.244Z</time></trkpt><trkpt lat="44.4303564" lon="9.9719476"><ele>876.9999999999999</ele><time>2026-03-22T09:59:08.234Z</time></trkpt><trkpt lat="44.430351" lon="9.9718281"><ele>877.0</ele><time>2026-03-22T09:59:09.241Z</time></trkpt><trkpt lat="44.4303661" lon="9.9717072"><ele>877.4000000000001</ele><time>2026-03-22T09:59:10.239Z</time></trkpt><trkpt lat="44.4304184" lon="9.9715869"><ele>877.8000000000001</ele><time>2026-03-22T09:59:11.238Z</time></trkpt><trkpt lat="44.4304784" lon="9.9714469"><ele>878.2</ele><time>2026-03-22T09:59:12.241Z</time></trkpt><trkpt lat="44.4305299" lon="9.9712979"><ele>878.6</ele><time>2026-03-22T09:59:13.244Z</time></trkpt><trkpt lat="44.4305685" lon="9.9711537"><ele>879.0</ele><time>2026-03-22T09:59:14.233Z</time></trkpt><trkpt lat="44.4305968" lon="9.9710106"><ele>875.2</ele><time>2026-03-22T09:59:15.239Z</time></trkpt><trkpt lat="44.4306177" lon="9.9708711"><ele>871.4000000000001</ele><time>2026-03-22T09:59:16.24Z</time></trkpt><trkpt lat="44.4306356" lon="9.9707423"><ele>867.6</ele><time>2026-03-22T09:59:17.242Z</time></trkpt><trkpt lat="44.4306245" lon="9.9706197"><ele>863.8</ele><time>2026-03-22T09:59:18.236Z</time></trkpt><trkpt lat="44.4305934" lon="9.9705058"><ele>860.0</ele><time>2026-03-22T09:59:19.235Z</time></trkpt><trkpt lat="44.4305278" lon="9.9703875"><ele>862.75</ele><time>2026-03-22T09:59:20.23Z</time></trkpt><trkpt lat="44.4304406" lon="9.9702765"><ele>865.5</ele><time>2026-03-22T09:59:21.232Z</time></trkpt><trkpt lat="44.4303382" lon="9.9701728"><ele>868.25</ele><time>2026-03-22T09:59:22.234Z</time></trkpt><trkpt lat="44.4302329" lon="9.9700705"><ele>871.0</ele><time>2026-03-22T09:59:23.23Z</time></trkpt><trkpt lat="44.4301338" lon="9.9699947"><ele>870.4</ele><time>2026-03-22T09:59:24.234Z</time></trkpt><trkpt lat="44.4300366" lon="9.969941"><ele>869.8</ele><time>2026-03-22T09:59:25.228Z</time></trkpt><trkpt lat="44.429934" lon="9.9699043"><ele>869.1999999999999</ele><time>2026-03-22T09:59:26.241Z</time></trkpt><trkpt lat="44.4298243" lon="9.9698931"><ele>868.5999999999999</ele><time>2026-03-22T09:59:27.228Z</time></trkpt><trkpt lat="44.4297019" lon="9.9698748"><ele>868.0</ele><time>2026-03-22T09:59:28.232Z</time></trkpt><trkpt lat="44.4295838" lon="9.9698547"><ele>868.0</ele><time>2026-03-22T09:59:29.229Z</time></trkpt><trkpt lat="44.4294792" lon="9.9698141"><ele>868.0</ele><time>2026-03-22T09:59:30.226Z</time></trkpt><trkpt lat="44.4293874" lon="9.9697498"><ele>868.0</ele><time>2026-03-22T09:59:31.226Z</time></trkpt><trkpt lat="44.4293148" lon="9.9696627"><ele>868.0</ele><time>2026-03-22T09:59:32.234Z</time></trkpt><trkpt lat="44.4292541" lon="9.9695662"><ele>868.0</ele><time>2026-03-22T09:59:33.221Z</time></trkpt><trkpt lat="44.4292139" lon="9.9694612"><ele>867.9999999999999</ele><time>2026-03-22T09:59:34.225Z</time></trkpt><trkpt lat="44.429198" lon="9.9693509"><ele>868.0</ele><time>2026-03-22T09:59:35.231Z</time></trkpt><trkpt lat="44.429212" lon="9.9692372"><ele>868.0</ele><time>2026-03-22T09:59:36.228Z</time></trkpt><trkpt lat="44.4292484" lon="9.9691413"><ele>868.0</ele><time>2026-03-22T09:59:37.233Z</time></trkpt><trkpt lat="44.4292864" lon="9.969048"><ele>867.9999999999999</ele><time>2026-03-22T09:59:38.234Z</time></trkpt><trkpt lat="44.4292943" lon="9.9689306"><ele>868.0</ele><time>2026-03-22T09:59:39.23Z</time></trkpt><trkpt lat="44.4292705" lon="9.968775"><ele>863.4</ele><time>2026-03-22T09:59:40.232Z</time></trkpt><trkpt lat="44.4292277" lon="9.9686263"><ele>858.8</ele><time>2026-03-22T09:59:41.238Z</time></trkpt><trkpt lat="44.4291873" lon="9.9684845"><ele>854.2</ele><time>2026-03-22T09:59:42.244Z</time></trkpt><trkpt lat="44.4291597" lon="9.9683493"><ele>849.6</ele><time>2026-03-22T09:59:43.241Z</time></trkpt><trkpt lat="44.4291325" lon="9.9682194"><ele>845.0</ele><time>2026-03-22T09:59:44.236Z</time></trkpt><trkpt lat="44.4291099" lon="9.9680878"><ele>843.3333333333334</ele><time>2026-03-22T09:59:45.235Z</time></trkpt><trkpt lat="44.4291073" lon="9.9679599"><ele>841.6666666666667</ele><time>2026-03-22T09:59:46.229Z</time></trkpt><trkpt lat="44.4291153" lon="9.9678344"><ele>840.0</ele><time>2026-03-22T09:59:47.238Z</time></trkpt><trkpt lat="44.429137" lon="9.9677144"><ele>838.3333333333333</ele><time>2026-03-22T09:59:48.239Z</time></trkpt><trkpt lat="44.4291631" lon="9.9676028"><ele>836.6666666666666</ele><time>2026-03-22T09:59:49.235Z</time></trkpt><trkpt lat="44.4291775" lon="9.9674901"><ele>835.0</ele><time>2026-03-22T09:59:50.233Z</time></trkpt><trkpt lat="44.4291691" lon="9.9673764"><ele>831.2</ele><time>2026-03-22T09:59:51.235Z</time></trkpt><trkpt lat="44.4291373" lon="9.967272"><ele>827.4</ele><time>2026-03-22T09:59:52.24Z</time></trkpt><trkpt lat="44.4290785" lon="9.967169"><ele>823.5999999999999</ele><time>2026-03-22T09:59:53.242Z</time></trkpt><trkpt lat="44.4289891" lon="9.9670805"><ele>819.8</ele><time>2026-03-22T09:59:54.245Z</time></trkpt><trkpt lat="44.4288996" lon="9.9669944"><ele>816.0</ele><time>2026-03-22T09:59:55.235Z</time></trkpt><trkpt lat="44.4288209" lon="9.9668949"><ele>824.1999999999999</ele><time>2026-03-22T09:59:56.239Z</time></trkpt><trkpt lat="44.4287569" lon="9.9667893"><ele>832.4</ele><time>2026-03-22T09:59:57.234Z</time></trkpt><trkpt lat="44.4287081" lon="9.9666672"><ele>840.6</ele><time>2026-03-22T09:59:58.314Z</time></trkpt><trkpt lat="44.4286723" lon="9.966524"><ele>848.8</ele><time>2026-03-22T09:59:59.231Z</time></trkpt><trkpt lat="44.4286553" lon="9.9663497"><ele>857.0</ele><time>2026-03-22T10:00:00.235Z</time></trkpt><trkpt lat="44.42865" lon="9.9661793"><ele>857.0</ele><time>2026-03-22T10:00:01.233Z</time></trkpt><trkpt lat="44.4286488" lon="9.9660086"><ele>857.0</ele><time>2026-03-22T10:00:02.229Z</time></trkpt><trkpt lat="44.428653" lon="9.9658499"><ele>857.0</ele><time>2026-03-22T10:00:03.235Z</time></trkpt><trkpt lat="44.4286612" lon="9.9657061"><ele>857.0</ele><time>2026-03-22T10:00:04.228Z</time></trkpt><trkpt lat="44.4286569" lon="9.9655622"><ele>857.0</ele><time>2026-03-22T10:00:05.238Z</time></trkpt><trkpt lat="44.4286457" lon="9.9654268"><ele>851.4000000000001</ele><time>2026-03-22T10:00:06.223Z</time></trkpt><trkpt lat="44.4286511" lon="9.9652782"><ele>845.8000000000001</ele><time>2026-03-22T10:00:07.228Z</time></trkpt><trkpt lat="44.4286639" lon="9.9651229"><ele>840.2</ele><time>2026-03-22T10:00:08.231Z</time></trkpt><trkpt lat="44.4286771" lon="9.9649755"><ele>834.6</ele><time>2026-03-22T10:00:09.229Z</time></trkpt><trkpt lat="44.4286878" lon="9.9648442"><ele>829.0</ele><time>2026-03-22T10:00:10.227Z</time></trkpt><trkpt lat="44.4286937" lon="9.9647288"><ele>825.3333333333333</ele><time>2026-03-22T10:00:11.233Z</time></trkpt><trkpt lat="44.428693" lon="9.9646155"><ele>821.6666666666666</ele><time>2026-03-22T10:00:12.229Z</time></trkpt><trkpt lat="44.4286726" lon="9.9645213"><ele>818.0</ele><time>2026-03-22T10:00:13.234Z</time></trkpt><trkpt lat="44.4286296" lon="9.9644469"><ele>814.3333333333333</ele><time>2026-03-22T10:00:14.235Z</time></trkpt><trkpt lat="44.428562" lon="9.964401"><ele>810.6666666666666</ele><time>2026-03-22T10:00:15.236Z</time></trkpt><trkpt lat="44.4284818" lon="9.9643893"><ele>807.0</ele><time>2026-03-22T10:00:16.227Z</time></trkpt><trkpt lat="44.4283948" lon="9.9644249"><ele>807.0</ele><time>2026-03-22T10:00:17.239Z</time></trkpt><trkpt lat="44.4283085" lon="9.9644985"><ele>807.0</ele><time>2026-03-22T10:00:18.234Z</time></trkpt><trkpt lat="44.4282182" lon="9.9646024"><ele>807.0</ele><time>2026-03-22T10:00:19.226Z</time></trkpt><trkpt lat="44.4281114" lon="9.9646958"><ele>807.0</ele><time>2026-03-22T10:00:20.227Z</time></trkpt><trkpt lat="44.4280047" lon="9.9647651"><ele>807.0</ele><time>2026-03-22T10:00:21.232Z</time></trkpt><trkpt lat="44.4279079" lon="9.9648382"><ele>807.0</ele><time>2026-03-22T10:00:22.23Z</time></trkpt><trkpt lat="44.4278189" lon="9.9649113"><ele>807.0</ele><time>2026-03-22T10:00:23.23Z</time></trkpt><trkpt lat="44.4277352" lon="9.9649795"><ele>807.0</ele><time>2026-03-22T10:00:24.23Z</time></trkpt><trkpt lat="44.4276537" lon="9.9650131"><ele>807.0</ele><time>2026-03-22T10:00:25.225Z</time></trkpt><trkpt lat="44.4275661" lon="9.9649863"><ele>807.0</ele><time>2026-03-22T10:00:26.228Z</time></trkpt><trkpt lat="44.427493" lon="9.9649286"><ele>807.0</ele><time>2026-03-22T10:00:27.238Z</time></trkpt><trkpt lat="44.4274342" lon="9.9648507"><ele>807.0</ele><time>2026-03-22T10:00:28.227Z</time></trkpt><trkpt lat="44.4273721" lon="9.9647588"><ele>807.0</ele><time>2026-03-22T10:00:29.234Z</time></trkpt><trkpt lat="44.4273008" lon="9.9646625"><ele>807.0</ele><time>2026-03-22T10:00:30.23Z</time></trkpt><trkpt lat="44.4272182" lon="9.9645719"><ele>807.0</ele><time>2026-03-22T10:00:31.227Z</time></trkpt><trkpt lat="44.4271231" lon="9.9644987"><ele>807.0</ele><time>2026-03-22T10:00:32.235Z</time></trkpt><trkpt lat="44.4270178" lon="9.9644519"><ele>807.0</ele><time>2026-03-22T10:00:33.231Z</time></trkpt><trkpt lat="44.4269023" lon="9.9644204"><ele>807.0</ele><time>2026-03-22T10:00:34.242Z</time></trkpt><trkpt lat="44.4267704" lon="9.9644295"><ele>807.0</ele><time>2026-03-22T10:00:35.233Z</time></trkpt><trkpt lat="44.4266418" lon="9.9644407"><ele>807.0</ele><time>2026-03-22T10:00:36.232Z</time></trkpt><trkpt lat="44.4265233" lon="9.9644414"><ele>807.0</ele><time>2026-03-22T10:00:37.237Z</time></trkpt><trkpt lat="44.4264165" lon="9.9644432"><ele>807.0</ele><time>2026-03-22T10:00:38.241Z</time></trkpt><trkpt lat="44.4263251" lon="9.96446"><ele>807.0</ele><time>2026-03-22T10:00:39.233Z</time></trkpt><trkpt lat="44.4262488" lon="9.9645033"><ele>799.4000000000001</ele><time>2026-03-22T10:00:40.233Z</time></trkpt><trkpt lat="44.42618" lon="9.9645799"><ele>791.8000000000001</ele><time>2026-03-22T10:00:41.232Z</time></trkpt><trkpt lat="44.4261176" lon="9.9646684"><ele>784.2</ele><time>2026-03-22T10:00:42.228Z</time></trkpt><trkpt lat="44.4260622" lon="9.9647833"><ele>776.6</ele><time>2026-03-22T10:00:43.23Z</time></trkpt><trkpt lat="44.4260028" lon="9.9648987"><ele>769.0</ele><time>2026-03-22T10:00:44.234Z</time></trkpt><trkpt lat="44.425935" lon="9.9650262"><ele>773.5</ele><time>2026-03-22T10:00:45.228Z</time></trkpt><trkpt lat="44.4258591" lon="9.9651549"><ele>778.0</ele><time>2026-03-22T10:00:46.235Z</time></trkpt><trkpt lat="44.425783" lon="9.9652881"><ele>782.5</ele><time>2026-03-22T10:00:47.233Z</time></trkpt><trkpt lat="44.4257169" lon="9.9654242"><ele>787.0</ele><time>2026-03-22T10:00:48.235Z</time></trkpt><trkpt lat="44.4256677" lon="9.9655638"><ele>787.0</ele><time>2026-03-22T10:00:49.232Z</time></trkpt><trkpt lat="44.4256296" lon="9.9657264"><ele>787.0</ele><time>2026-03-22T10:00:50.237Z</time></trkpt><trkpt lat="44.4255958" lon="9.9658962"><ele>787.0</ele><time>2026-03-22T10:00:51.232Z</time></trkpt><trkpt lat="44.4255652" lon="9.9660669"><ele>787.0</ele><time>2026-03-22T10:00:52.237Z</time></trkpt><trkpt lat="44.4255349" lon="9.9662249"><ele>786.0</ele><time>2026-03-22T10:00:53.23Z</time></trkpt><trkpt lat="44.4254914" lon="9.9663753"><ele>785.0</ele><time>2026-03-22T10:00:54.236Z</time></trkpt><trkpt lat="44.4254377" lon="9.9665161"><ele>784.0</ele><time>2026-03-22T10:00:55.225Z</time></trkpt><trkpt lat="44.4253797" lon="9.9666525"><ele>783.0</ele><time>2026-03-22T10:00:56.231Z</time></trkpt><trkpt lat="44.4253169" lon="9.9667731"><ele>783.0</ele><time>2026-03-22T10:00:57.233Z</time></trkpt><trkpt lat="44.4252595" lon="9.9668929"><ele>783.0</ele><time>2026-03-22T10:00:58.228Z</time></trkpt><trkpt lat="44.4251994" lon="9.9669838"><ele>783.0</ele><time>2026-03-22T10:00:59.232Z</time></trkpt><trkpt lat="44.4251209" lon="9.9670386"><ele>783.0</ele><time>2026-03-22T10:01:00.241Z</time></trkpt><trkpt lat="44.4250324" lon="9.9670536"><ele>783.0</ele><time>2026-03-22T10:01:01.239Z</time></trkpt><trkpt lat="44.4249547" lon="9.9670847"><ele>783.0</ele><time>2026-03-22T10:01:02.236Z</time></trkpt><trkpt lat="44.4248959" lon="9.9671595"><ele>783.0</ele><time>2026-03-22T10:01:03.231Z</time></trkpt><trkpt lat="44.4248594" lon="9.9672677"><ele>783.0</ele><time>2026-03-22T10:01:04.238Z</time></trkpt><trkpt lat="44.4248449" lon="9.9673887"><ele>783.0</ele><time>2026-03-22T10:01:05.229Z</time></trkpt><trkpt lat="44.4248163" lon="9.9674849"><ele>783.0</ele><time>2026-03-22T10:01:06.227Z</time></trkpt><trkpt lat="44.4247645" lon="9.9675402"><ele>783.0</ele><time>2026-03-22T10:01:07.236Z</time></trkpt><trkpt lat="44.4246998" lon="9.9675509"><ele>783.0</ele><time>2026-03-22T10:01:08.227Z</time></trkpt><trkpt lat="44.4246387" lon="9.9675062"><ele>783.0</ele><time>2026-03-22T10:01:09.24Z</time></trkpt><trkpt lat="44.4245944" lon="9.967428"><ele>783.1666666666666</ele><time>2026-03-22T10:01:10.31Z</time></trkpt><trkpt lat="44.4245658" lon="9.9673382"><ele>783.3333333333333</ele><time>2026-03-22T10:01:11.227Z</time></trkpt><trkpt lat="44.4245514" lon="9.9672366"><ele>783.5</ele><time>2026-03-22T10:01:12.233Z</time></trkpt><trkpt lat="44.4245571" lon="9.967101"><ele>783.6666666666666</ele><time>2026-03-22T10:01:13.235Z</time></trkpt><trkpt lat="44.4245473" lon="9.9669542"><ele>783.8333333333333</ele><time>2026-03-22T10:01:14.235Z</time></trkpt><trkpt lat="44.4245191" lon="9.9668293"><ele>784.0</ele><time>2026-03-22T10:01:15.232Z</time></trkpt><trkpt lat="44.4244605" lon="9.9667531"><ele>784.0</ele><time>2026-03-22T10:01:16.236Z</time></trkpt><trkpt lat="44.4243727" lon="9.9667326"><ele>784.0</ele><time>2026-03-22T10:01:17.234Z</time></trkpt><trkpt lat="44.4242671" lon="9.9667506"><ele>784.0</ele><time>2026-03-22T10:01:18.236Z</time></trkpt><trkpt lat="44.4241671" lon="9.9667691"><ele>784.0</ele><time>2026-03-22T10:01:19.23Z</time></trkpt><trkpt lat="44.4240876" lon="9.966781"><ele>784.0</ele><time>2026-03-22T10:01:20.233Z</time></trkpt><trkpt lat="44.4240106" lon="9.9667503"><ele>784.0</ele><time>2026-03-22T10:01:21.238Z</time></trkpt><trkpt lat="44.4239388" lon="9.9667046"><ele>784.0</ele><time>2026-03-22T10:01:22.235Z</time></trkpt><trkpt lat="44.4238781" lon="9.9666535"><ele>784.0</ele><time>2026-03-22T10:01:23.229Z</time></trkpt><trkpt lat="44.4238296" lon="9.9665807"><ele>784.0</ele><time>2026-03-22T10:01:24.239Z</time></trkpt><trkpt lat="44.4238068" lon="9.9664973"><ele>784.0</ele><time>2026-03-22T10:01:25.235Z</time></trkpt><trkpt lat="44.4237864" lon="9.9663983"><ele>784.0</ele><time>2026-03-22T10:01:26.228Z</time></trkpt><trkpt lat="44.423755" lon="9.9663"><ele>784.0</ele><time>2026-03-22T10:01:27.237Z</time></trkpt><trkpt lat="44.4237031" lon="9.9662084"><ele>781.6666666666666</ele><time>2026-03-22T10:01:28.234Z</time></trkpt><trkpt lat="44.42363" lon="9.9661368"><ele>779.3333333333333</ele><time>2026-03-22T10:01:29.239Z</time></trkpt><trkpt lat="44.4235406" lon="9.9661041"><ele>777.0</ele><time>2026-03-22T10:01:30.239Z</time></trkpt><trkpt lat="44.423451" lon="9.9661004"><ele>774.6666666666667</ele><time>2026-03-22T10:01:31.231Z</time></trkpt><trkpt lat="44.4233698" lon="9.9661026"><ele>772.3333333333334</ele><time>2026-03-22T10:01:32.233Z</time></trkpt><trkpt lat="44.4232973" lon="9.9661091"><ele>770.0</ele><time>2026-03-22T10:01:33.227Z</time></trkpt><trkpt lat="44.4232229" lon="9.9661107"><ele>770.0000000000001</ele><time>2026-03-22T10:01:34.239Z</time></trkpt><trkpt lat="44.4231469" lon="9.966088"><ele>770.0</ele><time>2026-03-22T10:01:35.225Z</time></trkpt><trkpt lat="44.4230807" lon="9.9660489"><ele>770.0</ele><time>2026-03-22T10:01:36.23Z</time></trkpt><trkpt lat="44.4230163" lon="9.9659968"><ele>770.0</ele><time>2026-03-22T10:01:37.227Z</time></trkpt><trkpt lat="44.4229804" lon="9.965917"><ele>770.0000000000001</ele><time>2026-03-22T10:01:38.229Z</time></trkpt><trkpt lat="44.4229963" lon="9.9657576"><ele>770.0</ele><time>2026-03-22T10:01:40.23Z</time></trkpt><trkpt lat="44.4230306" lon="9.9656803"><ele>766.6666666666667</ele><time>2026-03-22T10:01:41.228Z</time></trkpt><trkpt lat="44.4230736" lon="9.9655952"><ele>763.3333333333334</ele><time>2026-03-22T10:01:42.224Z</time></trkpt><trkpt lat="44.4231324" lon="9.9655384"><ele>760.0</ele><time>2026-03-22T10:01:43.239Z</time></trkpt><trkpt lat="44.4232021" lon="9.9654897"><ele>756.6666666666667</ele><time>2026-03-22T10:01:44.249Z</time></trkpt><trkpt lat="44.4232582" lon="9.9654139"><ele>753.3333333333334</ele><time>2026-03-22T10:01:45.24Z</time></trkpt><trkpt lat="44.4233129" lon="9.9652846"><ele>750.0</ele><time>2026-03-22T10:01:46.338Z</time></trkpt><trkpt lat="44.4233783" lon="9.9651197"><ele>750.0</ele><time>2026-03-22T10:01:47.248Z</time></trkpt><trkpt lat="44.4234359" lon="9.9649431"><ele>750.0</ele><time>2026-03-22T10:01:48.248Z</time></trkpt><trkpt lat="44.4234968" lon="9.9647727"><ele>750.0</ele><time>2026-03-22T10:01:49.24Z</time></trkpt><trkpt lat="44.4235586" lon="9.9646169"><ele>750.0</ele><time>2026-03-22T10:01:50.238Z</time></trkpt><trkpt lat="44.4236219" lon="9.9644703"><ele>750.0</ele><time>2026-03-22T10:01:51.241Z</time></trkpt><trkpt lat="44.4236918" lon="9.9643371"><ele>750.0</ele><time>2026-03-22T10:01:52.241Z</time></trkpt><trkpt lat="44.4237639" lon="9.9642123"><ele>750.0</ele><time>2026-03-22T10:01:53.242Z</time></trkpt><trkpt lat="44.4238321" lon="9.9640965"><ele>750.0</ele><time>2026-03-22T10:01:54.245Z</time></trkpt><trkpt lat="44.4239027" lon="9.9639875"><ele>750.0</ele><time>2026-03-22T10:01:55.251Z</time></trkpt><trkpt lat="44.4239732" lon="9.9638797"><ele>746.0</ele><time>2026-03-22T10:01:56.247Z</time></trkpt><trkpt lat="44.424039" lon="9.9637726"><ele>742.0</ele><time>2026-03-22T10:01:57.244Z</time></trkpt><trkpt lat="44.4240939" lon="9.9636797"><ele>738.0</ele><time>2026-03-22T10:01:58.249Z</time></trkpt><trkpt lat="44.4241245" lon="9.9635654"><ele>734.0</ele><time>2026-03-22T10:01:59.245Z</time></trkpt><trkpt lat="44.4241354" lon="9.9634389"><ele>730.0</ele><time>2026-03-22T10:02:00.244Z</time></trkpt><trkpt lat="44.4241287" lon="9.9633005"><ele>730.0</ele><time>2026-03-22T10:02:01.258Z</time></trkpt><trkpt lat="44.4241134" lon="9.9631556"><ele>730.0</ele><time>2026-03-22T10:02:02.246Z</time></trkpt><trkpt lat="44.4241058" lon="9.9630153"><ele>730.0</ele><time>2026-03-22T10:02:03.244Z</time></trkpt><trkpt lat="44.424107" lon="9.962886"><ele>730.0</ele><time>2026-03-22T10:02:04.247Z</time></trkpt><trkpt lat="44.4241251" lon="9.9627569"><ele>730.0</ele><time>2026-03-22T10:02:05.256Z</time></trkpt><trkpt lat="44.4241503" lon="9.962637"><ele>730.0</ele><time>2026-03-22T10:02:06.242Z</time></trkpt><trkpt lat="44.4241895" lon="9.96251"><ele>730.0</ele><time>2026-03-22T10:02:07.257Z</time></trkpt><trkpt lat="44.4242287" lon="9.9623708"><ele>730.0</ele><time>2026-03-22T10:02:08.252Z</time></trkpt><trkpt lat="44.4242631" lon="9.9622258"><ele>730.0</ele><time>2026-03-22T10:02:09.243Z</time></trkpt><trkpt lat="44.4242851" lon="9.9620844"><ele>730.0</ele><time>2026-03-22T10:02:10.251Z</time></trkpt><trkpt lat="44.424315" lon="9.961954"><ele>730.0</ele><time>2026-03-22T10:02:11.248Z</time></trkpt><trkpt lat="44.4243429" lon="9.961832"><ele>730.0</ele><time>2026-03-22T10:02:12.245Z</time></trkpt><trkpt lat="44.4243953" lon="9.9617247"><ele>730.0</ele><time>2026-03-22T10:02:13.247Z</time></trkpt><trkpt lat="44.424454" lon="9.9616325"><ele>730.0</ele><time>2026-03-22T10:02:14.252Z</time></trkpt><trkpt lat="44.424514" lon="9.9615549"><ele>730.0</ele><time>2026-03-22T10:02:15.249Z</time></trkpt><trkpt lat="44.4245752" lon="9.9614759"><ele>730.0</ele><time>2026-03-22T10:02:16.255Z</time></trkpt><trkpt lat="44.4246448" lon="9.9613896"><ele>725.4</ele><time>2026-03-22T10:02:17.255Z</time></trkpt><trkpt lat="44.4247187" lon="9.9612939"><ele>720.8</ele><time>2026-03-22T10:02:18.254Z</time></trkpt><trkpt lat="44.4247874" lon="9.9611833"><ele>716.2</ele><time>2026-03-22T10:02:19.256Z</time></trkpt><trkpt lat="44.4248318" lon="9.9610558"><ele>711.6</ele><time>2026-03-22T10:02:20.253Z</time></trkpt><trkpt lat="44.4248452" lon="9.9609206"><ele>707.0</ele><time>2026-03-22T10:02:21.258Z</time></trkpt><trkpt lat="44.424824" lon="9.9607859"><ele>707.0</ele><time>2026-03-22T10:02:22.25Z</time></trkpt><trkpt lat="44.4247766" lon="9.9606534"><ele>707.0</ele><time>2026-03-22T10:02:23.26Z</time></trkpt><trkpt lat="44.4247437" lon="9.9605381"><ele>707.0</ele><time>2026-03-22T10:02:24.252Z</time></trkpt><trkpt lat="44.4247409" lon="9.9604402"><ele>707.0</ele><time>2026-03-22T10:02:25.256Z</time></trkpt><trkpt lat="44.4248045" lon="9.9603357"><ele>707.0</ele><time>2026-03-22T10:02:27.254Z</time></trkpt><trkpt lat="44.424905" lon="9.9604264"><ele>707.0</ele><time>2026-03-22T10:02:29.252Z</time></trkpt><trkpt lat="44.424933" lon="9.9605275"><ele>707.0</ele><time>2026-03-22T10:02:30.243Z</time></trkpt><trkpt lat="44.4249359" lon="9.9606623"><ele>707.0</ele><time>2026-03-22T10:02:31.25Z</time></trkpt><trkpt lat="44.424921" lon="9.9608533"><ele>707.0</ele><time>2026-03-22T10:02:32.255Z</time></trkpt><trkpt lat="44.4249085" lon="9.9610516"><ele>704.3333333333333</ele><time>2026-03-22T10:02:33.242Z</time></trkpt><trkpt lat="44.4248791" lon="9.9612325"><ele>701.6666666666666</ele><time>2026-03-22T10:02:34.248Z</time></trkpt><trkpt lat="44.4248402" lon="9.9614319"><ele>699.0</ele><time>2026-03-22T10:02:35.253Z</time></trkpt><trkpt lat="44.4247906" lon="9.9616928"><ele>696.0</ele><time>2026-03-22T10:02:36.249Z</time></trkpt><trkpt lat="44.4247522" lon="9.9619411"><ele>693.0</ele><time>2026-03-22T10:02:37.24Z</time></trkpt><trkpt lat="44.4247339" lon="9.9621633"><ele>690.0</ele><time>2026-03-22T10:02:38.246Z</time></trkpt><trkpt lat="44.4247075" lon="9.9623839"><ele>691.0</ele><time>2026-03-22T10:02:39.242Z</time></trkpt><trkpt lat="44.4247041" lon="9.9625426"><ele>692.0</ele><time>2026-03-22T10:02:40.243Z</time></trkpt><trkpt lat="44.4246859" lon="9.9627042"><ele>693.0</ele><time>2026-03-22T10:02:41.249Z</time></trkpt><trkpt lat="44.4246603" lon="9.9628676"><ele>694.0</ele><time>2026-03-22T10:02:42.246Z</time></trkpt><trkpt lat="44.4246527" lon="9.963015"><ele>694.0</ele><time>2026-03-22T10:02:43.25Z</time></trkpt><trkpt lat="44.4246492" lon="9.9631478"><ele>694.0</ele><time>2026-03-22T10:02:44.24Z</time></trkpt><trkpt lat="44.4246592" lon="9.9632578"><ele>694.0</ele><time>2026-03-22T10:02:45.242Z</time></trkpt><trkpt lat="44.4246751" lon="9.9634248"><ele>694.0</ele><time>2026-03-22T10:02:47.248Z</time></trkpt><trkpt lat="44.4246989" lon="9.9635104"><ele>694.0</ele><time>2026-03-22T10:02:48.246Z</time></trkpt><trkpt lat="44.42478" lon="9.9635627"><ele>694.0</ele><time>2026-03-22T10:02:50.251Z</time></trkpt><trkpt lat="44.4248585" lon="9.9634541"><ele>694.0</ele><time>2026-03-22T10:02:52.254Z</time></trkpt><trkpt lat="44.4248667" lon="9.9633467"><ele>694.0</ele><time>2026-03-22T10:02:53.251Z</time></trkpt><trkpt lat="44.4248531" lon="9.963214"><ele>694.0</ele><time>2026-03-22T10:02:54.254Z</time></trkpt><trkpt lat="44.4248341" lon="9.9630564"><ele>694.0</ele><time>2026-03-22T10:02:55.251Z</time></trkpt><trkpt lat="44.4248248" lon="9.9628781"><ele>694.0</ele><time>2026-03-22T10:02:56.254Z</time></trkpt><trkpt lat="44.4248285" lon="9.9626961"><ele>693.2</ele><time>2026-03-22T10:02:57.25Z</time></trkpt><trkpt lat="44.4248375" lon="9.9625229"><ele>692.4000000000001</ele><time>2026-03-22T10:02:58.247Z</time></trkpt><trkpt lat="44.4248701" lon="9.9623713"><ele>691.6</ele><time>2026-03-22T10:02:59.25Z</time></trkpt><trkpt lat="44.4249167" lon="9.9622383"><ele>690.8</ele><time>2026-03-22T10:03:00.251Z</time></trkpt><trkpt lat="44.4249623" lon="9.9621138"><ele>690.0</ele><time>2026-03-22T10:03:01.245Z</time></trkpt><trkpt lat="44.4250185" lon="9.96199"><ele>690.0</ele><time>2026-03-22T10:03:02.249Z</time></trkpt><trkpt lat="44.425088" lon="9.9618691"><ele>690.0</ele><time>2026-03-22T10:03:03.247Z</time></trkpt><trkpt lat="44.4251649" lon="9.9617561"><ele>690.0</ele><time>2026-03-22T10:03:04.247Z</time></trkpt><trkpt lat="44.4252371" lon="9.9616447"><ele>690.0</ele><time>2026-03-22T10:03:05.254Z</time></trkpt><trkpt lat="44.4253156" lon="9.9615487"><ele>690.0</ele><time>2026-03-22T10:03:06.245Z</time></trkpt><trkpt lat="44.4253863" lon="9.9614719"><ele>691.8</ele><time>2026-03-22T10:03:07.236Z</time></trkpt><trkpt lat="44.4254512" lon="9.9614301"><ele>693.6</ele><time>2026-03-22T10:03:08.246Z</time></trkpt><trkpt lat="44.4255604" lon="9.9613668"><ele>695.4000000000001</ele><time>2026-03-22T10:03:10.247Z</time></trkpt><trkpt lat="44.4256478" lon="9.9612625"><ele>697.2</ele><time>2026-03-22T10:03:12.251Z</time></trkpt><trkpt lat="44.4257354" lon="9.9611311"><ele>699.0</ele><time>2026-03-22T10:03:14.248Z</time></trkpt><trkpt lat="44.4257785" lon="9.9610359"><ele>693.4000000000001</ele><time>2026-03-22T10:03:15.245Z</time></trkpt><trkpt lat="44.4258072" lon="9.9609334"><ele>687.8</ele><time>2026-03-22T10:03:16.248Z</time></trkpt><trkpt lat="44.4258211" lon="9.9608383"><ele>682.2</ele><time>2026-03-22T10:03:17.249Z</time></trkpt><trkpt lat="44.4258898" lon="9.960716"><ele>676.5999999999999</ele><time>2026-03-22T10:03:19.249Z</time></trkpt><trkpt lat="44.4259628" lon="9.9607829"><ele>671.0</ele><time>2026-03-22T10:03:21.246Z</time></trkpt><trkpt lat="44.4259351" lon="9.9609452"><ele>669.5999999999999</ele><time>2026-03-22T10:03:23.245Z</time></trkpt><trkpt lat="44.4258757" lon="9.961048"><ele>668.2</ele><time>2026-03-22T10:03:24.25Z</time></trkpt><trkpt lat="44.425806" lon="9.9611587"><ele>666.8</ele><time>2026-03-22T10:03:25.255Z</time></trkpt><trkpt lat="44.4257379" lon="9.9612721"><ele>665.4000000000001</ele><time>2026-03-22T10:03:26.252Z</time></trkpt><trkpt lat="44.4256669" lon="9.9613761"><ele>664.0</ele><time>2026-03-22T10:03:27.247Z</time></trkpt><trkpt lat="44.425605" lon="9.9614789"><ele>664.0</ele><time>2026-03-22T10:03:28.247Z</time></trkpt><trkpt lat="44.4255351" lon="9.9615689"><ele>664.0</ele><time>2026-03-22T10:03:29.245Z</time></trkpt><trkpt lat="44.4254642" lon="9.9616489"><ele>664.0</ele><time>2026-03-22T10:03:30.254Z</time></trkpt><trkpt lat="44.425399" lon="9.9617341"><ele>664.0</ele><time>2026-03-22T10:03:31.242Z</time></trkpt><trkpt lat="44.4253508" lon="9.9618274"><ele>664.0</ele><time>2026-03-22T10:03:32.246Z</time></trkpt><trkpt lat="44.4253314" lon="9.9619159"><ele>664.0</ele><time>2026-03-22T10:03:33.244Z</time></trkpt><trkpt lat="44.4253298" lon="9.9620073"><ele>665.1666666666667</ele><time>2026-03-22T10:03:34.245Z</time></trkpt><trkpt lat="44.4253553" lon="9.9620937"><ele>666.3333333333334</ele><time>2026-03-22T10:03:35.248Z</time></trkpt><trkpt lat="44.4253912" lon="9.9621687"><ele>667.5</ele><time>2026-03-22T10:03:36.244Z</time></trkpt><trkpt lat="44.4254424" lon="9.9622276"><ele>668.6666666666666</ele><time>2026-03-22T10:03:37.244Z</time></trkpt><trkpt lat="44.4254999" lon="9.9622761"><ele>669.8333333333333</ele><time>2026-03-22T10:03:38.252Z</time></trkpt><trkpt lat="44.4256178" lon="9.9623315"><ele>671.0</ele><time>2026-03-22T10:03:40.239Z</time></trkpt><trkpt lat="44.4256966" lon="9.9623079"><ele>671.0</ele><time>2026-03-22T10:03:41.242Z</time></trkpt><trkpt lat="44.4257952" lon="9.9622442"><ele>671.0</ele><time>2026-03-22T10:03:42.241Z</time></trkpt><trkpt lat="44.4258873" lon="9.9621584"><ele>671.0</ele><time>2026-03-22T10:03:43.246Z</time></trkpt><trkpt lat="44.4259679" lon="9.9620717"><ele>671.0</ele><time>2026-03-22T10:03:44.247Z</time></trkpt><trkpt lat="44.4260386" lon="9.9619869"><ele>671.0</ele><time>2026-03-22T10:03:45.25Z</time></trkpt><trkpt lat="44.4261078" lon="9.9619134"><ele>671.0</ele><time>2026-03-22T10:03:46.248Z</time></trkpt><trkpt lat="44.426173" lon="9.9618453"><ele>671.0</ele><time>2026-03-22T10:03:47.258Z</time></trkpt><trkpt lat="44.4262397" lon="9.9617833"><ele>671.0</ele><time>2026-03-22T10:03:48.246Z</time></trkpt><trkpt lat="44.4263115" lon="9.9617402"><ele>671.0</ele><time>2026-03-22T10:03:49.254Z</time></trkpt><trkpt lat="44.4263922" lon="9.9617157"><ele>671.0</ele><time>2026-03-22T10:03:50.248Z</time></trkpt><trkpt lat="44.426474" lon="9.9616997"><ele>671.0</ele><time>2026-03-22T10:03:51.247Z</time></trkpt><trkpt lat="44.4265553" lon="9.9616966"><ele>672.5999999999999</ele><time>2026-03-22T10:03:52.253Z</time></trkpt><trkpt lat="44.4266438" lon="9.9617043"><ele>674.2</ele><time>2026-03-22T10:03:53.252Z</time></trkpt><trkpt lat="44.4267422" lon="9.9617043"><ele>675.8</ele><time>2026-03-22T10:03:54.251Z</time></trkpt><trkpt lat="44.4268434" lon="9.9616716"><ele>677.4000000000001</ele><time>2026-03-22T10:03:55.25Z</time></trkpt><trkpt lat="44.4269391" lon="9.9616138"><ele>679.0</ele><time>2026-03-22T10:03:56.248Z</time></trkpt><trkpt lat="44.4270255" lon="9.9615185"><ele>676.6</ele><time>2026-03-22T10:03:57.245Z</time></trkpt><trkpt lat="44.4271031" lon="9.9614285"><ele>674.2</ele><time>2026-03-22T10:03:58.25Z</time></trkpt><trkpt lat="44.4271761" lon="9.9613396"><ele>671.8000000000001</ele><time>2026-03-22T10:03:59.253Z</time></trkpt><trkpt lat="44.4272438" lon="9.9612524"><ele>669.4000000000001</ele><time>2026-03-22T10:04:00.256Z</time></trkpt><trkpt lat="44.4273178" lon="9.9611711"><ele>667.0</ele><time>2026-03-22T10:04:01.25Z</time></trkpt><trkpt lat="44.42739" lon="9.9610833"><ele>667.0</ele><time>2026-03-22T10:04:02.247Z</time></trkpt><trkpt lat="44.4274687" lon="9.9609775"><ele>667.0</ele><time>2026-03-22T10:04:03.252Z</time></trkpt><trkpt lat="44.4275459" lon="9.9608633"><ele>667.0</ele><time>2026-03-22T10:04:04.24Z</time></trkpt><trkpt lat="44.4276025" lon="9.9607489"><ele>667.0</ele><time>2026-03-22T10:04:05.242Z</time></trkpt><trkpt lat="44.4276455" lon="9.9606473"><ele>667.0</ele><time>2026-03-22T10:04:06.249Z</time></trkpt><trkpt lat="44.427688" lon="9.9605486"><ele>662.8333333333334</ele><time>2026-03-22T10:04:07.243Z</time></trkpt><trkpt lat="44.4277141" lon="9.9604529"><ele>658.6666666666667</ele><time>2026-03-22T10:04:08.244Z</time></trkpt><trkpt lat="44.4277341" lon="9.9603183"><ele>654.5</ele><time>2026-03-22T10:04:10.329Z</time></trkpt><trkpt lat="44.4277419" lon="9.9602048"><ele>650.3333333333334</ele><time>2026-03-22T10:04:14.246Z</time></trkpt><trkpt lat="44.4277437" lon="9.9601051"><ele>646.1666666666666</ele><time>2026-03-22T10:04:34.269Z</time></trkpt><trkpt lat="44.4277507" lon="9.9600144"><ele>642.0</ele><time>2026-03-22T10:04:46.266Z</time></trkpt><trkpt lat="44.4277367" lon="9.9599134"><ele>639.6666666666666</ele><time>2026-03-22T10:04:54.241Z</time></trkpt><trkpt lat="44.4277041" lon="9.9598263"><ele>637.3333333333334</ele><time>2026-03-22T10:04:57.248Z</time></trkpt><trkpt lat="44.4276959" lon="9.9597318"><ele>635.0</ele><time>2026-03-22T10:10:29.257Z</time></trkpt><trkpt lat="44.4276869" lon="9.9595826"><ele>632.6666666666667</ele><time>2026-03-22T10:10:31.239Z</time></trkpt><trkpt lat="44.4276562" lon="9.9594481"><ele>630.3333333333334</ele><time>2026-03-22T10:10:32.241Z</time></trkpt><trkpt lat="44.4276091" lon="9.9593401"><ele>628.0</ele><time>2026-03-22T10:10:33.25Z</time></trkpt><trkpt lat="44.4275523" lon="9.9592279"><ele>629.6</ele><time>2026-03-22T10:10:34.246Z</time></trkpt><trkpt lat="44.4275004" lon="9.9591125"><ele>631.1999999999999</ele><time>2026-03-22T10:10:35.241Z</time></trkpt><trkpt lat="44.427458" lon="9.9589888"><ele>632.8</ele><time>2026-03-22T10:10:36.249Z</time></trkpt><trkpt lat="44.427428" lon="9.9588418"><ele>634.4</ele><time>2026-03-22T10:10:37.245Z</time></trkpt><trkpt lat="44.427412" lon="9.9586993"><ele>636.0</ele><time>2026-03-22T10:10:38.247Z</time></trkpt><trkpt lat="44.4273917" lon="9.9585463"><ele>636.75</ele><time>2026-03-22T10:10:39.248Z</time></trkpt><trkpt lat="44.4273563" lon="9.958358"><ele>637.5</ele><time>2026-03-22T10:10:40.247Z</time></trkpt><trkpt lat="44.4272935" lon="9.9581551"><ele>638.25</ele><time>2026-03-22T10:10:41.244Z</time></trkpt><trkpt lat="44.427208" lon="9.9579815"><ele>639.0</ele><time>2026-03-22T10:10:42.246Z</time></trkpt><trkpt lat="44.4271427" lon="9.9578244"><ele>630.25</ele><time>2026-03-22T10:10:43.252Z</time></trkpt><trkpt lat="44.4271052" lon="9.9576544"><ele>621.5</ele><time>2026-03-22T10:10:44.243Z</time></trkpt><trkpt lat="44.427088" lon="9.9574829"><ele>612.75</ele><time>2026-03-22T10:10:45.242Z</time></trkpt><trkpt lat="44.4270842" lon="9.9573065"><ele>604.0</ele><time>2026-03-22T10:10:46.247Z</time></trkpt><trkpt lat="44.4270752" lon="9.9571293"><ele>604.0</ele><time>2026-03-22T10:10:47.247Z</time></trkpt><trkpt lat="44.4270618" lon="9.9569424"><ele>604.0</ele><time>2026-03-22T10:10:48.242Z</time></trkpt><trkpt lat="44.4270651" lon="9.9567524"><ele>604.0</ele><time>2026-03-22T10:10:49.246Z</time></trkpt><trkpt lat="44.4270703" lon="9.95656"><ele>604.0</ele><time>2026-03-22T10:10:50.242Z</time></trkpt><trkpt lat="44.4270635" lon="9.956363"><ele>604.2</ele><time>2026-03-22T10:10:51.245Z</time></trkpt><trkpt lat="44.4270751" lon="9.9561941"><ele>604.4</ele><time>2026-03-22T10:10:52.244Z</time></trkpt><trkpt lat="44.42704" lon="9.9560314"><ele>604.6</ele><time>2026-03-22T10:10:53.241Z</time></trkpt><trkpt lat="44.4269837" lon="9.9558945"><ele>604.8</ele><time>2026-03-22T10:10:54.251Z</time></trkpt><trkpt lat="44.4269195" lon="9.9558099"><ele>605.0</ele><time>2026-03-22T10:10:55.249Z</time></trkpt><trkpt lat="44.4268432" lon="9.9557229"><ele>605.0</ele><time>2026-03-22T10:10:56.242Z</time></trkpt><trkpt lat="44.4267829" lon="9.955626"><ele>605.0</ele><time>2026-03-22T10:10:57.24Z</time></trkpt><trkpt lat="44.4267654" lon="9.9555157"><ele>605.0</ele><time>2026-03-22T10:10:58.245Z</time></trkpt><trkpt lat="44.4267768" lon="9.9553962"><ele>605.0</ele><time>2026-03-22T10:10:59.239Z</time></trkpt><trkpt lat="44.4267963" lon="9.955262"><ele>605.0</ele><time>2026-03-22T10:11:00.24Z</time></trkpt><trkpt lat="44.4268251" lon="9.9551095"><ele>605.4</ele><time>2026-03-22T10:11:01.243Z</time></trkpt><trkpt lat="44.4268551" lon="9.9549581"><ele>605.8</ele><time>2026-03-22T10:11:02.237Z</time></trkpt><trkpt lat="44.4268835" lon="9.9548257"><ele>606.2</ele><time>2026-03-22T10:11:03.241Z</time></trkpt><trkpt lat="44.4268788" lon="9.9547073"><ele>606.6</ele><time>2026-03-22T10:11:04.238Z</time></trkpt><trkpt lat="44.4268367" lon="9.9545896"><ele>607.0</ele><time>2026-03-22T10:11:05.24Z</time></trkpt><trkpt lat="44.4267765" lon="9.9544992"><ele>607.0</ele><time>2026-03-22T10:11:06.241Z</time></trkpt><trkpt lat="44.4266882" lon="9.9544382"><ele>607.0</ele><time>2026-03-22T10:11:07.247Z</time></trkpt><trkpt lat="44.4265764" lon="9.9543737"><ele>607.0</ele><time>2026-03-22T10:11:08.247Z</time></trkpt><trkpt lat="44.4264411" lon="9.9543029"><ele>607.0</ele><time>2026-03-22T10:11:09.241Z</time></trkpt><trkpt lat="44.4263031" lon="9.954229"><ele>603.75</ele><time>2026-03-22T10:11:10.242Z</time></trkpt><trkpt lat="44.4261492" lon="9.9541515"><ele>600.5</ele><time>2026-03-22T10:11:11.237Z</time></trkpt><trkpt lat="44.4260313" lon="9.9540722"><ele>597.25</ele><time>2026-03-22T10:11:12.239Z</time></trkpt><trkpt lat="44.4259231" lon="9.954008"><ele>594.0</ele><time>2026-03-22T10:11:13.234Z</time></trkpt><trkpt lat="44.4258077" lon="9.9539077"><ele>594.0</ele><time>2026-03-22T10:11:14.236Z</time></trkpt><trkpt lat="44.4257223" lon="9.9537787"><ele>594.0</ele><time>2026-03-22T10:11:15.238Z</time></trkpt><trkpt lat="44.4256356" lon="9.953647"><ele>594.0</ele><time>2026-03-22T10:11:16.236Z</time></trkpt><trkpt lat="44.4255364" lon="9.9535627"><ele>594.0</ele><time>2026-03-22T10:11:17.238Z</time></trkpt><trkpt lat="44.425424" lon="9.9535013"><ele>589.25</ele><time>2026-03-22T10:11:18.241Z</time></trkpt><trkpt lat="44.4252977" lon="9.9534911"><ele>584.5</ele><time>2026-03-22T10:11:19.228Z</time></trkpt><trkpt lat="44.4251676" lon="9.9534979"><ele>579.75</ele><time>2026-03-22T10:11:20.239Z</time></trkpt><trkpt lat="44.4250416" lon="9.9534921"><ele>575.0</ele><time>2026-03-22T10:11:21.235Z</time></trkpt><trkpt lat="44.4249248" lon="9.9534526"><ele>575.0</ele><time>2026-03-22T10:11:22.24Z</time></trkpt><trkpt lat="44.4248134" lon="9.9533839"><ele>575.0</ele><time>2026-03-22T10:11:23.236Z</time></trkpt><trkpt lat="44.4246986" lon="9.9533229"><ele>575.0</ele><time>2026-03-22T10:11:24.231Z</time></trkpt><trkpt lat="44.424592" lon="9.9532584"><ele>575.0</ele><time>2026-03-22T10:11:25.231Z</time></trkpt><trkpt lat="44.4245014" lon="9.9531554"><ele>573.0</ele><time>2026-03-22T10:11:26.239Z</time></trkpt><trkpt lat="44.4244186" lon="9.953009"><ele>571.0</ele><time>2026-03-22T10:11:27.241Z</time></trkpt><trkpt lat="44.4243268" lon="9.9528544"><ele>569.0</ele><time>2026-03-22T10:11:28.24Z</time></trkpt><trkpt lat="44.4242432" lon="9.9526929"><ele>567.0</ele><time>2026-03-22T10:11:29.238Z</time></trkpt><trkpt lat="44.4241576" lon="9.9525804"><ele>565.5</ele><time>2026-03-22T10:11:30.238Z</time></trkpt><trkpt lat="44.4240503" lon="9.9525279"><ele>564.0</ele><time>2026-03-22T10:11:31.235Z</time></trkpt><trkpt lat="44.423926" lon="9.9524872"><ele>562.5</ele><time>2026-03-22T10:11:32.237Z</time></trkpt><trkpt lat="44.4238068" lon="9.9524509"><ele>561.0</ele><time>2026-03-22T10:11:33.233Z</time></trkpt><trkpt lat="44.4237132" lon="9.9524086"><ele>561.0</ele><time>2026-03-22T10:11:34.234Z</time></trkpt><trkpt lat="44.42364" lon="9.952363"><ele>561.0</ele><time>2026-03-22T10:11:35.236Z</time></trkpt><trkpt lat="44.4235868" lon="9.9522967"><ele>561.0</ele><time>2026-03-22T10:11:36.231Z</time></trkpt><trkpt lat="44.4235419" lon="9.9522061"><ele>561.0</ele><time>2026-03-22T10:11:37.228Z</time></trkpt><trkpt lat="44.4235096" lon="9.9520939"><ele>561.0</ele><time>2026-03-22T10:11:38.232Z</time></trkpt><trkpt lat="44.423502" lon="9.9519453"><ele>561.0</ele><time>2026-03-22T10:11:39.235Z</time></trkpt><trkpt lat="44.4235062" lon="9.9517899"><ele>561.5</ele><time>2026-03-22T10:11:40.238Z</time></trkpt><trkpt lat="44.4235355" lon="9.9516513"><ele>562.0</ele><time>2026-03-22T10:11:41.23Z</time></trkpt><trkpt lat="44.423584" lon="9.9515431"><ele>562.5</ele><time>2026-03-22T10:11:42.234Z</time></trkpt><trkpt lat="44.4236284" lon="9.9514418"><ele>563.0</ele><time>2026-03-22T10:11:43.237Z</time></trkpt><trkpt lat="44.4236471" lon="9.9513328"><ele>563.5</ele><time>2026-03-22T10:11:44.233Z</time></trkpt><trkpt lat="44.423642" lon="9.9512145"><ele>564.0</ele><time>2026-03-22T10:11:45.233Z</time></trkpt><trkpt lat="44.4236099" lon="9.9511071"><ele>564.0</ele><time>2026-03-22T10:11:46.234Z</time></trkpt><trkpt lat="44.4235437" lon="9.9510006"><ele>564.0</ele><time>2026-03-22T10:11:47.238Z</time></trkpt><trkpt lat="44.4234612" lon="9.9508843"><ele>564.0</ele><time>2026-03-22T10:11:48.24Z</time></trkpt><trkpt lat="44.4233764" lon="9.9507578"><ele>564.0</ele><time>2026-03-22T10:11:49.235Z</time></trkpt><trkpt lat="44.4232958" lon="9.9506201"><ele>567.0</ele><time>2026-03-22T10:11:50.236Z</time></trkpt><trkpt lat="44.4232193" lon="9.9504922"><ele>570.0</ele><time>2026-03-22T10:11:51.24Z</time></trkpt><trkpt lat="44.4231271" lon="9.9503952"><ele>573.0</ele><time>2026-03-22T10:11:52.239Z</time></trkpt><trkpt lat="44.423023" lon="9.9503241"><ele>576.0</ele><time>2026-03-22T10:11:53.234Z</time></trkpt><trkpt lat="44.4229035" lon="9.9502713"><ele>566.3333333333334</ele><time>2026-03-22T10:11:54.237Z</time></trkpt><trkpt lat="44.4227742" lon="9.950226"><ele>556.6666666666667</ele><time>2026-03-22T10:11:55.234Z</time></trkpt><trkpt lat="44.4226319" lon="9.950198"><ele>547.0</ele><time>2026-03-22T10:11:56.232Z</time></trkpt><trkpt lat="44.4224499" lon="9.9501857"><ele>547.0</ele><time>2026-03-22T10:11:57.239Z</time></trkpt><trkpt lat="44.4223068" lon="9.9501539"><ele>547.0</ele><time>2026-03-22T10:11:58.236Z</time></trkpt><trkpt lat="44.4221875" lon="9.9501108"><ele>547.0</ele><time>2026-03-22T10:11:59.237Z</time></trkpt><trkpt lat="44.4220714" lon="9.9500758"><ele>547.0</ele><time>2026-03-22T10:12:00.238Z</time></trkpt><trkpt lat="44.4219637" lon="9.9499897"><ele>549.6666666666667</ele><time>2026-03-22T10:12:01.236Z</time></trkpt><trkpt lat="44.4218372" lon="9.9498776"><ele>552.3333333333334</ele><time>2026-03-22T10:12:02.234Z</time></trkpt><trkpt lat="44.4216828" lon="9.9497433"><ele>555.0</ele><time>2026-03-22T10:12:03.231Z</time></trkpt><trkpt lat="44.4215654" lon="9.9496055"><ele>555.0</ele><time>2026-03-22T10:12:04.237Z</time></trkpt><trkpt lat="44.4214456" lon="9.9494985"><ele>555.0</ele><time>2026-03-22T10:12:05.229Z</time></trkpt><trkpt lat="44.4213417" lon="9.9494021"><ele>555.0</ele><time>2026-03-22T10:12:06.235Z</time></trkpt><trkpt lat="44.421262" lon="9.9492751"><ele>555.0</ele><time>2026-03-22T10:12:07.241Z</time></trkpt><trkpt lat="44.4211791" lon="9.9491467"><ele>552.5</ele><time>2026-03-22T10:12:08.242Z</time></trkpt><trkpt lat="44.4210717" lon="9.9490055"><ele>550.0</ele><time>2026-03-22T10:12:09.24Z</time></trkpt><trkpt lat="44.4209823" lon="9.9488782"><ele>547.5</ele><time>2026-03-22T10:12:10.238Z</time></trkpt><trkpt lat="44.4208895" lon="9.9487503"><ele>545.0</ele><time>2026-03-22T10:12:11.243Z</time></trkpt><trkpt lat="44.4208161" lon="9.9486365"><ele>545.0</ele><time>2026-03-22T10:12:12.236Z</time></trkpt><trkpt lat="44.4207584" lon="9.9485098"><ele>545.0</ele><time>2026-03-22T10:12:13.233Z</time></trkpt><trkpt lat="44.4207081" lon="9.9483776"><ele>545.0</ele><time>2026-03-22T10:12:14.246Z</time></trkpt><trkpt lat="44.4206841" lon="9.9482314"><ele>545.0</ele><time>2026-03-22T10:12:15.237Z</time></trkpt><trkpt lat="44.4206898" lon="9.9481114"><ele>545.0</ele><time>2026-03-22T10:12:16.243Z</time></trkpt><trkpt lat="44.4207158" lon="9.947995"><ele>543.75</ele><time>2026-03-22T10:12:17.249Z</time></trkpt><trkpt lat="44.4207695" lon="9.9478806"><ele>542.5</ele><time>2026-03-22T10:12:18.249Z</time></trkpt><trkpt lat="44.4208372" lon="9.9477507"><ele>541.25</ele><time>2026-03-22T10:12:19.24Z</time></trkpt><trkpt lat="44.4209182" lon="9.9476114"><ele>540.0</ele><time>2026-03-22T10:12:20.24Z</time></trkpt><trkpt lat="44.4210045" lon="9.9474409"><ele>540.0</ele><time>2026-03-22T10:12:21.246Z</time></trkpt><trkpt lat="44.4210782" lon="9.9472312"><ele>540.0</ele><time>2026-03-22T10:12:22.246Z</time></trkpt><trkpt lat="44.4211707" lon="9.9470965"><ele>540.0</ele><time>2026-03-22T10:12:23.241Z</time></trkpt><trkpt lat="44.4212655" lon="9.9469459"><ele>540.0</ele><time>2026-03-22T10:12:24.245Z</time></trkpt><trkpt lat="44.4213593" lon="9.9468049"><ele>547.5</ele><time>2026-03-22T10:12:25.254Z</time></trkpt><trkpt lat="44.4214328" lon="9.946623"><ele>555.0</ele><time>2026-03-22T10:12:26.241Z</time></trkpt><trkpt lat="44.4215041" lon="9.9464398"><ele>562.5</ele><time>2026-03-22T10:12:27.249Z</time></trkpt><trkpt lat="44.4215706" lon="9.9462588"><ele>570.0</ele><time>2026-03-22T10:12:28.247Z</time></trkpt><trkpt lat="44.4216376" lon="9.9460802"><ele>570.0</ele><time>2026-03-22T10:12:29.241Z</time></trkpt><trkpt lat="44.4216997" lon="9.945904"><ele>570.0</ele><time>2026-03-22T10:12:30.255Z</time></trkpt><trkpt lat="44.4217481" lon="9.9457174"><ele>570.0</ele><time>2026-03-22T10:12:31.246Z</time></trkpt><trkpt lat="44.4218159" lon="9.9455291"><ele>570.0</ele><time>2026-03-22T10:12:32.248Z</time></trkpt><trkpt lat="44.421873" lon="9.9453736"><ele>563.25</ele><time>2026-03-22T10:12:33.247Z</time></trkpt><trkpt lat="44.421931" lon="9.9452072"><ele>556.5</ele><time>2026-03-22T10:12:34.252Z</time></trkpt><trkpt lat="44.42199" lon="9.9450238"><ele>549.75</ele><time>2026-03-22T10:12:35.242Z</time></trkpt><trkpt lat="44.4220348" lon="9.9448747"><ele>543.0</ele><time>2026-03-22T10:12:36.247Z</time></trkpt><trkpt lat="44.4220851" lon="9.9447436"><ele>547.4</ele><time>2026-03-22T10:12:37.248Z</time></trkpt><trkpt lat="44.4221478" lon="9.9446384"><ele>551.8</ele><time>2026-03-22T10:12:38.243Z</time></trkpt><trkpt lat="44.4222063" lon="9.9445419"><ele>556.2</ele><time>2026-03-22T10:12:39.251Z</time></trkpt><trkpt lat="44.4222726" lon="9.9444602"><ele>560.6</ele><time>2026-03-22T10:12:40.247Z</time></trkpt><trkpt lat="44.4223462" lon="9.9443911"><ele>565.0</ele><time>2026-03-22T10:12:41.245Z</time></trkpt><trkpt lat="44.4224274" lon="9.9443399"><ele>565.0</ele><time>2026-03-22T10:12:42.245Z</time></trkpt><trkpt lat="44.4225" lon="9.9442955"><ele>565.0</ele><time>2026-03-22T10:12:43.244Z</time></trkpt><trkpt lat="44.4225518" lon="9.9442361"><ele>565.0</ele><time>2026-03-22T10:12:44.239Z</time></trkpt><trkpt lat="44.4225912" lon="9.9440843"><ele>565.0</ele><time>2026-03-22T10:12:46.247Z</time></trkpt><trkpt lat="44.4224975" lon="9.9440041"><ele>565.0</ele><time>2026-03-22T10:12:48.239Z</time></trkpt><trkpt lat="44.4224347" lon="9.9440441"><ele>565.0</ele><time>2026-03-22T10:12:49.243Z</time></trkpt><trkpt lat="44.4223676" lon="9.9441257"><ele>565.0</ele><time>2026-03-22T10:12:50.243Z</time></trkpt><trkpt lat="44.4222851" lon="9.9442279"><ele>565.0</ele><time>2026-03-22T10:12:51.238Z</time></trkpt><trkpt lat="44.4221846" lon="9.9443257"><ele>565.0</ele><time>2026-03-22T10:12:52.245Z</time></trkpt><trkpt lat="44.4220841" lon="9.9444153"><ele>565.0</ele><time>2026-03-22T10:12:53.247Z</time></trkpt><trkpt lat="44.4219799" lon="9.9445498"><ele>557.6666666666667</ele><time>2026-03-22T10:12:54.245Z</time></trkpt><trkpt lat="44.4218713" lon="9.9447082"><ele>550.3333333333334</ele><time>2026-03-22T10:12:55.24Z</time></trkpt><trkpt lat="44.4217816" lon="9.9448927"><ele>543.0</ele><time>2026-03-22T10:12:56.248Z</time></trkpt><trkpt lat="44.4217012" lon="9.9450575"><ele>543.0</ele><time>2026-03-22T10:12:57.25Z</time></trkpt><trkpt lat="44.4216231" lon="9.9451889"><ele>543.0</ele><time>2026-03-22T10:12:58.24Z</time></trkpt><trkpt lat="44.4215565" lon="9.9453119"><ele>543.0</ele><time>2026-03-22T10:12:59.248Z</time></trkpt><trkpt lat="44.42149" lon="9.9454538"><ele>543.0</ele><time>2026-03-22T10:13:00.253Z</time></trkpt><trkpt lat="44.4214297" lon="9.9455984"><ele>543.0</ele><time>2026-03-22T10:13:01.241Z</time></trkpt><trkpt lat="44.4213605" lon="9.9457171"><ele>543.0</ele><time>2026-03-22T10:13:02.247Z</time></trkpt><trkpt lat="44.421285" lon="9.9458131"><ele>543.0</ele><time>2026-03-22T10:13:03.247Z</time></trkpt><trkpt lat="44.4212004" lon="9.9459044"><ele>543.0</ele><time>2026-03-22T10:13:04.245Z</time></trkpt><trkpt lat="44.4211056" lon="9.9459991"><ele>543.0</ele><time>2026-03-22T10:13:05.252Z</time></trkpt><trkpt lat="44.4210184" lon="9.9461023"><ele>542.4</ele><time>2026-03-22T10:13:06.243Z</time></trkpt><trkpt lat="44.4209461" lon="9.946216"><ele>541.8</ele><time>2026-03-22T10:13:07.245Z</time></trkpt><trkpt lat="44.4208794" lon="9.9463208"><ele>541.2</ele><time>2026-03-22T10:13:08.243Z</time></trkpt><trkpt lat="44.4208285" lon="9.9464401"><ele>540.6</ele><time>2026-03-22T10:13:09.245Z</time></trkpt><trkpt lat="44.4207774" lon="9.9465709"><ele>540.0</ele><time>2026-03-22T10:13:10.25Z</time></trkpt><trkpt lat="44.4207225" lon="9.9467163"><ele>540.0</ele><time>2026-03-22T10:13:11.241Z</time></trkpt><trkpt lat="44.4206618" lon="9.9468662"><ele>540.0</ele><time>2026-03-22T10:13:12.245Z</time></trkpt><trkpt lat="44.4205898" lon="9.9470219"><ele>540.0</ele><time>2026-03-22T10:13:13.255Z</time></trkpt><trkpt lat="44.420517" lon="9.9471653"><ele>540.0</ele><time>2026-03-22T10:13:14.249Z</time></trkpt><trkpt lat="44.4204411" lon="9.9472961"><ele>537.6666666666666</ele><time>2026-03-22T10:13:15.247Z</time></trkpt><trkpt lat="44.4203742" lon="9.947427"><ele>535.3333333333334</ele><time>2026-03-22T10:13:16.243Z</time></trkpt><trkpt lat="44.42032" lon="9.947544"><ele>533.0</ele><time>2026-03-22T10:13:17.243Z</time></trkpt><trkpt lat="44.4202685" lon="9.9476244"><ele>530.6666666666667</ele><time>2026-03-22T10:13:18.249Z</time></trkpt><trkpt lat="44.4202003" lon="9.9476586"><ele>528.3333333333334</ele><time>2026-03-22T10:13:19.241Z</time></trkpt><trkpt lat="44.4201251" lon="9.9476621"><ele>526.0</ele><time>2026-03-22T10:13:20.251Z</time></trkpt><trkpt lat="44.4200474" lon="9.9476297"><ele>526.0</ele><time>2026-03-22T10:13:21.247Z</time></trkpt><trkpt lat="44.4199723" lon="9.9475685"><ele>526.0</ele><time>2026-03-22T10:13:22.247Z</time></trkpt><trkpt lat="44.4199145" lon="9.9474852"><ele>526.0</ele><time>2026-03-22T10:13:23.248Z</time></trkpt><trkpt lat="44.4198822" lon="9.9473963"><ele>526.0</ele><time>2026-03-22T10:13:24.247Z</time></trkpt><trkpt lat="44.419877" lon="9.9472835"><ele>526.0</ele><time>2026-03-22T10:13:25.247Z</time></trkpt><trkpt lat="44.419887" lon="9.9471601"><ele>526.0</ele><time>2026-03-22T10:13:26.248Z</time></trkpt><trkpt lat="44.4199108" lon="9.9469965"><ele>523.5</ele><time>2026-03-22T10:13:27.249Z</time></trkpt><trkpt lat="44.4199365" lon="9.9468119"><ele>521.0</ele><time>2026-03-22T10:13:28.243Z</time></trkpt><trkpt lat="44.4199505" lon="9.9466164"><ele>518.5</ele><time>2026-03-22T10:13:29.248Z</time></trkpt><trkpt lat="44.4199425" lon="9.9464334"><ele>516.0</ele><time>2026-03-22T10:13:30.249Z</time></trkpt><trkpt lat="44.4199119" lon="9.9462419"><ele>513.4</ele><time>2026-03-22T10:13:31.24Z</time></trkpt><trkpt lat="44.4198684" lon="9.9460519"><ele>510.8</ele><time>2026-03-22T10:13:32.241Z</time></trkpt><trkpt lat="44.4198292" lon="9.9459049"><ele>508.19999999999993</ele><time>2026-03-22T10:13:33.243Z</time></trkpt><trkpt lat="44.4198109" lon="9.9457828"><ele>505.59999999999997</ele><time>2026-03-22T10:13:34.238Z</time></trkpt><trkpt lat="44.4198353" lon="9.9456556"><ele>503.0</ele><time>2026-03-22T10:13:35.249Z</time></trkpt><trkpt lat="44.4198914" lon="9.9455447"><ele>502.75</ele><time>2026-03-22T10:13:36.237Z</time></trkpt><trkpt lat="44.4199499" lon="9.9454292"><ele>502.5</ele><time>2026-03-22T10:13:37.242Z</time></trkpt><trkpt lat="44.4200008" lon="9.9452952"><ele>502.25</ele><time>2026-03-22T10:13:38.241Z</time></trkpt><trkpt lat="44.4200256" lon="9.9451232"><ele>502.0</ele><time>2026-03-22T10:13:39.234Z</time></trkpt><trkpt lat="44.4200458" lon="9.9449347"><ele>504.25</ele><time>2026-03-22T10:13:40.241Z</time></trkpt><trkpt lat="44.4200813" lon="9.9447625"><ele>506.5</ele><time>2026-03-22T10:13:41.232Z</time></trkpt><trkpt lat="44.4201365" lon="9.9445932"><ele>508.75</ele><time>2026-03-22T10:13:42.228Z</time></trkpt><trkpt lat="44.4201987" lon="9.9444445"><ele>511.0</ele><time>2026-03-22T10:13:43.228Z</time></trkpt><trkpt lat="44.4202571" lon="9.9443028"><ele>513.4</ele><time>2026-03-22T10:13:44.232Z</time></trkpt><trkpt lat="44.4203049" lon="9.9441656"><ele>515.8</ele><time>2026-03-22T10:13:45.227Z</time></trkpt><trkpt lat="44.4203652" lon="9.9440504"><ele>518.1999999999999</ele><time>2026-03-22T10:13:46.228Z</time></trkpt><trkpt lat="44.4204382" lon="9.9439414"><ele>520.6</ele><time>2026-03-22T10:13:47.23Z</time></trkpt><trkpt lat="44.4204987" lon="9.9438218"><ele>523.0</ele><time>2026-03-22T10:13:48.232Z</time></trkpt><trkpt lat="44.4205327" lon="9.9437006"><ele>524.4</ele><time>2026-03-22T10:13:49.228Z</time></trkpt><trkpt lat="44.420536" lon="9.943574"><ele>525.8</ele><time>2026-03-22T10:13:50.224Z</time></trkpt><trkpt lat="44.4204979" lon="9.9434514"><ele>527.2</ele><time>2026-03-22T10:13:51.229Z</time></trkpt><trkpt lat="44.4204513" lon="9.9433138"><ele>528.6</ele><time>2026-03-22T10:13:52.235Z</time></trkpt><trkpt lat="44.4204386" lon="9.9431898"><ele>530.0</ele><time>2026-03-22T10:13:53.242Z</time></trkpt><trkpt lat="44.4204697" lon="9.9430944"><ele>524.0</ele><time>2026-03-22T10:13:54.231Z</time></trkpt><trkpt lat="44.4205207" lon="9.9430141"><ele>518.0</ele><time>2026-03-22T10:13:55.233Z</time></trkpt><trkpt lat="44.4205841" lon="9.9429203"><ele>512.0</ele><time>2026-03-22T10:13:56.231Z</time></trkpt><trkpt lat="44.4206301" lon="9.9428115"><ele>506.0</ele><time>2026-03-22T10:13:57.237Z</time></trkpt><trkpt lat="44.4206402" lon="9.9426938"><ele>499.99999999999994</ele><time>2026-03-22T10:13:58.232Z</time></trkpt><trkpt lat="44.420623" lon="9.9425826"><ele>494.0</ele><time>2026-03-22T10:13:59.233Z</time></trkpt><trkpt lat="44.4205478" lon="9.9424746"><ele>500.4</ele><time>2026-03-22T10:14:00.231Z</time></trkpt><trkpt lat="44.420462" lon="9.9423694"><ele>506.79999999999995</ele><time>2026-03-22T10:14:01.234Z</time></trkpt><trkpt lat="44.4203966" lon="9.9422603"><ele>513.2</ele><time>2026-03-22T10:14:02.233Z</time></trkpt><trkpt lat="44.4203424" lon="9.9421376"><ele>519.6</ele><time>2026-03-22T10:14:03.229Z</time></trkpt><trkpt lat="44.4202944" lon="9.9420009"><ele>526.0</ele><time>2026-03-22T10:14:04.309Z</time></trkpt><trkpt lat="44.4202654" lon="9.9418479"><ele>524.0</ele><time>2026-03-22T10:14:05.235Z</time></trkpt><trkpt lat="44.4202599" lon="9.9416865"><ele>522.0</ele><time>2026-03-22T10:14:06.223Z</time></trkpt><trkpt lat="44.4202521" lon="9.9415249"><ele>520.0</ele><time>2026-03-22T10:14:07.224Z</time></trkpt><trkpt lat="44.4202001" lon="9.941368"><ele>518.0</ele><time>2026-03-22T10:14:08.225Z</time></trkpt><trkpt lat="44.4201122" lon="9.941197"><ele>518.0</ele><time>2026-03-22T10:14:09.228Z</time></trkpt><trkpt lat="44.4200467" lon="9.9410112"><ele>518.0</ele><time>2026-03-22T10:14:10.229Z</time></trkpt><trkpt lat="44.4200153" lon="9.9407773"><ele>518.0</ele><time>2026-03-22T10:14:11.23Z</time></trkpt><trkpt lat="44.4200054" lon="9.9405747"><ele>515.25</ele><time>2026-03-22T10:14:12.228Z</time></trkpt><trkpt lat="44.4199826" lon="9.9403636"><ele>512.5</ele><time>2026-03-22T10:14:13.231Z</time></trkpt><trkpt lat="44.4199656" lon="9.9401693"><ele>509.75</ele><time>2026-03-22T10:14:14.231Z</time></trkpt><trkpt lat="44.4199639" lon="9.9399757"><ele>507.0</ele><time>2026-03-22T10:14:15.23Z</time></trkpt><trkpt lat="44.4199587" lon="9.9398077"><ele>505.25</ele><time>2026-03-22T10:14:16.229Z</time></trkpt><trkpt lat="44.4199259" lon="9.9396418"><ele>503.5</ele><time>2026-03-22T10:14:17.231Z</time></trkpt><trkpt lat="44.4198705" lon="9.9394951"><ele>501.75</ele><time>2026-03-22T10:14:18.235Z</time></trkpt><trkpt lat="44.4198356" lon="9.9393592"><ele>500.0</ele><time>2026-03-22T10:14:19.235Z</time></trkpt><trkpt lat="44.419796" lon="9.9392048"><ele>498.5</ele><time>2026-03-22T10:14:20.229Z</time></trkpt><trkpt lat="44.4197503" lon="9.9390543"><ele>497.0</ele><time>2026-03-22T10:14:21.24Z</time></trkpt><trkpt lat="44.41968" lon="9.9388936"><ele>495.5</ele><time>2026-03-22T10:14:22.23Z</time></trkpt><trkpt lat="44.4196031" lon="9.9387249"><ele>494.0</ele><time>2026-03-22T10:14:23.241Z</time></trkpt><trkpt lat="44.4195267" lon="9.9385591"><ele>497.25</ele><time>2026-03-22T10:14:24.243Z</time></trkpt><trkpt lat="44.4194669" lon="9.9383996"><ele>500.5</ele><time>2026-03-22T10:14:25.229Z</time></trkpt><trkpt lat="44.4194429" lon="9.9382371"><ele>503.75</ele><time>2026-03-22T10:14:26.238Z</time></trkpt><trkpt lat="44.4194102" lon="9.9380776"><ele>507.0</ele><time>2026-03-22T10:14:27.241Z</time></trkpt><trkpt lat="44.4193684" lon="9.9379452"><ele>507.0</ele><time>2026-03-22T10:14:28.241Z</time></trkpt><trkpt lat="44.4193047" lon="9.9378294"><ele>507.0</ele><time>2026-03-22T10:14:29.242Z</time></trkpt><trkpt lat="44.4192347" lon="9.9377018"><ele>507.0</ele><time>2026-03-22T10:14:30.243Z</time></trkpt><trkpt lat="44.4191631" lon="9.9375719"><ele>507.0</ele><time>2026-03-22T10:14:31.239Z</time></trkpt><trkpt lat="44.4190877" lon="9.9374485"><ele>507.0</ele><time>2026-03-22T10:14:32.237Z</time></trkpt><trkpt lat="44.4190115" lon="9.93734"><ele>507.00000000000006</ele><time>2026-03-22T10:14:33.236Z</time></trkpt><trkpt lat="44.4189501" lon="9.9372348"><ele>507.00000000000006</ele><time>2026-03-22T10:14:34.239Z</time></trkpt><trkpt lat="44.4188963" lon="9.9371412"><ele>507.0</ele><time>2026-03-22T10:14:35.237Z</time></trkpt><trkpt lat="44.4188444" lon="9.937046"><ele>507.0</ele><time>2026-03-22T10:14:36.235Z</time></trkpt><trkpt lat="44.4187983" lon="9.9369583"><ele>507.0</ele><time>2026-03-22T10:14:37.234Z</time></trkpt><trkpt lat="44.4187638" lon="9.9368691"><ele>507.0</ele><time>2026-03-22T10:14:38.236Z</time></trkpt><trkpt lat="44.4187345" lon="9.9367801"><ele>507.0</ele><time>2026-03-22T10:14:39.24Z</time></trkpt><trkpt lat="44.4187073" lon="9.9366927"><ele>507.0</ele><time>2026-03-22T10:14:40.236Z</time></trkpt><trkpt lat="44.4186679" lon="9.9366129"><ele>507.0</ele><time>2026-03-22T10:14:41.239Z</time></trkpt><trkpt lat="44.4186103" lon="9.9365531"><ele>507.0</ele><time>2026-03-22T10:14:42.246Z</time></trkpt><trkpt lat="44.4185445" lon="9.9365008"><ele>507.0</ele><time>2026-03-22T10:14:43.241Z</time></trkpt><trkpt lat="44.41847" lon="9.9364498"><ele>504.8333333333333</ele><time>2026-03-22T10:14:44.239Z</time></trkpt><trkpt lat="44.418393" lon="9.936406"><ele>502.66666666666663</ele><time>2026-03-22T10:14:45.236Z</time></trkpt><trkpt lat="44.4183128" lon="9.9363634"><ele>500.5</ele><time>2026-03-22T10:14:46.233Z</time></trkpt><trkpt lat="44.418227" lon="9.9363355"><ele>498.3333333333333</ele><time>2026-03-22T10:14:47.234Z</time></trkpt><trkpt lat="44.4181359" lon="9.9363305"><ele>496.16666666666663</ele><time>2026-03-22T10:14:48.231Z</time></trkpt><trkpt lat="44.418055" lon="9.936344"><ele>494.0</ele><time>2026-03-22T10:14:49.231Z</time></trkpt><trkpt lat="44.4179865" lon="9.9363669"><ele>495.6</ele><time>2026-03-22T10:14:50.233Z</time></trkpt><trkpt lat="44.4179213" lon="9.9363892"><ele>497.2</ele><time>2026-03-22T10:14:51.237Z</time></trkpt><trkpt lat="44.4178079" lon="9.9364058"><ele>498.80000000000007</ele><time>2026-03-22T10:14:53.236Z</time></trkpt><trkpt lat="44.4177102" lon="9.9364062"><ele>500.40000000000003</ele><time>2026-03-22T10:14:55.243Z</time></trkpt><trkpt lat="44.4176441" lon="9.9363494"><ele>502.0</ele><time>2026-03-22T10:14:57.233Z</time></trkpt><trkpt lat="44.4175859" lon="9.9362368"><ele>502.00000000000006</ele><time>2026-03-22T10:14:59.241Z</time></trkpt><trkpt lat="44.4175056" lon="9.9360908"><ele>502.0</ele><time>2026-03-22T10:15:01.235Z</time></trkpt><trkpt lat="44.4174664" lon="9.93601"><ele>502.0</ele><time>2026-03-22T10:15:02.246Z</time></trkpt><trkpt lat="44.4174351" lon="9.9359144"><ele>502.0</ele><time>2026-03-22T10:15:03.23Z</time></trkpt><trkpt lat="44.4174208" lon="9.9358089"><ele>502.00000000000006</ele><time>2026-03-22T10:15:04.233Z</time></trkpt><trkpt lat="44.4174135" lon="9.9357128"><ele>502.0</ele><time>2026-03-22T10:15:05.228Z</time></trkpt><trkpt lat="44.4174288" lon="9.9356185"><ele>500.6666666666667</ele><time>2026-03-22T10:15:06.238Z</time></trkpt><trkpt lat="44.4174569" lon="9.935539"><ele>499.33333333333337</ele><time>2026-03-22T10:15:07.23Z</time></trkpt><trkpt lat="44.4175004" lon="9.9354535"><ele>498.0</ele><time>2026-03-22T10:15:08.229Z</time></trkpt><trkpt lat="44.4175553" lon="9.9353477"><ele>496.66666666666663</ele><time>2026-03-22T10:15:10.242Z</time></trkpt><trkpt lat="44.4176072" lon="9.9352605"><ele>495.3333333333333</ele><time>2026-03-22T10:15:12.242Z</time></trkpt><trkpt lat="44.4176398" lon="9.9351798"><ele>494.0</ele><time>2026-03-22T10:15:22.258Z</time></trkpt><trkpt lat="44.4176574" lon="9.9350811"><ele>493.2</ele><time>2026-03-22T10:15:24.237Z</time></trkpt><trkpt lat="44.4176869" lon="9.9348775"><ele>492.4</ele><time>2026-03-22T10:15:26.239Z</time></trkpt><trkpt lat="44.4177108" lon="9.9347383"><ele>491.6</ele><time>2026-03-22T10:15:27.241Z</time></trkpt><trkpt lat="44.4177265" lon="9.9345999"><ele>490.8</ele><time>2026-03-22T10:15:28.244Z</time></trkpt><trkpt lat="44.417752" lon="9.934476"><ele>490.0</ele><time>2026-03-22T10:15:29.247Z</time></trkpt><trkpt lat="44.4177845" lon="9.9343685"><ele>490.00000000000006</ele><time>2026-03-22T10:15:30.24Z</time></trkpt><trkpt lat="44.41783" lon="9.9342837"><ele>490.0</ele><time>2026-03-22T10:15:31.246Z</time></trkpt><trkpt lat="44.4178886" lon="9.9342174"><ele>490.0</ele><time>2026-03-22T10:15:32.24Z</time></trkpt><trkpt lat="44.4179444" lon="9.9341557"><ele>490.0</ele><time>2026-03-22T10:15:33.246Z</time></trkpt><trkpt lat="44.4180155" lon="9.9340834"><ele>490.00000000000006</ele><time>2026-03-22T10:15:34.243Z</time></trkpt><trkpt lat="44.4181006" lon="9.9339931"><ele>490.0</ele><time>2026-03-22T10:15:35.246Z</time></trkpt><trkpt lat="44.4181895" lon="9.9339064"><ele>487.0</ele><time>2026-03-22T10:15:36.237Z</time></trkpt><trkpt lat="44.4182772" lon="9.9338262"><ele>484.0</ele><time>2026-03-22T10:15:37.237Z</time></trkpt><trkpt lat="44.4183484" lon="9.933735"><ele>481.0</ele><time>2026-03-22T10:15:38.238Z</time></trkpt><trkpt lat="44.4184075" lon="9.933628"><ele>478.0</ele><time>2026-03-22T10:15:39.238Z</time></trkpt><trkpt lat="44.4184641" lon="9.9335031"><ele>475.0</ele><time>2026-03-22T10:15:40.242Z</time></trkpt><trkpt lat="44.4185246" lon="9.9333679"><ele>475.0</ele><time>2026-03-22T10:15:41.24Z</time></trkpt><trkpt lat="44.4185848" lon="9.9332141"><ele>475.0</ele><time>2026-03-22T10:15:42.239Z</time></trkpt><trkpt lat="44.4186365" lon="9.933066"><ele>475.0</ele><time>2026-03-22T10:15:43.246Z</time></trkpt><trkpt lat="44.4186787" lon="9.9329202"><ele>475.0</ele><time>2026-03-22T10:15:44.246Z</time></trkpt><trkpt lat="44.4187049" lon="9.9327708"><ele>475.0</ele><time>2026-03-22T10:15:45.24Z</time></trkpt><trkpt lat="44.4187255" lon="9.9326181"><ele>475.0</ele><time>2026-03-22T10:15:46.248Z</time></trkpt><trkpt lat="44.4187384" lon="9.9324643"><ele>475.0</ele><time>2026-03-22T10:15:47.245Z</time></trkpt><trkpt lat="44.4187472" lon="9.9323205"><ele>475.0</ele><time>2026-03-22T10:15:48.251Z</time></trkpt><trkpt lat="44.418756" lon="9.9322055"><ele>475.0</ele><time>2026-03-22T10:15:49.244Z</time></trkpt><trkpt lat="44.4187619" lon="9.9321084"><ele>475.2</ele><time>2026-03-22T10:15:50.242Z</time></trkpt><trkpt lat="44.4187771" lon="9.9320151"><ele>475.4</ele><time>2026-03-22T10:15:51.237Z</time></trkpt><trkpt lat="44.4188286" lon="9.9319458"><ele>475.6</ele><time>2026-03-22T10:15:52.239Z</time></trkpt><trkpt lat="44.4188945" lon="9.9318748"><ele>475.8</ele><time>2026-03-22T10:15:53.234Z</time></trkpt><trkpt lat="44.4189852" lon="9.9318032"><ele>476.0</ele><time>2026-03-22T10:15:54.232Z</time></trkpt><trkpt lat="44.419094" lon="9.9317057"><ele>474.0</ele><time>2026-03-22T10:15:55.232Z</time></trkpt><trkpt lat="44.4192117" lon="9.9316161"><ele>472.0</ele><time>2026-03-22T10:15:56.231Z</time></trkpt><trkpt lat="44.4193222" lon="9.9315232"><ele>470.0</ele><time>2026-03-22T10:15:57.232Z</time></trkpt><trkpt lat="44.4194379" lon="9.9314388"><ele>468.0</ele><time>2026-03-22T10:15:58.233Z</time></trkpt><trkpt lat="44.4195534" lon="9.931372"><ele>464.3333333333333</ele><time>2026-03-22T10:15:59.229Z</time></trkpt><trkpt lat="44.4196588" lon="9.9313207"><ele>460.66666666666663</ele><time>2026-03-22T10:16:00.234Z</time></trkpt><trkpt lat="44.4197331" lon="9.9312728"><ele>457.0</ele><time>2026-03-22T10:16:01.232Z</time></trkpt><trkpt lat="44.4197865" lon="9.9312137"><ele>453.3333333333333</ele><time>2026-03-22T10:16:02.239Z</time></trkpt><trkpt lat="44.4198139" lon="9.9311266"><ele>449.66666666666663</ele><time>2026-03-22T10:16:03.231Z</time></trkpt><trkpt lat="44.4198075" lon="9.9310136"><ele>446.0</ele><time>2026-03-22T10:16:04.235Z</time></trkpt><trkpt lat="44.419786" lon="9.9308833"><ele>446.0</ele><time>2026-03-22T10:16:05.237Z</time></trkpt><trkpt lat="44.4197599" lon="9.9307329"><ele>446.0</ele><time>2026-03-22T10:16:06.238Z</time></trkpt><trkpt lat="44.4197575" lon="9.9305685"><ele>446.0</ele><time>2026-03-22T10:16:07.237Z</time></trkpt><trkpt lat="44.419754" lon="9.9304084"><ele>446.0</ele><time>2026-03-22T10:16:08.233Z</time></trkpt><trkpt lat="44.419734" lon="9.930241"><ele>446.0</ele><time>2026-03-22T10:16:09.235Z</time></trkpt><trkpt lat="44.4197097" lon="9.9300797"><ele>446.0</ele><time>2026-03-22T10:16:10.244Z</time></trkpt><trkpt lat="44.4196994" lon="9.9299319"><ele>446.0</ele><time>2026-03-22T10:16:11.234Z</time></trkpt><trkpt lat="44.419691" lon="9.9297885"><ele>446.0</ele><time>2026-03-22T10:16:12.239Z</time></trkpt><trkpt lat="44.4196912" lon="9.9296462"><ele>446.0</ele><time>2026-03-22T10:16:13.239Z</time></trkpt><trkpt lat="44.4196951" lon="9.9294943"><ele>445.6</ele><time>2026-03-22T10:16:14.231Z</time></trkpt><trkpt lat="44.4196946" lon="9.9293361"><ele>445.20000000000005</ele><time>2026-03-22T10:16:15.241Z</time></trkpt><trkpt lat="44.4196837" lon="9.929183"><ele>444.79999999999995</ele><time>2026-03-22T10:16:16.236Z</time></trkpt><trkpt lat="44.4196678" lon="9.9290236"><ele>444.4</ele><time>2026-03-22T10:16:17.236Z</time></trkpt><trkpt lat="44.4196571" lon="9.928875"><ele>444.0</ele><time>2026-03-22T10:16:18.242Z</time></trkpt><trkpt lat="44.4196523" lon="9.9287433"><ele>443.8333333333333</ele><time>2026-03-22T10:16:19.24Z</time></trkpt><trkpt lat="44.4196677" lon="9.9286286"><ele>443.66666666666663</ele><time>2026-03-22T10:16:20.237Z</time></trkpt><trkpt lat="44.4197098" lon="9.9285432"><ele>443.5</ele><time>2026-03-22T10:16:21.243Z</time></trkpt><trkpt lat="44.4197647" lon="9.9284896"><ele>443.3333333333333</ele><time>2026-03-22T10:16:22.239Z</time></trkpt><trkpt lat="44.4198506" lon="9.9284466"><ele>443.16666666666663</ele><time>2026-03-22T10:16:23.237Z</time></trkpt><trkpt lat="44.419974" lon="9.928406"><ele>443.0</ele><time>2026-03-22T10:16:24.238Z</time></trkpt><trkpt lat="44.4201031" lon="9.928368"><ele>443.0</ele><time>2026-03-22T10:16:25.241Z</time></trkpt><trkpt lat="44.4202287" lon="9.928349"><ele>442.99999999999994</ele><time>2026-03-22T10:16:26.228Z</time></trkpt><trkpt lat="44.4203279" lon="9.9283022"><ele>442.99999999999994</ele><time>2026-03-22T10:16:27.239Z</time></trkpt><trkpt lat="44.4204013" lon="9.928245"><ele>443.0</ele><time>2026-03-22T10:16:28.241Z</time></trkpt><trkpt lat="44.4204587" lon="9.9281756"><ele>443.0</ele><time>2026-03-22T10:16:29.233Z</time></trkpt><trkpt lat="44.4205033" lon="9.9280934"><ele>440.79999999999995</ele><time>2026-03-22T10:16:30.239Z</time></trkpt><trkpt lat="44.420536" lon="9.9279972"><ele>438.59999999999997</ele><time>2026-03-22T10:16:31.233Z</time></trkpt><trkpt lat="44.4205639" lon="9.9278813"><ele>436.40000000000003</ele><time>2026-03-22T10:16:32.232Z</time></trkpt><trkpt lat="44.42058" lon="9.927735"><ele>434.20000000000005</ele><time>2026-03-22T10:16:33.239Z</time></trkpt><trkpt lat="44.4205816" lon="9.9275513"><ele>432.0</ele><time>2026-03-22T10:16:34.241Z</time></trkpt><trkpt lat="44.4205732" lon="9.9273577"><ele>432.0</ele><time>2026-03-22T10:16:35.241Z</time></trkpt><trkpt lat="44.4205709" lon="9.9271712"><ele>432.0</ele><time>2026-03-22T10:16:36.245Z</time></trkpt><trkpt lat="44.4205733" lon="9.9269844"><ele>432.0</ele><time>2026-03-22T10:16:37.243Z</time></trkpt><trkpt lat="44.4205777" lon="9.92679"><ele>432.0</ele><time>2026-03-22T10:16:38.243Z</time></trkpt><trkpt lat="44.4205762" lon="9.926578"><ele>432.0</ele><time>2026-03-22T10:16:39.24Z</time></trkpt><trkpt lat="44.4205695" lon="9.9263763"><ele>432.0</ele><time>2026-03-22T10:16:40.249Z</time></trkpt><trkpt lat="44.4205608" lon="9.9262103"><ele>432.0</ele><time>2026-03-22T10:16:41.244Z</time></trkpt><trkpt lat="44.4205625" lon="9.926061"><ele>432.0</ele><time>2026-03-22T10:16:42.239Z</time></trkpt><trkpt lat="44.4205646" lon="9.9259317"><ele>432.0</ele><time>2026-03-22T10:16:43.247Z</time></trkpt><trkpt lat="44.4205663" lon="9.9258257"><ele>432.00000000000006</ele><time>2026-03-22T10:16:44.238Z</time></trkpt><trkpt lat="44.4206202" lon="9.9257104"><ele>432.00000000000006</ele><time>2026-03-22T10:16:46.232Z</time></trkpt><trkpt lat="44.4206912" lon="9.9257043"><ele>432.0</ele><time>2026-03-22T10:16:48.242Z</time></trkpt><trkpt lat="44.4207208" lon="9.9258988"><ele>432.0</ele><time>2026-03-22T10:16:50.231Z</time></trkpt><trkpt lat="44.4207207" lon="9.9260634"><ele>432.0</ele><time>2026-03-22T10:16:51.241Z</time></trkpt><trkpt lat="44.420764" lon="9.9262119"><ele>432.0</ele><time>2026-03-22T10:16:52.235Z</time></trkpt><trkpt lat="44.4208474" lon="9.9263342"><ele>432.0</ele><time>2026-03-22T10:16:53.227Z</time></trkpt><trkpt lat="44.4209576" lon="9.9264238"><ele>432.0</ele><time>2026-03-22T10:16:54.242Z</time></trkpt><trkpt lat="44.4210987" lon="9.9264809"><ele>432.0</ele><time>2026-03-22T10:16:55.233Z</time></trkpt><trkpt lat="44.4212465" lon="9.9265191"><ele>432.0</ele><time>2026-03-22T10:16:56.223Z</time></trkpt><trkpt lat="44.4213701" lon="9.9265822"><ele>432.0</ele><time>2026-03-22T10:16:57.239Z</time></trkpt><trkpt lat="44.4214958" lon="9.9266183"><ele>432.0</ele><time>2026-03-22T10:16:58.228Z</time></trkpt><trkpt lat="44.4215974" lon="9.9266787"><ele>430.1666666666667</ele><time>2026-03-22T10:16:59.227Z</time></trkpt><trkpt lat="44.4216995" lon="9.9267279"><ele>428.33333333333337</ele><time>2026-03-22T10:17:00.235Z</time></trkpt><trkpt lat="44.4217867" lon="9.9267806"><ele>426.5</ele><time>2026-03-22T10:17:01.229Z</time></trkpt><trkpt lat="44.4218425" lon="9.9268722"><ele>424.6666666666667</ele><time>2026-03-22T10:17:02.233Z</time></trkpt><trkpt lat="44.4218583" lon="9.9269817"><ele>422.83333333333337</ele><time>2026-03-22T10:17:03.243Z</time></trkpt><trkpt lat="44.4218589" lon="9.9270781"><ele>421.0</ele><time>2026-03-22T10:17:04.309Z</time></trkpt><trkpt lat="44.421914" lon="9.9271724"><ele>421.0</ele><time>2026-03-22T10:17:06.234Z</time></trkpt><trkpt lat="44.4219804" lon="9.927052"><ele>421.0</ele><time>2026-03-22T10:17:08.233Z</time></trkpt><trkpt lat="44.4219711" lon="9.9269376"><ele>421.0</ele><time>2026-03-22T10:17:09.227Z</time></trkpt><trkpt lat="44.4219423" lon="9.9267991"><ele>421.0</ele><time>2026-03-22T10:17:10.237Z</time></trkpt><trkpt lat="44.4218881" lon="9.9266238"><ele>421.0</ele><time>2026-03-22T10:17:11.234Z</time></trkpt><trkpt lat="44.4218321" lon="9.9264363"><ele>420.6666666666667</ele><time>2026-03-22T10:17:12.233Z</time></trkpt><trkpt lat="44.4217706" lon="9.9262532"><ele>420.33333333333337</ele><time>2026-03-22T10:17:13.232Z</time></trkpt><trkpt lat="44.4216978" lon="9.92606"><ele>420.0</ele><time>2026-03-22T10:17:14.232Z</time></trkpt><trkpt lat="44.4216197" lon="9.92585"><ele>417.75</ele><time>2026-03-22T10:17:15.227Z</time></trkpt><trkpt lat="44.4215458" lon="9.9256813"><ele>415.5</ele><time>2026-03-22T10:17:16.238Z</time></trkpt><trkpt lat="44.4214856" lon="9.925521"><ele>413.25</ele><time>2026-03-22T10:17:17.233Z</time></trkpt><trkpt lat="44.421446" lon="9.9253468"><ele>411.0</ele><time>2026-03-22T10:17:18.24Z</time></trkpt><trkpt lat="44.4214078" lon="9.9251901"><ele>409.4</ele><time>2026-03-22T10:17:19.234Z</time></trkpt><trkpt lat="44.4214372" lon="9.9250375"><ele>407.8</ele><time>2026-03-22T10:17:20.24Z</time></trkpt><trkpt lat="44.4214607" lon="9.9248871"><ele>406.2</ele><time>2026-03-22T10:17:21.238Z</time></trkpt><trkpt lat="44.4214796" lon="9.9247423"><ele>404.59999999999997</ele><time>2026-03-22T10:17:22.239Z</time></trkpt><trkpt lat="44.4214868" lon="9.9245995"><ele>403.0</ele><time>2026-03-22T10:17:23.238Z</time></trkpt><trkpt lat="44.4214859" lon="9.9244587"><ele>403.0</ele><time>2026-03-22T10:17:24.232Z</time></trkpt><trkpt lat="44.4215015" lon="9.9243168"><ele>403.0</ele><time>2026-03-22T10:17:25.238Z</time></trkpt><trkpt lat="44.4215231" lon="9.9241682"><ele>403.0</ele><time>2026-03-22T10:17:26.233Z</time></trkpt><trkpt lat="44.4215562" lon="9.9240132"><ele>403.0</ele><time>2026-03-22T10:17:27.241Z</time></trkpt><trkpt lat="44.4215976" lon="9.9238607"><ele>403.0</ele><time>2026-03-22T10:17:28.246Z</time></trkpt><trkpt lat="44.4216472" lon="9.9237153"><ele>402.4</ele><time>2026-03-22T10:17:29.245Z</time></trkpt><trkpt lat="44.4216983" lon="9.9235741"><ele>401.79999999999995</ele><time>2026-03-22T10:17:30.241Z</time></trkpt><trkpt lat="44.4217454" lon="9.9234398"><ele>401.2</ele><time>2026-03-22T10:17:31.244Z</time></trkpt><trkpt lat="44.4217852" lon="9.923308"><ele>400.6</ele><time>2026-03-22T10:17:32.243Z</time></trkpt><trkpt lat="44.4218271" lon="9.9231995"><ele>400.0</ele><time>2026-03-22T10:17:33.24Z</time></trkpt><trkpt lat="44.4218689" lon="9.9231142"><ele>400.00000000000006</ele><time>2026-03-22T10:17:34.238Z</time></trkpt><trkpt lat="44.4219243" lon="9.9230527"><ele>400.0</ele><time>2026-03-22T10:17:35.234Z</time></trkpt><trkpt lat="44.421985" lon="9.9230164"><ele>400.0</ele><time>2026-03-22T10:17:36.234Z</time></trkpt><trkpt lat="44.4220605" lon="9.9230152"><ele>400.0</ele><time>2026-03-22T10:17:37.238Z</time></trkpt><trkpt lat="44.422142" lon="9.9230332"><ele>400.00000000000006</ele><time>2026-03-22T10:17:38.233Z</time></trkpt><trkpt lat="44.4222336" lon="9.9230776"><ele>400.0</ele><time>2026-03-22T10:17:39.251Z</time></trkpt><trkpt lat="44.4223237" lon="9.9231649"><ele>398.2</ele><time>2026-03-22T10:17:40.241Z</time></trkpt><trkpt lat="44.4224105" lon="9.9232634"><ele>396.4</ele><time>2026-03-22T10:17:41.253Z</time></trkpt><trkpt lat="44.4224947" lon="9.9233604"><ele>394.6</ele><time>2026-03-22T10:17:42.242Z</time></trkpt><trkpt lat="44.4225748" lon="9.9234422"><ele>392.8</ele><time>2026-03-22T10:17:43.253Z</time></trkpt><trkpt lat="44.4226506" lon="9.9235217"><ele>391.0</ele><time>2026-03-22T10:17:44.243Z</time></trkpt><trkpt lat="44.4227225" lon="9.9235951"><ele>391.00000000000006</ele><time>2026-03-22T10:17:45.249Z</time></trkpt><trkpt lat="44.4227967" lon="9.9236605"><ele>391.0</ele><time>2026-03-22T10:17:46.241Z</time></trkpt><trkpt lat="44.4228785" lon="9.9236982"><ele>391.0</ele><time>2026-03-22T10:17:47.239Z</time></trkpt><trkpt lat="44.4229635" lon="9.9237086"><ele>391.0</ele><time>2026-03-22T10:17:48.24Z</time></trkpt><trkpt lat="44.4230511" lon="9.9237029"><ele>391.00000000000006</ele><time>2026-03-22T10:17:49.235Z</time></trkpt><trkpt lat="44.4231393" lon="9.9236759"><ele>391.0</ele><time>2026-03-22T10:17:50.242Z</time></trkpt><trkpt lat="44.4232221" lon="9.9236158"><ele>391.4</ele><time>2026-03-22T10:17:51.242Z</time></trkpt><trkpt lat="44.4232999" lon="9.9235359"><ele>391.8</ele><time>2026-03-22T10:17:52.238Z</time></trkpt><trkpt lat="44.4233673" lon="9.9234444"><ele>392.2</ele><time>2026-03-22T10:17:53.242Z</time></trkpt><trkpt lat="44.4234276" lon="9.9233453"><ele>392.59999999999997</ele><time>2026-03-22T10:17:54.245Z</time></trkpt><trkpt lat="44.4234896" lon="9.9232422"><ele>393.0</ele><time>2026-03-22T10:17:55.243Z</time></trkpt><trkpt lat="44.4235597" lon="9.9231369"><ele>392.0</ele><time>2026-03-22T10:17:56.241Z</time></trkpt><trkpt lat="44.4236339" lon="9.923023"><ele>391.0</ele><time>2026-03-22T10:17:57.251Z</time></trkpt><trkpt lat="44.4237061" lon="9.9229169"><ele>390.0</ele><time>2026-03-22T10:17:58.241Z</time></trkpt><trkpt lat="44.4237642" lon="9.9228156"><ele>389.0</ele><time>2026-03-22T10:17:59.24Z</time></trkpt><trkpt lat="44.4238205" lon="9.9227237"><ele>388.0</ele><time>2026-03-22T10:18:00.247Z</time></trkpt><trkpt lat="44.4238672" lon="9.9226442"><ele>388.00000000000006</ele><time>2026-03-22T10:18:01.249Z</time></trkpt><trkpt lat="44.4239148" lon="9.9225738"><ele>388.0</ele><time>2026-03-22T10:18:02.243Z</time></trkpt><trkpt lat="44.4239629" lon="9.9225111"><ele>388.0</ele><time>2026-03-22T10:18:03.242Z</time></trkpt><trkpt lat="44.4240514" lon="9.9223957"><ele>388.0</ele><time>2026-03-22T10:18:05.242Z</time></trkpt><trkpt lat="44.4241275" lon="9.9222752"><ele>388.00000000000006</ele><time>2026-03-22T10:18:07.243Z</time></trkpt><trkpt lat="44.42417" lon="9.9222"><ele>388.0</ele><time>2026-03-22T10:18:08.24Z</time></trkpt><trkpt lat="44.4242365" lon="9.9220699"><ele>388.1666666666667</ele><time>2026-03-22T10:18:10.229Z</time></trkpt><trkpt lat="44.4242976" lon="9.9219644"><ele>388.33333333333337</ele><time>2026-03-22T10:18:12.232Z</time></trkpt><trkpt lat="44.4243486" lon="9.9218934"><ele>388.5</ele><time>2026-03-22T10:18:14.234Z</time></trkpt><trkpt lat="44.4244018" lon="9.9217987"><ele>388.66666666666663</ele><time>2026-03-22T10:18:20.238Z</time></trkpt><trkpt lat="44.4244501" lon="9.9217107"><ele>388.8333333333333</ele><time>2026-03-22T10:18:23.241Z</time></trkpt><trkpt lat="44.4243746" lon="9.9217523"><ele>389.0</ele><time>2026-03-22T10:18:30.236Z</time></trkpt><trkpt lat="44.4242986" lon="9.9218519"><ele>389.0</ele><time>2026-03-22T10:26:44.242Z</time></trkpt><trkpt lat="44.4243538" lon="9.9218069"><ele>389.0</ele><time>2026-03-22T10:27:05.238Z</time></trkpt><trkpt lat="44.424406" lon="9.9217282"><ele>389.0</ele><time>2026-03-22T10:30:52.327Z</time></trkpt><trkpt lat="44.4244173" lon="9.9215906"><ele>389.0</ele><time>2026-03-22T10:30:54.249Z</time></trkpt><trkpt lat="44.4243934" lon="9.9214618"><ele>389.0</ele><time>2026-03-22T10:30:55.255Z</time></trkpt><trkpt lat="44.4243508" lon="9.9212966"><ele>389.4</ele><time>2026-03-22T10:30:56.24Z</time></trkpt><trkpt lat="44.4243165" lon="9.9211513"><ele>389.79999999999995</ele><time>2026-03-22T10:30:57.25Z</time></trkpt><trkpt lat="44.4242705" lon="9.9210281"><ele>390.20000000000005</ele><time>2026-03-22T10:30:58.244Z</time></trkpt><trkpt lat="44.4242369" lon="9.920901"><ele>390.6</ele><time>2026-03-22T10:30:59.239Z</time></trkpt><trkpt lat="44.4241998" lon="9.9207866"><ele>391.0</ele><time>2026-03-22T10:31:00.239Z</time></trkpt><trkpt lat="44.4241517" lon="9.9206612"><ele>391.25</ele><time>2026-03-22T10:31:01.242Z</time></trkpt><trkpt lat="44.4240812" lon="9.9205284"><ele>391.5</ele><time>2026-03-22T10:31:02.239Z</time></trkpt><trkpt lat="44.4240008" lon="9.9203941"><ele>391.75</ele><time>2026-03-22T10:31:03.234Z</time></trkpt><trkpt lat="44.4239142" lon="9.9202505"><ele>392.0</ele><time>2026-03-22T10:31:04.239Z</time></trkpt><trkpt lat="44.4238254" lon="9.9201063"><ele>390.8</ele><time>2026-03-22T10:31:05.238Z</time></trkpt><trkpt lat="44.4237426" lon="9.9199744"><ele>389.6</ele><time>2026-03-22T10:31:06.237Z</time></trkpt><trkpt lat="44.4236724" lon="9.9198485"><ele>388.40000000000003</ele><time>2026-03-22T10:31:07.25Z</time></trkpt><trkpt lat="44.4236074" lon="9.9197284"><ele>387.20000000000005</ele><time>2026-03-22T10:31:08.241Z</time></trkpt><trkpt lat="44.4235542" lon="9.9196166"><ele>386.0</ele><time>2026-03-22T10:31:09.237Z</time></trkpt><trkpt lat="44.4235014" lon="9.9194994"><ele>386.0</ele><time>2026-03-22T10:31:10.248Z</time></trkpt><trkpt lat="44.4234613" lon="9.9193794"><ele>386.0</ele><time>2026-03-22T10:31:11.241Z</time></trkpt><trkpt lat="44.4234185" lon="9.9192451"><ele>386.0</ele><time>2026-03-22T10:31:12.249Z</time></trkpt><trkpt lat="44.4233702" lon="9.9190924"><ele>386.0</ele><time>2026-03-22T10:31:13.243Z</time></trkpt><trkpt lat="44.4233299" lon="9.9189298"><ele>386.0</ele><time>2026-03-22T10:31:14.244Z</time></trkpt><trkpt lat="44.4232956" lon="9.9187535"><ele>385.75</ele><time>2026-03-22T10:31:15.243Z</time></trkpt><trkpt lat="44.4232437" lon="9.9185723"><ele>385.5</ele><time>2026-03-22T10:31:16.246Z</time></trkpt><trkpt lat="44.4231713" lon="9.9184161"><ele>385.25</ele><time>2026-03-22T10:31:17.248Z</time></trkpt><trkpt lat="44.4230819" lon="9.9182712"><ele>385.0</ele><time>2026-03-22T10:31:18.246Z</time></trkpt><trkpt lat="44.4229798" lon="9.918151"><ele>385.0</ele><time>2026-03-22T10:31:19.246Z</time></trkpt><trkpt lat="44.4229048" lon="9.9180212"><ele>385.0</ele><time>2026-03-22T10:31:20.248Z</time></trkpt><trkpt lat="44.4228331" lon="9.9178975"><ele>385.0</ele><time>2026-03-22T10:31:21.247Z</time></trkpt><trkpt lat="44.4227627" lon="9.9177734"><ele>385.0</ele><time>2026-03-22T10:31:22.244Z</time></trkpt><trkpt lat="44.4226932" lon="9.9176647"><ele>387.0</ele><time>2026-03-22T10:31:23.243Z</time></trkpt><trkpt lat="44.4226325" lon="9.9175398"><ele>389.0</ele><time>2026-03-22T10:31:24.244Z</time></trkpt><trkpt lat="44.4225649" lon="9.9174243"><ele>391.0</ele><time>2026-03-22T10:31:25.245Z</time></trkpt><trkpt lat="44.4224969" lon="9.917303"><ele>393.0</ele><time>2026-03-22T10:31:26.243Z</time></trkpt><trkpt lat="44.4224306" lon="9.9171879"><ele>395.0</ele><time>2026-03-22T10:31:27.244Z</time></trkpt><trkpt lat="44.4223707" lon="9.9170609"><ele>395.0</ele><time>2026-03-22T10:31:28.247Z</time></trkpt><trkpt lat="44.4223108" lon="9.9169382"><ele>395.0</ele><time>2026-03-22T10:31:29.238Z</time></trkpt><trkpt lat="44.4222383" lon="9.9168123"><ele>395.0</ele><time>2026-03-22T10:31:30.248Z</time></trkpt><trkpt lat="44.4221554" lon="9.9166784"><ele>395.0</ele><time>2026-03-22T10:31:31.252Z</time></trkpt><trkpt lat="44.4220636" lon="9.9165432"><ele>393.0</ele><time>2026-03-22T10:31:32.242Z</time></trkpt><trkpt lat="44.4219755" lon="9.9164025"><ele>391.0</ele><time>2026-03-22T10:31:33.246Z</time></trkpt><trkpt lat="44.421884" lon="9.9162734"><ele>389.0</ele><time>2026-03-22T10:31:34.247Z</time></trkpt><trkpt lat="44.4217922" lon="9.9161383"><ele>387.0</ele><time>2026-03-22T10:31:35.249Z</time></trkpt><trkpt lat="44.4217067" lon="9.9160097"><ele>390.0</ele><time>2026-03-22T10:31:36.241Z</time></trkpt><trkpt lat="44.4216363" lon="9.9158769"><ele>393.0</ele><time>2026-03-22T10:31:37.247Z</time></trkpt><trkpt lat="44.4215738" lon="9.915759"><ele>396.0</ele><time>2026-03-22T10:31:38.247Z</time></trkpt><trkpt lat="44.4215145" lon="9.9156471"><ele>399.0</ele><time>2026-03-22T10:31:39.242Z</time></trkpt><trkpt lat="44.421449" lon="9.9155338"><ele>402.0</ele><time>2026-03-22T10:31:40.25Z</time></trkpt><trkpt lat="44.4213869" lon="9.9153988"><ele>402.0</ele><time>2026-03-22T10:31:41.247Z</time></trkpt><trkpt lat="44.4213382" lon="9.9152616"><ele>402.0</ele><time>2026-03-22T10:31:42.243Z</time></trkpt><trkpt lat="44.4213064" lon="9.915116"><ele>402.0</ele><time>2026-03-22T10:31:43.247Z</time></trkpt><trkpt lat="44.4212795" lon="9.9149573"><ele>402.0</ele><time>2026-03-22T10:31:44.242Z</time></trkpt><trkpt lat="44.4212532" lon="9.9147799"><ele>403.5</ele><time>2026-03-22T10:31:45.232Z</time></trkpt><trkpt lat="44.4212312" lon="9.9145944"><ele>405.0</ele><time>2026-03-22T10:31:46.321Z</time></trkpt><trkpt lat="44.4212065" lon="9.9144159"><ele>406.5</ele><time>2026-03-22T10:31:47.228Z</time></trkpt><trkpt lat="44.4211821" lon="9.9142563"><ele>408.0</ele><time>2026-03-22T10:31:48.247Z</time></trkpt><trkpt lat="44.4211567" lon="9.9141169"><ele>408.0</ele><time>2026-03-22T10:31:49.231Z</time></trkpt><trkpt lat="44.4211157" lon="9.9140116"><ele>408.0</ele><time>2026-03-22T10:31:50.236Z</time></trkpt><trkpt lat="44.4210466" lon="9.9139303"><ele>408.0</ele><time>2026-03-22T10:31:51.222Z</time></trkpt><trkpt lat="44.4209585" lon="9.9138651"><ele>408.0</ele><time>2026-03-22T10:31:52.229Z</time></trkpt><trkpt lat="44.4208537" lon="9.9138094"><ele>408.0</ele><time>2026-03-22T10:31:53.233Z</time></trkpt><trkpt lat="44.4207504" lon="9.9137337"><ele>408.0</ele><time>2026-03-22T10:31:54.227Z</time></trkpt><trkpt lat="44.4206485" lon="9.9136468"><ele>408.0</ele><time>2026-03-22T10:31:55.227Z</time></trkpt><trkpt lat="44.4205535" lon="9.9135371"><ele>408.0</ele><time>2026-03-22T10:31:56.233Z</time></trkpt><trkpt lat="44.4204717" lon="9.9134219"><ele>408.0</ele><time>2026-03-22T10:31:57.239Z</time></trkpt><trkpt lat="44.4203805" lon="9.9133351"><ele>410.25</ele><time>2026-03-22T10:31:58.225Z</time></trkpt><trkpt lat="44.4202708" lon="9.9132655"><ele>412.5</ele><time>2026-03-22T10:31:59.229Z</time></trkpt><trkpt lat="44.4201499" lon="9.9132253"><ele>414.75</ele><time>2026-03-22T10:32:00.237Z</time></trkpt><trkpt lat="44.4200354" lon="9.9131999"><ele>417.0</ele><time>2026-03-22T10:32:01.235Z</time></trkpt><trkpt lat="44.4199284" lon="9.913176"><ele>417.0</ele><time>2026-03-22T10:32:02.239Z</time></trkpt><trkpt lat="44.419841" lon="9.9131521"><ele>417.0</ele><time>2026-03-22T10:32:03.231Z</time></trkpt><trkpt lat="44.419761" lon="9.9131638"><ele>417.0</ele><time>2026-03-22T10:32:04.229Z</time></trkpt><trkpt lat="44.419705" lon="9.9132261"><ele>417.0</ele><time>2026-03-22T10:32:05.234Z</time></trkpt><trkpt lat="44.4196449" lon="9.9133236"><ele>417.0</ele><time>2026-03-22T10:32:06.223Z</time></trkpt><trkpt lat="44.4195759" lon="9.9134308"><ele>417.0</ele><time>2026-03-22T10:32:07.231Z</time></trkpt><trkpt lat="44.4194823" lon="9.9135284"><ele>409.0</ele><time>2026-03-22T10:32:08.233Z</time></trkpt><trkpt lat="44.4193719" lon="9.9135942"><ele>401.0</ele><time>2026-03-22T10:32:09.234Z</time></trkpt><trkpt lat="44.4192417" lon="9.9136258"><ele>393.0</ele><time>2026-03-22T10:32:10.243Z</time></trkpt><trkpt lat="44.4191164" lon="9.9136488"><ele>385.0</ele><time>2026-03-22T10:32:11.232Z</time></trkpt><trkpt lat="44.4189944" lon="9.9136513"><ele>385.0</ele><time>2026-03-22T10:32:12.234Z</time></trkpt><trkpt lat="44.4188786" lon="9.9136301"><ele>385.0</ele><time>2026-03-22T10:32:13.239Z</time></trkpt><trkpt lat="44.4187606" lon="9.9135511"><ele>385.0</ele><time>2026-03-22T10:32:14.231Z</time></trkpt><trkpt lat="44.418644" lon="9.913437"><ele>385.0</ele><time>2026-03-22T10:32:15.239Z</time></trkpt><trkpt lat="44.4185453" lon="9.9132993"><ele>386.75</ele><time>2026-03-22T10:32:16.233Z</time></trkpt><trkpt lat="44.4184619" lon="9.9131369"><ele>388.5</ele><time>2026-03-22T10:32:17.236Z</time></trkpt><trkpt lat="44.418395" lon="9.912974"><ele>390.25</ele><time>2026-03-22T10:32:18.233Z</time></trkpt><trkpt lat="44.418335" lon="9.9128002"><ele>392.0</ele><time>2026-03-22T10:32:19.234Z</time></trkpt><trkpt lat="44.4182654" lon="9.9126409"><ele>390.25</ele><time>2026-03-22T10:32:20.238Z</time></trkpt><trkpt lat="44.4181787" lon="9.9124992"><ele>388.5</ele><time>2026-03-22T10:32:21.235Z</time></trkpt><trkpt lat="44.4180766" lon="9.9123661"><ele>386.75</ele><time>2026-03-22T10:32:22.234Z</time></trkpt><trkpt lat="44.4180074" lon="9.9122114"><ele>385.0</ele><time>2026-03-22T10:32:23.228Z</time></trkpt><trkpt lat="44.4179733" lon="9.9120518"><ele>385.0</ele><time>2026-03-22T10:32:24.229Z</time></trkpt><trkpt lat="44.4179217" lon="9.9119239"><ele>385.0</ele><time>2026-03-22T10:32:25.226Z</time></trkpt><trkpt lat="44.4178464" lon="9.9118195"><ele>385.0</ele><time>2026-03-22T10:32:26.228Z</time></trkpt><trkpt lat="44.4177656" lon="9.9117542"><ele>385.0</ele><time>2026-03-22T10:32:27.225Z</time></trkpt><trkpt lat="44.4176629" lon="9.9117142"><ele>385.0</ele><time>2026-03-22T10:32:28.228Z</time></trkpt><trkpt lat="44.4175561" lon="9.9116641"><ele>395.0</ele><time>2026-03-22T10:32:29.235Z</time></trkpt><trkpt lat="44.4174666" lon="9.9115951"><ele>405.0</ele><time>2026-03-22T10:32:30.234Z</time></trkpt><trkpt lat="44.4173887" lon="9.9115002"><ele>415.0</ele><time>2026-03-22T10:32:31.225Z</time></trkpt><trkpt lat="44.417314" lon="9.9113693"><ele>425.0</ele><time>2026-03-22T10:32:32.238Z</time></trkpt><trkpt lat="44.4172421" lon="9.9112035"><ele>425.0</ele><time>2026-03-22T10:32:33.231Z</time></trkpt><trkpt lat="44.4171767" lon="9.9110396"><ele>425.0</ele><time>2026-03-22T10:32:34.233Z</time></trkpt><trkpt lat="44.4171107" lon="9.9108898"><ele>425.0</ele><time>2026-03-22T10:32:35.227Z</time></trkpt><trkpt lat="44.417061" lon="9.9107524"><ele>425.0</ele><time>2026-03-22T10:32:36.231Z</time></trkpt><trkpt lat="44.4170331" lon="9.9106163"><ele>425.16666666666663</ele><time>2026-03-22T10:32:37.222Z</time></trkpt><trkpt lat="44.4170329" lon="9.9104882"><ele>425.3333333333333</ele><time>2026-03-22T10:32:38.229Z</time></trkpt><trkpt lat="44.4170746" lon="9.9103618"><ele>425.5</ele><time>2026-03-22T10:32:39.234Z</time></trkpt><trkpt lat="44.4171123" lon="9.9102364"><ele>425.66666666666663</ele><time>2026-03-22T10:32:40.229Z</time></trkpt><trkpt lat="44.4171094" lon="9.9101401"><ele>425.8333333333333</ele><time>2026-03-22T10:32:41.233Z</time></trkpt><trkpt lat="44.4170519" lon="9.9100962"><ele>426.0</ele><time>2026-03-22T10:32:42.224Z</time></trkpt><trkpt lat="44.4169787" lon="9.9100712"><ele>419.0</ele><time>2026-03-22T10:32:43.23Z</time></trkpt><trkpt lat="44.416884" lon="9.9100996"><ele>412.0</ele><time>2026-03-22T10:32:44.222Z</time></trkpt><trkpt lat="44.4167708" lon="9.9101639"><ele>405.0</ele><time>2026-03-22T10:32:45.23Z</time></trkpt><trkpt lat="44.4166365" lon="9.9102268"><ele>398.0</ele><time>2026-03-22T10:32:46.238Z</time></trkpt><trkpt lat="44.4165002" lon="9.9102845"><ele>398.0</ele><time>2026-03-22T10:32:47.229Z</time></trkpt><trkpt lat="44.4163732" lon="9.9103355"><ele>398.0</ele><time>2026-03-22T10:32:48.234Z</time></trkpt><trkpt lat="44.4162655" lon="9.9103689"><ele>398.0</ele><time>2026-03-22T10:32:49.228Z</time></trkpt><trkpt lat="44.4161665" lon="9.9103664"><ele>398.0</ele><time>2026-03-22T10:32:50.235Z</time></trkpt><trkpt lat="44.4160665" lon="9.910315"><ele>398.0</ele><time>2026-03-22T10:32:51.234Z</time></trkpt><trkpt lat="44.4159862" lon="9.9102162"><ele>399.99999999999994</ele><time>2026-03-22T10:32:52.225Z</time></trkpt><trkpt lat="44.415916" lon="9.9101152"><ele>402.0</ele><time>2026-03-22T10:32:53.233Z</time></trkpt><trkpt lat="44.4158414" lon="9.9100534"><ele>404.0</ele><time>2026-03-22T10:32:54.233Z</time></trkpt><trkpt lat="44.4157662" lon="9.9100544"><ele>406.0</ele><time>2026-03-22T10:32:55.224Z</time></trkpt><trkpt lat="44.4156801" lon="9.9100862"><ele>407.99999999999994</ele><time>2026-03-22T10:32:56.232Z</time></trkpt><trkpt lat="44.4155868" lon="9.9101276"><ele>410.0</ele><time>2026-03-22T10:32:57.23Z</time></trkpt><trkpt lat="44.4154904" lon="9.9101615"><ele>402.75</ele><time>2026-03-22T10:32:58.315Z</time></trkpt><trkpt lat="44.4153818" lon="9.9101601"><ele>395.5</ele><time>2026-03-22T10:32:59.234Z</time></trkpt><trkpt lat="44.4152648" lon="9.9101245"><ele>388.25</ele><time>2026-03-22T10:33:00.234Z</time></trkpt><trkpt lat="44.4151524" lon="9.9100354"><ele>381.0</ele><time>2026-03-22T10:33:01.232Z</time></trkpt><trkpt lat="44.415067" lon="9.9099035"><ele>381.0</ele><time>2026-03-22T10:33:02.235Z</time></trkpt><trkpt lat="44.4149914" lon="9.9097226"><ele>381.0</ele><time>2026-03-22T10:33:03.239Z</time></trkpt><trkpt lat="44.4149336" lon="9.9095079"><ele>381.0</ele><time>2026-03-22T10:33:04.229Z</time></trkpt><trkpt lat="44.4148647" lon="9.9092542"><ele>386.66666666666663</ele><time>2026-03-22T10:33:05.225Z</time></trkpt><trkpt lat="44.4147899" lon="9.9090356"><ele>392.3333333333333</ele><time>2026-03-22T10:33:06.224Z</time></trkpt><trkpt lat="44.4146821" lon="9.908856"><ele>398.0</ele><time>2026-03-22T10:33:07.228Z</time></trkpt><trkpt lat="44.4146063" lon="9.9086719"><ele>390.66666666666663</ele><time>2026-03-22T10:33:08.233Z</time></trkpt><trkpt lat="44.4145126" lon="9.9085028"><ele>383.3333333333333</ele><time>2026-03-22T10:33:09.228Z</time></trkpt><trkpt lat="44.4144062" lon="9.9083441"><ele>376.0</ele><time>2026-03-22T10:33:10.23Z</time></trkpt><trkpt lat="44.4143111" lon="9.9081843"><ele>376.0</ele><time>2026-03-22T10:33:11.223Z</time></trkpt><trkpt lat="44.4142227" lon="9.9080356"><ele>376.0</ele><time>2026-03-22T10:33:12.232Z</time></trkpt><trkpt lat="44.4141314" lon="9.9079135"><ele>376.0</ele><time>2026-03-22T10:33:13.227Z</time></trkpt><trkpt lat="44.414037" lon="9.9078007"><ele>376.0</ele><time>2026-03-22T10:33:14.229Z</time></trkpt><trkpt lat="44.4139161" lon="9.907721"><ele>374.75</ele><time>2026-03-22T10:33:15.231Z</time></trkpt><trkpt lat="44.4138011" lon="9.907614"><ele>373.5</ele><time>2026-03-22T10:33:16.236Z</time></trkpt><trkpt lat="44.4137224" lon="9.9074936"><ele>372.25</ele><time>2026-03-22T10:33:17.228Z</time></trkpt><trkpt lat="44.4136582" lon="9.9073726"><ele>371.0</ele><time>2026-03-22T10:33:18.225Z</time></trkpt><trkpt lat="44.413551" lon="9.9073047"><ele>371.0</ele><time>2026-03-22T10:33:19.222Z</time></trkpt><trkpt lat="44.4134346" lon="9.9072636"><ele>371.0</ele><time>2026-03-22T10:33:20.219Z</time></trkpt><trkpt lat="44.4133186" lon="9.9072091"><ele>371.0</ele><time>2026-03-22T10:33:21.225Z</time></trkpt><trkpt lat="44.4131964" lon="9.907138"><ele>371.0</ele><time>2026-03-22T10:33:22.219Z</time></trkpt><trkpt lat="44.4130814" lon="9.9070306"><ele>371.0</ele><time>2026-03-22T10:33:23.225Z</time></trkpt><trkpt lat="44.4129942" lon="9.9068945"><ele>371.0</ele><time>2026-03-22T10:33:24.227Z</time></trkpt><trkpt lat="44.412922" lon="9.9067316"><ele>371.0</ele><time>2026-03-22T10:33:25.228Z</time></trkpt><trkpt lat="44.4128673" lon="9.9065612"><ele>371.0</ele><time>2026-03-22T10:33:26.227Z</time></trkpt><trkpt lat="44.4128283" lon="9.9063951"><ele>367.5</ele><time>2026-03-22T10:33:27.234Z</time></trkpt><trkpt lat="44.4127903" lon="9.9062476"><ele>364.0</ele><time>2026-03-22T10:33:28.232Z</time></trkpt><trkpt lat="44.4127758" lon="9.9060856"><ele>360.5</ele><time>2026-03-22T10:33:29.235Z</time></trkpt><trkpt lat="44.4127846" lon="9.905921"><ele>357.0</ele><time>2026-03-22T10:33:30.228Z</time></trkpt><trkpt lat="44.4127974" lon="9.9057535"><ele>357.0</ele><time>2026-03-22T10:33:31.233Z</time></trkpt><trkpt lat="44.4128069" lon="9.9055928"><ele>357.0</ele><time>2026-03-22T10:33:32.229Z</time></trkpt><trkpt lat="44.4128099" lon="9.9054633"><ele>357.0</ele><time>2026-03-22T10:33:33.226Z</time></trkpt><trkpt lat="44.4127883" lon="9.9053495"><ele>357.0</ele><time>2026-03-22T10:33:34.228Z</time></trkpt><trkpt lat="44.4127332" lon="9.9052432"><ele>357.0</ele><time>2026-03-22T10:33:35.23Z</time></trkpt><trkpt lat="44.4126618" lon="9.9051324"><ele>360.25</ele><time>2026-03-22T10:33:36.235Z</time></trkpt><trkpt lat="44.4126072" lon="9.9050012"><ele>363.5</ele><time>2026-03-22T10:33:37.23Z</time></trkpt><trkpt lat="44.4125764" lon="9.9048415"><ele>366.75</ele><time>2026-03-22T10:33:38.234Z</time></trkpt><trkpt lat="44.4125743" lon="9.9046764"><ele>370.0</ele><time>2026-03-22T10:33:39.237Z</time></trkpt><trkpt lat="44.4125834" lon="9.9045144"><ele>370.0</ele><time>2026-03-22T10:33:40.229Z</time></trkpt><trkpt lat="44.4125812" lon="9.904353"><ele>370.0</ele><time>2026-03-22T10:33:41.23Z</time></trkpt><trkpt lat="44.4125591" lon="9.9042064"><ele>370.0</ele><time>2026-03-22T10:33:42.23Z</time></trkpt><trkpt lat="44.4125189" lon="9.9040828"><ele>370.0</ele><time>2026-03-22T10:33:43.231Z</time></trkpt><trkpt lat="44.4124543" lon="9.9039732"><ele>370.0</ele><time>2026-03-22T10:33:44.232Z</time></trkpt><trkpt lat="44.412393" lon="9.903853"><ele>370.3333333333333</ele><time>2026-03-22T10:33:45.222Z</time></trkpt><trkpt lat="44.4123471" lon="9.9037365"><ele>370.66666666666663</ele><time>2026-03-22T10:33:46.237Z</time></trkpt><trkpt lat="44.4123271" lon="9.903608"><ele>371.0</ele><time>2026-03-22T10:33:47.236Z</time></trkpt><trkpt lat="44.4123117" lon="9.9034904"><ele>371.3333333333333</ele><time>2026-03-22T10:33:48.24Z</time></trkpt><trkpt lat="44.4122855" lon="9.9033805"><ele>371.6666666666667</ele><time>2026-03-22T10:33:49.225Z</time></trkpt><trkpt lat="44.4122091" lon="9.9033144"><ele>372.0</ele><time>2026-03-22T10:33:50.225Z</time></trkpt><trkpt lat="44.4121142" lon="9.9032745"><ele>366.3333333333333</ele><time>2026-03-22T10:33:51.229Z</time></trkpt><trkpt lat="44.4119851" lon="9.9032491"><ele>360.66666666666663</ele><time>2026-03-22T10:33:52.237Z</time></trkpt><trkpt lat="44.4118313" lon="9.9032082"><ele>355.0</ele><time>2026-03-22T10:33:53.231Z</time></trkpt><trkpt lat="44.411635" lon="9.9031105"><ele>355.0</ele><time>2026-03-22T10:33:54.236Z</time></trkpt><trkpt lat="44.4114644" lon="9.903042"><ele>355.0</ele><time>2026-03-22T10:33:55.235Z</time></trkpt><trkpt lat="44.4113143" lon="9.9029986"><ele>355.0</ele><time>2026-03-22T10:33:56.235Z</time></trkpt><trkpt lat="44.4112005" lon="9.9029548"><ele>355.0</ele><time>2026-03-22T10:33:57.232Z</time></trkpt><trkpt lat="44.4110778" lon="9.9029065"><ele>356.66666666666663</ele><time>2026-03-22T10:33:58.239Z</time></trkpt><trkpt lat="44.4109454" lon="9.9028241"><ele>358.3333333333333</ele><time>2026-03-22T10:33:59.238Z</time></trkpt><trkpt lat="44.4108204" lon="9.9026803"><ele>360.0</ele><time>2026-03-22T10:34:00.24Z</time></trkpt><trkpt lat="44.4106983" lon="9.9025096"><ele>360.0</ele><time>2026-03-22T10:34:01.232Z</time></trkpt><trkpt lat="44.4105911" lon="9.9022996"><ele>360.0</ele><time>2026-03-22T10:34:02.243Z</time></trkpt><trkpt lat="44.410497" lon="9.9020915"><ele>360.0</ele><time>2026-03-22T10:34:03.241Z</time></trkpt><trkpt lat="44.4103962" lon="9.901913"><ele>354.3333333333333</ele><time>2026-03-22T10:34:04.235Z</time></trkpt><trkpt lat="44.4102802" lon="9.9017284"><ele>348.66666666666663</ele><time>2026-03-22T10:34:05.233Z</time></trkpt><trkpt lat="44.4102031" lon="9.9015478"><ele>343.0</ele><time>2026-03-22T10:34:06.234Z</time></trkpt><trkpt lat="44.4101173" lon="9.9013568"><ele>343.0</ele><time>2026-03-22T10:34:07.234Z</time></trkpt><trkpt lat="44.4100249" lon="9.9012087"><ele>343.0</ele><time>2026-03-22T10:34:08.24Z</time></trkpt><trkpt lat="44.4099549" lon="9.901037"><ele>343.0</ele><time>2026-03-22T10:34:09.238Z</time></trkpt><trkpt lat="44.4098921" lon="9.900875"><ele>343.0</ele><time>2026-03-22T10:34:10.24Z</time></trkpt><trkpt lat="44.409855" lon="9.9006938"><ele>345.0</ele><time>2026-03-22T10:34:11.237Z</time></trkpt><trkpt lat="44.409793" lon="9.9005252"><ele>347.0</ele><time>2026-03-22T10:34:12.235Z</time></trkpt><trkpt lat="44.4097067" lon="9.9004011"><ele>349.0</ele><time>2026-03-22T10:34:13.241Z</time></trkpt><trkpt lat="44.4096366" lon="9.9002337"><ele>351.0</ele><time>2026-03-22T10:34:14.241Z</time></trkpt><trkpt lat="44.4095915" lon="9.9000302"><ele>341.3333333333333</ele><time>2026-03-22T10:34:15.234Z</time></trkpt><trkpt lat="44.409544" lon="9.8997762"><ele>331.66666666666663</ele><time>2026-03-22T10:34:16.236Z</time></trkpt><trkpt lat="44.4094772" lon="9.8995303"><ele>322.0</ele><time>2026-03-22T10:34:17.242Z</time></trkpt><trkpt lat="44.4094026" lon="9.8993036"><ele>324.66666666666663</ele><time>2026-03-22T10:34:18.243Z</time></trkpt><trkpt lat="44.4093063" lon="9.8990742"><ele>327.3333333333333</ele><time>2026-03-22T10:34:19.241Z</time></trkpt><trkpt lat="44.4092283" lon="9.8988878"><ele>330.0</ele><time>2026-03-22T10:34:20.234Z</time></trkpt><trkpt lat="44.4091507" lon="9.8987112"><ele>330.0</ele><time>2026-03-22T10:34:21.243Z</time></trkpt><trkpt lat="44.4090421" lon="9.8985533"><ele>330.0</ele><time>2026-03-22T10:34:22.238Z</time></trkpt><trkpt lat="44.4088997" lon="9.8984334"><ele>330.0</ele><time>2026-03-22T10:34:23.232Z</time></trkpt><trkpt lat="44.408738" lon="9.8982983"><ele>326.6666666666667</ele><time>2026-03-22T10:34:24.236Z</time></trkpt><trkpt lat="44.4085987" lon="9.8981469"><ele>323.33333333333337</ele><time>2026-03-22T10:34:25.239Z</time></trkpt><trkpt lat="44.4084592" lon="9.898"><ele>320.0</ele><time>2026-03-22T10:34:26.233Z</time></trkpt><trkpt lat="44.4083336" lon="9.8978719"><ele>320.0</ele><time>2026-03-22T10:34:27.242Z</time></trkpt><trkpt lat="44.4081651" lon="9.8977984"><ele>320.0</ele><time>2026-03-22T10:34:28.236Z</time></trkpt><trkpt lat="44.40802" lon="9.8976986"><ele>320.0</ele><time>2026-03-22T10:34:29.235Z</time></trkpt><trkpt lat="44.4078826" lon="9.8975792"><ele>320.6666666666667</ele><time>2026-03-22T10:34:30.234Z</time></trkpt><trkpt lat="44.4077368" lon="9.8974773"><ele>321.3333333333333</ele><time>2026-03-22T10:34:31.239Z</time></trkpt><trkpt lat="44.4076075" lon="9.8973435"><ele>322.0</ele><time>2026-03-22T10:34:32.24Z</time></trkpt><trkpt lat="44.4074554" lon="9.8971657"><ele>322.0</ele><time>2026-03-22T10:34:33.233Z</time></trkpt><trkpt lat="44.4073109" lon="9.8969653"><ele>322.0</ele><time>2026-03-22T10:34:34.237Z</time></trkpt><trkpt lat="44.4071692" lon="9.8967649"><ele>322.0</ele><time>2026-03-22T10:34:35.231Z</time></trkpt><trkpt lat="44.4070118" lon="9.89655"><ele>321.3333333333333</ele><time>2026-03-22T10:34:36.229Z</time></trkpt><trkpt lat="44.4068489" lon="9.8963496"><ele>320.6666666666667</ele><time>2026-03-22T10:34:37.235Z</time></trkpt><trkpt lat="44.4066832" lon="9.8961502"><ele>320.0</ele><time>2026-03-22T10:34:38.234Z</time></trkpt><trkpt lat="44.4065041" lon="9.8959421"><ele>318.0</ele><time>2026-03-22T10:34:39.23Z</time></trkpt><trkpt lat="44.4063383" lon="9.8957107"><ele>316.0</ele><time>2026-03-22T10:34:40.241Z</time></trkpt><trkpt lat="44.406188" lon="9.8954853"><ele>316.0</ele><time>2026-03-22T10:34:41.233Z</time></trkpt><trkpt lat="44.4060538" lon="9.8952624"><ele>316.0</ele><time>2026-03-22T10:34:42.238Z</time></trkpt><trkpt lat="44.4059045" lon="9.8950627"><ele>316.0</ele><time>2026-03-22T10:34:43.242Z</time></trkpt><trkpt lat="44.4057512" lon="9.8948491"><ele>312.66666666666663</ele><time>2026-03-22T10:34:44.235Z</time></trkpt><trkpt lat="44.4055723" lon="9.8946844"><ele>309.3333333333333</ele><time>2026-03-22T10:34:45.237Z</time></trkpt><trkpt lat="44.4053889" lon="9.8944891"><ele>306.0</ele><time>2026-03-22T10:34:46.236Z</time></trkpt><trkpt lat="44.4052042" lon="9.8943069"><ele>316.6666666666667</ele><time>2026-03-22T10:34:47.239Z</time></trkpt><trkpt lat="44.405043" lon="9.8941097"><ele>327.33333333333337</ele><time>2026-03-22T10:34:48.241Z</time></trkpt><trkpt lat="44.4048815" lon="9.8939333"><ele>338.0</ele><time>2026-03-22T10:34:49.235Z</time></trkpt><trkpt lat="44.404734" lon="9.893778"><ele>336.0</ele><time>2026-03-22T10:34:50.239Z</time></trkpt><trkpt lat="44.404584" lon="9.8936445"><ele>334.0</ele><time>2026-03-22T10:34:51.243Z</time></trkpt><trkpt lat="44.4044459" lon="9.8934723"><ele>332.0</ele><time>2026-03-22T10:34:52.227Z</time></trkpt><trkpt lat="44.4043063" lon="9.893279"><ele>332.0</ele><time>2026-03-22T10:34:53.241Z</time></trkpt><trkpt lat="44.4041664" lon="9.8930911"><ele>332.0</ele><time>2026-03-22T10:34:54.238Z</time></trkpt><trkpt lat="44.404042" lon="9.8928748"><ele>332.0</ele><time>2026-03-22T10:34:55.24Z</time></trkpt><trkpt lat="44.4039255" lon="9.8926569"><ele>327.6666666666667</ele><time>2026-03-22T10:34:56.239Z</time></trkpt><trkpt lat="44.4038223" lon="9.892462"><ele>323.3333333333333</ele><time>2026-03-22T10:34:57.243Z</time></trkpt><trkpt lat="44.4037279" lon="9.8922449"><ele>319.0</ele><time>2026-03-22T10:34:58.241Z</time></trkpt><trkpt lat="44.4036579" lon="9.8919808"><ele>323.3333333333333</ele><time>2026-03-22T10:34:59.236Z</time></trkpt><trkpt lat="44.4036" lon="9.8916975"><ele>327.6666666666667</ele><time>2026-03-22T10:35:00.243Z</time></trkpt><trkpt lat="44.4035154" lon="9.8914308"><ele>332.0</ele><time>2026-03-22T10:35:01.244Z</time></trkpt><trkpt lat="44.4034314" lon="9.8911914"><ele>332.0</ele><time>2026-03-22T10:35:02.239Z</time></trkpt><trkpt lat="44.4033382" lon="9.8909725"><ele>332.0</ele><time>2026-03-22T10:35:03.236Z</time></trkpt><trkpt lat="44.4032262" lon="9.8907797"><ele>332.0</ele><time>2026-03-22T10:35:04.231Z</time></trkpt><trkpt lat="44.4031391" lon="9.8905969"><ele>337.0</ele><time>2026-03-22T10:35:05.242Z</time></trkpt><trkpt lat="44.4030714" lon="9.8904183"><ele>342.0</ele><time>2026-03-22T10:35:06.236Z</time></trkpt><trkpt lat="44.4030223" lon="9.8902599"><ele>347.0</ele><time>2026-03-22T10:35:07.248Z</time></trkpt><trkpt lat="44.4030262" lon="9.8901194"><ele>352.0</ele><time>2026-03-22T10:35:08.245Z</time></trkpt><trkpt lat="44.4030604" lon="9.8899991"><ele>354.20000000000005</ele><time>2026-03-22T10:35:09.239Z</time></trkpt><trkpt lat="44.4031388" lon="9.8898859"><ele>356.4</ele><time>2026-03-22T10:35:10.247Z</time></trkpt><trkpt lat="44.403195" lon="9.8897834"><ele>358.6</ele><time>2026-03-22T10:35:11.247Z</time></trkpt><trkpt lat="44.4032214" lon="9.8896513"><ele>360.79999999999995</ele><time>2026-03-22T10:35:12.252Z</time></trkpt><trkpt lat="44.4032061" lon="9.889492"><ele>363.0</ele><time>2026-03-22T10:35:13.248Z</time></trkpt><trkpt lat="44.4031657" lon="9.8893588"><ele>365.0</ele><time>2026-03-22T10:35:14.245Z</time></trkpt><trkpt lat="44.403101" lon="9.8892407"><ele>367.0</ele><time>2026-03-22T10:35:15.245Z</time></trkpt><trkpt lat="44.4030108" lon="9.8891329"><ele>369.0</ele><time>2026-03-22T10:35:16.243Z</time></trkpt><trkpt lat="44.4028962" lon="9.8890605"><ele>371.0</ele><time>2026-03-22T10:35:17.246Z</time></trkpt><trkpt lat="44.40273" lon="9.8890156"><ele>365.33333333333337</ele><time>2026-03-22T10:35:18.244Z</time></trkpt><trkpt lat="44.4025238" lon="9.8889928"><ele>359.6666666666667</ele><time>2026-03-22T10:35:19.234Z</time></trkpt><trkpt lat="44.4023906" lon="9.8888467"><ele>354.0</ele><time>2026-03-22T10:35:20.235Z</time></trkpt><trkpt lat="44.4022669" lon="9.8887308"><ele>350.25</ele><time>2026-03-22T10:35:21.23Z</time></trkpt><trkpt lat="44.4021318" lon="9.8886775"><ele>346.5</ele><time>2026-03-22T10:35:22.232Z</time></trkpt><trkpt lat="44.40201" lon="9.8886752"><ele>342.75</ele><time>2026-03-22T10:35:23.226Z</time></trkpt><trkpt lat="44.4018575" lon="9.8886623"><ele>339.0</ele><time>2026-03-22T10:35:25.241Z</time></trkpt><trkpt lat="44.4017785" lon="9.8886438"><ele>339.0</ele><time>2026-03-22T10:35:26.241Z</time></trkpt><trkpt lat="44.4016838" lon="9.8885607"><ele>339.0</ele><time>2026-03-22T10:35:28.233Z</time></trkpt><trkpt lat="44.4016182" lon="9.8884422"><ele>339.0</ele><time>2026-03-22T10:35:30.235Z</time></trkpt><trkpt lat="44.4015262" lon="9.8883656"><ele>339.0</ele><time>2026-03-22T10:35:32.242Z</time></trkpt><trkpt lat="44.4014599" lon="9.8883363"><ele>339.0</ele><time>2026-03-22T10:35:34.237Z</time></trkpt><trkpt lat="44.4013497" lon="9.8883206"><ele>341.0</ele><time>2026-03-22T10:35:43.238Z</time></trkpt><trkpt lat="44.4012473" lon="9.8882975"><ele>343.0</ele><time>2026-03-22T10:35:44.239Z</time></trkpt><trkpt lat="44.4011354" lon="9.8882111"><ele>345.0</ele><time>2026-03-22T10:35:45.238Z</time></trkpt><trkpt lat="44.4009982" lon="9.8880769"><ele>347.0</ele><time>2026-03-22T10:35:46.239Z</time></trkpt><trkpt lat="44.400801" lon="9.8879334"><ele>347.0</ele><time>2026-03-22T10:35:47.238Z</time></trkpt><trkpt lat="44.4006392" lon="9.8877723"><ele>347.0</ele><time>2026-03-22T10:35:48.238Z</time></trkpt><trkpt lat="44.4005061" lon="9.8876184"><ele>347.0</ele><time>2026-03-22T10:35:49.232Z</time></trkpt><trkpt lat="44.4004062" lon="9.8874894"><ele>342.33333333333337</ele><time>2026-03-22T10:35:50.233Z</time></trkpt><trkpt lat="44.4003315" lon="9.8873304"><ele>337.6666666666667</ele><time>2026-03-22T10:35:51.236Z</time></trkpt><trkpt lat="44.4002581" lon="9.8871306"><ele>333.0</ele><time>2026-03-22T10:35:52.229Z</time></trkpt><trkpt lat="44.4002013" lon="9.8868696"><ele>336.25</ele><time>2026-03-22T10:35:53.233Z</time></trkpt><trkpt lat="44.4001542" lon="9.8866378"><ele>339.5</ele><time>2026-03-22T10:35:54.238Z</time></trkpt><trkpt lat="44.4000879" lon="9.8864637"><ele>342.75</ele><time>2026-03-22T10:35:55.239Z</time></trkpt><trkpt lat="44.3999928" lon="9.886332"><ele>346.0</ele><time>2026-03-22T10:35:56.235Z</time></trkpt><trkpt lat="44.3998871" lon="9.8862327"><ele>346.0</ele><time>2026-03-22T10:35:57.233Z</time></trkpt><trkpt lat="44.3997393" lon="9.8861667"><ele>346.0</ele><time>2026-03-22T10:35:58.239Z</time></trkpt><trkpt lat="44.3995737" lon="9.8861422"><ele>346.0</ele><time>2026-03-22T10:35:59.227Z</time></trkpt><trkpt lat="44.3994024" lon="9.8861388"><ele>345.75</ele><time>2026-03-22T10:36:00.241Z</time></trkpt><trkpt lat="44.399255" lon="9.8861059"><ele>345.5</ele><time>2026-03-22T10:36:01.235Z</time></trkpt><trkpt lat="44.3991544" lon="9.8860266"><ele>345.25</ele><time>2026-03-22T10:36:02.235Z</time></trkpt><trkpt lat="44.3990773" lon="9.8858889"><ele>345.0</ele><time>2026-03-22T10:36:03.231Z</time></trkpt><trkpt lat="44.3989921" lon="9.8857501"><ele>345.0</ele><time>2026-03-22T10:36:04.243Z</time></trkpt><trkpt lat="44.3988752" lon="9.8856756"><ele>345.0</ele><time>2026-03-22T10:36:05.241Z</time></trkpt><trkpt lat="44.3987511" lon="9.8856573"><ele>345.0</ele><time>2026-03-22T10:36:06.228Z</time></trkpt><trkpt lat="44.3985926" lon="9.8856387"><ele>345.0</ele><time>2026-03-22T10:36:07.236Z</time></trkpt><trkpt lat="44.3984314" lon="9.8856117"><ele>340.75</ele><time>2026-03-22T10:36:08.231Z</time></trkpt><trkpt lat="44.3982911" lon="9.8855937"><ele>336.5</ele><time>2026-03-22T10:36:09.237Z</time></trkpt><trkpt lat="44.3981759" lon="9.8856199"><ele>332.25</ele><time>2026-03-22T10:36:10.228Z</time></trkpt><trkpt lat="44.3980793" lon="9.8856785"><ele>328.0</ele><time>2026-03-22T10:36:11.239Z</time></trkpt><trkpt lat="44.3979925" lon="9.8856818"><ele>324.25</ele><time>2026-03-22T10:36:12.236Z</time></trkpt><trkpt lat="44.3978815" lon="9.8856393"><ele>320.5</ele><time>2026-03-22T10:36:13.236Z</time></trkpt><trkpt lat="44.3977747" lon="9.8855102"><ele>316.75</ele><time>2026-03-22T10:36:14.237Z</time></trkpt><trkpt lat="44.3976352" lon="9.88536"><ele>313.0</ele><time>2026-03-22T10:36:15.234Z</time></trkpt><trkpt lat="44.3975137" lon="9.8851781"><ele>317.0</ele><time>2026-03-22T10:36:16.241Z</time></trkpt><trkpt lat="44.3974188" lon="9.8849356"><ele>321.0</ele><time>2026-03-22T10:36:17.246Z</time></trkpt><trkpt lat="44.3973021" lon="9.8847073"><ele>325.0</ele><time>2026-03-22T10:36:18.243Z</time></trkpt><trkpt lat="44.3971831" lon="9.8844668"><ele>319.3333333333333</ele><time>2026-03-22T10:36:19.243Z</time></trkpt><trkpt lat="44.3970663" lon="9.8842485"><ele>313.6666666666667</ele><time>2026-03-22T10:36:20.242Z</time></trkpt><trkpt lat="44.3969529" lon="9.8840321"><ele>308.0</ele><time>2026-03-22T10:36:21.245Z</time></trkpt><trkpt lat="44.3968687" lon="9.8838018"><ele>308.0</ele><time>2026-03-22T10:36:22.246Z</time></trkpt><trkpt lat="44.3968013" lon="9.8835693"><ele>308.0</ele><time>2026-03-22T10:36:23.241Z</time></trkpt><trkpt lat="44.396735" lon="9.8833769"><ele>308.0</ele><time>2026-03-22T10:36:24.243Z</time></trkpt><trkpt lat="44.3966614" lon="9.8832435"><ele>310.5</ele><time>2026-03-22T10:36:25.233Z</time></trkpt><trkpt lat="44.3965605" lon="9.883117"><ele>313.0</ele><time>2026-03-22T10:36:26.229Z</time></trkpt><trkpt lat="44.396459" lon="9.8830218"><ele>315.5</ele><time>2026-03-22T10:36:27.225Z</time></trkpt><trkpt lat="44.396294" lon="9.8829338"><ele>318.0</ele><time>2026-03-22T10:36:28.23Z</time></trkpt><trkpt lat="44.3961259" lon="9.8828728"><ele>310.6666666666667</ele><time>2026-03-22T10:36:29.232Z</time></trkpt><trkpt lat="44.3959312" lon="9.8828194"><ele>303.33333333333337</ele><time>2026-03-22T10:36:30.23Z</time></trkpt><trkpt lat="44.3957231" lon="9.8827576"><ele>296.0</ele><time>2026-03-22T10:36:31.235Z</time></trkpt><trkpt lat="44.3955366" lon="9.8826738"><ele>297.6666666666667</ele><time>2026-03-22T10:36:32.23Z</time></trkpt><trkpt lat="44.3953509" lon="9.882603"><ele>299.3333333333333</ele><time>2026-03-22T10:36:33.242Z</time></trkpt><trkpt lat="44.3951603" lon="9.8825376"><ele>301.0</ele><time>2026-03-22T10:36:34.23Z</time></trkpt><trkpt lat="44.3949707" lon="9.8825223"><ele>301.0</ele><time>2026-03-22T10:36:35.243Z</time></trkpt><trkpt lat="44.3948152" lon="9.8825432"><ele>301.0</ele><time>2026-03-22T10:36:36.238Z</time></trkpt><trkpt lat="44.3946838" lon="9.8825552"><ele>301.0</ele><time>2026-03-22T10:36:37.24Z</time></trkpt><trkpt lat="44.3945469" lon="9.8825274"><ele>301.0</ele><time>2026-03-22T10:36:38.233Z</time></trkpt><trkpt lat="44.3944247" lon="9.8824818"><ele>297.0</ele><time>2026-03-22T10:36:39.239Z</time></trkpt><trkpt lat="44.3943012" lon="9.8823851"><ele>293.0</ele><time>2026-03-22T10:36:40.242Z</time></trkpt><trkpt lat="44.3942062" lon="9.8822414"><ele>289.0</ele><time>2026-03-22T10:36:41.247Z</time></trkpt><trkpt lat="44.3941028" lon="9.8820894"><ele>285.0</ele><time>2026-03-22T10:36:42.238Z</time></trkpt><trkpt lat="44.3940041" lon="9.881916"><ele>285.0</ele><time>2026-03-22T10:36:43.244Z</time></trkpt><trkpt lat="44.3939088" lon="9.8817359"><ele>285.0</ele><time>2026-03-22T10:36:44.249Z</time></trkpt><trkpt lat="44.3938071" lon="9.8815965"><ele>285.0</ele><time>2026-03-22T10:36:45.245Z</time></trkpt><trkpt lat="44.3937268" lon="9.8814671"><ele>285.0</ele><time>2026-03-22T10:36:46.245Z</time></trkpt><trkpt lat="44.3936514" lon="9.8813621"><ele>284.8</ele><time>2026-03-22T10:36:47.24Z</time></trkpt><trkpt lat="44.3935585" lon="9.8812922"><ele>284.6</ele><time>2026-03-22T10:36:48.248Z</time></trkpt><trkpt lat="44.393461" lon="9.8812504"><ele>284.4</ele><time>2026-03-22T10:36:49.238Z</time></trkpt><trkpt lat="44.3933432" lon="9.8812634"><ele>284.2</ele><time>2026-03-22T10:36:50.236Z</time></trkpt><trkpt lat="44.3932443" lon="9.8813382"><ele>284.0</ele><time>2026-03-22T10:36:51.24Z</time></trkpt><trkpt lat="44.393157" lon="9.8814355"><ele>284.0</ele><time>2026-03-22T10:36:52.243Z</time></trkpt><trkpt lat="44.3930641" lon="9.8815485"><ele>284.0</ele><time>2026-03-22T10:36:53.243Z</time></trkpt><trkpt lat="44.3929614" lon="9.8816631"><ele>284.0</ele><time>2026-03-22T10:36:54.248Z</time></trkpt><trkpt lat="44.3928503" lon="9.8817845"><ele>284.0</ele><time>2026-03-22T10:36:55.242Z</time></trkpt><trkpt lat="44.3927352" lon="9.8819146"><ele>285.0</ele><time>2026-03-22T10:36:56.246Z</time></trkpt><trkpt lat="44.3926319" lon="9.8820239"><ele>286.0</ele><time>2026-03-22T10:36:57.241Z</time></trkpt><trkpt lat="44.3925257" lon="9.8821141"><ele>287.0</ele><time>2026-03-22T10:36:58.24Z</time></trkpt><trkpt lat="44.3924248" lon="9.8821997"><ele>288.0</ele><time>2026-03-22T10:36:59.242Z</time></trkpt><trkpt lat="44.3923265" lon="9.8822811"><ele>288.0</ele><time>2026-03-22T10:37:00.234Z</time></trkpt><trkpt lat="44.3922208" lon="9.8823793"><ele>288.0</ele><time>2026-03-22T10:37:01.244Z</time></trkpt><trkpt lat="44.39214" lon="9.8824985"><ele>288.0</ele><time>2026-03-22T10:37:02.237Z</time></trkpt><trkpt lat="44.392054" lon="9.8826173"><ele>288.0</ele><time>2026-03-22T10:37:03.243Z</time></trkpt><trkpt lat="44.3919567" lon="9.8827104"><ele>286.5</ele><time>2026-03-22T10:37:04.24Z</time></trkpt><trkpt lat="44.3918645" lon="9.8828078"><ele>285.0</ele><time>2026-03-22T10:37:05.242Z</time></trkpt><trkpt lat="44.3917683" lon="9.8828923"><ele>283.5</ele><time>2026-03-22T10:37:06.251Z</time></trkpt><trkpt lat="44.3916661" lon="9.8829837"><ele>282.0</ele><time>2026-03-22T10:37:07.25Z</time></trkpt><trkpt lat="44.3915525" lon="9.8830895"><ele>282.0</ele><time>2026-03-22T10:37:08.242Z</time></trkpt><trkpt lat="44.3914255" lon="9.8832094"><ele>282.0</ele><time>2026-03-22T10:37:09.251Z</time></trkpt><trkpt lat="44.3913016" lon="9.8833424"><ele>282.0</ele><time>2026-03-22T10:37:10.246Z</time></trkpt><trkpt lat="44.3911639" lon="9.8834824"><ele>280.3333333333333</ele><time>2026-03-22T10:37:11.252Z</time></trkpt><trkpt lat="44.3910125" lon="9.8836296"><ele>278.66666666666663</ele><time>2026-03-22T10:37:12.229Z</time></trkpt><trkpt lat="44.3908522" lon="9.8837672"><ele>277.0</ele><time>2026-03-22T10:37:13.241Z</time></trkpt><trkpt lat="44.3906905" lon="9.8839043"><ele>277.0</ele><time>2026-03-22T10:37:14.236Z</time></trkpt><trkpt lat="44.3905412" lon="9.884012"><ele>277.0</ele><time>2026-03-22T10:37:15.237Z</time></trkpt><trkpt lat="44.3903866" lon="9.8841156"><ele>277.0</ele><time>2026-03-22T10:37:16.241Z</time></trkpt><trkpt lat="44.3902454" lon="9.8841759"><ele>277.0</ele><time>2026-03-22T10:37:17.24Z</time></trkpt><trkpt lat="44.3900894" lon="9.8842419"><ele>277.0</ele><time>2026-03-22T10:37:18.246Z</time></trkpt><trkpt lat="44.3899267" lon="9.8843028"><ele>277.0</ele><time>2026-03-22T10:37:19.244Z</time></trkpt><trkpt lat="44.3897517" lon="9.8843389"><ele>273.0</ele><time>2026-03-22T10:37:20.238Z</time></trkpt><trkpt lat="44.3895618" lon="9.8843749"><ele>269.0</ele><time>2026-03-22T10:37:21.246Z</time></trkpt><trkpt lat="44.389376" lon="9.8843862"><ele>265.0</ele><time>2026-03-22T10:37:22.241Z</time></trkpt><trkpt lat="44.3891609" lon="9.8843842"><ele>265.0</ele><time>2026-03-22T10:37:23.246Z</time></trkpt><trkpt lat="44.388932" lon="9.8843788"><ele>265.0</ele><time>2026-03-22T10:37:24.244Z</time></trkpt><trkpt lat="44.3887027" lon="9.8843475"><ele>265.0</ele><time>2026-03-22T10:37:25.237Z</time></trkpt><trkpt lat="44.38849" lon="9.8843209"><ele>265.0</ele><time>2026-03-22T10:37:26.243Z</time></trkpt><trkpt lat="44.3882654" lon="9.8842707"><ele>265.0</ele><time>2026-03-22T10:37:27.239Z</time></trkpt><trkpt lat="44.3880373" lon="9.8842286"><ele>265.0</ele><time>2026-03-22T10:37:28.249Z</time></trkpt><trkpt lat="44.3878009" lon="9.884188"><ele>265.0</ele><time>2026-03-22T10:37:29.248Z</time></trkpt><trkpt lat="44.3875612" lon="9.8841513"><ele>265.0</ele><time>2026-03-22T10:37:30.25Z</time></trkpt><trkpt lat="44.3873274" lon="9.8841261"><ele>265.0</ele><time>2026-03-22T10:37:31.237Z</time></trkpt><trkpt lat="44.3871064" lon="9.8840989"><ele>263.66666666666663</ele><time>2026-03-22T10:37:32.247Z</time></trkpt><trkpt lat="44.3869128" lon="9.8840696"><ele>262.3333333333333</ele><time>2026-03-22T10:37:33.229Z</time></trkpt><trkpt lat="44.3867482" lon="9.8840365"><ele>261.0</ele><time>2026-03-22T10:37:34.239Z</time></trkpt><trkpt lat="44.3865966" lon="9.8840134"><ele>261.0</ele><time>2026-03-22T10:37:35.242Z</time></trkpt><trkpt lat="44.3864382" lon="9.884"><ele>261.0</ele><time>2026-03-22T10:37:36.242Z</time></trkpt><trkpt lat="44.3862812" lon="9.8839823"><ele>261.0</ele><time>2026-03-22T10:37:37.243Z</time></trkpt><trkpt lat="44.3861109" lon="9.883961"><ele>260.0</ele><time>2026-03-22T10:37:38.243Z</time></trkpt><trkpt lat="44.38594" lon="9.8839168"><ele>259.0</ele><time>2026-03-22T10:37:39.245Z</time></trkpt><trkpt lat="44.3857803" lon="9.8838999"><ele>258.0</ele><time>2026-03-22T10:37:40.237Z</time></trkpt><trkpt lat="44.3856006" lon="9.8838812"><ele>257.3333333333333</ele><time>2026-03-22T10:37:41.244Z</time></trkpt><trkpt lat="44.3854173" lon="9.8838572"><ele>256.66666666666663</ele><time>2026-03-22T10:37:42.246Z</time></trkpt><trkpt lat="44.3852376" lon="9.8838186"><ele>256.0</ele><time>2026-03-22T10:37:43.237Z</time></trkpt><trkpt lat="44.3850496" lon="9.8837935"><ele>256.0</ele><time>2026-03-22T10:37:44.241Z</time></trkpt><trkpt lat="44.3848673" lon="9.8837593"><ele>256.0</ele><time>2026-03-22T10:37:45.228Z</time></trkpt><trkpt lat="44.3847028" lon="9.8837461"><ele>256.0</ele><time>2026-03-22T10:37:46.249Z</time></trkpt><trkpt lat="44.3845375" lon="9.8837387"><ele>255.0</ele><time>2026-03-22T10:37:47.245Z</time></trkpt><trkpt lat="44.3843806" lon="9.8837213"><ele>254.0</ele><time>2026-03-22T10:37:48.238Z</time></trkpt><trkpt lat="44.3842104" lon="9.8837048"><ele>253.0</ele><time>2026-03-22T10:37:49.235Z</time></trkpt><trkpt lat="44.384049" lon="9.883693"><ele>253.0</ele><time>2026-03-22T10:37:50.238Z</time></trkpt><trkpt lat="44.3838906" lon="9.8836845"><ele>253.0</ele><time>2026-03-22T10:37:51.237Z</time></trkpt><trkpt lat="44.3837238" lon="9.8837141"><ele>253.0</ele><time>2026-03-22T10:37:52.237Z</time></trkpt><trkpt lat="44.3835757" lon="9.8837204"><ele>252.0</ele><time>2026-03-22T10:37:53.243Z</time></trkpt><trkpt lat="44.383442" lon="9.8837352"><ele>251.0</ele><time>2026-03-22T10:37:54.237Z</time></trkpt><trkpt lat="44.3832895" lon="9.883751"><ele>250.0</ele><time>2026-03-22T10:37:55.24Z</time></trkpt><trkpt lat="44.3831603" lon="9.8837757"><ele>249.0</ele><time>2026-03-22T10:37:56.236Z</time></trkpt><trkpt lat="44.3830234" lon="9.8837921"><ele>249.0</ele><time>2026-03-22T10:37:57.243Z</time></trkpt><trkpt lat="44.3828802" lon="9.8838264"><ele>249.0</ele><time>2026-03-22T10:37:58.231Z</time></trkpt><trkpt lat="44.3827309" lon="9.8838639"><ele>249.0</ele><time>2026-03-22T10:37:59.235Z</time></trkpt><trkpt lat="44.382612" lon="9.8839608"><ele>249.0</ele><time>2026-03-22T10:38:00.238Z</time></trkpt><trkpt lat="44.3825047" lon="9.8841185"><ele>250.25</ele><time>2026-03-22T10:38:01.232Z</time></trkpt><trkpt lat="44.3824055" lon="9.8842649"><ele>251.5</ele><time>2026-03-22T10:38:02.246Z</time></trkpt><trkpt lat="44.3823066" lon="9.8843537"><ele>252.75</ele><time>2026-03-22T10:38:03.244Z</time></trkpt><trkpt lat="44.3822165" lon="9.8844394"><ele>254.0</ele><time>2026-03-22T10:38:04.247Z</time></trkpt><trkpt lat="44.3821096" lon="9.8845253"><ele>255.5</ele><time>2026-03-22T10:38:05.254Z</time></trkpt><trkpt lat="44.3819974" lon="9.8845963"><ele>257.0</ele><time>2026-03-22T10:38:06.242Z</time></trkpt><trkpt lat="44.3818947" lon="9.8846393"><ele>258.5</ele><time>2026-03-22T10:38:07.24Z</time></trkpt><trkpt lat="44.3817896" lon="9.8846908"><ele>260.0</ele><time>2026-03-22T10:38:08.243Z</time></trkpt><trkpt lat="44.381682" lon="9.8847195"><ele>260.0</ele><time>2026-03-22T10:38:09.234Z</time></trkpt><trkpt lat="44.3815681" lon="9.8847404"><ele>260.0</ele><time>2026-03-22T10:38:10.24Z</time></trkpt><trkpt lat="44.3814542" lon="9.884737"><ele>260.0</ele><time>2026-03-22T10:38:11.234Z</time></trkpt><trkpt lat="44.3813336" lon="9.8847145"><ele>260.0</ele><time>2026-03-22T10:38:12.227Z</time></trkpt><trkpt lat="44.3812102" lon="9.8846881"><ele>261.0</ele><time>2026-03-22T10:38:13.219Z</time></trkpt><trkpt lat="44.3810745" lon="9.88464"><ele>262.0</ele><time>2026-03-22T10:38:14.226Z</time></trkpt><trkpt lat="44.3809557" lon="9.8846229"><ele>263.0</ele><time>2026-03-22T10:38:15.217Z</time></trkpt><trkpt lat="44.3808365" lon="9.8846044"><ele>264.0</ele><time>2026-03-22T10:38:16.191Z</time></trkpt><trkpt lat="44.3795876" lon="9.883922"><ele>258.5</ele><time>2026-03-22T10:38:24.662Z</time></trkpt><trkpt lat="44.3792526" lon="9.8842632"><ele>253.0</ele><time>2026-03-22T10:38:31.244Z</time></trkpt><trkpt lat="44.3791628" lon="9.8843135"><ele>253.0</ele><time>2026-03-22T10:38:32.237Z</time></trkpt><trkpt lat="44.3790765" lon="9.8843539"><ele>253.0</ele><time>2026-03-22T10:38:33.243Z</time></trkpt><trkpt lat="44.3789864" lon="9.8843969"><ele>253.0</ele><time>2026-03-22T10:38:34.238Z</time></trkpt><trkpt lat="44.3788969" lon="9.8844388"><ele>253.0</ele><time>2026-03-22T10:38:35.24Z</time></trkpt><trkpt lat="44.3788048" lon="9.8844778"><ele>253.0</ele><time>2026-03-22T10:38:36.245Z</time></trkpt><trkpt lat="44.3787063" lon="9.8845202"><ele>251.75</ele><time>2026-03-22T10:38:37.246Z</time></trkpt><trkpt lat="44.3785991" lon="9.8845606"><ele>250.5</ele><time>2026-03-22T10:38:38.247Z</time></trkpt><trkpt lat="44.3784825" lon="9.8846095"><ele>249.25</ele><time>2026-03-22T10:38:39.243Z</time></trkpt><trkpt lat="44.3783583" lon="9.8846626"><ele>248.0</ele><time>2026-03-22T10:38:40.243Z</time></trkpt><trkpt lat="44.3782345" lon="9.884715"><ele>248.0</ele><time>2026-03-22T10:38:41.242Z</time></trkpt><trkpt lat="44.3781106" lon="9.8847665"><ele>248.0</ele><time>2026-03-22T10:38:42.247Z</time></trkpt><trkpt lat="44.3779971" lon="9.8848135"><ele>248.0</ele><time>2026-03-22T10:38:43.253Z</time></trkpt><trkpt lat="44.3778931" lon="9.8848463"><ele>248.0</ele><time>2026-03-22T10:38:44.24Z</time></trkpt><trkpt lat="44.3777864" lon="9.8848762"><ele>247.2</ele><time>2026-03-22T10:38:45.239Z</time></trkpt><trkpt lat="44.3776929" lon="9.8849023"><ele>246.4</ele><time>2026-03-22T10:38:46.246Z</time></trkpt><trkpt lat="44.3775992" lon="9.8849402"><ele>245.59999999999997</ele><time>2026-03-22T10:38:47.237Z</time></trkpt><trkpt lat="44.3775077" lon="9.8849835"><ele>244.79999999999998</ele><time>2026-03-22T10:38:48.236Z</time></trkpt><trkpt lat="44.3774163" lon="9.8850111"><ele>244.0</ele><time>2026-03-22T10:38:49.238Z</time></trkpt><trkpt lat="44.377319" lon="9.8850347"><ele>244.0</ele><time>2026-03-22T10:38:50.243Z</time></trkpt><trkpt lat="44.3772274" lon="9.8850718"><ele>243.99999999999997</ele><time>2026-03-22T10:38:51.244Z</time></trkpt><trkpt lat="44.3771376" lon="9.8851009"><ele>243.99999999999997</ele><time>2026-03-22T10:38:52.25Z</time></trkpt><trkpt lat="44.3770432" lon="9.8851173"><ele>244.0</ele><time>2026-03-22T10:38:53.247Z</time></trkpt><trkpt lat="44.376953" lon="9.8851329"><ele>244.0</ele><time>2026-03-22T10:38:54.25Z</time></trkpt><trkpt lat="44.376871" lon="9.8851392"><ele>243.0</ele><time>2026-03-22T10:38:55.248Z</time></trkpt><trkpt lat="44.376786" lon="9.8851443"><ele>241.99999999999997</ele><time>2026-03-22T10:38:56.244Z</time></trkpt><trkpt lat="44.3767179" lon="9.8851287"><ele>240.99999999999997</ele><time>2026-03-22T10:38:57.238Z</time></trkpt><trkpt lat="44.376654" lon="9.8850001"><ele>240.0</ele><time>2026-03-22T10:38:59.245Z</time></trkpt><trkpt lat="44.3766201" lon="9.88484"><ele>239.0</ele><time>2026-03-22T10:39:01.252Z</time></trkpt><trkpt lat="44.3766047" lon="9.8847498"><ele>239.00000000000003</ele><time>2026-03-22T10:39:02.253Z</time></trkpt><trkpt lat="44.376593" lon="9.8846542"><ele>239.0</ele><time>2026-03-22T10:39:03.241Z</time></trkpt><trkpt lat="44.3765746" lon="9.884554"><ele>239.0</ele><time>2026-03-22T10:39:04.245Z</time></trkpt><trkpt lat="44.3765616" lon="9.8844493"><ele>239.0</ele><time>2026-03-22T10:39:05.254Z</time></trkpt><trkpt lat="44.3765463" lon="9.8843388"><ele>239.00000000000003</ele><time>2026-03-22T10:39:06.25Z</time></trkpt><trkpt lat="44.3765351" lon="9.8842298"><ele>239.0</ele><time>2026-03-22T10:39:07.247Z</time></trkpt><trkpt lat="44.3765203" lon="9.8841276"><ele>239.50000000000003</ele><time>2026-03-22T10:39:08.246Z</time></trkpt><trkpt lat="44.3765044" lon="9.884029"><ele>240.0</ele><time>2026-03-22T10:39:09.242Z</time></trkpt><trkpt lat="44.3764877" lon="9.8839261"><ele>240.5</ele><time>2026-03-22T10:39:10.245Z</time></trkpt><trkpt lat="44.376477" lon="9.8838242"><ele>241.0</ele><time>2026-03-22T10:39:11.243Z</time></trkpt><trkpt lat="44.3764518" lon="9.8836704"><ele>241.50000000000003</ele><time>2026-03-22T10:39:13.244Z</time></trkpt><trkpt lat="44.3764328" lon="9.8835786"><ele>242.0</ele><time>2026-03-22T10:39:15.239Z</time></trkpt><trkpt lat="44.3764064" lon="9.883465"><ele>242.66666666666669</ele><time>2026-03-22T10:39:18.241Z</time></trkpt><trkpt lat="44.3763671" lon="9.8833306"><ele>243.33333333333334</ele><time>2026-03-22T10:39:20.244Z</time></trkpt><trkpt lat="44.3763436" lon="9.8832347"><ele>244.0</ele><time>2026-03-22T10:39:21.252Z</time></trkpt><trkpt lat="44.3763158" lon="9.8831233"><ele>244.66666666666669</ele><time>2026-03-22T10:39:22.243Z</time></trkpt><trkpt lat="44.3762997" lon="9.8830269"><ele>245.33333333333334</ele><time>2026-03-22T10:39:23.255Z</time></trkpt><trkpt lat="44.37628" lon="9.8828825"><ele>246.0</ele><time>2026-03-22T10:39:25.257Z</time></trkpt><trkpt lat="44.3762686" lon="9.8827361"><ele>244.0</ele><time>2026-03-22T10:39:27.257Z</time></trkpt><trkpt lat="44.376264" lon="9.8825914"><ele>242.00000000000003</ele><time>2026-03-22T10:39:29.246Z</time></trkpt><trkpt lat="44.3762452" lon="9.8824312"><ele>240.00000000000003</ele><time>2026-03-22T10:39:31.247Z</time></trkpt><trkpt lat="44.3762288" lon="9.8822805"><ele>238.0</ele><time>2026-03-22T10:39:33.239Z</time></trkpt><trkpt lat="44.3762025" lon="9.8821346"><ele>236.0</ele><time>2026-03-22T10:39:35.243Z</time></trkpt><trkpt lat="44.3761844" lon="9.8819727"><ele>236.0</ele><time>2026-03-22T10:39:37.245Z</time></trkpt><trkpt lat="44.3761583" lon="9.8818314"><ele>236.00000000000003</ele><time>2026-03-22T10:39:39.241Z</time></trkpt><trkpt lat="44.3761218" lon="9.881681"><ele>236.00000000000003</ele><time>2026-03-22T10:39:41.243Z</time></trkpt><trkpt lat="44.3761023" lon="9.8815265"><ele>236.0</ele><time>2026-03-22T10:39:43.247Z</time></trkpt><trkpt lat="44.3760822" lon="9.8813775"><ele>236.0</ele><time>2026-03-22T10:39:45.246Z</time></trkpt><trkpt lat="44.3760634" lon="9.8812795"><ele>237.33333333333334</ele><time>2026-03-22T10:39:48.254Z</time></trkpt><trkpt lat="44.376049" lon="9.8811509"><ele>238.66666666666669</ele><time>2026-03-22T10:39:51.237Z</time></trkpt><trkpt lat="44.3760286" lon="9.8809815"><ele>240.0</ele><time>2026-03-22T10:39:53.255Z</time></trkpt><trkpt lat="44.376007" lon="9.8808932"><ele>241.33333333333331</ele><time>2026-03-22T10:39:54.257Z</time></trkpt><trkpt lat="44.3759943" lon="9.8807929"><ele>242.66666666666666</ele><time>2026-03-22T10:39:55.253Z</time></trkpt><trkpt lat="44.3759823" lon="9.8806773"><ele>244.0</ele><time>2026-03-22T10:39:56.251Z</time></trkpt><trkpt lat="44.3759652" lon="9.8805739"><ele>244.49999999999997</ele><time>2026-03-22T10:39:57.252Z</time></trkpt><trkpt lat="44.3759457" lon="9.8804747"><ele>245.0</ele><time>2026-03-22T10:39:58.24Z</time></trkpt><trkpt lat="44.3759276" lon="9.8803704"><ele>245.5</ele><time>2026-03-22T10:39:59.253Z</time></trkpt><trkpt lat="44.375916" lon="9.8802586"><ele>246.0</ele><time>2026-03-22T10:40:00.25Z</time></trkpt><trkpt lat="44.3758989" lon="9.8801431"><ele>246.49999999999997</ele><time>2026-03-22T10:40:01.242Z</time></trkpt><trkpt lat="44.3758835" lon="9.8800334"><ele>247.0</ele><time>2026-03-22T10:40:02.252Z</time></trkpt><trkpt lat="44.3758672" lon="9.8799247"><ele>246.99999999999997</ele><time>2026-03-22T10:40:03.253Z</time></trkpt><trkpt lat="44.3758489" lon="9.8798146"><ele>247.0</ele><time>2026-03-22T10:40:04.244Z</time></trkpt><trkpt lat="44.3758321" lon="9.879697"><ele>247.0</ele><time>2026-03-22T10:40:05.246Z</time></trkpt><trkpt lat="44.3758129" lon="9.879583"><ele>247.0</ele><time>2026-03-22T10:40:06.245Z</time></trkpt><trkpt lat="44.3757896" lon="9.8794635"><ele>246.99999999999997</ele><time>2026-03-22T10:40:07.238Z</time></trkpt><trkpt lat="44.3757711" lon="9.8793468"><ele>247.0</ele><time>2026-03-22T10:40:08.243Z</time></trkpt><trkpt lat="44.3757495" lon="9.8792202"><ele>246.99999999999997</ele><time>2026-03-22T10:40:09.247Z</time></trkpt><trkpt lat="44.375726" lon="9.8791021"><ele>247.0</ele><time>2026-03-22T10:40:10.248Z</time></trkpt><trkpt lat="44.3757101" lon="9.8789963"><ele>247.0</ele><time>2026-03-22T10:40:11.244Z</time></trkpt><trkpt lat="44.3756949" lon="9.8789056"><ele>247.0</ele><time>2026-03-22T10:40:12.245Z</time></trkpt><trkpt lat="44.3756734" lon="9.8787647"><ele>246.99999999999997</ele><time>2026-03-22T10:40:14.256Z</time></trkpt><trkpt lat="44.375668" lon="9.8786328"><ele>247.0</ele><time>2026-03-22T10:40:16.256Z</time></trkpt><trkpt lat="44.3756559" lon="9.8785315"><ele>247.2</ele><time>2026-03-22T10:40:18.265Z</time></trkpt><trkpt lat="44.3756134" lon="9.8783998"><ele>247.39999999999998</ele><time>2026-03-22T10:40:21.265Z</time></trkpt><trkpt lat="44.3755932" lon="9.8782648"><ele>247.60000000000002</ele><time>2026-03-22T10:40:23.243Z</time></trkpt><trkpt lat="44.3755768" lon="9.8781319"><ele>247.8</ele><time>2026-03-22T10:40:25.239Z</time></trkpt><trkpt lat="44.3755561" lon="9.8780025"><ele>248.0</ele><time>2026-03-22T10:40:27.243Z</time></trkpt><trkpt lat="44.3755393" lon="9.8778659"><ele>248.00000000000003</ele><time>2026-03-22T10:40:29.242Z</time></trkpt><trkpt lat="44.375509" lon="9.8776954"><ele>248.0</ele><time>2026-03-22T10:40:31.286Z</time></trkpt><trkpt lat="44.3754941" lon="9.8775868"><ele>248.0</ele><time>2026-03-22T10:40:32.245Z</time></trkpt><trkpt lat="44.3754804" lon="9.8774886"><ele>248.0</ele><time>2026-03-22T10:40:33.252Z</time></trkpt><trkpt lat="44.3754651" lon="9.8773893"><ele>248.00000000000003</ele><time>2026-03-22T10:40:34.253Z</time></trkpt><trkpt lat="44.3754495" lon="9.8773034"><ele>248.0</ele><time>2026-03-22T10:40:35.25Z</time></trkpt><trkpt lat="44.3754316" lon="9.8772151"><ele>248.0</ele><time>2026-03-22T10:40:36.249Z</time></trkpt><trkpt lat="44.3754187" lon="9.8771222"><ele>248.00000000000003</ele><time>2026-03-22T10:40:37.252Z</time></trkpt><trkpt lat="44.3754079" lon="9.8770317"><ele>248.0</ele><time>2026-03-22T10:40:38.253Z</time></trkpt><trkpt lat="44.3753978" lon="9.8769444"><ele>248.0</ele><time>2026-03-22T10:40:39.243Z</time></trkpt><trkpt lat="44.3753801" lon="9.8768511"><ele>248.00000000000003</ele><time>2026-03-22T10:40:40.256Z</time></trkpt><trkpt lat="44.3753648" lon="9.8767518"><ele>248.0</ele><time>2026-03-22T10:40:41.249Z</time></trkpt><trkpt lat="44.3753514" lon="9.8766543"><ele>248.0</ele><time>2026-03-22T10:40:42.251Z</time></trkpt><trkpt lat="44.3753329" lon="9.8765609"><ele>248.00000000000003</ele><time>2026-03-22T10:40:43.258Z</time></trkpt><trkpt lat="44.3753203" lon="9.8764622"><ele>248.0</ele><time>2026-03-22T10:40:44.252Z</time></trkpt><trkpt lat="44.3753074" lon="9.8763509"><ele>248.0</ele><time>2026-03-22T10:40:45.253Z</time></trkpt><trkpt lat="44.3752914" lon="9.8762286"><ele>248.0</ele><time>2026-03-22T10:40:46.259Z</time></trkpt><trkpt lat="44.3752647" lon="9.876089"><ele>248.00000000000003</ele><time>2026-03-22T10:40:47.25Z</time></trkpt><trkpt lat="44.3752426" lon="9.8759581"><ele>248.0</ele><time>2026-03-22T10:40:48.253Z</time></trkpt><trkpt lat="44.3752253" lon="9.8758427"><ele>248.2857142857143</ele><time>2026-03-22T10:40:49.253Z</time></trkpt><trkpt lat="44.3752073" lon="9.8757425"><ele>248.5714285714286</ele><time>2026-03-22T10:40:50.247Z</time></trkpt><trkpt lat="44.3751864" lon="9.8756458"><ele>248.85714285714286</ele><time>2026-03-22T10:40:51.254Z</time></trkpt><trkpt lat="44.375162" lon="9.8755532"><ele>249.14285714285717</ele><time>2026-03-22T10:40:52.258Z</time></trkpt><trkpt lat="44.3751451" lon="9.875452"><ele>249.42857142857144</ele><time>2026-03-22T10:40:53.247Z</time></trkpt><trkpt lat="44.3751282" lon="9.8753502"><ele>249.71428571428572</ele><time>2026-03-22T10:40:54.255Z</time></trkpt><trkpt lat="44.3751109" lon="9.8752507"><ele>250.0</ele><time>2026-03-22T10:40:55.253Z</time></trkpt><trkpt lat="44.3750919" lon="9.8751342"><ele>250.33333333333331</ele><time>2026-03-22T10:40:56.253Z</time></trkpt><trkpt lat="44.3750735" lon="9.8750242"><ele>250.66666666666666</ele><time>2026-03-22T10:40:57.253Z</time></trkpt><trkpt lat="44.3750564" lon="9.8749108"><ele>251.0</ele><time>2026-03-22T10:40:58.248Z</time></trkpt><trkpt lat="44.3750422" lon="9.8747985"><ele>251.33333333333331</ele><time>2026-03-22T10:40:59.255Z</time></trkpt><trkpt lat="44.3750349" lon="9.8746981"><ele>251.66666666666666</ele><time>2026-03-22T10:41:00.25Z</time></trkpt><trkpt lat="44.3750178" lon="9.8745864"><ele>252.0</ele><time>2026-03-22T10:41:01.255Z</time></trkpt><trkpt lat="44.3750001" lon="9.874499"><ele>252.0</ele><time>2026-03-22T10:41:02.248Z</time></trkpt><trkpt lat="44.3749758" lon="9.8743569"><ele>252.0</ele><time>2026-03-22T10:41:04.257Z</time></trkpt><trkpt lat="44.3749518" lon="9.8742196"><ele>252.0</ele><time>2026-03-22T10:41:06.241Z</time></trkpt><trkpt lat="44.374941" lon="9.8740948"><ele>252.0</ele><time>2026-03-22T10:41:08.244Z</time></trkpt><trkpt lat="44.3749711" lon="9.8739418"><ele>252.0</ele><time>2026-03-22T10:41:10.236Z</time></trkpt><trkpt lat="44.3749304" lon="9.8737863"><ele>252.39999999999998</ele><time>2026-03-22T10:41:12.242Z</time></trkpt><trkpt lat="44.3748711" lon="9.8737281"><ele>252.79999999999998</ele><time>2026-03-22T10:41:13.245Z</time></trkpt><trkpt lat="44.3748125" lon="9.873682"><ele>253.2</ele><time>2026-03-22T10:41:14.247Z</time></trkpt><trkpt lat="44.3747429" lon="9.8736004"><ele>253.6</ele><time>2026-03-22T10:41:15.247Z</time></trkpt><trkpt lat="44.3746512" lon="9.8734884"><ele>254.0</ele><time>2026-03-22T10:41:16.249Z</time></trkpt><trkpt lat="44.3745693" lon="9.8733775"><ele>254.83333333333334</ele><time>2026-03-22T10:41:17.256Z</time></trkpt><trkpt lat="44.374498" lon="9.8732769"><ele>255.66666666666669</ele><time>2026-03-22T10:41:18.248Z</time></trkpt><trkpt lat="44.3744356" lon="9.8732006"><ele>256.5</ele><time>2026-03-22T10:41:19.26Z</time></trkpt><trkpt lat="44.3743734" lon="9.8731525"><ele>257.3333333333333</ele><time>2026-03-22T10:41:20.255Z</time></trkpt><trkpt lat="44.3743049" lon="9.873121"><ele>258.16666666666663</ele><time>2026-03-22T10:41:21.249Z</time></trkpt><trkpt lat="44.3742202" lon="9.8731217"><ele>259.0</ele><time>2026-03-22T10:41:22.247Z</time></trkpt><trkpt lat="44.374136" lon="9.8731769"><ele>259.0</ele><time>2026-03-22T10:41:23.246Z</time></trkpt><trkpt lat="44.3740415" lon="9.8732811"><ele>259.0</ele><time>2026-03-22T10:41:24.245Z</time></trkpt><trkpt lat="44.3739288" lon="9.8734344"><ele>259.0</ele><time>2026-03-22T10:41:25.246Z</time></trkpt><trkpt lat="44.3737756" lon="9.8736588"><ele>260.0</ele><time>2026-03-22T10:41:26.242Z</time></trkpt><trkpt lat="44.3736522" lon="9.873853"><ele>261.0</ele><time>2026-03-22T10:41:27.239Z</time></trkpt><trkpt lat="44.3735517" lon="9.8739882"><ele>262.0</ele><time>2026-03-22T10:41:28.246Z</time></trkpt><trkpt lat="44.3734809" lon="9.8740657"><ele>263.0</ele><time>2026-03-22T10:41:29.243Z</time></trkpt><trkpt lat="44.3733517" lon="9.8740759"><ele>263.0</ele><time>2026-03-22T10:41:31.242Z</time></trkpt><trkpt lat="44.3732902" lon="9.8740031"><ele>263.0</ele><time>2026-03-22T10:41:32.25Z</time></trkpt><trkpt lat="44.3732429" lon="9.8739072"><ele>263.0</ele><time>2026-03-22T10:41:33.245Z</time></trkpt><trkpt lat="44.3732414" lon="9.8737985"><ele>263.0</ele><time>2026-03-22T10:41:34.242Z</time></trkpt><trkpt lat="44.3732817" lon="9.8736662"><ele>263.0</ele><time>2026-03-22T10:41:35.246Z</time></trkpt><trkpt lat="44.37335" lon="9.8735142"><ele>265.0</ele><time>2026-03-22T10:41:36.245Z</time></trkpt><trkpt lat="44.3734232" lon="9.8733321"><ele>267.0</ele><time>2026-03-22T10:41:37.237Z</time></trkpt><trkpt lat="44.3735215" lon="9.8730796"><ele>269.0</ele><time>2026-03-22T10:41:38.248Z</time></trkpt><trkpt lat="44.3736143" lon="9.872861"><ele>272.33333333333337</ele><time>2026-03-22T10:41:39.238Z</time></trkpt><trkpt lat="44.3737196" lon="9.8726045"><ele>275.6666666666667</ele><time>2026-03-22T10:41:40.324Z</time></trkpt><trkpt lat="44.3737793" lon="9.8723704"><ele>279.0</ele><time>2026-03-22T10:41:41.24Z</time></trkpt><trkpt lat="44.3738074" lon="9.8720891"><ele>279.0</ele><time>2026-03-22T10:41:42.239Z</time></trkpt><trkpt lat="44.3737952" lon="9.8717856"><ele>279.0</ele><time>2026-03-22T10:41:43.248Z</time></trkpt><trkpt lat="44.3737638" lon="9.8714889"><ele>279.0</ele><time>2026-03-22T10:41:44.242Z</time></trkpt><trkpt lat="44.3737542" lon="9.8711967"><ele>283.6666666666667</ele><time>2026-03-22T10:41:45.234Z</time></trkpt><trkpt lat="44.3737437" lon="9.8708981"><ele>288.33333333333337</ele><time>2026-03-22T10:41:46.238Z</time></trkpt><trkpt lat="44.3737289" lon="9.8706105"><ele>293.0</ele><time>2026-03-22T10:41:47.246Z</time></trkpt><trkpt lat="44.3737201" lon="9.8703507"><ele>293.0</ele><time>2026-03-22T10:41:48.241Z</time></trkpt><trkpt lat="44.3737337" lon="9.8701116"><ele>293.0</ele><time>2026-03-22T10:41:49.245Z</time></trkpt><trkpt lat="44.3737732" lon="9.8699195"><ele>293.0</ele><time>2026-03-22T10:41:50.242Z</time></trkpt><trkpt lat="44.3738399" lon="9.8697212"><ele>295.33333333333337</ele><time>2026-03-22T10:41:51.247Z</time></trkpt><trkpt lat="44.3739067" lon="9.8694793"><ele>297.6666666666667</ele><time>2026-03-22T10:41:52.242Z</time></trkpt><trkpt lat="44.3739918" lon="9.8692159"><ele>300.0</ele><time>2026-03-22T10:41:53.245Z</time></trkpt><trkpt lat="44.3740808" lon="9.8688995"><ele>301.0</ele><time>2026-03-22T10:41:54.241Z</time></trkpt><trkpt lat="44.3741927" lon="9.8685796"><ele>302.0</ele><time>2026-03-22T10:41:55.241Z</time></trkpt><trkpt lat="44.3743155" lon="9.8682517"><ele>302.0</ele><time>2026-03-22T10:41:56.251Z</time></trkpt><trkpt lat="44.3744251" lon="9.867924"><ele>302.0</ele><time>2026-03-22T10:41:57.241Z</time></trkpt><trkpt lat="44.3745174" lon="9.8676325"><ele>305.0</ele><time>2026-03-22T10:41:58.237Z</time></trkpt><trkpt lat="44.3746023" lon="9.867377"><ele>308.0</ele><time>2026-03-22T10:41:59.236Z</time></trkpt><trkpt lat="44.3746724" lon="9.8671337"><ele>311.0</ele><time>2026-03-22T10:42:00.246Z</time></trkpt><trkpt lat="44.3747305" lon="9.8669107"><ele>312.6666666666667</ele><time>2026-03-22T10:42:01.239Z</time></trkpt><trkpt lat="44.3748108" lon="9.8667112"><ele>314.3333333333333</ele><time>2026-03-22T10:42:02.245Z</time></trkpt><trkpt lat="44.3748779" lon="9.866509"><ele>316.0</ele><time>2026-03-22T10:42:03.242Z</time></trkpt><trkpt lat="44.3749285" lon="9.8663188"><ele>316.0</ele><time>2026-03-22T10:42:04.242Z</time></trkpt><trkpt lat="44.3749233" lon="9.8661227"><ele>316.0</ele><time>2026-03-22T10:42:05.236Z</time></trkpt><trkpt lat="44.3749028" lon="9.8659036"><ele>316.0</ele><time>2026-03-22T10:42:06.232Z</time></trkpt><trkpt lat="44.3748296" lon="9.8656855"><ele>317.66666666666663</ele><time>2026-03-22T10:42:07.232Z</time></trkpt><trkpt lat="44.3747144" lon="9.8654686"><ele>319.3333333333333</ele><time>2026-03-22T10:42:08.23Z</time></trkpt><trkpt lat="44.374606" lon="9.8652429"><ele>321.0</ele><time>2026-03-22T10:42:09.228Z</time></trkpt><trkpt lat="44.3745035" lon="9.8650261"><ele>321.6666666666667</ele><time>2026-03-22T10:42:10.232Z</time></trkpt><trkpt lat="44.3743988" lon="9.8648182"><ele>322.33333333333337</ele><time>2026-03-22T10:42:11.224Z</time></trkpt><trkpt lat="44.3742772" lon="9.8646387"><ele>323.0</ele><time>2026-03-22T10:42:12.225Z</time></trkpt><trkpt lat="44.3742417" lon="9.8645008"><ele>323.0</ele><time>2026-03-22T10:42:13.233Z</time></trkpt><trkpt lat="44.3741303" lon="9.8644113"><ele>323.0</ele><time>2026-03-22T10:42:14.232Z</time></trkpt><trkpt lat="44.3740189" lon="9.8643627"><ele>323.0</ele><time>2026-03-22T10:42:15.224Z</time></trkpt><trkpt lat="44.3739267" lon="9.8643988"><ele>323.0</ele><time>2026-03-22T10:42:16.227Z</time></trkpt><trkpt lat="44.3738264" lon="9.8644708"><ele>324.4</ele><time>2026-03-22T10:42:17.224Z</time></trkpt><trkpt lat="44.373742" lon="9.8645651"><ele>325.79999999999995</ele><time>2026-03-22T10:42:18.231Z</time></trkpt><trkpt lat="44.373692" lon="9.8646985"><ele>327.2</ele><time>2026-03-22T10:42:19.231Z</time></trkpt><trkpt lat="44.3736798" lon="9.864856"><ele>328.6</ele><time>2026-03-22T10:42:20.236Z</time></trkpt><trkpt lat="44.3736951" lon="9.8650231"><ele>330.0</ele><time>2026-03-22T10:42:21.237Z</time></trkpt><trkpt lat="44.3737359" lon="9.8652284"><ele>331.0</ele><time>2026-03-22T10:42:22.24Z</time></trkpt><trkpt lat="44.3738078" lon="9.865503"><ele>332.0</ele><time>2026-03-22T10:42:23.239Z</time></trkpt><trkpt lat="44.373892" lon="9.8657224"><ele>333.0</ele><time>2026-03-22T10:42:24.233Z</time></trkpt><trkpt lat="44.3738977" lon="9.8659451"><ele>333.1666666666667</ele><time>2026-03-22T10:42:25.244Z</time></trkpt><trkpt lat="44.3738757" lon="9.8661066"><ele>333.3333333333333</ele><time>2026-03-22T10:42:26.235Z</time></trkpt><trkpt lat="44.3738423" lon="9.8662254"><ele>333.5</ele><time>2026-03-22T10:42:27.233Z</time></trkpt><trkpt lat="44.3737879" lon="9.8662853"><ele>333.66666666666663</ele><time>2026-03-22T10:42:28.243Z</time></trkpt><trkpt lat="44.3737175" lon="9.866311"><ele>333.8333333333333</ele><time>2026-03-22T10:42:29.232Z</time></trkpt><trkpt lat="44.3736543" lon="9.8663141"><ele>334.0</ele><time>2026-03-22T10:42:30.236Z</time></trkpt><trkpt lat="44.3736079" lon="9.8662495"><ele>334.0</ele><time>2026-03-22T10:42:31.246Z</time></trkpt><trkpt lat="44.373554" lon="9.8661016"><ele>334.0</ele><time>2026-03-22T10:42:32.238Z</time></trkpt><trkpt lat="44.3735271" lon="9.8659245"><ele>334.0</ele><time>2026-03-22T10:42:33.243Z</time></trkpt><trkpt lat="44.3735042" lon="9.8656878"><ele>334.0</ele><time>2026-03-22T10:42:34.232Z</time></trkpt><trkpt lat="44.3734825" lon="9.8654361"><ele>333.75</ele><time>2026-03-22T10:42:35.246Z</time></trkpt><trkpt lat="44.3734622" lon="9.8651543"><ele>333.5</ele><time>2026-03-22T10:42:36.241Z</time></trkpt><trkpt lat="44.3734155" lon="9.8649718"><ele>333.25</ele><time>2026-03-22T10:42:37.237Z</time></trkpt><trkpt lat="44.3733293" lon="9.8649065"><ele>333.0</ele><time>2026-03-22T10:42:38.246Z</time></trkpt><trkpt lat="44.3732285" lon="9.8648964"><ele>332.25</ele><time>2026-03-22T10:42:39.237Z</time></trkpt><trkpt lat="44.3731407" lon="9.8649361"><ele>331.5</ele><time>2026-03-22T10:42:40.243Z</time></trkpt><trkpt lat="44.3730488" lon="9.8650386"><ele>330.75</ele><time>2026-03-22T10:42:41.249Z</time></trkpt><trkpt lat="44.3730119" lon="9.8652158"><ele>330.0</ele><time>2026-03-22T10:42:42.249Z</time></trkpt><trkpt lat="44.3729702" lon="9.8654261"><ele>332.0</ele><time>2026-03-22T10:42:43.252Z</time></trkpt><trkpt lat="44.3729502" lon="9.8656991"><ele>334.0</ele><time>2026-03-22T10:42:44.246Z</time></trkpt><trkpt lat="44.3728967" lon="9.865965"><ele>336.0</ele><time>2026-03-22T10:42:45.242Z</time></trkpt><trkpt lat="44.3728616" lon="9.8661633"><ele>336.0</ele><time>2026-03-22T10:42:46.246Z</time></trkpt><trkpt lat="44.3728251" lon="9.8662769"><ele>336.0</ele><time>2026-03-22T10:42:47.234Z</time></trkpt><trkpt lat="44.3727466" lon="9.8663438"><ele>336.0</ele><time>2026-03-22T10:42:48.255Z</time></trkpt><trkpt lat="44.3726281" lon="9.866341"><ele>336.0</ele><time>2026-03-22T10:42:49.25Z</time></trkpt><trkpt lat="44.3724807" lon="9.8663284"><ele>336.0</ele><time>2026-03-22T10:42:50.252Z</time></trkpt><trkpt lat="44.3723247" lon="9.8662945"><ele>336.0</ele><time>2026-03-22T10:42:51.245Z</time></trkpt><trkpt lat="44.3721965" lon="9.8662084"><ele>336.0</ele><time>2026-03-22T10:42:52.24Z</time></trkpt><trkpt lat="44.3720962" lon="9.866072"><ele>336.0</ele><time>2026-03-22T10:42:53.242Z</time></trkpt><trkpt lat="44.3720147" lon="9.8658773"><ele>336.0</ele><time>2026-03-22T10:42:54.244Z</time></trkpt><trkpt lat="44.3719483" lon="9.8656257"><ele>340.0</ele><time>2026-03-22T10:42:55.239Z</time></trkpt><trkpt lat="44.3718557" lon="9.8653738"><ele>344.0</ele><time>2026-03-22T10:42:56.238Z</time></trkpt><trkpt lat="44.3717764" lon="9.8651342"><ele>348.0</ele><time>2026-03-22T10:42:57.235Z</time></trkpt><trkpt lat="44.3717303" lon="9.864962"><ele>350.59999999999997</ele><time>2026-03-22T10:42:58.239Z</time></trkpt><trkpt lat="44.371657" lon="9.8648599"><ele>353.2</ele><time>2026-03-22T10:42:59.232Z</time></trkpt><trkpt lat="44.3715752" lon="9.8648214"><ele>355.8</ele><time>2026-03-22T10:43:00.244Z</time></trkpt><trkpt lat="44.3714952" lon="9.8648321"><ele>358.4</ele><time>2026-03-22T10:43:01.248Z</time></trkpt><trkpt lat="44.3713953" lon="9.8649039"><ele>361.0</ele><time>2026-03-22T10:43:02.246Z</time></trkpt><trkpt lat="44.3712916" lon="9.8650259"><ele>358.25</ele><time>2026-03-22T10:43:03.241Z</time></trkpt><trkpt lat="44.3711782" lon="9.865193"><ele>355.5</ele><time>2026-03-22T10:43:04.239Z</time></trkpt><trkpt lat="44.3710691" lon="9.8653595"><ele>352.75</ele><time>2026-03-22T10:43:05.243Z</time></trkpt><trkpt lat="44.3709789" lon="9.8654036"><ele>350.0</ele><time>2026-03-22T10:43:06.248Z</time></trkpt><trkpt lat="44.3708839" lon="9.8653969"><ele>350.0</ele><time>2026-03-22T10:43:07.244Z</time></trkpt><trkpt lat="44.3707641" lon="9.8653166"><ele>350.0</ele><time>2026-03-22T10:43:08.245Z</time></trkpt><trkpt lat="44.3706597" lon="9.8652005"><ele>350.0</ele><time>2026-03-22T10:43:09.237Z</time></trkpt><trkpt lat="44.370557" lon="9.8650503"><ele>350.0</ele><time>2026-03-22T10:43:10.245Z</time></trkpt><trkpt lat="44.3704966" lon="9.8648569"><ele>351.0</ele><time>2026-03-22T10:43:11.243Z</time></trkpt><trkpt lat="44.3704307" lon="9.8647144"><ele>352.0</ele><time>2026-03-22T10:43:12.246Z</time></trkpt><trkpt lat="44.3703864" lon="9.8645993"><ele>353.0</ele><time>2026-03-22T10:43:13.241Z</time></trkpt><trkpt lat="44.3703656" lon="9.8644963"><ele>354.0</ele><time>2026-03-22T10:43:14.244Z</time></trkpt><trkpt lat="44.3703644" lon="9.8643987"><ele>355.0</ele><time>2026-03-22T10:43:15.248Z</time></trkpt><trkpt lat="44.3703783" lon="9.8642841"><ele>356.0</ele><time>2026-03-22T10:43:16.242Z</time></trkpt><trkpt lat="44.3704262" lon="9.8641531"><ele>356.0</ele><time>2026-03-22T10:43:17.247Z</time></trkpt><trkpt lat="44.370456" lon="9.8640076"><ele>356.0</ele><time>2026-03-22T10:43:18.247Z</time></trkpt><trkpt lat="44.3704243" lon="9.8638651"><ele>356.0</ele><time>2026-03-22T10:43:19.231Z</time></trkpt><trkpt lat="44.3703611" lon="9.8637309"><ele>356.0</ele><time>2026-03-22T10:43:20.226Z</time></trkpt><trkpt lat="44.3702947" lon="9.8636202"><ele>356.0</ele><time>2026-03-22T10:43:21.242Z</time></trkpt><trkpt lat="44.3702381" lon="9.8635078"><ele>358.5</ele><time>2026-03-22T10:43:22.244Z</time></trkpt><trkpt lat="44.3702121" lon="9.8633772"><ele>361.0</ele><time>2026-03-22T10:43:23.241Z</time></trkpt><trkpt lat="44.3702004" lon="9.8631817"><ele>363.5</ele><time>2026-03-22T10:43:24.248Z</time></trkpt><trkpt lat="44.370178" lon="9.8629405"><ele>366.0</ele><time>2026-03-22T10:43:25.236Z</time></trkpt><trkpt lat="44.3701527" lon="9.8626188"><ele>368.0</ele><time>2026-03-22T10:43:26.241Z</time></trkpt><trkpt lat="44.370162" lon="9.8623104"><ele>370.0</ele><time>2026-03-22T10:43:27.244Z</time></trkpt><trkpt lat="44.3701296" lon="9.8620553"><ele>372.0</ele><time>2026-03-22T10:43:28.249Z</time></trkpt><trkpt lat="44.3700893" lon="9.8618434"><ele>374.25</ele><time>2026-03-22T10:43:29.239Z</time></trkpt><trkpt lat="44.3700422" lon="9.8616572"><ele>376.5</ele><time>2026-03-22T10:43:30.236Z</time></trkpt><trkpt lat="44.3699763" lon="9.8615016"><ele>378.75</ele><time>2026-03-22T10:43:31.242Z</time></trkpt><trkpt lat="44.3698784" lon="9.8613762"><ele>381.0</ele><time>2026-03-22T10:43:32.235Z</time></trkpt><trkpt lat="44.3697484" lon="9.8612672"><ele>381.5</ele><time>2026-03-22T10:43:33.245Z</time></trkpt><trkpt lat="44.3696037" lon="9.8611981"><ele>382.0</ele><time>2026-03-22T10:43:34.24Z</time></trkpt><trkpt lat="44.3694731" lon="9.8611847"><ele>382.5</ele><time>2026-03-22T10:43:35.241Z</time></trkpt><trkpt lat="44.3693489" lon="9.8612353"><ele>383.0</ele><time>2026-03-22T10:43:36.239Z</time></trkpt><trkpt lat="44.3692057" lon="9.8613117"><ele>383.0</ele><time>2026-03-22T10:43:37.242Z</time></trkpt><trkpt lat="44.3690648" lon="9.8614536"><ele>383.0</ele><time>2026-03-22T10:43:38.239Z</time></trkpt><trkpt lat="44.3688967" lon="9.861632"><ele>383.0</ele><time>2026-03-22T10:43:39.247Z</time></trkpt><trkpt lat="44.3687504" lon="9.8617814"><ele>384.33333333333337</ele><time>2026-03-22T10:43:40.241Z</time></trkpt><trkpt lat="44.3685871" lon="9.8619247"><ele>385.6666666666667</ele><time>2026-03-22T10:43:41.254Z</time></trkpt><trkpt lat="44.3684618" lon="9.8620288"><ele>387.0</ele><time>2026-03-22T10:43:42.249Z</time></trkpt><trkpt lat="44.3683324" lon="9.8621579"><ele>387.0</ele><time>2026-03-22T10:43:43.247Z</time></trkpt><trkpt lat="44.3682283" lon="9.8622448"><ele>387.0</ele><time>2026-03-22T10:43:44.248Z</time></trkpt><trkpt lat="44.3681197" lon="9.8623856"><ele>387.0</ele><time>2026-03-22T10:43:45.235Z</time></trkpt><trkpt lat="44.3680229" lon="9.8625193"><ele>387.0</ele><time>2026-03-22T10:43:46.251Z</time></trkpt><trkpt lat="44.3679958" lon="9.8626624"><ele>387.3333333333333</ele><time>2026-03-22T10:43:47.253Z</time></trkpt><trkpt lat="44.3679524" lon="9.8627913"><ele>387.66666666666663</ele><time>2026-03-22T10:43:48.251Z</time></trkpt><trkpt lat="44.3678974" lon="9.8628762"><ele>388.0</ele><time>2026-03-22T10:43:49.253Z</time></trkpt><trkpt lat="44.3678335" lon="9.8628953"><ele>388.3333333333333</ele><time>2026-03-22T10:43:50.251Z</time></trkpt><trkpt lat="44.3677699" lon="9.8628834"><ele>388.66666666666663</ele><time>2026-03-22T10:43:51.251Z</time></trkpt><trkpt lat="44.36772" lon="9.8627613"><ele>389.0</ele><time>2026-03-22T10:43:53.254Z</time></trkpt><trkpt lat="44.3677505" lon="9.8626662"><ele>388.5</ele><time>2026-03-22T10:43:54.249Z</time></trkpt><trkpt lat="44.3678116" lon="9.8625609"><ele>388.0</ele><time>2026-03-22T10:43:55.244Z</time></trkpt><trkpt lat="44.3678885" lon="9.8624431"><ele>387.5</ele><time>2026-03-22T10:43:56.251Z</time></trkpt><trkpt lat="44.3679699" lon="9.862314"><ele>387.0</ele><time>2026-03-22T10:43:57.25Z</time></trkpt><trkpt lat="44.3680613" lon="9.8621737"><ele>387.0</ele><time>2026-03-22T10:43:58.246Z</time></trkpt><trkpt lat="44.3681566" lon="9.8620164"><ele>387.0</ele><time>2026-03-22T10:43:59.246Z</time></trkpt><trkpt lat="44.3682509" lon="9.8618594"><ele>387.0</ele><time>2026-03-22T10:44:00.245Z</time></trkpt><trkpt lat="44.3683598" lon="9.8616654"><ele>389.0</ele><time>2026-03-22T10:44:01.252Z</time></trkpt><trkpt lat="44.3684305" lon="9.8615153"><ele>391.0</ele><time>2026-03-22T10:44:02.251Z</time></trkpt><trkpt lat="44.3684559" lon="9.861311"><ele>393.0</ele><time>2026-03-22T10:44:03.24Z</time></trkpt><trkpt lat="44.3684999" lon="9.8610947"><ele>395.0</ele><time>2026-03-22T10:44:04.261Z</time></trkpt><trkpt lat="44.3685601" lon="9.8608642"><ele>396.0</ele><time>2026-03-22T10:44:05.248Z</time></trkpt><trkpt lat="44.3686147" lon="9.8606124"><ele>397.0</ele><time>2026-03-22T10:44:06.252Z</time></trkpt><trkpt lat="44.3686662" lon="9.8603378"><ele>398.0</ele><time>2026-03-22T10:44:07.25Z</time></trkpt><trkpt lat="44.3687412" lon="9.8600633"><ele>396.0</ele><time>2026-03-22T10:44:08.245Z</time></trkpt><trkpt lat="44.3687921" lon="9.8598516"><ele>394.0</ele><time>2026-03-22T10:44:09.253Z</time></trkpt><trkpt lat="44.3688388" lon="9.8596539"><ele>392.0</ele><time>2026-03-22T10:44:10.25Z</time></trkpt><trkpt lat="44.3688916" lon="9.8594677"><ele>396.0</ele><time>2026-03-22T10:44:11.252Z</time></trkpt><trkpt lat="44.3689807" lon="9.8592883"><ele>400.0</ele><time>2026-03-22T10:44:12.24Z</time></trkpt><trkpt lat="44.3690726" lon="9.8591361"><ele>404.0</ele><time>2026-03-22T10:44:13.253Z</time></trkpt><trkpt lat="44.3691534" lon="9.8590172"><ele>408.0</ele><time>2026-03-22T10:44:14.245Z</time></trkpt><trkpt lat="44.3692238" lon="9.858881"><ele>408.25</ele><time>2026-03-22T10:44:15.251Z</time></trkpt><trkpt lat="44.3693232" lon="9.8587733"><ele>408.5</ele><time>2026-03-22T10:44:16.252Z</time></trkpt><trkpt lat="44.3694368" lon="9.8586732"><ele>408.75</ele><time>2026-03-22T10:44:17.25Z</time></trkpt><trkpt lat="44.3695596" lon="9.8585542"><ele>409.0</ele><time>2026-03-22T10:44:18.249Z</time></trkpt><trkpt lat="44.3696629" lon="9.8584397"><ele>412.25</ele><time>2026-03-22T10:44:19.255Z</time></trkpt><trkpt lat="44.3697428" lon="9.8583125"><ele>415.5</ele><time>2026-03-22T10:44:20.244Z</time></trkpt><trkpt lat="44.3698195" lon="9.858176"><ele>418.75</ele><time>2026-03-22T10:44:21.25Z</time></trkpt><trkpt lat="44.3698857" lon="9.8580294"><ele>422.0</ele><time>2026-03-22T10:44:22.251Z</time></trkpt><trkpt lat="44.3699491" lon="9.8578934"><ele>422.0</ele><time>2026-03-22T10:44:23.248Z</time></trkpt><trkpt lat="44.3700275" lon="9.8577629"><ele>422.0</ele><time>2026-03-22T10:44:24.249Z</time></trkpt><trkpt lat="44.3701146" lon="9.8576354"><ele>422.0</ele><time>2026-03-22T10:44:25.247Z</time></trkpt><trkpt lat="44.3702006" lon="9.8575119"><ele>422.0</ele><time>2026-03-22T10:44:26.248Z</time></trkpt><trkpt lat="44.3702955" lon="9.8573871"><ele>420.0</ele><time>2026-03-22T10:44:27.249Z</time></trkpt><trkpt lat="44.3703774" lon="9.8572628"><ele>418.0</ele><time>2026-03-22T10:44:28.243Z</time></trkpt><trkpt lat="44.3704595" lon="9.8571389"><ele>416.0</ele><time>2026-03-22T10:44:29.242Z</time></trkpt><trkpt lat="44.3705441" lon="9.8570185"><ele>414.0</ele><time>2026-03-22T10:44:30.247Z</time></trkpt><trkpt lat="44.3706272" lon="9.856898"><ele>417.5</ele><time>2026-03-22T10:44:31.239Z</time></trkpt><trkpt lat="44.3707067" lon="9.8567817"><ele>421.0</ele><time>2026-03-22T10:44:32.243Z</time></trkpt><trkpt lat="44.3707847" lon="9.8566582"><ele>424.5</ele><time>2026-03-22T10:44:33.244Z</time></trkpt><trkpt lat="44.3708581" lon="9.8565328"><ele>428.0</ele><time>2026-03-22T10:44:34.239Z</time></trkpt><trkpt lat="44.3709225" lon="9.8564047"><ele>428.0</ele><time>2026-03-22T10:44:35.239Z</time></trkpt><trkpt lat="44.3709778" lon="9.8562674"><ele>428.0</ele><time>2026-03-22T10:44:36.239Z</time></trkpt><trkpt lat="44.3710192" lon="9.8561157"><ele>428.0</ele><time>2026-03-22T10:44:37.242Z</time></trkpt><trkpt lat="44.3710535" lon="9.8559544"><ele>428.0</ele><time>2026-03-22T10:44:38.243Z</time></trkpt><trkpt lat="44.3710811" lon="9.8557931"><ele>427.0</ele><time>2026-03-22T10:44:39.237Z</time></trkpt><trkpt lat="44.3711016" lon="9.8556294"><ele>426.0</ele><time>2026-03-22T10:44:40.322Z</time></trkpt><trkpt lat="44.3711322" lon="9.8554734"><ele>425.0</ele><time>2026-03-22T10:44:41.239Z</time></trkpt><trkpt lat="44.3711591" lon="9.8553242"><ele>424.0</ele><time>2026-03-22T10:44:42.239Z</time></trkpt><trkpt lat="44.3711873" lon="9.8551794"><ele>423.6</ele><time>2026-03-22T10:44:43.247Z</time></trkpt><trkpt lat="44.3712213" lon="9.8550463"><ele>423.2</ele><time>2026-03-22T10:44:44.249Z</time></trkpt><trkpt lat="44.3712705" lon="9.8549297"><ele>422.8</ele><time>2026-03-22T10:44:45.231Z</time></trkpt><trkpt lat="44.3713384" lon="9.8548425"><ele>422.40000000000003</ele><time>2026-03-22T10:44:46.239Z</time></trkpt><trkpt lat="44.3714193" lon="9.8547674"><ele>422.0</ele><time>2026-03-22T10:44:47.235Z</time></trkpt><trkpt lat="44.3715166" lon="9.854691"><ele>428.25</ele><time>2026-03-22T10:44:48.237Z</time></trkpt><trkpt lat="44.3716341" lon="9.8546247"><ele>434.5</ele><time>2026-03-22T10:44:49.24Z</time></trkpt><trkpt lat="44.3717628" lon="9.8545418"><ele>440.75</ele><time>2026-03-22T10:44:50.246Z</time></trkpt><trkpt lat="44.3718873" lon="9.8544586"><ele>447.0</ele><time>2026-03-22T10:44:51.237Z</time></trkpt><trkpt lat="44.3720016" lon="9.8544008"><ele>447.0</ele><time>2026-03-22T10:44:52.247Z</time></trkpt><trkpt lat="44.3721065" lon="9.8543299"><ele>447.00000000000006</ele><time>2026-03-22T10:44:53.245Z</time></trkpt><trkpt lat="44.3722176" lon="9.8542726"><ele>447.00000000000006</ele><time>2026-03-22T10:44:54.244Z</time></trkpt><trkpt lat="44.3723118" lon="9.8541982"><ele>447.0</ele><time>2026-03-22T10:44:55.241Z</time></trkpt><trkpt lat="44.3723818" lon="9.8540966"><ele>447.0</ele><time>2026-03-22T10:44:56.23Z</time></trkpt><trkpt lat="44.3724277" lon="9.8539919"><ele>447.75</ele><time>2026-03-22T10:44:57.23Z</time></trkpt><trkpt lat="44.3724603" lon="9.8538504"><ele>448.5</ele><time>2026-03-22T10:44:58.235Z</time></trkpt><trkpt lat="44.3724623" lon="9.8537075"><ele>449.25</ele><time>2026-03-22T10:44:59.237Z</time></trkpt><trkpt lat="44.3724379" lon="9.853547"><ele>450.0</ele><time>2026-03-22T10:45:00.232Z</time></trkpt><trkpt lat="44.3723852" lon="9.8533769"><ele>450.0</ele><time>2026-03-22T10:45:01.241Z</time></trkpt><trkpt lat="44.3723335" lon="9.8532236"><ele>450.0</ele><time>2026-03-22T10:45:02.238Z</time></trkpt><trkpt lat="44.3722701" lon="9.8530726"><ele>450.0</ele><time>2026-03-22T10:45:03.235Z</time></trkpt><trkpt lat="44.3722057" lon="9.8529154"><ele>450.0</ele><time>2026-03-22T10:45:04.245Z</time></trkpt><trkpt lat="44.3721381" lon="9.8527611"><ele>448.25</ele><time>2026-03-22T10:45:05.25Z</time></trkpt><trkpt lat="44.3720694" lon="9.8526013"><ele>446.5</ele><time>2026-03-22T10:45:06.241Z</time></trkpt><trkpt lat="44.3720105" lon="9.8524521"><ele>444.75</ele><time>2026-03-22T10:45:07.249Z</time></trkpt><trkpt lat="44.3719513" lon="9.8523133"><ele>443.0</ele><time>2026-03-22T10:45:08.253Z</time></trkpt><trkpt lat="44.3718974" lon="9.8521898"><ele>443.0</ele><time>2026-03-22T10:45:09.246Z</time></trkpt><trkpt lat="44.3718555" lon="9.8520714"><ele>442.99999999999994</ele><time>2026-03-22T10:45:10.255Z</time></trkpt><trkpt lat="44.3718332" lon="9.8519491"><ele>442.99999999999994</ele><time>2026-03-22T10:45:11.254Z</time></trkpt><trkpt lat="44.371828" lon="9.8518326"><ele>443.0</ele><time>2026-03-22T10:45:12.237Z</time></trkpt><trkpt lat="44.3718483" lon="9.8517116"><ele>443.0</ele><time>2026-03-22T10:45:13.247Z</time></trkpt><trkpt lat="44.3718988" lon="9.8515884"><ele>442.5</ele><time>2026-03-22T10:45:14.249Z</time></trkpt><trkpt lat="44.3719741" lon="9.8514572"><ele>442.0</ele><time>2026-03-22T10:45:15.238Z</time></trkpt><trkpt lat="44.3720643" lon="9.8513142"><ele>441.5</ele><time>2026-03-22T10:45:16.247Z</time></trkpt><trkpt lat="44.3721589" lon="9.8511471"><ele>441.0</ele><time>2026-03-22T10:45:17.241Z</time></trkpt><trkpt lat="44.3722686" lon="9.8509282"><ele>446.0</ele><time>2026-03-22T10:45:18.247Z</time></trkpt><trkpt lat="44.3723525" lon="9.8507567"><ele>451.0</ele><time>2026-03-22T10:45:19.241Z</time></trkpt><trkpt lat="44.3724619" lon="9.8505951"><ele>456.0</ele><time>2026-03-22T10:45:20.24Z</time></trkpt><trkpt lat="44.3725316" lon="9.8504375"><ele>461.0</ele><time>2026-03-22T10:45:21.244Z</time></trkpt><trkpt lat="44.3725968" lon="9.8503062"><ele>461.0</ele><time>2026-03-22T10:45:22.236Z</time></trkpt><trkpt lat="44.3726814" lon="9.8501878"><ele>461.0</ele><time>2026-03-22T10:45:23.237Z</time></trkpt><trkpt lat="44.3727439" lon="9.8500519"><ele>461.0</ele><time>2026-03-22T10:45:24.237Z</time></trkpt><trkpt lat="44.3727922" lon="9.8499342"><ele>461.0</ele><time>2026-03-22T10:45:25.239Z</time></trkpt><trkpt lat="44.3728548" lon="9.8498419"><ele>461.0</ele><time>2026-03-22T10:45:26.238Z</time></trkpt><trkpt lat="44.3729373" lon="9.8497598"><ele>463.16666666666663</ele><time>2026-03-22T10:45:27.225Z</time></trkpt><trkpt lat="44.3730024" lon="9.8497043"><ele>465.3333333333333</ele><time>2026-03-22T10:45:28.24Z</time></trkpt><trkpt lat="44.3730877" lon="9.8496556"><ele>467.5</ele><time>2026-03-22T10:45:29.233Z</time></trkpt><trkpt lat="44.3731713" lon="9.8496035"><ele>469.66666666666663</ele><time>2026-03-22T10:45:30.227Z</time></trkpt><trkpt lat="44.37324" lon="9.8495361"><ele>471.8333333333333</ele><time>2026-03-22T10:45:31.236Z</time></trkpt><trkpt lat="44.373292" lon="9.8494522"><ele>474.0</ele><time>2026-03-22T10:45:32.232Z</time></trkpt><trkpt lat="44.3733197" lon="9.8493485"><ele>474.79999999999995</ele><time>2026-03-22T10:45:33.237Z</time></trkpt><trkpt lat="44.3733018" lon="9.8492388"><ele>475.59999999999997</ele><time>2026-03-22T10:45:34.23Z</time></trkpt><trkpt lat="44.3732529" lon="9.8491398"><ele>476.4</ele><time>2026-03-22T10:45:35.233Z</time></trkpt><trkpt lat="44.3731846" lon="9.8490624"><ele>477.2</ele><time>2026-03-22T10:45:36.229Z</time></trkpt><trkpt lat="44.3730947" lon="9.848989"><ele>478.0</ele><time>2026-03-22T10:45:37.236Z</time></trkpt><trkpt lat="44.3729965" lon="9.8489123"><ele>471.0</ele><time>2026-03-22T10:45:38.233Z</time></trkpt><trkpt lat="44.3729067" lon="9.8488277"><ele>463.99999999999994</ele><time>2026-03-22T10:45:39.241Z</time></trkpt><trkpt lat="44.3728381" lon="9.8487372"><ele>456.99999999999994</ele><time>2026-03-22T10:45:40.236Z</time></trkpt><trkpt lat="44.372779" lon="9.848645"><ele>450.0</ele><time>2026-03-22T10:45:41.227Z</time></trkpt><trkpt lat="44.3727221" lon="9.848569"><ele>443.0</ele><time>2026-03-22T10:45:42.25Z</time></trkpt><trkpt lat="44.3726463" lon="9.8485158"><ele>443.0</ele><time>2026-03-22T10:45:43.232Z</time></trkpt><trkpt lat="44.372553" lon="9.8484892"><ele>442.99999999999994</ele><time>2026-03-22T10:45:44.243Z</time></trkpt><trkpt lat="44.3724429" lon="9.8484724"><ele>442.99999999999994</ele><time>2026-03-22T10:45:45.236Z</time></trkpt><trkpt lat="44.3723391" lon="9.8484312"><ele>443.0</ele><time>2026-03-22T10:45:46.239Z</time></trkpt><trkpt lat="44.3722472" lon="9.8483576"><ele>443.0</ele><time>2026-03-22T10:45:47.233Z</time></trkpt><trkpt lat="44.3721629" lon="9.8482581"><ele>441.75</ele><time>2026-03-22T10:45:48.239Z</time></trkpt><trkpt lat="44.372099" lon="9.8481272"><ele>440.5</ele><time>2026-03-22T10:45:49.235Z</time></trkpt><trkpt lat="44.3720468" lon="9.8479894"><ele>439.25</ele><time>2026-03-22T10:45:50.23Z</time></trkpt><trkpt lat="44.3720108" lon="9.8478401"><ele>438.0</ele><time>2026-03-22T10:45:51.238Z</time></trkpt><trkpt lat="44.3719738" lon="9.8476888"><ele>443.59999999999997</ele><time>2026-03-22T10:45:52.241Z</time></trkpt><trkpt lat="44.3719155" lon="9.847569"><ele>449.19999999999993</ele><time>2026-03-22T10:45:53.229Z</time></trkpt><trkpt lat="44.3718343" lon="9.8474924"><ele>454.8</ele><time>2026-03-22T10:45:54.241Z</time></trkpt><trkpt lat="44.3717252" lon="9.8474738"><ele>460.4</ele><time>2026-03-22T10:45:55.232Z</time></trkpt><trkpt lat="44.3716183" lon="9.8474719"><ele>466.0</ele><time>2026-03-22T10:45:56.238Z</time></trkpt><trkpt lat="44.3715322" lon="9.8474593"><ele>466.00000000000006</ele><time>2026-03-22T10:45:57.245Z</time></trkpt><trkpt lat="44.3714635" lon="9.8474074"><ele>466.0</ele><time>2026-03-22T10:45:58.245Z</time></trkpt><trkpt lat="44.3714119" lon="9.8473232"><ele>466.0</ele><time>2026-03-22T10:45:59.244Z</time></trkpt><trkpt lat="44.3713912" lon="9.8472215"><ele>466.0</ele><time>2026-03-22T10:46:00.25Z</time></trkpt><trkpt lat="44.3714098" lon="9.8471244"><ele>466.00000000000006</ele><time>2026-03-22T10:46:01.228Z</time></trkpt><trkpt lat="44.3714666" lon="9.8470434"><ele>466.0</ele><time>2026-03-22T10:46:02.243Z</time></trkpt><trkpt lat="44.3715455" lon="9.8469657"><ele>466.0</ele><time>2026-03-22T10:46:03.243Z</time></trkpt><trkpt lat="44.3716282" lon="9.8468733"><ele>466.0</ele><time>2026-03-22T10:46:04.246Z</time></trkpt><trkpt lat="44.3716999" lon="9.8467705"><ele>466.0</ele><time>2026-03-22T10:46:05.24Z</time></trkpt><trkpt lat="44.3717633" lon="9.8466814"><ele>466.0</ele><time>2026-03-22T10:46:06.242Z</time></trkpt><trkpt lat="44.3718392" lon="9.8466056"><ele>466.0</ele><time>2026-03-22T10:46:07.23Z</time></trkpt><trkpt lat="44.371911" lon="9.8465216"><ele>465.1666666666667</ele><time>2026-03-22T10:46:08.238Z</time></trkpt><trkpt lat="44.3719881" lon="9.8464343"><ele>464.33333333333337</ele><time>2026-03-22T10:46:09.236Z</time></trkpt><trkpt lat="44.3720519" lon="9.8463447"><ele>463.5</ele><time>2026-03-22T10:46:10.233Z</time></trkpt><trkpt lat="44.3720778" lon="9.8462422"><ele>462.66666666666663</ele><time>2026-03-22T10:46:11.242Z</time></trkpt><trkpt lat="44.3720669" lon="9.8461315"><ele>461.8333333333333</ele><time>2026-03-22T10:46:12.239Z</time></trkpt><trkpt lat="44.3720363" lon="9.8460187"><ele>461.0</ele><time>2026-03-22T10:46:13.229Z</time></trkpt><trkpt lat="44.3719901" lon="9.845894"><ele>460.0</ele><time>2026-03-22T10:46:14.237Z</time></trkpt><trkpt lat="44.3719388" lon="9.8457598"><ele>459.0</ele><time>2026-03-22T10:46:15.233Z</time></trkpt><trkpt lat="44.3718955" lon="9.8456349"><ele>458.0</ele><time>2026-03-22T10:46:16.237Z</time></trkpt><trkpt lat="44.3718762" lon="9.8455057"><ele>457.0</ele><time>2026-03-22T10:46:17.229Z</time></trkpt><trkpt lat="44.3718834" lon="9.8453817"><ele>456.0</ele><time>2026-03-22T10:46:18.234Z</time></trkpt><trkpt lat="44.3719188" lon="9.845269"><ele>456.0</ele><time>2026-03-22T10:46:19.232Z</time></trkpt><trkpt lat="44.3719905" lon="9.8451701"><ele>456.0</ele><time>2026-03-22T10:46:20.231Z</time></trkpt><trkpt lat="44.372092" lon="9.845086"><ele>456.0</ele><time>2026-03-22T10:46:21.233Z</time></trkpt><trkpt lat="44.3722031" lon="9.8449897"><ele>456.0</ele><time>2026-03-22T10:46:22.237Z</time></trkpt><trkpt lat="44.3723168" lon="9.8448849"><ele>463.25</ele><time>2026-03-22T10:46:23.235Z</time></trkpt><trkpt lat="44.3724333" lon="9.8447827"><ele>470.5</ele><time>2026-03-22T10:46:24.235Z</time></trkpt><trkpt lat="44.3725444" lon="9.8446811"><ele>477.75</ele><time>2026-03-22T10:46:25.232Z</time></trkpt><trkpt lat="44.3726463" lon="9.8445839"><ele>485.0</ele><time>2026-03-22T10:46:26.238Z</time></trkpt><trkpt lat="44.3727492" lon="9.8444809"><ele>485.0</ele><time>2026-03-22T10:46:27.224Z</time></trkpt><trkpt lat="44.3728557" lon="9.8444055"><ele>485.0</ele><time>2026-03-22T10:46:28.232Z</time></trkpt><trkpt lat="44.3729473" lon="9.8443316"><ele>485.0</ele><time>2026-03-22T10:46:29.226Z</time></trkpt><trkpt lat="44.3730171" lon="9.8442452"><ele>485.0</ele><time>2026-03-22T10:46:30.235Z</time></trkpt><trkpt lat="44.3730709" lon="9.8441498"><ele>485.0</ele><time>2026-03-22T10:46:31.227Z</time></trkpt><trkpt lat="44.3730819" lon="9.8440175"><ele>488.8</ele><time>2026-03-22T10:46:32.236Z</time></trkpt><trkpt lat="44.3730445" lon="9.843867"><ele>492.6</ele><time>2026-03-22T10:46:33.233Z</time></trkpt><trkpt lat="44.3729995" lon="9.8437342"><ele>496.4</ele><time>2026-03-22T10:46:34.235Z</time></trkpt><trkpt lat="44.3729624" lon="9.8436091"><ele>500.2</ele><time>2026-03-22T10:46:35.229Z</time></trkpt><trkpt lat="44.3729554" lon="9.8434859"><ele>504.0</ele><time>2026-03-22T10:46:36.232Z</time></trkpt><trkpt lat="44.372992" lon="9.8433578"><ele>502.0</ele><time>2026-03-22T10:46:37.23Z</time></trkpt><trkpt lat="44.3730589" lon="9.8432318"><ele>500.0</ele><time>2026-03-22T10:46:38.228Z</time></trkpt><trkpt lat="44.373134" lon="9.8431183"><ele>498.0</ele><time>2026-03-22T10:46:39.231Z</time></trkpt><trkpt lat="44.3731977" lon="9.8429989"><ele>496.0</ele><time>2026-03-22T10:46:40.235Z</time></trkpt><trkpt lat="44.3732501" lon="9.8428912"><ele>494.0</ele><time>2026-03-22T10:46:41.231Z</time></trkpt><trkpt lat="44.3732964" lon="9.8427964"><ele>494.6</ele><time>2026-03-22T10:46:42.225Z</time></trkpt><trkpt lat="44.3733319" lon="9.8425944"><ele>495.2</ele><time>2026-03-22T10:46:44.234Z</time></trkpt><trkpt lat="44.3732851" lon="9.842498"><ele>495.80000000000007</ele><time>2026-03-22T10:46:45.234Z</time></trkpt><trkpt lat="44.3732168" lon="9.8424234"><ele>496.40000000000003</ele><time>2026-03-22T10:46:46.245Z</time></trkpt><trkpt lat="44.3731071" lon="9.8423533"><ele>497.0</ele><time>2026-03-22T10:46:47.231Z</time></trkpt><trkpt lat="44.3729956" lon="9.8422862"><ele>488.75</ele><time>2026-03-22T10:46:48.238Z</time></trkpt><trkpt lat="44.3728837" lon="9.8422114"><ele>480.5</ele><time>2026-03-22T10:46:49.228Z</time></trkpt><trkpt lat="44.372775" lon="9.8421425"><ele>472.25</ele><time>2026-03-22T10:46:50.236Z</time></trkpt><trkpt lat="44.372675" lon="9.8420665"><ele>464.0</ele><time>2026-03-22T10:46:51.24Z</time></trkpt><trkpt lat="44.3725806" lon="9.8419943"><ele>464.0</ele><time>2026-03-22T10:46:52.24Z</time></trkpt><trkpt lat="44.3724932" lon="9.8419071"><ele>464.0</ele><time>2026-03-22T10:46:53.235Z</time></trkpt><trkpt lat="44.3724114" lon="9.8417873"><ele>464.0</ele><time>2026-03-22T10:46:54.241Z</time></trkpt><trkpt lat="44.3723256" lon="9.8416397"><ele>464.0</ele><time>2026-03-22T10:46:55.232Z</time></trkpt><trkpt lat="44.372215" lon="9.841496"><ele>465.25</ele><time>2026-03-22T10:46:56.238Z</time></trkpt><trkpt lat="44.372062" lon="9.8414142"><ele>466.5</ele><time>2026-03-22T10:46:57.235Z</time></trkpt><trkpt lat="44.3719488" lon="9.8413182"><ele>467.75</ele><time>2026-03-22T10:46:58.236Z</time></trkpt><trkpt lat="44.3718804" lon="9.8411926"><ele>469.0</ele><time>2026-03-22T10:46:59.233Z</time></trkpt><trkpt lat="44.3718028" lon="9.8410693"><ele>472.75</ele><time>2026-03-22T10:47:00.242Z</time></trkpt><trkpt lat="44.371739" lon="9.8409152"><ele>476.5</ele><time>2026-03-22T10:47:01.238Z</time></trkpt><trkpt lat="44.371688" lon="9.8407172"><ele>480.25</ele><time>2026-03-22T10:47:02.236Z</time></trkpt><trkpt lat="44.3716312" lon="9.8405047"><ele>484.0</ele><time>2026-03-22T10:47:03.235Z</time></trkpt><trkpt lat="44.3715735" lon="9.8403197"><ele>484.0</ele><time>2026-03-22T10:47:04.235Z</time></trkpt><trkpt lat="44.3714967" lon="9.840141"><ele>484.0</ele><time>2026-03-22T10:47:05.239Z</time></trkpt><trkpt lat="44.3713831" lon="9.8399918"><ele>484.0</ele><time>2026-03-22T10:47:06.233Z</time></trkpt><trkpt lat="44.3712953" lon="9.8398463"><ele>484.0</ele><time>2026-03-22T10:47:07.238Z</time></trkpt><trkpt lat="44.3712358" lon="9.8397088"><ele>486.6</ele><time>2026-03-22T10:47:08.234Z</time></trkpt><trkpt lat="44.371202" lon="9.8395743"><ele>489.2</ele><time>2026-03-22T10:47:09.236Z</time></trkpt><trkpt lat="44.3712454" lon="9.839435"><ele>491.80000000000007</ele><time>2026-03-22T10:47:10.238Z</time></trkpt><trkpt lat="44.3713053" lon="9.8393312"><ele>494.40000000000003</ele><time>2026-03-22T10:47:11.234Z</time></trkpt><trkpt lat="44.3713941" lon="9.8392423"><ele>497.0</ele><time>2026-03-22T10:47:12.241Z</time></trkpt><trkpt lat="44.3714974" lon="9.8391481"><ele>497.0</ele><time>2026-03-22T10:47:13.23Z</time></trkpt><trkpt lat="44.3716146" lon="9.8390319"><ele>497.0</ele><time>2026-03-22T10:47:14.244Z</time></trkpt><trkpt lat="44.3717446" lon="9.8388949"><ele>497.0</ele><time>2026-03-22T10:47:15.239Z</time></trkpt><trkpt lat="44.3718627" lon="9.8387585"><ele>497.0</ele><time>2026-03-22T10:47:16.24Z</time></trkpt><trkpt lat="44.371959" lon="9.8386294"><ele>497.0</ele><time>2026-03-22T10:47:17.239Z</time></trkpt><trkpt lat="44.3720468" lon="9.8385221"><ele>497.0</ele><time>2026-03-22T10:47:18.229Z</time></trkpt><trkpt lat="44.3721156" lon="9.8384099"><ele>497.0</ele><time>2026-03-22T10:47:19.232Z</time></trkpt><trkpt lat="44.3721933" lon="9.8382135"><ele>504.0</ele><time>2026-03-22T10:47:20.237Z</time></trkpt><trkpt lat="44.3722977" lon="9.8380369"><ele>511.0</ele><time>2026-03-22T10:47:21.23Z</time></trkpt><trkpt lat="44.3724089" lon="9.8378481"><ele>518.0</ele><time>2026-03-22T10:47:22.24Z</time></trkpt><trkpt lat="44.3725236" lon="9.8376962"><ele>513.0</ele><time>2026-03-22T10:47:23.234Z</time></trkpt><trkpt lat="44.372627" lon="9.8375219"><ele>508.0</ele><time>2026-03-22T10:47:24.234Z</time></trkpt><trkpt lat="44.3726929" lon="9.8373674"><ele>503.0</ele><time>2026-03-22T10:47:25.229Z</time></trkpt><trkpt lat="44.3727108" lon="9.837198"><ele>498.0</ele><time>2026-03-22T10:47:26.231Z</time></trkpt><trkpt lat="44.3726802" lon="9.837106"><ele>498.0</ele><time>2026-03-22T10:47:27.23Z</time></trkpt><trkpt lat="44.3726226" lon="9.8370012"><ele>498.0</ele><time>2026-03-22T10:47:28.231Z</time></trkpt><trkpt lat="44.3725489" lon="9.8368773"><ele>498.0</ele><time>2026-03-22T10:47:29.227Z</time></trkpt><trkpt lat="44.3724776" lon="9.8367296"><ele>498.0</ele><time>2026-03-22T10:47:30.23Z</time></trkpt><trkpt lat="44.3724225" lon="9.836565"><ele>498.25</ele><time>2026-03-22T10:47:31.228Z</time></trkpt><trkpt lat="44.3723794" lon="9.8364087"><ele>498.5</ele><time>2026-03-22T10:47:32.225Z</time></trkpt><trkpt lat="44.3723553" lon="9.8362674"><ele>498.75</ele><time>2026-03-22T10:47:33.233Z</time></trkpt><trkpt lat="44.3723614" lon="9.8361203"><ele>499.0</ele><time>2026-03-22T10:47:34.232Z</time></trkpt><trkpt lat="44.3723829" lon="9.8359501"><ele>499.5</ele><time>2026-03-22T10:47:35.241Z</time></trkpt><trkpt lat="44.3724378" lon="9.8357637"><ele>500.0</ele><time>2026-03-22T10:47:36.238Z</time></trkpt><trkpt lat="44.372518" lon="9.8355818"><ele>500.5</ele><time>2026-03-22T10:47:37.242Z</time></trkpt><trkpt lat="44.372518" lon="9.8354103"><ele>501.0</ele><time>2026-03-22T10:47:38.239Z</time></trkpt><trkpt lat="44.3724869" lon="9.8352027"><ele>501.0</ele><time>2026-03-22T10:47:39.233Z</time></trkpt><trkpt lat="44.3724581" lon="9.8349652"><ele>501.0</ele><time>2026-03-22T10:47:40.232Z</time></trkpt><trkpt lat="44.3724261" lon="9.8347185"><ele>501.0</ele><time>2026-03-22T10:47:41.239Z</time></trkpt><trkpt lat="44.3724122" lon="9.8344686"><ele>505.0</ele><time>2026-03-22T10:47:42.238Z</time></trkpt><trkpt lat="44.3723736" lon="9.8342631"><ele>509.0</ele><time>2026-03-22T10:47:43.237Z</time></trkpt><trkpt lat="44.3723193" lon="9.8340883"><ele>513.0</ele><time>2026-03-22T10:47:44.231Z</time></trkpt><trkpt lat="44.3722514" lon="9.8339735"><ele>517.0</ele><time>2026-03-22T10:47:45.222Z</time></trkpt><trkpt lat="44.3721655" lon="9.8338748"><ele>506.5</ele><time>2026-03-22T10:47:46.233Z</time></trkpt><trkpt lat="44.3720433" lon="9.8337893"><ele>496.0</ele><time>2026-03-22T10:47:47.228Z</time></trkpt><trkpt lat="44.3719225" lon="9.8337128"><ele>485.5</ele><time>2026-03-22T10:47:48.242Z</time></trkpt><trkpt lat="44.3717601" lon="9.8336247"><ele>475.0</ele><time>2026-03-22T10:47:49.233Z</time></trkpt><trkpt lat="44.371611" lon="9.833511"><ele>475.5</ele><time>2026-03-22T10:47:50.234Z</time></trkpt><trkpt lat="44.3714753" lon="9.8334293"><ele>476.0</ele><time>2026-03-22T10:47:51.237Z</time></trkpt><trkpt lat="44.371332" lon="9.8333866"><ele>476.5</ele><time>2026-03-22T10:47:52.227Z</time></trkpt><trkpt lat="44.371216" lon="9.8333331"><ele>477.0</ele><time>2026-03-22T10:47:53.228Z</time></trkpt><trkpt lat="44.3711362" lon="9.8332234"><ele>477.0</ele><time>2026-03-22T10:47:54.234Z</time></trkpt><trkpt lat="44.3710908" lon="9.8330851"><ele>477.0</ele><time>2026-03-22T10:47:55.233Z</time></trkpt><trkpt lat="44.3710644" lon="9.8329193"><ele>477.0</ele><time>2026-03-22T10:47:56.236Z</time></trkpt><trkpt lat="44.3710046" lon="9.8327625"><ele>477.0</ele><time>2026-03-22T10:47:57.231Z</time></trkpt><trkpt lat="44.3709038" lon="9.8326239"><ele>474.0</ele><time>2026-03-22T10:47:58.234Z</time></trkpt><trkpt lat="44.370749" lon="9.8325363"><ele>471.0</ele><time>2026-03-22T10:47:59.229Z</time></trkpt><trkpt lat="44.3705974" lon="9.8324735"><ele>468.0</ele><time>2026-03-22T10:48:00.229Z</time></trkpt><trkpt lat="44.3704775" lon="9.8323686"><ele>468.0</ele><time>2026-03-22T10:48:01.231Z</time></trkpt><trkpt lat="44.3703869" lon="9.8322009"><ele>468.0</ele><time>2026-03-22T10:48:02.234Z</time></trkpt><trkpt lat="44.3702789" lon="9.8320413"><ele>468.0</ele><time>2026-03-22T10:48:03.243Z</time></trkpt><trkpt lat="44.3701814" lon="9.8318858"><ele>475.75</ele><time>2026-03-22T10:48:04.238Z</time></trkpt><trkpt lat="44.3701002" lon="9.8317425"><ele>483.5</ele><time>2026-03-22T10:48:05.241Z</time></trkpt><trkpt lat="44.3700354" lon="9.8315981"><ele>491.25</ele><time>2026-03-22T10:48:06.238Z</time></trkpt><trkpt lat="44.3699895" lon="9.8314412"><ele>499.0</ele><time>2026-03-22T10:48:07.238Z</time></trkpt><trkpt lat="44.3699598" lon="9.8312631"><ele>499.0</ele><time>2026-03-22T10:48:08.237Z</time></trkpt><trkpt lat="44.3699524" lon="9.8310569"><ele>499.0</ele><time>2026-03-22T10:48:09.24Z</time></trkpt><trkpt lat="44.3699647" lon="9.8308363"><ele>499.0</ele><time>2026-03-22T10:48:10.242Z</time></trkpt><trkpt lat="44.3699715" lon="9.8306308"><ele>504.5</ele><time>2026-03-22T10:48:11.234Z</time></trkpt><trkpt lat="44.3699464" lon="9.8304765"><ele>510.0</ele><time>2026-03-22T10:48:12.231Z</time></trkpt><trkpt lat="44.3698751" lon="9.8303828"><ele>515.5</ele><time>2026-03-22T10:48:13.231Z</time></trkpt><trkpt lat="44.3697862" lon="9.8302629"><ele>521.0</ele><time>2026-03-22T10:48:14.235Z</time></trkpt><trkpt lat="44.3696855" lon="9.8301613"><ele>515.8</ele><time>2026-03-22T10:48:15.227Z</time></trkpt><trkpt lat="44.3696285" lon="9.8300415"><ele>510.6</ele><time>2026-03-22T10:48:16.23Z</time></trkpt><trkpt lat="44.3695829" lon="9.8299181"><ele>505.4</ele><time>2026-03-22T10:48:17.229Z</time></trkpt><trkpt lat="44.3695688" lon="9.8297845"><ele>500.2</ele><time>2026-03-22T10:48:18.237Z</time></trkpt><trkpt lat="44.3695979" lon="9.8296249"><ele>495.0</ele><time>2026-03-22T10:48:19.226Z</time></trkpt><trkpt lat="44.3696339" lon="9.8294713"><ele>495.0</ele><time>2026-03-22T10:48:20.23Z</time></trkpt><trkpt lat="44.3696275" lon="9.8293586"><ele>495.0</ele><time>2026-03-22T10:48:21.235Z</time></trkpt><trkpt lat="44.3695861" lon="9.8292606"><ele>495.0</ele><time>2026-03-22T10:48:22.233Z</time></trkpt><trkpt lat="44.3695153" lon="9.8291708"><ele>495.0</ele><time>2026-03-22T10:48:23.231Z</time></trkpt><trkpt lat="44.3694125" lon="9.8291173"><ele>495.0</ele><time>2026-03-22T10:48:24.233Z</time></trkpt><trkpt lat="44.3692904" lon="9.8291231"><ele>498.6666666666667</ele><time>2026-03-22T10:48:25.23Z</time></trkpt><trkpt lat="44.3691901" lon="9.8291499"><ele>502.33333333333337</ele><time>2026-03-22T10:48:26.224Z</time></trkpt><trkpt lat="44.369107" lon="9.8291454"><ele>506.0</ele><time>2026-03-22T10:48:27.231Z</time></trkpt><trkpt lat="44.3690454" lon="9.8291089"><ele>509.6666666666667</ele><time>2026-03-22T10:48:28.228Z</time></trkpt><trkpt lat="44.3690032" lon="9.8290369"><ele>513.3333333333334</ele><time>2026-03-22T10:48:29.235Z</time></trkpt><trkpt lat="44.3689807" lon="9.8289296"><ele>517.0</ele><time>2026-03-22T10:48:30.227Z</time></trkpt><trkpt lat="44.3689616" lon="9.8288034"><ele>517.0</ele><time>2026-03-22T10:48:31.237Z</time></trkpt><trkpt lat="44.3689289" lon="9.8286645"><ele>517.0</ele><time>2026-03-22T10:48:32.227Z</time></trkpt><trkpt lat="44.3688638" lon="9.8285274"><ele>517.0</ele><time>2026-03-22T10:48:33.234Z</time></trkpt><trkpt lat="44.3687719" lon="9.8284042"><ele>517.0</ele><time>2026-03-22T10:48:34.23Z</time></trkpt><trkpt lat="44.3686774" lon="9.8283246"><ele>515.5</ele><time>2026-03-22T10:48:35.232Z</time></trkpt><trkpt lat="44.3685647" lon="9.8282761"><ele>514.0</ele><time>2026-03-22T10:48:36.231Z</time></trkpt><trkpt lat="44.368444" lon="9.8282475"><ele>512.5</ele><time>2026-03-22T10:48:37.231Z</time></trkpt><trkpt lat="44.3683324" lon="9.8282248"><ele>511.0</ele><time>2026-03-22T10:48:38.233Z</time></trkpt><trkpt lat="44.368231" lon="9.828196"><ele>511.0</ele><time>2026-03-22T10:48:39.226Z</time></trkpt><trkpt lat="44.3681436" lon="9.8281472"><ele>511.0</ele><time>2026-03-22T10:48:40.23Z</time></trkpt><trkpt lat="44.3680618" lon="9.8280656"><ele>511.0</ele><time>2026-03-22T10:48:41.235Z</time></trkpt><trkpt lat="44.3679808" lon="9.8279294"><ele>511.0</ele><time>2026-03-22T10:48:42.234Z</time></trkpt><trkpt lat="44.36789" lon="9.8277758"><ele>514.3333333333334</ele><time>2026-03-22T10:48:43.242Z</time></trkpt><trkpt lat="44.3677914" lon="9.8276184"><ele>517.6666666666666</ele><time>2026-03-22T10:48:44.226Z</time></trkpt><trkpt lat="44.3676898" lon="9.8274725"><ele>521.0</ele><time>2026-03-22T10:48:45.241Z</time></trkpt><trkpt lat="44.367567" lon="9.8273328"><ele>521.0</ele><time>2026-03-22T10:48:46.229Z</time></trkpt><trkpt lat="44.3674501" lon="9.8272237"><ele>521.0</ele><time>2026-03-22T10:48:47.234Z</time></trkpt><trkpt lat="44.3673186" lon="9.8271339"><ele>521.0</ele><time>2026-03-22T10:48:48.229Z</time></trkpt><trkpt lat="44.367209" lon="9.8270504"><ele>521.0</ele><time>2026-03-22T10:48:49.235Z</time></trkpt><trkpt lat="44.367105" lon="9.8269503"><ele>514.8</ele><time>2026-03-22T10:48:50.23Z</time></trkpt><trkpt lat="44.3670442" lon="9.8268427"><ele>508.6</ele><time>2026-03-22T10:48:51.237Z</time></trkpt><trkpt lat="44.3670108" lon="9.8267246"><ele>502.4</ele><time>2026-03-22T10:48:52.225Z</time></trkpt><trkpt lat="44.3670427" lon="9.8265908"><ele>496.2</ele><time>2026-03-22T10:48:53.234Z</time></trkpt><trkpt lat="44.3670824" lon="9.826406"><ele>490.0</ele><time>2026-03-22T10:48:54.239Z</time></trkpt><trkpt lat="44.367102" lon="9.8262003"><ele>490.0</ele><time>2026-03-22T10:48:55.237Z</time></trkpt><trkpt lat="44.3671191" lon="9.8259981"><ele>490.0</ele><time>2026-03-22T10:48:56.232Z</time></trkpt><trkpt lat="44.3671263" lon="9.8257885"><ele>490.0</ele><time>2026-03-22T10:48:57.238Z</time></trkpt><trkpt lat="44.3671022" lon="9.8256369"><ele>490.0</ele><time>2026-03-22T10:48:58.229Z</time></trkpt><trkpt lat="44.367047" lon="9.8255079"><ele>493.0</ele><time>2026-03-22T10:48:59.232Z</time></trkpt><trkpt lat="44.3669379" lon="9.8253904"><ele>496.0</ele><time>2026-03-22T10:49:00.231Z</time></trkpt><trkpt lat="44.3668279" lon="9.8252438"><ele>499.0</ele><time>2026-03-22T10:49:01.233Z</time></trkpt><trkpt lat="44.3667652" lon="9.8250698"><ele>502.0</ele><time>2026-03-22T10:49:02.232Z</time></trkpt><trkpt lat="44.3667288" lon="9.8248783"><ele>509.6666666666667</ele><time>2026-03-22T10:49:03.233Z</time></trkpt><trkpt lat="44.3667138" lon="9.824677"><ele>517.3333333333334</ele><time>2026-03-22T10:49:04.227Z</time></trkpt><trkpt lat="44.3667085" lon="9.8244433"><ele>525.0</ele><time>2026-03-22T10:49:05.237Z</time></trkpt><trkpt lat="44.366689" lon="9.8242033"><ele>527.6666666666666</ele><time>2026-03-22T10:49:06.233Z</time></trkpt><trkpt lat="44.3666746" lon="9.823971"><ele>530.3333333333333</ele><time>2026-03-22T10:49:07.233Z</time></trkpt><trkpt lat="44.3666757" lon="9.8237705"><ele>533.0</ele><time>2026-03-22T10:49:08.231Z</time></trkpt><trkpt lat="44.3667099" lon="9.8235685"><ele>531.5</ele><time>2026-03-22T10:49:09.232Z</time></trkpt><trkpt lat="44.3667499" lon="9.8233678"><ele>530.0</ele><time>2026-03-22T10:49:10.24Z</time></trkpt><trkpt lat="44.3668215" lon="9.8231963"><ele>528.5</ele><time>2026-03-22T10:49:11.23Z</time></trkpt><trkpt lat="44.3669151" lon="9.8230309"><ele>527.0</ele><time>2026-03-22T10:49:12.237Z</time></trkpt><trkpt lat="44.3670367" lon="9.822867"><ele>527.0</ele><time>2026-03-22T10:49:13.228Z</time></trkpt><trkpt lat="44.3671642" lon="9.8227298"><ele>527.0</ele><time>2026-03-22T10:49:14.234Z</time></trkpt><trkpt lat="44.3672862" lon="9.8226094"><ele>527.0</ele><time>2026-03-22T10:49:15.241Z</time></trkpt><trkpt lat="44.3673926" lon="9.8225379"><ele>527.0</ele><time>2026-03-22T10:49:16.239Z</time></trkpt><trkpt lat="44.3674866" lon="9.8224791"><ele>531.0</ele><time>2026-03-22T10:49:17.23Z</time></trkpt><trkpt lat="44.3675741" lon="9.8223914"><ele>535.0</ele><time>2026-03-22T10:49:18.239Z</time></trkpt><trkpt lat="44.3676153" lon="9.8222568"><ele>539.0</ele><time>2026-03-22T10:49:19.234Z</time></trkpt><trkpt lat="44.3676353" lon="9.8220515"><ele>543.0</ele><time>2026-03-22T10:49:20.231Z</time></trkpt><trkpt lat="44.3676939" lon="9.8218854"><ele>543.0</ele><time>2026-03-22T10:49:21.237Z</time></trkpt><trkpt lat="44.3677826" lon="9.8217619"><ele>543.0</ele><time>2026-03-22T10:49:22.232Z</time></trkpt><trkpt lat="44.3678429" lon="9.8216528"><ele>543.0</ele><time>2026-03-22T10:49:23.235Z</time></trkpt><trkpt lat="44.3678415" lon="9.8215293"><ele>543.0</ele><time>2026-03-22T10:49:24.239Z</time></trkpt><trkpt lat="44.3678012" lon="9.8214173"><ele>543.0</ele><time>2026-03-22T10:49:25.23Z</time></trkpt><trkpt lat="44.3677518" lon="9.8213337"><ele>543.0</ele><time>2026-03-22T10:49:26.238Z</time></trkpt><trkpt lat="44.3676708" lon="9.8212936"><ele>543.0</ele><time>2026-03-22T10:49:27.231Z</time></trkpt><trkpt lat="44.3675744" lon="9.8213072"><ele>543.0</ele><time>2026-03-22T10:49:28.236Z</time></trkpt><trkpt lat="44.3674402" lon="9.8213793"><ele>543.0</ele><time>2026-03-22T10:49:29.248Z</time></trkpt><trkpt lat="44.3672796" lon="9.8214862"><ele>540.25</ele><time>2026-03-22T10:49:30.247Z</time></trkpt><trkpt lat="44.3671559" lon="9.8215136"><ele>537.5</ele><time>2026-03-22T10:49:31.24Z</time></trkpt><trkpt lat="44.3670235" lon="9.8214889"><ele>534.75</ele><time>2026-03-22T10:49:32.234Z</time></trkpt><trkpt lat="44.3668827" lon="9.821419"><ele>532.0</ele><time>2026-03-22T10:49:33.237Z</time></trkpt><trkpt lat="44.3667542" lon="9.8212695"><ele>532.0</ele><time>2026-03-22T10:49:34.233Z</time></trkpt><trkpt lat="44.3665929" lon="9.8211883"><ele>532.0</ele><time>2026-03-22T10:49:35.233Z</time></trkpt><trkpt lat="44.3664174" lon="9.8211348"><ele>532.0</ele><time>2026-03-22T10:49:36.239Z</time></trkpt><trkpt lat="44.3662609" lon="9.8211188"><ele>534.75</ele><time>2026-03-22T10:49:37.235Z</time></trkpt><trkpt lat="44.3661241" lon="9.8210506"><ele>537.5</ele><time>2026-03-22T10:49:38.238Z</time></trkpt><trkpt lat="44.3660136" lon="9.820972"><ele>540.25</ele><time>2026-03-22T10:49:39.242Z</time></trkpt><trkpt lat="44.3659206" lon="9.8208439"><ele>543.0</ele><time>2026-03-22T10:49:40.242Z</time></trkpt><trkpt lat="44.3658361" lon="9.8206889"><ele>543.0</ele><time>2026-03-22T10:49:41.239Z</time></trkpt><trkpt lat="44.365772" lon="9.8205049"><ele>543.0</ele><time>2026-03-22T10:49:42.243Z</time></trkpt><trkpt lat="44.3657336" lon="9.8203621"><ele>543.0</ele><time>2026-03-22T10:49:43.249Z</time></trkpt><trkpt lat="44.3656826" lon="9.820252"><ele>543.0</ele><time>2026-03-22T10:49:44.243Z</time></trkpt><trkpt lat="44.3656409" lon="9.8201724"><ele>543.0</ele><time>2026-03-22T10:49:45.243Z</time></trkpt><trkpt lat="44.3655676" lon="9.8201069"><ele>543.8</ele><time>2026-03-22T10:49:47.241Z</time></trkpt><trkpt lat="44.3655087" lon="9.8200695"><ele>544.5999999999999</ele><time>2026-03-22T10:51:41.245Z</time></trkpt><trkpt lat="44.3654241" lon="9.820021"><ele>545.4000000000001</ele><time>2026-03-22T10:51:44.248Z</time></trkpt><trkpt lat="44.3653283" lon="9.8200115"><ele>546.2</ele><time>2026-03-22T10:51:45.244Z</time></trkpt><trkpt lat="44.3652204" lon="9.8200206"><ele>547.0</ele><time>2026-03-22T10:51:46.245Z</time></trkpt><trkpt lat="44.3651164" lon="9.8200254"><ele>547.0</ele><time>2026-03-22T10:51:47.245Z</time></trkpt><trkpt lat="44.3650302" lon="9.8199714"><ele>547.0</ele><time>2026-03-22T10:51:48.246Z</time></trkpt><trkpt lat="44.3649817" lon="9.8198794"><ele>547.0</ele><time>2026-03-22T10:51:49.244Z</time></trkpt><trkpt lat="44.364964" lon="9.8197482"><ele>547.0</ele><time>2026-03-22T10:51:50.244Z</time></trkpt><trkpt lat="44.3649772" lon="9.8195828"><ele>547.0</ele><time>2026-03-22T10:51:51.249Z</time></trkpt><trkpt lat="44.3650129" lon="9.8193767"><ele>549.6666666666667</ele><time>2026-03-22T10:51:52.243Z</time></trkpt><trkpt lat="44.3649945" lon="9.8191337"><ele>552.3333333333334</ele><time>2026-03-22T10:51:53.248Z</time></trkpt><trkpt lat="44.3649575" lon="9.818876"><ele>555.0</ele><time>2026-03-22T10:51:54.244Z</time></trkpt><trkpt lat="44.3649394" lon="9.8186462"><ele>557.25</ele><time>2026-03-22T10:51:55.242Z</time></trkpt><trkpt lat="44.3649188" lon="9.8184341"><ele>559.5</ele><time>2026-03-22T10:51:56.244Z</time></trkpt><trkpt lat="44.364885" lon="9.8182215"><ele>561.75</ele><time>2026-03-22T10:51:57.247Z</time></trkpt><trkpt lat="44.3648205" lon="9.8180501"><ele>564.0</ele><time>2026-03-22T10:51:58.249Z</time></trkpt><trkpt lat="44.3647732" lon="9.8178349"><ele>565.6666666666666</ele><time>2026-03-22T10:51:59.243Z</time></trkpt><trkpt lat="44.3647636" lon="9.8175963"><ele>567.3333333333333</ele><time>2026-03-22T10:52:00.241Z</time></trkpt><trkpt lat="44.3647607" lon="9.8173387"><ele>569.0</ele><time>2026-03-22T10:52:01.243Z</time></trkpt><trkpt lat="44.3647514" lon="9.817111"><ele>569.0</ele><time>2026-03-22T10:52:02.248Z</time></trkpt><trkpt lat="44.3647287" lon="9.8168889"><ele>569.0</ele><time>2026-03-22T10:52:03.249Z</time></trkpt><trkpt lat="44.3647126" lon="9.8167119"><ele>569.0</ele><time>2026-03-22T10:52:04.25Z</time></trkpt><trkpt lat="44.3647052" lon="9.8165333"><ele>569.0</ele><time>2026-03-22T10:52:05.242Z</time></trkpt><trkpt lat="44.3647231" lon="9.8163583"><ele>568.0</ele><time>2026-03-22T10:52:06.239Z</time></trkpt><trkpt lat="44.3647737" lon="9.8161746"><ele>567.0</ele><time>2026-03-22T10:52:07.246Z</time></trkpt><trkpt lat="44.3648643" lon="9.8159772"><ele>566.0</ele><time>2026-03-22T10:52:08.243Z</time></trkpt><trkpt lat="44.3649533" lon="9.8157712"><ele>564.0</ele><time>2026-03-22T10:52:09.242Z</time></trkpt><trkpt lat="44.3649967" lon="9.8155955"><ele>562.0</ele><time>2026-03-22T10:52:10.241Z</time></trkpt><trkpt lat="44.3649915" lon="9.8153997"><ele>560.0</ele><time>2026-03-22T10:52:11.238Z</time></trkpt><trkpt lat="44.3649542" lon="9.8151835"><ele>558.0</ele><time>2026-03-22T10:52:12.24Z</time></trkpt><trkpt lat="44.3649092" lon="9.8149817"><ele>558.0</ele><time>2026-03-22T10:52:13.244Z</time></trkpt><trkpt lat="44.3648757" lon="9.8147791"><ele>558.0</ele><time>2026-03-22T10:52:14.237Z</time></trkpt><trkpt lat="44.3648776" lon="9.8145704"><ele>558.0</ele><time>2026-03-22T10:52:15.239Z</time></trkpt><trkpt lat="44.3648718" lon="9.8143814"><ele>558.0</ele><time>2026-03-22T10:52:16.235Z</time></trkpt><trkpt lat="44.3648631" lon="9.8141987"><ele>558.0</ele><time>2026-03-22T10:52:17.235Z</time></trkpt><trkpt lat="44.3648773" lon="9.8140461"><ele>558.0</ele><time>2026-03-22T10:52:18.241Z</time></trkpt><trkpt lat="44.3649168" lon="9.8138883"><ele>558.0</ele><time>2026-03-22T10:52:19.242Z</time></trkpt><trkpt lat="44.3649633" lon="9.8136856"><ele>558.0</ele><time>2026-03-22T10:52:20.237Z</time></trkpt><trkpt lat="44.3650395" lon="9.813454"><ele>555.6666666666666</ele><time>2026-03-22T10:52:21.246Z</time></trkpt><trkpt lat="44.3651031" lon="9.8132237"><ele>553.3333333333333</ele><time>2026-03-22T10:52:22.239Z</time></trkpt><trkpt lat="44.3651574" lon="9.8130336"><ele>551.0</ele><time>2026-03-22T10:52:23.238Z</time></trkpt><trkpt lat="44.3651902" lon="9.8128623"><ele>551.0</ele><time>2026-03-22T10:52:24.231Z</time></trkpt><trkpt lat="44.3652306" lon="9.8127105"><ele>551.0</ele><time>2026-03-22T10:52:25.234Z</time></trkpt><trkpt lat="44.3651821" lon="9.8126219"><ele>551.0</ele><time>2026-03-22T10:52:26.23Z</time></trkpt><trkpt lat="44.365054" lon="9.8125646"><ele>551.0</ele><time>2026-03-22T10:52:28.236Z</time></trkpt><trkpt lat="44.3649469" lon="9.8125419"><ele>551.0</ele><time>2026-03-22T10:52:29.234Z</time></trkpt><trkpt lat="44.3648714" lon="9.8124897"><ele>552.6</ele><time>2026-03-22T10:52:30.234Z</time></trkpt><trkpt lat="44.3647927" lon="9.8124428"><ele>554.2</ele><time>2026-03-22T10:52:31.236Z</time></trkpt><trkpt lat="44.364717" lon="9.8124935"><ele>555.8</ele><time>2026-03-22T10:52:32.232Z</time></trkpt><trkpt lat="44.3646525" lon="9.812569"><ele>557.4</ele><time>2026-03-22T10:52:33.233Z</time></trkpt><trkpt lat="44.3645791" lon="9.8126677"><ele>559.0</ele><time>2026-03-22T10:52:34.236Z</time></trkpt><trkpt lat="44.3644786" lon="9.8128006"><ele>564.0</ele><time>2026-03-22T10:52:35.233Z</time></trkpt><trkpt lat="44.3643695" lon="9.8129654"><ele>569.0</ele><time>2026-03-22T10:52:36.23Z</time></trkpt><trkpt lat="44.3642689" lon="9.8131988"><ele>574.0</ele><time>2026-03-22T10:52:37.243Z</time></trkpt><trkpt lat="44.3642257" lon="9.8134299"><ele>566.75</ele><time>2026-03-22T10:52:38.236Z</time></trkpt><trkpt lat="44.3641657" lon="9.8135846"><ele>559.5</ele><time>2026-03-22T10:52:39.236Z</time></trkpt><trkpt lat="44.3640913" lon="9.8137168"><ele>552.25</ele><time>2026-03-22T10:52:40.24Z</time></trkpt><trkpt lat="44.363998" lon="9.8138466"><ele>545.0</ele><time>2026-03-22T10:52:41.239Z</time></trkpt><trkpt lat="44.3639098" lon="9.8139372"><ele>550.75</ele><time>2026-03-22T10:52:42.234Z</time></trkpt><trkpt lat="44.3638071" lon="9.8140429"><ele>556.5</ele><time>2026-03-22T10:52:43.244Z</time></trkpt><trkpt lat="44.3636802" lon="9.8141067"><ele>562.25</ele><time>2026-03-22T10:52:44.24Z</time></trkpt><trkpt lat="44.3635154" lon="9.8141669"><ele>568.0</ele><time>2026-03-22T10:52:45.239Z</time></trkpt><trkpt lat="44.363362" lon="9.8142407"><ele>566.0</ele><time>2026-03-22T10:52:46.23Z</time></trkpt><trkpt lat="44.3632002" lon="9.8143715"><ele>564.0</ele><time>2026-03-22T10:52:47.241Z</time></trkpt><trkpt lat="44.3630069" lon="9.8145373"><ele>562.0</ele><time>2026-03-22T10:52:48.237Z</time></trkpt><trkpt lat="44.3628086" lon="9.8147233"><ele>562.0</ele><time>2026-03-22T10:52:49.234Z</time></trkpt><trkpt lat="44.3626413" lon="9.8148562"><ele>562.0</ele><time>2026-03-22T10:52:50.245Z</time></trkpt><trkpt lat="44.3624791" lon="9.8149777"><ele>562.0</ele><time>2026-03-22T10:52:51.245Z</time></trkpt><trkpt lat="44.3623596" lon="9.8150812"><ele>561.5</ele><time>2026-03-22T10:52:52.238Z</time></trkpt><trkpt lat="44.3622934" lon="9.8152404"><ele>561.0</ele><time>2026-03-22T10:52:53.241Z</time></trkpt><trkpt lat="44.3622205" lon="9.8154249"><ele>560.5</ele><time>2026-03-22T10:52:54.243Z</time></trkpt><trkpt lat="44.3621518" lon="9.8156069"><ele>560.0</ele><time>2026-03-22T10:52:55.233Z</time></trkpt><trkpt lat="44.3620885" lon="9.815755"><ele>560.0</ele><time>2026-03-22T10:52:56.241Z</time></trkpt><trkpt lat="44.3620216" lon="9.8158864"><ele>560.0</ele><time>2026-03-22T10:52:57.237Z</time></trkpt><trkpt lat="44.3618898" lon="9.8159793"><ele>560.0</ele><time>2026-03-22T10:52:58.239Z</time></trkpt><trkpt lat="44.3617705" lon="9.8160718"><ele>560.0</ele><time>2026-03-22T10:52:59.248Z</time></trkpt><trkpt lat="44.3616782" lon="9.8161262"><ele>554.75</ele><time>2026-03-22T10:53:00.25Z</time></trkpt><trkpt lat="44.3615959" lon="9.8161514"><ele>549.5</ele><time>2026-03-22T10:53:01.247Z</time></trkpt><trkpt lat="44.3615068" lon="9.8161123"><ele>544.25</ele><time>2026-03-22T10:53:02.24Z</time></trkpt><trkpt lat="44.3613907" lon="9.8160359"><ele>539.0</ele><time>2026-03-22T10:53:03.236Z</time></trkpt><trkpt lat="44.3612619" lon="9.8159294"><ele>539.0</ele><time>2026-03-22T10:53:04.326Z</time></trkpt><trkpt lat="44.3611248" lon="9.8157779"><ele>539.0</ele><time>2026-03-22T10:53:05.244Z</time></trkpt><trkpt lat="44.3609744" lon="9.8156097"><ele>539.0</ele><time>2026-03-22T10:53:06.246Z</time></trkpt><trkpt lat="44.3608396" lon="9.8154593"><ele>539.0</ele><time>2026-03-22T10:53:07.241Z</time></trkpt><trkpt lat="44.3607155" lon="9.8153576"><ele>539.0</ele><time>2026-03-22T10:53:08.243Z</time></trkpt><trkpt lat="44.3605818" lon="9.8153194"><ele>539.0</ele><time>2026-03-22T10:53:09.247Z</time></trkpt><trkpt lat="44.3604588" lon="9.8152619"><ele>539.0</ele><time>2026-03-22T10:53:10.242Z</time></trkpt><trkpt lat="44.3603933" lon="9.8151659"><ele>542.25</ele><time>2026-03-22T10:53:11.243Z</time></trkpt><trkpt lat="44.3603575" lon="9.8149998"><ele>545.5</ele><time>2026-03-22T10:53:12.241Z</time></trkpt><trkpt lat="44.3602989" lon="9.8148216"><ele>548.75</ele><time>2026-03-22T10:53:13.24Z</time></trkpt><trkpt lat="44.3602326" lon="9.8147002"><ele>552.0</ele><time>2026-03-22T10:53:14.246Z</time></trkpt><trkpt lat="44.3601438" lon="9.8146354"><ele>552.0</ele><time>2026-03-22T10:53:15.241Z</time></trkpt><trkpt lat="44.3600245" lon="9.8146"><ele>552.0</ele><time>2026-03-22T10:53:16.248Z</time></trkpt><trkpt lat="44.3598745" lon="9.8146001"><ele>552.0</ele><time>2026-03-22T10:53:17.239Z</time></trkpt><trkpt lat="44.3597224" lon="9.8146163"><ele>552.0</ele><time>2026-03-22T10:53:18.243Z</time></trkpt><trkpt lat="44.3595825" lon="9.8146181"><ele>543.0</ele><time>2026-03-22T10:53:19.235Z</time></trkpt><trkpt lat="44.3594254" lon="9.8146024"><ele>534.0</ele><time>2026-03-22T10:53:20.238Z</time></trkpt><trkpt lat="44.3593059" lon="9.8145465"><ele>525.0</ele><time>2026-03-22T10:53:21.25Z</time></trkpt><trkpt lat="44.3592079" lon="9.8145102"><ele>516.0</ele><time>2026-03-22T10:53:22.233Z</time></trkpt><trkpt lat="44.3590985" lon="9.8144309"><ele>515.6666666666666</ele><time>2026-03-22T10:53:23.244Z</time></trkpt><trkpt lat="44.35902" lon="9.8142749"><ele>515.3333333333333</ele><time>2026-03-22T10:53:24.247Z</time></trkpt><trkpt lat="44.358915" lon="9.8140832"><ele>515.0</ele><time>2026-03-22T10:53:25.242Z</time></trkpt><trkpt lat="44.3588311" lon="9.8139152"><ele>515.0</ele><time>2026-03-22T10:53:26.245Z</time></trkpt><trkpt lat="44.3587565" lon="9.8138139"><ele>515.0</ele><time>2026-03-22T10:53:27.239Z</time></trkpt><trkpt lat="44.3587094" lon="9.8136947"><ele>515.0</ele><time>2026-03-22T10:53:28.243Z</time></trkpt><trkpt lat="44.3587181" lon="9.8135573"><ele>515.0</ele><time>2026-03-22T10:53:29.234Z</time></trkpt><trkpt lat="44.3587474" lon="9.8134393"><ele>515.0</ele><time>2026-03-22T10:53:30.24Z</time></trkpt><trkpt lat="44.3587934" lon="9.813329"><ele>518.4</ele><time>2026-03-22T10:53:31.236Z</time></trkpt><trkpt lat="44.3588442" lon="9.8132032"><ele>521.8</ele><time>2026-03-22T10:53:32.233Z</time></trkpt><trkpt lat="44.3588766" lon="9.8130969"><ele>525.2</ele><time>2026-03-22T10:53:33.235Z</time></trkpt><trkpt lat="44.3589253" lon="9.8129618"><ele>528.6</ele><time>2026-03-22T10:53:34.239Z</time></trkpt><trkpt lat="44.3589719" lon="9.81282"><ele>532.0</ele><time>2026-03-22T10:53:35.239Z</time></trkpt><trkpt lat="44.3590126" lon="9.8126831"><ele>541.0</ele><time>2026-03-22T10:53:36.237Z</time></trkpt><trkpt lat="44.3590369" lon="9.812549"><ele>550.0</ele><time>2026-03-22T10:53:37.238Z</time></trkpt><trkpt lat="44.3590343" lon="9.8124163"><ele>559.0</ele><time>2026-03-22T10:53:38.24Z</time></trkpt><trkpt lat="44.3590205" lon="9.8122689"><ele>568.0</ele><time>2026-03-22T10:53:39.242Z</time></trkpt><trkpt lat="44.3589879" lon="9.8121282"><ele>577.0</ele><time>2026-03-22T10:53:40.241Z</time></trkpt><trkpt lat="44.3589489" lon="9.8119689"><ele>580.0</ele><time>2026-03-22T10:53:41.236Z</time></trkpt><trkpt lat="44.3588994" lon="9.8118008"><ele>583.0</ele><time>2026-03-22T10:53:42.235Z</time></trkpt><trkpt lat="44.3588593" lon="9.8116156"><ele>586.0</ele><time>2026-03-22T10:53:43.232Z</time></trkpt><trkpt lat="44.3588083" lon="9.8114495"><ele>589.0</ele><time>2026-03-22T10:53:44.24Z</time></trkpt><trkpt lat="44.3587529" lon="9.8113038"><ele>578.4</ele><time>2026-03-22T10:53:45.238Z</time></trkpt><trkpt lat="44.3586918" lon="9.8111786"><ele>567.8</ele><time>2026-03-22T10:53:46.238Z</time></trkpt><trkpt lat="44.3586318" lon="9.811074"><ele>557.2</ele><time>2026-03-22T10:53:47.239Z</time></trkpt><trkpt lat="44.3585775" lon="9.8109637"><ele>546.6</ele><time>2026-03-22T10:53:48.24Z</time></trkpt><trkpt lat="44.3585464" lon="9.8108445"><ele>536.0</ele><time>2026-03-22T10:53:49.235Z</time></trkpt><trkpt lat="44.358548" lon="9.8107194"><ele>536.0</ele><time>2026-03-22T10:53:50.245Z</time></trkpt><trkpt lat="44.3585721" lon="9.810581"><ele>536.0</ele><time>2026-03-22T10:53:51.239Z</time></trkpt><trkpt lat="44.3586268" lon="9.8104378"><ele>536.0</ele><time>2026-03-22T10:53:52.254Z</time></trkpt><trkpt lat="44.3587083" lon="9.8102968"><ele>536.0</ele><time>2026-03-22T10:53:53.247Z</time></trkpt><trkpt lat="44.3587847" lon="9.8101636"><ele>536.8</ele><time>2026-03-22T10:53:54.245Z</time></trkpt><trkpt lat="44.3588563" lon="9.8100563"><ele>537.6</ele><time>2026-03-22T10:53:55.242Z</time></trkpt><trkpt lat="44.3589118" lon="9.809953"><ele>538.4</ele><time>2026-03-22T10:53:56.237Z</time></trkpt><trkpt lat="44.3589566" lon="9.8098484"><ele>539.2</ele><time>2026-03-22T10:53:57.238Z</time></trkpt><trkpt lat="44.358939" lon="9.8097374"><ele>540.0</ele><time>2026-03-22T10:53:58.316Z</time></trkpt><trkpt lat="44.3588755" lon="9.8096443"><ele>540.0</ele><time>2026-03-22T10:53:59.234Z</time></trkpt><trkpt lat="44.3587785" lon="9.8095529"><ele>540.0</ele><time>2026-03-22T10:54:00.229Z</time></trkpt><trkpt lat="44.3586469" lon="9.8094652"><ele>540.0</ele><time>2026-03-22T10:54:01.239Z</time></trkpt><trkpt lat="44.3585153" lon="9.8093901"><ele>540.0</ele><time>2026-03-22T10:54:02.237Z</time></trkpt><trkpt lat="44.3583958" lon="9.8093264"><ele>542.6</ele><time>2026-03-22T10:54:03.238Z</time></trkpt><trkpt lat="44.3582987" lon="9.8092621"><ele>545.2</ele><time>2026-03-22T10:54:04.232Z</time></trkpt><trkpt lat="44.358228" lon="9.809179"><ele>547.8</ele><time>2026-03-22T10:54:05.24Z</time></trkpt><trkpt lat="44.3581979" lon="9.8090606"><ele>550.4</ele><time>2026-03-22T10:54:06.243Z</time></trkpt><trkpt lat="44.3582078" lon="9.8089127"><ele>553.0</ele><time>2026-03-22T10:54:07.24Z</time></trkpt><trkpt lat="44.3582633" lon="9.8087423"><ele>553.0</ele><time>2026-03-22T10:54:08.243Z</time></trkpt><trkpt lat="44.3583478" lon="9.8085665"><ele>553.0</ele><time>2026-03-22T10:54:09.242Z</time></trkpt><trkpt lat="44.3584359" lon="9.8083756"><ele>553.0</ele><time>2026-03-22T10:54:10.239Z</time></trkpt><trkpt lat="44.3584601" lon="9.8082184"><ele>553.0</ele><time>2026-03-22T10:54:11.243Z</time></trkpt><trkpt lat="44.3584016" lon="9.8081317"><ele>555.25</ele><time>2026-03-22T10:54:12.232Z</time></trkpt><trkpt lat="44.3583345" lon="9.8080735"><ele>557.5</ele><time>2026-03-22T10:54:13.243Z</time></trkpt><trkpt lat="44.3582254" lon="9.8079563"><ele>559.75</ele><time>2026-03-22T10:54:14.237Z</time></trkpt><trkpt lat="44.3581466" lon="9.8078122"><ele>562.0</ele><time>2026-03-22T10:54:15.234Z</time></trkpt><trkpt lat="44.3580821" lon="9.8076371"><ele>553.5</ele><time>2026-03-22T10:54:16.244Z</time></trkpt><trkpt lat="44.3580159" lon="9.8074556"><ele>545.0</ele><time>2026-03-22T10:54:17.239Z</time></trkpt><trkpt lat="44.3579088" lon="9.8073253"><ele>536.5</ele><time>2026-03-22T10:54:18.238Z</time></trkpt><trkpt lat="44.3577994" lon="9.8072319"><ele>528.0</ele><time>2026-03-22T10:54:19.243Z</time></trkpt><trkpt lat="44.3577192" lon="9.8071446"><ele>528.0</ele><time>2026-03-22T10:54:20.237Z</time></trkpt><trkpt lat="44.3576804" lon="9.807007"><ele>528.0</ele><time>2026-03-22T10:54:21.243Z</time></trkpt><trkpt lat="44.3576401" lon="9.8068463"><ele>528.0</ele><time>2026-03-22T10:54:22.234Z</time></trkpt><trkpt lat="44.3575946" lon="9.8066792"><ele>528.0</ele><time>2026-03-22T10:54:23.242Z</time></trkpt><trkpt lat="44.357505" lon="9.8065496"><ele>534.0</ele><time>2026-03-22T10:54:24.247Z</time></trkpt><trkpt lat="44.3574393" lon="9.8064239"><ele>540.0</ele><time>2026-03-22T10:54:25.241Z</time></trkpt><trkpt lat="44.3574142" lon="9.8062838"><ele>546.0</ele><time>2026-03-22T10:54:26.245Z</time></trkpt><trkpt lat="44.3574314" lon="9.8061211"><ele>552.0</ele><time>2026-03-22T10:54:27.241Z</time></trkpt><trkpt lat="44.3574713" lon="9.8059336"><ele>552.6666666666666</ele><time>2026-03-22T10:54:28.247Z</time></trkpt><trkpt lat="44.35754" lon="9.8057281"><ele>553.3333333333333</ele><time>2026-03-22T10:54:29.24Z</time></trkpt><trkpt lat="44.3576488" lon="9.8054712"><ele>554.0</ele><time>2026-03-22T10:54:30.245Z</time></trkpt><trkpt lat="44.3577324" lon="9.805225"><ele>554.5</ele><time>2026-03-22T10:54:31.247Z</time></trkpt><trkpt lat="44.3578038" lon="9.8050539"><ele>555.0</ele><time>2026-03-22T10:54:32.242Z</time></trkpt><trkpt lat="44.3578872" lon="9.8049083"><ele>555.5</ele><time>2026-03-22T10:54:33.244Z</time></trkpt><trkpt lat="44.3579622" lon="9.8047765"><ele>556.0</ele><time>2026-03-22T10:54:34.233Z</time></trkpt><trkpt lat="44.3579687" lon="9.8046688"><ele>556.0</ele><time>2026-03-22T10:54:35.235Z</time></trkpt><trkpt lat="44.357942" lon="9.8045444"><ele>556.0</ele><time>2026-03-22T10:54:36.229Z</time></trkpt><trkpt lat="44.3578794" lon="9.8044638"><ele>556.0</ele><time>2026-03-22T10:54:37.227Z</time></trkpt><trkpt lat="44.3577859" lon="9.804384"><ele>556.0</ele><time>2026-03-22T10:54:38.239Z</time></trkpt><trkpt lat="44.3576567" lon="9.804313"><ele>556.0</ele><time>2026-03-22T10:54:39.232Z</time></trkpt><trkpt lat="44.3575219" lon="9.804261"><ele>558.8</ele><time>2026-03-22T10:54:40.23Z</time></trkpt><trkpt lat="44.3573859" lon="9.8042358"><ele>561.6</ele><time>2026-03-22T10:54:41.228Z</time></trkpt><trkpt lat="44.3572838" lon="9.8042352"><ele>564.4</ele><time>2026-03-22T10:54:42.239Z</time></trkpt><trkpt lat="44.3572337" lon="9.8041367"><ele>567.2</ele><time>2026-03-22T10:54:43.239Z</time></trkpt><trkpt lat="44.3572333" lon="9.8039889"><ele>570.0</ele><time>2026-03-22T10:54:44.234Z</time></trkpt><trkpt lat="44.3572512" lon="9.8038215"><ele>570.0</ele><time>2026-03-22T10:54:45.257Z</time></trkpt><trkpt lat="44.3572402" lon="9.8036664"><ele>570.0</ele><time>2026-03-22T10:54:46.256Z</time></trkpt><trkpt lat="44.3571907" lon="9.803558"><ele>570.0</ele><time>2026-03-22T10:54:47.242Z</time></trkpt><trkpt lat="44.357099" lon="9.8034748"><ele>570.0</ele><time>2026-03-22T10:54:48.256Z</time></trkpt><trkpt lat="44.3570143" lon="9.8033928"><ele>570.0</ele><time>2026-03-22T10:54:49.245Z</time></trkpt><trkpt lat="44.3569269" lon="9.8033379"><ele>571.5</ele><time>2026-03-22T10:54:50.251Z</time></trkpt><trkpt lat="44.3568303" lon="9.803345"><ele>573.0</ele><time>2026-03-22T10:54:51.255Z</time></trkpt><trkpt lat="44.3567224" lon="9.8033806"><ele>574.5</ele><time>2026-03-22T10:54:52.325Z</time></trkpt><trkpt lat="44.3565965" lon="9.8034639"><ele>576.0</ele><time>2026-03-22T10:54:53.259Z</time></trkpt><trkpt lat="44.3564288" lon="9.8036475"><ele>575.6666666666666</ele><time>2026-03-22T10:54:54.258Z</time></trkpt><trkpt lat="44.3562595" lon="9.8038125"><ele>575.3333333333333</ele><time>2026-03-22T10:54:55.246Z</time></trkpt><trkpt lat="44.3560989" lon="9.8040088"><ele>575.0</ele><time>2026-03-22T10:54:56.256Z</time></trkpt><trkpt lat="44.3559715" lon="9.8042024"><ele>569.5</ele><time>2026-03-22T10:54:57.247Z</time></trkpt><trkpt lat="44.3558696" lon="9.8043858"><ele>564.0</ele><time>2026-03-22T10:54:58.232Z</time></trkpt><trkpt lat="44.3557889" lon="9.8045591"><ele>558.5</ele><time>2026-03-22T10:54:59.247Z</time></trkpt><trkpt lat="44.3557482" lon="9.804693"><ele>553.0</ele><time>2026-03-22T10:55:00.246Z</time></trkpt><trkpt lat="44.3557236" lon="9.8047925"><ele>553.0</ele><time>2026-03-22T10:55:01.244Z</time></trkpt><trkpt lat="44.3556365" lon="9.8048517"><ele>553.0</ele><time>2026-03-22T10:55:02.254Z</time></trkpt><trkpt lat="44.3555522" lon="9.80485"><ele>553.0</ele><time>2026-03-22T10:55:03.247Z</time></trkpt><trkpt lat="44.3554384" lon="9.8048256"><ele>553.0</ele><time>2026-03-22T10:55:04.253Z</time></trkpt><trkpt lat="44.3553187" lon="9.8047938"><ele>553.0</ele><time>2026-03-22T10:55:05.238Z</time></trkpt><trkpt lat="44.3552172" lon="9.804757"><ele>550.5</ele><time>2026-03-22T10:55:06.246Z</time></trkpt><trkpt lat="44.3551229" lon="9.804664"><ele>548.0</ele><time>2026-03-22T10:55:07.24Z</time></trkpt><trkpt lat="44.3550275" lon="9.8045341"><ele>545.5</ele><time>2026-03-22T10:55:08.236Z</time></trkpt><trkpt lat="44.3549279" lon="9.8043782"><ele>543.0</ele><time>2026-03-22T10:55:09.25Z</time></trkpt><trkpt lat="44.3548057" lon="9.8042283"><ele>546.3333333333334</ele><time>2026-03-22T10:55:10.246Z</time></trkpt><trkpt lat="44.3546553" lon="9.8041168"><ele>549.6666666666667</ele><time>2026-03-22T10:55:11.246Z</time></trkpt><trkpt lat="44.3545085" lon="9.8040301"><ele>553.0</ele><time>2026-03-22T10:55:12.244Z</time></trkpt><trkpt lat="44.3543636" lon="9.8039357"><ele>553.0</ele><time>2026-03-22T10:55:13.248Z</time></trkpt><trkpt lat="44.3542269" lon="9.8037773"><ele>553.0</ele><time>2026-03-22T10:55:14.241Z</time></trkpt><trkpt lat="44.3540966" lon="9.8036065"><ele>553.0</ele><time>2026-03-22T10:55:15.246Z</time></trkpt><trkpt lat="44.3539316" lon="9.8034616"><ele>559.25</ele><time>2026-03-22T10:55:16.247Z</time></trkpt><trkpt lat="44.3537773" lon="9.8033084"><ele>565.5</ele><time>2026-03-22T10:55:17.239Z</time></trkpt><trkpt lat="44.3536543" lon="9.8032155"><ele>571.75</ele><time>2026-03-22T10:55:18.251Z</time></trkpt><trkpt lat="44.3535745" lon="9.8031658"><ele>578.0</ele><time>2026-03-22T10:55:19.241Z</time></trkpt><trkpt lat="44.3535096" lon="9.8031374"><ele>578.0</ele><time>2026-03-22T10:55:20.249Z</time></trkpt><trkpt lat="44.3534233" lon="9.8031709"><ele>578.0</ele><time>2026-03-22T10:55:21.255Z</time></trkpt><trkpt lat="44.3533052" lon="9.8032805"><ele>578.0</ele><time>2026-03-22T10:55:22.241Z</time></trkpt><trkpt lat="44.3532146" lon="9.8033745"><ele>578.0</ele><time>2026-03-22T10:55:23.242Z</time></trkpt><trkpt lat="44.3531059" lon="9.8034496"><ele>571.0</ele><time>2026-03-22T10:55:24.249Z</time></trkpt><trkpt lat="44.3530078" lon="9.8034657"><ele>564.0</ele><time>2026-03-22T10:55:25.233Z</time></trkpt><trkpt lat="44.3529306" lon="9.8034292"><ele>557.0</ele><time>2026-03-22T10:55:26.251Z</time></trkpt><trkpt lat="44.3528888" lon="9.8032911"><ele>550.0</ele><time>2026-03-22T10:55:27.248Z</time></trkpt><trkpt lat="44.352866" lon="9.8031102"><ele>543.0</ele><time>2026-03-22T10:55:28.243Z</time></trkpt><trkpt lat="44.3528191" lon="9.8029262"><ele>543.0</ele><time>2026-03-22T10:55:29.248Z</time></trkpt><trkpt lat="44.3527575" lon="9.8027477"><ele>543.0</ele><time>2026-03-22T10:55:30.24Z</time></trkpt><trkpt lat="44.352701" lon="9.802571"><ele>543.0</ele><time>2026-03-22T10:55:31.249Z</time></trkpt><trkpt lat="44.3526675" lon="9.8023603"><ele>543.0</ele><time>2026-03-22T10:55:32.245Z</time></trkpt><trkpt lat="44.3526924" lon="9.8020783"><ele>549.75</ele><time>2026-03-22T10:55:33.248Z</time></trkpt><trkpt lat="44.352702" lon="9.8018747"><ele>556.5</ele><time>2026-03-22T10:55:34.245Z</time></trkpt><trkpt lat="44.3526476" lon="9.8016882"><ele>563.25</ele><time>2026-03-22T10:55:35.246Z</time></trkpt><trkpt lat="44.3525687" lon="9.8015854"><ele>570.0</ele><time>2026-03-22T10:55:36.237Z</time></trkpt><trkpt lat="44.3524812" lon="9.801499"><ele>574.25</ele><time>2026-03-22T10:55:37.241Z</time></trkpt><trkpt lat="44.3523724" lon="9.8014263"><ele>578.5</ele><time>2026-03-22T10:55:38.235Z</time></trkpt><trkpt lat="44.3522587" lon="9.8013406"><ele>582.75</ele><time>2026-03-22T10:55:39.238Z</time></trkpt><trkpt lat="44.3521317" lon="9.8012541"><ele>587.0</ele><time>2026-03-22T10:55:40.243Z</time></trkpt><trkpt lat="44.352011" lon="9.801194"><ele>585.2</ele><time>2026-03-22T10:55:41.246Z</time></trkpt><trkpt lat="44.3519306" lon="9.801105"><ele>583.4000000000001</ele><time>2026-03-22T10:55:42.248Z</time></trkpt><trkpt lat="44.35187" lon="9.8010067"><ele>581.5999999999999</ele><time>2026-03-22T10:55:43.238Z</time></trkpt><trkpt lat="44.3518081" lon="9.8008952"><ele>579.8</ele><time>2026-03-22T10:55:44.253Z</time></trkpt><trkpt lat="44.3517643" lon="9.8007375"><ele>578.0</ele><time>2026-03-22T10:55:45.243Z</time></trkpt><trkpt lat="44.3517298" lon="9.8005762"><ele>578.0</ele><time>2026-03-22T10:55:46.258Z</time></trkpt><trkpt lat="44.3517206" lon="9.8003925"><ele>578.0</ele><time>2026-03-22T10:55:47.25Z</time></trkpt><trkpt lat="44.351746" lon="9.800212"><ele>578.0</ele><time>2026-03-22T10:55:48.251Z</time></trkpt><trkpt lat="44.3518034" lon="9.8000366"><ele>578.0</ele><time>2026-03-22T10:55:49.237Z</time></trkpt><trkpt lat="44.3518627" lon="9.7998756"><ele>580.1666666666666</ele><time>2026-03-22T10:55:50.243Z</time></trkpt><trkpt lat="44.3518815" lon="9.79974"><ele>582.3333333333333</ele><time>2026-03-22T10:55:51.244Z</time></trkpt><trkpt lat="44.351862" lon="9.7996156"><ele>584.5</ele><time>2026-03-22T10:55:52.239Z</time></trkpt><trkpt lat="44.3518168" lon="9.7995213"><ele>586.6666666666666</ele><time>2026-03-22T10:55:53.233Z</time></trkpt><trkpt lat="44.3517593" lon="9.7994528"><ele>588.8333333333334</ele><time>2026-03-22T10:55:54.243Z</time></trkpt><trkpt lat="44.3516828" lon="9.7993933"><ele>591.0</ele><time>2026-03-22T10:55:55.243Z</time></trkpt><trkpt lat="44.3516053" lon="9.7993178"><ele>593.2</ele><time>2026-03-22T10:55:56.244Z</time></trkpt><trkpt lat="44.3515183" lon="9.7992409"><ele>595.4000000000001</ele><time>2026-03-22T10:55:57.239Z</time></trkpt><trkpt lat="44.3514598" lon="9.7991352"><ele>597.6</ele><time>2026-03-22T10:55:58.242Z</time></trkpt><trkpt lat="44.3514229" lon="9.7990154"><ele>599.8000000000001</ele><time>2026-03-22T10:55:59.245Z</time></trkpt><trkpt lat="44.3514251" lon="9.798843"><ele>602.0</ele><time>2026-03-22T10:56:00.234Z</time></trkpt><trkpt lat="44.3514282" lon="9.7986482"><ele>605.25</ele><time>2026-03-22T10:56:01.244Z</time></trkpt><trkpt lat="44.3514021" lon="9.7984458"><ele>608.5</ele><time>2026-03-22T10:56:02.246Z</time></trkpt><trkpt lat="44.3513476" lon="9.7982778"><ele>611.75</ele><time>2026-03-22T10:56:03.246Z</time></trkpt><trkpt lat="44.3513522" lon="9.7981142"><ele>615.0</ele><time>2026-03-22T10:56:04.251Z</time></trkpt><trkpt lat="44.3513935" lon="9.7979197"><ele>615.0</ele><time>2026-03-22T10:56:05.247Z</time></trkpt><trkpt lat="44.3514698" lon="9.7976922"><ele>615.0</ele><time>2026-03-22T10:56:06.253Z</time></trkpt><trkpt lat="44.3515386" lon="9.7974438"><ele>615.0</ele><time>2026-03-22T10:56:07.247Z</time></trkpt><trkpt lat="44.3516103" lon="9.7972138"><ele>612.75</ele><time>2026-03-22T10:56:08.246Z</time></trkpt><trkpt lat="44.3516714" lon="9.7970416"><ele>610.5</ele><time>2026-03-22T10:56:09.248Z</time></trkpt><trkpt lat="44.3517381" lon="9.7969018"><ele>608.25</ele><time>2026-03-22T10:56:10.245Z</time></trkpt><trkpt lat="44.351831" lon="9.7967783"><ele>606.0</ele><time>2026-03-22T10:56:11.239Z</time></trkpt><trkpt lat="44.351947" lon="9.7966491"><ele>602.8</ele><time>2026-03-22T10:56:12.241Z</time></trkpt><trkpt lat="44.3520185" lon="9.7965249"><ele>599.6</ele><time>2026-03-22T10:56:13.24Z</time></trkpt><trkpt lat="44.3520318" lon="9.7964069"><ele>596.4</ele><time>2026-03-22T10:56:14.235Z</time></trkpt><trkpt lat="44.3520117" lon="9.7962911"><ele>593.2</ele><time>2026-03-22T10:56:15.231Z</time></trkpt><trkpt lat="44.3519584" lon="9.7961485"><ele>590.0</ele><time>2026-03-22T10:56:16.239Z</time></trkpt><trkpt lat="44.3518981" lon="9.7960169"><ele>589.2</ele><time>2026-03-22T10:56:17.237Z</time></trkpt><trkpt lat="44.3518336" lon="9.7958967"><ele>588.4</ele><time>2026-03-22T10:56:18.241Z</time></trkpt><trkpt lat="44.3517854" lon="9.7957777"><ele>587.6</ele><time>2026-03-22T10:56:19.237Z</time></trkpt><trkpt lat="44.3517642" lon="9.7956427"><ele>586.8</ele><time>2026-03-22T10:56:20.241Z</time></trkpt><trkpt lat="44.3517722" lon="9.7954738"><ele>586.0</ele><time>2026-03-22T10:56:21.244Z</time></trkpt><trkpt lat="44.3517928" lon="9.7952685"><ele>584.6666666666667</ele><time>2026-03-22T10:56:22.244Z</time></trkpt><trkpt lat="44.3517989" lon="9.7950527"><ele>583.3333333333334</ele><time>2026-03-22T10:56:23.234Z</time></trkpt><trkpt lat="44.3518265" lon="9.7948098"><ele>582.0</ele><time>2026-03-22T10:56:24.254Z</time></trkpt><trkpt lat="44.3518612" lon="9.7946082"><ele>582.0</ele><time>2026-03-22T10:56:25.243Z</time></trkpt><trkpt lat="44.3519174" lon="9.7944682"><ele>582.0</ele><time>2026-03-22T10:56:26.246Z</time></trkpt><trkpt lat="44.3520193" lon="9.7943394"><ele>582.0</ele><time>2026-03-22T10:56:27.242Z</time></trkpt><trkpt lat="44.3521559" lon="9.794208"><ele>582.0</ele><time>2026-03-22T10:56:28.248Z</time></trkpt><trkpt lat="44.3522816" lon="9.7940616"><ele>580.4</ele><time>2026-03-22T10:56:29.254Z</time></trkpt><trkpt lat="44.352345" lon="9.7939594"><ele>578.8000000000001</ele><time>2026-03-22T10:56:30.233Z</time></trkpt><trkpt lat="44.3523591" lon="9.79383"><ele>577.2</ele><time>2026-03-22T10:56:31.235Z</time></trkpt><trkpt lat="44.3523469" lon="9.7937341"><ele>575.6</ele><time>2026-03-22T10:56:32.239Z</time></trkpt><trkpt lat="44.3523033" lon="9.793595"><ele>574.0</ele><time>2026-03-22T10:56:33.245Z</time></trkpt><trkpt lat="44.3521994" lon="9.7934418"><ele>574.0</ele><time>2026-03-22T10:56:34.246Z</time></trkpt><trkpt lat="44.3521112" lon="9.7932677"><ele>574.0</ele><time>2026-03-22T10:56:35.242Z</time></trkpt><trkpt lat="44.352046" lon="9.7931111"><ele>574.0</ele><time>2026-03-22T10:56:36.247Z</time></trkpt><trkpt lat="44.3520033" lon="9.7929893"><ele>574.0</ele><time>2026-03-22T10:56:37.236Z</time></trkpt><trkpt lat="44.3519798" lon="9.7928577"><ele>574.0</ele><time>2026-03-22T10:56:38.248Z</time></trkpt><trkpt lat="44.3520079" lon="9.792697"><ele>574.0</ele><time>2026-03-22T10:56:39.252Z</time></trkpt><trkpt lat="44.352062" lon="9.7925152"><ele>574.0</ele><time>2026-03-22T10:56:40.248Z</time></trkpt><trkpt lat="44.3521418" lon="9.7923218"><ele>574.0</ele><time>2026-03-22T10:56:41.248Z</time></trkpt><trkpt lat="44.3522233" lon="9.7921135"><ele>588.75</ele><time>2026-03-22T10:56:42.246Z</time></trkpt><trkpt lat="44.3522569" lon="9.7919129"><ele>603.5</ele><time>2026-03-22T10:56:43.244Z</time></trkpt><trkpt lat="44.3522319" lon="9.7917159"><ele>618.25</ele><time>2026-03-22T10:56:44.244Z</time></trkpt><trkpt lat="44.3522181" lon="9.7915091"><ele>633.0</ele><time>2026-03-22T10:56:45.239Z</time></trkpt><trkpt lat="44.3522326" lon="9.7912992"><ele>633.0</ele><time>2026-03-22T10:56:46.247Z</time></trkpt><trkpt lat="44.3522413" lon="9.7911176"><ele>633.0</ele><time>2026-03-22T10:56:47.243Z</time></trkpt><trkpt lat="44.3522793" lon="9.790945"><ele>633.0</ele><time>2026-03-22T10:56:48.249Z</time></trkpt><trkpt lat="44.3523408" lon="9.7907893"><ele>633.0</ele><time>2026-03-22T10:56:49.239Z</time></trkpt><trkpt lat="44.3524241" lon="9.7906881"><ele>627.6666666666666</ele><time>2026-03-22T10:56:50.24Z</time></trkpt><trkpt lat="44.352528" lon="9.7905904"><ele>622.3333333333333</ele><time>2026-03-22T10:56:51.247Z</time></trkpt><trkpt lat="44.3526662" lon="9.7904817"><ele>617.0</ele><time>2026-03-22T10:56:52.241Z</time></trkpt><trkpt lat="44.3528208" lon="9.7903497"><ele>617.0</ele><time>2026-03-22T10:56:53.247Z</time></trkpt><trkpt lat="44.3529753" lon="9.7901808"><ele>617.0</ele><time>2026-03-22T10:56:54.246Z</time></trkpt><trkpt lat="44.3531195" lon="9.7900168"><ele>617.0</ele><time>2026-03-22T10:56:55.244Z</time></trkpt><trkpt lat="44.3532485" lon="9.7898604"><ele>619.5</ele><time>2026-03-22T10:56:56.248Z</time></trkpt><trkpt lat="44.3533597" lon="9.7897539"><ele>622.0</ele><time>2026-03-22T10:56:57.24Z</time></trkpt><trkpt lat="44.3534856" lon="9.7896585"><ele>624.5</ele><time>2026-03-22T10:56:58.253Z</time></trkpt><trkpt lat="44.3536228" lon="9.7895946"><ele>627.0</ele><time>2026-03-22T10:56:59.238Z</time></trkpt><trkpt lat="44.3536969" lon="9.7895397"><ele>627.0</ele><time>2026-03-22T10:57:00.241Z</time></trkpt><trkpt lat="44.3537523" lon="9.7894221"><ele>627.0</ele><time>2026-03-22T10:57:01.244Z</time></trkpt><trkpt lat="44.3537503" lon="9.7892685"><ele>627.0</ele><time>2026-03-22T10:57:03.245Z</time></trkpt><trkpt lat="44.3537405" lon="9.7891407"><ele>627.0</ele><time>2026-03-22T10:57:05.252Z</time></trkpt><trkpt lat="44.3537323" lon="9.7890168"><ele>627.0</ele><time>2026-03-22T10:57:08.253Z</time></trkpt><trkpt lat="44.3537049" lon="9.7889375"><ele>626.4</ele><time>2026-03-22T10:57:10.253Z</time></trkpt><trkpt lat="44.3536357" lon="9.7889271"><ele>625.8000000000001</ele><time>2026-03-22T10:57:12.246Z</time></trkpt><trkpt lat="44.3535337" lon="9.7889744"><ele>625.2</ele><time>2026-03-22T10:57:14.247Z</time></trkpt><trkpt lat="44.3534404" lon="9.7890333"><ele>624.6</ele><time>2026-03-22T10:57:16.317Z</time></trkpt><trkpt lat="44.3533452" lon="9.7890685"><ele>624.0</ele><time>2026-03-22T10:57:18.247Z</time></trkpt><trkpt lat="44.3532461" lon="9.7891227"><ele>624.0</ele><time>2026-03-22T10:57:20.242Z</time></trkpt><trkpt lat="44.3531568" lon="9.7891588"><ele>624.0</ele><time>2026-03-22T10:57:22.247Z</time></trkpt><trkpt lat="44.3530718" lon="9.7892125"><ele>624.0</ele><time>2026-03-22T10:57:24.24Z</time></trkpt><trkpt lat="44.3529194" lon="9.7892652"><ele>624.0</ele><time>2026-03-22T10:57:26.237Z</time></trkpt><trkpt lat="44.3528075" lon="9.7892906"><ele>627.0</ele><time>2026-03-22T10:57:27.248Z</time></trkpt><trkpt lat="44.3526875" lon="9.7893036"><ele>630.0</ele><time>2026-03-22T10:57:28.234Z</time></trkpt><trkpt lat="44.352543" lon="9.7892986"><ele>633.0</ele><time>2026-03-22T10:57:29.239Z</time></trkpt><trkpt lat="44.3523851" lon="9.7892838"><ele>636.0</ele><time>2026-03-22T10:57:30.241Z</time></trkpt><trkpt lat="44.3522192" lon="9.7892628"><ele>642.3333333333334</ele><time>2026-03-22T10:57:31.24Z</time></trkpt><trkpt lat="44.352049" lon="9.789267"><ele>648.6666666666667</ele><time>2026-03-22T10:57:32.245Z</time></trkpt><trkpt lat="44.3518729" lon="9.7892986"><ele>655.0</ele><time>2026-03-22T10:57:33.233Z</time></trkpt><trkpt lat="44.3517313" lon="9.7893074"><ele>655.0</ele><time>2026-03-22T10:57:34.244Z</time></trkpt><trkpt lat="44.3515926" lon="9.7893314"><ele>655.0</ele><time>2026-03-22T10:57:35.237Z</time></trkpt><trkpt lat="44.3514941" lon="9.789406"><ele>655.0</ele><time>2026-03-22T10:57:36.24Z</time></trkpt><trkpt lat="44.351422" lon="9.789508"><ele>655.0</ele><time>2026-03-22T10:57:37.239Z</time></trkpt><trkpt lat="44.3513183" lon="9.7896292"><ele>651.4</ele><time>2026-03-22T10:57:38.245Z</time></trkpt><trkpt lat="44.35128" lon="9.7897622"><ele>647.8</ele><time>2026-03-22T10:57:39.24Z</time></trkpt><trkpt lat="44.3512232" lon="9.7898864"><ele>644.2</ele><time>2026-03-22T10:57:40.239Z</time></trkpt><trkpt lat="44.3511538" lon="9.7899569"><ele>640.6</ele><time>2026-03-22T10:57:41.247Z</time></trkpt><trkpt lat="44.351065" lon="9.789994"><ele>637.0</ele><time>2026-03-22T10:57:42.235Z</time></trkpt><trkpt lat="44.3509695" lon="9.7900246"><ele>637.0</ele><time>2026-03-22T10:57:43.24Z</time></trkpt><trkpt lat="44.3508636" lon="9.7900089"><ele>637.0</ele><time>2026-03-22T10:57:44.25Z</time></trkpt><trkpt lat="44.3507783" lon="9.7899588"><ele>637.0</ele><time>2026-03-22T10:57:45.238Z</time></trkpt><trkpt lat="44.3507116" lon="9.7898245"><ele>637.0</ele><time>2026-03-22T10:57:46.241Z</time></trkpt><trkpt lat="44.3506546" lon="9.7896408"><ele>637.0</ele><time>2026-03-22T10:57:47.244Z</time></trkpt><trkpt lat="44.3505826" lon="9.7894385"><ele>637.0</ele><time>2026-03-22T10:57:48.246Z</time></trkpt><trkpt lat="44.3505393" lon="9.7891462"><ele>637.0</ele><time>2026-03-22T10:57:49.243Z</time></trkpt><trkpt lat="44.3505058" lon="9.7888777"><ele>634.6666666666667</ele><time>2026-03-22T10:57:50.243Z</time></trkpt><trkpt lat="44.3504362" lon="9.7885901"><ele>632.3333333333334</ele><time>2026-03-22T10:57:51.242Z</time></trkpt><trkpt lat="44.3503837" lon="9.7883244"><ele>630.0</ele><time>2026-03-22T10:57:52.249Z</time></trkpt><trkpt lat="44.3503317" lon="9.7881297"><ele>630.0</ele><time>2026-03-22T10:57:53.24Z</time></trkpt><trkpt lat="44.350281" lon="9.7878943"><ele>630.0</ele><time>2026-03-22T10:57:54.246Z</time></trkpt><trkpt lat="44.3502567" lon="9.7876395"><ele>630.0</ele><time>2026-03-22T10:57:55.234Z</time></trkpt><trkpt lat="44.3502515" lon="9.7874088"><ele>634.3333333333334</ele><time>2026-03-22T10:57:56.242Z</time></trkpt><trkpt lat="44.3502233" lon="9.7871956"><ele>638.6666666666667</ele><time>2026-03-22T10:57:57.243Z</time></trkpt><trkpt lat="44.3501364" lon="9.7870084"><ele>643.0</ele><time>2026-03-22T10:57:58.237Z</time></trkpt><trkpt lat="44.3500626" lon="9.7868064"><ele>646.5</ele><time>2026-03-22T10:57:59.246Z</time></trkpt><trkpt lat="44.3499785" lon="9.7866495"><ele>650.0</ele><time>2026-03-22T10:58:00.25Z</time></trkpt><trkpt lat="44.3499116" lon="9.7865246"><ele>653.5</ele><time>2026-03-22T10:58:01.247Z</time></trkpt><trkpt lat="44.3499148" lon="9.7863743"><ele>657.0</ele><time>2026-03-22T10:58:02.253Z</time></trkpt><trkpt lat="44.3499679" lon="9.78621"><ele>657.0</ele><time>2026-03-22T10:58:03.25Z</time></trkpt><trkpt lat="44.3500505" lon="9.7860336"><ele>657.0</ele><time>2026-03-22T10:58:04.25Z</time></trkpt><trkpt lat="44.3500999" lon="9.7858479"><ele>657.0</ele><time>2026-03-22T10:58:05.255Z</time></trkpt><trkpt lat="44.3501272" lon="9.7856428"><ele>657.0</ele><time>2026-03-22T10:58:06.251Z</time></trkpt><trkpt lat="44.3501385" lon="9.7854515"><ele>657.2</ele><time>2026-03-22T10:58:07.258Z</time></trkpt><trkpt lat="44.3501773" lon="9.7853065"><ele>657.4000000000001</ele><time>2026-03-22T10:58:08.249Z</time></trkpt><trkpt lat="44.3502111" lon="9.7851837"><ele>657.5999999999999</ele><time>2026-03-22T10:58:09.246Z</time></trkpt><trkpt lat="44.3501861" lon="9.7850663"><ele>657.8</ele><time>2026-03-22T10:58:10.246Z</time></trkpt><trkpt lat="44.3501382" lon="9.7849685"><ele>658.0</ele><time>2026-03-22T10:58:11.248Z</time></trkpt><trkpt lat="44.3500367" lon="9.7848848"><ele>661.0</ele><time>2026-03-22T10:58:12.238Z</time></trkpt><trkpt lat="44.3499174" lon="9.7847969"><ele>664.0</ele><time>2026-03-22T10:58:13.251Z</time></trkpt><trkpt lat="44.3497954" lon="9.7846878"><ele>667.0</ele><time>2026-03-22T10:58:14.246Z</time></trkpt><trkpt lat="44.3496876" lon="9.7846277"><ele>670.0</ele><time>2026-03-22T10:58:15.246Z</time></trkpt><trkpt lat="44.3495852" lon="9.7845789"><ele>664.0</ele><time>2026-03-22T10:58:16.247Z</time></trkpt><trkpt lat="44.3495311" lon="9.7844716"><ele>658.0</ele><time>2026-03-22T10:58:17.25Z</time></trkpt><trkpt lat="44.3494993" lon="9.7843358"><ele>652.0</ele><time>2026-03-22T10:58:18.252Z</time></trkpt><trkpt lat="44.3495153" lon="9.784148"><ele>646.0</ele><time>2026-03-22T10:58:19.245Z</time></trkpt><trkpt lat="44.3495013" lon="9.7839996"><ele>640.0</ele><time>2026-03-22T10:58:20.25Z</time></trkpt><trkpt lat="44.3495103" lon="9.7838629"><ele>640.0</ele><time>2026-03-22T10:58:21.256Z</time></trkpt><trkpt lat="44.3495365" lon="9.7837324"><ele>640.0</ele><time>2026-03-22T10:58:22.255Z</time></trkpt><trkpt lat="44.3495998" lon="9.7836016"><ele>640.0</ele><time>2026-03-22T10:58:23.249Z</time></trkpt><trkpt lat="44.3496939" lon="9.7834814"><ele>640.0</ele><time>2026-03-22T10:58:24.246Z</time></trkpt><trkpt lat="44.3498067" lon="9.7833647"><ele>647.4</ele><time>2026-03-22T10:58:25.243Z</time></trkpt><trkpt lat="44.3498935" lon="9.783268"><ele>654.8</ele><time>2026-03-22T10:58:26.248Z</time></trkpt><trkpt lat="44.3499461" lon="9.7831646"><ele>662.2</ele><time>2026-03-22T10:58:27.243Z</time></trkpt><trkpt lat="44.3499503" lon="9.7830202"><ele>669.6</ele><time>2026-03-22T10:58:28.239Z</time></trkpt><trkpt lat="44.3499263" lon="9.7828507"><ele>677.0</ele><time>2026-03-22T10:58:29.24Z</time></trkpt><trkpt lat="44.3498901" lon="9.782674"><ele>677.0</ele><time>2026-03-22T10:58:30.249Z</time></trkpt><trkpt lat="44.3498684" lon="9.7825111"><ele>677.0</ele><time>2026-03-22T10:58:31.241Z</time></trkpt><trkpt lat="44.3498801" lon="9.7823304"><ele>677.0</ele><time>2026-03-22T10:58:32.248Z</time></trkpt><trkpt lat="44.3499621" lon="9.7821278"><ele>677.0</ele><time>2026-03-22T10:58:33.24Z</time></trkpt><trkpt lat="44.3500321" lon="9.7819221"><ele>675.5</ele><time>2026-03-22T10:58:34.248Z</time></trkpt><trkpt lat="44.3500804" lon="9.7816749"><ele>674.0</ele><time>2026-03-22T10:58:35.242Z</time></trkpt><trkpt lat="44.350072" lon="9.78148"><ele>672.5</ele><time>2026-03-22T10:58:36.245Z</time></trkpt><trkpt lat="44.3500459" lon="9.7813229"><ele>671.0</ele><time>2026-03-22T10:58:37.241Z</time></trkpt><trkpt lat="44.349987" lon="9.7812104"><ele>671.0</ele><time>2026-03-22T10:58:38.249Z</time></trkpt><trkpt lat="44.3499061" lon="9.7811464"><ele>671.0</ele><time>2026-03-22T10:58:39.239Z</time></trkpt><trkpt lat="44.3498411" lon="9.7810752"><ele>671.0</ele><time>2026-03-22T10:58:40.243Z</time></trkpt><trkpt lat="44.3497871" lon="9.7809776"><ele>671.0</ele><time>2026-03-22T10:58:41.25Z</time></trkpt><trkpt lat="44.3497744" lon="9.7808357"><ele>671.0</ele><time>2026-03-22T10:58:42.236Z</time></trkpt><trkpt lat="44.3498054" lon="9.7806262"><ele>673.5999999999999</ele><time>2026-03-22T10:58:43.249Z</time></trkpt><trkpt lat="44.349795" lon="9.7804479"><ele>676.2</ele><time>2026-03-22T10:58:44.247Z</time></trkpt><trkpt lat="44.3497722" lon="9.7803246"><ele>678.8</ele><time>2026-03-22T10:58:45.248Z</time></trkpt><trkpt lat="44.3497099" lon="9.7802316"><ele>681.4000000000001</ele><time>2026-03-22T10:58:46.242Z</time></trkpt><trkpt lat="44.3496291" lon="9.780176"><ele>684.0</ele><time>2026-03-22T10:58:47.243Z</time></trkpt><trkpt lat="44.3495108" lon="9.7801698"><ele>677.6</ele><time>2026-03-22T10:58:48.25Z</time></trkpt><trkpt lat="44.3493974" lon="9.7801587"><ele>671.2</ele><time>2026-03-22T10:58:49.242Z</time></trkpt><trkpt lat="44.3493129" lon="9.7800927"><ele>664.8000000000001</ele><time>2026-03-22T10:58:50.246Z</time></trkpt><trkpt lat="44.3492781" lon="9.7799562"><ele>658.4000000000001</ele><time>2026-03-22T10:58:51.247Z</time></trkpt><trkpt lat="44.3492593" lon="9.7798031"><ele>652.0</ele><time>2026-03-22T10:58:52.254Z</time></trkpt><trkpt lat="44.3492753" lon="9.7796164"><ele>652.0</ele><time>2026-03-22T10:58:53.242Z</time></trkpt><trkpt lat="44.3492957" lon="9.7794129"><ele>652.0</ele><time>2026-03-22T10:58:54.252Z</time></trkpt><trkpt lat="44.3492837" lon="9.7791686"><ele>652.0</ele><time>2026-03-22T10:58:55.242Z</time></trkpt><trkpt lat="44.3492008" lon="9.7790155"><ele>658.0</ele><time>2026-03-22T10:58:56.243Z</time></trkpt><trkpt lat="44.3490875" lon="9.7788694"><ele>664.0</ele><time>2026-03-22T10:58:57.244Z</time></trkpt><trkpt lat="44.3489759" lon="9.7787146"><ele>670.0</ele><time>2026-03-22T10:58:58.247Z</time></trkpt><trkpt lat="44.348899" lon="9.778535"><ele>662.4</ele><time>2026-03-22T10:58:59.241Z</time></trkpt><trkpt lat="44.3488192" lon="9.7783895"><ele>654.8</ele><time>2026-03-22T10:59:00.245Z</time></trkpt><trkpt lat="44.3487591" lon="9.7782755"><ele>647.2</ele><time>2026-03-22T10:59:01.25Z</time></trkpt><trkpt lat="44.3487162" lon="9.7781588"><ele>639.6</ele><time>2026-03-22T10:59:02.254Z</time></trkpt><trkpt lat="44.3486585" lon="9.7780713"><ele>632.0</ele><time>2026-03-22T10:59:03.246Z</time></trkpt><trkpt lat="44.3486353" lon="9.7779524"><ele>632.0</ele><time>2026-03-22T10:59:04.249Z</time></trkpt><trkpt lat="44.3486251" lon="9.7778085"><ele>632.0</ele><time>2026-03-22T10:59:05.245Z</time></trkpt><trkpt lat="44.3486235" lon="9.7776134"><ele>632.0</ele><time>2026-03-22T10:59:06.245Z</time></trkpt><trkpt lat="44.3486053" lon="9.7774202"><ele>632.0</ele><time>2026-03-22T10:59:07.249Z</time></trkpt><trkpt lat="44.3485706" lon="9.7772101"><ele>635.0</ele><time>2026-03-22T10:59:08.25Z</time></trkpt><trkpt lat="44.3485305" lon="9.7769769"><ele>638.0</ele><time>2026-03-22T10:59:09.244Z</time></trkpt><trkpt lat="44.3485213" lon="9.7767585"><ele>641.0</ele><time>2026-03-22T10:59:10.251Z</time></trkpt><trkpt lat="44.3485124" lon="9.776616"><ele>644.0</ele><time>2026-03-22T10:59:11.237Z</time></trkpt><trkpt lat="44.3485207" lon="9.7765159"><ele>644.0</ele><time>2026-03-22T10:59:12.245Z</time></trkpt><trkpt lat="44.3485705" lon="9.7763975"><ele>644.0</ele><time>2026-03-22T10:59:13.244Z</time></trkpt><trkpt lat="44.3486631" lon="9.776312"><ele>644.0</ele><time>2026-03-22T10:59:14.251Z</time></trkpt><trkpt lat="44.3487929" lon="9.7762238"><ele>644.0</ele><time>2026-03-22T10:59:15.246Z</time></trkpt><trkpt lat="44.3489229" lon="9.776137"><ele>646.0</ele><time>2026-03-22T10:59:16.246Z</time></trkpt><trkpt lat="44.3490697" lon="9.7760413"><ele>648.0</ele><time>2026-03-22T10:59:17.235Z</time></trkpt><trkpt lat="44.3492434" lon="9.7759492"><ele>650.0</ele><time>2026-03-22T10:59:18.249Z</time></trkpt><trkpt lat="44.3494195" lon="9.7758473"><ele>650.0</ele><time>2026-03-22T10:59:19.246Z</time></trkpt><trkpt lat="44.3495749" lon="9.7756736"><ele>650.0</ele><time>2026-03-22T10:59:20.242Z</time></trkpt><trkpt lat="44.3497395" lon="9.7754773"><ele>650.0</ele><time>2026-03-22T10:59:21.246Z</time></trkpt><trkpt lat="44.3499036" lon="9.7753124"><ele>647.0</ele><time>2026-03-22T10:59:22.24Z</time></trkpt><trkpt lat="44.35006" lon="9.7751724"><ele>644.0</ele><time>2026-03-22T10:59:23.242Z</time></trkpt><trkpt lat="44.3502095" lon="9.7750715"><ele>641.0</ele><time>2026-03-22T10:59:24.243Z</time></trkpt><trkpt lat="44.3503193" lon="9.7749238"><ele>641.0</ele><time>2026-03-22T10:59:25.237Z</time></trkpt><trkpt lat="44.3504158" lon="9.7747975"><ele>641.0</ele><time>2026-03-22T10:59:26.249Z</time></trkpt><trkpt lat="44.3505064" lon="9.7746943"><ele>641.0</ele><time>2026-03-22T10:59:27.247Z</time></trkpt><trkpt lat="44.3506008" lon="9.7746022"><ele>641.0</ele><time>2026-03-22T10:59:28.241Z</time></trkpt><trkpt lat="44.35073" lon="9.7745553"><ele>639.75</ele><time>2026-03-22T10:59:29.243Z</time></trkpt><trkpt lat="44.3508859" lon="9.7745336"><ele>638.5</ele><time>2026-03-22T10:59:30.244Z</time></trkpt><trkpt lat="44.3510208" lon="9.7744727"><ele>637.25</ele><time>2026-03-22T10:59:31.251Z</time></trkpt><trkpt lat="44.3511286" lon="9.77439"><ele>636.0</ele><time>2026-03-22T10:59:32.249Z</time></trkpt><trkpt lat="44.3511943" lon="9.7743121"><ele>636.0</ele><time>2026-03-22T10:59:33.25Z</time></trkpt><trkpt lat="44.3512328" lon="9.7742045"><ele>636.0</ele><time>2026-03-22T10:59:34.253Z</time></trkpt><trkpt lat="44.351218" lon="9.774085"><ele>636.0</ele><time>2026-03-22T10:59:35.25Z</time></trkpt><trkpt lat="44.3512044" lon="9.7739347"><ele>636.0</ele><time>2026-03-22T10:59:36.247Z</time></trkpt><trkpt lat="44.3511615" lon="9.7737666"><ele>636.0</ele><time>2026-03-22T10:59:37.25Z</time></trkpt><trkpt lat="44.3511437" lon="9.7735949"><ele>637.6</ele><time>2026-03-22T10:59:38.239Z</time></trkpt><trkpt lat="44.3511241" lon="9.7734793"><ele>639.2</ele><time>2026-03-22T10:59:39.252Z</time></trkpt><trkpt lat="44.3511521" lon="9.7733643"><ele>640.8000000000001</ele><time>2026-03-22T10:59:40.244Z</time></trkpt><trkpt lat="44.3512065" lon="9.7732636"><ele>642.4000000000001</ele><time>2026-03-22T10:59:41.25Z</time></trkpt><trkpt lat="44.3512808" lon="9.7731815"><ele>644.0</ele><time>2026-03-22T10:59:42.252Z</time></trkpt><trkpt lat="44.3513948" lon="9.7731136"><ele>644.0</ele><time>2026-03-22T10:59:43.257Z</time></trkpt><trkpt lat="44.3515298" lon="9.7730859"><ele>644.0</ele><time>2026-03-22T10:59:44.252Z</time></trkpt><trkpt lat="44.3516595" lon="9.7730691"><ele>644.0</ele><time>2026-03-22T10:59:45.25Z</time></trkpt><trkpt lat="44.3517807" lon="9.7730175"><ele>644.0</ele><time>2026-03-22T10:59:46.255Z</time></trkpt><trkpt lat="44.3518742" lon="9.7728906"><ele>644.0</ele><time>2026-03-22T10:59:47.246Z</time></trkpt><trkpt lat="44.3519597" lon="9.7727132"><ele>644.0</ele><time>2026-03-22T10:59:48.252Z</time></trkpt><trkpt lat="44.3520555" lon="9.7724853"><ele>644.0</ele><time>2026-03-22T10:59:49.25Z</time></trkpt><trkpt lat="44.3521222" lon="9.7723128"><ele>637.0</ele><time>2026-03-22T10:59:50.244Z</time></trkpt><trkpt lat="44.352135" lon="9.7721365"><ele>630.0</ele><time>2026-03-22T10:59:51.248Z</time></trkpt><trkpt lat="44.3521391" lon="9.7719141"><ele>623.0</ele><time>2026-03-22T10:59:52.245Z</time></trkpt><trkpt lat="44.35214" lon="9.7716687"><ele>623.0</ele><time>2026-03-22T10:59:53.244Z</time></trkpt><trkpt lat="44.3521319" lon="9.7713999"><ele>623.0</ele><time>2026-03-22T10:59:54.246Z</time></trkpt><trkpt lat="44.35213" lon="9.7711875"><ele>623.0</ele><time>2026-03-22T10:59:55.237Z</time></trkpt><trkpt lat="44.3521046" lon="9.7710203"><ele>623.0</ele><time>2026-03-22T10:59:56.234Z</time></trkpt><trkpt lat="44.3520879" lon="9.7708522"><ele>623.0</ele><time>2026-03-22T10:59:57.237Z</time></trkpt><trkpt lat="44.3520357" lon="9.7707279"><ele>623.0</ele><time>2026-03-22T10:59:58.32Z</time></trkpt><trkpt lat="44.3519991" lon="9.7706061"><ele>623.0</ele><time>2026-03-22T10:59:59.241Z</time></trkpt><trkpt lat="44.3519641" lon="9.7704967"><ele>623.0</ele><time>2026-03-22T11:00:00.241Z</time></trkpt><trkpt lat="44.3518941" lon="9.7704316"><ele>623.0</ele><time>2026-03-22T11:00:01.245Z</time></trkpt><trkpt lat="44.3518291" lon="9.7703945"><ele>623.0</ele><time>2026-03-22T11:00:02.247Z</time></trkpt><trkpt lat="44.3517422" lon="9.770393"><ele>623.0</ele><time>2026-03-22T11:00:03.247Z</time></trkpt><trkpt lat="44.3516541" lon="9.7704307"><ele>623.0</ele><time>2026-03-22T11:00:04.253Z</time></trkpt><trkpt lat="44.3515828" lon="9.7705177"><ele>623.0</ele><time>2026-03-22T11:00:05.24Z</time></trkpt><trkpt lat="44.3515019" lon="9.770633"><ele>623.0</ele><time>2026-03-22T11:00:06.242Z</time></trkpt><trkpt lat="44.3514074" lon="9.7707595"><ele>623.0</ele><time>2026-03-22T11:00:07.242Z</time></trkpt><trkpt lat="44.3513178" lon="9.7708474"><ele>623.0</ele><time>2026-03-22T11:00:08.246Z</time></trkpt><trkpt lat="44.3512283" lon="9.7709093"><ele>623.0</ele><time>2026-03-22T11:00:09.235Z</time></trkpt><trkpt lat="44.3511428" lon="9.7709492"><ele>623.0</ele><time>2026-03-22T11:00:10.242Z</time></trkpt><trkpt lat="44.3510598" lon="9.7709678"><ele>621.6</ele><time>2026-03-22T11:00:11.252Z</time></trkpt><trkpt lat="44.3509717" lon="9.7709786"><ele>620.1999999999999</ele><time>2026-03-22T11:00:12.243Z</time></trkpt><trkpt lat="44.3508688" lon="9.7709965"><ele>618.8</ele><time>2026-03-22T11:00:13.24Z</time></trkpt><trkpt lat="44.3507434" lon="9.771009"><ele>617.4</ele><time>2026-03-22T11:00:14.241Z</time></trkpt><trkpt lat="44.3506331" lon="9.7710446"><ele>616.0</ele><time>2026-03-22T11:00:15.244Z</time></trkpt><trkpt lat="44.3505252" lon="9.7711041"><ele>619.75</ele><time>2026-03-22T11:00:16.324Z</time></trkpt><trkpt lat="44.3504139" lon="9.7711728"><ele>623.5</ele><time>2026-03-22T11:00:17.246Z</time></trkpt><trkpt lat="44.3502883" lon="9.7712273"><ele>627.25</ele><time>2026-03-22T11:00:18.237Z</time></trkpt><trkpt lat="44.3501404" lon="9.7712779"><ele>631.0</ele><time>2026-03-22T11:00:19.245Z</time></trkpt><trkpt lat="44.3500092" lon="9.7713426"><ele>631.0</ele><time>2026-03-22T11:00:20.235Z</time></trkpt><trkpt lat="44.3498576" lon="9.771363"><ele>631.0</ele><time>2026-03-22T11:00:21.235Z</time></trkpt><trkpt lat="44.3497635" lon="9.771366"><ele>631.0</ele><time>2026-03-22T11:00:22.244Z</time></trkpt><trkpt lat="44.349664" lon="9.77136"><ele>631.0</ele><time>2026-03-22T11:00:23.24Z</time></trkpt><trkpt lat="44.3495522" lon="9.7713446"><ele>631.8</ele><time>2026-03-22T11:00:24.24Z</time></trkpt><trkpt lat="44.3494347" lon="9.7713526"><ele>632.6</ele><time>2026-03-22T11:00:25.238Z</time></trkpt><trkpt lat="44.349334" lon="9.771318"><ele>633.4</ele><time>2026-03-22T11:00:26.247Z</time></trkpt><trkpt lat="44.3492213" lon="9.771297"><ele>634.2</ele><time>2026-03-22T11:00:27.246Z</time></trkpt><trkpt lat="44.3491284" lon="9.7713097"><ele>635.0</ele><time>2026-03-22T11:00:28.246Z</time></trkpt><trkpt lat="44.3490444" lon="9.7713538"><ele>635.0</ele><time>2026-03-22T11:00:29.245Z</time></trkpt><trkpt lat="44.3489705" lon="9.7714042"><ele>635.0</ele><time>2026-03-22T11:00:30.239Z</time></trkpt><trkpt lat="44.3489029" lon="9.7714247"><ele>635.0</ele><time>2026-03-22T11:00:31.242Z</time></trkpt><trkpt lat="44.3487973" lon="9.7713932"><ele>635.0</ele><time>2026-03-22T11:00:33.257Z</time></trkpt><trkpt lat="44.3487375" lon="9.7712671"><ele>635.0</ele><time>2026-03-22T11:00:35.252Z</time></trkpt><trkpt lat="44.3487365" lon="9.7711751"><ele>635.0</ele><time>2026-03-22T11:00:36.252Z</time></trkpt><trkpt lat="44.3487595" lon="9.7710726"><ele>634.0</ele><time>2026-03-22T11:00:37.255Z</time></trkpt><trkpt lat="44.3487916" lon="9.7709737"><ele>633.0</ele><time>2026-03-22T11:00:38.245Z</time></trkpt><trkpt lat="44.3488333" lon="9.7708802"><ele>632.0</ele><time>2026-03-22T11:00:39.244Z</time></trkpt><trkpt lat="44.3488837" lon="9.7708008"><ele>631.0</ele><time>2026-03-22T11:00:40.252Z</time></trkpt><trkpt lat="44.3489354" lon="9.7707311"><ele>630.0</ele><time>2026-03-22T11:00:41.25Z</time></trkpt><trkpt lat="44.3489966" lon="9.7706655"><ele>629.0</ele><time>2026-03-22T11:00:42.249Z</time></trkpt><trkpt lat="44.3490545" lon="9.7706041"><ele>630.8333333333333</ele><time>2026-03-22T11:00:43.246Z</time></trkpt><trkpt lat="44.3491377" lon="9.7705312"><ele>632.6666666666666</ele><time>2026-03-22T11:00:46.251Z</time></trkpt><trkpt lat="44.3491676" lon="9.7704389"><ele>634.5</ele><time>2026-03-22T11:10:25.249Z</time></trkpt><trkpt lat="44.3492275" lon="9.770384"><ele>636.3333333333334</ele><time>2026-03-22T11:10:29.249Z</time></trkpt><trkpt lat="44.3492911" lon="9.7702793"><ele>638.1666666666667</ele><time>2026-03-22T11:10:31.246Z</time></trkpt><trkpt lat="44.3493289" lon="9.7701939"><ele>640.0</ele><time>2026-03-22T11:10:32.246Z</time></trkpt><trkpt lat="44.3493662" lon="9.7701025"><ele>640.0</ele><time>2026-03-22T11:10:33.244Z</time></trkpt><trkpt lat="44.3494077" lon="9.7700056"><ele>640.0</ele><time>2026-03-22T11:10:34.247Z</time></trkpt><trkpt lat="44.349442" lon="9.7699093"><ele>640.0</ele><time>2026-03-22T11:10:35.25Z</time></trkpt><trkpt lat="44.3494759" lon="9.7698176"><ele>640.0</ele><time>2026-03-22T11:10:36.243Z</time></trkpt><trkpt lat="44.3495116" lon="9.7697208"><ele>640.0</ele><time>2026-03-22T11:10:37.255Z</time></trkpt><trkpt lat="44.3495502" lon="9.7696244"><ele>640.0</ele><time>2026-03-22T11:10:38.263Z</time></trkpt><trkpt lat="44.3495817" lon="9.769525"><ele>640.0</ele><time>2026-03-22T11:10:39.297Z</time></trkpt><trkpt lat="44.3496185" lon="9.7694275"><ele>640.0</ele><time>2026-03-22T11:10:40.295Z</time></trkpt><trkpt lat="44.3496649" lon="9.769341"><ele>640.0</ele><time>2026-03-22T11:10:41.266Z</time></trkpt><trkpt lat="44.3497135" lon="9.7692572"><ele>640.0</ele><time>2026-03-22T11:10:42.257Z</time></trkpt><trkpt lat="44.3497593" lon="9.7691741"><ele>640.0</ele><time>2026-03-22T11:10:43.27Z</time></trkpt><trkpt lat="44.3498152" lon="9.7691003"><ele>640.0</ele><time>2026-03-22T11:10:44.273Z</time></trkpt><trkpt lat="44.3498741" lon="9.7690355"><ele>642.3333333333334</ele><time>2026-03-22T11:10:45.27Z</time></trkpt><trkpt lat="44.3499354" lon="9.7689665"><ele>644.6666666666667</ele><time>2026-03-22T11:10:46.28Z</time></trkpt><trkpt lat="44.349986" lon="9.7688927"><ele>647.0</ele><time>2026-03-22T11:10:47.279Z</time></trkpt><trkpt lat="44.3500091" lon="9.7687917"><ele>649.3333333333334</ele><time>2026-03-22T11:10:48.293Z</time></trkpt><trkpt lat="44.3500134" lon="9.768684"><ele>651.6666666666666</ele><time>2026-03-22T11:10:49.281Z</time></trkpt><trkpt lat="44.3500011" lon="9.7685761"><ele>654.0</ele><time>2026-03-22T11:10:50.299Z</time></trkpt><trkpt lat="44.3499708" lon="9.7684648"><ele>654.0</ele><time>2026-03-22T11:10:51.294Z</time></trkpt><trkpt lat="44.3499264" lon="9.7683689"><ele>654.0</ele><time>2026-03-22T11:10:52.292Z</time></trkpt><trkpt lat="44.3498842" lon="9.7682855"><ele>654.0</ele><time>2026-03-22T11:10:53.318Z</time></trkpt><trkpt lat="44.3498428" lon="9.768197"><ele>654.0</ele><time>2026-03-22T11:10:54.313Z</time></trkpt><trkpt lat="44.3498145" lon="9.7681049"><ele>654.0</ele><time>2026-03-22T11:10:55.325Z</time></trkpt><trkpt lat="44.3498028" lon="9.7680138"><ele>654.0</ele><time>2026-03-22T11:10:56.318Z</time></trkpt><trkpt lat="44.3497894" lon="9.7679114"><ele>654.0</ele><time>2026-03-22T11:10:57.347Z</time></trkpt><trkpt lat="44.3497187" lon="9.7677933"><ele>652.8333333333334</ele><time>2026-03-22T11:10:59.38Z</time></trkpt><trkpt lat="44.3496565" lon="9.7677651"><ele>651.6666666666666</ele><time>2026-03-22T11:11:00.349Z</time></trkpt><trkpt lat="44.3495976" lon="9.7677202"><ele>650.5</ele><time>2026-03-22T11:11:01.251Z</time></trkpt><trkpt lat="44.3495081" lon="9.7677159"><ele>649.3333333333333</ele><time>2026-03-22T11:11:02.259Z</time></trkpt><trkpt lat="44.3494114" lon="9.7677381"><ele>648.1666666666666</ele><time>2026-03-22T11:11:03.252Z</time></trkpt><trkpt lat="44.3493202" lon="9.7677568"><ele>647.0</ele><time>2026-03-22T11:11:04.585Z</time></trkpt><trkpt lat="44.3491609" lon="9.7677303"><ele>647.0</ele><time>2026-03-22T11:11:06.249Z</time></trkpt><trkpt lat="44.3490844" lon="9.767701"><ele>647.0</ele><time>2026-03-22T11:11:07.266Z</time></trkpt><trkpt lat="44.3490128" lon="9.7676777"><ele>647.0</ele><time>2026-03-22T11:11:08.269Z</time></trkpt><trkpt lat="44.3489461" lon="9.7676589"><ele>647.0</ele><time>2026-03-22T11:11:09.265Z</time></trkpt><trkpt lat="44.3488807" lon="9.7676524"><ele>647.0</ele><time>2026-03-22T11:11:10.257Z</time></trkpt><trkpt lat="44.3488146" lon="9.7676402"><ele>647.0</ele><time>2026-03-22T11:11:11.26Z</time></trkpt><trkpt lat="44.3487488" lon="9.7676324"><ele>647.0</ele><time>2026-03-22T11:11:12.267Z</time></trkpt><trkpt lat="44.3486848" lon="9.7676255"><ele>648.3333333333333</ele><time>2026-03-22T11:11:13.254Z</time></trkpt><trkpt lat="44.3485617" lon="9.7675863"><ele>649.6666666666666</ele><time>2026-03-22T11:11:15.259Z</time></trkpt><trkpt lat="44.3484949" lon="9.7675688"><ele>651.0</ele><time>2026-03-22T11:11:16.257Z</time></trkpt><trkpt lat="44.3484266" lon="9.7675464"><ele>652.3333333333334</ele><time>2026-03-22T11:11:17.266Z</time></trkpt><trkpt lat="44.348363" lon="9.7675207"><ele>653.6666666666667</ele><time>2026-03-22T11:11:18.263Z</time></trkpt><trkpt lat="44.3482599" lon="9.7674524"><ele>655.0</ele><time>2026-03-22T11:11:20.251Z</time></trkpt><trkpt lat="44.3481714" lon="9.767367"><ele>655.0</ele><time>2026-03-22T11:11:22.253Z</time></trkpt><trkpt lat="44.3481292" lon="9.7673009"><ele>655.0</ele><time>2026-03-22T11:11:23.255Z</time></trkpt><trkpt lat="44.3480811" lon="9.7672125"><ele>655.0</ele><time>2026-03-22T11:11:24.27Z</time></trkpt><trkpt lat="44.3480379" lon="9.7671095"><ele>655.0</ele><time>2026-03-22T11:11:25.268Z</time></trkpt><trkpt lat="44.3480036" lon="9.7670097"><ele>655.0</ele><time>2026-03-22T11:11:26.263Z</time></trkpt><trkpt lat="44.3479813" lon="9.7669017"><ele>655.0</ele><time>2026-03-22T11:11:27.26Z</time></trkpt><trkpt lat="44.3479771" lon="9.7667734"><ele>653.8333333333334</ele><time>2026-03-22T11:11:28.267Z</time></trkpt><trkpt lat="44.3479764" lon="9.766649"><ele>652.6666666666667</ele><time>2026-03-22T11:11:29.262Z</time></trkpt><trkpt lat="44.3479813" lon="9.7665414"><ele>651.5</ele><time>2026-03-22T11:11:30.258Z</time></trkpt><trkpt lat="44.3479904" lon="9.7664431"><ele>650.3333333333334</ele><time>2026-03-22T11:11:31.263Z</time></trkpt><trkpt lat="44.3480009" lon="9.7663415"><ele>649.1666666666666</ele><time>2026-03-22T11:11:32.251Z</time></trkpt><trkpt lat="44.348015" lon="9.766241"><ele>648.0</ele><time>2026-03-22T11:11:33.264Z</time></trkpt><trkpt lat="44.3480265" lon="9.7661499"><ele>648.0</ele><time>2026-03-22T11:11:34.257Z</time></trkpt><trkpt lat="44.3480318" lon="9.7660504"><ele>648.0</ele><time>2026-03-22T11:11:35.267Z</time></trkpt><trkpt lat="44.3480357" lon="9.7659511"><ele>648.0</ele><time>2026-03-22T11:11:36.262Z</time></trkpt><trkpt lat="44.3480373" lon="9.7658522"><ele>648.0</ele><time>2026-03-22T11:11:37.259Z</time></trkpt><trkpt lat="44.348038" lon="9.7657493"><ele>648.0</ele><time>2026-03-22T11:11:38.265Z</time></trkpt><trkpt lat="44.3480309" lon="9.7656539"><ele>648.0</ele><time>2026-03-22T11:11:39.266Z</time></trkpt><trkpt lat="44.3480276" lon="9.7655511"><ele>648.0</ele><time>2026-03-22T11:11:40.265Z</time></trkpt><trkpt lat="44.3480216" lon="9.765435"><ele>649.2</ele><time>2026-03-22T11:11:41.273Z</time></trkpt><trkpt lat="44.3480097" lon="9.7653054"><ele>650.4</ele><time>2026-03-22T11:11:42.266Z</time></trkpt><trkpt lat="44.3480017" lon="9.7651721"><ele>651.6</ele><time>2026-03-22T11:11:43.249Z</time></trkpt><trkpt lat="44.3479887" lon="9.7650374"><ele>652.8000000000001</ele><time>2026-03-22T11:11:44.264Z</time></trkpt><trkpt lat="44.3479716" lon="9.7648952"><ele>654.0</ele><time>2026-03-22T11:11:45.258Z</time></trkpt><trkpt lat="44.3479612" lon="9.7647244"><ele>655.75</ele><time>2026-03-22T11:11:46.252Z</time></trkpt><trkpt lat="44.3479606" lon="9.7645529"><ele>657.5</ele><time>2026-03-22T11:11:47.256Z</time></trkpt><trkpt lat="44.3479552" lon="9.7643815"><ele>659.25</ele><time>2026-03-22T11:11:48.267Z</time></trkpt><trkpt lat="44.3479463" lon="9.764219"><ele>661.0</ele><time>2026-03-22T11:11:49.257Z</time></trkpt><trkpt lat="44.3479441" lon="9.7640804"><ele>661.5</ele><time>2026-03-22T11:11:50.266Z</time></trkpt><trkpt lat="44.3479691" lon="9.7639457"><ele>662.0</ele><time>2026-03-22T11:11:51.272Z</time></trkpt><trkpt lat="44.3480301" lon="9.7638059"><ele>662.5</ele><time>2026-03-22T11:11:52.248Z</time></trkpt><trkpt lat="44.3481108" lon="9.7636528"><ele>663.0</ele><time>2026-03-22T11:11:53.25Z</time></trkpt><trkpt lat="44.3481986" lon="9.7635157"><ele>666.6666666666666</ele><time>2026-03-22T11:11:54.252Z</time></trkpt><trkpt lat="44.3483084" lon="9.7633911"><ele>670.3333333333333</ele><time>2026-03-22T11:11:55.24Z</time></trkpt><trkpt lat="44.3484415" lon="9.7632685"><ele>674.0</ele><time>2026-03-22T11:11:56.262Z</time></trkpt><trkpt lat="44.3485774" lon="9.763123"><ele>674.0</ele><time>2026-03-22T11:11:57.251Z</time></trkpt><trkpt lat="44.3487252" lon="9.7629922"><ele>674.0</ele><time>2026-03-22T11:11:58.253Z</time></trkpt><trkpt lat="44.3488516" lon="9.7629116"><ele>674.0</ele><time>2026-03-22T11:11:59.258Z</time></trkpt><trkpt lat="44.3489689" lon="9.7628693"><ele>674.0</ele><time>2026-03-22T11:12:00.256Z</time></trkpt><trkpt lat="44.3490586" lon="9.7627758"><ele>674.25</ele><time>2026-03-22T11:12:01.253Z</time></trkpt><trkpt lat="44.3491539" lon="9.7626596"><ele>674.5</ele><time>2026-03-22T11:12:02.262Z</time></trkpt><trkpt lat="44.34921" lon="9.7625163"><ele>674.75</ele><time>2026-03-22T11:12:03.247Z</time></trkpt><trkpt lat="44.3492531" lon="9.7623821"><ele>675.0</ele><time>2026-03-22T11:12:04.256Z</time></trkpt><trkpt lat="44.3492591" lon="9.7622349"><ele>675.0</ele><time>2026-03-22T11:12:05.257Z</time></trkpt><trkpt lat="44.3492582" lon="9.7620766"><ele>675.0</ele><time>2026-03-22T11:12:06.25Z</time></trkpt><trkpt lat="44.3492365" lon="9.7618961"><ele>675.0</ele><time>2026-03-22T11:12:07.252Z</time></trkpt><trkpt lat="44.3492101" lon="9.7617282"><ele>675.0</ele><time>2026-03-22T11:12:08.251Z</time></trkpt><trkpt lat="44.349177" lon="9.7615657"><ele>675.0</ele><time>2026-03-22T11:12:09.256Z</time></trkpt><trkpt lat="44.3491349" lon="9.761422"><ele>675.0</ele><time>2026-03-22T11:12:10.243Z</time></trkpt><trkpt lat="44.3490828" lon="9.7612996"><ele>675.0</ele><time>2026-03-22T11:12:11.258Z</time></trkpt><trkpt lat="44.3490403" lon="9.7611831"><ele>675.0</ele><time>2026-03-22T11:12:12.26Z</time></trkpt><trkpt lat="44.3490113" lon="9.7610547"><ele>675.0</ele><time>2026-03-22T11:12:13.247Z</time></trkpt><trkpt lat="44.3489966" lon="9.760916"><ele>676.5</ele><time>2026-03-22T11:12:14.251Z</time></trkpt><trkpt lat="44.3489995" lon="9.7607611"><ele>678.0</ele><time>2026-03-22T11:12:15.243Z</time></trkpt><trkpt lat="44.3490009" lon="9.7605896"><ele>679.5</ele><time>2026-03-22T11:12:16.344Z</time></trkpt><trkpt lat="44.3490004" lon="9.7604141"><ele>681.0</ele><time>2026-03-22T11:12:17.258Z</time></trkpt><trkpt lat="44.3489973" lon="9.76024"><ele>681.5999999999999</ele><time>2026-03-22T11:12:18.258Z</time></trkpt><trkpt lat="44.349003" lon="9.7600848"><ele>682.2</ele><time>2026-03-22T11:12:19.25Z</time></trkpt><trkpt lat="44.349003" lon="9.7599383"><ele>682.8</ele><time>2026-03-22T11:12:20.253Z</time></trkpt><trkpt lat="44.3489815" lon="9.7597932"><ele>683.4000000000001</ele><time>2026-03-22T11:12:21.25Z</time></trkpt><trkpt lat="44.3489187" lon="9.7596734"><ele>684.0</ele><time>2026-03-22T11:12:22.257Z</time></trkpt><trkpt lat="44.3488006" lon="9.7595876"><ele>682.0</ele><time>2026-03-22T11:12:23.242Z</time></trkpt><trkpt lat="44.3486691" lon="9.7595118"><ele>680.0</ele><time>2026-03-22T11:12:24.249Z</time></trkpt><trkpt lat="44.3485375" lon="9.7594274"><ele>678.0</ele><time>2026-03-22T11:12:25.249Z</time></trkpt><trkpt lat="44.3483772" lon="9.7593617"><ele>678.0</ele><time>2026-03-22T11:12:26.242Z</time></trkpt><trkpt lat="44.3482556" lon="9.7592657"><ele>678.0</ele><time>2026-03-22T11:12:27.246Z</time></trkpt><trkpt lat="44.3481568" lon="9.7591534"><ele>678.0</ele><time>2026-03-22T11:12:28.25Z</time></trkpt><trkpt lat="44.3480695" lon="9.759085"><ele>678.0</ele><time>2026-03-22T11:12:29.25Z</time></trkpt><trkpt lat="44.3479702" lon="9.7589974"><ele>672.4</ele><time>2026-03-22T11:12:30.255Z</time></trkpt><trkpt lat="44.3479101" lon="9.7588788"><ele>666.8</ele><time>2026-03-22T11:12:31.253Z</time></trkpt><trkpt lat="44.347893" lon="9.7587431"><ele>661.2</ele><time>2026-03-22T11:12:32.255Z</time></trkpt><trkpt lat="44.3478855" lon="9.7586122"><ele>655.6</ele><time>2026-03-22T11:12:33.248Z</time></trkpt><trkpt lat="44.3478991" lon="9.7584711"><ele>650.0</ele><time>2026-03-22T11:12:34.337Z</time></trkpt><trkpt lat="44.3479271" lon="9.7583156"><ele>648.25</ele><time>2026-03-22T11:12:35.264Z</time></trkpt><trkpt lat="44.3479503" lon="9.7581372"><ele>646.5</ele><time>2026-03-22T11:12:36.246Z</time></trkpt><trkpt lat="44.3479731" lon="9.7579442"><ele>644.75</ele><time>2026-03-22T11:12:37.251Z</time></trkpt><trkpt lat="44.3479948" lon="9.7577482"><ele>643.0</ele><time>2026-03-22T11:12:38.254Z</time></trkpt><trkpt lat="44.3480184" lon="9.7575645"><ele>651.25</ele><time>2026-03-22T11:12:39.241Z</time></trkpt><trkpt lat="44.3480624" lon="9.7573951"><ele>659.5</ele><time>2026-03-22T11:12:40.254Z</time></trkpt><trkpt lat="44.3481259" lon="9.7572418"><ele>667.75</ele><time>2026-03-22T11:12:41.247Z</time></trkpt><trkpt lat="44.3481937" lon="9.7570809"><ele>676.0</ele><time>2026-03-22T11:12:42.247Z</time></trkpt><trkpt lat="44.3482511" lon="9.7569184"><ele>673.0</ele><time>2026-03-22T11:12:43.251Z</time></trkpt><trkpt lat="44.3482803" lon="9.7567567"><ele>670.0</ele><time>2026-03-22T11:12:44.244Z</time></trkpt><trkpt lat="44.3482899" lon="9.7566149"><ele>667.0</ele><time>2026-03-22T11:12:45.244Z</time></trkpt><trkpt lat="44.3482983" lon="9.7564808"><ele>664.0</ele><time>2026-03-22T11:12:46.249Z</time></trkpt><trkpt lat="44.3483074" lon="9.7563617"><ele>661.0</ele><time>2026-03-22T11:12:47.245Z</time></trkpt><trkpt lat="44.3483185" lon="9.756244"><ele>661.0</ele><time>2026-03-22T11:12:48.255Z</time></trkpt><trkpt lat="44.3483278" lon="9.7561256"><ele>661.0</ele><time>2026-03-22T11:12:49.25Z</time></trkpt><trkpt lat="44.348336" lon="9.7559976"><ele>661.0</ele><time>2026-03-22T11:12:50.246Z</time></trkpt><trkpt lat="44.3483534" lon="9.7558564"><ele>661.0</ele><time>2026-03-22T11:12:51.252Z</time></trkpt><trkpt lat="44.3483711" lon="9.7557062"><ele>661.0</ele><time>2026-03-22T11:12:52.251Z</time></trkpt><trkpt lat="44.3483894" lon="9.7555713"><ele>660.0</ele><time>2026-03-22T11:12:53.246Z</time></trkpt><trkpt lat="44.3483981" lon="9.7554491"><ele>659.0</ele><time>2026-03-22T11:12:54.251Z</time></trkpt><trkpt lat="44.3483898" lon="9.7553279"><ele>658.0</ele><time>2026-03-22T11:12:55.243Z</time></trkpt><trkpt lat="44.348348" lon="9.7552355"><ele>657.0</ele><time>2026-03-22T11:12:56.247Z</time></trkpt><trkpt lat="44.348289" lon="9.7551785"><ele>656.0</ele><time>2026-03-22T11:12:57.245Z</time></trkpt><trkpt lat="44.3482233" lon="9.7551749"><ele>655.0</ele><time>2026-03-22T11:12:58.251Z</time></trkpt><trkpt lat="44.348155" lon="9.7552111"><ele>655.0</ele><time>2026-03-22T11:12:59.25Z</time></trkpt><trkpt lat="44.3480936" lon="9.7552798"><ele>655.0</ele><time>2026-03-22T11:13:00.241Z</time></trkpt><trkpt lat="44.3480448" lon="9.7553638"><ele>655.0</ele><time>2026-03-22T11:13:01.251Z</time></trkpt><trkpt lat="44.3480024" lon="9.7554536"><ele>655.0</ele><time>2026-03-22T11:13:02.25Z</time></trkpt><trkpt lat="44.3479628" lon="9.755543"><ele>655.0</ele><time>2026-03-22T11:13:03.251Z</time></trkpt><trkpt lat="44.3479185" lon="9.7556245"><ele>655.0</ele><time>2026-03-22T11:13:04.244Z</time></trkpt><trkpt lat="44.3478626" lon="9.7556936"><ele>656.0</ele><time>2026-03-22T11:13:05.247Z</time></trkpt><trkpt lat="44.3478139" lon="9.7557558"><ele>657.0</ele><time>2026-03-22T11:13:06.254Z</time></trkpt><trkpt lat="44.3477547" lon="9.7558012"><ele>658.0</ele><time>2026-03-22T11:13:07.233Z</time></trkpt><trkpt lat="44.34768" lon="9.7558251"><ele>659.0</ele><time>2026-03-22T11:13:08.253Z</time></trkpt><trkpt lat="44.3476062" lon="9.7558555"><ele>660.0</ele><time>2026-03-22T11:13:09.242Z</time></trkpt><trkpt lat="44.347534" lon="9.7559137"><ele>661.0</ele><time>2026-03-22T11:13:10.264Z</time></trkpt><trkpt lat="44.3474551" lon="9.7559935"><ele>659.0</ele><time>2026-03-22T11:13:11.254Z</time></trkpt><trkpt lat="44.3473814" lon="9.7560698"><ele>657.0</ele><time>2026-03-22T11:13:12.251Z</time></trkpt><trkpt lat="44.3473157" lon="9.7561421"><ele>655.0</ele><time>2026-03-22T11:13:13.254Z</time></trkpt><trkpt lat="44.3472733" lon="9.7562476"><ele>653.0</ele><time>2026-03-22T11:13:14.24Z</time></trkpt><trkpt lat="44.3472402" lon="9.7563613"><ele>651.0</ele><time>2026-03-22T11:13:15.247Z</time></trkpt><trkpt lat="44.3472373" lon="9.7564948"><ele>649.0</ele><time>2026-03-22T11:13:16.245Z</time></trkpt><trkpt lat="44.3472353" lon="9.7566281"><ele>649.0</ele><time>2026-03-22T11:13:17.247Z</time></trkpt><trkpt lat="44.347228" lon="9.7567473"><ele>649.0</ele><time>2026-03-22T11:13:18.252Z</time></trkpt><trkpt lat="44.3471997" lon="9.7568701"><ele>649.0</ele><time>2026-03-22T11:13:19.248Z</time></trkpt><trkpt lat="44.3471478" lon="9.7569674"><ele>649.0</ele><time>2026-03-22T11:13:20.255Z</time></trkpt><trkpt lat="44.3470702" lon="9.7570166"><ele>649.0</ele><time>2026-03-22T11:13:21.254Z</time></trkpt><trkpt lat="44.3469861" lon="9.7570341"><ele>649.0</ele><time>2026-03-22T11:13:22.247Z</time></trkpt><trkpt lat="44.346895" lon="9.7570202"><ele>646.4000000000001</ele><time>2026-03-22T11:13:23.249Z</time></trkpt><trkpt lat="44.3468047" lon="9.7569898"><ele>643.8000000000001</ele><time>2026-03-22T11:13:24.254Z</time></trkpt><trkpt lat="44.346713" lon="9.7569747"><ele>641.2</ele><time>2026-03-22T11:13:25.245Z</time></trkpt><trkpt lat="44.346615" lon="9.7569785"><ele>638.6</ele><time>2026-03-22T11:13:26.253Z</time></trkpt><trkpt lat="44.3465045" lon="9.756983"><ele>636.0</ele><time>2026-03-22T11:13:27.246Z</time></trkpt><trkpt lat="44.3464066" lon="9.7569573"><ele>636.0</ele><time>2026-03-22T11:13:28.333Z</time></trkpt><trkpt lat="44.3463077" lon="9.7569175"><ele>636.0</ele><time>2026-03-22T11:13:29.248Z</time></trkpt><trkpt lat="44.346197" lon="9.7568474"><ele>636.0</ele><time>2026-03-22T11:13:30.262Z</time></trkpt><trkpt lat="44.3460867" lon="9.7567722"><ele>636.0</ele><time>2026-03-22T11:13:31.247Z</time></trkpt><trkpt lat="44.3459793" lon="9.7566931"><ele>640.5</ele><time>2026-03-22T11:13:32.258Z</time></trkpt><trkpt lat="44.3458729" lon="9.7566105"><ele>645.0</ele><time>2026-03-22T11:13:33.247Z</time></trkpt><trkpt lat="44.3457585" lon="9.7565318"><ele>649.5</ele><time>2026-03-22T11:13:34.249Z</time></trkpt><trkpt lat="44.3456371" lon="9.756464"><ele>654.0</ele><time>2026-03-22T11:13:35.247Z</time></trkpt><trkpt lat="44.345519" lon="9.7564058"><ele>654.5</ele><time>2026-03-22T11:13:36.255Z</time></trkpt><trkpt lat="44.3454103" lon="9.7563926"><ele>655.0</ele><time>2026-03-22T11:13:37.259Z</time></trkpt><trkpt lat="44.3453047" lon="9.7564275"><ele>655.5</ele><time>2026-03-22T11:13:38.249Z</time></trkpt><trkpt lat="44.3451992" lon="9.7564919"><ele>656.0</ele><time>2026-03-22T11:13:39.243Z</time></trkpt><trkpt lat="44.3450952" lon="9.7565713"><ele>656.0</ele><time>2026-03-22T11:13:40.254Z</time></trkpt><trkpt lat="44.3449977" lon="9.7566611"><ele>656.0</ele><time>2026-03-22T11:13:41.238Z</time></trkpt><trkpt lat="44.3449029" lon="9.7567567"><ele>656.0</ele><time>2026-03-22T11:13:42.243Z</time></trkpt><trkpt lat="44.3448089" lon="9.7568578"><ele>656.0</ele><time>2026-03-22T11:13:43.247Z</time></trkpt><trkpt lat="44.3447001" lon="9.7569519"><ele>656.5</ele><time>2026-03-22T11:13:44.246Z</time></trkpt><trkpt lat="44.3445791" lon="9.7570253"><ele>657.0</ele><time>2026-03-22T11:13:45.253Z</time></trkpt><trkpt lat="44.3444546" lon="9.7570807"><ele>657.5</ele><time>2026-03-22T11:13:46.254Z</time></trkpt><trkpt lat="44.3443414" lon="9.7571178"><ele>658.0</ele><time>2026-03-22T11:13:47.25Z</time></trkpt><trkpt lat="44.3442454" lon="9.7571316"><ele>658.0</ele><time>2026-03-22T11:13:48.248Z</time></trkpt><trkpt lat="44.3441528" lon="9.7571452"><ele>658.0</ele><time>2026-03-22T11:13:49.247Z</time></trkpt><trkpt lat="44.3440652" lon="9.7571707"><ele>658.0</ele><time>2026-03-22T11:13:50.251Z</time></trkpt><trkpt lat="44.3439941" lon="9.7572201"><ele>658.0</ele><time>2026-03-22T11:13:51.261Z</time></trkpt><trkpt lat="44.3439347" lon="9.7572833"><ele>658.0</ele><time>2026-03-22T11:13:52.262Z</time></trkpt><trkpt lat="44.343886" lon="9.757357"><ele>658.0</ele><time>2026-03-22T11:13:53.258Z</time></trkpt><trkpt lat="44.3438349" lon="9.7574297"><ele>658.5</ele><time>2026-03-22T11:13:54.261Z</time></trkpt><trkpt lat="44.3437828" lon="9.7574982"><ele>659.0</ele><time>2026-03-22T11:13:55.257Z</time></trkpt><trkpt lat="44.3436906" lon="9.757609"><ele>659.5</ele><time>2026-03-22T11:13:57.257Z</time></trkpt><trkpt lat="44.3436452" lon="9.7576707"><ele>660.0</ele><time>2026-03-22T11:13:58.252Z</time></trkpt><trkpt lat="44.3436002" lon="9.7577435"><ele>660.5</ele><time>2026-03-22T11:13:59.26Z</time></trkpt><trkpt lat="44.3435399" lon="9.7578311"><ele>661.0</ele><time>2026-03-22T11:14:00.258Z</time></trkpt><trkpt lat="44.3434695" lon="9.7579244"><ele>661.0</ele><time>2026-03-22T11:14:01.26Z</time></trkpt><trkpt lat="44.3433924" lon="9.758006"><ele>661.0</ele><time>2026-03-22T11:14:02.257Z</time></trkpt><trkpt lat="44.3433114" lon="9.7580843"><ele>661.0</ele><time>2026-03-22T11:14:03.255Z</time></trkpt><trkpt lat="44.3432288" lon="9.7581525"><ele>661.0</ele><time>2026-03-22T11:14:04.262Z</time></trkpt><trkpt lat="44.3431502" lon="9.7582159"><ele>661.0</ele><time>2026-03-22T11:14:05.254Z</time></trkpt><trkpt lat="44.3430757" lon="9.7582774"><ele>661.5999999999999</ele><time>2026-03-22T11:14:06.256Z</time></trkpt><trkpt lat="44.3429991" lon="9.7583443"><ele>662.2</ele><time>2026-03-22T11:14:07.259Z</time></trkpt><trkpt lat="44.342915" lon="9.7584146"><ele>662.8</ele><time>2026-03-22T11:14:08.259Z</time></trkpt><trkpt lat="44.3428299" lon="9.7584895"><ele>663.4000000000001</ele><time>2026-03-22T11:14:09.25Z</time></trkpt><trkpt lat="44.3427421" lon="9.7585685"><ele>664.0</ele><time>2026-03-22T11:14:10.259Z</time></trkpt><trkpt lat="44.342658" lon="9.75865"><ele>664.0</ele><time>2026-03-22T11:14:11.254Z</time></trkpt><trkpt lat="44.3425755" lon="9.7587314"><ele>664.0</ele><time>2026-03-22T11:14:12.26Z</time></trkpt><trkpt lat="44.3425013" lon="9.7588106"><ele>664.0</ele><time>2026-03-22T11:14:13.257Z</time></trkpt><trkpt lat="44.3424193" lon="9.7588856"><ele>664.0</ele><time>2026-03-22T11:14:14.251Z</time></trkpt><trkpt lat="44.3423375" lon="9.7589599"><ele>664.0</ele><time>2026-03-22T11:14:15.258Z</time></trkpt><trkpt lat="44.3422594" lon="9.7590314"><ele>665.0</ele><time>2026-03-22T11:14:16.253Z</time></trkpt><trkpt lat="44.3421841" lon="9.759101"><ele>666.0</ele><time>2026-03-22T11:14:17.257Z</time></trkpt><trkpt lat="44.3421097" lon="9.7591714"><ele>667.0</ele><time>2026-03-22T11:14:18.255Z</time></trkpt><trkpt lat="44.3420394" lon="9.7592298"><ele>668.0</ele><time>2026-03-22T11:14:19.257Z</time></trkpt><trkpt lat="44.341966" lon="9.7592918"><ele>669.0</ele><time>2026-03-22T11:14:20.25Z</time></trkpt><trkpt lat="44.3418973" lon="9.7593582"><ele>670.0</ele><time>2026-03-22T11:14:21.255Z</time></trkpt><trkpt lat="44.3418301" lon="9.7594315"><ele>670.0</ele><time>2026-03-22T11:14:22.26Z</time></trkpt><trkpt lat="44.3417685" lon="9.7595164"><ele>670.0</ele><time>2026-03-22T11:14:23.254Z</time></trkpt><trkpt lat="44.3417144" lon="9.7596149"><ele>670.0</ele><time>2026-03-22T11:14:24.256Z</time></trkpt><trkpt lat="44.3416686" lon="9.7597137"><ele>670.0</ele><time>2026-03-22T11:14:25.256Z</time></trkpt><trkpt lat="44.3416281" lon="9.7598115"><ele>670.0</ele><time>2026-03-22T11:14:26.254Z</time></trkpt><trkpt lat="44.3415981" lon="9.7599262"><ele>670.0</ele><time>2026-03-22T11:14:27.261Z</time></trkpt><trkpt lat="44.3415778" lon="9.76004"><ele>670.0</ele><time>2026-03-22T11:14:28.251Z</time></trkpt><trkpt lat="44.3415694" lon="9.7601614"><ele>670.0</ele><time>2026-03-22T11:14:29.255Z</time></trkpt><trkpt lat="44.3415734" lon="9.7602967"><ele>670.0</ele><time>2026-03-22T11:14:30.258Z</time></trkpt><trkpt lat="44.3415729" lon="9.7604276"><ele>670.0</ele><time>2026-03-22T11:14:31.252Z</time></trkpt><trkpt lat="44.3415727" lon="9.7605514"><ele>670.0</ele><time>2026-03-22T11:14:32.257Z</time></trkpt><trkpt lat="44.3415768" lon="9.7606643"><ele>670.0</ele><time>2026-03-22T11:14:33.256Z</time></trkpt><trkpt lat="44.341578" lon="9.7607712"><ele>670.0</ele><time>2026-03-22T11:14:34.244Z</time></trkpt><trkpt lat="44.341573" lon="9.7608662"><ele>670.0</ele><time>2026-03-22T11:14:35.265Z</time></trkpt><trkpt lat="44.3415457" lon="9.7610249"><ele>670.0</ele><time>2026-03-22T11:14:37.252Z</time></trkpt><trkpt lat="44.3414607" lon="9.7611646"><ele>670.0</ele><time>2026-03-22T11:14:39.253Z</time></trkpt><trkpt lat="44.3414084" lon="9.7612389"><ele>670.0</ele><time>2026-03-22T11:14:40.247Z</time></trkpt><trkpt lat="44.3413576" lon="9.7613217"><ele>671.3333333333334</ele><time>2026-03-22T11:14:41.25Z</time></trkpt><trkpt lat="44.3413139" lon="9.7614038"><ele>672.6666666666667</ele><time>2026-03-22T11:14:42.258Z</time></trkpt><trkpt lat="44.3412732" lon="9.7614763"><ele>674.0</ele><time>2026-03-22T11:14:43.246Z</time></trkpt><trkpt lat="44.341227" lon="9.7615474"><ele>675.3333333333334</ele><time>2026-03-22T11:14:45.253Z</time></trkpt><trkpt lat="44.3411716" lon="9.7616347"><ele>676.6666666666666</ele><time>2026-03-22T11:14:48.253Z</time></trkpt><trkpt lat="44.3411175" lon="9.7617276"><ele>678.0</ele><time>2026-03-22T11:14:50.249Z</time></trkpt><trkpt lat="44.3410286" lon="9.7618577"><ele>677.5714285714286</ele><time>2026-03-22T11:14:52.247Z</time></trkpt><trkpt lat="44.3409756" lon="9.7619273"><ele>677.1428571428572</ele><time>2026-03-22T11:14:53.249Z</time></trkpt><trkpt lat="44.3409264" lon="9.7619908"><ele>676.7142857142858</ele><time>2026-03-22T11:14:54.258Z</time></trkpt><trkpt lat="44.340877" lon="9.7620497"><ele>676.2857142857142</ele><time>2026-03-22T11:14:56.247Z</time></trkpt><trkpt lat="44.3408186" lon="9.7621279"><ele>675.8571428571429</ele><time>2026-03-22T11:15:00.245Z</time></trkpt><trkpt lat="44.34075" lon="9.7621279"><ele>675.4285714285714</ele><time>2026-03-22T11:16:00.245Z</time></trkpt><trkpt lat="44.3407072" lon="9.7621926"><ele>675.0</ele><time>2026-03-22T11:16:59.255Z</time></trkpt><trkpt lat="44.3406599" lon="9.7622585"><ele>675.0</ele><time>2026-03-22T11:17:39.265Z</time></trkpt><trkpt lat="44.3406045" lon="9.7623254"><ele>675.0</ele><time>2026-03-22T11:18:05.253Z</time></trkpt><trkpt lat="44.3398726" lon="9.7629593"><ele>665.0</ele><time>2026-03-22T11:47:36.239Z</time></trkpt><trkpt lat="44.3386419" lon="9.762047"><ele>667.0</ele><time>2026-03-22T11:47:56.239Z</time></trkpt><trkpt lat="44.3365169" lon="9.762118"><ele>697.0</ele><time>2026-03-22T11:48:17.233Z</time></trkpt><trkpt lat="44.3372912" lon="9.7657851"><ele>728.0</ele><time>2026-03-22T11:49:04.241Z</time></trkpt><trkpt lat="44.3386621" lon="9.7678812"><ele>741.0</ele><time>2026-03-22T11:49:28.242Z</time></trkpt><trkpt lat="44.3391374" lon="9.7706719"><ele>769.0</ele><time>2026-03-22T11:49:46.31Z</time></trkpt><trkpt lat="44.3374227" lon="9.7737065"><ele>779.0</ele><time>2026-03-22T11:50:18.234Z</time></trkpt><trkpt lat="44.337534" lon="9.7766612"><ele>809.0</ele><time>2026-03-22T11:50:40.235Z</time></trkpt><trkpt lat="44.3377813" lon="9.7804327"><ele>860.0</ele><time>2026-03-22T11:51:06.226Z</time></trkpt><trkpt lat="44.3379231" lon="9.783254"><ele>868.0</ele><time>2026-03-22T11:52:21.232Z</time></trkpt><trkpt lat="44.3367513" lon="9.7843313"><ele>864.0</ele><time>2026-03-22T11:52:38.237Z</time></trkpt><trkpt lat="44.3365799" lon="9.7871512"><ele>874.0</ele><time>2026-03-22T11:53:21.236Z</time></trkpt><trkpt lat="44.3367882" lon="9.7900222"><ele>857.0</ele><time>2026-03-22T11:53:50.246Z</time></trkpt><trkpt lat="44.3353451" lon="9.7920678"><ele>828.0</ele><time>2026-03-22T11:54:12.234Z</time></trkpt><trkpt lat="44.3337771" lon="9.7939835"><ele>808.0</ele><time>2026-03-22T11:54:38.23Z</time></trkpt><trkpt lat="44.3321119" lon="9.7956629"><ele>795.0</ele><time>2026-03-22T11:54:58.256Z</time></trkpt><trkpt lat="44.330451" lon="9.7972928"><ele>754.0</ele><time>2026-03-22T11:55:19.232Z</time></trkpt><trkpt lat="44.3284659" lon="9.7982597"><ele>731.0</ele><time>2026-03-22T11:58:13.262Z</time></trkpt><trkpt lat="44.3269979" lon="9.8002058"><ele>731.0</ele><time>2026-03-22T11:58:50.268Z</time></trkpt><trkpt lat="44.3272751" lon="9.7998284"><ele>738.0</ele><time>2026-03-22T14:47:15.301Z</time></trkpt></trkseg><trkseg><trkpt lat="44.3295488" lon="9.7976264"><ele>816.0</ele><time>2026-03-22T14:51:51.25Z</time></trkpt><trkpt lat="44.3308979" lon="9.797057"><ele>819.0</ele><time>2026-03-22T14:52:25.252Z</time></trkpt><trkpt lat="44.3330186" lon="9.7945619"><ele>851.0</ele><time>2026-03-22T14:52:53.259Z</time></trkpt><trkpt lat="44.3338549" lon="9.7982387"><ele>877.0</ele><time>2026-03-22T14:53:56.263Z</time></trkpt><trkpt lat="44.3356637" lon="9.7995358"><ele>916.0</ele><time>2026-03-22T14:54:26.255Z</time></trkpt><trkpt lat="44.3360512" lon="9.8033217"><ele>948.0</ele><time>2026-03-22T14:55:15.259Z</time></trkpt><trkpt lat="44.3381145" lon="9.8037885"><ele>959.0</ele><time>2026-03-22T14:55:35.25Z</time></trkpt><trkpt lat="44.3387184" lon="9.8064845"><ele>1028.0</ele><time>2026-03-22T14:56:11.272Z</time></trkpt><trkpt lat="44.3401349" lon="9.8085334"><ele>1042.0</ele><time>2026-03-22T14:56:41.256Z</time></trkpt><trkpt lat="44.3392691" lon="9.8110995"><ele>1018.0</ele><time>2026-03-22T14:57:00.257Z</time></trkpt><trkpt lat="44.3386447" lon="9.8148234"><ele>1006.0</ele><time>2026-03-22T14:57:23.27Z</time></trkpt><trkpt lat="44.3400355" lon="9.8180892"><ele>982.0</ele><time>2026-03-22T14:57:47.255Z</time></trkpt><trkpt lat="44.3397834" lon="9.8209236"><ele>957.0</ele><time>2026-03-22T14:58:12.252Z</time></trkpt><trkpt lat="44.3399133" lon="9.8237887"><ele>963.0</ele><time>2026-03-22T14:58:33.28Z</time></trkpt><trkpt lat="44.3412927" lon="9.8259729"><ele>873.0</ele><time>2026-03-22T14:58:51.26Z</time></trkpt><trkpt lat="44.341362" lon="9.82979"><ele>871.0</ele><time>2026-03-22T15:00:33.251Z</time></trkpt><trkpt lat="44.3402657" lon="9.8323277"><ele>854.0</ele><time>2026-03-22T15:00:54.288Z</time></trkpt><trkpt lat="44.3404223" lon="9.8352404"><ele>868.0</ele><time>2026-03-22T15:01:22.283Z</time></trkpt><trkpt lat="44.3400964" lon="9.838156"><ele>884.0</ele><time>2026-03-22T15:01:47.282Z</time></trkpt><trkpt lat="44.3412218" lon="9.8406496"><ele>863.0</ele><time>2026-03-22T15:02:10.264Z</time></trkpt><trkpt lat="44.3414838" lon="9.8434863"><ele>847.0</ele><time>2026-03-22T15:02:30.266Z</time></trkpt><trkpt lat="44.3417007" lon="9.8463341"><ele>834.0</ele><time>2026-03-22T15:02:57.29Z</time></trkpt><trkpt lat="44.3406884" lon="9.8488254"><ele>773.0</ele><time>2026-03-22T15:03:21.281Z</time></trkpt><trkpt lat="44.3421069" lon="9.8508741"><ele>721.0</ele><time>2026-03-22T15:05:00.26Z</time></trkpt><trkpt lat="44.3438773" lon="9.8525106"><ele>677.0</ele><time>2026-03-22T15:05:42.267Z</time></trkpt><trkpt lat="44.3453697" lon="9.8557599"><ele>665.0</ele><time>2026-03-22T15:06:08.272Z</time></trkpt><trkpt lat="44.3474204" lon="9.8556645"><ele>642.0</ele><time>2026-03-22T15:06:30.271Z</time></trkpt><trkpt lat="44.3487945" lon="9.8554574"><ele>618.0</ele><time>2026-03-22T15:07:13.259Z</time></trkpt><trkpt lat="44.3486231" lon="9.8574205"><ele>582.0</ele><time>2026-03-22T15:07:31.259Z</time></trkpt><trkpt lat="44.3505625" lon="9.8600451"><ele>539.0</ele><time>2026-03-22T15:08:10.257Z</time></trkpt><trkpt lat="44.3513949" lon="9.8626871"><ele>505.0</ele><time>2026-03-22T15:09:02.255Z</time></trkpt><trkpt lat="44.353256" lon="9.8639219"><ele>443.0</ele><time>2026-03-22T15:09:42.261Z</time></trkpt><trkpt lat="44.3545506" lon="9.866186"><ele>435.0</ele><time>2026-03-22T15:11:13.272Z</time></trkpt><trkpt lat="44.3552327" lon="9.8645193"><ele>388.0</ele><time>2026-03-22T15:11:26.26Z</time></trkpt><trkpt lat="44.3577437" lon="9.8628757"><ele>375.0</ele><time>2026-03-22T15:12:25.31Z</time></trkpt><trkpt lat="44.3577407" lon="9.8657894"><ele>341.0</ele><time>2026-03-22T15:12:43.264Z</time></trkpt><trkpt lat="44.3574255" lon="9.8695609"><ele>314.0</ele><time>2026-03-22T15:13:07.274Z</time></trkpt><trkpt lat="44.3590936" lon="9.8678336"><ele>290.0</ele><time>2026-03-22T15:13:29.258Z</time></trkpt><trkpt lat="44.3589903" lon="9.8707139"><ele>260.0</ele><time>2026-03-22T15:13:58.258Z</time></trkpt><trkpt lat="44.3593803" lon="9.8745416"><ele>238.0</ele><time>2026-03-22T15:14:24.269Z</time></trkpt><trkpt lat="44.3600608" lon="9.8782638"><ele>249.0</ele><time>2026-03-22T15:14:45.273Z</time></trkpt><trkpt lat="44.3612919" lon="9.8818042"><ele>229.0</ele><time>2026-03-22T15:15:08.251Z</time></trkpt><trkpt lat="44.3621612" lon="9.88544"><ele>219.0</ele><time>2026-03-22T15:15:30.256Z</time></trkpt><trkpt lat="44.3623475" lon="9.8882509"><ele>232.0</ele><time>2026-03-22T15:15:48.24Z</time></trkpt><trkpt lat="44.3639323" lon="9.8863504"><ele>231.0</ele><time>2026-03-22T15:16:41.238Z</time></trkpt><trkpt lat="44.3672307" lon="9.8852553"><ele>231.0</ele><time>2026-03-22T15:17:09.254Z</time></trkpt><trkpt lat="44.3698245" lon="9.8863717"><ele>234.0</ele><time>2026-03-22T15:17:38.249Z</time></trkpt><trkpt lat="44.3718821" lon="9.8872554"><ele>239.0</ele><time>2026-03-22T15:17:51.25Z</time></trkpt><trkpt lat="44.3752093" lon="9.886223"><ele>244.0</ele><time>2026-03-22T15:18:13.247Z</time></trkpt><trkpt lat="44.3777714" lon="9.8849114"><ele>248.0</ele><time>2026-03-22T15:18:34.253Z</time></trkpt><trkpt lat="44.380517" lon="9.8839434"><ele>249.0</ele><time>2026-03-22T15:18:55.253Z</time></trkpt><trkpt lat="44.3832379" lon="9.8837995"><ele>261.0</ele><time>2026-03-22T15:19:17.259Z</time></trkpt><trkpt lat="44.3867138" lon="9.884099"><ele>268.0</ele><time>2026-03-22T15:19:41.265Z</time></trkpt><trkpt lat="44.3901908" lon="9.8842642"><ele>284.0</ele><time>2026-03-22T15:20:00.265Z</time></trkpt><trkpt lat="44.3937389" lon="9.8815027"><ele>296.0</ele><time>2026-03-22T15:20:34.263Z</time></trkpt><trkpt lat="44.3962915" lon="9.8829827"><ele>328.0</ele><time>2026-03-22T15:20:53.26Z</time></trkpt><trkpt lat="44.3983269" lon="9.8856285"><ele>347.0</ele><time>2026-03-22T15:21:13.28Z</time></trkpt><trkpt lat="44.4007146" lon="9.8878405"><ele>397.0</ele><time>2026-03-22T15:21:34.256Z</time></trkpt><trkpt lat="44.398839" lon="9.883692"><ele>424.0</ele><time>2026-03-22T15:22:18.265Z</time></trkpt><trkpt lat="44.4020769" lon="9.8852323"><ele>512.0</ele><time>2026-03-22T15:23:02.249Z</time></trkpt><trkpt lat="44.4054924" lon="9.8844727"><ele>540.0</ele><time>2026-03-22T15:24:41.25Z</time></trkpt><trkpt lat="44.4083421" lon="9.8871655"><ele>575.0</ele><time>2026-03-22T15:25:00.264Z</time></trkpt><trkpt lat="44.4099924" lon="9.8914364"><ele>624.0</ele><time>2026-03-22T15:25:28.252Z</time></trkpt><trkpt lat="44.4128171" lon="9.8942676"><ele>607.0</ele><time>2026-03-22T15:25:47.25Z</time></trkpt><trkpt lat="44.4141253" lon="9.8976361"><ele>586.0</ele><time>2026-03-22T15:26:06.248Z</time></trkpt><trkpt lat="44.4152981" lon="9.9010931"><ele>598.0</ele><time>2026-03-22T15:26:21.246Z</time></trkpt><trkpt lat="44.418362" lon="9.9033658"><ele>615.0</ele><time>2026-03-22T15:26:45.249Z</time></trkpt><trkpt lat="44.4208902" lon="9.9049517"><ele>627.0</ele><time>2026-03-22T15:27:04.259Z</time></trkpt><trkpt lat="44.4243038" lon="9.9051924"><ele>656.0</ele><time>2026-03-22T15:27:27.255Z</time></trkpt><trkpt lat="44.4272277" lon="9.9078814"><ele>671.0</ele><time>2026-03-22T15:27:49.263Z</time></trkpt><trkpt lat="44.4313625" lon="9.9080931"><ele>691.0</ele><time>2026-03-22T15:28:14.258Z</time></trkpt><trkpt lat="44.4341177" lon="9.9088301"><ele>708.0</ele><time>2026-03-22T15:28:37.254Z</time></trkpt><trkpt lat="44.4374898" lon="9.9098026"><ele>729.0</ele><time>2026-03-22T15:29:01.25Z</time></trkpt><trkpt lat="44.4409343" lon="9.910277"><ele>752.0</ele><time>2026-03-22T15:29:23.251Z</time></trkpt><trkpt lat="44.443658" lon="9.909434"><ele>796.0</ele><time>2026-03-22T15:29:43.253Z</time></trkpt><trkpt lat="44.446233" lon="9.9063016"><ele>859.0</ele><time>2026-03-22T15:30:13.247Z</time></trkpt><trkpt lat="44.4495897" lon="9.9072249"><ele>891.0</ele><time>2026-03-22T15:31:34.243Z</time></trkpt><trkpt lat="44.4516039" lon="9.9079806"><ele>928.0</ele><time>2026-03-22T15:32:01.234Z</time></trkpt><trkpt lat="44.4529963" lon="9.9112195"><ele>968.0</ele><time>2026-03-22T15:32:20.241Z</time></trkpt><trkpt lat="44.4521753" lon="9.9169395"><ele>993.0</ele><time>2026-03-22T15:32:49.25Z</time></trkpt><trkpt lat="44.4547362" lon="9.9181887"><ele>974.0</ele><time>2026-03-22T15:33:45.25Z</time></trkpt><trkpt lat="44.457926" lon="9.9199889"><ele>993.0</ele><time>2026-03-22T15:34:08.271Z</time></trkpt><trkpt lat="44.4607472" lon="9.9207889"><ele>1009.0</ele><time>2026-03-22T15:34:30.244Z</time></trkpt><trkpt lat="44.4641021" lon="9.9199927"><ele>1015.0</ele><time>2026-03-22T15:35:04.238Z</time></trkpt><trkpt lat="44.4682091" lon="9.9211953"><ele>1029.0</ele><time>2026-03-22T15:35:26.243Z</time></trkpt><trkpt lat="44.4717787" lon="9.9240465"><ele>1038.0</ele><time>2026-03-22T15:37:54.248Z</time></trkpt><trkpt lat="44.4713582" lon="9.9279287"><ele>1026.0</ele><time>2026-03-22T15:38:12.263Z</time></trkpt><trkpt lat="44.4724839" lon="9.9313992"><ele>1019.0</ele><time>2026-03-22T15:50:48.266Z</time></trkpt><trkpt lat="44.4714941" lon="9.9349789"><ele>1027.0</ele><time>2026-03-22T15:51:06.243Z</time></trkpt><trkpt lat="44.472695" lon="9.9374108"><ele>1011.0</ele><time>2026-03-22T15:51:27.249Z</time></trkpt><trkpt lat="44.4743187" lon="9.941614"><ele>1020.0</ele><time>2026-03-22T15:52:07.258Z</time></trkpt><trkpt lat="44.4735675" lon="9.943238"><ele>1004.0</ele><time>2026-03-22T15:52:21.247Z</time></trkpt><trkpt lat="44.4749902" lon="9.9465206"><ele>1000.0</ele><time>2026-03-22T15:52:39.257Z</time></trkpt><trkpt lat="44.4777558" lon="9.9493456"><ele>985.0</ele><time>2026-03-22T15:53:10.245Z</time></trkpt><trkpt lat="44.4804388" lon="9.9498359"><ele>955.0</ele><time>2026-03-22T15:53:31.251Z</time></trkpt><trkpt lat="44.4832699" lon="9.9499914"><ele>935.0</ele><time>2026-03-22T15:53:57.262Z</time></trkpt><trkpt lat="44.4850342" lon="9.9540787"><ele>912.0</ele><time>2026-03-22T15:54:17.255Z</time></trkpt><trkpt lat="44.484835" lon="9.9588097"><ele>891.0</ele><time>2026-03-22T15:54:39.26Z</time></trkpt><trkpt lat="44.4859232" lon="9.963293"><ele>877.0</ele><time>2026-03-22T15:55:04.256Z</time></trkpt><trkpt lat="44.4878328" lon="9.9661318"><ele>880.0</ele><time>2026-03-22T15:55:30.267Z</time></trkpt><trkpt lat="44.4905921" lon="9.9659651"><ele>869.0</ele><time>2026-03-22T15:55:52.264Z</time></trkpt><trkpt lat="44.4930755" lon="9.9693178"><ele>910.0</ele><time>2026-03-22T15:56:17.264Z</time></trkpt><trkpt lat="44.4943532" lon="9.9727332"><ele>899.0</ele><time>2026-03-22T15:56:40.27Z</time></trkpt><trkpt lat="44.4976123" lon="9.9743837"><ele>860.0</ele><time>2026-03-22T15:57:00.278Z</time></trkpt><trkpt lat="44.4996825" lon="9.9770708"><ele>859.0</ele><time>2026-03-22T15:57:21.256Z</time></trkpt><trkpt lat="44.5005677" lon="9.9816342"><ele>861.0</ele><time>2026-03-22T15:57:45.257Z</time></trkpt><trkpt lat="44.5020547" lon="9.9859762"><ele>853.0</ele><time>2026-03-22T15:58:12.252Z</time></trkpt><trkpt lat="44.5039774" lon="9.9888247"><ele>841.0</ele><time>2026-03-22T15:58:38.268Z</time></trkpt><trkpt lat="44.5063492" lon="9.9907375"><ele>834.0</ele><time>2026-03-22T15:58:59.275Z</time></trkpt><trkpt lat="44.5082816" lon="9.9934717"><ele>859.0</ele><time>2026-03-22T15:59:19.268Z</time></trkpt><trkpt lat="44.5107557" lon="9.9969055"><ele>864.0</ele><time>2026-03-22T15:59:44.243Z</time></trkpt><trkpt lat="44.5141659" lon="9.9959608"><ele>877.0</ele><time>2026-03-22T16:00:12.237Z</time></trkpt><trkpt lat="44.5175685" lon="9.9950837"><ele>891.0</ele><time>2026-03-22T16:00:34.251Z</time></trkpt><trkpt lat="44.5208865" lon="9.9942198"><ele>914.0</ele><time>2026-03-22T16:00:58.26Z</time></trkpt><trkpt lat="44.5226771" lon="9.9958306"><ele>920.0</ele><time>2026-03-22T16:01:17.261Z</time></trkpt><trkpt lat="44.5259991" lon="9.9947489"><ele>937.0</ele><time>2026-03-22T16:01:38.246Z</time></trkpt><trkpt lat="44.5293234" lon="9.9957746"><ele>933.0</ele><time>2026-03-22T16:02:02.289Z</time></trkpt><trkpt lat="44.5316699" lon="9.9978363"><ele>940.0</ele><time>2026-03-22T16:02:21.253Z</time></trkpt><trkpt lat="44.5344937" lon="9.9981875"><ele>944.0</ele><time>2026-03-22T16:02:38.262Z</time></trkpt><trkpt lat="44.5378063" lon="9.9992269"><ele>967.0</ele><time>2026-03-22T16:03:02.268Z</time></trkpt><trkpt lat="44.5392509" lon="10.0045299"><ele>912.0</ele><time>2026-03-22T16:03:27.259Z</time></trkpt><trkpt lat="44.5433658" lon="10.0042287"><ele>877.0</ele><time>2026-03-22T16:04:18.26Z</time></trkpt><trkpt lat="44.5469151" lon="10.003885"><ele>843.0</ele><time>2026-03-22T16:04:39.275Z</time></trkpt><trkpt lat="44.5509326" lon="10.0024853"><ele>833.0</ele><time>2026-03-22T16:05:04.251Z</time></trkpt><trkpt lat="44.5543498" lon="10.0033919"><ele>789.0</ele><time>2026-03-22T16:05:34.261Z</time></trkpt><trkpt lat="44.556445" lon="10.0071608"><ele>781.0</ele><time>2026-03-22T16:05:59.252Z</time></trkpt><trkpt lat="44.5584015" lon="10.0099724"><ele>750.0</ele><time>2026-03-22T16:06:23.255Z</time></trkpt><trkpt lat="44.5601963" lon="10.0141429"><ele>706.0</ele><time>2026-03-22T16:06:47.254Z</time></trkpt><trkpt lat="44.562866" lon="10.014936"><ele>712.0</ele><time>2026-03-22T16:07:06.26Z</time></trkpt><trkpt lat="44.5642165" lon="10.0171219"><ele>709.0</ele><time>2026-03-22T16:07:20.261Z</time></trkpt><trkpt lat="44.5668888" lon="10.0183678"><ele>718.0</ele><time>2026-03-22T16:07:37.258Z</time></trkpt><trkpt lat="44.5699436" lon="10.0205068"><ele>744.0</ele><time>2026-03-22T16:07:55.253Z</time></trkpt><trkpt lat="44.5723979" lon="10.0222917"><ele>722.0</ele><time>2026-03-22T16:08:12.253Z</time></trkpt><trkpt lat="44.5753927" lon="10.0248498"><ele>764.0</ele><time>2026-03-22T16:08:32.366Z</time></trkpt><trkpt lat="44.5780119" lon="10.0293463"><ele>769.0</ele><time>2026-03-22T16:08:56.264Z</time></trkpt><trkpt lat="44.58142" lon="10.0305462"><ele>790.0</ele><time>2026-03-22T16:09:19.254Z</time></trkpt><trkpt lat="44.5844024" lon="10.0329925"><ele>804.0</ele><time>2026-03-22T16:09:39.258Z</time></trkpt><trkpt lat="44.5868435" lon="10.0347117"><ele>838.0</ele><time>2026-03-22T16:10:00.257Z</time></trkpt><trkpt lat="44.5875405" lon="10.0384364"><ele>854.0</ele><time>2026-03-22T16:10:23.245Z</time></trkpt><trkpt lat="44.5869341" lon="10.0431705"><ele>886.0</ele><time>2026-03-22T16:10:48.238Z</time></trkpt><trkpt lat="44.5863124" lon="10.0460867"><ele>909.0</ele><time>2026-03-22T16:11:03.241Z</time></trkpt><trkpt lat="44.5880726" lon="10.0491301"><ele>923.0</ele><time>2026-03-22T16:11:34.252Z</time></trkpt><trkpt lat="44.5895764" lon="10.0534069"><ele>913.0</ele><time>2026-03-22T16:11:54.245Z</time></trkpt><trkpt lat="44.5919023" lon="10.0553397"><ele>878.0</ele><time>2026-03-22T16:12:13.259Z</time></trkpt><trkpt lat="44.5942591" lon="10.058922"><ele>897.0</ele><time>2026-03-22T16:12:33.262Z</time></trkpt><trkpt lat="44.5957611" lon="10.0632094"><ele>861.0</ele><time>2026-03-22T16:12:52.25Z</time></trkpt><trkpt lat="44.5957427" lon="10.0670784"><ele>813.0</ele><time>2026-03-22T16:13:06.252Z</time></trkpt><trkpt lat="44.5990454" lon="10.07041"><ele>788.0</ele><time>2026-03-22T16:13:33.26Z</time></trkpt><trkpt lat="44.6017773" lon="10.0713209"><ele>766.0</ele><time>2026-03-22T16:13:57.26Z</time></trkpt><trkpt lat="44.6052488" lon="10.0721974"><ele>787.0</ele><time>2026-03-22T16:14:24.25Z</time></trkpt><trkpt lat="44.6094809" lon="10.0716106"><ele>772.0</ele><time>2026-03-22T16:14:49.257Z</time></trkpt><trkpt lat="44.6134376" lon="10.0695797"><ele>728.0</ele><time>2026-03-22T16:15:16.251Z</time></trkpt><trkpt lat="44.616904" lon="10.0665862"><ele>708.0</ele><time>2026-03-22T16:15:47.265Z</time></trkpt><trkpt lat="44.6182414" lon="10.0700707"><ele>681.0</ele><time>2026-03-22T16:20:41.287Z</time></trkpt><trkpt lat="44.6202082" lon="10.0741351"><ele>653.0</ele><time>2026-03-22T16:21:14.263Z</time></trkpt><trkpt lat="44.6233016" lon="10.0762582"><ele>633.0</ele><time>2026-03-22T16:21:43.283Z</time></trkpt><trkpt lat="44.6253883" lon="10.0786623"><ele>605.0</ele><time>2026-03-22T16:22:12.263Z</time></trkpt><trkpt lat="44.628681" lon="10.0800011"><ele>605.0</ele><time>2026-03-22T16:22:38.262Z</time></trkpt><trkpt lat="44.6303932" lon="10.0784259"><ele>588.0</ele><time>2026-03-22T16:22:57.256Z</time></trkpt><trkpt lat="44.6330935" lon="10.0789778"><ele>586.0</ele><time>2026-03-22T16:23:18.275Z</time></trkpt><trkpt lat="44.6358253" lon="10.0793391"><ele>581.0</ele><time>2026-03-22T16:23:36.258Z</time></trkpt><trkpt lat="44.6393823" lon="10.0792446"><ele>560.0</ele><time>2026-03-22T16:23:54.26Z</time></trkpt><trkpt lat="44.6427523" lon="10.0782851"><ele>522.0</ele><time>2026-03-22T16:24:15.269Z</time></trkpt><trkpt lat="44.6459062" lon="10.0800922"><ele>473.0</ele><time>2026-03-22T16:24:42.253Z</time></trkpt><trkpt lat="44.6499304" lon="10.0810983"><ele>446.0</ele><time>2026-03-22T16:25:16.264Z</time></trkpt><trkpt lat="44.6531937" lon="10.0828862"><ele>436.0</ele><time>2026-03-22T16:25:37.246Z</time></trkpt><trkpt lat="44.6558508" lon="10.0858181"><ele>412.0</ele><time>2026-03-22T16:26:01.261Z</time></trkpt><trkpt lat="44.657512" lon="10.0874468"><ele>380.0</ele><time>2026-03-22T16:26:17.264Z</time></trkpt><trkpt lat="44.6585401" lon="10.0899602"><ele>352.0</ele><time>2026-03-22T16:26:49.273Z</time></trkpt><trkpt lat="44.6595428" lon="10.0872238"><ele>324.0</ele><time>2026-03-22T16:27:04.256Z</time></trkpt><trkpt lat="44.6607179" lon="10.091675"><ele>299.0</ele><time>2026-03-22T16:27:31.252Z</time></trkpt><trkpt lat="44.66297" lon="10.0894711"><ele>269.0</ele><time>2026-03-22T16:28:01.252Z</time></trkpt><trkpt lat="44.6629455" lon="10.0923935"><ele>256.0</ele><time>2026-03-22T16:28:20.264Z</time></trkpt><trkpt lat="44.6649989" lon="10.0932616"><ele>219.0</ele><time>2026-03-22T16:28:38.257Z</time></trkpt><trkpt lat="44.6681208" lon="10.0951563"><ele>178.0</ele><time>2026-03-22T16:28:58.245Z</time></trkpt><trkpt lat="44.6714997" lon="10.0961278"><ele>160.0</ele><time>2026-03-22T16:29:45.262Z</time></trkpt><trkpt lat="44.6741862" lon="10.0970214"><ele>154.0</ele><time>2026-03-22T16:30:17.253Z</time></trkpt><trkpt lat="44.676156" lon="10.0959959"><ele>148.0</ele><time>2026-03-22T16:30:35.253Z</time></trkpt><trkpt lat="44.678754" lon="10.0946381"><ele>146.0</ele><time>2026-03-22T16:30:56.255Z</time></trkpt><trkpt lat="44.6814832" lon="10.095688"><ele>146.0</ele><time>2026-03-22T16:31:18.263Z</time></trkpt><trkpt lat="44.6842927" lon="10.0963845"><ele>142.0</ele><time>2026-03-22T16:31:37.26Z</time></trkpt><trkpt lat="44.6876926" lon="10.0972632"><ele>156.0</ele><time>2026-03-22T16:38:52.26Z</time></trkpt><trkpt lat="44.6903046" lon="10.0984635"><ele>142.0</ele><time>2026-03-22T16:39:23.255Z</time></trkpt><trkpt lat="44.6922832" lon="10.0993187"><ele>134.0</ele><time>2026-03-22T16:39:51.263Z</time></trkpt><trkpt lat="44.6941387" lon="10.096479"><ele>134.0</ele><time>2026-03-22T16:40:11.265Z</time></trkpt><trkpt lat="44.6962824" lon="10.0926109"><ele>141.0</ele><time>2026-03-22T16:40:33.271Z</time></trkpt><trkpt lat="44.6987183" lon="10.0908205"><ele>136.0</ele><time>2026-03-22T16:41:40.259Z</time></trkpt><trkpt lat="44.7017965" lon="10.0946814"><ele>134.0</ele><time>2026-03-22T16:41:56.27Z</time></trkpt><trkpt lat="44.7052238" lon="10.0994234"><ele>129.0</ele><time>2026-03-22T16:42:12.267Z</time></trkpt><trkpt lat="44.7095785" lon="10.1040768"><ele>123.0</ele><time>2026-03-22T16:42:30.274Z</time></trkpt><trkpt lat="44.7143772" lon="10.1078756"><ele>122.0</ele><time>2026-03-22T16:42:49.263Z</time></trkpt><trkpt lat="44.7184747" lon="10.1133815"><ele>120.0</ele><time>2026-03-22T16:43:08.261Z</time></trkpt><trkpt lat="44.721417" lon="10.1200683"><ele>115.0</ele><time>2026-03-22T16:43:26.262Z</time></trkpt><trkpt lat="44.7244592" lon="10.126709"><ele>112.0</ele><time>2026-03-22T16:43:44.265Z</time></trkpt><trkpt lat="44.7277734" lon="10.1330892"><ele>109.0</ele><time>2026-03-22T16:44:02.266Z</time></trkpt><trkpt lat="44.7310468" lon="10.1394964"><ele>105.0</ele><time>2026-03-22T16:44:20.269Z</time></trkpt><trkpt lat="44.7343689" lon="10.1458857"><ele>103.0</ele><time>2026-03-22T16:44:38.272Z</time></trkpt><trkpt lat="44.7376754" lon="10.1522995"><ele>102.0</ele><time>2026-03-22T16:44:56.264Z</time></trkpt><trkpt lat="44.7409992" lon="10.1586585"><ele>102.0</ele><time>2026-03-22T16:45:14.256Z</time></trkpt><trkpt lat="44.745136" lon="10.1639784"><ele>96.0</ele><time>2026-03-22T16:45:32.259Z</time></trkpt><trkpt lat="44.7502833" lon="10.1672622"><ele>93.0</ele><time>2026-03-22T16:45:50.261Z</time></trkpt><trkpt lat="44.7555752" lon="10.1697689"><ele>86.0</ele><time>2026-03-22T16:46:08.258Z</time></trkpt><trkpt lat="44.7609371" lon="10.1723219"><ele>84.0</ele><time>2026-03-22T16:46:26.255Z</time></trkpt><trkpt lat="44.7660939" lon="10.1747977"><ele>82.0</ele><time>2026-03-22T16:46:43.262Z</time></trkpt><trkpt lat="44.7712251" lon="10.1773081"><ele>82.0</ele><time>2026-03-22T16:47:00.263Z</time></trkpt><trkpt lat="44.7763858" lon="10.1797842"><ele>78.0</ele><time>2026-03-22T16:47:17.269Z</time></trkpt><trkpt lat="44.7813155" lon="10.1829581"><ele>75.0</ele><time>2026-03-22T16:47:34.267Z</time></trkpt><trkpt lat="44.7860555" lon="10.1867315"><ele>75.0</ele><time>2026-03-22T16:47:51.259Z</time></trkpt><trkpt lat="44.7907978" lon="10.1905343"><ele>75.0</ele><time>2026-03-22T16:48:08.263Z</time></trkpt><trkpt lat="44.795555" lon="10.1942855"><ele>74.0</ele><time>2026-03-22T16:48:25.263Z</time></trkpt><trkpt lat="44.800687" lon="10.1969434"><ele>70.0</ele><time>2026-03-22T16:48:42.267Z</time></trkpt><trkpt lat="44.8059076" lon="10.1992516"><ele>67.0</ele><time>2026-03-22T16:48:59.262Z</time></trkpt><trkpt lat="44.8110849" lon="10.2015821"><ele>65.0</ele><time>2026-03-22T16:49:16.259Z</time></trkpt><trkpt lat="44.8163019" lon="10.2039096"><ele>64.0</ele><time>2026-03-22T16:49:33.27Z</time></trkpt><trkpt lat="44.8214762" lon="10.2062589"><ele>63.0</ele><time>2026-03-22T16:49:50.271Z</time></trkpt><trkpt lat="44.8266642" lon="10.2085343"><ele>57.0</ele><time>2026-03-22T16:50:07.312Z</time></trkpt><trkpt lat="44.8318983" lon="10.2108598"><ele>55.0</ele><time>2026-03-22T16:50:24.268Z</time></trkpt><trkpt lat="44.8367679" lon="10.2142009"><ele>52.0</ele><time>2026-03-22T16:50:41.268Z</time></trkpt><trkpt lat="44.8413975" lon="10.2188306"><ele>53.0</ele><time>2026-03-22T16:50:59.271Z</time></trkpt><trkpt lat="44.8457805" lon="10.2233456"><ele>47.0</ele><time>2026-03-22T16:51:16.27Z</time></trkpt><trkpt lat="44.850173" lon="10.227835"><ele>43.0</ele><time>2026-03-22T16:51:33.27Z</time></trkpt><trkpt lat="44.8552625" lon="10.2310263"><ele>46.0</ele><time>2026-03-22T16:51:52.269Z</time></trkpt><trkpt lat="44.8598037" lon="10.233231"><ele>43.0</ele><time>2026-03-22T16:52:12.266Z</time></trkpt><trkpt lat="44.8637247" lon="10.2315299"><ele>47.0</ele><time>2026-03-22T16:52:37.313Z</time></trkpt><trkpt lat="44.8643349" lon="10.236335"><ele>41.0</ele><time>2026-03-22T16:53:12.26Z</time></trkpt><trkpt lat="44.8628135" lon="10.2429295"><ele>42.0</ele><time>2026-03-22T16:53:28.278Z</time></trkpt><trkpt lat="44.861111" lon="10.2501951"><ele>42.0</ele><time>2026-03-22T16:53:45.27Z</time></trkpt><trkpt lat="44.8593329" lon="10.2574181"><ele>38.0</ele><time>2026-03-22T16:54:02.27Z</time></trkpt><trkpt lat="44.8576211" lon="10.2646853"><ele>38.0</ele><time>2026-03-22T16:54:19.268Z</time></trkpt><trkpt lat="44.855857" lon="10.2719226"><ele>37.0</ele><time>2026-03-22T16:54:36.271Z</time></trkpt><trkpt lat="44.8541311" lon="10.279196"><ele>33.0</ele><time>2026-03-22T16:54:53.295Z</time></trkpt><trkpt lat="44.8523958" lon="10.2864572"><ele>37.0</ele><time>2026-03-22T16:55:10.288Z</time></trkpt><trkpt lat="44.8506509" lon="10.2937203"><ele>39.0</ele><time>2026-03-22T16:55:27.282Z</time></trkpt><trkpt lat="44.8489042" lon="10.3009607"><ele>41.0</ele><time>2026-03-22T16:55:44.279Z</time></trkpt><trkpt lat="44.8471703" lon="10.3082044"><ele>43.0</ele><time>2026-03-22T16:56:01.289Z</time></trkpt><trkpt lat="44.8454408" lon="10.3154964"><ele>43.0</ele><time>2026-03-22T16:56:18.286Z</time></trkpt><trkpt lat="44.8437061" lon="10.3227663"><ele>37.0</ele><time>2026-03-22T16:56:35.286Z</time></trkpt><trkpt lat="44.8419589" lon="10.3299943"><ele>38.0</ele><time>2026-03-22T16:56:52.284Z</time></trkpt><trkpt lat="44.8402107" lon="10.3372702"><ele>38.0</ele><time>2026-03-22T16:57:09.285Z</time></trkpt><trkpt lat="44.8384707" lon="10.3445378"><ele>38.0</ele><time>2026-03-22T16:57:26.281Z</time></trkpt><trkpt lat="44.836619" lon="10.3517134"><ele>37.0</ele><time>2026-03-22T16:57:43.291Z</time></trkpt><trkpt lat="44.8341878" lon="10.358606"><ele>36.0</ele><time>2026-03-22T16:58:00.287Z</time></trkpt><trkpt lat="44.8316348" lon="10.3654491"><ele>36.0</ele><time>2026-03-22T16:58:17.278Z</time></trkpt><trkpt lat="44.8290717" lon="10.37244"><ele>39.0</ele><time>2026-03-22T16:58:34.276Z</time></trkpt><trkpt lat="44.8264169" lon="10.3793391"><ele>40.0</ele><time>2026-03-22T16:58:51.282Z</time></trkpt><trkpt lat="44.8239048" lon="10.386141"><ele>38.0</ele><time>2026-03-22T16:59:08.282Z</time></trkpt><trkpt lat="44.8214366" lon="10.3929304"><ele>35.0</ele><time>2026-03-22T16:59:25.269Z</time></trkpt><trkpt lat="44.8187858" lon="10.3999895"><ele>35.0</ele><time>2026-03-22T16:59:43.273Z</time></trkpt><trkpt lat="44.8162884" lon="10.4067172"><ele>38.0</ele><time>2026-03-22T17:00:00.26Z</time></trkpt><trkpt lat="44.8136513" lon="10.4138116"><ele>38.0</ele><time>2026-03-22T17:00:18.266Z</time></trkpt><trkpt lat="44.8110188" lon="10.4209239"><ele>37.0</ele><time>2026-03-22T17:00:36.267Z</time></trkpt><trkpt lat="44.8085061" lon="10.4276536"><ele>37.0</ele><time>2026-03-22T17:00:53.268Z</time></trkpt><trkpt lat="44.8059274" lon="10.4346245"><ele>36.0</ele><time>2026-03-22T17:01:12.274Z</time></trkpt><trkpt lat="44.8034104" lon="10.4413899"><ele>39.0</ele><time>2026-03-22T17:01:29.267Z</time></trkpt><trkpt lat="44.8007794" lon="10.4484644"><ele>39.0</ele><time>2026-03-22T17:01:47.272Z</time></trkpt><trkpt lat="44.7981986" lon="10.4551404"><ele>39.0</ele><time>2026-03-22T17:02:04.273Z</time></trkpt><trkpt lat="44.7951898" lon="10.4619588"><ele>39.0</ele><time>2026-03-22T17:02:22.275Z</time></trkpt><trkpt lat="44.7920269" lon="10.4686015"><ele>42.0</ele><time>2026-03-22T17:02:40.271Z</time></trkpt><trkpt lat="44.7889119" lon="10.4752275"><ele>39.0</ele><time>2026-03-22T17:02:58.268Z</time></trkpt><trkpt lat="44.7858027" lon="10.481929"><ele>39.0</ele><time>2026-03-22T17:03:17.281Z</time></trkpt><trkpt lat="44.7826301" lon="10.4885745"><ele>38.0</ele><time>2026-03-22T17:03:35.279Z</time></trkpt><trkpt lat="44.7795946" lon="10.4951017"><ele>35.0</ele><time>2026-03-22T17:03:53.269Z</time></trkpt><trkpt lat="44.7765715" lon="10.5014452"><ele>39.0</ele><time>2026-03-22T17:04:10.264Z</time></trkpt><trkpt lat="44.773465" lon="10.5081634"><ele>37.0</ele><time>2026-03-22T17:04:28.279Z</time></trkpt><trkpt lat="44.7702677" lon="10.514819"><ele>33.0</ele><time>2026-03-22T17:04:46.258Z</time></trkpt><trkpt lat="44.7672726" lon="10.5211462"><ele>32.0</ele><time>2026-03-22T17:05:03.268Z</time></trkpt><trkpt lat="44.7641081" lon="10.5277924"><ele>34.0</ele><time>2026-03-22T17:05:21.264Z</time></trkpt><trkpt lat="44.7609157" lon="10.5344525"><ele>30.0</ele><time>2026-03-22T17:05:39.262Z</time></trkpt><trkpt lat="44.7578955" lon="10.54093"><ele>32.0</ele><time>2026-03-22T17:05:57.263Z</time></trkpt><trkpt lat="44.7551852" lon="10.546464"><ele>31.0</ele><time>2026-03-22T17:06:13.266Z</time></trkpt><trkpt lat="44.7520505" lon="10.5530122"><ele>35.0</ele><time>2026-03-22T17:06:33.26Z</time></trkpt><trkpt lat="44.7490694" lon="10.5593549"><ele>36.0</ele><time>2026-03-22T17:06:50.262Z</time></trkpt><trkpt lat="44.7462946" lon="10.5652097"><ele>33.0</ele><time>2026-03-22T17:07:06.259Z</time></trkpt><trkpt lat="44.7428095" lon="10.572668"><ele>40.0</ele><time>2026-03-22T17:07:25.258Z</time></trkpt><trkpt lat="44.7406499" lon="10.579647"><ele>38.0</ele><time>2026-03-22T17:07:42.257Z</time></trkpt><trkpt lat="44.7388569" lon="10.5870888"><ele>36.0</ele><time>2026-03-22T17:07:59.259Z</time></trkpt><trkpt lat="44.7370743" lon="10.5946005"><ele>40.0</ele><time>2026-03-22T17:08:16.26Z</time></trkpt><trkpt lat="44.7353338" lon="10.602054"><ele>44.0</ele><time>2026-03-22T17:08:33.272Z</time></trkpt><trkpt lat="44.7335746" lon="10.6095302"><ele>43.0</ele><time>2026-03-22T17:08:51.263Z</time></trkpt><trkpt lat="44.7318575" lon="10.6168613"><ele>42.0</ele><time>2026-03-22T17:09:09.261Z</time></trkpt><trkpt lat="44.7300952" lon="10.6242751"><ele>36.0</ele><time>2026-03-22T17:09:27.255Z</time></trkpt><trkpt lat="44.726968" lon="10.6305803"><ele>35.0</ele><time>2026-03-22T17:09:58.272Z</time></trkpt><trkpt lat="44.7243493" lon="10.6315146"><ele>34.0</ele><time>2026-03-22T17:13:54.262Z</time></trkpt><trkpt lat="44.7237851" lon="10.6342539"><ele>35.0</ele><time>2026-03-22T17:14:24.263Z</time></trkpt><trkpt lat="44.7266225" lon="10.6368815"><ele>33.0</ele><time>2026-03-22T17:14:40.282Z</time></trkpt><trkpt lat="44.7305441" lon="10.6391742"><ele>33.0</ele><time>2026-03-22T17:14:58.273Z</time></trkpt><trkpt lat="44.7343319" lon="10.6413817"><ele>30.0</ele><time>2026-03-22T17:15:15.273Z</time></trkpt><trkpt lat="44.738392" lon="10.6412222"><ele>29.0</ele><time>2026-03-22T17:15:34.261Z</time></trkpt><trkpt lat="44.7405391" lon="10.6421084"><ele>29.0</ele><time>2026-03-22T17:15:50.267Z</time></trkpt><trkpt lat="44.7444648" lon="10.6439555"><ele>29.0</ele><time>2026-03-22T17:16:09.267Z</time></trkpt><trkpt lat="44.7472192" lon="10.6468866"><ele>28.0</ele><time>2026-03-22T17:16:25.266Z</time></trkpt><trkpt lat="44.7497463" lon="10.6515682"><ele>29.0</ele><time>2026-03-22T17:16:54.261Z</time></trkpt><trkpt lat="44.7523166" lon="10.654965"><ele>29.0</ele><time>2026-03-22T17:17:11.265Z</time></trkpt><trkpt lat="44.75593" lon="10.657592"><ele>28.0</ele><time>2026-03-22T17:17:30.296Z</time></trkpt><trkpt lat="44.759005" lon="10.6595822"><ele>26.0</ele><time>2026-03-22T17:17:59.275Z</time></trkpt><trkpt lat="44.7628598" lon="10.6618064"><ele>25.0</ele><time>2026-03-22T17:18:20.264Z</time></trkpt><trkpt lat="44.7666107" lon="10.6642257"><ele>27.0</ele><time>2026-03-22T17:18:45.262Z</time></trkpt><trkpt lat="44.7690555" lon="10.6658886"><ele>25.0</ele><time>2026-03-22T17:19:07.256Z</time></trkpt><trkpt lat="44.7715482" lon="10.6675651"><ele>26.0</ele><time>2026-03-22T17:19:24.251Z</time></trkpt><trkpt lat="44.7744173" lon="10.6673597"><ele>24.0</ele><time>2026-03-22T17:19:46.252Z</time></trkpt><trkpt lat="44.7784092" lon="10.6663815"><ele>25.0</ele><time>2026-03-22T17:20:02.255Z</time></trkpt><trkpt lat="44.7830066" lon="10.6684552"><ele>26.0</ele><time>2026-03-22T17:20:20.259Z</time></trkpt><trkpt lat="44.7867604" lon="10.672844"><ele>27.0</ele><time>2026-03-22T17:20:38.255Z</time></trkpt><trkpt lat="44.7907299" lon="10.6767842"><ele>24.0</ele><time>2026-03-22T17:20:56.265Z</time></trkpt><trkpt lat="44.7952679" lon="10.6789842"><ele>23.0</ele><time>2026-03-22T17:21:17.257Z</time></trkpt><trkpt lat="44.7971799" lon="10.6799251"><ele>24.0</ele><time>2026-03-22T17:21:30.263Z</time></trkpt><trkpt lat="44.8014478" lon="10.6831608"><ele>22.0</ele><time>2026-03-22T17:21:57.257Z</time></trkpt><trkpt lat="44.8053708" lon="10.6848859"><ele>22.0</ele><time>2026-03-22T17:22:16.264Z</time></trkpt><trkpt lat="44.8092355" lon="10.6869629"><ele>21.0</ele><time>2026-03-22T17:22:45.255Z</time></trkpt><trkpt lat="44.8119196" lon="10.6883008"><ele>19.0</ele><time>2026-03-22T17:23:01.261Z</time></trkpt><trkpt lat="44.8158063" lon="10.6903198"><ele>20.0</ele><time>2026-03-22T17:23:20.259Z</time></trkpt><trkpt lat="44.8197977" lon="10.6925923"><ele>22.0</ele><time>2026-03-22T17:23:39.269Z</time></trkpt><trkpt lat="44.8241771" lon="10.6952495"><ele>22.0</ele><time>2026-03-22T17:24:07.252Z</time></trkpt><trkpt lat="44.8290678" lon="10.6985668"><ele>21.0</ele><time>2026-03-22T17:24:30.256Z</time></trkpt><trkpt lat="44.8280722" lon="10.702448"><ele>24.0</ele><time>2026-03-22T17:24:42.261Z</time></trkpt><trkpt lat="44.8305173" lon="10.7084135"><ele>22.0</ele><time>2026-03-22T17:25:35.264Z</time></trkpt><trkpt lat="44.8335572" lon="10.7109519"><ele>25.0</ele><time>2026-03-22T17:25:55.253Z</time></trkpt><trkpt lat="44.8362768" lon="10.7140532"><ele>25.0</ele><time>2026-03-22T17:26:25.251Z</time></trkpt><trkpt lat="44.8384556" lon="10.716462"><ele>28.0</ele><time>2026-03-22T17:26:43.253Z</time></trkpt><trkpt lat="44.8409097" lon="10.7183131"><ele>26.0</ele><time>2026-03-22T17:27:06.246Z</time></trkpt><trkpt lat="44.8432512" lon="10.7202212"><ele>26.0</ele><time>2026-03-22T17:27:36.25Z</time></trkpt><trkpt lat="44.844426" lon="10.7211763"><ele>24.0</ele><time>2026-03-22T17:28:27.243Z</time></trkpt><trkpt lat="44.8460331" lon="10.724294"><ele>27.0</ele><time>2026-03-22T17:28:59.248Z</time></trkpt><trkpt lat="44.8476841" lon="10.7259463"><ele>26.0</ele><time>2026-03-22T17:29:21.249Z</time></trkpt><trkpt lat="44.8479519" lon="10.7268174"><ele>26.0</ele><time>2026-03-22T17:29:37.243Z</time></trkpt><trkpt lat="44.8482379" lon="10.72879"><ele>26.0</ele><time>2026-03-22T17:29:54.238Z</time></trkpt><trkpt lat="44.8496375" lon="10.7320586"><ele>24.0</ele><time>2026-03-22T17:30:25.244Z</time></trkpt><trkpt lat="44.8517078" lon="10.7346549"><ele>22.0</ele><time>2026-03-22T17:30:43.245Z</time></trkpt><trkpt lat="44.8534667" lon="10.7375735"><ele>23.0</ele><time>2026-03-22T17:31:03.254Z</time></trkpt><trkpt lat="44.8550032" lon="10.7395113"><ele>24.0</ele><time>2026-03-22T17:31:17.251Z</time></trkpt><trkpt lat="44.8575064" lon="10.7431156"><ele>21.0</ele><time>2026-03-22T17:31:33.242Z</time></trkpt><trkpt lat="44.8609607" lon="10.7478518"><ele>21.0</ele><time>2026-03-22T17:31:56.255Z</time></trkpt><trkpt lat="44.8629516" lon="10.7504926"><ele>19.0</ele><time>2026-03-22T17:32:10.255Z</time></trkpt><trkpt lat="44.8651224" lon="10.7543955"><ele>17.0</ele><time>2026-03-22T17:32:33.254Z</time></trkpt><trkpt lat="44.8674897" lon="10.7578556"><ele>19.0</ele><time>2026-03-22T17:32:55.259Z</time></trkpt><trkpt lat="44.8710399" lon="10.7608436"><ele>21.0</ele><time>2026-03-22T17:33:18.262Z</time></trkpt><trkpt lat="44.8740531" lon="10.7631797"><ele>20.0</ele><time>2026-03-22T17:33:42.256Z</time></trkpt><trkpt lat="44.876518" lon="10.7650416"><ele>18.0</ele><time>2026-03-22T17:33:57.255Z</time></trkpt><trkpt lat="44.8800085" lon="10.7681974"><ele>19.0</ele><time>2026-03-22T17:34:14.251Z</time></trkpt><trkpt lat="44.8837206" lon="10.7724525"><ele>23.0</ele><time>2026-03-22T17:34:31.252Z</time></trkpt><trkpt lat="44.8876455" lon="10.7764778"><ele>15.0</ele><time>2026-03-22T17:34:48.252Z</time></trkpt><trkpt lat="44.8872906" lon="10.7833675"><ele>18.0</ele><time>2026-03-22T17:35:19.26Z</time></trkpt><trkpt lat="44.884135" lon="10.789848"><ele>17.0</ele><time>2026-03-22T17:35:39.265Z</time></trkpt><trkpt lat="44.8797851" lon="10.7927922"><ele>19.0</ele><time>2026-03-22T17:36:14.263Z</time></trkpt><trkpt lat="44.8766367" lon="10.7952771"><ele>24.0</ele><time>2026-03-22T17:36:29.253Z</time></trkpt><trkpt lat="44.8732611" lon="10.799961"><ele>24.0</ele><time>2026-03-22T17:36:55.257Z</time></trkpt></trkseg></trk></gpx>